<?xml version="1.0" encoding="UTF-8" standalone="no" ?>
<gpx xmlns="http://www.topografix.com/GPX/1/1" xmlns:xsi="http://www.w3.org/2001/XMLSchema-instance" xsi:schemaLocation="http://www.topografix.com/GPX/1/1 http://www.topografix.com/GPX/1/1/gpx.xsd" version="1.1" creator="VisuGPX - https://www.visugpx.com">
  <metadata>
    <name>Tour Valette Col de la Vanoise Glacier de la Vanoise</name>
    <desc><![CDATA[Depuis Pralognan, montée au refuge de la Valette, traversée jusqu'au refuge de la Vanoise et retour par la traversée des glaciers de la Vanoise en passant par la pointe du Dard et dôme des Sonailles]]></desc>
  </metadata>
  <trk>
    <name><![CDATA[RETKUR-10 15:56:43]]></name>
    <trkseg>
      <trkpt lat="45.34518" lon="6.70036">
        <ele>1660.33</ele>
        <time>2010-08-02T14:18:58Z</time>
      </trkpt>
      <trkpt lat="45.34518" lon="6.70036">
        <ele>1660.33</ele>
        <time>2010-08-02T14:18:59Z</time>
      </trkpt>
      <trkpt lat="45.34518" lon="6.70036">
        <ele>1656.49</ele>
        <time>2010-08-02T14:19:00Z</time>
      </trkpt>
      <trkpt lat="45.34518" lon="6.70036">
        <ele>1656.01</ele>
        <time>2010-08-02T14:19:02Z</time>
      </trkpt>
      <trkpt lat="45.34517" lon="6.70036">
        <ele>1659.37</ele>
        <time>2010-08-02T14:19:05Z</time>
      </trkpt>
      <trkpt lat="45.34517" lon="6.70037">
        <ele>1652.16</ele>
        <time>2010-08-02T14:19:08Z</time>
      </trkpt>
      <trkpt lat="45.34517" lon="6.70037">
        <ele>1663.7</ele>
        <time>2010-08-02T14:19:09Z</time>
      </trkpt>
      <trkpt lat="45.34519" lon="6.70036">
        <ele>1668.02</ele>
        <time>2010-08-02T14:19:11Z</time>
      </trkpt>
      <trkpt lat="45.3452" lon="6.70037">
        <ele>1672.35</ele>
        <time>2010-08-02T14:19:13Z</time>
      </trkpt>
      <trkpt lat="45.3452" lon="6.70037">
        <ele>1675.72</ele>
        <time>2010-08-02T14:19:15Z</time>
      </trkpt>
      <trkpt lat="45.34521" lon="6.70037">
        <ele>1679.56</ele>
        <time>2010-08-02T14:19:17Z</time>
      </trkpt>
      <trkpt lat="45.34522" lon="6.70036">
        <ele>1684.85</ele>
        <time>2010-08-02T14:19:20Z</time>
      </trkpt>
      <trkpt lat="45.34522" lon="6.70036">
        <ele>1688.21</ele>
        <time>2010-08-02T14:19:23Z</time>
      </trkpt>
      <trkpt lat="45.34522" lon="6.70035">
        <ele>1692.06</ele>
        <time>2010-08-02T14:19:26Z</time>
      </trkpt>
      <trkpt lat="45.34522" lon="6.70035">
        <ele>1694.94</ele>
        <time>2010-08-02T14:19:27Z</time>
      </trkpt>
      <trkpt lat="45.34522" lon="6.70035">
        <ele>1698.31</ele>
        <time>2010-08-02T14:19:31Z</time>
      </trkpt>
      <trkpt lat="45.34522" lon="6.70035">
        <ele>1697.34</ele>
        <time>2010-08-02T14:19:32Z</time>
      </trkpt>
      <trkpt lat="45.34522" lon="6.70035">
        <ele>1725.7</ele>
        <time>2010-08-02T14:24:17Z</time>
      </trkpt>
      <trkpt lat="45.34522" lon="6.70035">
        <ele>1701.19</ele>
        <time>2010-08-02T14:24:19Z</time>
      </trkpt>
      <trkpt lat="45.34534" lon="6.70084">
        <ele>1701.19</ele>
        <time>2010-08-02T14:24:26Z</time>
      </trkpt>
      <trkpt lat="45.34544" lon="6.70078">
        <ele>1705.52</ele>
        <time>2010-08-02T14:24:49Z</time>
      </trkpt>
      <trkpt lat="45.34544" lon="6.70078">
        <ele>1701.67</ele>
        <time>2010-08-02T14:24:50Z</time>
      </trkpt>
      <trkpt lat="45.34543" lon="6.70078">
        <ele>1707.44</ele>
        <time>2010-08-02T14:24:51Z</time>
      </trkpt>
      <trkpt lat="45.34543" lon="6.70079">
        <ele>1710.8</ele>
        <time>2010-08-02T14:24:55Z</time>
      </trkpt>
      <trkpt lat="45.34541" lon="6.7008">
        <ele>1714.17</ele>
        <time>2010-08-02T14:24:59Z</time>
      </trkpt>
      <trkpt lat="45.3454" lon="6.7008">
        <ele>1719.94</ele>
        <time>2010-08-02T14:25:05Z</time>
      </trkpt>
      <trkpt lat="45.3454" lon="6.7008">
        <ele>1719.46</ele>
        <time>2010-08-02T14:25:06Z</time>
      </trkpt>
      <trkpt lat="45.34539" lon="6.7008">
        <ele>1714.17</ele>
        <time>2010-08-02T14:25:10Z</time>
      </trkpt>
      <trkpt lat="45.34539" lon="6.7008">
        <ele>1719.46</ele>
        <time>2010-08-02T14:25:11Z</time>
      </trkpt>
      <trkpt lat="45.34539" lon="6.70081">
        <ele>1722.82</ele>
        <time>2010-08-02T14:25:15Z</time>
      </trkpt>
      <trkpt lat="45.34539" lon="6.70081">
        <ele>1711.76</ele>
        <time>2010-08-02T14:25:16Z</time>
      </trkpt>
      <trkpt lat="45.34539" lon="6.70081">
        <ele>1721.38</ele>
        <time>2010-08-02T14:25:17Z</time>
      </trkpt>
      <trkpt lat="45.3454" lon="6.70081">
        <ele>1723.3</ele>
        <time>2010-08-02T14:25:19Z</time>
      </trkpt>
      <trkpt lat="45.3454" lon="6.70081">
        <ele>1725.22</ele>
        <time>2010-08-02T14:25:22Z</time>
      </trkpt>
      <trkpt lat="45.3454" lon="6.70081">
        <ele>1726.67</ele>
        <time>2010-08-02T14:25:24Z</time>
      </trkpt>
      <trkpt lat="45.3454" lon="6.70081">
        <ele>1720.42</ele>
        <time>2010-08-02T14:25:26Z</time>
      </trkpt>
      <trkpt lat="45.3454" lon="6.70081">
        <ele>1724.26</ele>
        <time>2010-08-02T14:25:27Z</time>
      </trkpt>
      <trkpt lat="45.3454" lon="6.70081">
        <ele>1727.63</ele>
        <time>2010-08-02T14:25:28Z</time>
      </trkpt>
      <trkpt lat="45.3454" lon="6.70081">
        <ele>1720.9</ele>
        <time>2010-08-02T14:25:29Z</time>
      </trkpt>
      <trkpt lat="45.3454" lon="6.70081">
        <ele>1727.15</ele>
        <time>2010-08-02T14:25:30Z</time>
      </trkpt>
      <trkpt lat="45.34541" lon="6.70081">
        <ele>1728.59</ele>
        <time>2010-08-02T14:25:33Z</time>
      </trkpt>
      <trkpt lat="45.34542" lon="6.7008">
        <ele>1724.74</ele>
        <time>2010-08-02T14:25:36Z</time>
      </trkpt>
      <trkpt lat="45.34542" lon="6.7008">
        <ele>1729.07</ele>
        <time>2010-08-02T14:25:37Z</time>
      </trkpt>
      <trkpt lat="45.34542" lon="6.70081">
        <ele>1725.22</ele>
        <time>2010-08-02T14:25:43Z</time>
      </trkpt>
      <trkpt lat="45.34542" lon="6.70081">
        <ele>1728.59</ele>
        <time>2010-08-02T14:25:44Z</time>
      </trkpt>
      <trkpt lat="45.34541" lon="6.70081">
        <ele>1724.74</ele>
        <time>2010-08-02T14:25:51Z</time>
      </trkpt>
      <trkpt lat="45.34541" lon="6.70081">
        <ele>1728.59</ele>
        <time>2010-08-02T14:25:52Z</time>
      </trkpt>
      <trkpt lat="45.34541" lon="6.7008">
        <ele>1732.91</ele>
        <time>2010-08-02T14:25:53Z</time>
      </trkpt>
      <trkpt lat="45.34541" lon="6.7008">
        <ele>1731.47</ele>
        <time>2010-08-02T14:25:54Z</time>
      </trkpt>
      <trkpt lat="45.34544" lon="6.70078">
        <ele>1730.99</ele>
        <time>2010-08-02T14:26:19Z</time>
      </trkpt>
      <trkpt lat="45.34538" lon="6.70081">
        <ele>1730.51</ele>
        <time>2010-08-02T14:26:47Z</time>
      </trkpt>
      <trkpt lat="45.34542" lon="6.70077">
        <ele>1727.63</ele>
        <time>2010-08-02T14:28:01Z</time>
      </trkpt>
      <trkpt lat="45.34542" lon="6.70077">
        <ele>1730.99</ele>
        <time>2010-08-02T14:28:03Z</time>
      </trkpt>
      <trkpt lat="45.34541" lon="6.70077">
        <ele>1727.15</ele>
        <time>2010-08-02T14:29:06Z</time>
      </trkpt>
      <trkpt lat="45.34541" lon="6.70078">
        <ele>1731.95</ele>
        <time>2010-08-02T14:29:07Z</time>
      </trkpt>
      <trkpt lat="45.3454" lon="6.70098">
        <ele>1735.8</ele>
        <time>2010-08-02T14:29:45Z</time>
      </trkpt>
      <trkpt lat="45.34546" lon="6.70105">
        <ele>1737.24</ele>
        <time>2010-08-02T14:29:56Z</time>
      </trkpt>
      <trkpt lat="45.34555" lon="6.70115">
        <ele>1738.68</ele>
        <time>2010-08-02T14:30:11Z</time>
      </trkpt>
      <trkpt lat="45.34563" lon="6.70122">
        <ele>1740.6</ele>
        <time>2010-08-02T14:30:20Z</time>
      </trkpt>
      <trkpt lat="45.34568" lon="6.7013">
        <ele>1741.08</ele>
        <time>2010-08-02T14:30:30Z</time>
      </trkpt>
      <trkpt lat="45.34573" lon="6.70139">
        <ele>1742.05</ele>
        <time>2010-08-02T14:30:40Z</time>
      </trkpt>
      <trkpt lat="45.34582" lon="6.70147">
        <ele>1743.01</ele>
        <time>2010-08-02T14:30:50Z</time>
      </trkpt>
      <trkpt lat="45.34589" lon="6.70155">
        <ele>1743.01</ele>
        <time>2010-08-02T14:31:01Z</time>
      </trkpt>
      <trkpt lat="45.34598" lon="6.70163">
        <ele>1743.97</ele>
        <time>2010-08-02T14:31:13Z</time>
      </trkpt>
      <trkpt lat="45.34603" lon="6.70172">
        <ele>1743.97</ele>
        <time>2010-08-02T14:31:22Z</time>
      </trkpt>
      <trkpt lat="45.34613" lon="6.7018">
        <ele>1744.93</ele>
        <time>2010-08-02T14:31:34Z</time>
      </trkpt>
      <trkpt lat="45.3463" lon="6.70198">
        <ele>1747.81</ele>
        <time>2010-08-02T14:31:58Z</time>
      </trkpt>
      <trkpt lat="45.34636" lon="6.70206">
        <ele>1748.29</ele>
        <time>2010-08-02T14:32:07Z</time>
      </trkpt>
      <trkpt lat="45.34638" lon="6.7021">
        <ele>1749.26</ele>
        <time>2010-08-02T14:32:12Z</time>
      </trkpt>
      <trkpt lat="45.34645" lon="6.70224">
        <ele>1751.66</ele>
        <time>2010-08-02T14:32:30Z</time>
      </trkpt>
      <trkpt lat="45.34645" lon="6.70239">
        <ele>1753.1</ele>
        <time>2010-08-02T14:32:43Z</time>
      </trkpt>
      <trkpt lat="45.34645" lon="6.70255">
        <ele>1755.99</ele>
        <time>2010-08-02T14:32:59Z</time>
      </trkpt>
      <trkpt lat="45.34646" lon="6.70263">
        <ele>1757.43</ele>
        <time>2010-08-02T14:33:10Z</time>
      </trkpt>
      <trkpt lat="45.34646" lon="6.70265">
        <ele>1758.39</ele>
        <time>2010-08-02T14:33:12Z</time>
      </trkpt>
      <trkpt lat="45.34651" lon="6.7028">
        <ele>1760.79</ele>
        <time>2010-08-02T14:33:30Z</time>
      </trkpt>
      <trkpt lat="45.34648" lon="6.70287">
        <ele>1763.2</ele>
        <time>2010-08-02T14:33:39Z</time>
      </trkpt>
      <trkpt lat="45.34649" lon="6.70291">
        <ele>1764.16</ele>
        <time>2010-08-02T14:33:45Z</time>
      </trkpt>
      <trkpt lat="45.34651" lon="6.70298">
        <ele>1766.08</ele>
        <time>2010-08-02T14:33:53Z</time>
      </trkpt>
      <trkpt lat="45.34653" lon="6.70314">
        <ele>1768.48</ele>
        <time>2010-08-02T14:34:11Z</time>
      </trkpt>
      <trkpt lat="45.34658" lon="6.70324">
        <ele>1770.89</ele>
        <time>2010-08-02T14:34:21Z</time>
      </trkpt>
      <trkpt lat="45.34662" lon="6.70332">
        <ele>1770.89</ele>
        <time>2010-08-02T14:34:30Z</time>
      </trkpt>
      <trkpt lat="45.34669" lon="6.70346">
        <ele>1774.25</ele>
        <time>2010-08-02T14:34:47Z</time>
      </trkpt>
      <trkpt lat="45.34674" lon="6.70356">
        <ele>1775.69</ele>
        <time>2010-08-02T14:34:59Z</time>
      </trkpt>
      <trkpt lat="45.34676" lon="6.70367">
        <ele>1777.13</ele>
        <time>2010-08-02T14:35:08Z</time>
      </trkpt>
      <trkpt lat="45.34683" lon="6.70383">
        <ele>1780.5</ele>
        <time>2010-08-02T14:35:28Z</time>
      </trkpt>
      <trkpt lat="45.34683" lon="6.70389">
        <ele>1780.98</ele>
        <time>2010-08-02T14:35:36Z</time>
      </trkpt>
      <trkpt lat="45.34681" lon="6.704">
        <ele>1783.38</ele>
        <time>2010-08-02T14:35:47Z</time>
      </trkpt>
      <trkpt lat="45.34676" lon="6.70413">
        <ele>1786.27</ele>
        <time>2010-08-02T14:36:05Z</time>
      </trkpt>
      <trkpt lat="45.34673" lon="6.70414">
        <ele>1788.19</ele>
        <time>2010-08-02T14:36:20Z</time>
      </trkpt>
      <trkpt lat="45.34675" lon="6.70417">
        <ele>1791.07</ele>
        <time>2010-08-02T14:36:33Z</time>
      </trkpt>
      <trkpt lat="45.34678" lon="6.70424">
        <ele>1794.44</ele>
        <time>2010-08-02T14:36:55Z</time>
      </trkpt>
      <trkpt lat="45.34679" lon="6.70424">
        <ele>1794.92</ele>
        <time>2010-08-02T14:36:56Z</time>
      </trkpt>
      <trkpt lat="45.34675" lon="6.70432">
        <ele>1795.4</ele>
        <time>2010-08-02T14:37:04Z</time>
      </trkpt>
      <trkpt lat="45.34677" lon="6.70439">
        <ele>1798.28</ele>
        <time>2010-08-02T14:37:17Z</time>
      </trkpt>
      <trkpt lat="45.34678" lon="6.70448">
        <ele>1799.73</ele>
        <time>2010-08-02T14:37:27Z</time>
      </trkpt>
      <trkpt lat="45.34679" lon="6.70458">
        <ele>1802.61</ele>
        <time>2010-08-02T14:37:39Z</time>
      </trkpt>
      <trkpt lat="45.34674" lon="6.70483">
        <ele>1805.97</ele>
        <time>2010-08-02T14:38:04Z</time>
      </trkpt>
      <trkpt lat="45.34673" lon="6.70485">
        <ele>1805.49</ele>
        <time>2010-08-02T14:38:07Z</time>
      </trkpt>
      <trkpt lat="45.34669" lon="6.70494">
        <ele>1806.94</ele>
        <time>2010-08-02T14:38:17Z</time>
      </trkpt>
      <trkpt lat="45.34668" lon="6.70495">
        <ele>1810.3</ele>
        <time>2010-08-02T14:38:59Z</time>
      </trkpt>
      <trkpt lat="45.34668" lon="6.70495">
        <ele>1810.3</ele>
        <time>2010-08-02T14:39:00Z</time>
      </trkpt>
      <trkpt lat="45.34658" lon="6.70494">
        <ele>1812.7</ele>
        <time>2010-08-02T14:39:21Z</time>
      </trkpt>
      <trkpt lat="45.34657" lon="6.70493">
        <ele>1813.18</ele>
        <time>2010-08-02T14:39:22Z</time>
      </trkpt>
      <trkpt lat="45.34654" lon="6.70492">
        <ele>1814.63</ele>
        <time>2010-08-02T14:39:28Z</time>
      </trkpt>
      <trkpt lat="45.34647" lon="6.70486">
        <ele>1816.07</ele>
        <time>2010-08-02T14:39:40Z</time>
      </trkpt>
      <trkpt lat="45.34637" lon="6.70484">
        <ele>1818.95</ele>
        <time>2010-08-02T14:39:52Z</time>
      </trkpt>
      <trkpt lat="45.34627" lon="6.70481">
        <ele>1820.87</ele>
        <time>2010-08-02T14:40:08Z</time>
      </trkpt>
      <trkpt lat="45.34622" lon="6.7048">
        <ele>1822.32</ele>
        <time>2010-08-02T14:40:17Z</time>
      </trkpt>
      <trkpt lat="45.34613" lon="6.70478">
        <ele>1826.16</ele>
        <time>2010-08-02T14:40:37Z</time>
      </trkpt>
      <trkpt lat="45.34607" lon="6.70477">
        <ele>1826.64</ele>
        <time>2010-08-02T14:40:46Z</time>
      </trkpt>
      <trkpt lat="45.34603" lon="6.70481">
        <ele>1827.6</ele>
        <time>2010-08-02T14:40:57Z</time>
      </trkpt>
      <trkpt lat="45.34604" lon="6.7049">
        <ele>1830.01</ele>
        <time>2010-08-02T14:41:12Z</time>
      </trkpt>
      <trkpt lat="45.346" lon="6.70497">
        <ele>1830.49</ele>
        <time>2010-08-02T14:41:21Z</time>
      </trkpt>
      <trkpt lat="45.346" lon="6.70499">
        <ele>1833.37</ele>
        <time>2010-08-02T14:41:31Z</time>
      </trkpt>
      <trkpt lat="45.34597" lon="6.70497">
        <ele>1835.29</ele>
        <time>2010-08-02T14:41:47Z</time>
      </trkpt>
      <trkpt lat="45.34591" lon="6.70492">
        <ele>1836.26</ele>
        <time>2010-08-02T14:41:58Z</time>
      </trkpt>
      <trkpt lat="45.34591" lon="6.70492">
        <ele>1835.77</ele>
        <time>2010-08-02T14:42:01Z</time>
      </trkpt>
      <trkpt lat="45.34584" lon="6.70499">
        <ele>1838.66</ele>
        <time>2010-08-02T14:42:21Z</time>
      </trkpt>
      <trkpt lat="45.34583" lon="6.70503">
        <ele>1842.02</ele>
        <time>2010-08-02T14:42:32Z</time>
      </trkpt>
      <trkpt lat="45.34576" lon="6.70505">
        <ele>1842.5</ele>
        <time>2010-08-02T14:42:44Z</time>
      </trkpt>
      <trkpt lat="45.34574" lon="6.70513">
        <ele>1843.47</ele>
        <time>2010-08-02T14:42:53Z</time>
      </trkpt>
      <trkpt lat="45.34574" lon="6.70523">
        <ele>1844.43</ele>
        <time>2010-08-02T14:43:03Z</time>
      </trkpt>
      <trkpt lat="45.34568" lon="6.70525">
        <ele>1846.83</ele>
        <time>2010-08-02T14:43:16Z</time>
      </trkpt>
      <trkpt lat="45.34564" lon="6.70524">
        <ele>1847.79</ele>
        <time>2010-08-02T14:43:26Z</time>
      </trkpt>
      <trkpt lat="45.3456" lon="6.70524">
        <ele>1848.27</ele>
        <time>2010-08-02T14:43:38Z</time>
      </trkpt>
      <trkpt lat="45.34558" lon="6.70525">
        <ele>1848.75</ele>
        <time>2010-08-02T14:43:40Z</time>
      </trkpt>
      <trkpt lat="45.34558" lon="6.70526">
        <ele>1848.75</ele>
        <time>2010-08-02T14:43:56Z</time>
      </trkpt>
      <trkpt lat="45.34558" lon="6.70526">
        <ele>1848.27</ele>
        <time>2010-08-02T14:43:57Z</time>
      </trkpt>
      <trkpt lat="45.34559" lon="6.70525">
        <ele>1842.02</ele>
        <time>2010-08-02T14:43:59Z</time>
      </trkpt>
      <trkpt lat="45.3456" lon="6.70524">
        <ele>1845.39</ele>
        <time>2010-08-02T14:44:00Z</time>
      </trkpt>
      <trkpt lat="45.3456" lon="6.70525">
        <ele>1848.75</ele>
        <time>2010-08-02T14:44:02Z</time>
      </trkpt>
      <trkpt lat="45.34559" lon="6.70525">
        <ele>1842.5</ele>
        <time>2010-08-02T14:44:05Z</time>
      </trkpt>
      <trkpt lat="45.34559" lon="6.70525">
        <ele>1847.79</ele>
        <time>2010-08-02T14:44:06Z</time>
      </trkpt>
      <trkpt lat="45.34559" lon="6.70525">
        <ele>1848.27</ele>
        <time>2010-08-02T14:44:16Z</time>
      </trkpt>
      <trkpt lat="45.34559" lon="6.70525">
        <ele>1849.23</ele>
        <time>2010-08-02T14:44:34Z</time>
      </trkpt>
      <trkpt lat="45.34561" lon="6.70523">
        <ele>1849.71</ele>
        <time>2010-08-02T14:45:09Z</time>
      </trkpt>
      <trkpt lat="45.34562" lon="6.70522">
        <ele>1850.68</ele>
        <time>2010-08-02T14:45:34Z</time>
      </trkpt>
      <trkpt lat="45.34562" lon="6.70522">
        <ele>1849.71</ele>
        <time>2010-08-02T14:45:56Z</time>
      </trkpt>
      <trkpt lat="45.34562" lon="6.70522">
        <ele>1850.68</ele>
        <time>2010-08-02T14:46:15Z</time>
      </trkpt>
      <trkpt lat="45.34555" lon="6.70523">
        <ele>1849.71</ele>
        <time>2010-08-02T14:46:28Z</time>
      </trkpt>
      <trkpt lat="45.34553" lon="6.70522">
        <ele>1850.68</ele>
        <time>2010-08-02T14:46:32Z</time>
      </trkpt>
      <trkpt lat="45.34551" lon="6.70531">
        <ele>1852.6</ele>
        <time>2010-08-02T14:46:44Z</time>
      </trkpt>
      <trkpt lat="45.3455" lon="6.70537">
        <ele>1855</ele>
        <time>2010-08-02T14:46:57Z</time>
      </trkpt>
      <trkpt lat="45.34541" lon="6.70538">
        <ele>1855.96</ele>
        <time>2010-08-02T14:47:10Z</time>
      </trkpt>
      <trkpt lat="45.34534" lon="6.70541">
        <ele>1857.4</ele>
        <time>2010-08-02T14:47:22Z</time>
      </trkpt>
      <trkpt lat="45.34526" lon="6.70541">
        <ele>1859.33</ele>
        <time>2010-08-02T14:47:34Z</time>
      </trkpt>
      <trkpt lat="45.34521" lon="6.70543">
        <ele>1860.29</ele>
        <time>2010-08-02T14:47:42Z</time>
      </trkpt>
      <trkpt lat="45.34519" lon="6.7055">
        <ele>1862.69</ele>
        <time>2010-08-02T14:47:53Z</time>
      </trkpt>
      <trkpt lat="45.34514" lon="6.70546">
        <ele>1863.65</ele>
        <time>2010-08-02T14:48:02Z</time>
      </trkpt>
      <trkpt lat="45.34511" lon="6.70549">
        <ele>1864.61</ele>
        <time>2010-08-02T14:48:13Z</time>
      </trkpt>
      <trkpt lat="45.34508" lon="6.70551">
        <ele>1866.54</ele>
        <time>2010-08-02T14:48:24Z</time>
      </trkpt>
      <trkpt lat="45.34507" lon="6.70561">
        <ele>1867.98</ele>
        <time>2010-08-02T14:48:36Z</time>
      </trkpt>
      <trkpt lat="45.34502" lon="6.7056">
        <ele>1870.38</ele>
        <time>2010-08-02T14:48:48Z</time>
      </trkpt>
      <trkpt lat="45.34498" lon="6.70561">
        <ele>1871.82</ele>
        <time>2010-08-02T14:48:59Z</time>
      </trkpt>
      <trkpt lat="45.34495" lon="6.70559">
        <ele>1872.79</ele>
        <time>2010-08-02T14:49:04Z</time>
      </trkpt>
      <trkpt lat="45.34489" lon="6.7055">
        <ele>1873.75</ele>
        <time>2010-08-02T14:49:17Z</time>
      </trkpt>
      <trkpt lat="45.34488" lon="6.70549">
        <ele>1874.71</ele>
        <time>2010-08-02T14:49:22Z</time>
      </trkpt>
      <trkpt lat="45.34486" lon="6.70551">
        <ele>1875.67</ele>
        <time>2010-08-02T14:49:25Z</time>
      </trkpt>
      <trkpt lat="45.34486" lon="6.70554">
        <ele>1875.19</ele>
        <time>2010-08-02T14:49:27Z</time>
      </trkpt>
      <trkpt lat="45.34484" lon="6.70566">
        <ele>1877.11</ele>
        <time>2010-08-02T14:49:40Z</time>
      </trkpt>
      <trkpt lat="45.34485" lon="6.70566">
        <ele>1877.11</ele>
        <time>2010-08-02T14:49:41Z</time>
      </trkpt>
      <trkpt lat="45.34484" lon="6.70578">
        <ele>1878.55</ele>
        <time>2010-08-02T14:49:53Z</time>
      </trkpt>
      <trkpt lat="45.34488" lon="6.70586">
        <ele>1879.51</ele>
        <time>2010-08-02T14:50:01Z</time>
      </trkpt>
      <trkpt lat="45.34487" lon="6.7059">
        <ele>1879.03</ele>
        <time>2010-08-02T14:50:14Z</time>
      </trkpt>
      <trkpt lat="45.34487" lon="6.70591">
        <ele>1879.03</ele>
        <time>2010-08-02T14:50:22Z</time>
      </trkpt>
      <trkpt lat="45.34486" lon="6.70593">
        <ele>1879.03</ele>
        <time>2010-08-02T14:50:30Z</time>
      </trkpt>
      <trkpt lat="45.34486" lon="6.70593">
        <ele>1878.55</ele>
        <time>2010-08-02T14:50:36Z</time>
      </trkpt>
      <trkpt lat="45.34486" lon="6.70593">
        <ele>1878.55</ele>
        <time>2010-08-02T14:50:50Z</time>
      </trkpt>
      <trkpt lat="45.34486" lon="6.70598">
        <ele>1879.03</ele>
        <time>2010-08-02T14:51:11Z</time>
      </trkpt>
      <trkpt lat="45.34487" lon="6.70605">
        <ele>1879.03</ele>
        <time>2010-08-02T14:51:18Z</time>
      </trkpt>
      <trkpt lat="45.34491" lon="6.70607">
        <ele>1880.48</ele>
        <time>2010-08-02T14:51:22Z</time>
      </trkpt>
      <trkpt lat="45.34495" lon="6.70615">
        <ele>1880.96</ele>
        <time>2010-08-02T14:51:35Z</time>
      </trkpt>
      <trkpt lat="45.34495" lon="6.70615">
        <ele>1880</ele>
        <time>2010-08-02T14:51:44Z</time>
      </trkpt>
      <trkpt lat="45.34495" lon="6.70615">
        <ele>1881.92</ele>
        <time>2010-08-02T14:51:46Z</time>
      </trkpt>
      <trkpt lat="45.34495" lon="6.70614">
        <ele>1881.44</ele>
        <time>2010-08-02T14:53:30Z</time>
      </trkpt>
      <trkpt lat="45.34495" lon="6.70614">
        <ele>1881.44</ele>
        <time>2010-08-02T14:53:54Z</time>
      </trkpt>
      <trkpt lat="45.34496" lon="6.70616">
        <ele>1882.4</ele>
        <time>2010-08-02T14:54:28Z</time>
      </trkpt>
      <trkpt lat="45.34497" lon="6.70623">
        <ele>1883.36</ele>
        <time>2010-08-02T14:55:18Z</time>
      </trkpt>
      <trkpt lat="45.34499" lon="6.70635">
        <ele>1885.76</ele>
        <time>2010-08-02T14:55:30Z</time>
      </trkpt>
      <trkpt lat="45.34502" lon="6.70643">
        <ele>1888.17</ele>
        <time>2010-08-02T14:55:40Z</time>
      </trkpt>
      <trkpt lat="45.34504" lon="6.7065">
        <ele>1889.61</ele>
        <time>2010-08-02T14:55:48Z</time>
      </trkpt>
      <trkpt lat="45.34507" lon="6.70657">
        <ele>1891.53</ele>
        <time>2010-08-02T14:55:57Z</time>
      </trkpt>
      <trkpt lat="45.34506" lon="6.70664">
        <ele>1893.45</ele>
        <time>2010-08-02T14:56:04Z</time>
      </trkpt>
      <trkpt lat="45.34505" lon="6.70671">
        <ele>1895.38</ele>
        <time>2010-08-02T14:56:14Z</time>
      </trkpt>
      <trkpt lat="45.34506" lon="6.70679">
        <ele>1896.34</ele>
        <time>2010-08-02T14:56:25Z</time>
      </trkpt>
      <trkpt lat="45.34507" lon="6.70684">
        <ele>1897.3</ele>
        <time>2010-08-02T14:56:35Z</time>
      </trkpt>
      <trkpt lat="45.34507" lon="6.70684">
        <ele>1896.82</ele>
        <time>2010-08-02T14:56:46Z</time>
      </trkpt>
      <trkpt lat="45.34507" lon="6.70689">
        <ele>1897.78</ele>
        <time>2010-08-02T14:57:07Z</time>
      </trkpt>
      <trkpt lat="45.34508" lon="6.70696">
        <ele>1898.74</ele>
        <time>2010-08-02T14:58:06Z</time>
      </trkpt>
      <trkpt lat="45.34507" lon="6.70701">
        <ele>1899.22</ele>
        <time>2010-08-02T14:58:13Z</time>
      </trkpt>
      <trkpt lat="45.34503" lon="6.70704">
        <ele>1902.59</ele>
        <time>2010-08-02T14:58:24Z</time>
      </trkpt>
      <trkpt lat="45.34497" lon="6.70705">
        <ele>1904.03</ele>
        <time>2010-08-02T14:58:34Z</time>
      </trkpt>
      <trkpt lat="45.34491" lon="6.70701">
        <ele>1905.95</ele>
        <time>2010-08-02T14:58:46Z</time>
      </trkpt>
      <trkpt lat="45.3449" lon="6.70701">
        <ele>1906.43</ele>
        <time>2010-08-02T14:58:49Z</time>
      </trkpt>
      <trkpt lat="45.34487" lon="6.70696">
        <ele>1907.39</ele>
        <time>2010-08-02T14:59:01Z</time>
      </trkpt>
      <trkpt lat="45.34482" lon="6.7069">
        <ele>1907.87</ele>
        <time>2010-08-02T14:59:21Z</time>
      </trkpt>
      <trkpt lat="45.34476" lon="6.70689">
        <ele>1910.28</ele>
        <time>2010-08-02T14:59:31Z</time>
      </trkpt>
      <trkpt lat="45.34471" lon="6.70687">
        <ele>1911.24</ele>
        <time>2010-08-02T14:59:42Z</time>
      </trkpt>
      <trkpt lat="45.34462" lon="6.7069">
        <ele>1913.16</ele>
        <time>2010-08-02T14:59:53Z</time>
      </trkpt>
      <trkpt lat="45.34458" lon="6.70692">
        <ele>1914.12</ele>
        <time>2010-08-02T15:00:01Z</time>
      </trkpt>
      <trkpt lat="45.34458" lon="6.70699">
        <ele>1916.53</ele>
        <time>2010-08-02T15:00:13Z</time>
      </trkpt>
      <trkpt lat="45.34457" lon="6.70701">
        <ele>1917.01</ele>
        <time>2010-08-02T15:00:15Z</time>
      </trkpt>
      <trkpt lat="45.34458" lon="6.70711">
        <ele>1917.49</ele>
        <time>2010-08-02T15:00:22Z</time>
      </trkpt>
      <trkpt lat="45.34458" lon="6.70721">
        <ele>1918.45</ele>
        <time>2010-08-02T15:00:29Z</time>
      </trkpt>
      <trkpt lat="45.34454" lon="6.70727">
        <ele>1919.41</ele>
        <time>2010-08-02T15:00:36Z</time>
      </trkpt>
      <trkpt lat="45.34454" lon="6.7073">
        <ele>1919.89</ele>
        <time>2010-08-02T15:00:38Z</time>
      </trkpt>
      <trkpt lat="45.3445" lon="6.70744">
        <ele>1920.85</ele>
        <time>2010-08-02T15:00:49Z</time>
      </trkpt>
      <trkpt lat="45.34446" lon="6.70759">
        <ele>1922.77</ele>
        <time>2010-08-02T15:01:01Z</time>
      </trkpt>
      <trkpt lat="45.34446" lon="6.7076">
        <ele>1923.25</ele>
        <time>2010-08-02T15:01:02Z</time>
      </trkpt>
      <trkpt lat="45.34444" lon="6.7077">
        <ele>1923.74</ele>
        <time>2010-08-02T15:01:11Z</time>
      </trkpt>
      <trkpt lat="45.34442" lon="6.70778">
        <ele>1924.7</ele>
        <time>2010-08-02T15:01:17Z</time>
      </trkpt>
      <trkpt lat="45.34443" lon="6.7078">
        <ele>1924.7</ele>
        <time>2010-08-02T15:01:19Z</time>
      </trkpt>
      <trkpt lat="45.34441" lon="6.70789">
        <ele>1925.66</ele>
        <time>2010-08-02T15:01:25Z</time>
      </trkpt>
      <trkpt lat="45.34441" lon="6.70792">
        <ele>1926.14</ele>
        <time>2010-08-02T15:01:27Z</time>
      </trkpt>
      <trkpt lat="45.3444" lon="6.70799">
        <ele>1926.14</ele>
        <time>2010-08-02T15:01:32Z</time>
      </trkpt>
      <trkpt lat="45.34439" lon="6.70809">
        <ele>1927.1</ele>
        <time>2010-08-02T15:01:41Z</time>
      </trkpt>
      <trkpt lat="45.34439" lon="6.70811">
        <ele>1927.1</ele>
        <time>2010-08-02T15:01:43Z</time>
      </trkpt>
      <trkpt lat="45.34444" lon="6.70823">
        <ele>1928.54</ele>
        <time>2010-08-02T15:01:54Z</time>
      </trkpt>
      <trkpt lat="45.34447" lon="6.70827">
        <ele>1930.46</ele>
        <time>2010-08-02T15:02:02Z</time>
      </trkpt>
      <trkpt lat="45.34447" lon="6.70829">
        <ele>1930.95</ele>
        <time>2010-08-02T15:02:04Z</time>
      </trkpt>
      <trkpt lat="45.34443" lon="6.70844">
        <ele>1931.91</ele>
        <time>2010-08-02T15:02:16Z</time>
      </trkpt>
      <trkpt lat="45.34444" lon="6.70856">
        <ele>1931.43</ele>
        <time>2010-08-02T15:02:23Z</time>
      </trkpt>
      <trkpt lat="45.34448" lon="6.70869">
        <ele>1932.39</ele>
        <time>2010-08-02T15:02:34Z</time>
      </trkpt>
      <trkpt lat="45.34451" lon="6.70881">
        <ele>1934.79</ele>
        <time>2010-08-02T15:02:45Z</time>
      </trkpt>
      <trkpt lat="45.34453" lon="6.70887">
        <ele>1935.27</ele>
        <time>2010-08-02T15:02:50Z</time>
      </trkpt>
      <trkpt lat="45.34463" lon="6.70899">
        <ele>1937.67</ele>
        <time>2010-08-02T15:03:03Z</time>
      </trkpt>
      <trkpt lat="45.34466" lon="6.70911">
        <ele>1938.64</ele>
        <time>2010-08-02T15:03:14Z</time>
      </trkpt>
      <trkpt lat="45.34466" lon="6.70914">
        <ele>1939.12</ele>
        <time>2010-08-02T15:03:17Z</time>
      </trkpt>
      <trkpt lat="45.34474" lon="6.70921">
        <ele>1939.6</ele>
        <time>2010-08-02T15:03:26Z</time>
      </trkpt>
      <trkpt lat="45.34483" lon="6.7093">
        <ele>1941.04</ele>
        <time>2010-08-02T15:03:37Z</time>
      </trkpt>
      <trkpt lat="45.34487" lon="6.70938">
        <ele>1942</ele>
        <time>2010-08-02T15:03:44Z</time>
      </trkpt>
      <trkpt lat="45.34494" lon="6.70943">
        <ele>1943.44</ele>
        <time>2010-08-02T15:03:51Z</time>
      </trkpt>
      <trkpt lat="45.34505" lon="6.70942">
        <ele>1944.88</ele>
        <time>2010-08-02T15:04:02Z</time>
      </trkpt>
      <trkpt lat="45.34508" lon="6.70941">
        <ele>1945.85</ele>
        <time>2010-08-02T15:04:05Z</time>
      </trkpt>
      <trkpt lat="45.34517" lon="6.70939">
        <ele>1946.81</ele>
        <time>2010-08-02T15:04:14Z</time>
      </trkpt>
      <trkpt lat="45.34518" lon="6.70939">
        <ele>1946.81</ele>
        <time>2010-08-02T15:04:15Z</time>
      </trkpt>
      <trkpt lat="45.34524" lon="6.70944">
        <ele>1948.73</ele>
        <time>2010-08-02T15:04:25Z</time>
      </trkpt>
      <trkpt lat="45.34531" lon="6.70949">
        <ele>1952.09</ele>
        <time>2010-08-02T15:04:40Z</time>
      </trkpt>
      <trkpt lat="45.34534" lon="6.7095">
        <ele>1954.02</ele>
        <time>2010-08-02T15:04:47Z</time>
      </trkpt>
      <trkpt lat="45.34531" lon="6.70956">
        <ele>1954.5</ele>
        <time>2010-08-02T15:04:53Z</time>
      </trkpt>
      <trkpt lat="45.34528" lon="6.70964">
        <ele>1955.46</ele>
        <time>2010-08-02T15:05:02Z</time>
      </trkpt>
      <trkpt lat="45.34528" lon="6.70965">
        <ele>1956.9</ele>
        <time>2010-08-02T15:05:05Z</time>
      </trkpt>
      <trkpt lat="45.34533" lon="6.7097">
        <ele>1958.34</ele>
        <time>2010-08-02T15:05:12Z</time>
      </trkpt>
      <trkpt lat="45.34536" lon="6.70981">
        <ele>1959.78</ele>
        <time>2010-08-02T15:05:24Z</time>
      </trkpt>
      <trkpt lat="45.34529" lon="6.70984">
        <ele>1961.71</ele>
        <time>2010-08-02T15:05:35Z</time>
      </trkpt>
      <trkpt lat="45.34522" lon="6.70988">
        <ele>1964.11</ele>
        <time>2010-08-02T15:05:52Z</time>
      </trkpt>
      <trkpt lat="45.34519" lon="6.70991">
        <ele>1966.03</ele>
        <time>2010-08-02T15:05:58Z</time>
      </trkpt>
      <trkpt lat="45.3451" lon="6.70996">
        <ele>1967.96</ele>
        <time>2010-08-02T15:06:09Z</time>
      </trkpt>
      <trkpt lat="45.34497" lon="6.71001">
        <ele>1970.36</ele>
        <time>2010-08-02T15:06:22Z</time>
      </trkpt>
      <trkpt lat="45.34496" lon="6.71007">
        <ele>1971.8</ele>
        <time>2010-08-02T15:06:29Z</time>
      </trkpt>
      <trkpt lat="45.345" lon="6.71011">
        <ele>1973.72</ele>
        <time>2010-08-02T15:06:38Z</time>
      </trkpt>
      <trkpt lat="45.34506" lon="6.71018">
        <ele>1975.17</ele>
        <time>2010-08-02T15:06:47Z</time>
      </trkpt>
      <trkpt lat="45.3451" lon="6.71026">
        <ele>1977.57</ele>
        <time>2010-08-02T15:06:57Z</time>
      </trkpt>
      <trkpt lat="45.34517" lon="6.7103">
        <ele>1979.97</ele>
        <time>2010-08-02T15:07:06Z</time>
      </trkpt>
      <trkpt lat="45.34524" lon="6.71037">
        <ele>1980.93</ele>
        <time>2010-08-02T15:07:17Z</time>
      </trkpt>
      <trkpt lat="45.34531" lon="6.71041">
        <ele>1983.34</ele>
        <time>2010-08-02T15:07:26Z</time>
      </trkpt>
      <trkpt lat="45.3454" lon="6.71045">
        <ele>1986.22</ele>
        <time>2010-08-02T15:07:40Z</time>
      </trkpt>
      <trkpt lat="45.34546" lon="6.7105">
        <ele>1988.62</ele>
        <time>2010-08-02T15:07:51Z</time>
      </trkpt>
      <trkpt lat="45.34552" lon="6.71057">
        <ele>1991.51</ele>
        <time>2010-08-02T15:08:03Z</time>
      </trkpt>
      <trkpt lat="45.34556" lon="6.71063">
        <ele>1992.95</ele>
        <time>2010-08-02T15:08:12Z</time>
      </trkpt>
      <trkpt lat="45.34553" lon="6.71063">
        <ele>1994.87</ele>
        <time>2010-08-02T15:08:22Z</time>
      </trkpt>
      <trkpt lat="45.34554" lon="6.71071">
        <ele>1997.76</ele>
        <time>2010-08-02T15:08:36Z</time>
      </trkpt>
      <trkpt lat="45.34555" lon="6.71081">
        <ele>2000.64</ele>
        <time>2010-08-02T15:08:53Z</time>
      </trkpt>
      <trkpt lat="45.34549" lon="6.71086">
        <ele>2003.52</ele>
        <time>2010-08-02T15:09:05Z</time>
      </trkpt>
      <trkpt lat="45.34541" lon="6.71091">
        <ele>2004.97</ele>
        <time>2010-08-02T15:09:15Z</time>
      </trkpt>
      <trkpt lat="45.34537" lon="6.71094">
        <ele>2007.85</ele>
        <time>2010-08-02T15:09:44Z</time>
      </trkpt>
      <trkpt lat="45.34542" lon="6.711">
        <ele>2007.85</ele>
        <time>2010-08-02T15:09:57Z</time>
      </trkpt>
      <trkpt lat="45.34544" lon="6.71109">
        <ele>2010.73</ele>
        <time>2010-08-02T15:10:06Z</time>
      </trkpt>
      <trkpt lat="45.34544" lon="6.71111">
        <ele>2010.73</ele>
        <time>2010-08-02T15:10:08Z</time>
      </trkpt>
      <trkpt lat="45.34543" lon="6.71117">
        <ele>2011.7</ele>
        <time>2010-08-02T15:10:13Z</time>
      </trkpt>
      <trkpt lat="45.34542" lon="6.71119">
        <ele>2012.18</ele>
        <time>2010-08-02T15:10:15Z</time>
      </trkpt>
      <trkpt lat="45.34543" lon="6.71122">
        <ele>2012.18</ele>
        <time>2010-08-02T15:10:17Z</time>
      </trkpt>
      <trkpt lat="45.34544" lon="6.71134">
        <ele>2014.58</ele>
        <time>2010-08-02T15:10:27Z</time>
      </trkpt>
      <trkpt lat="45.34541" lon="6.71145">
        <ele>2016.5</ele>
        <time>2010-08-02T15:10:37Z</time>
      </trkpt>
      <trkpt lat="45.34543" lon="6.71148">
        <ele>2017.94</ele>
        <time>2010-08-02T15:10:40Z</time>
      </trkpt>
      <trkpt lat="45.34546" lon="6.71153">
        <ele>2018.43</ele>
        <time>2010-08-02T15:10:44Z</time>
      </trkpt>
      <trkpt lat="45.34555" lon="6.71165">
        <ele>2019.87</ele>
        <time>2010-08-02T15:10:54Z</time>
      </trkpt>
      <trkpt lat="45.34551" lon="6.71177">
        <ele>2022.27</ele>
        <time>2010-08-02T15:11:04Z</time>
      </trkpt>
      <trkpt lat="45.3455" lon="6.71178">
        <ele>2022.27</ele>
        <time>2010-08-02T15:11:11Z</time>
      </trkpt>
      <trkpt lat="45.3455" lon="6.71181">
        <ele>2022.27</ele>
        <time>2010-08-02T15:11:13Z</time>
      </trkpt>
      <trkpt lat="45.34549" lon="6.71185">
        <ele>2022.75</ele>
        <time>2010-08-02T15:11:16Z</time>
      </trkpt>
      <trkpt lat="45.34545" lon="6.71194">
        <ele>2025.15</ele>
        <time>2010-08-02T15:11:25Z</time>
      </trkpt>
      <trkpt lat="45.34544" lon="6.71198">
        <ele>2026.6</ele>
        <time>2010-08-02T15:11:29Z</time>
      </trkpt>
      <trkpt lat="45.34546" lon="6.71205">
        <ele>2027.56</ele>
        <time>2010-08-02T15:11:34Z</time>
      </trkpt>
      <trkpt lat="45.34544" lon="6.71209">
        <ele>2028.04</ele>
        <time>2010-08-02T15:11:37Z</time>
      </trkpt>
      <trkpt lat="45.34542" lon="6.71211">
        <ele>2028.52</ele>
        <time>2010-08-02T15:11:39Z</time>
      </trkpt>
      <trkpt lat="45.34536" lon="6.71218">
        <ele>2029.96</ele>
        <time>2010-08-02T15:11:45Z</time>
      </trkpt>
      <trkpt lat="45.34536" lon="6.71224">
        <ele>2030.44</ele>
        <time>2010-08-02T15:11:49Z</time>
      </trkpt>
      <trkpt lat="45.34535" lon="6.7123">
        <ele>2030.44</ele>
        <time>2010-08-02T15:11:53Z</time>
      </trkpt>
      <trkpt lat="45.34536" lon="6.71233">
        <ele>2030.44</ele>
        <time>2010-08-02T15:11:55Z</time>
      </trkpt>
      <trkpt lat="45.34533" lon="6.71239">
        <ele>2030.44</ele>
        <time>2010-08-02T15:11:58Z</time>
      </trkpt>
      <trkpt lat="45.34529" lon="6.71245">
        <ele>2031.88</ele>
        <time>2010-08-02T15:12:03Z</time>
      </trkpt>
      <trkpt lat="45.34528" lon="6.71249">
        <ele>2031.88</ele>
        <time>2010-08-02T15:12:06Z</time>
      </trkpt>
      <trkpt lat="45.34522" lon="6.71264">
        <ele>2031.88</ele>
        <time>2010-08-02T15:12:15Z</time>
      </trkpt>
      <trkpt lat="45.3452" lon="6.71276">
        <ele>2034.29</ele>
        <time>2010-08-02T15:12:25Z</time>
      </trkpt>
      <trkpt lat="45.34517" lon="6.71287">
        <ele>2035.25</ele>
        <time>2010-08-02T15:12:33Z</time>
      </trkpt>
      <trkpt lat="45.34516" lon="6.7129">
        <ele>2036.21</ele>
        <time>2010-08-02T15:12:36Z</time>
      </trkpt>
      <trkpt lat="45.34508" lon="6.71295">
        <ele>2037.17</ele>
        <time>2010-08-02T15:12:42Z</time>
      </trkpt>
      <trkpt lat="45.34504" lon="6.71303">
        <ele>2038.13</ele>
        <time>2010-08-02T15:12:48Z</time>
      </trkpt>
      <trkpt lat="45.34502" lon="6.71313">
        <ele>2037.17</ele>
        <time>2010-08-02T15:12:57Z</time>
      </trkpt>
      <trkpt lat="45.34501" lon="6.71321">
        <ele>2037.17</ele>
        <time>2010-08-02T15:13:02Z</time>
      </trkpt>
      <trkpt lat="45.34497" lon="6.7133">
        <ele>2038.61</ele>
        <time>2010-08-02T15:13:09Z</time>
      </trkpt>
      <trkpt lat="45.34497" lon="6.71332">
        <ele>2038.13</ele>
        <time>2010-08-02T15:13:10Z</time>
      </trkpt>
      <trkpt lat="45.34491" lon="6.71346">
        <ele>2038.61</ele>
        <time>2010-08-02T15:13:20Z</time>
      </trkpt>
      <trkpt lat="45.34489" lon="6.71356">
        <ele>2037.17</ele>
        <time>2010-08-02T15:13:29Z</time>
      </trkpt>
      <trkpt lat="45.34489" lon="6.71357">
        <ele>2036.69</ele>
        <time>2010-08-02T15:13:30Z</time>
      </trkpt>
      <trkpt lat="45.34488" lon="6.71373">
        <ele>2034.77</ele>
        <time>2010-08-02T15:13:40Z</time>
      </trkpt>
      <trkpt lat="45.34485" lon="6.71386">
        <ele>2033.33</ele>
        <time>2010-08-02T15:13:48Z</time>
      </trkpt>
      <trkpt lat="45.34485" lon="6.71401">
        <ele>2031.88</ele>
        <time>2010-08-02T15:13:58Z</time>
      </trkpt>
      <trkpt lat="45.34482" lon="6.71412">
        <ele>2031.4</ele>
        <time>2010-08-02T15:14:07Z</time>
      </trkpt>
      <trkpt lat="45.34484" lon="6.71416">
        <ele>2030.92</ele>
        <time>2010-08-02T15:14:09Z</time>
      </trkpt>
      <trkpt lat="45.34479" lon="6.71425">
        <ele>2032.36</ele>
        <time>2010-08-02T15:14:14Z</time>
      </trkpt>
      <trkpt lat="45.3447" lon="6.71435">
        <ele>2034.29</ele>
        <time>2010-08-02T15:14:23Z</time>
      </trkpt>
      <trkpt lat="45.34467" lon="6.71446">
        <ele>2035.73</ele>
        <time>2010-08-02T15:14:32Z</time>
      </trkpt>
      <trkpt lat="45.34469" lon="6.71463">
        <ele>2036.21</ele>
        <time>2010-08-02T15:14:43Z</time>
      </trkpt>
      <trkpt lat="45.34469" lon="6.71466">
        <ele>2035.73</ele>
        <time>2010-08-02T15:14:45Z</time>
      </trkpt>
      <trkpt lat="45.34465" lon="6.71479">
        <ele>2033.81</ele>
        <time>2010-08-02T15:14:54Z</time>
      </trkpt>
      <trkpt lat="45.34462" lon="6.71484">
        <ele>2034.29</ele>
        <time>2010-08-02T15:14:58Z</time>
      </trkpt>
      <trkpt lat="45.3446" lon="6.7149">
        <ele>2033.81</ele>
        <time>2010-08-02T15:15:07Z</time>
      </trkpt>
      <trkpt lat="45.34469" lon="6.71502">
        <ele>2035.25</ele>
        <time>2010-08-02T15:15:17Z</time>
      </trkpt>
      <trkpt lat="45.34472" lon="6.71508">
        <ele>2036.69</ele>
        <time>2010-08-02T15:15:24Z</time>
      </trkpt>
      <trkpt lat="45.34471" lon="6.71515">
        <ele>2038.13</ele>
        <time>2010-08-02T15:15:33Z</time>
      </trkpt>
      <trkpt lat="45.34477" lon="6.71518">
        <ele>2039.09</ele>
        <time>2010-08-02T15:15:38Z</time>
      </trkpt>
      <trkpt lat="45.34496" lon="6.71523">
        <ele>2040.54</ele>
        <time>2010-08-02T15:15:49Z</time>
      </trkpt>
      <trkpt lat="45.34499" lon="6.71529">
        <ele>2041.5</ele>
        <time>2010-08-02T15:15:55Z</time>
      </trkpt>
      <trkpt lat="45.34502" lon="6.71533">
        <ele>2042.46</ele>
        <time>2010-08-02T15:15:59Z</time>
      </trkpt>
      <trkpt lat="45.34512" lon="6.71534">
        <ele>2043.9</ele>
        <time>2010-08-02T15:16:09Z</time>
      </trkpt>
      <trkpt lat="45.3451" lon="6.71537">
        <ele>2044.38</ele>
        <time>2010-08-02T15:16:13Z</time>
      </trkpt>
      <trkpt lat="45.34509" lon="6.71546">
        <ele>2046.3</ele>
        <time>2010-08-02T15:16:23Z</time>
      </trkpt>
      <trkpt lat="45.34511" lon="6.71557">
        <ele>2048.71</ele>
        <time>2010-08-02T15:16:36Z</time>
      </trkpt>
      <trkpt lat="45.34514" lon="6.7157">
        <ele>2051.59</ele>
        <time>2010-08-02T15:16:49Z</time>
      </trkpt>
      <trkpt lat="45.34515" lon="6.71578">
        <ele>2052.07</ele>
        <time>2010-08-02T15:16:57Z</time>
      </trkpt>
      <trkpt lat="45.34519" lon="6.71586">
        <ele>2054.47</ele>
        <time>2010-08-02T15:17:09Z</time>
      </trkpt>
      <trkpt lat="45.34525" lon="6.71589">
        <ele>2055.92</ele>
        <time>2010-08-02T15:17:22Z</time>
      </trkpt>
      <trkpt lat="45.34532" lon="6.71589">
        <ele>2057.36</ele>
        <time>2010-08-02T15:17:31Z</time>
      </trkpt>
      <trkpt lat="45.34537" lon="6.71592">
        <ele>2060.24</ele>
        <time>2010-08-02T15:17:41Z</time>
      </trkpt>
      <trkpt lat="45.34542" lon="6.71589">
        <ele>2060.24</ele>
        <time>2010-08-02T15:17:48Z</time>
      </trkpt>
      <trkpt lat="45.34544" lon="6.71585">
        <ele>2061.2</ele>
        <time>2010-08-02T15:17:52Z</time>
      </trkpt>
      <trkpt lat="45.34548" lon="6.71588">
        <ele>2063.13</ele>
        <time>2010-08-02T15:18:01Z</time>
      </trkpt>
      <trkpt lat="45.34545" lon="6.71595">
        <ele>2064.57</ele>
        <time>2010-08-02T15:18:09Z</time>
      </trkpt>
      <trkpt lat="45.34545" lon="6.71605">
        <ele>2065.53</ele>
        <time>2010-08-02T15:18:18Z</time>
      </trkpt>
      <trkpt lat="45.34544" lon="6.71614">
        <ele>2066.01</ele>
        <time>2010-08-02T15:18:26Z</time>
      </trkpt>
      <trkpt lat="45.34542" lon="6.71623">
        <ele>2067.45</ele>
        <time>2010-08-02T15:18:36Z</time>
      </trkpt>
      <trkpt lat="45.34537" lon="6.71632">
        <ele>2069.38</ele>
        <time>2010-08-02T15:18:47Z</time>
      </trkpt>
      <trkpt lat="45.34529" lon="6.71641">
        <ele>2072.26</ele>
        <time>2010-08-02T15:19:00Z</time>
      </trkpt>
      <trkpt lat="45.34521" lon="6.71649">
        <ele>2073.7</ele>
        <time>2010-08-02T15:19:10Z</time>
      </trkpt>
      <trkpt lat="45.34512" lon="6.71659">
        <ele>2075.62</ele>
        <time>2010-08-02T15:19:21Z</time>
      </trkpt>
      <trkpt lat="45.34507" lon="6.71665">
        <ele>2077.55</ele>
        <time>2010-08-02T15:19:30Z</time>
      </trkpt>
      <trkpt lat="45.34502" lon="6.71672">
        <ele>2078.03</ele>
        <time>2010-08-02T15:19:39Z</time>
      </trkpt>
      <trkpt lat="45.345" lon="6.71682">
        <ele>2081.39</ele>
        <time>2010-08-02T15:19:54Z</time>
      </trkpt>
      <trkpt lat="45.34498" lon="6.71688">
        <ele>2082.83</ele>
        <time>2010-08-02T15:20:04Z</time>
      </trkpt>
      <trkpt lat="45.34497" lon="6.71696">
        <ele>2085.24</ele>
        <time>2010-08-02T15:20:14Z</time>
      </trkpt>
      <trkpt lat="45.34495" lon="6.71703">
        <ele>2086.2</ele>
        <time>2010-08-02T15:20:21Z</time>
      </trkpt>
      <trkpt lat="45.34494" lon="6.71702">
        <ele>2085.72</ele>
        <time>2010-08-02T15:20:25Z</time>
      </trkpt>
      <trkpt lat="45.34485" lon="6.71702">
        <ele>2087.64</ele>
        <time>2010-08-02T15:20:35Z</time>
      </trkpt>
      <trkpt lat="45.34479" lon="6.71708">
        <ele>2090.52</ele>
        <time>2010-08-02T15:20:49Z</time>
      </trkpt>
      <trkpt lat="45.34475" lon="6.71718">
        <ele>2093.89</ele>
        <time>2010-08-02T15:21:02Z</time>
      </trkpt>
      <trkpt lat="45.34469" lon="6.71722">
        <ele>2095.81</ele>
        <time>2010-08-02T15:21:12Z</time>
      </trkpt>
      <trkpt lat="45.3446" lon="6.71727">
        <ele>2097.73</ele>
        <time>2010-08-02T15:21:22Z</time>
      </trkpt>
      <trkpt lat="45.34455" lon="6.71734">
        <ele>2100.14</ele>
        <time>2010-08-02T15:21:32Z</time>
      </trkpt>
      <trkpt lat="45.34453" lon="6.71747">
        <ele>2102.54</ele>
        <time>2010-08-02T15:21:46Z</time>
      </trkpt>
      <trkpt lat="45.34451" lon="6.71758">
        <ele>2105.42</ele>
        <time>2010-08-02T15:21:59Z</time>
      </trkpt>
      <trkpt lat="45.34447" lon="6.71769">
        <ele>2108.31</ele>
        <time>2010-08-02T15:22:11Z</time>
      </trkpt>
      <trkpt lat="45.34444" lon="6.71777">
        <ele>2109.75</ele>
        <time>2010-08-02T15:22:20Z</time>
      </trkpt>
      <trkpt lat="45.34443" lon="6.71789">
        <ele>2113.12</ele>
        <time>2010-08-02T15:22:36Z</time>
      </trkpt>
      <trkpt lat="45.34437" lon="6.718">
        <ele>2116</ele>
        <time>2010-08-02T15:22:53Z</time>
      </trkpt>
      <trkpt lat="45.34436" lon="6.71811">
        <ele>2118.88</ele>
        <time>2010-08-02T15:23:06Z</time>
      </trkpt>
      <trkpt lat="45.3443" lon="6.71823">
        <ele>2122.25</ele>
        <time>2010-08-02T15:23:22Z</time>
      </trkpt>
      <trkpt lat="45.34429" lon="6.71824">
        <ele>2122.25</ele>
        <time>2010-08-02T15:23:24Z</time>
      </trkpt>
      <trkpt lat="45.34423" lon="6.71829">
        <ele>2124.17</ele>
        <time>2010-08-02T15:23:32Z</time>
      </trkpt>
      <trkpt lat="45.34419" lon="6.71837">
        <ele>2126.09</ele>
        <time>2010-08-02T15:23:41Z</time>
      </trkpt>
      <trkpt lat="45.34414" lon="6.71842">
        <ele>2127.05</ele>
        <time>2010-08-02T15:23:49Z</time>
      </trkpt>
      <trkpt lat="45.34411" lon="6.71851">
        <ele>2128.5</ele>
        <time>2010-08-02T15:23:59Z</time>
      </trkpt>
      <trkpt lat="45.3441" lon="6.71861">
        <ele>2131.86</ele>
        <time>2010-08-02T15:24:12Z</time>
      </trkpt>
      <trkpt lat="45.34408" lon="6.71871">
        <ele>2132.82</ele>
        <time>2010-08-02T15:24:22Z</time>
      </trkpt>
      <trkpt lat="45.34404" lon="6.71879">
        <ele>2134.74</ele>
        <time>2010-08-02T15:24:31Z</time>
      </trkpt>
      <trkpt lat="45.344" lon="6.71887">
        <ele>2136.67</ele>
        <time>2010-08-02T15:24:40Z</time>
      </trkpt>
      <trkpt lat="45.34396" lon="6.71895">
        <ele>2137.15</ele>
        <time>2010-08-02T15:24:48Z</time>
      </trkpt>
      <trkpt lat="45.3439" lon="6.71901">
        <ele>2139.07</ele>
        <time>2010-08-02T15:24:59Z</time>
      </trkpt>
      <trkpt lat="45.34383" lon="6.71907">
        <ele>2140.99</ele>
        <time>2010-08-02T15:25:09Z</time>
      </trkpt>
      <trkpt lat="45.34378" lon="6.71912">
        <ele>2142.44</ele>
        <time>2010-08-02T15:25:17Z</time>
      </trkpt>
      <trkpt lat="45.34372" lon="6.71919">
        <ele>2143.88</ele>
        <time>2010-08-02T15:25:25Z</time>
      </trkpt>
      <trkpt lat="45.3437" lon="6.71921">
        <ele>2145.32</ele>
        <time>2010-08-02T15:25:34Z</time>
      </trkpt>
      <trkpt lat="45.34366" lon="6.7193">
        <ele>2147.72</ele>
        <time>2010-08-02T15:25:44Z</time>
      </trkpt>
      <trkpt lat="45.34365" lon="6.71933">
        <ele>2148.68</ele>
        <time>2010-08-02T15:25:48Z</time>
      </trkpt>
      <trkpt lat="45.34362" lon="6.71942">
        <ele>2149.65</ele>
        <time>2010-08-02T15:25:57Z</time>
      </trkpt>
      <trkpt lat="45.34356" lon="6.71954">
        <ele>2151.57</ele>
        <time>2010-08-02T15:26:11Z</time>
      </trkpt>
      <trkpt lat="45.34351" lon="6.71958">
        <ele>2153.01</ele>
        <time>2010-08-02T15:26:18Z</time>
      </trkpt>
      <trkpt lat="45.3435" lon="6.71963">
        <ele>2154.45</ele>
        <time>2010-08-02T15:26:27Z</time>
      </trkpt>
      <trkpt lat="45.34344" lon="6.71968">
        <ele>2156.37</ele>
        <time>2010-08-02T15:26:35Z</time>
      </trkpt>
      <trkpt lat="45.34338" lon="6.71973">
        <ele>2157.82</ele>
        <time>2010-08-02T15:26:45Z</time>
      </trkpt>
      <trkpt lat="45.34333" lon="6.71981">
        <ele>2160.22</ele>
        <time>2010-08-02T15:27:00Z</time>
      </trkpt>
      <trkpt lat="45.34329" lon="6.71988">
        <ele>2162.14</ele>
        <time>2010-08-02T15:27:11Z</time>
      </trkpt>
      <trkpt lat="45.34326" lon="6.71994">
        <ele>2164.06</ele>
        <time>2010-08-02T15:27:23Z</time>
      </trkpt>
      <trkpt lat="45.3433" lon="6.71999">
        <ele>2163.58</ele>
        <time>2010-08-02T15:27:35Z</time>
      </trkpt>
      <trkpt lat="45.34325" lon="6.72005">
        <ele>2164.06</ele>
        <time>2010-08-02T15:28:07Z</time>
      </trkpt>
      <trkpt lat="45.34319" lon="6.72009">
        <ele>2164.55</ele>
        <time>2010-08-02T15:28:13Z</time>
      </trkpt>
      <trkpt lat="45.34317" lon="6.72016">
        <ele>2165.51</ele>
        <time>2010-08-02T15:28:18Z</time>
      </trkpt>
      <trkpt lat="45.34314" lon="6.72019">
        <ele>2166.47</ele>
        <time>2010-08-02T15:28:26Z</time>
      </trkpt>
      <trkpt lat="45.34311" lon="6.72035">
        <ele>2167.91</ele>
        <time>2010-08-02T15:28:37Z</time>
      </trkpt>
      <trkpt lat="45.34307" lon="6.72045">
        <ele>2168.87</ele>
        <time>2010-08-02T15:28:47Z</time>
      </trkpt>
      <trkpt lat="45.34305" lon="6.72049">
        <ele>2169.83</ele>
        <time>2010-08-02T15:28:52Z</time>
      </trkpt>
      <trkpt lat="45.34297" lon="6.72063">
        <ele>2171.27</ele>
        <time>2010-08-02T15:29:03Z</time>
      </trkpt>
      <trkpt lat="45.34295" lon="6.72069">
        <ele>2171.76</ele>
        <time>2010-08-02T15:29:08Z</time>
      </trkpt>
      <trkpt lat="45.34299" lon="6.72077">
        <ele>2172.72</ele>
        <time>2010-08-02T15:29:14Z</time>
      </trkpt>
      <trkpt lat="45.34293" lon="6.72085">
        <ele>2173.68</ele>
        <time>2010-08-02T15:29:20Z</time>
      </trkpt>
      <trkpt lat="45.3429" lon="6.72099">
        <ele>2175.6</ele>
        <time>2010-08-02T15:29:31Z</time>
      </trkpt>
      <trkpt lat="45.34291" lon="6.72111">
        <ele>2177.52</ele>
        <time>2010-08-02T15:29:40Z</time>
      </trkpt>
      <trkpt lat="45.34299" lon="6.72114">
        <ele>2179.45</ele>
        <time>2010-08-02T15:29:52Z</time>
      </trkpt>
      <trkpt lat="45.34308" lon="6.72114">
        <ele>2180.89</ele>
        <time>2010-08-02T15:30:05Z</time>
      </trkpt>
      <trkpt lat="45.3431" lon="6.72113">
        <ele>2182.81</ele>
        <time>2010-08-02T15:30:10Z</time>
      </trkpt>
      <trkpt lat="45.3432" lon="6.72108">
        <ele>2186.18</ele>
        <time>2010-08-02T15:30:25Z</time>
      </trkpt>
      <trkpt lat="45.34324" lon="6.72106">
        <ele>2187.14</ele>
        <time>2010-08-02T15:30:33Z</time>
      </trkpt>
      <trkpt lat="45.3433" lon="6.72104">
        <ele>2189.06</ele>
        <time>2010-08-02T15:30:41Z</time>
      </trkpt>
      <trkpt lat="45.34337" lon="6.72101">
        <ele>2191.46</ele>
        <time>2010-08-02T15:30:51Z</time>
      </trkpt>
      <trkpt lat="45.34342" lon="6.721">
        <ele>2192.9</ele>
        <time>2010-08-02T15:30:59Z</time>
      </trkpt>
      <trkpt lat="45.34347" lon="6.721">
        <ele>2194.35</ele>
        <time>2010-08-02T15:31:07Z</time>
      </trkpt>
      <trkpt lat="45.34347" lon="6.72107">
        <ele>2196.75</ele>
        <time>2010-08-02T15:31:22Z</time>
      </trkpt>
      <trkpt lat="45.34343" lon="6.72112">
        <ele>2199.15</ele>
        <time>2010-08-02T15:31:31Z</time>
      </trkpt>
      <trkpt lat="45.34342" lon="6.72118">
        <ele>2200.11</ele>
        <time>2010-08-02T15:31:38Z</time>
      </trkpt>
      <trkpt lat="45.34336" lon="6.72127">
        <ele>2202.04</ele>
        <time>2010-08-02T15:31:50Z</time>
      </trkpt>
      <trkpt lat="45.34332" lon="6.72132">
        <ele>2203.48</ele>
        <time>2010-08-02T15:31:58Z</time>
      </trkpt>
      <trkpt lat="45.34331" lon="6.7214">
        <ele>2205.4</ele>
        <time>2010-08-02T15:32:08Z</time>
      </trkpt>
      <trkpt lat="45.34328" lon="6.72148">
        <ele>2207.81</ele>
        <time>2010-08-02T15:32:19Z</time>
      </trkpt>
      <trkpt lat="45.34323" lon="6.72154">
        <ele>2209.25</ele>
        <time>2010-08-02T15:32:28Z</time>
      </trkpt>
      <trkpt lat="45.34322" lon="6.72161">
        <ele>2211.17</ele>
        <time>2010-08-02T15:32:36Z</time>
      </trkpt>
      <trkpt lat="45.34321" lon="6.72174">
        <ele>2213.57</ele>
        <time>2010-08-02T15:32:51Z</time>
      </trkpt>
      <trkpt lat="45.34319" lon="6.72179">
        <ele>2214.53</ele>
        <time>2010-08-02T15:32:56Z</time>
      </trkpt>
      <trkpt lat="45.3432" lon="6.72181">
        <ele>2214.53</ele>
        <time>2010-08-02T15:32:58Z</time>
      </trkpt>
      <trkpt lat="45.34321" lon="6.72188">
        <ele>2215.5</ele>
        <time>2010-08-02T15:33:08Z</time>
      </trkpt>
      <trkpt lat="45.34325" lon="6.72196">
        <ele>2217.9</ele>
        <time>2010-08-02T15:33:23Z</time>
      </trkpt>
      <trkpt lat="45.34326" lon="6.72207">
        <ele>2220.3</ele>
        <time>2010-08-02T15:33:33Z</time>
      </trkpt>
      <trkpt lat="45.34328" lon="6.72216">
        <ele>2222.22</ele>
        <time>2010-08-02T15:33:43Z</time>
      </trkpt>
      <trkpt lat="45.34325" lon="6.72228">
        <ele>2224.15</ele>
        <time>2010-08-02T15:33:55Z</time>
      </trkpt>
      <trkpt lat="45.3432" lon="6.72235">
        <ele>2225.59</ele>
        <time>2010-08-02T15:34:04Z</time>
      </trkpt>
      <trkpt lat="45.34319" lon="6.72238">
        <ele>2226.55</ele>
        <time>2010-08-02T15:34:07Z</time>
      </trkpt>
      <trkpt lat="45.34317" lon="6.72254">
        <ele>2229.43</ele>
        <time>2010-08-02T15:34:24Z</time>
      </trkpt>
      <trkpt lat="45.34311" lon="6.72261">
        <ele>2230.4</ele>
        <time>2010-08-02T15:34:34Z</time>
      </trkpt>
      <trkpt lat="45.34308" lon="6.72272">
        <ele>2233.28</ele>
        <time>2010-08-02T15:34:46Z</time>
      </trkpt>
      <trkpt lat="45.34308" lon="6.72278">
        <ele>2234.72</ele>
        <time>2010-08-02T15:34:56Z</time>
      </trkpt>
      <trkpt lat="45.3431" lon="6.72285">
        <ele>2236.64</ele>
        <time>2010-08-02T15:35:06Z</time>
      </trkpt>
      <trkpt lat="45.34312" lon="6.72298">
        <ele>2239.05</ele>
        <time>2010-08-02T15:35:20Z</time>
      </trkpt>
      <trkpt lat="45.34312" lon="6.72312">
        <ele>2240.97</ele>
        <time>2010-08-02T15:35:35Z</time>
      </trkpt>
      <trkpt lat="45.34313" lon="6.72319">
        <ele>2242.41</ele>
        <time>2010-08-02T15:35:43Z</time>
      </trkpt>
      <trkpt lat="45.34313" lon="6.7233">
        <ele>2244.33</ele>
        <time>2010-08-02T15:35:53Z</time>
      </trkpt>
      <trkpt lat="45.34312" lon="6.7234">
        <ele>2246.26</ele>
        <time>2010-08-02T15:36:05Z</time>
      </trkpt>
      <trkpt lat="45.34316" lon="6.72345">
        <ele>2248.18</ele>
        <time>2010-08-02T15:36:18Z</time>
      </trkpt>
      <trkpt lat="45.34316" lon="6.72349">
        <ele>2250.1</ele>
        <time>2010-08-02T15:36:30Z</time>
      </trkpt>
      <trkpt lat="45.34317" lon="6.72352">
        <ele>2251.54</ele>
        <time>2010-08-02T15:36:36Z</time>
      </trkpt>
      <trkpt lat="45.34317" lon="6.72357">
        <ele>2252.51</ele>
        <time>2010-08-02T15:36:43Z</time>
      </trkpt>
      <trkpt lat="45.34317" lon="6.72363">
        <ele>2253.95</ele>
        <time>2010-08-02T15:36:52Z</time>
      </trkpt>
      <trkpt lat="45.34323" lon="6.72361">
        <ele>2255.39</ele>
        <time>2010-08-02T15:37:01Z</time>
      </trkpt>
      <trkpt lat="45.34323" lon="6.72364">
        <ele>2256.83</ele>
        <time>2010-08-02T15:37:07Z</time>
      </trkpt>
      <trkpt lat="45.34321" lon="6.72372">
        <ele>2258.27</ele>
        <time>2010-08-02T15:37:15Z</time>
      </trkpt>
      <trkpt lat="45.34319" lon="6.72381">
        <ele>2258.75</ele>
        <time>2010-08-02T15:37:23Z</time>
      </trkpt>
      <trkpt lat="45.34316" lon="6.72392">
        <ele>2260.68</ele>
        <time>2010-08-02T15:37:32Z</time>
      </trkpt>
      <trkpt lat="45.34315" lon="6.72396">
        <ele>2261.64</ele>
        <time>2010-08-02T15:37:40Z</time>
      </trkpt>
      <trkpt lat="45.34318" lon="6.72399">
        <ele>2263.08</ele>
        <time>2010-08-02T15:37:48Z</time>
      </trkpt>
      <trkpt lat="45.34323" lon="6.72395">
        <ele>2263.56</ele>
        <time>2010-08-02T15:37:56Z</time>
      </trkpt>
      <trkpt lat="45.34324" lon="6.72398">
        <ele>2264.52</ele>
        <time>2010-08-02T15:37:59Z</time>
      </trkpt>
      <trkpt lat="45.34324" lon="6.7241">
        <ele>2267.41</ele>
        <time>2010-08-02T15:38:12Z</time>
      </trkpt>
      <trkpt lat="45.3433" lon="6.72413">
        <ele>2268.37</ele>
        <time>2010-08-02T15:38:21Z</time>
      </trkpt>
      <trkpt lat="45.34332" lon="6.72416">
        <ele>2270.29</ele>
        <time>2010-08-02T15:38:28Z</time>
      </trkpt>
      <trkpt lat="45.34334" lon="6.72426">
        <ele>2271.73</ele>
        <time>2010-08-02T15:38:41Z</time>
      </trkpt>
      <trkpt lat="45.34334" lon="6.72432">
        <ele>2272.69</ele>
        <time>2010-08-02T15:38:48Z</time>
      </trkpt>
      <trkpt lat="45.34334" lon="6.72438">
        <ele>2274.62</ele>
        <time>2010-08-02T15:38:56Z</time>
      </trkpt>
      <trkpt lat="45.34334" lon="6.72446">
        <ele>2276.06</ele>
        <time>2010-08-02T15:39:04Z</time>
      </trkpt>
      <trkpt lat="45.34335" lon="6.72456">
        <ele>2277.5</ele>
        <time>2010-08-02T15:39:12Z</time>
      </trkpt>
      <trkpt lat="45.34338" lon="6.72464">
        <ele>2278.94</ele>
        <time>2010-08-02T15:39:22Z</time>
      </trkpt>
      <trkpt lat="45.34342" lon="6.72464">
        <ele>2280.38</ele>
        <time>2010-08-02T15:39:30Z</time>
      </trkpt>
      <trkpt lat="45.34343" lon="6.72471">
        <ele>2282.31</ele>
        <time>2010-08-02T15:39:39Z</time>
      </trkpt>
      <trkpt lat="45.34347" lon="6.7248">
        <ele>2283.75</ele>
        <time>2010-08-02T15:39:49Z</time>
      </trkpt>
      <trkpt lat="45.34351" lon="6.72486">
        <ele>2285.19</ele>
        <time>2010-08-02T15:39:58Z</time>
      </trkpt>
      <trkpt lat="45.34352" lon="6.72493">
        <ele>2286.63</ele>
        <time>2010-08-02T15:40:06Z</time>
      </trkpt>
      <trkpt lat="45.34353" lon="6.72503">
        <ele>2288.08</ele>
        <time>2010-08-02T15:40:18Z</time>
      </trkpt>
      <trkpt lat="45.34354" lon="6.72511">
        <ele>2289.52</ele>
        <time>2010-08-02T15:40:28Z</time>
      </trkpt>
      <trkpt lat="45.34364" lon="6.72513">
        <ele>2290.96</ele>
        <time>2010-08-02T15:40:40Z</time>
      </trkpt>
      <trkpt lat="45.3437" lon="6.72511">
        <ele>2292.4</ele>
        <time>2010-08-02T15:40:49Z</time>
      </trkpt>
      <trkpt lat="45.34374" lon="6.72507">
        <ele>2293.84</ele>
        <time>2010-08-02T15:40:59Z</time>
      </trkpt>
      <trkpt lat="45.34375" lon="6.72505">
        <ele>2294.32</ele>
        <time>2010-08-02T15:41:01Z</time>
      </trkpt>
      <trkpt lat="45.34378" lon="6.72499">
        <ele>2296.25</ele>
        <time>2010-08-02T15:41:12Z</time>
      </trkpt>
      <trkpt lat="45.34382" lon="6.72502">
        <ele>2297.69</ele>
        <time>2010-08-02T15:41:23Z</time>
      </trkpt>
      <trkpt lat="45.34386" lon="6.72501">
        <ele>2300.09</ele>
        <time>2010-08-02T15:41:34Z</time>
      </trkpt>
      <trkpt lat="45.34391" lon="6.72498">
        <ele>2300.57</ele>
        <time>2010-08-02T15:41:41Z</time>
      </trkpt>
      <trkpt lat="45.34393" lon="6.72489">
        <ele>2302.01</ele>
        <time>2010-08-02T15:41:51Z</time>
      </trkpt>
      <trkpt lat="45.34397" lon="6.72478">
        <ele>2302.98</ele>
        <time>2010-08-02T15:42:01Z</time>
      </trkpt>
      <trkpt lat="45.34398" lon="6.72474">
        <ele>2303.46</ele>
        <time>2010-08-02T15:42:04Z</time>
      </trkpt>
      <trkpt lat="45.34404" lon="6.72468">
        <ele>2304.42</ele>
        <time>2010-08-02T15:42:12Z</time>
      </trkpt>
      <trkpt lat="45.34405" lon="6.72465">
        <ele>2306.82</ele>
        <time>2010-08-02T15:42:23Z</time>
      </trkpt>
      <trkpt lat="45.34404" lon="6.72465">
        <ele>2306.82</ele>
        <time>2010-08-02T15:42:24Z</time>
      </trkpt>
      <trkpt lat="45.34399" lon="6.72466">
        <ele>2307.78</ele>
        <time>2010-08-02T15:42:29Z</time>
      </trkpt>
      <trkpt lat="45.3439" lon="6.72474">
        <ele>2308.74</ele>
        <time>2010-08-02T15:42:40Z</time>
      </trkpt>
      <trkpt lat="45.34388" lon="6.72477">
        <ele>2308.74</ele>
        <time>2010-08-02T15:42:44Z</time>
      </trkpt>
      <trkpt lat="45.34388" lon="6.72476">
        <ele>2309.22</ele>
        <time>2010-08-02T15:42:46Z</time>
      </trkpt>
      <trkpt lat="45.34386" lon="6.72472">
        <ele>2310.67</ele>
        <time>2010-08-02T15:42:56Z</time>
      </trkpt>
      <trkpt lat="45.34384" lon="6.72477">
        <ele>2312.59</ele>
        <time>2010-08-02T15:43:06Z</time>
      </trkpt>
      <trkpt lat="45.34386" lon="6.7248">
        <ele>2314.99</ele>
        <time>2010-08-02T15:43:21Z</time>
      </trkpt>
      <trkpt lat="45.34393" lon="6.72468">
        <ele>2316.91</ele>
        <time>2010-08-02T15:43:34Z</time>
      </trkpt>
      <trkpt lat="45.34394" lon="6.72468">
        <ele>2317.4</ele>
        <time>2010-08-02T15:43:36Z</time>
      </trkpt>
      <trkpt lat="45.34402" lon="6.72457">
        <ele>2318.36</ele>
        <time>2010-08-02T15:43:47Z</time>
      </trkpt>
      <trkpt lat="45.34408" lon="6.72456">
        <ele>2321.24</ele>
        <time>2010-08-02T15:43:59Z</time>
      </trkpt>
      <trkpt lat="45.34412" lon="6.72453">
        <ele>2322.68</ele>
        <time>2010-08-02T15:44:08Z</time>
      </trkpt>
      <trkpt lat="45.34417" lon="6.72449">
        <ele>2324.12</ele>
        <time>2010-08-02T15:44:15Z</time>
      </trkpt>
      <trkpt lat="45.34421" lon="6.7245">
        <ele>2326.53</ele>
        <time>2010-08-02T15:44:27Z</time>
      </trkpt>
      <trkpt lat="45.34423" lon="6.72453">
        <ele>2327.49</ele>
        <time>2010-08-02T15:44:31Z</time>
      </trkpt>
      <trkpt lat="45.34429" lon="6.7245">
        <ele>2329.41</ele>
        <time>2010-08-02T15:44:41Z</time>
      </trkpt>
      <trkpt lat="45.34432" lon="6.72458">
        <ele>2331.81</ele>
        <time>2010-08-02T15:44:56Z</time>
      </trkpt>
      <trkpt lat="45.3443" lon="6.72468">
        <ele>2334.22</ele>
        <time>2010-08-02T15:45:05Z</time>
      </trkpt>
      <trkpt lat="45.34435" lon="6.72465">
        <ele>2336.14</ele>
        <time>2010-08-02T15:45:15Z</time>
      </trkpt>
      <trkpt lat="45.34439" lon="6.72464">
        <ele>2337.1</ele>
        <time>2010-08-02T15:45:22Z</time>
      </trkpt>
      <trkpt lat="45.34441" lon="6.72474">
        <ele>2339.99</ele>
        <time>2010-08-02T15:45:37Z</time>
      </trkpt>
      <trkpt lat="45.34441" lon="6.72488">
        <ele>2341.91</ele>
        <time>2010-08-02T15:45:50Z</time>
      </trkpt>
      <trkpt lat="45.3444" lon="6.72502">
        <ele>2344.79</ele>
        <time>2010-08-02T15:46:05Z</time>
      </trkpt>
      <trkpt lat="45.34444" lon="6.725">
        <ele>2348.64</ele>
        <time>2010-08-02T15:46:23Z</time>
      </trkpt>
      <trkpt lat="45.34445" lon="6.72503">
        <ele>2349.6</ele>
        <time>2010-08-02T15:46:29Z</time>
      </trkpt>
      <trkpt lat="45.34445" lon="6.72506">
        <ele>2350.08</ele>
        <time>2010-08-02T15:46:32Z</time>
      </trkpt>
      <trkpt lat="45.34451" lon="6.72507">
        <ele>2352.48</ele>
        <time>2010-08-02T15:46:44Z</time>
      </trkpt>
      <trkpt lat="45.34458" lon="6.725">
        <ele>2355.37</ele>
        <time>2010-08-02T15:46:56Z</time>
      </trkpt>
      <trkpt lat="45.3446" lon="6.72494">
        <ele>2357.29</ele>
        <time>2010-08-02T15:47:04Z</time>
      </trkpt>
      <trkpt lat="45.34468" lon="6.72484">
        <ele>2360.17</ele>
        <time>2010-08-02T15:47:19Z</time>
      </trkpt>
      <trkpt lat="45.34476" lon="6.72474">
        <ele>2361.62</ele>
        <time>2010-08-02T15:47:29Z</time>
      </trkpt>
      <trkpt lat="45.3448" lon="6.72469">
        <ele>2364.02</ele>
        <time>2010-08-02T15:47:40Z</time>
      </trkpt>
      <trkpt lat="45.34484" lon="6.72459">
        <ele>2365.46</ele>
        <time>2010-08-02T15:47:49Z</time>
      </trkpt>
      <trkpt lat="45.34486" lon="6.72457">
        <ele>2365.94</ele>
        <time>2010-08-02T15:47:51Z</time>
      </trkpt>
      <trkpt lat="45.34489" lon="6.72447">
        <ele>2367.86</ele>
        <time>2010-08-02T15:48:01Z</time>
      </trkpt>
      <trkpt lat="45.34494" lon="6.72444">
        <ele>2369.31</ele>
        <time>2010-08-02T15:48:12Z</time>
      </trkpt>
      <trkpt lat="45.34494" lon="6.72444">
        <ele>2370.27</ele>
        <time>2010-08-02T15:48:14Z</time>
      </trkpt>
      <trkpt lat="45.34496" lon="6.72451">
        <ele>2373.63</ele>
        <time>2010-08-02T15:48:28Z</time>
      </trkpt>
      <trkpt lat="45.34497" lon="6.7245">
        <ele>2373.63</ele>
        <time>2010-08-02T15:48:29Z</time>
      </trkpt>
      <trkpt lat="45.345" lon="6.72438">
        <ele>2374.11</ele>
        <time>2010-08-02T15:48:40Z</time>
      </trkpt>
      <trkpt lat="45.34503" lon="6.72431">
        <ele>2375.07</ele>
        <time>2010-08-02T15:48:48Z</time>
      </trkpt>
      <trkpt lat="45.34504" lon="6.72429">
        <ele>2377</ele>
        <time>2010-08-02T15:48:50Z</time>
      </trkpt>
      <trkpt lat="45.34507" lon="6.72421">
        <ele>2379.4</ele>
        <time>2010-08-02T15:49:03Z</time>
      </trkpt>
      <trkpt lat="45.34506" lon="6.72418">
        <ele>2380.36</ele>
        <time>2010-08-02T15:49:07Z</time>
      </trkpt>
      <trkpt lat="45.34504" lon="6.72405">
        <ele>2381.8</ele>
        <time>2010-08-02T15:49:21Z</time>
      </trkpt>
      <trkpt lat="45.34505" lon="6.72403">
        <ele>2382.28</ele>
        <time>2010-08-02T15:49:23Z</time>
      </trkpt>
      <trkpt lat="45.34511" lon="6.72394">
        <ele>2385.17</ele>
        <time>2010-08-02T15:49:37Z</time>
      </trkpt>
      <trkpt lat="45.34511" lon="6.72393">
        <ele>2385.17</ele>
        <time>2010-08-02T15:49:38Z</time>
      </trkpt>
      <trkpt lat="45.34519" lon="6.72387">
        <ele>2388.05</ele>
        <time>2010-08-02T15:49:54Z</time>
      </trkpt>
      <trkpt lat="45.34522" lon="6.72379">
        <ele>2389.01</ele>
        <time>2010-08-02T15:50:01Z</time>
      </trkpt>
      <trkpt lat="45.34526" lon="6.72366">
        <ele>2391.9</ele>
        <time>2010-08-02T15:50:13Z</time>
      </trkpt>
      <trkpt lat="45.34531" lon="6.72353">
        <ele>2393.34</ele>
        <time>2010-08-02T15:50:25Z</time>
      </trkpt>
      <trkpt lat="45.3454" lon="6.7235">
        <ele>2395.74</ele>
        <time>2010-08-02T15:50:39Z</time>
      </trkpt>
      <trkpt lat="45.34546" lon="6.72347">
        <ele>2397.67</ele>
        <time>2010-08-02T15:50:46Z</time>
      </trkpt>
      <trkpt lat="45.34551" lon="6.72345">
        <ele>2398.15</ele>
        <time>2010-08-02T15:50:52Z</time>
      </trkpt>
      <trkpt lat="45.34555" lon="6.72346">
        <ele>2398.15</ele>
        <time>2010-08-02T15:50:56Z</time>
      </trkpt>
      <trkpt lat="45.34558" lon="6.72346">
        <ele>2398.63</ele>
        <time>2010-08-02T15:50:59Z</time>
      </trkpt>
      <trkpt lat="45.34561" lon="6.72343">
        <ele>2399.59</ele>
        <time>2010-08-02T15:51:03Z</time>
      </trkpt>
      <trkpt lat="45.34563" lon="6.72336">
        <ele>2399.59</ele>
        <time>2010-08-02T15:51:07Z</time>
      </trkpt>
      <trkpt lat="45.34565" lon="6.72334">
        <ele>2401.03</ele>
        <time>2010-08-02T15:51:10Z</time>
      </trkpt>
      <trkpt lat="45.34575" lon="6.72326">
        <ele>2402.47</ele>
        <time>2010-08-02T15:51:22Z</time>
      </trkpt>
      <trkpt lat="45.34579" lon="6.72322">
        <ele>2403.91</ele>
        <time>2010-08-02T15:51:28Z</time>
      </trkpt>
      <trkpt lat="45.34585" lon="6.72314">
        <ele>2405.36</ele>
        <time>2010-08-02T15:51:38Z</time>
      </trkpt>
      <trkpt lat="45.34592" lon="6.72317">
        <ele>2407.28</ele>
        <time>2010-08-02T15:51:51Z</time>
      </trkpt>
      <trkpt lat="45.34595" lon="6.72325">
        <ele>2409.68</ele>
        <time>2010-08-02T15:52:04Z</time>
      </trkpt>
      <trkpt lat="45.34592" lon="6.72333">
        <ele>2412.09</ele>
        <time>2010-08-02T15:52:13Z</time>
      </trkpt>
      <trkpt lat="45.34593" lon="6.72342">
        <ele>2414.01</ele>
        <time>2010-08-02T15:52:27Z</time>
      </trkpt>
      <trkpt lat="45.34597" lon="6.72333">
        <ele>2414.49</ele>
        <time>2010-08-02T15:52:34Z</time>
      </trkpt>
      <trkpt lat="45.34602" lon="6.7233">
        <ele>2415.93</ele>
        <time>2010-08-02T15:52:40Z</time>
      </trkpt>
      <trkpt lat="45.34606" lon="6.72327">
        <ele>2415.45</ele>
        <time>2010-08-02T15:52:45Z</time>
      </trkpt>
      <trkpt lat="45.34615" lon="6.72315">
        <ele>2417.37</ele>
        <time>2010-08-02T15:52:58Z</time>
      </trkpt>
      <trkpt lat="45.34619" lon="6.72309">
        <ele>2417.37</ele>
        <time>2010-08-02T15:53:04Z</time>
      </trkpt>
      <trkpt lat="45.3462" lon="6.72307">
        <ele>2417.85</ele>
        <time>2010-08-02T15:53:06Z</time>
      </trkpt>
      <trkpt lat="45.34628" lon="6.72291">
        <ele>2418.81</ele>
        <time>2010-08-02T15:53:19Z</time>
      </trkpt>
      <trkpt lat="45.34635" lon="6.72278">
        <ele>2421.22</ele>
        <time>2010-08-02T15:53:32Z</time>
      </trkpt>
      <trkpt lat="45.3464" lon="6.72273">
        <ele>2423.14</ele>
        <time>2010-08-02T15:53:42Z</time>
      </trkpt>
      <trkpt lat="45.34648" lon="6.72265">
        <ele>2426.02</ele>
        <time>2010-08-02T15:53:55Z</time>
      </trkpt>
      <trkpt lat="45.3465" lon="6.72269">
        <ele>2426.02</ele>
        <time>2010-08-02T15:53:59Z</time>
      </trkpt>
      <trkpt lat="45.3465" lon="6.72272">
        <ele>2426.99</ele>
        <time>2010-08-02T15:54:01Z</time>
      </trkpt>
      <trkpt lat="45.34651" lon="6.72284">
        <ele>2428.91</ele>
        <time>2010-08-02T15:54:12Z</time>
      </trkpt>
      <trkpt lat="45.34653" lon="6.72294">
        <ele>2430.83</ele>
        <time>2010-08-02T15:54:23Z</time>
      </trkpt>
      <trkpt lat="45.34656" lon="6.72295">
        <ele>2432.75</ele>
        <time>2010-08-02T15:54:34Z</time>
      </trkpt>
      <trkpt lat="45.3466" lon="6.72291">
        <ele>2434.68</ele>
        <time>2010-08-02T15:54:42Z</time>
      </trkpt>
      <trkpt lat="45.34662" lon="6.7228">
        <ele>2435.64</ele>
        <time>2010-08-02T15:54:51Z</time>
      </trkpt>
      <trkpt lat="45.34666" lon="6.72289">
        <ele>2437.56</ele>
        <time>2010-08-02T15:55:01Z</time>
      </trkpt>
      <trkpt lat="45.34667" lon="6.72302">
        <ele>2439</ele>
        <time>2010-08-02T15:55:11Z</time>
      </trkpt>
      <trkpt lat="45.34669" lon="6.72311">
        <ele>2440.44</ele>
        <time>2010-08-02T15:55:19Z</time>
      </trkpt>
      <trkpt lat="45.34669" lon="6.72318">
        <ele>2441.89</ele>
        <time>2010-08-02T15:55:27Z</time>
      </trkpt>
      <trkpt lat="45.34672" lon="6.72314">
        <ele>2442.85</ele>
        <time>2010-08-02T15:55:36Z</time>
      </trkpt>
      <trkpt lat="45.34673" lon="6.72311">
        <ele>2443.81</ele>
        <time>2010-08-02T15:55:38Z</time>
      </trkpt>
      <trkpt lat="45.34673" lon="6.7231">
        <ele>2444.29</ele>
        <time>2010-08-02T15:55:39Z</time>
      </trkpt>
      <trkpt lat="45.34678" lon="6.72299">
        <ele>2446.69</ele>
        <time>2010-08-02T15:55:51Z</time>
      </trkpt>
      <trkpt lat="45.34678" lon="6.72298">
        <ele>2446.69</ele>
        <time>2010-08-02T15:55:52Z</time>
      </trkpt>
      <trkpt lat="45.34683" lon="6.72296">
        <ele>2448.13</ele>
        <time>2010-08-02T15:56:03Z</time>
      </trkpt>
      <trkpt lat="45.34687" lon="6.72303">
        <ele>2451.02</ele>
        <time>2010-08-02T15:56:13Z</time>
      </trkpt>
      <trkpt lat="45.34687" lon="6.72304">
        <ele>2451.5</ele>
        <time>2010-08-02T15:56:15Z</time>
      </trkpt>
      <trkpt lat="45.34691" lon="6.72301">
        <ele>2453.9</ele>
        <time>2010-08-02T15:56:29Z</time>
      </trkpt>
      <trkpt lat="45.34696" lon="6.72297">
        <ele>2454.86</ele>
        <time>2010-08-02T15:56:37Z</time>
      </trkpt>
      <trkpt lat="45.34697" lon="6.72294">
        <ele>2456.31</ele>
        <time>2010-08-02T15:56:41Z</time>
      </trkpt>
      <trkpt lat="45.34701" lon="6.72294">
        <ele>2457.75</ele>
        <time>2010-08-02T15:56:51Z</time>
      </trkpt>
      <trkpt lat="45.34701" lon="6.72302">
        <ele>2459.19</ele>
        <time>2010-08-02T15:56:58Z</time>
      </trkpt>
      <trkpt lat="45.34701" lon="6.72314">
        <ele>2460.15</ele>
        <time>2010-08-02T15:57:09Z</time>
      </trkpt>
      <trkpt lat="45.34702" lon="6.72317">
        <ele>2461.59</ele>
        <time>2010-08-02T15:57:11Z</time>
      </trkpt>
      <trkpt lat="45.34705" lon="6.72313">
        <ele>2463.52</ele>
        <time>2010-08-02T15:57:21Z</time>
      </trkpt>
      <trkpt lat="45.34709" lon="6.72306">
        <ele>2465.44</ele>
        <time>2010-08-02T15:57:30Z</time>
      </trkpt>
      <trkpt lat="45.34719" lon="6.72301">
        <ele>2468.8</ele>
        <time>2010-08-02T15:57:47Z</time>
      </trkpt>
      <trkpt lat="45.34726" lon="6.72298">
        <ele>2470.24</ele>
        <time>2010-08-02T15:57:56Z</time>
      </trkpt>
      <trkpt lat="45.34732" lon="6.72297">
        <ele>2471.21</ele>
        <time>2010-08-02T15:58:05Z</time>
      </trkpt>
      <trkpt lat="45.34739" lon="6.72293">
        <ele>2474.57</ele>
        <time>2010-08-02T15:58:18Z</time>
      </trkpt>
      <trkpt lat="45.34745" lon="6.72292">
        <ele>2475.53</ele>
        <time>2010-08-02T15:58:25Z</time>
      </trkpt>
      <trkpt lat="45.34748" lon="6.72289">
        <ele>2476.97</ele>
        <time>2010-08-02T15:58:31Z</time>
      </trkpt>
      <trkpt lat="45.34756" lon="6.72286">
        <ele>2478.42</ele>
        <time>2010-08-02T15:58:41Z</time>
      </trkpt>
      <trkpt lat="45.34762" lon="6.72278">
        <ele>2480.34</ele>
        <time>2010-08-02T15:58:52Z</time>
      </trkpt>
      <trkpt lat="45.34769" lon="6.72275">
        <ele>2482.26</ele>
        <time>2010-08-02T15:59:02Z</time>
      </trkpt>
      <trkpt lat="45.3477" lon="6.72275">
        <ele>2482.74</ele>
        <time>2010-08-02T15:59:03Z</time>
      </trkpt>
      <trkpt lat="45.34775" lon="6.72269">
        <ele>2484.18</ele>
        <time>2010-08-02T15:59:11Z</time>
      </trkpt>
      <trkpt lat="45.34779" lon="6.72265">
        <ele>2484.66</ele>
        <time>2010-08-02T15:59:16Z</time>
      </trkpt>
      <trkpt lat="45.34782" lon="6.72262">
        <ele>2484.66</ele>
        <time>2010-08-02T15:59:20Z</time>
      </trkpt>
      <trkpt lat="45.34788" lon="6.72256">
        <ele>2486.11</ele>
        <time>2010-08-02T15:59:29Z</time>
      </trkpt>
      <trkpt lat="45.34797" lon="6.72251">
        <ele>2487.07</ele>
        <time>2010-08-02T15:59:39Z</time>
      </trkpt>
      <trkpt lat="45.34808" lon="6.72246">
        <ele>2490.91</ele>
        <time>2010-08-02T15:59:56Z</time>
      </trkpt>
      <trkpt lat="45.34808" lon="6.72246">
        <ele>2490.43</ele>
        <time>2010-08-02T15:59:57Z</time>
      </trkpt>
      <trkpt lat="45.34817" lon="6.72244">
        <ele>2494.28</ele>
        <time>2010-08-02T16:00:09Z</time>
      </trkpt>
      <trkpt lat="45.34823" lon="6.72238">
        <ele>2495.72</ele>
        <time>2010-08-02T16:00:21Z</time>
      </trkpt>
      <trkpt lat="45.34833" lon="6.7224">
        <ele>2499.08</ele>
        <time>2010-08-02T16:00:36Z</time>
      </trkpt>
      <trkpt lat="45.34842" lon="6.72237">
        <ele>2501.97</ele>
        <time>2010-08-02T16:00:50Z</time>
      </trkpt>
      <trkpt lat="45.34846" lon="6.72235">
        <ele>2501.97</ele>
        <time>2010-08-02T16:00:56Z</time>
      </trkpt>
      <trkpt lat="45.34853" lon="6.72226">
        <ele>2502.45</ele>
        <time>2010-08-02T16:01:04Z</time>
      </trkpt>
      <trkpt lat="45.34863" lon="6.72224">
        <ele>2504.37</ele>
        <time>2010-08-02T16:01:14Z</time>
      </trkpt>
      <trkpt lat="45.34872" lon="6.72222">
        <ele>2506.29</ele>
        <time>2010-08-02T16:01:23Z</time>
      </trkpt>
      <trkpt lat="45.34884" lon="6.72218">
        <ele>2508.7</ele>
        <time>2010-08-02T16:01:37Z</time>
      </trkpt>
      <trkpt lat="45.3489" lon="6.72215">
        <ele>2511.58</ele>
        <time>2010-08-02T16:01:49Z</time>
      </trkpt>
      <trkpt lat="45.34897" lon="6.72214">
        <ele>2513.98</ele>
        <time>2010-08-02T16:02:03Z</time>
      </trkpt>
      <trkpt lat="45.34904" lon="6.72205">
        <ele>2515.91</ele>
        <time>2010-08-02T16:02:14Z</time>
      </trkpt>
      <trkpt lat="45.3491" lon="6.72195">
        <ele>2517.35</ele>
        <time>2010-08-02T16:02:23Z</time>
      </trkpt>
      <trkpt lat="45.34916" lon="6.7219">
        <ele>2518.31</ele>
        <time>2010-08-02T16:02:30Z</time>
      </trkpt>
      <trkpt lat="45.34925" lon="6.72187">
        <ele>2520.23</ele>
        <time>2010-08-02T16:02:40Z</time>
      </trkpt>
      <trkpt lat="45.34933" lon="6.72189">
        <ele>2521.19</ele>
        <time>2010-08-02T16:02:50Z</time>
      </trkpt>
      <trkpt lat="45.34935" lon="6.7219">
        <ele>2522.64</ele>
        <time>2010-08-02T16:02:52Z</time>
      </trkpt>
      <trkpt lat="45.34945" lon="6.72193">
        <ele>2523.6</ele>
        <time>2010-08-02T16:03:03Z</time>
      </trkpt>
      <trkpt lat="45.34956" lon="6.72189">
        <ele>2525.04</ele>
        <time>2010-08-02T16:03:14Z</time>
      </trkpt>
      <trkpt lat="45.34967" lon="6.72188">
        <ele>2526.96</ele>
        <time>2010-08-02T16:03:26Z</time>
      </trkpt>
      <trkpt lat="45.34972" lon="6.72185">
        <ele>2528.4</ele>
        <time>2010-08-02T16:03:33Z</time>
      </trkpt>
      <trkpt lat="45.34986" lon="6.7218">
        <ele>2528.89</ele>
        <time>2010-08-02T16:03:44Z</time>
      </trkpt>
      <trkpt lat="45.34991" lon="6.72178">
        <ele>2528.4</ele>
        <time>2010-08-02T16:03:49Z</time>
      </trkpt>
      <trkpt lat="45.35002" lon="6.7218">
        <ele>2527.44</ele>
        <time>2010-08-02T16:03:58Z</time>
      </trkpt>
      <trkpt lat="45.35005" lon="6.72179">
        <ele>2526.48</ele>
        <time>2010-08-02T16:04:00Z</time>
      </trkpt>
      <trkpt lat="45.35016" lon="6.72181">
        <ele>2527.92</ele>
        <time>2010-08-02T16:04:10Z</time>
      </trkpt>
      <trkpt lat="45.35022" lon="6.72177">
        <ele>2527.44</ele>
        <time>2010-08-02T16:04:15Z</time>
      </trkpt>
      <trkpt lat="45.35033" lon="6.72174">
        <ele>2527.92</ele>
        <time>2010-08-02T16:04:26Z</time>
      </trkpt>
      <trkpt lat="45.35042" lon="6.72175">
        <ele>2528.89</ele>
        <time>2010-08-02T16:04:33Z</time>
      </trkpt>
      <trkpt lat="45.35045" lon="6.72171">
        <ele>2529.85</ele>
        <time>2010-08-02T16:04:36Z</time>
      </trkpt>
      <trkpt lat="45.35049" lon="6.72165">
        <ele>2529.37</ele>
        <time>2010-08-02T16:04:40Z</time>
      </trkpt>
      <trkpt lat="45.35057" lon="6.72162">
        <ele>2530.81</ele>
        <time>2010-08-02T16:04:48Z</time>
      </trkpt>
      <trkpt lat="45.35061" lon="6.7216">
        <ele>2530.33</ele>
        <time>2010-08-02T16:04:51Z</time>
      </trkpt>
      <trkpt lat="45.35065" lon="6.72159">
        <ele>2530.81</ele>
        <time>2010-08-02T16:04:55Z</time>
      </trkpt>
      <trkpt lat="45.35067" lon="6.72156">
        <ele>2531.77</ele>
        <time>2010-08-02T16:04:57Z</time>
      </trkpt>
      <trkpt lat="45.35075" lon="6.72154">
        <ele>2530.81</ele>
        <time>2010-08-02T16:05:04Z</time>
      </trkpt>
      <trkpt lat="45.35082" lon="6.72158">
        <ele>2532.73</ele>
        <time>2010-08-02T16:05:10Z</time>
      </trkpt>
      <trkpt lat="45.35087" lon="6.72156">
        <ele>2533.21</ele>
        <time>2010-08-02T16:05:16Z</time>
      </trkpt>
      <trkpt lat="45.35099" lon="6.72155">
        <ele>2533.69</ele>
        <time>2010-08-02T16:05:24Z</time>
      </trkpt>
      <trkpt lat="45.35102" lon="6.72149">
        <ele>2533.69</ele>
        <time>2010-08-02T16:05:28Z</time>
      </trkpt>
      <trkpt lat="45.35104" lon="6.72147">
        <ele>2533.69</ele>
        <time>2010-08-02T16:05:30Z</time>
      </trkpt>
      <trkpt lat="45.35114" lon="6.72147">
        <ele>2535.13</ele>
        <time>2010-08-02T16:05:37Z</time>
      </trkpt>
      <trkpt lat="45.35123" lon="6.72147">
        <ele>2536.1</ele>
        <time>2010-08-02T16:05:47Z</time>
      </trkpt>
      <trkpt lat="45.35119" lon="6.72154">
        <ele>2538.98</ele>
        <time>2010-08-02T16:05:58Z</time>
      </trkpt>
      <trkpt lat="45.35114" lon="6.72161">
        <ele>2542.34</ele>
        <time>2010-08-02T16:06:10Z</time>
      </trkpt>
      <trkpt lat="45.35113" lon="6.72162">
        <ele>2543.31</ele>
        <time>2010-08-02T16:06:12Z</time>
      </trkpt>
      <trkpt lat="45.35109" lon="6.72167">
        <ele>2545.23</ele>
        <time>2010-08-02T16:06:24Z</time>
      </trkpt>
      <trkpt lat="45.35114" lon="6.72169">
        <ele>2547.63</ele>
        <time>2010-08-02T16:06:33Z</time>
      </trkpt>
      <trkpt lat="45.35114" lon="6.72174">
        <ele>2549.07</ele>
        <time>2010-08-02T16:06:39Z</time>
      </trkpt>
      <trkpt lat="45.3511" lon="6.7218">
        <ele>2551.48</ele>
        <time>2010-08-02T16:06:48Z</time>
      </trkpt>
      <trkpt lat="45.35108" lon="6.72184">
        <ele>2551.96</ele>
        <time>2010-08-02T16:06:54Z</time>
      </trkpt>
      <trkpt lat="45.35115" lon="6.72189">
        <ele>2553.88</ele>
        <time>2010-08-02T16:07:03Z</time>
      </trkpt>
      <trkpt lat="45.35121" lon="6.7219">
        <ele>2555.32</ele>
        <time>2010-08-02T16:07:11Z</time>
      </trkpt>
      <trkpt lat="45.35124" lon="6.72189">
        <ele>2555.8</ele>
        <time>2010-08-02T16:07:14Z</time>
      </trkpt>
      <trkpt lat="45.35133" lon="6.72194">
        <ele>2558.21</ele>
        <time>2010-08-02T16:07:27Z</time>
      </trkpt>
      <trkpt lat="45.35129" lon="6.722">
        <ele>2559.17</ele>
        <time>2010-08-02T16:07:35Z</time>
      </trkpt>
      <trkpt lat="45.35129" lon="6.72204">
        <ele>2560.61</ele>
        <time>2010-08-02T16:07:40Z</time>
      </trkpt>
      <trkpt lat="45.35128" lon="6.72206">
        <ele>2561.09</ele>
        <time>2010-08-02T16:07:44Z</time>
      </trkpt>
      <trkpt lat="45.35125" lon="6.72211">
        <ele>2563.97</ele>
        <time>2010-08-02T16:07:58Z</time>
      </trkpt>
      <trkpt lat="45.35126" lon="6.72211">
        <ele>2563.97</ele>
        <time>2010-08-02T16:07:59Z</time>
      </trkpt>
      <trkpt lat="45.35132" lon="6.7221">
        <ele>2564.45</ele>
        <time>2010-08-02T16:08:07Z</time>
      </trkpt>
      <trkpt lat="45.35139" lon="6.72217">
        <ele>2567.34</ele>
        <time>2010-08-02T16:08:18Z</time>
      </trkpt>
      <trkpt lat="45.35145" lon="6.72223">
        <ele>2569.74</ele>
        <time>2010-08-02T16:08:32Z</time>
      </trkpt>
      <trkpt lat="45.35145" lon="6.72232">
        <ele>2572.14</ele>
        <time>2010-08-02T16:08:40Z</time>
      </trkpt>
      <trkpt lat="45.35145" lon="6.72233">
        <ele>2572.14</ele>
        <time>2010-08-02T16:08:41Z</time>
      </trkpt>
      <trkpt lat="45.35145" lon="6.7224">
        <ele>2573.11</ele>
        <time>2010-08-02T16:08:48Z</time>
      </trkpt>
      <trkpt lat="45.35143" lon="6.72252">
        <ele>2575.51</ele>
        <time>2010-08-02T16:09:01Z</time>
      </trkpt>
      <trkpt lat="45.35143" lon="6.72256">
        <ele>2576.47</ele>
        <time>2010-08-02T16:09:05Z</time>
      </trkpt>
      <trkpt lat="45.35143" lon="6.7226">
        <ele>2576.47</ele>
        <time>2010-08-02T16:09:08Z</time>
      </trkpt>
      <trkpt lat="45.35145" lon="6.72271">
        <ele>2579.35</ele>
        <time>2010-08-02T16:09:19Z</time>
      </trkpt>
      <trkpt lat="45.35145" lon="6.72275">
        <ele>2579.84</ele>
        <time>2010-08-02T16:09:23Z</time>
      </trkpt>
      <trkpt lat="45.35149" lon="6.72282">
        <ele>2581.28</ele>
        <time>2010-08-02T16:09:31Z</time>
      </trkpt>
      <trkpt lat="45.3515" lon="6.72287">
        <ele>2582.72</ele>
        <time>2010-08-02T16:09:36Z</time>
      </trkpt>
      <trkpt lat="45.35157" lon="6.72298">
        <ele>2583.68</ele>
        <time>2010-08-02T16:09:46Z</time>
      </trkpt>
      <trkpt lat="45.35158" lon="6.72299">
        <ele>2583.68</ele>
        <time>2010-08-02T16:09:47Z</time>
      </trkpt>
      <trkpt lat="45.35162" lon="6.72302">
        <ele>2584.16</ele>
        <time>2010-08-02T16:09:51Z</time>
      </trkpt>
      <trkpt lat="45.35164" lon="6.72305">
        <ele>2584.64</ele>
        <time>2010-08-02T16:09:55Z</time>
      </trkpt>
      <trkpt lat="45.35168" lon="6.72307">
        <ele>2584.16</ele>
        <time>2010-08-02T16:09:59Z</time>
      </trkpt>
      <trkpt lat="45.35178" lon="6.72318">
        <ele>2585.12</ele>
        <time>2010-08-02T16:10:10Z</time>
      </trkpt>
      <trkpt lat="45.35183" lon="6.72323">
        <ele>2586.56</ele>
        <time>2010-08-02T16:10:17Z</time>
      </trkpt>
      <trkpt lat="45.35193" lon="6.72337">
        <ele>2586.08</ele>
        <time>2010-08-02T16:10:30Z</time>
      </trkpt>
      <trkpt lat="45.35194" lon="6.72338">
        <ele>2586.08</ele>
        <time>2010-08-02T16:10:31Z</time>
      </trkpt>
      <trkpt lat="45.35197" lon="6.72345">
        <ele>2587.53</ele>
        <time>2010-08-02T16:10:36Z</time>
      </trkpt>
      <trkpt lat="45.35202" lon="6.72349">
        <ele>2587.04</ele>
        <time>2010-08-02T16:10:40Z</time>
      </trkpt>
      <trkpt lat="45.35216" lon="6.72363">
        <ele>2586.08</ele>
        <time>2010-08-02T16:10:53Z</time>
      </trkpt>
      <trkpt lat="45.3523" lon="6.72378">
        <ele>2585.12</ele>
        <time>2010-08-02T16:11:06Z</time>
      </trkpt>
      <trkpt lat="45.35245" lon="6.72393">
        <ele>2584.16</ele>
        <time>2010-08-02T16:11:18Z</time>
      </trkpt>
      <trkpt lat="45.35254" lon="6.72402">
        <ele>2582.72</ele>
        <time>2010-08-02T16:11:24Z</time>
      </trkpt>
      <trkpt lat="45.35269" lon="6.72406">
        <ele>2583.2</ele>
        <time>2010-08-02T16:11:35Z</time>
      </trkpt>
      <trkpt lat="45.35274" lon="6.72407">
        <ele>2582.72</ele>
        <time>2010-08-02T16:11:38Z</time>
      </trkpt>
      <trkpt lat="45.3529" lon="6.72414">
        <ele>2582.72</ele>
        <time>2010-08-02T16:11:51Z</time>
      </trkpt>
      <trkpt lat="45.35298" lon="6.72415">
        <ele>2581.76</ele>
        <time>2010-08-02T16:11:57Z</time>
      </trkpt>
      <trkpt lat="45.35304" lon="6.72414">
        <ele>2580.32</ele>
        <time>2010-08-02T16:12:01Z</time>
      </trkpt>
      <trkpt lat="45.35307" lon="6.72413">
        <ele>2580.8</ele>
        <time>2010-08-02T16:12:03Z</time>
      </trkpt>
      <trkpt lat="45.35319" lon="6.72406">
        <ele>2578.39</ele>
        <time>2010-08-02T16:12:12Z</time>
      </trkpt>
      <trkpt lat="45.35332" lon="6.72411">
        <ele>2575.51</ele>
        <time>2010-08-02T16:12:23Z</time>
      </trkpt>
      <trkpt lat="45.35334" lon="6.72414">
        <ele>2574.55</ele>
        <time>2010-08-02T16:12:34Z</time>
      </trkpt>
      <trkpt lat="45.35334" lon="6.72414">
        <ele>2577.91</ele>
        <time>2010-08-02T16:12:40Z</time>
      </trkpt>
      <trkpt lat="45.35334" lon="6.72414">
        <ele>2574.07</ele>
        <time>2010-08-02T16:12:42Z</time>
      </trkpt>
      <trkpt lat="45.35334" lon="6.72414">
        <ele>2574.07</ele>
        <time>2010-08-02T16:12:43Z</time>
      </trkpt>
      <trkpt lat="45.35334" lon="6.72414">
        <ele>2573.59</ele>
        <time>2010-08-02T16:12:45Z</time>
      </trkpt>
      <trkpt lat="45.35334" lon="6.72414">
        <ele>2600.98</ele>
        <time>2010-08-02T16:12:51Z</time>
      </trkpt>
      <trkpt lat="45.35334" lon="6.72414">
        <ele>2576.95</ele>
        <time>2010-08-02T16:12:52Z</time>
      </trkpt>
      <trkpt lat="45.35334" lon="6.72414">
        <ele>2576.95</ele>
        <time>2010-08-02T16:12:53Z</time>
      </trkpt>
      <trkpt lat="45.35334" lon="6.72414">
        <ele>2576.95</ele>
        <time>2010-08-02T16:12:58Z</time>
      </trkpt>
      <trkpt lat="45.35334" lon="6.72414">
        <ele>2573.11</ele>
        <time>2010-08-02T16:13:18Z</time>
      </trkpt>
      <trkpt lat="45.35334" lon="6.72414">
        <ele>2573.11</ele>
        <time>2010-08-02T16:13:19Z</time>
      </trkpt>
      <trkpt lat="45.35334" lon="6.72414">
        <ele>2573.59</ele>
        <time>2010-08-02T16:13:22Z</time>
      </trkpt>
      <trkpt lat="45.35334" lon="6.72414">
        <ele>2579.35</ele>
        <time>2010-08-02T16:13:23Z</time>
      </trkpt>
      <trkpt lat="45.35334" lon="6.72414">
        <ele>2577.91</ele>
        <time>2010-08-02T16:13:24Z</time>
      </trkpt>
      <trkpt lat="45.35327" lon="6.72419">
        <ele>2576.95</ele>
        <time>2010-08-02T16:13:27Z</time>
      </trkpt>
      <trkpt lat="45.3533" lon="6.72416">
        <ele>2573.59</ele>
        <time>2010-08-02T16:13:32Z</time>
      </trkpt>
      <trkpt lat="45.3533" lon="6.72415">
        <ele>2573.59</ele>
        <time>2010-08-02T16:13:33Z</time>
      </trkpt>
      <trkpt lat="45.35331" lon="6.72414">
        <ele>2577.91</ele>
        <time>2010-08-02T16:13:34Z</time>
      </trkpt>
      <trkpt lat="45.35332" lon="6.72413">
        <ele>2577.43</ele>
        <time>2010-08-02T16:13:39Z</time>
      </trkpt>
      <trkpt lat="45.35331" lon="6.7242">
        <ele>2574.55</ele>
        <time>2010-08-02T16:13:54Z</time>
      </trkpt>
      <trkpt lat="45.35331" lon="6.7242">
        <ele>2577.43</ele>
        <time>2010-08-02T16:13:56Z</time>
      </trkpt>
      <trkpt lat="45.3533" lon="6.7242">
        <ele>2575.99</ele>
        <time>2010-08-02T16:13:57Z</time>
      </trkpt>
      <trkpt lat="45.35329" lon="6.72422">
        <ele>2577.91</ele>
        <time>2010-08-02T16:14:04Z</time>
      </trkpt>
      <trkpt lat="45.35331" lon="6.7242">
        <ele>2580.8</ele>
        <time>2010-08-02T16:14:14Z</time>
      </trkpt>
      <trkpt lat="45.35331" lon="6.7242">
        <ele>2574.07</ele>
        <time>2010-08-02T16:14:15Z</time>
      </trkpt>
      <trkpt lat="45.35331" lon="6.7242">
        <ele>2604.35</ele>
        <time>2010-08-03T04:43:17Z</time>
      </trkpt>
      <trkpt lat="45.35331" lon="6.7242">
        <ele>2575.51</ele>
        <time>2010-08-03T04:43:18Z</time>
      </trkpt>
      <trkpt lat="45.35331" lon="6.7242">
        <ele>2575.51</ele>
        <time>2010-08-03T04:43:19Z</time>
      </trkpt>
      <trkpt lat="45.35331" lon="6.7242">
        <ele>2578.39</ele>
        <time>2010-08-03T04:43:41Z</time>
      </trkpt>
      <trkpt lat="45.35303" lon="6.72453">
        <ele>2577.91</ele>
        <time>2010-08-03T04:43:44Z</time>
      </trkpt>
      <trkpt lat="45.35308" lon="6.72457">
        <ele>2574.07</ele>
        <time>2010-08-03T04:43:56Z</time>
      </trkpt>
      <trkpt lat="45.35309" lon="6.72456">
        <ele>2577.43</ele>
        <time>2010-08-03T04:43:57Z</time>
      </trkpt>
      <trkpt lat="45.35327" lon="6.7244">
        <ele>2569.26</ele>
        <time>2010-08-03T04:44:27Z</time>
      </trkpt>
      <trkpt lat="45.35327" lon="6.7244">
        <ele>2577.43</ele>
        <time>2010-08-03T04:44:28Z</time>
      </trkpt>
      <trkpt lat="45.35323" lon="6.72423">
        <ele>2578.39</ele>
        <time>2010-08-03T04:45:12Z</time>
      </trkpt>
      <trkpt lat="45.35322" lon="6.7242">
        <ele>2577.91</ele>
        <time>2010-08-03T04:45:27Z</time>
      </trkpt>
      <trkpt lat="45.35323" lon="6.72419">
        <ele>2575.99</ele>
        <time>2010-08-03T04:45:55Z</time>
      </trkpt>
      <trkpt lat="45.35323" lon="6.72419">
        <ele>2602.43</ele>
        <time>2010-08-03T04:46:13Z</time>
      </trkpt>
      <trkpt lat="45.35323" lon="6.72419">
        <ele>2577.91</ele>
        <time>2010-08-03T04:46:15Z</time>
      </trkpt>
      <trkpt lat="45.35323" lon="6.72419">
        <ele>2577.91</ele>
        <time>2010-08-03T04:46:16Z</time>
      </trkpt>
      <trkpt lat="45.3533" lon="6.72411">
        <ele>2577.43</ele>
        <time>2010-08-03T04:46:20Z</time>
      </trkpt>
      <trkpt lat="45.35331" lon="6.72413">
        <ele>2578.39</ele>
        <time>2010-08-03T04:47:09Z</time>
      </trkpt>
      <trkpt lat="45.35329" lon="6.72411">
        <ele>2577.91</ele>
        <time>2010-08-03T04:49:14Z</time>
      </trkpt>
      <trkpt lat="45.35329" lon="6.72411">
        <ele>2605.79</ele>
        <time>2010-08-03T04:52:02Z</time>
      </trkpt>
      <trkpt lat="45.35329" lon="6.72411">
        <ele>2579.35</ele>
        <time>2010-08-03T04:52:03Z</time>
      </trkpt>
      <trkpt lat="45.35329" lon="6.72411">
        <ele>2579.35</ele>
        <time>2010-08-03T04:52:04Z</time>
      </trkpt>
      <trkpt lat="45.35329" lon="6.72411">
        <ele>2580.8</ele>
        <time>2010-08-03T04:52:07Z</time>
      </trkpt>
      <trkpt lat="45.35329" lon="6.72411">
        <ele>2579.35</ele>
        <time>2010-08-03T04:52:08Z</time>
      </trkpt>
      <trkpt lat="45.35329" lon="6.72411">
        <ele>2577.91</ele>
        <time>2010-08-03T04:52:13Z</time>
      </trkpt>
      <trkpt lat="45.35331" lon="6.72411">
        <ele>2579.84</ele>
        <time>2010-08-03T04:52:14Z</time>
      </trkpt>
      <trkpt lat="45.3533" lon="6.72412">
        <ele>2567.82</ele>
        <time>2010-08-03T04:52:19Z</time>
      </trkpt>
      <trkpt lat="45.3533" lon="6.72412">
        <ele>2579.84</ele>
        <time>2010-08-03T04:52:20Z</time>
      </trkpt>
      <trkpt lat="45.35327" lon="6.72407">
        <ele>2574.55</ele>
        <time>2010-08-03T04:53:08Z</time>
      </trkpt>
      <trkpt lat="45.35327" lon="6.72407">
        <ele>2579.84</ele>
        <time>2010-08-03T04:53:09Z</time>
      </trkpt>
      <trkpt lat="45.35328" lon="6.72409">
        <ele>2583.68</ele>
        <time>2010-08-03T04:53:23Z</time>
      </trkpt>
      <trkpt lat="45.35328" lon="6.72409">
        <ele>2587.04</ele>
        <time>2010-08-03T04:53:27Z</time>
      </trkpt>
      <trkpt lat="45.35328" lon="6.72409">
        <ele>2590.41</ele>
        <time>2010-08-03T04:53:31Z</time>
      </trkpt>
      <trkpt lat="45.35328" lon="6.72409">
        <ele>2594.25</ele>
        <time>2010-08-03T04:53:35Z</time>
      </trkpt>
      <trkpt lat="45.35328" lon="6.72409">
        <ele>2593.77</ele>
        <time>2010-08-03T04:53:36Z</time>
      </trkpt>
      <trkpt lat="45.35329" lon="6.72409">
        <ele>2596.18</ele>
        <time>2010-08-03T04:53:42Z</time>
      </trkpt>
      <trkpt lat="45.35329" lon="6.72409">
        <ele>2599.06</ele>
        <time>2010-08-03T04:53:50Z</time>
      </trkpt>
      <trkpt lat="45.35329" lon="6.7241">
        <ele>2602.43</ele>
        <time>2010-08-03T04:54:01Z</time>
      </trkpt>
      <trkpt lat="45.35329" lon="6.72412">
        <ele>2604.83</ele>
        <time>2010-08-03T04:54:18Z</time>
      </trkpt>
      <trkpt lat="45.35329" lon="6.72412">
        <ele>2609.16</ele>
        <time>2010-08-03T05:13:04Z</time>
      </trkpt>
      <trkpt lat="45.35329" lon="6.72412">
        <ele>2604.35</ele>
        <time>2010-08-03T05:13:06Z</time>
      </trkpt>
      <trkpt lat="45.35325" lon="6.72395">
        <ele>2604.83</ele>
        <time>2010-08-03T05:13:13Z</time>
      </trkpt>
      <trkpt lat="45.35326" lon="6.72396">
        <ele>2600.98</ele>
        <time>2010-08-03T05:13:44Z</time>
      </trkpt>
      <trkpt lat="45.35325" lon="6.72397">
        <ele>2598.1</ele>
        <time>2010-08-03T05:14:04Z</time>
      </trkpt>
      <trkpt lat="45.35325" lon="6.72396">
        <ele>2593.29</ele>
        <time>2010-08-03T05:14:42Z</time>
      </trkpt>
      <trkpt lat="45.35325" lon="6.72396">
        <ele>2597.62</ele>
        <time>2010-08-03T05:14:43Z</time>
      </trkpt>
      <trkpt lat="45.35324" lon="6.72396">
        <ele>2596.66</ele>
        <time>2010-08-03T05:14:55Z</time>
      </trkpt>
      <trkpt lat="45.35324" lon="6.72399">
        <ele>2596.66</ele>
        <time>2010-08-03T05:15:30Z</time>
      </trkpt>
      <trkpt lat="45.35324" lon="6.72402">
        <ele>2596.66</ele>
        <time>2010-08-03T05:16:20Z</time>
      </trkpt>
      <trkpt lat="45.35325" lon="6.72404">
        <ele>2594.74</ele>
        <time>2010-08-03T05:16:22Z</time>
      </trkpt>
      <trkpt lat="45.35326" lon="6.72409">
        <ele>2595.22</ele>
        <time>2010-08-03T05:16:28Z</time>
      </trkpt>
      <trkpt lat="45.35331" lon="6.72411">
        <ele>2594.74</ele>
        <time>2010-08-03T05:16:38Z</time>
      </trkpt>
      <trkpt lat="45.35334" lon="6.72415">
        <ele>2594.74</ele>
        <time>2010-08-03T05:16:54Z</time>
      </trkpt>
      <trkpt lat="45.35334" lon="6.72415">
        <ele>2594.74</ele>
        <time>2010-08-03T05:17:03Z</time>
      </trkpt>
      <trkpt lat="45.35332" lon="6.72408">
        <ele>2594.74</ele>
        <time>2010-08-03T05:17:10Z</time>
      </trkpt>
      <trkpt lat="45.35327" lon="6.724">
        <ele>2595.7</ele>
        <time>2010-08-03T05:17:22Z</time>
      </trkpt>
      <trkpt lat="45.35324" lon="6.72394">
        <ele>2588.49</ele>
        <time>2010-08-03T05:18:09Z</time>
      </trkpt>
      <trkpt lat="45.35324" lon="6.72394">
        <ele>2595.7</ele>
        <time>2010-08-03T05:18:10Z</time>
      </trkpt>
      <trkpt lat="45.35324" lon="6.72394">
        <ele>2577.43</ele>
        <time>2010-08-03T05:18:17Z</time>
      </trkpt>
      <trkpt lat="45.35324" lon="6.72394">
        <ele>2594.74</ele>
        <time>2010-08-03T05:18:18Z</time>
      </trkpt>
      <trkpt lat="45.35324" lon="6.72394">
        <ele>2594.74</ele>
        <time>2010-08-03T05:18:19Z</time>
      </trkpt>
      <trkpt lat="45.35326" lon="6.72403">
        <ele>2596.18</ele>
        <time>2010-08-03T05:18:24Z</time>
      </trkpt>
      <trkpt lat="45.35325" lon="6.72401">
        <ele>2596.66</ele>
        <time>2010-08-03T05:19:47Z</time>
      </trkpt>
      <trkpt lat="45.35323" lon="6.72404">
        <ele>2596.18</ele>
        <time>2010-08-03T05:20:14Z</time>
      </trkpt>
      <trkpt lat="45.35324" lon="6.72407">
        <ele>2595.7</ele>
        <time>2010-08-03T05:21:24Z</time>
      </trkpt>
      <trkpt lat="45.35322" lon="6.72416">
        <ele>2595.22</ele>
        <time>2010-08-03T05:21:35Z</time>
      </trkpt>
      <trkpt lat="45.35323" lon="6.72426">
        <ele>2593.77</ele>
        <time>2010-08-03T05:21:47Z</time>
      </trkpt>
      <trkpt lat="45.35323" lon="6.7243">
        <ele>2594.25</ele>
        <time>2010-08-03T05:21:56Z</time>
      </trkpt>
      <trkpt lat="45.35324" lon="6.72432">
        <ele>2593.29</ele>
        <time>2010-08-03T05:21:58Z</time>
      </trkpt>
      <trkpt lat="45.35335" lon="6.72441">
        <ele>2590.89</ele>
        <time>2010-08-03T05:22:10Z</time>
      </trkpt>
      <trkpt lat="45.35341" lon="6.72441">
        <ele>2590.41</ele>
        <time>2010-08-03T05:22:16Z</time>
      </trkpt>
      <trkpt lat="45.35346" lon="6.72446">
        <ele>2588.97</ele>
        <time>2010-08-03T05:22:22Z</time>
      </trkpt>
      <trkpt lat="45.3535" lon="6.72447">
        <ele>2588.49</ele>
        <time>2010-08-03T05:22:26Z</time>
      </trkpt>
      <trkpt lat="45.35353" lon="6.72444">
        <ele>2587.53</ele>
        <time>2010-08-03T05:22:30Z</time>
      </trkpt>
      <trkpt lat="45.35366" lon="6.72437">
        <ele>2586.08</ele>
        <time>2010-08-03T05:22:41Z</time>
      </trkpt>
      <trkpt lat="45.35375" lon="6.7244">
        <ele>2584.64</ele>
        <time>2010-08-03T05:22:50Z</time>
      </trkpt>
      <trkpt lat="45.35384" lon="6.7245">
        <ele>2581.28</ele>
        <time>2010-08-03T05:23:02Z</time>
      </trkpt>
      <trkpt lat="45.35399" lon="6.72455">
        <ele>2578.39</ele>
        <time>2010-08-03T05:23:16Z</time>
      </trkpt>
      <trkpt lat="45.3541" lon="6.72457">
        <ele>2575.51</ele>
        <time>2010-08-03T05:23:27Z</time>
      </trkpt>
      <trkpt lat="45.35422" lon="6.72455">
        <ele>2572.14</ele>
        <time>2010-08-03T05:23:39Z</time>
      </trkpt>
      <trkpt lat="45.35424" lon="6.72455">
        <ele>2572.14</ele>
        <time>2010-08-03T05:23:41Z</time>
      </trkpt>
      <trkpt lat="45.35427" lon="6.72454">
        <ele>2571.66</ele>
        <time>2010-08-03T05:23:45Z</time>
      </trkpt>
      <trkpt lat="45.35437" lon="6.7245">
        <ele>2568.78</ele>
        <time>2010-08-03T05:23:57Z</time>
      </trkpt>
      <trkpt lat="45.35439" lon="6.72448">
        <ele>2567.82</ele>
        <time>2010-08-03T05:24:01Z</time>
      </trkpt>
      <trkpt lat="45.35447" lon="6.72446">
        <ele>2564.45</ele>
        <time>2010-08-03T05:24:10Z</time>
      </trkpt>
      <trkpt lat="45.35452" lon="6.72446">
        <ele>2563.49</ele>
        <time>2010-08-03T05:24:16Z</time>
      </trkpt>
      <trkpt lat="45.35455" lon="6.72445">
        <ele>2562.53</ele>
        <time>2010-08-03T05:24:19Z</time>
      </trkpt>
      <trkpt lat="45.35465" lon="6.72442">
        <ele>2559.65</ele>
        <time>2010-08-03T05:24:29Z</time>
      </trkpt>
      <trkpt lat="45.35468" lon="6.72441">
        <ele>2558.21</ele>
        <time>2010-08-03T05:24:33Z</time>
      </trkpt>
      <trkpt lat="45.35475" lon="6.72441">
        <ele>2557.73</ele>
        <time>2010-08-03T05:24:40Z</time>
      </trkpt>
      <trkpt lat="45.35476" lon="6.72437">
        <ele>2556.28</ele>
        <time>2010-08-03T05:24:43Z</time>
      </trkpt>
      <trkpt lat="45.35477" lon="6.72436">
        <ele>2556.28</ele>
        <time>2010-08-03T05:24:45Z</time>
      </trkpt>
      <trkpt lat="45.35485" lon="6.72439">
        <ele>2552.92</ele>
        <time>2010-08-03T05:24:56Z</time>
      </trkpt>
      <trkpt lat="45.35487" lon="6.72437">
        <ele>2552.44</ele>
        <time>2010-08-03T05:24:58Z</time>
      </trkpt>
      <trkpt lat="45.35493" lon="6.72433">
        <ele>2551</ele>
        <time>2010-08-03T05:25:05Z</time>
      </trkpt>
      <trkpt lat="45.35494" lon="6.72432">
        <ele>2550.51</ele>
        <time>2010-08-03T05:25:06Z</time>
      </trkpt>
      <trkpt lat="45.35499" lon="6.72428">
        <ele>2550.51</ele>
        <time>2010-08-03T05:25:11Z</time>
      </trkpt>
      <trkpt lat="45.3551" lon="6.72419">
        <ele>2550.03</ele>
        <time>2010-08-03T05:25:24Z</time>
      </trkpt>
      <trkpt lat="45.35518" lon="6.72419">
        <ele>2549.55</ele>
        <time>2010-08-03T05:25:31Z</time>
      </trkpt>
      <trkpt lat="45.3552" lon="6.72422">
        <ele>2549.07</ele>
        <time>2010-08-03T05:25:49Z</time>
      </trkpt>
      <trkpt lat="45.35527" lon="6.72428">
        <ele>2547.15</ele>
        <time>2010-08-03T05:26:01Z</time>
      </trkpt>
      <trkpt lat="45.35527" lon="6.72428">
        <ele>2547.63</ele>
        <time>2010-08-03T05:26:04Z</time>
      </trkpt>
      <trkpt lat="45.35531" lon="6.72428">
        <ele>2546.67</ele>
        <time>2010-08-03T05:26:08Z</time>
      </trkpt>
      <trkpt lat="45.3554" lon="6.72431">
        <ele>2545.23</ele>
        <time>2010-08-03T05:26:20Z</time>
      </trkpt>
      <trkpt lat="45.35541" lon="6.72432">
        <ele>2544.75</ele>
        <time>2010-08-03T05:26:22Z</time>
      </trkpt>
      <trkpt lat="45.35544" lon="6.72433">
        <ele>2542.34</ele>
        <time>2010-08-03T05:26:27Z</time>
      </trkpt>
      <trkpt lat="45.35548" lon="6.72439">
        <ele>2540.42</ele>
        <time>2010-08-03T05:26:37Z</time>
      </trkpt>
      <trkpt lat="45.3555" lon="6.72442">
        <ele>2540.9</ele>
        <time>2010-08-03T05:26:40Z</time>
      </trkpt>
      <trkpt lat="45.35548" lon="6.72444">
        <ele>2539.46</ele>
        <time>2010-08-03T05:26:43Z</time>
      </trkpt>
      <trkpt lat="45.35551" lon="6.72451">
        <ele>2536.58</ele>
        <time>2010-08-03T05:26:54Z</time>
      </trkpt>
      <trkpt lat="45.35556" lon="6.72455">
        <ele>2535.61</ele>
        <time>2010-08-03T05:27:00Z</time>
      </trkpt>
      <trkpt lat="45.35559" lon="6.72455">
        <ele>2535.61</ele>
        <time>2010-08-03T05:27:03Z</time>
      </trkpt>
      <trkpt lat="45.35561" lon="6.72459">
        <ele>2534.17</ele>
        <time>2010-08-03T05:27:08Z</time>
      </trkpt>
      <trkpt lat="45.35563" lon="6.7246">
        <ele>2532.73</ele>
        <time>2010-08-03T05:27:10Z</time>
      </trkpt>
      <trkpt lat="45.35565" lon="6.72462">
        <ele>2531.29</ele>
        <time>2010-08-03T05:27:15Z</time>
      </trkpt>
      <trkpt lat="45.3556" lon="6.72467">
        <ele>2528.89</ele>
        <time>2010-08-03T05:27:25Z</time>
      </trkpt>
      <trkpt lat="45.35558" lon="6.72479">
        <ele>2526.48</ele>
        <time>2010-08-03T05:27:37Z</time>
      </trkpt>
      <trkpt lat="45.35565" lon="6.72485">
        <ele>2522.64</ele>
        <time>2010-08-03T05:27:48Z</time>
      </trkpt>
      <trkpt lat="45.35568" lon="6.7249">
        <ele>2522.16</ele>
        <time>2010-08-03T05:27:53Z</time>
      </trkpt>
      <trkpt lat="45.35576" lon="6.72493">
        <ele>2518.79</ele>
        <time>2010-08-03T05:28:03Z</time>
      </trkpt>
      <trkpt lat="45.35577" lon="6.72493">
        <ele>2519.27</ele>
        <time>2010-08-03T05:28:05Z</time>
      </trkpt>
      <trkpt lat="45.35579" lon="6.72497">
        <ele>2517.35</ele>
        <time>2010-08-03T05:28:08Z</time>
      </trkpt>
      <trkpt lat="45.3558" lon="6.72499">
        <ele>2517.83</ele>
        <time>2010-08-03T05:28:09Z</time>
      </trkpt>
      <trkpt lat="45.35594" lon="6.72507">
        <ele>2514.47</ele>
        <time>2010-08-03T05:28:23Z</time>
      </trkpt>
      <trkpt lat="45.35601" lon="6.72511">
        <ele>2513.98</ele>
        <time>2010-08-03T05:28:30Z</time>
      </trkpt>
      <trkpt lat="45.35611" lon="6.72518">
        <ele>2513.5</ele>
        <time>2010-08-03T05:28:40Z</time>
      </trkpt>
      <trkpt lat="45.35618" lon="6.72522">
        <ele>2511.1</ele>
        <time>2010-08-03T05:28:50Z</time>
      </trkpt>
      <trkpt lat="45.3562" lon="6.72525">
        <ele>2510.14</ele>
        <time>2010-08-03T05:28:53Z</time>
      </trkpt>
      <trkpt lat="45.35623" lon="6.72529">
        <ele>2510.14</ele>
        <time>2010-08-03T05:28:58Z</time>
      </trkpt>
      <trkpt lat="45.35636" lon="6.72531">
        <ele>2507.74</ele>
        <time>2010-08-03T05:29:09Z</time>
      </trkpt>
      <trkpt lat="45.35641" lon="6.72533">
        <ele>2506.29</ele>
        <time>2010-08-03T05:29:15Z</time>
      </trkpt>
      <trkpt lat="45.35644" lon="6.72539">
        <ele>2506.29</ele>
        <time>2010-08-03T05:29:20Z</time>
      </trkpt>
      <trkpt lat="45.35648" lon="6.72539">
        <ele>2507.74</ele>
        <time>2010-08-03T05:29:24Z</time>
      </trkpt>
      <trkpt lat="45.3565" lon="6.72543">
        <ele>2505.33</ele>
        <time>2010-08-03T05:29:27Z</time>
      </trkpt>
      <trkpt lat="45.35651" lon="6.72547">
        <ele>2505.81</ele>
        <time>2010-08-03T05:29:31Z</time>
      </trkpt>
      <trkpt lat="45.35653" lon="6.72546">
        <ele>2502.93</ele>
        <time>2010-08-03T05:29:34Z</time>
      </trkpt>
      <trkpt lat="45.35655" lon="6.72552">
        <ele>2503.41</ele>
        <time>2010-08-03T05:29:39Z</time>
      </trkpt>
      <trkpt lat="45.35657" lon="6.72558">
        <ele>2500.53</ele>
        <time>2010-08-03T05:29:44Z</time>
      </trkpt>
      <trkpt lat="45.35658" lon="6.7256">
        <ele>2499.57</ele>
        <time>2010-08-03T05:29:47Z</time>
      </trkpt>
      <trkpt lat="45.35663" lon="6.72567">
        <ele>2496.68</ele>
        <time>2010-08-03T05:29:56Z</time>
      </trkpt>
      <trkpt lat="45.35665" lon="6.72571">
        <ele>2495.24</ele>
        <time>2010-08-03T05:30:00Z</time>
      </trkpt>
      <trkpt lat="45.35666" lon="6.72573">
        <ele>2494.76</ele>
        <time>2010-08-03T05:30:02Z</time>
      </trkpt>
      <trkpt lat="45.3567" lon="6.72578">
        <ele>2492.84</ele>
        <time>2010-08-03T05:30:08Z</time>
      </trkpt>
      <trkpt lat="45.35673" lon="6.72581">
        <ele>2491.87</ele>
        <time>2010-08-03T05:30:12Z</time>
      </trkpt>
      <trkpt lat="45.35674" lon="6.72584">
        <ele>2492.36</ele>
        <time>2010-08-03T05:30:14Z</time>
      </trkpt>
      <trkpt lat="45.35675" lon="6.72587">
        <ele>2490.91</ele>
        <time>2010-08-03T05:30:17Z</time>
      </trkpt>
      <trkpt lat="45.35676" lon="6.72588">
        <ele>2490.43</ele>
        <time>2010-08-03T05:30:18Z</time>
      </trkpt>
      <trkpt lat="45.35683" lon="6.72596">
        <ele>2487.55</ele>
        <time>2010-08-03T05:30:27Z</time>
      </trkpt>
      <trkpt lat="45.35689" lon="6.72604">
        <ele>2485.15</ele>
        <time>2010-08-03T05:30:35Z</time>
      </trkpt>
      <trkpt lat="45.35689" lon="6.72609">
        <ele>2483.7</ele>
        <time>2010-08-03T05:30:38Z</time>
      </trkpt>
      <trkpt lat="45.35691" lon="6.7261">
        <ele>2484.66</ele>
        <time>2010-08-03T05:30:40Z</time>
      </trkpt>
      <trkpt lat="45.35696" lon="6.72613">
        <ele>2488.03</ele>
        <time>2010-08-03T05:30:44Z</time>
      </trkpt>
      <trkpt lat="45.35699" lon="6.72615">
        <ele>2483.22</ele>
        <time>2010-08-03T05:30:47Z</time>
      </trkpt>
      <trkpt lat="45.35703" lon="6.72619">
        <ele>2483.22</ele>
        <time>2010-08-03T05:30:51Z</time>
      </trkpt>
      <trkpt lat="45.35713" lon="6.72624">
        <ele>2483.22</ele>
        <time>2010-08-03T05:31:00Z</time>
      </trkpt>
      <trkpt lat="45.35718" lon="6.72626">
        <ele>2479.38</ele>
        <time>2010-08-03T05:31:04Z</time>
      </trkpt>
      <trkpt lat="45.3572" lon="6.72626">
        <ele>2478.9</ele>
        <time>2010-08-03T05:31:06Z</time>
      </trkpt>
      <trkpt lat="45.35723" lon="6.72627">
        <ele>2480.82</ele>
        <time>2010-08-03T05:31:08Z</time>
      </trkpt>
      <trkpt lat="45.35727" lon="6.72629">
        <ele>2482.74</ele>
        <time>2010-08-03T05:31:11Z</time>
      </trkpt>
      <trkpt lat="45.35738" lon="6.72639">
        <ele>2483.7</ele>
        <time>2010-08-03T05:31:23Z</time>
      </trkpt>
      <trkpt lat="45.35749" lon="6.72648">
        <ele>2483.22</ele>
        <time>2010-08-03T05:31:33Z</time>
      </trkpt>
      <trkpt lat="45.35757" lon="6.72653">
        <ele>2488.99</ele>
        <time>2010-08-03T05:31:41Z</time>
      </trkpt>
      <trkpt lat="45.35761" lon="6.72658">
        <ele>2486.11</ele>
        <time>2010-08-03T05:31:45Z</time>
      </trkpt>
      <trkpt lat="45.35764" lon="6.72662">
        <ele>2484.18</ele>
        <time>2010-08-03T05:31:49Z</time>
      </trkpt>
      <trkpt lat="45.3577" lon="6.72669">
        <ele>2485.15</ele>
        <time>2010-08-03T05:31:56Z</time>
      </trkpt>
      <trkpt lat="45.35773" lon="6.72673">
        <ele>2487.55</ele>
        <time>2010-08-03T05:32:01Z</time>
      </trkpt>
      <trkpt lat="45.35775" lon="6.72676">
        <ele>2488.99</ele>
        <time>2010-08-03T05:32:03Z</time>
      </trkpt>
      <trkpt lat="45.3578" lon="6.72685">
        <ele>2488.03</ele>
        <time>2010-08-03T05:32:12Z</time>
      </trkpt>
      <trkpt lat="45.35783" lon="6.72689">
        <ele>2490.91</ele>
        <time>2010-08-03T05:32:16Z</time>
      </trkpt>
      <trkpt lat="45.35785" lon="6.7269">
        <ele>2494.28</ele>
        <time>2010-08-03T05:32:18Z</time>
      </trkpt>
      <trkpt lat="45.35787" lon="6.72692">
        <ele>2491.87</ele>
        <time>2010-08-03T05:32:20Z</time>
      </trkpt>
      <trkpt lat="45.3579" lon="6.72697">
        <ele>2489.95</ele>
        <time>2010-08-03T05:32:25Z</time>
      </trkpt>
      <trkpt lat="45.35792" lon="6.72698">
        <ele>2488.99</ele>
        <time>2010-08-03T05:32:27Z</time>
      </trkpt>
      <trkpt lat="45.35794" lon="6.727">
        <ele>2492.36</ele>
        <time>2010-08-03T05:32:30Z</time>
      </trkpt>
      <trkpt lat="45.35795" lon="6.72701">
        <ele>2490.91</ele>
        <time>2010-08-03T05:32:31Z</time>
      </trkpt>
      <trkpt lat="45.35796" lon="6.72702">
        <ele>2495.24</ele>
        <time>2010-08-03T05:32:33Z</time>
      </trkpt>
      <trkpt lat="45.35797" lon="6.72707">
        <ele>2491.87</ele>
        <time>2010-08-03T05:32:37Z</time>
      </trkpt>
      <trkpt lat="45.35798" lon="6.72708">
        <ele>2495.24</ele>
        <time>2010-08-03T05:32:38Z</time>
      </trkpt>
      <trkpt lat="45.358" lon="6.7271">
        <ele>2493.32</ele>
        <time>2010-08-03T05:32:41Z</time>
      </trkpt>
      <trkpt lat="45.358" lon="6.72711">
        <ele>2493.8</ele>
        <time>2010-08-03T05:32:42Z</time>
      </trkpt>
      <trkpt lat="45.35801" lon="6.72712">
        <ele>2494.28</ele>
        <time>2010-08-03T05:32:57Z</time>
      </trkpt>
      <trkpt lat="45.35803" lon="6.7271">
        <ele>2488.51</ele>
        <time>2010-08-03T05:35:13Z</time>
      </trkpt>
      <trkpt lat="45.35803" lon="6.7271">
        <ele>2491.39</ele>
        <time>2010-08-03T05:35:14Z</time>
      </trkpt>
      <trkpt lat="45.35803" lon="6.7271">
        <ele>2494.28</ele>
        <time>2010-08-03T05:35:17Z</time>
      </trkpt>
      <trkpt lat="45.35803" lon="6.7271">
        <ele>2493.8</ele>
        <time>2010-08-03T05:35:34Z</time>
      </trkpt>
      <trkpt lat="45.35803" lon="6.72711">
        <ele>2493.8</ele>
        <time>2010-08-03T05:37:09Z</time>
      </trkpt>
      <trkpt lat="45.35802" lon="6.72722">
        <ele>2493.8</ele>
        <time>2010-08-03T05:37:44Z</time>
      </trkpt>
      <trkpt lat="45.35802" lon="6.72724">
        <ele>2494.76</ele>
        <time>2010-08-03T05:37:48Z</time>
      </trkpt>
      <trkpt lat="45.35805" lon="6.72731">
        <ele>2495.72</ele>
        <time>2010-08-03T05:37:55Z</time>
      </trkpt>
      <trkpt lat="45.35811" lon="6.72737">
        <ele>2498.12</ele>
        <time>2010-08-03T05:38:08Z</time>
      </trkpt>
      <trkpt lat="45.35816" lon="6.72736">
        <ele>2499.08</ele>
        <time>2010-08-03T05:38:15Z</time>
      </trkpt>
      <trkpt lat="45.3582" lon="6.72741">
        <ele>2500.05</ele>
        <time>2010-08-03T05:38:26Z</time>
      </trkpt>
      <trkpt lat="45.3582" lon="6.72744">
        <ele>2500.53</ele>
        <time>2010-08-03T05:39:40Z</time>
      </trkpt>
      <trkpt lat="45.35822" lon="6.72745">
        <ele>2500.05</ele>
        <time>2010-08-03T05:40:15Z</time>
      </trkpt>
      <trkpt lat="45.35822" lon="6.72746">
        <ele>2500.05</ele>
        <time>2010-08-03T05:40:46Z</time>
      </trkpt>
      <trkpt lat="45.35823" lon="6.72746">
        <ele>2500.05</ele>
        <time>2010-08-03T05:43:18Z</time>
      </trkpt>
      <trkpt lat="45.35824" lon="6.72751">
        <ele>2500.53</ele>
        <time>2010-08-03T05:43:38Z</time>
      </trkpt>
      <trkpt lat="45.35825" lon="6.72758">
        <ele>2501.97</ele>
        <time>2010-08-03T05:44:00Z</time>
      </trkpt>
      <trkpt lat="45.35833" lon="6.72757">
        <ele>2504.37</ele>
        <time>2010-08-03T05:44:10Z</time>
      </trkpt>
      <trkpt lat="45.35843" lon="6.72753">
        <ele>2505.81</ele>
        <time>2010-08-03T05:44:23Z</time>
      </trkpt>
      <trkpt lat="45.3585" lon="6.72751">
        <ele>2507.74</ele>
        <time>2010-08-03T05:44:36Z</time>
      </trkpt>
      <trkpt lat="45.35853" lon="6.72751">
        <ele>2509.18</ele>
        <time>2010-08-03T05:44:59Z</time>
      </trkpt>
      <trkpt lat="45.35853" lon="6.72751">
        <ele>2504.37</ele>
        <time>2010-08-03T05:45:01Z</time>
      </trkpt>
      <trkpt lat="45.35853" lon="6.72751">
        <ele>2507.74</ele>
        <time>2010-08-03T05:45:02Z</time>
      </trkpt>
      <trkpt lat="45.35853" lon="6.72751">
        <ele>2511.1</ele>
        <time>2010-08-03T05:45:03Z</time>
      </trkpt>
      <trkpt lat="45.35854" lon="6.72752">
        <ele>2510.14</ele>
        <time>2010-08-03T05:45:04Z</time>
      </trkpt>
      <trkpt lat="45.35858" lon="6.72754">
        <ele>2511.1</ele>
        <time>2010-08-03T05:45:38Z</time>
      </trkpt>
      <trkpt lat="45.35867" lon="6.72751">
        <ele>2513.5</ele>
        <time>2010-08-03T05:45:51Z</time>
      </trkpt>
      <trkpt lat="45.35869" lon="6.72747">
        <ele>2513.98</ele>
        <time>2010-08-03T05:45:55Z</time>
      </trkpt>
      <trkpt lat="45.35871" lon="6.72745">
        <ele>2513.98</ele>
        <time>2010-08-03T05:45:57Z</time>
      </trkpt>
      <trkpt lat="45.35875" lon="6.72734">
        <ele>2513.98</ele>
        <time>2010-08-03T05:46:08Z</time>
      </trkpt>
      <trkpt lat="45.35877" lon="6.72727">
        <ele>2513.02</ele>
        <time>2010-08-03T05:46:14Z</time>
      </trkpt>
      <trkpt lat="45.35883" lon="6.7272">
        <ele>2511.1</ele>
        <time>2010-08-03T05:46:22Z</time>
      </trkpt>
      <trkpt lat="45.35888" lon="6.72716">
        <ele>2510.14</ele>
        <time>2010-08-03T05:46:31Z</time>
      </trkpt>
      <trkpt lat="45.35892" lon="6.72716">
        <ele>2510.14</ele>
        <time>2010-08-03T05:46:35Z</time>
      </trkpt>
      <trkpt lat="45.35901" lon="6.72717">
        <ele>2508.7</ele>
        <time>2010-08-03T05:46:45Z</time>
      </trkpt>
      <trkpt lat="45.35904" lon="6.72717">
        <ele>2508.22</ele>
        <time>2010-08-03T05:46:47Z</time>
      </trkpt>
      <trkpt lat="45.35917" lon="6.72722">
        <ele>2507.74</ele>
        <time>2010-08-03T05:46:59Z</time>
      </trkpt>
      <trkpt lat="45.35918" lon="6.72723">
        <ele>2508.22</ele>
        <time>2010-08-03T05:47:00Z</time>
      </trkpt>
      <trkpt lat="45.35926" lon="6.72726">
        <ele>2507.74</ele>
        <time>2010-08-03T05:47:10Z</time>
      </trkpt>
      <trkpt lat="45.35929" lon="6.72727">
        <ele>2508.22</ele>
        <time>2010-08-03T05:47:13Z</time>
      </trkpt>
      <trkpt lat="45.35934" lon="6.72735">
        <ele>2507.74</ele>
        <time>2010-08-03T05:47:21Z</time>
      </trkpt>
      <trkpt lat="45.35938" lon="6.7274">
        <ele>2508.22</ele>
        <time>2010-08-03T05:47:26Z</time>
      </trkpt>
      <trkpt lat="45.35943" lon="6.72744">
        <ele>2508.22</ele>
        <time>2010-08-03T05:47:32Z</time>
      </trkpt>
      <trkpt lat="45.35957" lon="6.72754">
        <ele>2507.74</ele>
        <time>2010-08-03T05:47:47Z</time>
      </trkpt>
      <trkpt lat="45.35971" lon="6.7276">
        <ele>2507.74</ele>
        <time>2010-08-03T05:48:00Z</time>
      </trkpt>
      <trkpt lat="45.35986" lon="6.72767">
        <ele>2505.33</ele>
        <time>2010-08-03T05:48:14Z</time>
      </trkpt>
      <trkpt lat="45.35999" lon="6.72771">
        <ele>2504.85</ele>
        <time>2010-08-03T05:48:25Z</time>
      </trkpt>
      <trkpt lat="45.36016" lon="6.72772">
        <ele>2502.93</ele>
        <time>2010-08-03T05:48:39Z</time>
      </trkpt>
      <trkpt lat="45.36023" lon="6.72775">
        <ele>2502.45</ele>
        <time>2010-08-03T05:48:45Z</time>
      </trkpt>
      <trkpt lat="45.36025" lon="6.72777">
        <ele>2501.97</ele>
        <time>2010-08-03T05:48:47Z</time>
      </trkpt>
      <trkpt lat="45.36033" lon="6.72779">
        <ele>2501.01</ele>
        <time>2010-08-03T05:48:53Z</time>
      </trkpt>
      <trkpt lat="45.36036" lon="6.72782">
        <ele>2499.57</ele>
        <time>2010-08-03T05:48:57Z</time>
      </trkpt>
      <trkpt lat="45.3604" lon="6.72786">
        <ele>2497.64</ele>
        <time>2010-08-03T05:49:02Z</time>
      </trkpt>
      <trkpt lat="45.36045" lon="6.72789">
        <ele>2495.72</ele>
        <time>2010-08-03T05:49:07Z</time>
      </trkpt>
      <trkpt lat="45.3606" lon="6.72801">
        <ele>2493.8</ele>
        <time>2010-08-03T05:49:23Z</time>
      </trkpt>
      <trkpt lat="45.36068" lon="6.72807">
        <ele>2492.84</ele>
        <time>2010-08-03T05:49:31Z</time>
      </trkpt>
      <trkpt lat="45.36077" lon="6.72812">
        <ele>2492.36</ele>
        <time>2010-08-03T05:49:38Z</time>
      </trkpt>
      <trkpt lat="45.36088" lon="6.72824">
        <ele>2494.28</ele>
        <time>2010-08-03T05:49:51Z</time>
      </trkpt>
      <trkpt lat="45.36096" lon="6.72836">
        <ele>2495.24</ele>
        <time>2010-08-03T05:50:03Z</time>
      </trkpt>
      <trkpt lat="45.36104" lon="6.72853">
        <ele>2494.28</ele>
        <time>2010-08-03T05:50:17Z</time>
      </trkpt>
      <trkpt lat="45.36105" lon="6.72855">
        <ele>2495.24</ele>
        <time>2010-08-03T05:50:19Z</time>
      </trkpt>
      <trkpt lat="45.36112" lon="6.72872">
        <ele>2494.76</ele>
        <time>2010-08-03T05:50:31Z</time>
      </trkpt>
      <trkpt lat="45.36113" lon="6.72873">
        <ele>2495.72</ele>
        <time>2010-08-03T05:50:32Z</time>
      </trkpt>
      <trkpt lat="45.36117" lon="6.72889">
        <ele>2493.8</ele>
        <time>2010-08-03T05:50:45Z</time>
      </trkpt>
      <trkpt lat="45.36118" lon="6.72892">
        <ele>2493.32</ele>
        <time>2010-08-03T05:50:49Z</time>
      </trkpt>
      <trkpt lat="45.36126" lon="6.72903">
        <ele>2490.91</ele>
        <time>2010-08-03T05:51:03Z</time>
      </trkpt>
      <trkpt lat="45.36131" lon="6.72916">
        <ele>2484.18</ele>
        <time>2010-08-03T05:51:14Z</time>
      </trkpt>
      <trkpt lat="45.36132" lon="6.72917">
        <ele>2488.99</ele>
        <time>2010-08-03T05:51:15Z</time>
      </trkpt>
      <trkpt lat="45.36132" lon="6.72919">
        <ele>2489.95</ele>
        <time>2010-08-03T05:51:17Z</time>
      </trkpt>
      <trkpt lat="45.36135" lon="6.72925">
        <ele>2487.55</ele>
        <time>2010-08-03T05:51:26Z</time>
      </trkpt>
      <trkpt lat="45.36135" lon="6.72925">
        <ele>2487.55</ele>
        <time>2010-08-03T05:51:27Z</time>
      </trkpt>
      <trkpt lat="45.36137" lon="6.72936">
        <ele>2485.15</ele>
        <time>2010-08-03T05:51:38Z</time>
      </trkpt>
      <trkpt lat="45.3614" lon="6.72943">
        <ele>2482.74</ele>
        <time>2010-08-03T05:51:47Z</time>
      </trkpt>
      <trkpt lat="45.36142" lon="6.72951">
        <ele>2480.34</ele>
        <time>2010-08-03T05:51:56Z</time>
      </trkpt>
      <trkpt lat="45.36145" lon="6.7296">
        <ele>2477.45</ele>
        <time>2010-08-03T05:52:07Z</time>
      </trkpt>
      <trkpt lat="45.3615" lon="6.72966">
        <ele>2475.05</ele>
        <time>2010-08-03T05:52:13Z</time>
      </trkpt>
      <trkpt lat="45.36152" lon="6.72971">
        <ele>2473.61</ele>
        <time>2010-08-03T05:52:18Z</time>
      </trkpt>
      <trkpt lat="45.36159" lon="6.72981">
        <ele>2470.24</ele>
        <time>2010-08-03T05:52:28Z</time>
      </trkpt>
      <trkpt lat="45.3616" lon="6.72986">
        <ele>2469.28</ele>
        <time>2010-08-03T05:52:32Z</time>
      </trkpt>
      <trkpt lat="45.36167" lon="6.72996">
        <ele>2468.32</ele>
        <time>2010-08-03T05:52:41Z</time>
      </trkpt>
      <trkpt lat="45.36176" lon="6.73002">
        <ele>2465.44</ele>
        <time>2010-08-03T05:52:51Z</time>
      </trkpt>
      <trkpt lat="45.36183" lon="6.7301">
        <ele>2462.07</ele>
        <time>2010-08-03T05:53:02Z</time>
      </trkpt>
      <trkpt lat="45.36186" lon="6.73015">
        <ele>2460.15</ele>
        <time>2010-08-03T05:53:09Z</time>
      </trkpt>
      <trkpt lat="45.3619" lon="6.73023">
        <ele>2457.75</ele>
        <time>2010-08-03T05:53:20Z</time>
      </trkpt>
      <trkpt lat="45.36194" lon="6.73029">
        <ele>2455.34</ele>
        <time>2010-08-03T05:53:38Z</time>
      </trkpt>
      <trkpt lat="45.36199" lon="6.73033">
        <ele>2454.38</ele>
        <time>2010-08-03T05:53:56Z</time>
      </trkpt>
      <trkpt lat="45.36199" lon="6.73033">
        <ele>2454.86</ele>
        <time>2010-08-03T05:53:58Z</time>
      </trkpt>
      <trkpt lat="45.36201" lon="6.73041">
        <ele>2452.46</ele>
        <time>2010-08-03T05:54:07Z</time>
      </trkpt>
      <trkpt lat="45.36203" lon="6.73046">
        <ele>2451.02</ele>
        <time>2010-08-03T05:54:14Z</time>
      </trkpt>
      <trkpt lat="45.36207" lon="6.73057">
        <ele>2447.65</ele>
        <time>2010-08-03T05:54:25Z</time>
      </trkpt>
      <trkpt lat="45.36208" lon="6.73058">
        <ele>2447.65</ele>
        <time>2010-08-03T05:54:26Z</time>
      </trkpt>
      <trkpt lat="45.36209" lon="6.73061">
        <ele>2447.17</ele>
        <time>2010-08-03T05:54:28Z</time>
      </trkpt>
      <trkpt lat="45.36208" lon="6.73064">
        <ele>2446.69</ele>
        <time>2010-08-03T05:54:30Z</time>
      </trkpt>
      <trkpt lat="45.36208" lon="6.73067">
        <ele>2445.25</ele>
        <time>2010-08-03T05:54:33Z</time>
      </trkpt>
      <trkpt lat="45.3621" lon="6.73078">
        <ele>2443.33</ele>
        <time>2010-08-03T05:54:42Z</time>
      </trkpt>
      <trkpt lat="45.36213" lon="6.73092">
        <ele>2439.48</ele>
        <time>2010-08-03T05:54:55Z</time>
      </trkpt>
      <trkpt lat="45.36215" lon="6.73101">
        <ele>2436.6</ele>
        <time>2010-08-03T05:55:08Z</time>
      </trkpt>
      <trkpt lat="45.36211" lon="6.73109">
        <ele>2433.23</ele>
        <time>2010-08-03T05:55:25Z</time>
      </trkpt>
      <trkpt lat="45.36207" lon="6.7312">
        <ele>2431.79</ele>
        <time>2010-08-03T05:55:47Z</time>
      </trkpt>
      <trkpt lat="45.36208" lon="6.7313">
        <ele>2428.43</ele>
        <time>2010-08-03T05:56:01Z</time>
      </trkpt>
      <trkpt lat="45.36204" lon="6.73141">
        <ele>2426.02</ele>
        <time>2010-08-03T05:56:15Z</time>
      </trkpt>
      <trkpt lat="45.36203" lon="6.73148">
        <ele>2426.02</ele>
        <time>2010-08-03T05:56:23Z</time>
      </trkpt>
      <trkpt lat="45.36202" lon="6.73153">
        <ele>2425.06</ele>
        <time>2010-08-03T05:56:42Z</time>
      </trkpt>
      <trkpt lat="45.36207" lon="6.73158">
        <ele>2424.58</ele>
        <time>2010-08-03T05:56:48Z</time>
      </trkpt>
      <trkpt lat="45.36214" lon="6.73173">
        <ele>2421.7</ele>
        <time>2010-08-03T05:57:01Z</time>
      </trkpt>
      <trkpt lat="45.36217" lon="6.73185">
        <ele>2420.74</ele>
        <time>2010-08-03T05:57:10Z</time>
      </trkpt>
      <trkpt lat="45.36217" lon="6.73188">
        <ele>2420.26</ele>
        <time>2010-08-03T05:57:12Z</time>
      </trkpt>
      <trkpt lat="45.36221" lon="6.73202">
        <ele>2418.81</ele>
        <time>2010-08-03T05:57:22Z</time>
      </trkpt>
      <trkpt lat="45.36222" lon="6.73207">
        <ele>2418.81</ele>
        <time>2010-08-03T05:57:25Z</time>
      </trkpt>
      <trkpt lat="45.36223" lon="6.7321">
        <ele>2418.33</ele>
        <time>2010-08-03T05:57:27Z</time>
      </trkpt>
      <trkpt lat="45.36228" lon="6.73226">
        <ele>2417.37</ele>
        <time>2010-08-03T05:57:37Z</time>
      </trkpt>
      <trkpt lat="45.36231" lon="6.73235">
        <ele>2416.41</ele>
        <time>2010-08-03T05:57:42Z</time>
      </trkpt>
      <trkpt lat="45.36236" lon="6.73245">
        <ele>2417.37</ele>
        <time>2010-08-03T05:57:48Z</time>
      </trkpt>
      <trkpt lat="45.36241" lon="6.73257">
        <ele>2417.37</ele>
        <time>2010-08-03T05:57:57Z</time>
      </trkpt>
      <trkpt lat="45.36242" lon="6.73259">
        <ele>2416.41</ele>
        <time>2010-08-03T05:57:59Z</time>
      </trkpt>
      <trkpt lat="45.36244" lon="6.73268">
        <ele>2415.93</ele>
        <time>2010-08-03T05:58:11Z</time>
      </trkpt>
      <trkpt lat="45.36248" lon="6.73276">
        <ele>2414.49</ele>
        <time>2010-08-03T05:58:17Z</time>
      </trkpt>
      <trkpt lat="45.3625" lon="6.73281">
        <ele>2413.53</ele>
        <time>2010-08-03T05:58:21Z</time>
      </trkpt>
      <trkpt lat="45.36253" lon="6.73296">
        <ele>2411.12</ele>
        <time>2010-08-03T05:58:32Z</time>
      </trkpt>
      <trkpt lat="45.36256" lon="6.73302">
        <ele>2410.64</ele>
        <time>2010-08-03T05:58:36Z</time>
      </trkpt>
      <trkpt lat="45.36257" lon="6.73306">
        <ele>2410.64</ele>
        <time>2010-08-03T05:58:39Z</time>
      </trkpt>
      <trkpt lat="45.36259" lon="6.7331">
        <ele>2410.64</ele>
        <time>2010-08-03T05:58:42Z</time>
      </trkpt>
      <trkpt lat="45.3626" lon="6.73315">
        <ele>2410.16</ele>
        <time>2010-08-03T05:58:45Z</time>
      </trkpt>
      <trkpt lat="45.36262" lon="6.73323">
        <ele>2410.16</ele>
        <time>2010-08-03T05:58:50Z</time>
      </trkpt>
      <trkpt lat="45.36265" lon="6.73335">
        <ele>2408.72</ele>
        <time>2010-08-03T05:59:02Z</time>
      </trkpt>
      <trkpt lat="45.36265" lon="6.73335">
        <ele>2408.72</ele>
        <time>2010-08-03T06:00:19Z</time>
      </trkpt>
      <trkpt lat="45.36266" lon="6.73335">
        <ele>2407.76</ele>
        <time>2010-08-03T06:01:05Z</time>
      </trkpt>
      <trkpt lat="45.36271" lon="6.73325">
        <ele>2405.84</ele>
        <time>2010-08-03T06:01:17Z</time>
      </trkpt>
      <trkpt lat="45.36276" lon="6.73314">
        <ele>2402.47</ele>
        <time>2010-08-03T06:01:28Z</time>
      </trkpt>
      <trkpt lat="45.36275" lon="6.73308">
        <ele>2401.99</ele>
        <time>2010-08-03T06:01:32Z</time>
      </trkpt>
      <trkpt lat="45.36279" lon="6.73293">
        <ele>2400.07</ele>
        <time>2010-08-03T06:01:45Z</time>
      </trkpt>
      <trkpt lat="45.36283" lon="6.73287">
        <ele>2396.22</ele>
        <time>2010-08-03T06:01:57Z</time>
      </trkpt>
      <trkpt lat="45.36286" lon="6.73277">
        <ele>2393.34</ele>
        <time>2010-08-03T06:02:07Z</time>
      </trkpt>
      <trkpt lat="45.36288" lon="6.73274">
        <ele>2393.34</ele>
        <time>2010-08-03T06:02:11Z</time>
      </trkpt>
      <trkpt lat="45.36298" lon="6.7326">
        <ele>2389.97</ele>
        <time>2010-08-03T06:02:26Z</time>
      </trkpt>
      <trkpt lat="45.36303" lon="6.73261">
        <ele>2388.05</ele>
        <time>2010-08-03T06:02:35Z</time>
      </trkpt>
      <trkpt lat="45.36306" lon="6.73272">
        <ele>2385.17</ele>
        <time>2010-08-03T06:02:47Z</time>
      </trkpt>
      <trkpt lat="45.3631" lon="6.73281">
        <ele>2382.28</ele>
        <time>2010-08-03T06:02:57Z</time>
      </trkpt>
      <trkpt lat="45.36318" lon="6.733">
        <ele>2381.32</ele>
        <time>2010-08-03T06:03:10Z</time>
      </trkpt>
      <trkpt lat="45.36319" lon="6.73308">
        <ele>2379.88</ele>
        <time>2010-08-03T06:03:16Z</time>
      </trkpt>
      <trkpt lat="45.36324" lon="6.73319">
        <ele>2379.88</ele>
        <time>2010-08-03T06:03:23Z</time>
      </trkpt>
      <trkpt lat="45.36327" lon="6.73326">
        <ele>2378.92</ele>
        <time>2010-08-03T06:03:28Z</time>
      </trkpt>
      <trkpt lat="45.36329" lon="6.73329">
        <ele>2377.96</ele>
        <time>2010-08-03T06:03:31Z</time>
      </trkpt>
      <trkpt lat="45.36334" lon="6.7333">
        <ele>2375.07</ele>
        <time>2010-08-03T06:03:36Z</time>
      </trkpt>
      <trkpt lat="45.3634" lon="6.73334">
        <ele>2377</ele>
        <time>2010-08-03T06:03:41Z</time>
      </trkpt>
      <trkpt lat="45.36341" lon="6.73338">
        <ele>2376.04</ele>
        <time>2010-08-03T06:03:44Z</time>
      </trkpt>
      <trkpt lat="45.36351" lon="6.73345">
        <ele>2375.07</ele>
        <time>2010-08-03T06:03:55Z</time>
      </trkpt>
      <trkpt lat="45.36355" lon="6.73347">
        <ele>2373.15</ele>
        <time>2010-08-03T06:04:01Z</time>
      </trkpt>
      <trkpt lat="45.36361" lon="6.73346">
        <ele>2371.23</ele>
        <time>2010-08-03T06:04:12Z</time>
      </trkpt>
      <trkpt lat="45.36366" lon="6.73347">
        <ele>2368.83</ele>
        <time>2010-08-03T06:04:23Z</time>
      </trkpt>
      <trkpt lat="45.3637" lon="6.73344">
        <ele>2367.86</ele>
        <time>2010-08-03T06:04:27Z</time>
      </trkpt>
      <trkpt lat="45.36378" lon="6.7334">
        <ele>2366.42</ele>
        <time>2010-08-03T06:04:36Z</time>
      </trkpt>
      <trkpt lat="45.36383" lon="6.73341">
        <ele>2362.1</ele>
        <time>2010-08-03T06:04:40Z</time>
      </trkpt>
      <trkpt lat="45.36383" lon="6.7334">
        <ele>2363.06</ele>
        <time>2010-08-03T06:04:41Z</time>
      </trkpt>
      <trkpt lat="45.36383" lon="6.7334">
        <ele>2366.42</ele>
        <time>2010-08-03T06:04:42Z</time>
      </trkpt>
      <trkpt lat="45.36386" lon="6.73336">
        <ele>2364.02</ele>
        <time>2010-08-03T06:04:47Z</time>
      </trkpt>
      <trkpt lat="45.36394" lon="6.73326">
        <ele>2362.58</ele>
        <time>2010-08-03T06:04:56Z</time>
      </trkpt>
      <trkpt lat="45.36399" lon="6.73323">
        <ele>2361.14</ele>
        <time>2010-08-03T06:05:04Z</time>
      </trkpt>
      <trkpt lat="45.36401" lon="6.73322">
        <ele>2361.14</ele>
        <time>2010-08-03T06:05:07Z</time>
      </trkpt>
      <trkpt lat="45.36408" lon="6.73313">
        <ele>2358.73</ele>
        <time>2010-08-03T06:05:21Z</time>
      </trkpt>
      <trkpt lat="45.36406" lon="6.73303">
        <ele>2355.37</ele>
        <time>2010-08-03T06:05:33Z</time>
      </trkpt>
      <trkpt lat="45.3641" lon="6.73299">
        <ele>2353.93</ele>
        <time>2010-08-03T06:05:43Z</time>
      </trkpt>
      <trkpt lat="45.36417" lon="6.73289">
        <ele>2351.04</ele>
        <time>2010-08-03T06:05:53Z</time>
      </trkpt>
      <trkpt lat="45.36423" lon="6.73287">
        <ele>2350.56</ele>
        <time>2010-08-03T06:06:02Z</time>
      </trkpt>
      <trkpt lat="45.36424" lon="6.7328">
        <ele>2349.6</ele>
        <time>2010-08-03T06:06:09Z</time>
      </trkpt>
      <trkpt lat="45.36423" lon="6.73278">
        <ele>2348.64</ele>
        <time>2010-08-03T06:06:13Z</time>
      </trkpt>
      <trkpt lat="45.3642" lon="6.7327">
        <ele>2346.72</ele>
        <time>2010-08-03T06:06:20Z</time>
      </trkpt>
      <trkpt lat="45.3642" lon="6.73269">
        <ele>2346.72</ele>
        <time>2010-08-03T06:06:21Z</time>
      </trkpt>
      <trkpt lat="45.36423" lon="6.73267">
        <ele>2346.23</ele>
        <time>2010-08-03T06:06:24Z</time>
      </trkpt>
      <trkpt lat="45.36423" lon="6.73262">
        <ele>2345.27</ele>
        <time>2010-08-03T06:06:27Z</time>
      </trkpt>
      <trkpt lat="45.36426" lon="6.73257">
        <ele>2344.79</ele>
        <time>2010-08-03T06:06:31Z</time>
      </trkpt>
      <trkpt lat="45.36433" lon="6.73251">
        <ele>2343.83</ele>
        <time>2010-08-03T06:06:37Z</time>
      </trkpt>
      <trkpt lat="45.36444" lon="6.73245">
        <ele>2342.87</ele>
        <time>2010-08-03T06:06:49Z</time>
      </trkpt>
      <trkpt lat="45.36451" lon="6.73246">
        <ele>2341.91</ele>
        <time>2010-08-03T06:07:02Z</time>
      </trkpt>
      <trkpt lat="45.36459" lon="6.73247">
        <ele>2339.99</ele>
        <time>2010-08-03T06:07:17Z</time>
      </trkpt>
      <trkpt lat="45.36465" lon="6.73249">
        <ele>2339.02</ele>
        <time>2010-08-03T06:07:24Z</time>
      </trkpt>
      <trkpt lat="45.36482" lon="6.7325">
        <ele>2338.06</ele>
        <time>2010-08-03T06:07:37Z</time>
      </trkpt>
      <trkpt lat="45.36491" lon="6.73254">
        <ele>2337.58</ele>
        <time>2010-08-03T06:07:51Z</time>
      </trkpt>
      <trkpt lat="45.365" lon="6.7326">
        <ele>2335.66</ele>
        <time>2010-08-03T06:08:04Z</time>
      </trkpt>
      <trkpt lat="45.36504" lon="6.73255">
        <ele>2335.18</ele>
        <time>2010-08-03T06:08:16Z</time>
      </trkpt>
      <trkpt lat="45.3651" lon="6.73251">
        <ele>2332.78</ele>
        <time>2010-08-03T06:08:28Z</time>
      </trkpt>
      <trkpt lat="45.36519" lon="6.73246">
        <ele>2329.41</ele>
        <time>2010-08-03T06:08:39Z</time>
      </trkpt>
      <trkpt lat="45.36519" lon="6.73245">
        <ele>2329.41</ele>
        <time>2010-08-03T06:08:40Z</time>
      </trkpt>
      <trkpt lat="45.36519" lon="6.73242">
        <ele>2328.45</ele>
        <time>2010-08-03T06:08:42Z</time>
      </trkpt>
      <trkpt lat="45.3652" lon="6.73228">
        <ele>2327.49</ele>
        <time>2010-08-03T06:08:56Z</time>
      </trkpt>
      <trkpt lat="45.36526" lon="6.73225">
        <ele>2327.49</ele>
        <time>2010-08-03T06:09:04Z</time>
      </trkpt>
      <trkpt lat="45.36531" lon="6.73221">
        <ele>2326.53</ele>
        <time>2010-08-03T06:09:10Z</time>
      </trkpt>
      <trkpt lat="45.36534" lon="6.73214">
        <ele>2325.09</ele>
        <time>2010-08-03T06:09:16Z</time>
      </trkpt>
      <trkpt lat="45.36545" lon="6.73219">
        <ele>2324.12</ele>
        <time>2010-08-03T06:09:29Z</time>
      </trkpt>
      <trkpt lat="45.36552" lon="6.73209">
        <ele>2322.2</ele>
        <time>2010-08-03T06:09:40Z</time>
      </trkpt>
      <trkpt lat="45.3655" lon="6.73203">
        <ele>2321.24</ele>
        <time>2010-08-03T06:09:45Z</time>
      </trkpt>
      <trkpt lat="45.3655" lon="6.73197">
        <ele>2320.76</ele>
        <time>2010-08-03T06:09:53Z</time>
      </trkpt>
      <trkpt lat="45.36554" lon="6.73188">
        <ele>2317.88</ele>
        <time>2010-08-03T06:10:03Z</time>
      </trkpt>
      <trkpt lat="45.36553" lon="6.73181">
        <ele>2316.43</ele>
        <time>2010-08-03T06:10:10Z</time>
      </trkpt>
      <trkpt lat="45.36551" lon="6.73169">
        <ele>2314.03</ele>
        <time>2010-08-03T06:10:16Z</time>
      </trkpt>
      <trkpt lat="45.3655" lon="6.7316">
        <ele>2313.55</ele>
        <time>2010-08-03T06:10:21Z</time>
      </trkpt>
      <trkpt lat="45.36552" lon="6.73148">
        <ele>2311.15</ele>
        <time>2010-08-03T06:10:34Z</time>
      </trkpt>
      <trkpt lat="45.36556" lon="6.73146">
        <ele>2309.22</ele>
        <time>2010-08-03T06:10:43Z</time>
      </trkpt>
      <trkpt lat="45.36559" lon="6.73144">
        <ele>2309.22</ele>
        <time>2010-08-03T06:10:46Z</time>
      </trkpt>
      <trkpt lat="45.36564" lon="6.73135">
        <ele>2306.34</ele>
        <time>2010-08-03T06:10:57Z</time>
      </trkpt>
      <trkpt lat="45.36568" lon="6.73127">
        <ele>2305.86</ele>
        <time>2010-08-03T06:11:03Z</time>
      </trkpt>
      <trkpt lat="45.36571" lon="6.73122">
        <ele>2304.42</ele>
        <time>2010-08-03T06:11:07Z</time>
      </trkpt>
      <trkpt lat="45.36576" lon="6.73112">
        <ele>2305.38</ele>
        <time>2010-08-03T06:11:18Z</time>
      </trkpt>
      <trkpt lat="45.36577" lon="6.73106">
        <ele>2305.38</ele>
        <time>2010-08-03T06:11:23Z</time>
      </trkpt>
      <trkpt lat="45.36578" lon="6.73101">
        <ele>2303.46</ele>
        <time>2010-08-03T06:11:27Z</time>
      </trkpt>
      <trkpt lat="45.36591" lon="6.73092">
        <ele>2301.05</ele>
        <time>2010-08-03T06:11:41Z</time>
      </trkpt>
      <trkpt lat="45.36602" lon="6.73091">
        <ele>2299.61</ele>
        <time>2010-08-03T06:11:53Z</time>
      </trkpt>
      <trkpt lat="45.36614" lon="6.73091">
        <ele>2298.17</ele>
        <time>2010-08-03T06:12:05Z</time>
      </trkpt>
      <trkpt lat="45.36619" lon="6.7309">
        <ele>2295.77</ele>
        <time>2010-08-03T06:12:10Z</time>
      </trkpt>
      <trkpt lat="45.36628" lon="6.73089">
        <ele>2295.77</ele>
        <time>2010-08-03T06:12:18Z</time>
      </trkpt>
      <trkpt lat="45.3664" lon="6.73095">
        <ele>2296.73</ele>
        <time>2010-08-03T06:12:29Z</time>
      </trkpt>
      <trkpt lat="45.36651" lon="6.73114">
        <ele>2295.28</ele>
        <time>2010-08-03T06:12:41Z</time>
      </trkpt>
      <trkpt lat="45.36658" lon="6.73129">
        <ele>2293.36</ele>
        <time>2010-08-03T06:12:51Z</time>
      </trkpt>
      <trkpt lat="45.36659" lon="6.73138">
        <ele>2292.88</ele>
        <time>2010-08-03T06:12:57Z</time>
      </trkpt>
      <trkpt lat="45.36663" lon="6.73154">
        <ele>2294.32</ele>
        <time>2010-08-03T06:13:10Z</time>
      </trkpt>
      <trkpt lat="45.36664" lon="6.73166">
        <ele>2294.32</ele>
        <time>2010-08-03T06:13:20Z</time>
      </trkpt>
      <trkpt lat="45.36665" lon="6.73172">
        <ele>2293.84</ele>
        <time>2010-08-03T06:13:24Z</time>
      </trkpt>
      <trkpt lat="45.36672" lon="6.73182">
        <ele>2294.32</ele>
        <time>2010-08-03T06:13:32Z</time>
      </trkpt>
      <trkpt lat="45.3668" lon="6.73192">
        <ele>2293.84</ele>
        <time>2010-08-03T06:13:41Z</time>
      </trkpt>
      <trkpt lat="45.36683" lon="6.73208">
        <ele>2292.4</ele>
        <time>2010-08-03T06:13:55Z</time>
      </trkpt>
      <trkpt lat="45.36682" lon="6.7322">
        <ele>2289.52</ele>
        <time>2010-08-03T06:14:06Z</time>
      </trkpt>
      <trkpt lat="45.36684" lon="6.73235">
        <ele>2286.15</ele>
        <time>2010-08-03T06:14:17Z</time>
      </trkpt>
      <trkpt lat="45.36686" lon="6.73239">
        <ele>2286.63</ele>
        <time>2010-08-03T06:14:20Z</time>
      </trkpt>
      <trkpt lat="45.36688" lon="6.73245">
        <ele>2286.15</ele>
        <time>2010-08-03T06:14:25Z</time>
      </trkpt>
      <trkpt lat="45.36692" lon="6.73263">
        <ele>2287.11</ele>
        <time>2010-08-03T06:14:39Z</time>
      </trkpt>
      <trkpt lat="45.36692" lon="6.73264">
        <ele>2287.11</ele>
        <time>2010-08-03T06:14:40Z</time>
      </trkpt>
      <trkpt lat="45.36692" lon="6.73267">
        <ele>2287.11</ele>
        <time>2010-08-03T06:14:43Z</time>
      </trkpt>
      <trkpt lat="45.36692" lon="6.73271">
        <ele>2287.59</ele>
        <time>2010-08-03T06:14:46Z</time>
      </trkpt>
      <trkpt lat="45.36691" lon="6.73278">
        <ele>2288.08</ele>
        <time>2010-08-03T06:14:51Z</time>
      </trkpt>
      <trkpt lat="45.36694" lon="6.73285">
        <ele>2289.52</ele>
        <time>2010-08-03T06:15:09Z</time>
      </trkpt>
      <trkpt lat="45.36693" lon="6.73295">
        <ele>2290.96</ele>
        <time>2010-08-03T06:15:31Z</time>
      </trkpt>
      <trkpt lat="45.36688" lon="6.73298">
        <ele>2293.84</ele>
        <time>2010-08-03T06:15:48Z</time>
      </trkpt>
      <trkpt lat="45.36687" lon="6.733">
        <ele>2294.32</ele>
        <time>2010-08-03T06:15:50Z</time>
      </trkpt>
      <trkpt lat="45.36686" lon="6.73309">
        <ele>2297.21</ele>
        <time>2010-08-03T06:16:03Z</time>
      </trkpt>
      <trkpt lat="45.36688" lon="6.73319">
        <ele>2301.05</ele>
        <time>2010-08-03T06:16:23Z</time>
      </trkpt>
      <trkpt lat="45.36685" lon="6.73324">
        <ele>2302.01</ele>
        <time>2010-08-03T06:16:34Z</time>
      </trkpt>
      <trkpt lat="45.36686" lon="6.73328">
        <ele>2302.98</ele>
        <time>2010-08-03T06:16:42Z</time>
      </trkpt>
      <trkpt lat="45.36684" lon="6.73335">
        <ele>2305.86</ele>
        <time>2010-08-03T06:16:58Z</time>
      </trkpt>
      <trkpt lat="45.36684" lon="6.73345">
        <ele>2306.34</ele>
        <time>2010-08-03T06:17:08Z</time>
      </trkpt>
      <trkpt lat="45.36685" lon="6.73358">
        <ele>2307.3</ele>
        <time>2010-08-03T06:17:20Z</time>
      </trkpt>
      <trkpt lat="45.36686" lon="6.73368">
        <ele>2309.22</ele>
        <time>2010-08-03T06:17:32Z</time>
      </trkpt>
      <trkpt lat="45.36683" lon="6.73376">
        <ele>2311.15</ele>
        <time>2010-08-03T06:17:44Z</time>
      </trkpt>
      <trkpt lat="45.3668" lon="6.7338">
        <ele>2312.59</ele>
        <time>2010-08-03T06:17:57Z</time>
      </trkpt>
      <trkpt lat="45.36678" lon="6.73384">
        <ele>2311.63</ele>
        <time>2010-08-03T06:18:09Z</time>
      </trkpt>
      <trkpt lat="45.36674" lon="6.734">
        <ele>2311.15</ele>
        <time>2010-08-03T06:18:21Z</time>
      </trkpt>
      <trkpt lat="45.3667" lon="6.73413">
        <ele>2310.19</ele>
        <time>2010-08-03T06:18:33Z</time>
      </trkpt>
      <trkpt lat="45.36669" lon="6.73414">
        <ele>2311.15</ele>
        <time>2010-08-03T06:18:35Z</time>
      </trkpt>
      <trkpt lat="45.36667" lon="6.73423">
        <ele>2310.67</ele>
        <time>2010-08-03T06:18:47Z</time>
      </trkpt>
      <trkpt lat="45.36669" lon="6.73427">
        <ele>2308.26</ele>
        <time>2010-08-03T06:19:04Z</time>
      </trkpt>
      <trkpt lat="45.36669" lon="6.73429">
        <ele>2307.3</ele>
        <time>2010-08-03T06:19:06Z</time>
      </trkpt>
      <trkpt lat="45.36671" lon="6.73442">
        <ele>2303.94</ele>
        <time>2010-08-03T06:19:17Z</time>
      </trkpt>
      <trkpt lat="45.36673" lon="6.73454">
        <ele>2301.53</ele>
        <time>2010-08-03T06:19:26Z</time>
      </trkpt>
      <trkpt lat="45.36677" lon="6.7346">
        <ele>2298.65</ele>
        <time>2010-08-03T06:19:41Z</time>
      </trkpt>
      <trkpt lat="45.36684" lon="6.73462">
        <ele>2295.77</ele>
        <time>2010-08-03T06:20:27Z</time>
      </trkpt>
      <trkpt lat="45.36685" lon="6.73462">
        <ele>2295.28</ele>
        <time>2010-08-03T06:20:28Z</time>
      </trkpt>
      <trkpt lat="45.36688" lon="6.73458">
        <ele>2292.4</ele>
        <time>2010-08-03T06:20:54Z</time>
      </trkpt>
      <trkpt lat="45.36688" lon="6.73475">
        <ele>2289.04</ele>
        <time>2010-08-03T06:21:18Z</time>
      </trkpt>
      <trkpt lat="45.3669" lon="6.7348">
        <ele>2286.15</ele>
        <time>2010-08-03T06:21:28Z</time>
      </trkpt>
      <trkpt lat="45.36694" lon="6.73488">
        <ele>2283.75</ele>
        <time>2010-08-03T06:21:42Z</time>
      </trkpt>
      <trkpt lat="45.36702" lon="6.73476">
        <ele>2279.9</ele>
        <time>2010-08-03T06:24:58Z</time>
      </trkpt>
      <trkpt lat="45.36704" lon="6.73471">
        <ele>2276.54</ele>
        <time>2010-08-03T06:25:13Z</time>
      </trkpt>
      <trkpt lat="45.36706" lon="6.73479">
        <ele>2275.58</ele>
        <time>2010-08-03T06:25:20Z</time>
      </trkpt>
      <trkpt lat="45.36709" lon="6.73491">
        <ele>2274.14</ele>
        <time>2010-08-03T06:25:31Z</time>
      </trkpt>
      <trkpt lat="45.36711" lon="6.73501">
        <ele>2272.21</ele>
        <time>2010-08-03T06:25:41Z</time>
      </trkpt>
      <trkpt lat="45.36717" lon="6.73496">
        <ele>2268.85</ele>
        <time>2010-08-03T06:25:54Z</time>
      </trkpt>
      <trkpt lat="45.36719" lon="6.73502">
        <ele>2266.93</ele>
        <time>2010-08-03T06:26:02Z</time>
      </trkpt>
      <trkpt lat="45.36722" lon="6.73514">
        <ele>2264.04</ele>
        <time>2010-08-03T06:26:14Z</time>
      </trkpt>
      <trkpt lat="45.36722" lon="6.73525">
        <ele>2261.64</ele>
        <time>2010-08-03T06:26:24Z</time>
      </trkpt>
      <trkpt lat="45.36727" lon="6.73537">
        <ele>2259.24</ele>
        <time>2010-08-03T06:26:35Z</time>
      </trkpt>
      <trkpt lat="45.36726" lon="6.73541">
        <ele>2258.27</ele>
        <time>2010-08-03T06:26:40Z</time>
      </trkpt>
      <trkpt lat="45.36728" lon="6.73553">
        <ele>2256.35</ele>
        <time>2010-08-03T06:26:50Z</time>
      </trkpt>
      <trkpt lat="45.36735" lon="6.73553">
        <ele>2252.99</ele>
        <time>2010-08-03T06:27:01Z</time>
      </trkpt>
      <trkpt lat="45.36745" lon="6.73542">
        <ele>2250.1</ele>
        <time>2010-08-03T06:27:16Z</time>
      </trkpt>
      <trkpt lat="45.36749" lon="6.73534">
        <ele>2247.22</ele>
        <time>2010-08-03T06:27:24Z</time>
      </trkpt>
      <trkpt lat="45.36757" lon="6.73533">
        <ele>2243.85</ele>
        <time>2010-08-03T06:27:38Z</time>
      </trkpt>
      <trkpt lat="45.36758" lon="6.73534">
        <ele>2243.85</ele>
        <time>2010-08-03T06:27:40Z</time>
      </trkpt>
      <trkpt lat="45.36766" lon="6.73537">
        <ele>2240.49</ele>
        <time>2010-08-03T06:27:54Z</time>
      </trkpt>
      <trkpt lat="45.36768" lon="6.7354">
        <ele>2239.53</ele>
        <time>2010-08-03T06:27:57Z</time>
      </trkpt>
      <trkpt lat="45.36773" lon="6.73545">
        <ele>2237.13</ele>
        <time>2010-08-03T06:28:07Z</time>
      </trkpt>
      <trkpt lat="45.36775" lon="6.73545">
        <ele>2237.61</ele>
        <time>2010-08-03T06:28:09Z</time>
      </trkpt>
      <trkpt lat="45.36788" lon="6.73546">
        <ele>2238.09</ele>
        <time>2010-08-03T06:28:21Z</time>
      </trkpt>
      <trkpt lat="45.36798" lon="6.73545">
        <ele>2238.09</ele>
        <time>2010-08-03T06:28:31Z</time>
      </trkpt>
      <trkpt lat="45.36807" lon="6.73548">
        <ele>2238.09</ele>
        <time>2010-08-03T06:28:41Z</time>
      </trkpt>
      <trkpt lat="45.36817" lon="6.73561">
        <ele>2237.61</ele>
        <time>2010-08-03T06:28:54Z</time>
      </trkpt>
      <trkpt lat="45.36823" lon="6.73566">
        <ele>2237.13</ele>
        <time>2010-08-03T06:29:10Z</time>
      </trkpt>
      <trkpt lat="45.36823" lon="6.73568">
        <ele>2236.64</ele>
        <time>2010-08-03T06:29:13Z</time>
      </trkpt>
      <trkpt lat="45.36825" lon="6.73584">
        <ele>2235.68</ele>
        <time>2010-08-03T06:29:25Z</time>
      </trkpt>
      <trkpt lat="45.36826" lon="6.73598">
        <ele>2235.2</ele>
        <time>2010-08-03T06:29:37Z</time>
      </trkpt>
      <trkpt lat="45.36829" lon="6.73604">
        <ele>2233.76</ele>
        <time>2010-08-03T06:29:43Z</time>
      </trkpt>
      <trkpt lat="45.36837" lon="6.73606">
        <ele>2231.84</ele>
        <time>2010-08-03T06:29:52Z</time>
      </trkpt>
      <trkpt lat="45.36838" lon="6.73605">
        <ele>2232.32</ele>
        <time>2010-08-03T06:29:53Z</time>
      </trkpt>
      <trkpt lat="45.36843" lon="6.73603">
        <ele>2232.32</ele>
        <time>2010-08-03T06:29:57Z</time>
      </trkpt>
      <trkpt lat="45.36847" lon="6.73595">
        <ele>2230.4</ele>
        <time>2010-08-03T06:30:07Z</time>
      </trkpt>
      <trkpt lat="45.36854" lon="6.73596">
        <ele>2227.99</ele>
        <time>2010-08-03T06:30:18Z</time>
      </trkpt>
      <trkpt lat="45.3686" lon="6.73592">
        <ele>2226.07</ele>
        <time>2010-08-03T06:30:27Z</time>
      </trkpt>
      <trkpt lat="45.36868" lon="6.73589">
        <ele>2224.15</ele>
        <time>2010-08-03T06:30:40Z</time>
      </trkpt>
      <trkpt lat="45.3687" lon="6.73588">
        <ele>2222.22</ele>
        <time>2010-08-03T06:30:47Z</time>
      </trkpt>
      <trkpt lat="45.36874" lon="6.73576">
        <ele>2220.78</ele>
        <time>2010-08-03T06:30:58Z</time>
      </trkpt>
      <trkpt lat="45.36877" lon="6.73579">
        <ele>2219.82</ele>
        <time>2010-08-03T06:31:03Z</time>
      </trkpt>
      <trkpt lat="45.36881" lon="6.73587">
        <ele>2218.38</ele>
        <time>2010-08-03T06:31:13Z</time>
      </trkpt>
      <trkpt lat="45.36882" lon="6.73588">
        <ele>2218.38</ele>
        <time>2010-08-03T06:31:14Z</time>
      </trkpt>
      <trkpt lat="45.36889" lon="6.73596">
        <ele>2216.94</ele>
        <time>2010-08-03T06:31:37Z</time>
      </trkpt>
      <trkpt lat="45.36894" lon="6.73601">
        <ele>2217.42</ele>
        <time>2010-08-03T06:33:11Z</time>
      </trkpt>
      <trkpt lat="45.36899" lon="6.73608">
        <ele>2218.38</ele>
        <time>2010-08-03T06:33:21Z</time>
      </trkpt>
      <trkpt lat="45.36907" lon="6.73623">
        <ele>2217.42</ele>
        <time>2010-08-03T06:33:35Z</time>
      </trkpt>
      <trkpt lat="45.36915" lon="6.73632">
        <ele>2215.5</ele>
        <time>2010-08-03T06:33:46Z</time>
      </trkpt>
      <trkpt lat="45.36916" lon="6.73633">
        <ele>2215.01</ele>
        <time>2010-08-03T06:33:47Z</time>
      </trkpt>
      <trkpt lat="45.36917" lon="6.73638">
        <ele>2213.57</ele>
        <time>2010-08-03T06:33:50Z</time>
      </trkpt>
      <trkpt lat="45.36922" lon="6.73654">
        <ele>2213.57</ele>
        <time>2010-08-03T06:34:01Z</time>
      </trkpt>
      <trkpt lat="45.36928" lon="6.73669">
        <ele>2213.09</ele>
        <time>2010-08-03T06:34:13Z</time>
      </trkpt>
      <trkpt lat="45.36928" lon="6.73671">
        <ele>2213.09</ele>
        <time>2010-08-03T06:34:15Z</time>
      </trkpt>
      <trkpt lat="45.36927" lon="6.73685">
        <ele>2212.13</ele>
        <time>2010-08-03T06:34:25Z</time>
      </trkpt>
      <trkpt lat="45.36928" lon="6.73691">
        <ele>2211.17</ele>
        <time>2010-08-03T06:34:29Z</time>
      </trkpt>
      <trkpt lat="45.36929" lon="6.73695">
        <ele>2211.17</ele>
        <time>2010-08-03T06:34:31Z</time>
      </trkpt>
      <trkpt lat="45.36935" lon="6.73712">
        <ele>2209.73</ele>
        <time>2010-08-03T06:34:42Z</time>
      </trkpt>
      <trkpt lat="45.36942" lon="6.73739">
        <ele>2210.21</ele>
        <time>2010-08-03T06:34:59Z</time>
      </trkpt>
      <trkpt lat="45.36944" lon="6.73745">
        <ele>2209.73</ele>
        <time>2010-08-03T06:35:03Z</time>
      </trkpt>
      <trkpt lat="45.36946" lon="6.73752">
        <ele>2210.21</ele>
        <time>2010-08-03T06:35:07Z</time>
      </trkpt>
      <trkpt lat="45.36952" lon="6.73762">
        <ele>2210.69</ele>
        <time>2010-08-03T06:35:13Z</time>
      </trkpt>
      <trkpt lat="45.3696" lon="6.73793">
        <ele>2210.69</ele>
        <time>2010-08-03T06:35:32Z</time>
      </trkpt>
      <trkpt lat="45.36962" lon="6.73813">
        <ele>2211.17</ele>
        <time>2010-08-03T06:35:45Z</time>
      </trkpt>
      <trkpt lat="45.36964" lon="6.73823">
        <ele>2210.69</ele>
        <time>2010-08-03T06:35:51Z</time>
      </trkpt>
      <trkpt lat="45.36965" lon="6.73827">
        <ele>2210.69</ele>
        <time>2010-08-03T06:35:54Z</time>
      </trkpt>
      <trkpt lat="45.36972" lon="6.7385">
        <ele>2211.17</ele>
        <time>2010-08-03T06:36:08Z</time>
      </trkpt>
      <trkpt lat="45.3698" lon="6.73875">
        <ele>2208.77</ele>
        <time>2010-08-03T06:36:24Z</time>
      </trkpt>
      <trkpt lat="45.36981" lon="6.73879">
        <ele>2211.65</ele>
        <time>2010-08-03T06:36:27Z</time>
      </trkpt>
      <trkpt lat="45.36983" lon="6.73888">
        <ele>2211.17</ele>
        <time>2010-08-03T06:36:33Z</time>
      </trkpt>
      <trkpt lat="45.36984" lon="6.73895">
        <ele>2212.13</ele>
        <time>2010-08-03T06:36:48Z</time>
      </trkpt>
      <trkpt lat="45.36983" lon="6.739">
        <ele>2211.65</ele>
        <time>2010-08-03T06:37:01Z</time>
      </trkpt>
      <trkpt lat="45.36985" lon="6.73908">
        <ele>2212.61</ele>
        <time>2010-08-03T06:37:10Z</time>
      </trkpt>
      <trkpt lat="45.36985" lon="6.73917">
        <ele>2211.65</ele>
        <time>2010-08-03T06:37:33Z</time>
      </trkpt>
      <trkpt lat="45.36985" lon="6.73918">
        <ele>2212.13</ele>
        <time>2010-08-03T06:37:34Z</time>
      </trkpt>
      <trkpt lat="45.36983" lon="6.73927">
        <ele>2212.61</ele>
        <time>2010-08-03T06:37:47Z</time>
      </trkpt>
      <trkpt lat="45.36981" lon="6.73946">
        <ele>2214.53</ele>
        <time>2010-08-03T06:38:00Z</time>
      </trkpt>
      <trkpt lat="45.36981" lon="6.73961">
        <ele>2215.98</ele>
        <time>2010-08-03T06:38:12Z</time>
      </trkpt>
      <trkpt lat="45.36984" lon="6.7397">
        <ele>2217.9</ele>
        <time>2010-08-03T06:38:22Z</time>
      </trkpt>
      <trkpt lat="45.36985" lon="6.73983">
        <ele>2219.34</ele>
        <time>2010-08-03T06:38:33Z</time>
      </trkpt>
      <trkpt lat="45.36984" lon="6.73994">
        <ele>2220.78</ele>
        <time>2010-08-03T06:38:43Z</time>
      </trkpt>
      <trkpt lat="45.36984" lon="6.74">
        <ele>2221.74</ele>
        <time>2010-08-03T06:38:51Z</time>
      </trkpt>
      <trkpt lat="45.36986" lon="6.74009">
        <ele>2220.3</ele>
        <time>2010-08-03T06:38:58Z</time>
      </trkpt>
      <trkpt lat="45.36987" lon="6.74012">
        <ele>2219.82</ele>
        <time>2010-08-03T06:39:00Z</time>
      </trkpt>
      <trkpt lat="45.36988" lon="6.74028">
        <ele>2221.26</ele>
        <time>2010-08-03T06:39:14Z</time>
      </trkpt>
      <trkpt lat="45.36986" lon="6.74047">
        <ele>2222.71</ele>
        <time>2010-08-03T06:39:27Z</time>
      </trkpt>
      <trkpt lat="45.36986" lon="6.74066">
        <ele>2222.71</ele>
        <time>2010-08-03T06:39:39Z</time>
      </trkpt>
      <trkpt lat="45.36983" lon="6.74087">
        <ele>2223.67</ele>
        <time>2010-08-03T06:39:53Z</time>
      </trkpt>
      <trkpt lat="45.36986" lon="6.74098">
        <ele>2224.63</ele>
        <time>2010-08-03T06:40:02Z</time>
      </trkpt>
      <trkpt lat="45.3699" lon="6.74107">
        <ele>2227.03</ele>
        <time>2010-08-03T06:40:29Z</time>
      </trkpt>
      <trkpt lat="45.36989" lon="6.74113">
        <ele>2228.95</ele>
        <time>2010-08-03T06:41:00Z</time>
      </trkpt>
      <trkpt lat="45.36989" lon="6.74113">
        <ele>2228.95</ele>
        <time>2010-08-03T06:41:01Z</time>
      </trkpt>
      <trkpt lat="45.36994" lon="6.74122">
        <ele>2230.88</ele>
        <time>2010-08-03T06:41:14Z</time>
      </trkpt>
      <trkpt lat="45.36991" lon="6.74137">
        <ele>2232.8</ele>
        <time>2010-08-03T06:41:28Z</time>
      </trkpt>
      <trkpt lat="45.36989" lon="6.74152">
        <ele>2235.68</ele>
        <time>2010-08-03T06:41:45Z</time>
      </trkpt>
      <trkpt lat="45.36992" lon="6.74163">
        <ele>2238.57</ele>
        <time>2010-08-03T06:42:00Z</time>
      </trkpt>
      <trkpt lat="45.36992" lon="6.74174">
        <ele>2240.97</ele>
        <time>2010-08-03T06:42:17Z</time>
      </trkpt>
      <trkpt lat="45.36995" lon="6.74191">
        <ele>2242.89</ele>
        <time>2010-08-03T06:42:38Z</time>
      </trkpt>
      <trkpt lat="45.36998" lon="6.74211">
        <ele>2244.82</ele>
        <time>2010-08-03T06:42:57Z</time>
      </trkpt>
      <trkpt lat="45.37" lon="6.74228">
        <ele>2248.18</ele>
        <time>2010-08-03T06:43:17Z</time>
      </trkpt>
      <trkpt lat="45.36997" lon="6.74238">
        <ele>2249.14</ele>
        <time>2010-08-03T06:43:28Z</time>
      </trkpt>
      <trkpt lat="45.37002" lon="6.74254">
        <ele>2248.66</ele>
        <time>2010-08-03T06:43:40Z</time>
      </trkpt>
      <trkpt lat="45.37004" lon="6.74262">
        <ele>2248.18</ele>
        <time>2010-08-03T06:43:45Z</time>
      </trkpt>
      <trkpt lat="45.37007" lon="6.74272">
        <ele>2246.74</ele>
        <time>2010-08-03T06:43:52Z</time>
      </trkpt>
      <trkpt lat="45.37008" lon="6.74276">
        <ele>2248.18</ele>
        <time>2010-08-03T06:43:55Z</time>
      </trkpt>
      <trkpt lat="45.37014" lon="6.74294">
        <ele>2248.18</ele>
        <time>2010-08-03T06:44:09Z</time>
      </trkpt>
      <trkpt lat="45.37019" lon="6.74305">
        <ele>2246.74</ele>
        <time>2010-08-03T06:44:20Z</time>
      </trkpt>
      <trkpt lat="45.3702" lon="6.7431">
        <ele>2245.3</ele>
        <time>2010-08-03T06:44:23Z</time>
      </trkpt>
      <trkpt lat="45.37024" lon="6.74332">
        <ele>2245.78</ele>
        <time>2010-08-03T06:44:38Z</time>
      </trkpt>
      <trkpt lat="45.3703" lon="6.74343">
        <ele>2245.3</ele>
        <time>2010-08-03T06:44:49Z</time>
      </trkpt>
      <trkpt lat="45.37033" lon="6.74353">
        <ele>2243.85</ele>
        <time>2010-08-03T06:44:56Z</time>
      </trkpt>
      <trkpt lat="45.3704" lon="6.74368">
        <ele>2242.41</ele>
        <time>2010-08-03T06:45:07Z</time>
      </trkpt>
      <trkpt lat="45.37048" lon="6.74387">
        <ele>2242.89</ele>
        <time>2010-08-03T06:45:22Z</time>
      </trkpt>
      <trkpt lat="45.37054" lon="6.74405">
        <ele>2243.85</ele>
        <time>2010-08-03T06:45:34Z</time>
      </trkpt>
      <trkpt lat="45.37055" lon="6.74416">
        <ele>2244.82</ele>
        <time>2010-08-03T06:45:45Z</time>
      </trkpt>
      <trkpt lat="45.3706" lon="6.74425">
        <ele>2246.26</ele>
        <time>2010-08-03T06:45:56Z</time>
      </trkpt>
      <trkpt lat="45.37062" lon="6.74437">
        <ele>2249.14</ele>
        <time>2010-08-03T06:46:13Z</time>
      </trkpt>
      <trkpt lat="45.37065" lon="6.74447">
        <ele>2252.51</ele>
        <time>2010-08-03T06:46:32Z</time>
      </trkpt>
      <trkpt lat="45.37066" lon="6.74459">
        <ele>2255.87</ele>
        <time>2010-08-03T06:46:54Z</time>
      </trkpt>
      <trkpt lat="45.37065" lon="6.7447">
        <ele>2258.27</ele>
        <time>2010-08-03T06:47:12Z</time>
      </trkpt>
      <trkpt lat="45.37075" lon="6.74486">
        <ele>2259.72</ele>
        <time>2010-08-03T06:47:29Z</time>
      </trkpt>
      <trkpt lat="45.37071" lon="6.74512">
        <ele>2259.72</ele>
        <time>2010-08-03T06:47:52Z</time>
      </trkpt>
      <trkpt lat="45.37063" lon="6.74523">
        <ele>2261.64</ele>
        <time>2010-08-03T06:48:02Z</time>
      </trkpt>
      <trkpt lat="45.37055" lon="6.74537">
        <ele>2262.6</ele>
        <time>2010-08-03T06:48:16Z</time>
      </trkpt>
      <trkpt lat="45.37054" lon="6.74541">
        <ele>2263.56</ele>
        <time>2010-08-03T06:48:19Z</time>
      </trkpt>
      <trkpt lat="45.3705" lon="6.74555">
        <ele>2264.52</ele>
        <time>2010-08-03T06:48:29Z</time>
      </trkpt>
      <trkpt lat="45.37046" lon="6.74573">
        <ele>2265.96</ele>
        <time>2010-08-03T06:48:43Z</time>
      </trkpt>
      <trkpt lat="45.37044" lon="6.74586">
        <ele>2266.45</ele>
        <time>2010-08-03T06:48:54Z</time>
      </trkpt>
      <trkpt lat="45.3704" lon="6.74597">
        <ele>2267.89</ele>
        <time>2010-08-03T06:49:05Z</time>
      </trkpt>
      <trkpt lat="45.37037" lon="6.74613">
        <ele>2269.33</ele>
        <time>2010-08-03T06:49:17Z</time>
      </trkpt>
      <trkpt lat="45.37035" lon="6.74631">
        <ele>2270.29</ele>
        <time>2010-08-03T06:49:32Z</time>
      </trkpt>
      <trkpt lat="45.37031" lon="6.74637">
        <ele>2269.81</ele>
        <time>2010-08-03T06:49:38Z</time>
      </trkpt>
      <trkpt lat="45.37024" lon="6.74653">
        <ele>2267.89</ele>
        <time>2010-08-03T06:49:52Z</time>
      </trkpt>
      <trkpt lat="45.37023" lon="6.74664">
        <ele>2269.33</ele>
        <time>2010-08-03T06:50:02Z</time>
      </trkpt>
      <trkpt lat="45.37025" lon="6.74672">
        <ele>2270.77</ele>
        <time>2010-08-03T06:50:16Z</time>
      </trkpt>
      <trkpt lat="45.37027" lon="6.74683">
        <ele>2272.69</ele>
        <time>2010-08-03T06:50:28Z</time>
      </trkpt>
      <trkpt lat="45.37022" lon="6.74694">
        <ele>2274.62</ele>
        <time>2010-08-03T06:50:41Z</time>
      </trkpt>
      <trkpt lat="45.37017" lon="6.74705">
        <ele>2276.06</ele>
        <time>2010-08-03T06:50:55Z</time>
      </trkpt>
      <trkpt lat="45.37015" lon="6.74713">
        <ele>2278.94</ele>
        <time>2010-08-03T06:51:13Z</time>
      </trkpt>
      <trkpt lat="45.37016" lon="6.74718">
        <ele>2282.31</ele>
        <time>2010-08-03T06:51:36Z</time>
      </trkpt>
      <trkpt lat="45.37015" lon="6.74726">
        <ele>2284.71</ele>
        <time>2010-08-03T06:51:47Z</time>
      </trkpt>
      <trkpt lat="45.37015" lon="6.74735">
        <ele>2285.67</ele>
        <time>2010-08-03T06:51:59Z</time>
      </trkpt>
      <trkpt lat="45.37016" lon="6.7474">
        <ele>2288.56</ele>
        <time>2010-08-03T06:52:15Z</time>
      </trkpt>
      <trkpt lat="45.37017" lon="6.74748">
        <ele>2290.96</ele>
        <time>2010-08-03T06:52:34Z</time>
      </trkpt>
      <trkpt lat="45.37017" lon="6.74759">
        <ele>2292.4</ele>
        <time>2010-08-03T06:52:45Z</time>
      </trkpt>
      <trkpt lat="45.37016" lon="6.74762">
        <ele>2295.28</ele>
        <time>2010-08-03T06:52:59Z</time>
      </trkpt>
      <trkpt lat="45.37018" lon="6.74768">
        <ele>2297.21</ele>
        <time>2010-08-03T06:53:14Z</time>
      </trkpt>
      <trkpt lat="45.37016" lon="6.74778">
        <ele>2299.13</ele>
        <time>2010-08-03T06:53:28Z</time>
      </trkpt>
      <trkpt lat="45.37015" lon="6.74785">
        <ele>2300.57</ele>
        <time>2010-08-03T06:53:38Z</time>
      </trkpt>
      <trkpt lat="45.37013" lon="6.74793">
        <ele>2303.46</ele>
        <time>2010-08-03T06:53:59Z</time>
      </trkpt>
      <trkpt lat="45.37012" lon="6.74799">
        <ele>2306.34</ele>
        <time>2010-08-03T06:54:18Z</time>
      </trkpt>
      <trkpt lat="45.37009" lon="6.74809">
        <ele>2307.3</ele>
        <time>2010-08-03T06:54:30Z</time>
      </trkpt>
      <trkpt lat="45.37009" lon="6.74818">
        <ele>2309.7</ele>
        <time>2010-08-03T06:54:44Z</time>
      </trkpt>
      <trkpt lat="45.37007" lon="6.74825">
        <ele>2311.63</ele>
        <time>2010-08-03T06:54:58Z</time>
      </trkpt>
      <trkpt lat="45.37005" lon="6.74832">
        <ele>2313.55</ele>
        <time>2010-08-03T06:55:15Z</time>
      </trkpt>
      <trkpt lat="45.37004" lon="6.74842">
        <ele>2314.99</ele>
        <time>2010-08-03T06:55:29Z</time>
      </trkpt>
      <trkpt lat="45.37004" lon="6.74849">
        <ele>2316.91</ele>
        <time>2010-08-03T06:55:42Z</time>
      </trkpt>
      <trkpt lat="45.37006" lon="6.74857">
        <ele>2320.28</ele>
        <time>2010-08-03T06:56:06Z</time>
      </trkpt>
      <trkpt lat="45.37012" lon="6.74865">
        <ele>2321.72</ele>
        <time>2010-08-03T06:56:24Z</time>
      </trkpt>
      <trkpt lat="45.37014" lon="6.74867">
        <ele>2324.12</ele>
        <time>2010-08-03T06:56:37Z</time>
      </trkpt>
      <trkpt lat="45.37021" lon="6.74866">
        <ele>2325.57</ele>
        <time>2010-08-03T06:56:48Z</time>
      </trkpt>
      <trkpt lat="45.37022" lon="6.74876">
        <ele>2328.93</ele>
        <time>2010-08-03T06:57:13Z</time>
      </trkpt>
      <trkpt lat="45.37021" lon="6.74882">
        <ele>2331.33</ele>
        <time>2010-08-03T06:57:29Z</time>
      </trkpt>
      <trkpt lat="45.37022" lon="6.74894">
        <ele>2333.26</ele>
        <time>2010-08-03T06:57:48Z</time>
      </trkpt>
      <trkpt lat="45.37024" lon="6.74904">
        <ele>2335.18</ele>
        <time>2010-08-03T06:58:06Z</time>
      </trkpt>
      <trkpt lat="45.37024" lon="6.74908">
        <ele>2337.1</ele>
        <time>2010-08-03T06:58:12Z</time>
      </trkpt>
      <trkpt lat="45.37023" lon="6.7492">
        <ele>2339.99</ele>
        <time>2010-08-03T06:58:31Z</time>
      </trkpt>
      <trkpt lat="45.37024" lon="6.74926">
        <ele>2341.43</ele>
        <time>2010-08-03T06:58:44Z</time>
      </trkpt>
      <trkpt lat="45.37026" lon="6.74932">
        <ele>2342.39</ele>
        <time>2010-08-03T06:58:56Z</time>
      </trkpt>
      <trkpt lat="45.37028" lon="6.74939">
        <ele>2344.31</ele>
        <time>2010-08-03T06:59:07Z</time>
      </trkpt>
      <trkpt lat="45.37031" lon="6.74937">
        <ele>2345.75</ele>
        <time>2010-08-03T06:59:21Z</time>
      </trkpt>
      <trkpt lat="45.37032" lon="6.74937">
        <ele>2346.23</ele>
        <time>2010-08-03T06:59:23Z</time>
      </trkpt>
      <trkpt lat="45.37039" lon="6.74934">
        <ele>2347.2</ele>
        <time>2010-08-03T06:59:34Z</time>
      </trkpt>
      <trkpt lat="45.37042" lon="6.74928">
        <ele>2348.64</ele>
        <time>2010-08-03T06:59:46Z</time>
      </trkpt>
      <trkpt lat="45.37045" lon="6.74934">
        <ele>2349.6</ele>
        <time>2010-08-03T06:59:55Z</time>
      </trkpt>
      <trkpt lat="45.37044" lon="6.74944">
        <ele>2350.56</ele>
        <time>2010-08-03T07:00:06Z</time>
      </trkpt>
      <trkpt lat="45.37043" lon="6.74951">
        <ele>2352</ele>
        <time>2010-08-03T07:00:19Z</time>
      </trkpt>
      <trkpt lat="45.37043" lon="6.74962">
        <ele>2353.93</ele>
        <time>2010-08-03T07:00:31Z</time>
      </trkpt>
      <trkpt lat="45.37045" lon="6.74968">
        <ele>2356.33</ele>
        <time>2010-08-03T07:00:49Z</time>
      </trkpt>
      <trkpt lat="45.3705" lon="6.74968">
        <ele>2358.25</ele>
        <time>2010-08-03T07:01:05Z</time>
      </trkpt>
      <trkpt lat="45.37055" lon="6.74966">
        <ele>2360.17</ele>
        <time>2010-08-03T07:01:17Z</time>
      </trkpt>
      <trkpt lat="45.37055" lon="6.7498">
        <ele>2363.54</ele>
        <time>2010-08-03T07:01:43Z</time>
      </trkpt>
      <trkpt lat="45.37056" lon="6.74982">
        <ele>2364.5</ele>
        <time>2010-08-03T07:01:52Z</time>
      </trkpt>
      <trkpt lat="45.37059" lon="6.74989">
        <ele>2366.42</ele>
        <time>2010-08-03T07:02:08Z</time>
      </trkpt>
      <trkpt lat="45.37061" lon="6.74998">
        <ele>2369.31</ele>
        <time>2010-08-03T07:02:29Z</time>
      </trkpt>
      <trkpt lat="45.3706" lon="6.75003">
        <ele>2370.27</ele>
        <time>2010-08-03T07:02:43Z</time>
      </trkpt>
      <trkpt lat="45.37059" lon="6.75013">
        <ele>2372.67</ele>
        <time>2010-08-03T07:02:59Z</time>
      </trkpt>
      <trkpt lat="45.37054" lon="6.75023">
        <ele>2376.04</ele>
        <time>2010-08-03T07:03:23Z</time>
      </trkpt>
      <trkpt lat="45.37051" lon="6.7503">
        <ele>2377.48</ele>
        <time>2010-08-03T07:03:33Z</time>
      </trkpt>
      <trkpt lat="45.37046" lon="6.75036">
        <ele>2379.4</ele>
        <time>2010-08-03T07:03:54Z</time>
      </trkpt>
      <trkpt lat="45.37039" lon="6.7504">
        <ele>2381.32</ele>
        <time>2010-08-03T07:04:12Z</time>
      </trkpt>
      <trkpt lat="45.3703" lon="6.75044">
        <ele>2383.73</ele>
        <time>2010-08-03T07:04:29Z</time>
      </trkpt>
      <trkpt lat="45.37027" lon="6.7505">
        <ele>2385.65</ele>
        <time>2010-08-03T07:04:41Z</time>
      </trkpt>
      <trkpt lat="45.37023" lon="6.75054">
        <ele>2388.53</ele>
        <time>2010-08-03T07:04:58Z</time>
      </trkpt>
      <trkpt lat="45.37021" lon="6.75055">
        <ele>2389.01</ele>
        <time>2010-08-03T07:05:04Z</time>
      </trkpt>
      <trkpt lat="45.3702" lon="6.75062">
        <ele>2391.9</ele>
        <time>2010-08-03T07:05:24Z</time>
      </trkpt>
      <trkpt lat="45.37019" lon="6.75067">
        <ele>2394.3</ele>
        <time>2010-08-03T07:05:40Z</time>
      </trkpt>
      <trkpt lat="45.37019" lon="6.75075">
        <ele>2397.18</ele>
        <time>2010-08-03T07:06:06Z</time>
      </trkpt>
      <trkpt lat="45.37017" lon="6.75081">
        <ele>2400.55</ele>
        <time>2010-08-03T07:06:25Z</time>
      </trkpt>
      <trkpt lat="45.37019" lon="6.75083">
        <ele>2404.39</ele>
        <time>2010-08-03T07:06:48Z</time>
      </trkpt>
      <trkpt lat="45.3702" lon="6.75091">
        <ele>2405.84</ele>
        <time>2010-08-03T07:07:07Z</time>
      </trkpt>
      <trkpt lat="45.37024" lon="6.75095">
        <ele>2409.2</ele>
        <time>2010-08-03T07:07:29Z</time>
      </trkpt>
      <trkpt lat="45.37024" lon="6.75096">
        <ele>2409.2</ele>
        <time>2010-08-03T07:07:30Z</time>
      </trkpt>
      <trkpt lat="45.37027" lon="6.75099">
        <ele>2412.57</ele>
        <time>2010-08-03T07:07:51Z</time>
      </trkpt>
      <trkpt lat="45.37026" lon="6.75104">
        <ele>2415.45</ele>
        <time>2010-08-03T07:08:16Z</time>
      </trkpt>
      <trkpt lat="45.37026" lon="6.7511">
        <ele>2419.3</ele>
        <time>2010-08-03T07:08:44Z</time>
      </trkpt>
      <trkpt lat="45.37027" lon="6.7511">
        <ele>2418.81</ele>
        <time>2010-08-03T07:08:46Z</time>
      </trkpt>
      <trkpt lat="45.3703" lon="6.75112">
        <ele>2420.74</ele>
        <time>2010-08-03T07:08:52Z</time>
      </trkpt>
      <trkpt lat="45.37029" lon="6.75117">
        <ele>2422.18</ele>
        <time>2010-08-03T07:09:05Z</time>
      </trkpt>
      <trkpt lat="45.37029" lon="6.75122">
        <ele>2424.1</ele>
        <time>2010-08-03T07:09:23Z</time>
      </trkpt>
      <trkpt lat="45.37029" lon="6.75129">
        <ele>2426.99</ele>
        <time>2010-08-03T07:09:41Z</time>
      </trkpt>
      <trkpt lat="45.3703" lon="6.75132">
        <ele>2429.87</ele>
        <time>2010-08-03T07:10:03Z</time>
      </trkpt>
      <trkpt lat="45.37039" lon="6.75134">
        <ele>2432.75</ele>
        <time>2010-08-03T07:10:22Z</time>
      </trkpt>
      <trkpt lat="45.37045" lon="6.75132">
        <ele>2434.2</ele>
        <time>2010-08-03T07:10:34Z</time>
      </trkpt>
      <trkpt lat="45.37047" lon="6.75135">
        <ele>2435.16</ele>
        <time>2010-08-03T07:10:44Z</time>
      </trkpt>
      <trkpt lat="45.37053" lon="6.7514">
        <ele>2437.08</ele>
        <time>2010-08-03T07:10:58Z</time>
      </trkpt>
      <trkpt lat="45.37058" lon="6.75145">
        <ele>2439.48</ele>
        <time>2010-08-03T07:11:17Z</time>
      </trkpt>
      <trkpt lat="45.37064" lon="6.75148">
        <ele>2440.92</ele>
        <time>2010-08-03T07:11:27Z</time>
      </trkpt>
      <trkpt lat="45.37072" lon="6.7515">
        <ele>2441.89</ele>
        <time>2010-08-03T07:11:40Z</time>
      </trkpt>
      <trkpt lat="45.37075" lon="6.75151">
        <ele>2442.85</ele>
        <time>2010-08-03T07:11:50Z</time>
      </trkpt>
      <trkpt lat="45.37077" lon="6.75151">
        <ele>2444.29</ele>
        <time>2010-08-03T07:11:59Z</time>
      </trkpt>
      <trkpt lat="45.37078" lon="6.75151">
        <ele>2445.73</ele>
        <time>2010-08-03T07:12:12Z</time>
      </trkpt>
      <trkpt lat="45.37084" lon="6.75155">
        <ele>2448.13</ele>
        <time>2010-08-03T07:12:30Z</time>
      </trkpt>
      <trkpt lat="45.37092" lon="6.75154">
        <ele>2451.5</ele>
        <time>2010-08-03T07:12:45Z</time>
      </trkpt>
      <trkpt lat="45.371" lon="6.75152">
        <ele>2454.38</ele>
        <time>2010-08-03T07:13:03Z</time>
      </trkpt>
      <trkpt lat="45.37101" lon="6.75151">
        <ele>2457.75</ele>
        <time>2010-08-03T07:13:16Z</time>
      </trkpt>
      <trkpt lat="45.37104" lon="6.75155">
        <ele>2459.67</ele>
        <time>2010-08-03T07:13:29Z</time>
      </trkpt>
      <trkpt lat="45.37104" lon="6.75162">
        <ele>2461.59</ele>
        <time>2010-08-03T07:13:39Z</time>
      </trkpt>
      <trkpt lat="45.37106" lon="6.75166">
        <ele>2462.55</ele>
        <time>2010-08-03T07:13:49Z</time>
      </trkpt>
      <trkpt lat="45.37111" lon="6.75168">
        <ele>2464.96</ele>
        <time>2010-08-03T07:14:04Z</time>
      </trkpt>
      <trkpt lat="45.37118" lon="6.75165">
        <ele>2467.36</ele>
        <time>2010-08-03T07:14:16Z</time>
      </trkpt>
      <trkpt lat="45.37124" lon="6.75167">
        <ele>2468.8</ele>
        <time>2010-08-03T07:14:29Z</time>
      </trkpt>
      <trkpt lat="45.37124" lon="6.75173">
        <ele>2470.73</ele>
        <time>2010-08-03T07:14:46Z</time>
      </trkpt>
      <trkpt lat="45.37128" lon="6.75177">
        <ele>2472.65</ele>
        <time>2010-08-03T07:15:05Z</time>
      </trkpt>
      <trkpt lat="45.37131" lon="6.75178">
        <ele>2476.01</ele>
        <time>2010-08-03T07:15:20Z</time>
      </trkpt>
      <trkpt lat="45.37134" lon="6.75191">
        <ele>2479.38</ele>
        <time>2010-08-03T07:15:40Z</time>
      </trkpt>
      <trkpt lat="45.3714" lon="6.75192">
        <ele>2481.78</ele>
        <time>2010-08-03T07:15:55Z</time>
      </trkpt>
      <trkpt lat="45.37142" lon="6.75194">
        <ele>2483.22</ele>
        <time>2010-08-03T07:16:19Z</time>
      </trkpt>
      <trkpt lat="45.37142" lon="6.75194">
        <ele>2482.74</ele>
        <time>2010-08-03T07:16:34Z</time>
      </trkpt>
      <trkpt lat="45.37142" lon="6.75194">
        <ele>2481.78</ele>
        <time>2010-08-03T07:16:41Z</time>
      </trkpt>
      <trkpt lat="45.37142" lon="6.75193">
        <ele>2483.7</ele>
        <time>2010-08-03T07:16:55Z</time>
      </trkpt>
      <trkpt lat="45.37142" lon="6.752">
        <ele>2480.82</ele>
        <time>2010-08-03T07:18:45Z</time>
      </trkpt>
      <trkpt lat="45.37142" lon="6.752">
        <ele>2481.3</ele>
        <time>2010-08-03T07:19:01Z</time>
      </trkpt>
      <trkpt lat="45.37142" lon="6.75199">
        <ele>2481.78</ele>
        <time>2010-08-03T07:19:12Z</time>
      </trkpt>
      <trkpt lat="45.37141" lon="6.75198">
        <ele>2475.53</ele>
        <time>2010-08-03T07:19:21Z</time>
      </trkpt>
      <trkpt lat="45.37141" lon="6.75198">
        <ele>2480.34</ele>
        <time>2010-08-03T07:19:22Z</time>
      </trkpt>
      <trkpt lat="45.37141" lon="6.75198">
        <ele>2484.18</ele>
        <time>2010-08-03T07:19:34Z</time>
      </trkpt>
      <trkpt lat="45.37141" lon="6.75198">
        <ele>2480.82</ele>
        <time>2010-08-03T07:19:35Z</time>
      </trkpt>
      <trkpt lat="45.37141" lon="6.75198">
        <ele>2481.3</ele>
        <time>2010-08-03T07:19:52Z</time>
      </trkpt>
      <trkpt lat="45.37141" lon="6.75198">
        <ele>2485.63</ele>
        <time>2010-08-03T07:29:46Z</time>
      </trkpt>
      <trkpt lat="45.37141" lon="6.75198">
        <ele>2454.38</ele>
        <time>2010-08-03T07:29:48Z</time>
      </trkpt>
      <trkpt lat="45.37141" lon="6.75198">
        <ele>2456.31</ele>
        <time>2010-08-03T07:29:49Z</time>
      </trkpt>
      <trkpt lat="45.37141" lon="6.75198">
        <ele>2461.59</ele>
        <time>2010-08-03T07:29:51Z</time>
      </trkpt>
      <trkpt lat="45.37141" lon="6.75198">
        <ele>2458.23</ele>
        <time>2010-08-03T07:29:58Z</time>
      </trkpt>
      <trkpt lat="45.37141" lon="6.75198">
        <ele>2461.59</ele>
        <time>2010-08-03T07:29:59Z</time>
      </trkpt>
      <trkpt lat="45.37141" lon="6.75198">
        <ele>2456.31</ele>
        <time>2010-08-03T07:30:00Z</time>
      </trkpt>
      <trkpt lat="45.37141" lon="6.75198">
        <ele>2456.31</ele>
        <time>2010-08-03T07:30:01Z</time>
      </trkpt>
      <trkpt lat="45.37163" lon="6.75221">
        <ele>2461.11</ele>
        <time>2010-08-03T07:30:02Z</time>
      </trkpt>
      <trkpt lat="45.37164" lon="6.75219">
        <ele>2456.31</ele>
        <time>2010-08-03T07:30:09Z</time>
      </trkpt>
      <trkpt lat="45.37165" lon="6.7522">
        <ele>2460.63</ele>
        <time>2010-08-03T07:30:10Z</time>
      </trkpt>
      <trkpt lat="45.37173" lon="6.75219">
        <ele>2457.75</ele>
        <time>2010-08-03T07:30:19Z</time>
      </trkpt>
      <trkpt lat="45.37173" lon="6.75215">
        <ele>2458.23</ele>
        <time>2010-08-03T07:30:25Z</time>
      </trkpt>
      <trkpt lat="45.37179" lon="6.75217">
        <ele>2454.86</ele>
        <time>2010-08-03T07:30:37Z</time>
      </trkpt>
      <trkpt lat="45.37181" lon="6.75223">
        <ele>2450.54</ele>
        <time>2010-08-03T07:30:49Z</time>
      </trkpt>
      <trkpt lat="45.37184" lon="6.75232">
        <ele>2447.65</ele>
        <time>2010-08-03T07:31:07Z</time>
      </trkpt>
      <trkpt lat="45.37187" lon="6.75236">
        <ele>2446.21</ele>
        <time>2010-08-03T07:31:35Z</time>
      </trkpt>
      <trkpt lat="45.3719" lon="6.75243">
        <ele>2443.33</ele>
        <time>2010-08-03T07:31:47Z</time>
      </trkpt>
      <trkpt lat="45.37193" lon="6.75248">
        <ele>2444.77</ele>
        <time>2010-08-03T07:31:53Z</time>
      </trkpt>
      <trkpt lat="45.37191" lon="6.75253">
        <ele>2447.17</ele>
        <time>2010-08-03T07:32:00Z</time>
      </trkpt>
      <trkpt lat="45.37192" lon="6.75272">
        <ele>2446.69</ele>
        <time>2010-08-03T07:32:30Z</time>
      </trkpt>
      <trkpt lat="45.37197" lon="6.75297">
        <ele>2442.85</ele>
        <time>2010-08-03T07:33:03Z</time>
      </trkpt>
      <trkpt lat="45.37196" lon="6.75299">
        <ele>2442.85</ele>
        <time>2010-08-03T07:33:04Z</time>
      </trkpt>
      <trkpt lat="45.37195" lon="6.75301">
        <ele>2440.92</ele>
        <time>2010-08-03T07:33:10Z</time>
      </trkpt>
      <trkpt lat="45.37199" lon="6.75301">
        <ele>2439</ele>
        <time>2010-08-03T07:33:19Z</time>
      </trkpt>
      <trkpt lat="45.37202" lon="6.75307">
        <ele>2435.64</ele>
        <time>2010-08-03T07:33:28Z</time>
      </trkpt>
      <trkpt lat="45.37201" lon="6.75308">
        <ele>2435.64</ele>
        <time>2010-08-03T07:33:29Z</time>
      </trkpt>
      <trkpt lat="45.37199" lon="6.7532">
        <ele>2432.27</ele>
        <time>2010-08-03T07:33:51Z</time>
      </trkpt>
      <trkpt lat="45.37197" lon="6.75325">
        <ele>2428.91</ele>
        <time>2010-08-03T07:34:05Z</time>
      </trkpt>
      <trkpt lat="45.37202" lon="6.75329">
        <ele>2426.02</ele>
        <time>2010-08-03T07:34:18Z</time>
      </trkpt>
      <trkpt lat="45.37203" lon="6.75336">
        <ele>2422.66</ele>
        <time>2010-08-03T07:34:30Z</time>
      </trkpt>
      <trkpt lat="45.37205" lon="6.75341">
        <ele>2419.3</ele>
        <time>2010-08-03T07:34:42Z</time>
      </trkpt>
      <trkpt lat="45.37206" lon="6.75343">
        <ele>2418.33</ele>
        <time>2010-08-03T07:34:44Z</time>
      </trkpt>
      <trkpt lat="45.37207" lon="6.75348">
        <ele>2414.97</ele>
        <time>2010-08-03T07:34:58Z</time>
      </trkpt>
      <trkpt lat="45.3721" lon="6.75358">
        <ele>2411.6</ele>
        <time>2010-08-03T07:35:11Z</time>
      </trkpt>
      <trkpt lat="45.37209" lon="6.75362">
        <ele>2409.68</ele>
        <time>2010-08-03T07:35:26Z</time>
      </trkpt>
      <trkpt lat="45.37212" lon="6.75367">
        <ele>2407.28</ele>
        <time>2010-08-03T07:35:32Z</time>
      </trkpt>
      <trkpt lat="45.37217" lon="6.75368">
        <ele>2404.39</ele>
        <time>2010-08-03T07:35:46Z</time>
      </trkpt>
      <trkpt lat="45.37212" lon="6.75375">
        <ele>2402.95</ele>
        <time>2010-08-03T07:35:53Z</time>
      </trkpt>
      <trkpt lat="45.37213" lon="6.75375">
        <ele>2401.03</ele>
        <time>2010-08-03T07:35:59Z</time>
      </trkpt>
      <trkpt lat="45.37214" lon="6.75379">
        <ele>2397.18</ele>
        <time>2010-08-03T07:36:12Z</time>
      </trkpt>
      <trkpt lat="45.37213" lon="6.7538">
        <ele>2394.3</ele>
        <time>2010-08-03T07:36:24Z</time>
      </trkpt>
      <trkpt lat="45.37212" lon="6.75383">
        <ele>2390.94</ele>
        <time>2010-08-03T07:36:38Z</time>
      </trkpt>
      <trkpt lat="45.37215" lon="6.75387">
        <ele>2387.57</ele>
        <time>2010-08-03T07:36:46Z</time>
      </trkpt>
      <trkpt lat="45.37215" lon="6.75388">
        <ele>2387.57</ele>
        <time>2010-08-03T07:36:47Z</time>
      </trkpt>
      <trkpt lat="45.3722" lon="6.75396">
        <ele>2384.21</ele>
        <time>2010-08-03T07:36:56Z</time>
      </trkpt>
      <trkpt lat="45.3722" lon="6.75398">
        <ele>2383.25</ele>
        <time>2010-08-03T07:36:59Z</time>
      </trkpt>
      <trkpt lat="45.37225" lon="6.75407">
        <ele>2380.36</ele>
        <time>2010-08-03T07:37:10Z</time>
      </trkpt>
      <trkpt lat="45.37233" lon="6.75415">
        <ele>2377</ele>
        <time>2010-08-03T07:37:24Z</time>
      </trkpt>
      <trkpt lat="45.37232" lon="6.7542">
        <ele>2373.63</ele>
        <time>2010-08-03T07:37:42Z</time>
      </trkpt>
      <trkpt lat="45.37229" lon="6.75426">
        <ele>2371.23</ele>
        <time>2010-08-03T07:37:55Z</time>
      </trkpt>
      <trkpt lat="45.37229" lon="6.75427">
        <ele>2369.79</ele>
        <time>2010-08-03T07:37:58Z</time>
      </trkpt>
      <trkpt lat="45.37226" lon="6.75435">
        <ele>2366.9</ele>
        <time>2010-08-03T07:38:14Z</time>
      </trkpt>
      <trkpt lat="45.37224" lon="6.7544">
        <ele>2365.46</ele>
        <time>2010-08-03T07:38:42Z</time>
      </trkpt>
      <trkpt lat="45.37225" lon="6.7544">
        <ele>2360.17</ele>
        <time>2010-08-03T07:39:08Z</time>
      </trkpt>
      <trkpt lat="45.37225" lon="6.7544">
        <ele>2364.98</ele>
        <time>2010-08-03T07:39:09Z</time>
      </trkpt>
      <trkpt lat="45.37223" lon="6.75444">
        <ele>2364.98</ele>
        <time>2010-08-03T07:40:00Z</time>
      </trkpt>
      <trkpt lat="45.37222" lon="6.75448">
        <ele>2361.62</ele>
        <time>2010-08-03T07:40:34Z</time>
      </trkpt>
      <trkpt lat="45.37221" lon="6.75459">
        <ele>2359.21</ele>
        <time>2010-08-03T07:40:49Z</time>
      </trkpt>
      <trkpt lat="45.37218" lon="6.75469">
        <ele>2356.81</ele>
        <time>2010-08-03T07:41:02Z</time>
      </trkpt>
      <trkpt lat="45.37225" lon="6.75477">
        <ele>2353.44</ele>
        <time>2010-08-03T07:41:16Z</time>
      </trkpt>
      <trkpt lat="45.37234" lon="6.75483">
        <ele>2351.04</ele>
        <time>2010-08-03T07:41:29Z</time>
      </trkpt>
      <trkpt lat="45.37236" lon="6.75484">
        <ele>2349.6</ele>
        <time>2010-08-03T07:41:32Z</time>
      </trkpt>
      <trkpt lat="45.37244" lon="6.75487">
        <ele>2347.2</ele>
        <time>2010-08-03T07:41:43Z</time>
      </trkpt>
      <trkpt lat="45.37248" lon="6.75492">
        <ele>2344.79</ele>
        <time>2010-08-03T07:41:52Z</time>
      </trkpt>
      <trkpt lat="45.37252" lon="6.75502">
        <ele>2341.43</ele>
        <time>2010-08-03T07:42:02Z</time>
      </trkpt>
      <trkpt lat="45.37257" lon="6.75505">
        <ele>2338.54</ele>
        <time>2010-08-03T07:42:17Z</time>
      </trkpt>
      <trkpt lat="45.37263" lon="6.75511">
        <ele>2335.66</ele>
        <time>2010-08-03T07:42:31Z</time>
      </trkpt>
      <trkpt lat="45.37267" lon="6.75513">
        <ele>2332.78</ele>
        <time>2010-08-03T07:42:46Z</time>
      </trkpt>
      <trkpt lat="45.37273" lon="6.75522">
        <ele>2329.41</ele>
        <time>2010-08-03T07:43:01Z</time>
      </trkpt>
      <trkpt lat="45.37276" lon="6.75526">
        <ele>2327.49</ele>
        <time>2010-08-03T07:43:12Z</time>
      </trkpt>
      <trkpt lat="45.37279" lon="6.75525">
        <ele>2323.64</ele>
        <time>2010-08-03T07:43:23Z</time>
      </trkpt>
      <trkpt lat="45.3728" lon="6.75525">
        <ele>2323.64</ele>
        <time>2010-08-03T07:43:24Z</time>
      </trkpt>
      <trkpt lat="45.37286" lon="6.75523">
        <ele>2322.2</ele>
        <time>2010-08-03T07:43:32Z</time>
      </trkpt>
      <trkpt lat="45.37292" lon="6.75523">
        <ele>2318.84</ele>
        <time>2010-08-03T07:43:41Z</time>
      </trkpt>
      <trkpt lat="45.37296" lon="6.75526">
        <ele>2315.95</ele>
        <time>2010-08-03T07:43:49Z</time>
      </trkpt>
      <trkpt lat="45.37303" lon="6.75528">
        <ele>2312.59</ele>
        <time>2010-08-03T07:44:03Z</time>
      </trkpt>
      <trkpt lat="45.37303" lon="6.75528">
        <ele>2313.07</ele>
        <time>2010-08-03T07:44:04Z</time>
      </trkpt>
      <trkpt lat="45.37307" lon="6.75528">
        <ele>2309.7</ele>
        <time>2010-08-03T07:44:17Z</time>
      </trkpt>
      <trkpt lat="45.37309" lon="6.75526">
        <ele>2307.78</ele>
        <time>2010-08-03T07:44:26Z</time>
      </trkpt>
      <trkpt lat="45.37317" lon="6.75533">
        <ele>2304.42</ele>
        <time>2010-08-03T07:44:39Z</time>
      </trkpt>
      <trkpt lat="45.37327" lon="6.75536">
        <ele>2302.01</ele>
        <time>2010-08-03T07:44:52Z</time>
      </trkpt>
      <trkpt lat="45.37341" lon="6.75541">
        <ele>2298.17</ele>
        <time>2010-08-03T07:45:13Z</time>
      </trkpt>
      <trkpt lat="45.37354" lon="6.75543">
        <ele>2295.77</ele>
        <time>2010-08-03T07:45:31Z</time>
      </trkpt>
      <trkpt lat="45.37363" lon="6.75544">
        <ele>2291.92</ele>
        <time>2010-08-03T07:45:45Z</time>
      </trkpt>
      <trkpt lat="45.37364" lon="6.75544">
        <ele>2291.92</ele>
        <time>2010-08-03T07:45:46Z</time>
      </trkpt>
      <trkpt lat="45.37371" lon="6.75542">
        <ele>2289.04</ele>
        <time>2010-08-03T07:45:58Z</time>
      </trkpt>
      <trkpt lat="45.37381" lon="6.75547">
        <ele>2288.08</ele>
        <time>2010-08-03T07:46:13Z</time>
      </trkpt>
      <trkpt lat="45.37388" lon="6.75543">
        <ele>2284.71</ele>
        <time>2010-08-03T07:46:21Z</time>
      </trkpt>
      <trkpt lat="45.37395" lon="6.75538">
        <ele>2284.23</ele>
        <time>2010-08-03T07:46:35Z</time>
      </trkpt>
      <trkpt lat="45.37396" lon="6.75537">
        <ele>2284.71</ele>
        <time>2010-08-03T07:46:45Z</time>
      </trkpt>
      <trkpt lat="45.37417" lon="6.7553">
        <ele>2283.27</ele>
        <time>2010-08-03T07:50:57Z</time>
      </trkpt>
      <trkpt lat="45.37421" lon="6.75528">
        <ele>2281.83</ele>
        <time>2010-08-03T07:51:01Z</time>
      </trkpt>
      <trkpt lat="45.37431" lon="6.75513">
        <ele>2280.38</ele>
        <time>2010-08-03T07:51:16Z</time>
      </trkpt>
      <trkpt lat="45.37436" lon="6.75498">
        <ele>2277.02</ele>
        <time>2010-08-03T07:51:28Z</time>
      </trkpt>
      <trkpt lat="45.37439" lon="6.75494">
        <ele>2275.58</ele>
        <time>2010-08-03T07:51:32Z</time>
      </trkpt>
      <trkpt lat="45.37444" lon="6.75489">
        <ele>2275.1</ele>
        <time>2010-08-03T07:51:41Z</time>
      </trkpt>
      <trkpt lat="45.37449" lon="6.75484">
        <ele>2271.73</ele>
        <time>2010-08-03T07:51:54Z</time>
      </trkpt>
      <trkpt lat="45.37455" lon="6.75477">
        <ele>2267.89</ele>
        <time>2010-08-03T07:52:09Z</time>
      </trkpt>
      <trkpt lat="45.37456" lon="6.75475">
        <ele>2267.41</ele>
        <time>2010-08-03T07:52:11Z</time>
      </trkpt>
      <trkpt lat="45.37456" lon="6.75472">
        <ele>2266.45</ele>
        <time>2010-08-03T07:52:13Z</time>
      </trkpt>
      <trkpt lat="45.37459" lon="6.75457">
        <ele>2263.08</ele>
        <time>2010-08-03T07:52:23Z</time>
      </trkpt>
      <trkpt lat="45.3746" lon="6.75455">
        <ele>2262.6</ele>
        <time>2010-08-03T07:52:25Z</time>
      </trkpt>
      <trkpt lat="45.37462" lon="6.75442">
        <ele>2259.72</ele>
        <time>2010-08-03T07:52:37Z</time>
      </trkpt>
      <trkpt lat="45.37462" lon="6.75434">
        <ele>2256.35</ele>
        <time>2010-08-03T07:52:46Z</time>
      </trkpt>
      <trkpt lat="45.3746" lon="6.75426">
        <ele>2253.47</ele>
        <time>2010-08-03T07:52:57Z</time>
      </trkpt>
      <trkpt lat="45.37469" lon="6.75436">
        <ele>2251.06</ele>
        <time>2010-08-03T07:53:06Z</time>
      </trkpt>
      <trkpt lat="45.37472" lon="6.75439">
        <ele>2245.78</ele>
        <time>2010-08-03T07:53:12Z</time>
      </trkpt>
      <trkpt lat="45.37473" lon="6.75438">
        <ele>2249.14</ele>
        <time>2010-08-03T07:53:14Z</time>
      </trkpt>
      <trkpt lat="45.37473" lon="6.75439">
        <ele>2247.7</ele>
        <time>2010-08-03T07:53:17Z</time>
      </trkpt>
      <trkpt lat="45.37485" lon="6.75457">
        <ele>2244.33</ele>
        <time>2010-08-03T07:53:31Z</time>
      </trkpt>
      <trkpt lat="45.37486" lon="6.75455">
        <ele>2243.37</ele>
        <time>2010-08-03T07:53:33Z</time>
      </trkpt>
      <trkpt lat="45.37494" lon="6.75448">
        <ele>2240.97</ele>
        <time>2010-08-03T07:53:45Z</time>
      </trkpt>
      <trkpt lat="45.37493" lon="6.75441">
        <ele>2238.09</ele>
        <time>2010-08-03T07:53:53Z</time>
      </trkpt>
      <trkpt lat="45.3749" lon="6.75427">
        <ele>2234.72</ele>
        <time>2010-08-03T07:54:08Z</time>
      </trkpt>
      <trkpt lat="45.37489" lon="6.75412">
        <ele>2232.8</ele>
        <time>2010-08-03T07:54:19Z</time>
      </trkpt>
      <trkpt lat="45.37493" lon="6.75418">
        <ele>2230.4</ele>
        <time>2010-08-03T07:54:29Z</time>
      </trkpt>
      <trkpt lat="45.375" lon="6.75426">
        <ele>2227.03</ele>
        <time>2010-08-03T07:54:53Z</time>
      </trkpt>
      <trkpt lat="45.37508" lon="6.75431">
        <ele>2224.15</ele>
        <time>2010-08-03T07:55:01Z</time>
      </trkpt>
      <trkpt lat="45.37514" lon="6.75435">
        <ele>2222.22</ele>
        <time>2010-08-03T07:55:07Z</time>
      </trkpt>
      <trkpt lat="45.37519" lon="6.75442">
        <ele>2218.38</ele>
        <time>2010-08-03T07:55:19Z</time>
      </trkpt>
      <trkpt lat="45.3752" lon="6.75443">
        <ele>2218.38</ele>
        <time>2010-08-03T07:55:20Z</time>
      </trkpt>
      <trkpt lat="45.37529" lon="6.75448">
        <ele>2216.46</ele>
        <time>2010-08-03T07:55:32Z</time>
      </trkpt>
      <trkpt lat="45.37533" lon="6.75446">
        <ele>2213.57</ele>
        <time>2010-08-03T07:55:44Z</time>
      </trkpt>
      <trkpt lat="45.37535" lon="6.75445">
        <ele>2213.09</ele>
        <time>2010-08-03T07:55:46Z</time>
      </trkpt>
      <trkpt lat="45.37547" lon="6.75451">
        <ele>2209.73</ele>
        <time>2010-08-03T07:55:57Z</time>
      </trkpt>
      <trkpt lat="45.37554" lon="6.75448">
        <ele>2206.36</ele>
        <time>2010-08-03T07:56:08Z</time>
      </trkpt>
      <trkpt lat="45.37556" lon="6.75441">
        <ele>2203</ele>
        <time>2010-08-03T07:56:23Z</time>
      </trkpt>
      <trkpt lat="45.3756" lon="6.75431">
        <ele>2199.63</ele>
        <time>2010-08-03T07:56:40Z</time>
      </trkpt>
      <trkpt lat="45.37565" lon="6.75428">
        <ele>2196.75</ele>
        <time>2010-08-03T07:56:50Z</time>
      </trkpt>
      <trkpt lat="45.37566" lon="6.75428">
        <ele>2196.75</ele>
        <time>2010-08-03T07:56:51Z</time>
      </trkpt>
      <trkpt lat="45.37571" lon="6.7543">
        <ele>2193.87</ele>
        <time>2010-08-03T07:57:04Z</time>
      </trkpt>
      <trkpt lat="45.37572" lon="6.75431">
        <ele>2191.94</ele>
        <time>2010-08-03T07:57:11Z</time>
      </trkpt>
      <trkpt lat="45.37579" lon="6.75434">
        <ele>2189.06</ele>
        <time>2010-08-03T07:57:25Z</time>
      </trkpt>
      <trkpt lat="45.37583" lon="6.75429">
        <ele>2186.66</ele>
        <time>2010-08-03T07:57:37Z</time>
      </trkpt>
      <trkpt lat="45.37588" lon="6.75424">
        <ele>2184.25</ele>
        <time>2010-08-03T07:57:47Z</time>
      </trkpt>
      <trkpt lat="45.3759" lon="6.75422">
        <ele>2182.33</ele>
        <time>2010-08-03T07:57:55Z</time>
      </trkpt>
      <trkpt lat="45.37592" lon="6.75414">
        <ele>2180.41</ele>
        <time>2010-08-03T07:58:04Z</time>
      </trkpt>
      <trkpt lat="45.37595" lon="6.75404">
        <ele>2177.04</ele>
        <time>2010-08-03T07:58:15Z</time>
      </trkpt>
      <trkpt lat="45.37596" lon="6.75397">
        <ele>2174.16</ele>
        <time>2010-08-03T07:58:23Z</time>
      </trkpt>
      <trkpt lat="45.37596" lon="6.75395">
        <ele>2174.16</ele>
        <time>2010-08-03T07:58:24Z</time>
      </trkpt>
      <trkpt lat="45.37589" lon="6.75378">
        <ele>2169.83</ele>
        <time>2010-08-03T07:58:36Z</time>
      </trkpt>
      <trkpt lat="45.37587" lon="6.75361">
        <ele>2166.95</ele>
        <time>2010-08-03T07:58:53Z</time>
      </trkpt>
      <trkpt lat="45.37588" lon="6.75346">
        <ele>2164.55</ele>
        <time>2010-08-03T07:59:04Z</time>
      </trkpt>
      <trkpt lat="45.3759" lon="6.75328">
        <ele>2161.66</ele>
        <time>2010-08-03T07:59:16Z</time>
      </trkpt>
      <trkpt lat="45.37591" lon="6.75316">
        <ele>2159.26</ele>
        <time>2010-08-03T07:59:26Z</time>
      </trkpt>
      <trkpt lat="45.37594" lon="6.75304">
        <ele>2154.93</ele>
        <time>2010-08-03T07:59:37Z</time>
      </trkpt>
      <trkpt lat="45.37595" lon="6.75301">
        <ele>2154.45</ele>
        <time>2010-08-03T07:59:42Z</time>
      </trkpt>
      <trkpt lat="45.376" lon="6.75314">
        <ele>2151.57</ele>
        <time>2010-08-03T07:59:53Z</time>
      </trkpt>
      <trkpt lat="45.37604" lon="6.7532">
        <ele>2148.68</ele>
        <time>2010-08-03T08:00:03Z</time>
      </trkpt>
      <trkpt lat="45.37606" lon="6.75322">
        <ele>2148.2</ele>
        <time>2010-08-03T08:00:18Z</time>
      </trkpt>
      <trkpt lat="45.37608" lon="6.75324">
        <ele>2147.24</ele>
        <time>2010-08-03T08:00:20Z</time>
      </trkpt>
      <trkpt lat="45.37615" lon="6.75334">
        <ele>2144.84</ele>
        <time>2010-08-03T08:00:30Z</time>
      </trkpt>
      <trkpt lat="45.37617" lon="6.75336">
        <ele>2143.88</ele>
        <time>2010-08-03T08:00:32Z</time>
      </trkpt>
      <trkpt lat="45.37619" lon="6.75339">
        <ele>2142.44</ele>
        <time>2010-08-03T08:00:37Z</time>
      </trkpt>
      <trkpt lat="45.37622" lon="6.75341">
        <ele>2141.95</ele>
        <time>2010-08-03T08:00:40Z</time>
      </trkpt>
      <trkpt lat="45.37628" lon="6.75351">
        <ele>2138.59</ele>
        <time>2010-08-03T08:00:51Z</time>
      </trkpt>
      <trkpt lat="45.37628" lon="6.75354">
        <ele>2137.63</ele>
        <time>2010-08-03T08:00:54Z</time>
      </trkpt>
      <trkpt lat="45.37628" lon="6.75357">
        <ele>2137.15</ele>
        <time>2010-08-03T08:00:56Z</time>
      </trkpt>
      <trkpt lat="45.37631" lon="6.75369">
        <ele>2134.26</ele>
        <time>2010-08-03T08:01:05Z</time>
      </trkpt>
      <trkpt lat="45.37631" lon="6.7537">
        <ele>2134.26</ele>
        <time>2010-08-03T08:01:06Z</time>
      </trkpt>
      <trkpt lat="45.37632" lon="6.75368">
        <ele>2134.26</ele>
        <time>2010-08-03T08:01:10Z</time>
      </trkpt>
      <trkpt lat="45.37636" lon="6.75363">
        <ele>2132.34</ele>
        <time>2010-08-03T08:01:15Z</time>
      </trkpt>
      <trkpt lat="45.37643" lon="6.75357">
        <ele>2130.9</ele>
        <time>2010-08-03T08:01:21Z</time>
      </trkpt>
      <trkpt lat="45.37649" lon="6.75352">
        <ele>2128.5</ele>
        <time>2010-08-03T08:01:32Z</time>
      </trkpt>
      <trkpt lat="45.37654" lon="6.75369">
        <ele>2125.13</ele>
        <time>2010-08-03T08:01:46Z</time>
      </trkpt>
      <trkpt lat="45.37659" lon="6.75377">
        <ele>2123.69</ele>
        <time>2010-08-03T08:01:57Z</time>
      </trkpt>
      <trkpt lat="45.37664" lon="6.75386">
        <ele>2121.29</ele>
        <time>2010-08-03T08:02:09Z</time>
      </trkpt>
      <trkpt lat="45.37667" lon="6.75391">
        <ele>2118.4</ele>
        <time>2010-08-03T08:02:19Z</time>
      </trkpt>
      <trkpt lat="45.37671" lon="6.75397">
        <ele>2115.04</ele>
        <time>2010-08-03T08:02:31Z</time>
      </trkpt>
      <trkpt lat="45.37673" lon="6.75402">
        <ele>2115.04</ele>
        <time>2010-08-03T08:02:35Z</time>
      </trkpt>
      <trkpt lat="45.37676" lon="6.7542">
        <ele>2115.52</ele>
        <time>2010-08-03T08:02:49Z</time>
      </trkpt>
      <trkpt lat="45.37682" lon="6.75434">
        <ele>2114.08</ele>
        <time>2010-08-03T08:03:02Z</time>
      </trkpt>
      <trkpt lat="45.37682" lon="6.7545">
        <ele>2113.12</ele>
        <time>2010-08-03T08:03:16Z</time>
      </trkpt>
      <trkpt lat="45.37685" lon="6.7546">
        <ele>2111.67</ele>
        <time>2010-08-03T08:03:25Z</time>
      </trkpt>
      <trkpt lat="45.37688" lon="6.75465">
        <ele>2111.67</ele>
        <time>2010-08-03T08:03:30Z</time>
      </trkpt>
      <trkpt lat="45.37692" lon="6.75479">
        <ele>2111.19</ele>
        <time>2010-08-03T08:03:40Z</time>
      </trkpt>
      <trkpt lat="45.37694" lon="6.75491">
        <ele>2110.23</ele>
        <time>2010-08-03T08:03:51Z</time>
      </trkpt>
      <trkpt lat="45.37696" lon="6.75504">
        <ele>2109.75</ele>
        <time>2010-08-03T08:04:03Z</time>
      </trkpt>
      <trkpt lat="45.37699" lon="6.75515">
        <ele>2106.87</ele>
        <time>2010-08-03T08:04:15Z</time>
      </trkpt>
      <trkpt lat="45.37707" lon="6.75516">
        <ele>2103.98</ele>
        <time>2010-08-03T08:04:32Z</time>
      </trkpt>
      <trkpt lat="45.37711" lon="6.75515">
        <ele>2101.1</ele>
        <time>2010-08-03T08:04:42Z</time>
      </trkpt>
      <trkpt lat="45.37713" lon="6.75518">
        <ele>2098.7</ele>
        <time>2010-08-03T08:04:57Z</time>
      </trkpt>
      <trkpt lat="45.37715" lon="6.75517">
        <ele>2095.81</ele>
        <time>2010-08-03T08:05:09Z</time>
      </trkpt>
      <trkpt lat="45.37718" lon="6.75517">
        <ele>2092.45</ele>
        <time>2010-08-03T08:05:25Z</time>
      </trkpt>
      <trkpt lat="45.37718" lon="6.75517">
        <ele>2092.93</ele>
        <time>2010-08-03T08:05:26Z</time>
      </trkpt>
      <trkpt lat="45.3772" lon="6.75516">
        <ele>2089.56</ele>
        <time>2010-08-03T08:05:45Z</time>
      </trkpt>
      <trkpt lat="45.37726" lon="6.75512">
        <ele>2086.68</ele>
        <time>2010-08-03T08:05:56Z</time>
      </trkpt>
      <trkpt lat="45.37727" lon="6.75512">
        <ele>2085.24</ele>
        <time>2010-08-03T08:06:00Z</time>
      </trkpt>
      <trkpt lat="45.37735" lon="6.75508">
        <ele>2081.87</ele>
        <time>2010-08-03T08:06:10Z</time>
      </trkpt>
      <trkpt lat="45.37738" lon="6.75504">
        <ele>2080.43</ele>
        <time>2010-08-03T08:06:16Z</time>
      </trkpt>
      <trkpt lat="45.3774" lon="6.75501">
        <ele>2078.03</ele>
        <time>2010-08-03T08:06:24Z</time>
      </trkpt>
      <trkpt lat="45.37745" lon="6.75496">
        <ele>2075.14</ele>
        <time>2010-08-03T08:06:34Z</time>
      </trkpt>
      <trkpt lat="45.3775" lon="6.75505">
        <ele>2074.66</ele>
        <time>2010-08-03T08:06:50Z</time>
      </trkpt>
      <trkpt lat="45.37757" lon="6.75507">
        <ele>2075.14</ele>
        <time>2010-08-03T08:07:05Z</time>
      </trkpt>
      <trkpt lat="45.37758" lon="6.75509">
        <ele>2074.66</ele>
        <time>2010-08-03T08:07:06Z</time>
      </trkpt>
      <trkpt lat="45.37762" lon="6.75515">
        <ele>2074.18</ele>
        <time>2010-08-03T08:07:13Z</time>
      </trkpt>
      <trkpt lat="45.37765" lon="6.75518">
        <ele>2075.62</ele>
        <time>2010-08-03T08:07:16Z</time>
      </trkpt>
      <trkpt lat="45.37773" lon="6.75524">
        <ele>2075.14</ele>
        <time>2010-08-03T08:07:27Z</time>
      </trkpt>
      <trkpt lat="45.37783" lon="6.75533">
        <ele>2075.62</ele>
        <time>2010-08-03T08:07:45Z</time>
      </trkpt>
      <trkpt lat="45.37787" lon="6.75535">
        <ele>2072.26</ele>
        <time>2010-08-03T08:07:56Z</time>
      </trkpt>
      <trkpt lat="45.37795" lon="6.75542">
        <ele>2071.3</ele>
        <time>2010-08-03T08:08:26Z</time>
      </trkpt>
      <trkpt lat="45.378" lon="6.75535">
        <ele>2067.93</ele>
        <time>2010-08-03T08:09:10Z</time>
      </trkpt>
      <trkpt lat="45.37802" lon="6.75528">
        <ele>2066.49</ele>
        <time>2010-08-03T08:09:20Z</time>
      </trkpt>
      <trkpt lat="45.37805" lon="6.75525">
        <ele>2063.61</ele>
        <time>2010-08-03T08:09:32Z</time>
      </trkpt>
      <trkpt lat="45.37808" lon="6.75527">
        <ele>2061.68</ele>
        <time>2010-08-03T08:09:45Z</time>
      </trkpt>
      <trkpt lat="45.37814" lon="6.75521">
        <ele>2058.32</ele>
        <time>2010-08-03T08:09:57Z</time>
      </trkpt>
      <trkpt lat="45.37815" lon="6.75514">
        <ele>2056.88</ele>
        <time>2010-08-03T08:10:03Z</time>
      </trkpt>
      <trkpt lat="45.37822" lon="6.75518">
        <ele>2054.96</ele>
        <time>2010-08-03T08:10:15Z</time>
      </trkpt>
      <trkpt lat="45.37826" lon="6.75524">
        <ele>2053.03</ele>
        <time>2010-08-03T08:11:13Z</time>
      </trkpt>
      <trkpt lat="45.37825" lon="6.75525">
        <ele>2053.03</ele>
        <time>2010-08-03T08:11:48Z</time>
      </trkpt>
      <trkpt lat="45.37829" lon="6.75528">
        <ele>2052.55</ele>
        <time>2010-08-03T08:12:08Z</time>
      </trkpt>
      <trkpt lat="45.3783" lon="6.75529">
        <ele>2053.51</ele>
        <time>2010-08-03T08:12:35Z</time>
      </trkpt>
      <trkpt lat="45.3783" lon="6.75529">
        <ele>2050.15</ele>
        <time>2010-08-03T08:12:40Z</time>
      </trkpt>
      <trkpt lat="45.3783" lon="6.75529">
        <ele>2053.51</ele>
        <time>2010-08-03T08:12:43Z</time>
      </trkpt>
      <trkpt lat="45.3783" lon="6.75529">
        <ele>2057.84</ele>
        <time>2010-08-03T08:12:45Z</time>
      </trkpt>
      <trkpt lat="45.3783" lon="6.75529">
        <ele>2054.47</ele>
        <time>2010-08-03T08:12:46Z</time>
      </trkpt>
      <trkpt lat="45.3783" lon="6.75529">
        <ele>2052.55</ele>
        <time>2010-08-03T08:12:49Z</time>
      </trkpt>
      <trkpt lat="45.3783" lon="6.75529">
        <ele>2047.75</ele>
        <time>2010-08-03T08:12:50Z</time>
      </trkpt>
      <trkpt lat="45.3783" lon="6.75529">
        <ele>2054.47</ele>
        <time>2010-08-03T08:12:51Z</time>
      </trkpt>
      <trkpt lat="45.3783" lon="6.75529">
        <ele>2051.11</ele>
        <time>2010-08-03T08:12:52Z</time>
      </trkpt>
      <trkpt lat="45.3783" lon="6.75529">
        <ele>2053.99</ele>
        <time>2010-08-03T08:12:54Z</time>
      </trkpt>
      <trkpt lat="45.3783" lon="6.75529">
        <ele>2052.55</ele>
        <time>2010-08-03T08:12:57Z</time>
      </trkpt>
      <trkpt lat="45.3783" lon="6.75529">
        <ele>2052.55</ele>
        <time>2010-08-03T08:13:31Z</time>
      </trkpt>
      <trkpt lat="45.3783" lon="6.75529">
        <ele>2050.63</ele>
        <time>2010-08-03T08:13:50Z</time>
      </trkpt>
      <trkpt lat="45.3783" lon="6.75529">
        <ele>2038.61</ele>
        <time>2010-08-03T08:28:13Z</time>
      </trkpt>
      <trkpt lat="45.3783" lon="6.75529">
        <ele>2052.55</ele>
        <time>2010-08-03T08:28:15Z</time>
      </trkpt>
      <trkpt lat="45.3783" lon="6.75529">
        <ele>2050.63</ele>
        <time>2010-08-03T08:28:19Z</time>
      </trkpt>
      <trkpt lat="45.3783" lon="6.75529">
        <ele>2053.99</ele>
        <time>2010-08-03T08:28:26Z</time>
      </trkpt>
      <trkpt lat="45.3783" lon="6.75529">
        <ele>2051.59</ele>
        <time>2010-08-03T08:28:27Z</time>
      </trkpt>
      <trkpt lat="45.3783" lon="6.75529">
        <ele>2053.99</ele>
        <time>2010-08-03T08:28:28Z</time>
      </trkpt>
      <trkpt lat="45.3783" lon="6.75529">
        <ele>2053.51</ele>
        <time>2010-08-03T08:28:29Z</time>
      </trkpt>
      <trkpt lat="45.37846" lon="6.75527">
        <ele>2049.67</ele>
        <time>2010-08-03T08:28:30Z</time>
      </trkpt>
      <trkpt lat="45.37847" lon="6.75527">
        <ele>2049.67</ele>
        <time>2010-08-03T08:28:31Z</time>
      </trkpt>
      <trkpt lat="45.37835" lon="6.75528">
        <ele>2053.03</ele>
        <time>2010-08-03T08:28:50Z</time>
      </trkpt>
      <trkpt lat="45.37834" lon="6.75531">
        <ele>2049.67</ele>
        <time>2010-08-03T08:29:07Z</time>
      </trkpt>
      <trkpt lat="45.37834" lon="6.75531">
        <ele>2048.23</ele>
        <time>2010-08-03T08:29:12Z</time>
      </trkpt>
      <trkpt lat="45.37832" lon="6.75531">
        <ele>2044.86</ele>
        <time>2010-08-03T08:29:27Z</time>
      </trkpt>
      <trkpt lat="45.37831" lon="6.75532">
        <ele>2041.02</ele>
        <time>2010-08-03T08:29:46Z</time>
      </trkpt>
      <trkpt lat="45.37833" lon="6.75533">
        <ele>2038.13</ele>
        <time>2010-08-03T08:30:17Z</time>
      </trkpt>
      <trkpt lat="45.37832" lon="6.7553">
        <ele>2036.69</ele>
        <time>2010-08-03T08:31:00Z</time>
      </trkpt>
      <trkpt lat="45.37831" lon="6.75524">
        <ele>2036.69</ele>
        <time>2010-08-03T08:31:12Z</time>
      </trkpt>
      <trkpt lat="45.37829" lon="6.75523">
        <ele>2037.65</ele>
        <time>2010-08-03T08:31:27Z</time>
      </trkpt>
      <trkpt lat="45.37829" lon="6.75523">
        <ele>2038.61</ele>
        <time>2010-08-03T08:31:34Z</time>
      </trkpt>
      <trkpt lat="45.37829" lon="6.75523">
        <ele>2037.65</ele>
        <time>2010-08-03T08:31:36Z</time>
      </trkpt>
      <trkpt lat="45.37829" lon="6.7552">
        <ele>2037.65</ele>
        <time>2010-08-03T08:31:49Z</time>
      </trkpt>
      <trkpt lat="45.37831" lon="6.75518">
        <ele>2036.69</ele>
        <time>2010-08-03T08:31:52Z</time>
      </trkpt>
      <trkpt lat="45.37832" lon="6.75508">
        <ele>2033.81</ele>
        <time>2010-08-03T08:32:01Z</time>
      </trkpt>
      <trkpt lat="45.37839" lon="6.75514">
        <ele>2031.4</ele>
        <time>2010-08-03T08:32:15Z</time>
      </trkpt>
      <trkpt lat="45.37843" lon="6.75522">
        <ele>2030.44</ele>
        <time>2010-08-03T08:32:27Z</time>
      </trkpt>
      <trkpt lat="45.37844" lon="6.7552">
        <ele>2029</ele>
        <time>2010-08-03T08:32:32Z</time>
      </trkpt>
      <trkpt lat="45.37843" lon="6.75515">
        <ele>2028.04</ele>
        <time>2010-08-03T08:32:37Z</time>
      </trkpt>
      <trkpt lat="45.37846" lon="6.75509">
        <ele>2025.64</ele>
        <time>2010-08-03T08:32:49Z</time>
      </trkpt>
      <trkpt lat="45.37852" lon="6.75511">
        <ele>2023.23</ele>
        <time>2010-08-03T08:33:01Z</time>
      </trkpt>
      <trkpt lat="45.37857" lon="6.75508">
        <ele>2020.83</ele>
        <time>2010-08-03T08:33:14Z</time>
      </trkpt>
      <trkpt lat="45.37857" lon="6.75502">
        <ele>2017.94</ele>
        <time>2010-08-03T08:33:26Z</time>
      </trkpt>
      <trkpt lat="45.37857" lon="6.75499">
        <ele>2016.98</ele>
        <time>2010-08-03T08:33:30Z</time>
      </trkpt>
      <trkpt lat="45.37858" lon="6.75497">
        <ele>2015.06</ele>
        <time>2010-08-03T08:33:42Z</time>
      </trkpt>
      <trkpt lat="45.37859" lon="6.75494">
        <ele>2013.62</ele>
        <time>2010-08-03T08:33:56Z</time>
      </trkpt>
      <trkpt lat="45.3786" lon="6.7549">
        <ele>2011.7</ele>
        <time>2010-08-03T08:34:09Z</time>
      </trkpt>
      <trkpt lat="45.3786" lon="6.75486">
        <ele>2010.25</ele>
        <time>2010-08-03T08:34:13Z</time>
      </trkpt>
      <trkpt lat="45.37864" lon="6.75486">
        <ele>2008.33</ele>
        <time>2010-08-03T08:34:28Z</time>
      </trkpt>
      <trkpt lat="45.37867" lon="6.7549">
        <ele>2005.93</ele>
        <time>2010-08-03T08:34:45Z</time>
      </trkpt>
      <trkpt lat="45.37869" lon="6.75491">
        <ele>2003.52</ele>
        <time>2010-08-03T08:35:02Z</time>
      </trkpt>
      <trkpt lat="45.37874" lon="6.75498">
        <ele>2001.12</ele>
        <time>2010-08-03T08:35:17Z</time>
      </trkpt>
      <trkpt lat="45.37875" lon="6.755">
        <ele>2000.64</ele>
        <time>2010-08-03T08:35:19Z</time>
      </trkpt>
      <trkpt lat="45.37881" lon="6.75508">
        <ele>1998.72</ele>
        <time>2010-08-03T08:35:30Z</time>
      </trkpt>
      <trkpt lat="45.3788" lon="6.75513">
        <ele>1997.28</ele>
        <time>2010-08-03T08:35:53Z</time>
      </trkpt>
      <trkpt lat="45.37879" lon="6.75513">
        <ele>1996.32</ele>
        <time>2010-08-03T08:36:08Z</time>
      </trkpt>
      <trkpt lat="45.37881" lon="6.75512">
        <ele>1994.39</ele>
        <time>2010-08-03T08:36:25Z</time>
      </trkpt>
      <trkpt lat="45.37886" lon="6.75511">
        <ele>1991.51</ele>
        <time>2010-08-03T08:36:42Z</time>
      </trkpt>
      <trkpt lat="45.37889" lon="6.75512">
        <ele>1988.14</ele>
        <time>2010-08-03T08:37:05Z</time>
      </trkpt>
      <trkpt lat="45.37892" lon="6.75501">
        <ele>1985.74</ele>
        <time>2010-08-03T08:37:18Z</time>
      </trkpt>
      <trkpt lat="45.37892" lon="6.75494">
        <ele>1983.82</ele>
        <time>2010-08-03T08:37:29Z</time>
      </trkpt>
      <trkpt lat="45.37893" lon="6.75491">
        <ele>1982.86</ele>
        <time>2010-08-03T08:37:34Z</time>
      </trkpt>
      <trkpt lat="45.37901" lon="6.75498">
        <ele>1979.97</ele>
        <time>2010-08-03T08:37:46Z</time>
      </trkpt>
      <trkpt lat="45.379" lon="6.75491">
        <ele>1977.57</ele>
        <time>2010-08-03T08:38:01Z</time>
      </trkpt>
      <trkpt lat="45.37904" lon="6.75488">
        <ele>1974.2</ele>
        <time>2010-08-03T08:38:15Z</time>
      </trkpt>
      <trkpt lat="45.37906" lon="6.75489">
        <ele>1973.72</ele>
        <time>2010-08-03T08:38:17Z</time>
      </trkpt>
      <trkpt lat="45.37912" lon="6.75488">
        <ele>1971.32</ele>
        <time>2010-08-03T08:38:29Z</time>
      </trkpt>
      <trkpt lat="45.37915" lon="6.75486">
        <ele>1968.44</ele>
        <time>2010-08-03T08:38:40Z</time>
      </trkpt>
      <trkpt lat="45.37907" lon="6.75471">
        <ele>1965.55</ele>
        <time>2010-08-03T08:38:55Z</time>
      </trkpt>
      <trkpt lat="45.37912" lon="6.75468">
        <ele>1962.19</ele>
        <time>2010-08-03T08:39:10Z</time>
      </trkpt>
      <trkpt lat="45.37913" lon="6.75467">
        <ele>1962.19</ele>
        <time>2010-08-03T08:39:11Z</time>
      </trkpt>
      <trkpt lat="45.37913" lon="6.7546">
        <ele>1959.78</ele>
        <time>2010-08-03T08:39:21Z</time>
      </trkpt>
      <trkpt lat="45.37916" lon="6.75456">
        <ele>1958.34</ele>
        <time>2010-08-03T08:39:31Z</time>
      </trkpt>
      <trkpt lat="45.37916" lon="6.7545">
        <ele>1955.94</ele>
        <time>2010-08-03T08:39:43Z</time>
      </trkpt>
      <trkpt lat="45.37918" lon="6.75445">
        <ele>1953.54</ele>
        <time>2010-08-03T08:40:00Z</time>
      </trkpt>
      <trkpt lat="45.37924" lon="6.7545">
        <ele>1951.61</ele>
        <time>2010-08-03T08:40:09Z</time>
      </trkpt>
      <trkpt lat="45.3793" lon="6.75452">
        <ele>1949.69</ele>
        <time>2010-08-03T08:40:19Z</time>
      </trkpt>
      <trkpt lat="45.37939" lon="6.75454">
        <ele>1947.29</ele>
        <time>2010-08-03T08:40:29Z</time>
      </trkpt>
      <trkpt lat="45.37942" lon="6.75444">
        <ele>1945.36</ele>
        <time>2010-08-03T08:40:39Z</time>
      </trkpt>
      <trkpt lat="45.37943" lon="6.75445">
        <ele>1944.4</ele>
        <time>2010-08-03T08:40:40Z</time>
      </trkpt>
      <trkpt lat="45.37945" lon="6.75451">
        <ele>1943.92</ele>
        <time>2010-08-03T08:40:53Z</time>
      </trkpt>
      <trkpt lat="45.37948" lon="6.7545">
        <ele>1941.52</ele>
        <time>2010-08-03T08:41:23Z</time>
      </trkpt>
      <trkpt lat="45.37952" lon="6.7545">
        <ele>1940.08</ele>
        <time>2010-08-03T08:41:38Z</time>
      </trkpt>
      <trkpt lat="45.37953" lon="6.75452">
        <ele>1938.64</ele>
        <time>2010-08-03T08:41:48Z</time>
      </trkpt>
      <trkpt lat="45.37956" lon="6.75452">
        <ele>1936.71</ele>
        <time>2010-08-03T08:42:01Z</time>
      </trkpt>
      <trkpt lat="45.37959" lon="6.75452">
        <ele>1935.75</ele>
        <time>2010-08-03T08:42:14Z</time>
      </trkpt>
      <trkpt lat="45.37961" lon="6.75455">
        <ele>1935.75</ele>
        <time>2010-08-03T08:42:38Z</time>
      </trkpt>
      <trkpt lat="45.37963" lon="6.75458">
        <ele>1933.35</ele>
        <time>2010-08-03T08:42:52Z</time>
      </trkpt>
      <trkpt lat="45.37964" lon="6.75458">
        <ele>1933.35</ele>
        <time>2010-08-03T08:42:55Z</time>
      </trkpt>
      <trkpt lat="45.37962" lon="6.75449">
        <ele>1930.95</ele>
        <time>2010-08-03T08:43:04Z</time>
      </trkpt>
      <trkpt lat="45.37961" lon="6.75439">
        <ele>1929.02</ele>
        <time>2010-08-03T08:43:13Z</time>
      </trkpt>
      <trkpt lat="45.37972" lon="6.75443">
        <ele>1927.1</ele>
        <time>2010-08-03T08:43:25Z</time>
      </trkpt>
      <trkpt lat="45.37974" lon="6.75444">
        <ele>1925.18</ele>
        <time>2010-08-03T08:43:30Z</time>
      </trkpt>
      <trkpt lat="45.37979" lon="6.75447">
        <ele>1922.77</ele>
        <time>2010-08-03T08:43:42Z</time>
      </trkpt>
      <trkpt lat="45.37976" lon="6.75433">
        <ele>1920.37</ele>
        <time>2010-08-03T08:43:54Z</time>
      </trkpt>
      <trkpt lat="45.37976" lon="6.7542">
        <ele>1917.97</ele>
        <time>2010-08-03T08:44:05Z</time>
      </trkpt>
      <trkpt lat="45.37978" lon="6.75414">
        <ele>1915.08</ele>
        <time>2010-08-03T08:44:17Z</time>
      </trkpt>
      <trkpt lat="45.37981" lon="6.75419">
        <ele>1915.08</ele>
        <time>2010-08-03T08:44:21Z</time>
      </trkpt>
      <trkpt lat="45.37982" lon="6.75426">
        <ele>1914.12</ele>
        <time>2010-08-03T08:44:27Z</time>
      </trkpt>
      <trkpt lat="45.37991" lon="6.75433">
        <ele>1911.72</ele>
        <time>2010-08-03T08:44:39Z</time>
      </trkpt>
      <trkpt lat="45.37991" lon="6.75436">
        <ele>1911.24</ele>
        <time>2010-08-03T08:44:42Z</time>
      </trkpt>
      <trkpt lat="45.37995" lon="6.7544">
        <ele>1910.76</ele>
        <time>2010-08-03T08:44:47Z</time>
      </trkpt>
      <trkpt lat="45.38006" lon="6.75435">
        <ele>1907.39</ele>
        <time>2010-08-03T08:45:01Z</time>
      </trkpt>
      <trkpt lat="45.38006" lon="6.75434">
        <ele>1907.39</ele>
        <time>2010-08-03T08:45:02Z</time>
      </trkpt>
      <trkpt lat="45.38005" lon="6.75423">
        <ele>1904.03</ele>
        <time>2010-08-03T08:45:14Z</time>
      </trkpt>
      <trkpt lat="45.38009" lon="6.75415">
        <ele>1900.66</ele>
        <time>2010-08-03T08:45:26Z</time>
      </trkpt>
      <trkpt lat="45.3801" lon="6.75415">
        <ele>1901.14</ele>
        <time>2010-08-03T08:45:27Z</time>
      </trkpt>
      <trkpt lat="45.38015" lon="6.75419">
        <ele>1898.26</ele>
        <time>2010-08-03T08:45:42Z</time>
      </trkpt>
      <trkpt lat="45.38014" lon="6.75412">
        <ele>1895.86</ele>
        <time>2010-08-03T08:45:57Z</time>
      </trkpt>
      <trkpt lat="45.38017" lon="6.75414">
        <ele>1895.86</ele>
        <time>2010-08-03T08:46:15Z</time>
      </trkpt>
      <trkpt lat="45.38021" lon="6.75414">
        <ele>1893.93</ele>
        <time>2010-08-03T08:46:23Z</time>
      </trkpt>
      <trkpt lat="45.38021" lon="6.75412">
        <ele>1893.45</ele>
        <time>2010-08-03T08:46:28Z</time>
      </trkpt>
      <trkpt lat="45.38019" lon="6.75402">
        <ele>1890.09</ele>
        <time>2010-08-03T08:46:39Z</time>
      </trkpt>
      <trkpt lat="45.3802" lon="6.75397">
        <ele>1888.17</ele>
        <time>2010-08-03T08:46:48Z</time>
      </trkpt>
      <trkpt lat="45.3802" lon="6.7539">
        <ele>1885.76</ele>
        <time>2010-08-03T08:47:01Z</time>
      </trkpt>
      <trkpt lat="45.38022" lon="6.7539">
        <ele>1885.28</ele>
        <time>2010-08-03T08:47:05Z</time>
      </trkpt>
      <trkpt lat="45.38026" lon="6.75385">
        <ele>1883.36</ele>
        <time>2010-08-03T08:47:21Z</time>
      </trkpt>
      <trkpt lat="45.38028" lon="6.75383">
        <ele>1883.36</ele>
        <time>2010-08-03T08:47:40Z</time>
      </trkpt>
      <trkpt lat="45.38032" lon="6.75381">
        <ele>1883.36</ele>
        <time>2010-08-03T08:48:44Z</time>
      </trkpt>
      <trkpt lat="45.38038" lon="6.75372">
        <ele>1881.92</ele>
        <time>2010-08-03T08:48:52Z</time>
      </trkpt>
      <trkpt lat="45.38041" lon="6.75368">
        <ele>1881.92</ele>
        <time>2010-08-03T08:48:56Z</time>
      </trkpt>
      <trkpt lat="45.38044" lon="6.75363">
        <ele>1881.44</ele>
        <time>2010-08-03T08:49:01Z</time>
      </trkpt>
      <trkpt lat="45.38048" lon="6.75357">
        <ele>1880.96</ele>
        <time>2010-08-03T08:49:05Z</time>
      </trkpt>
      <trkpt lat="45.38048" lon="6.75342">
        <ele>1880</ele>
        <time>2010-08-03T08:49:18Z</time>
      </trkpt>
      <trkpt lat="45.38053" lon="6.75344">
        <ele>1881.44</ele>
        <time>2010-08-03T08:49:31Z</time>
      </trkpt>
      <trkpt lat="45.38053" lon="6.75347">
        <ele>1882.4</ele>
        <time>2010-08-03T08:49:38Z</time>
      </trkpt>
      <trkpt lat="45.38049" lon="6.75349">
        <ele>1884.8</ele>
        <time>2010-08-03T08:49:49Z</time>
      </trkpt>
      <trkpt lat="45.38055" lon="6.7536">
        <ele>1887.69</ele>
        <time>2010-08-03T08:50:38Z</time>
      </trkpt>
      <trkpt lat="45.38061" lon="6.75368">
        <ele>1889.13</ele>
        <time>2010-08-03T08:50:50Z</time>
      </trkpt>
      <trkpt lat="45.38064" lon="6.75371">
        <ele>1889.61</ele>
        <time>2010-08-03T08:50:55Z</time>
      </trkpt>
      <trkpt lat="45.38065" lon="6.75376">
        <ele>1891.05</ele>
        <time>2010-08-03T08:51:00Z</time>
      </trkpt>
      <trkpt lat="45.3807" lon="6.75384">
        <ele>1892.49</ele>
        <time>2010-08-03T08:51:10Z</time>
      </trkpt>
      <trkpt lat="45.38076" lon="6.7539">
        <ele>1894.9</ele>
        <time>2010-08-03T08:51:29Z</time>
      </trkpt>
      <trkpt lat="45.3808" lon="6.75396">
        <ele>1896.82</ele>
        <time>2010-08-03T08:51:40Z</time>
      </trkpt>
      <trkpt lat="45.38084" lon="6.75401">
        <ele>1898.74</ele>
        <time>2010-08-03T08:51:55Z</time>
      </trkpt>
      <trkpt lat="45.3809" lon="6.75408">
        <ele>1901.14</ele>
        <time>2010-08-03T08:52:05Z</time>
      </trkpt>
      <trkpt lat="45.3809" lon="6.75409">
        <ele>1901.14</ele>
        <time>2010-08-03T08:52:06Z</time>
      </trkpt>
      <trkpt lat="45.38095" lon="6.75415">
        <ele>1902.11</ele>
        <time>2010-08-03T08:52:16Z</time>
      </trkpt>
      <trkpt lat="45.38095" lon="6.75416">
        <ele>1902.59</ele>
        <time>2010-08-03T08:52:19Z</time>
      </trkpt>
      <trkpt lat="45.38098" lon="6.75421">
        <ele>1904.99</ele>
        <time>2010-08-03T08:52:32Z</time>
      </trkpt>
      <trkpt lat="45.38097" lon="6.75434">
        <ele>1904.51</ele>
        <time>2010-08-03T08:52:43Z</time>
      </trkpt>
      <trkpt lat="45.38095" lon="6.75445">
        <ele>1906.43</ele>
        <time>2010-08-03T08:52:55Z</time>
      </trkpt>
      <trkpt lat="45.38094" lon="6.7545">
        <ele>1906.91</ele>
        <time>2010-08-03T08:53:03Z</time>
      </trkpt>
      <trkpt lat="45.38095" lon="6.75457">
        <ele>1908.83</ele>
        <time>2010-08-03T08:53:16Z</time>
      </trkpt>
      <trkpt lat="45.38095" lon="6.75463">
        <ele>1912.2</ele>
        <time>2010-08-03T08:53:34Z</time>
      </trkpt>
      <trkpt lat="45.38094" lon="6.75469">
        <ele>1913.64</ele>
        <time>2010-08-03T08:53:42Z</time>
      </trkpt>
      <trkpt lat="45.38098" lon="6.75479">
        <ele>1916.04</ele>
        <time>2010-08-03T08:53:53Z</time>
      </trkpt>
      <trkpt lat="45.38102" lon="6.7549">
        <ele>1918.45</ele>
        <time>2010-08-03T08:54:07Z</time>
      </trkpt>
      <trkpt lat="45.381" lon="6.75499">
        <ele>1920.37</ele>
        <time>2010-08-03T08:54:20Z</time>
      </trkpt>
      <trkpt lat="45.38105" lon="6.75499">
        <ele>1923.25</ele>
        <time>2010-08-03T08:54:32Z</time>
      </trkpt>
      <trkpt lat="45.38113" lon="6.755">
        <ele>1925.18</ele>
        <time>2010-08-03T08:54:45Z</time>
      </trkpt>
      <trkpt lat="45.38116" lon="6.75507">
        <ele>1927.58</ele>
        <time>2010-08-03T08:54:55Z</time>
      </trkpt>
      <trkpt lat="45.38116" lon="6.75519">
        <ele>1929.5</ele>
        <time>2010-08-03T08:55:07Z</time>
      </trkpt>
      <trkpt lat="45.38118" lon="6.75523">
        <ele>1931.91</ele>
        <time>2010-08-03T08:55:20Z</time>
      </trkpt>
      <trkpt lat="45.38118" lon="6.75527">
        <ele>1934.79</ele>
        <time>2010-08-03T08:55:32Z</time>
      </trkpt>
      <trkpt lat="45.38118" lon="6.75535">
        <ele>1936.71</ele>
        <time>2010-08-03T08:55:46Z</time>
      </trkpt>
      <trkpt lat="45.38121" lon="6.75539">
        <ele>1939.12</ele>
        <time>2010-08-03T08:55:58Z</time>
      </trkpt>
      <trkpt lat="45.38116" lon="6.75535">
        <ele>1941.04</ele>
        <time>2010-08-03T08:56:09Z</time>
      </trkpt>
      <trkpt lat="45.38116" lon="6.75543">
        <ele>1942.96</ele>
        <time>2010-08-03T08:56:18Z</time>
      </trkpt>
      <trkpt lat="45.38121" lon="6.7555">
        <ele>1943.92</ele>
        <time>2010-08-03T08:56:28Z</time>
      </trkpt>
      <trkpt lat="45.38122" lon="6.75556">
        <ele>1945.36</ele>
        <time>2010-08-03T08:56:33Z</time>
      </trkpt>
      <trkpt lat="45.38124" lon="6.75566">
        <ele>1947.29</ele>
        <time>2010-08-03T08:56:47Z</time>
      </trkpt>
      <trkpt lat="45.38127" lon="6.75568">
        <ele>1948.73</ele>
        <time>2010-08-03T08:56:59Z</time>
      </trkpt>
      <trkpt lat="45.38126" lon="6.7557">
        <ele>1949.21</ele>
        <time>2010-08-03T08:57:03Z</time>
      </trkpt>
      <trkpt lat="45.38132" lon="6.75583">
        <ele>1951.13</ele>
        <time>2010-08-03T08:57:14Z</time>
      </trkpt>
      <trkpt lat="45.3813" lon="6.75594">
        <ele>1952.57</ele>
        <time>2010-08-03T08:57:25Z</time>
      </trkpt>
      <trkpt lat="45.38132" lon="6.756">
        <ele>1953.54</ele>
        <time>2010-08-03T08:57:32Z</time>
      </trkpt>
      <trkpt lat="45.38129" lon="6.75608">
        <ele>1955.46</ele>
        <time>2010-08-03T08:57:45Z</time>
      </trkpt>
      <trkpt lat="45.38133" lon="6.7562">
        <ele>1957.38</ele>
        <time>2010-08-03T08:57:56Z</time>
      </trkpt>
      <trkpt lat="45.38138" lon="6.75629">
        <ele>1958.34</ele>
        <time>2010-08-03T08:58:07Z</time>
      </trkpt>
      <trkpt lat="45.38139" lon="6.75632">
        <ele>1959.78</ele>
        <time>2010-08-03T08:58:12Z</time>
      </trkpt>
      <trkpt lat="45.38145" lon="6.7564">
        <ele>1961.23</ele>
        <time>2010-08-03T08:58:20Z</time>
      </trkpt>
      <trkpt lat="45.38149" lon="6.75646">
        <ele>1960.75</ele>
        <time>2010-08-03T08:58:24Z</time>
      </trkpt>
      <trkpt lat="45.38154" lon="6.75661">
        <ele>1962.67</ele>
        <time>2010-08-03T08:58:39Z</time>
      </trkpt>
      <trkpt lat="45.38157" lon="6.75674">
        <ele>1965.07</ele>
        <time>2010-08-03T08:58:54Z</time>
      </trkpt>
      <trkpt lat="45.38162" lon="6.7568">
        <ele>1967.48</ele>
        <time>2010-08-03T08:59:05Z</time>
      </trkpt>
      <trkpt lat="45.38164" lon="6.75686">
        <ele>1969.88</ele>
        <time>2010-08-03T08:59:18Z</time>
      </trkpt>
      <trkpt lat="45.38168" lon="6.75696">
        <ele>1971.32</ele>
        <time>2010-08-03T08:59:31Z</time>
      </trkpt>
      <trkpt lat="45.38171" lon="6.75709">
        <ele>1974.2</ele>
        <time>2010-08-03T08:59:47Z</time>
      </trkpt>
      <trkpt lat="45.38174" lon="6.75722">
        <ele>1976.61</ele>
        <time>2010-08-03T09:00:01Z</time>
      </trkpt>
      <trkpt lat="45.38177" lon="6.75732">
        <ele>1979.01</ele>
        <time>2010-08-03T09:00:14Z</time>
      </trkpt>
      <trkpt lat="45.38177" lon="6.75738">
        <ele>1979.49</ele>
        <time>2010-08-03T09:00:22Z</time>
      </trkpt>
      <trkpt lat="45.38183" lon="6.75746">
        <ele>1980.93</ele>
        <time>2010-08-03T09:00:34Z</time>
      </trkpt>
      <trkpt lat="45.38184" lon="6.75748">
        <ele>1981.9</ele>
        <time>2010-08-03T09:00:36Z</time>
      </trkpt>
      <trkpt lat="45.38186" lon="6.75751">
        <ele>1982.38</ele>
        <time>2010-08-03T09:00:39Z</time>
      </trkpt>
      <trkpt lat="45.38191" lon="6.75757">
        <ele>1982.38</ele>
        <time>2010-08-03T09:00:46Z</time>
      </trkpt>
      <trkpt lat="45.38194" lon="6.7577">
        <ele>1984.3</ele>
        <time>2010-08-03T09:00:59Z</time>
      </trkpt>
      <trkpt lat="45.38196" lon="6.75779">
        <ele>1985.74</ele>
        <time>2010-08-03T09:01:11Z</time>
      </trkpt>
      <trkpt lat="45.38197" lon="6.75786">
        <ele>1985.74</ele>
        <time>2010-08-03T09:01:18Z</time>
      </trkpt>
      <trkpt lat="45.382" lon="6.75796">
        <ele>1987.66</ele>
        <time>2010-08-03T09:01:30Z</time>
      </trkpt>
      <trkpt lat="45.38203" lon="6.758">
        <ele>1989.1</ele>
        <time>2010-08-03T09:01:41Z</time>
      </trkpt>
      <trkpt lat="45.38202" lon="6.75808">
        <ele>1990.55</ele>
        <time>2010-08-03T09:01:52Z</time>
      </trkpt>
      <trkpt lat="45.38203" lon="6.7581">
        <ele>1991.03</ele>
        <time>2010-08-03T09:01:54Z</time>
      </trkpt>
      <trkpt lat="45.38211" lon="6.75816">
        <ele>1991.03</ele>
        <time>2010-08-03T09:02:06Z</time>
      </trkpt>
      <trkpt lat="45.38215" lon="6.75821">
        <ele>1989.59</ele>
        <time>2010-08-03T09:02:16Z</time>
      </trkpt>
      <trkpt lat="45.38221" lon="6.75828">
        <ele>1988.14</ele>
        <time>2010-08-03T09:02:30Z</time>
      </trkpt>
      <trkpt lat="45.38224" lon="6.7583">
        <ele>1988.62</ele>
        <time>2010-08-03T09:02:35Z</time>
      </trkpt>
      <trkpt lat="45.38228" lon="6.75833">
        <ele>1989.59</ele>
        <time>2010-08-03T09:02:41Z</time>
      </trkpt>
      <trkpt lat="45.38234" lon="6.75838">
        <ele>1991.03</ele>
        <time>2010-08-03T09:02:49Z</time>
      </trkpt>
      <trkpt lat="45.38237" lon="6.7584">
        <ele>1990.07</ele>
        <time>2010-08-03T09:02:53Z</time>
      </trkpt>
      <trkpt lat="45.38242" lon="6.75843">
        <ele>1990.07</ele>
        <time>2010-08-03T09:02:59Z</time>
      </trkpt>
      <trkpt lat="45.38246" lon="6.75846">
        <ele>1991.03</ele>
        <time>2010-08-03T09:03:03Z</time>
      </trkpt>
      <trkpt lat="45.38259" lon="6.75857">
        <ele>1990.07</ele>
        <time>2010-08-03T09:03:16Z</time>
      </trkpt>
      <trkpt lat="45.38264" lon="6.75858">
        <ele>1991.03</ele>
        <time>2010-08-03T09:03:22Z</time>
      </trkpt>
      <trkpt lat="45.38267" lon="6.75859">
        <ele>1991.51</ele>
        <time>2010-08-03T09:03:26Z</time>
      </trkpt>
      <trkpt lat="45.3827" lon="6.7586">
        <ele>1991.99</ele>
        <time>2010-08-03T09:03:29Z</time>
      </trkpt>
      <trkpt lat="45.38279" lon="6.75853">
        <ele>1993.91</ele>
        <time>2010-08-03T09:03:42Z</time>
      </trkpt>
      <trkpt lat="45.38285" lon="6.75848">
        <ele>1992.95</ele>
        <time>2010-08-03T09:03:48Z</time>
      </trkpt>
      <trkpt lat="45.38289" lon="6.75844">
        <ele>1992.47</ele>
        <time>2010-08-03T09:03:56Z</time>
      </trkpt>
      <trkpt lat="45.38296" lon="6.75838">
        <ele>1991.03</ele>
        <time>2010-08-03T09:04:04Z</time>
      </trkpt>
      <trkpt lat="45.38309" lon="6.75826">
        <ele>1991.99</ele>
        <time>2010-08-03T09:04:17Z</time>
      </trkpt>
      <trkpt lat="45.38319" lon="6.75817">
        <ele>1993.91</ele>
        <time>2010-08-03T09:04:28Z</time>
      </trkpt>
      <trkpt lat="45.38328" lon="6.75806">
        <ele>1996.32</ele>
        <time>2010-08-03T09:04:41Z</time>
      </trkpt>
      <trkpt lat="45.38332" lon="6.75797">
        <ele>1997.28</ele>
        <time>2010-08-03T09:04:51Z</time>
      </trkpt>
      <trkpt lat="45.38335" lon="6.75804">
        <ele>1999.68</ele>
        <time>2010-08-03T09:05:04Z</time>
      </trkpt>
      <trkpt lat="45.38339" lon="6.75818">
        <ele>2002.56</ele>
        <time>2010-08-03T09:05:19Z</time>
      </trkpt>
      <trkpt lat="45.38342" lon="6.75813">
        <ele>2004.01</ele>
        <time>2010-08-03T09:05:31Z</time>
      </trkpt>
      <trkpt lat="45.38347" lon="6.7582">
        <ele>2007.37</ele>
        <time>2010-08-03T09:05:46Z</time>
      </trkpt>
      <trkpt lat="45.38355" lon="6.75818">
        <ele>2009.77</ele>
        <time>2010-08-03T09:06:02Z</time>
      </trkpt>
      <trkpt lat="45.38361" lon="6.75821">
        <ele>2010.25</ele>
        <time>2010-08-03T09:06:11Z</time>
      </trkpt>
      <trkpt lat="45.3837" lon="6.75832">
        <ele>2012.18</ele>
        <time>2010-08-03T09:06:26Z</time>
      </trkpt>
      <trkpt lat="45.3837" lon="6.75842">
        <ele>2014.1</ele>
        <time>2010-08-03T09:06:40Z</time>
      </trkpt>
      <trkpt lat="45.38375" lon="6.75849">
        <ele>2016.02</ele>
        <time>2010-08-03T09:06:51Z</time>
      </trkpt>
      <trkpt lat="45.38378" lon="6.75857">
        <ele>2017.94</ele>
        <time>2010-08-03T09:07:03Z</time>
      </trkpt>
      <trkpt lat="45.38378" lon="6.75861">
        <ele>2018.43</ele>
        <time>2010-08-03T09:07:07Z</time>
      </trkpt>
      <trkpt lat="45.38377" lon="6.75873">
        <ele>2020.83</ele>
        <time>2010-08-03T09:07:21Z</time>
      </trkpt>
      <trkpt lat="45.38382" lon="6.75879">
        <ele>2022.75</ele>
        <time>2010-08-03T09:07:34Z</time>
      </trkpt>
      <trkpt lat="45.38386" lon="6.75886">
        <ele>2024.19</ele>
        <time>2010-08-03T09:07:46Z</time>
      </trkpt>
      <trkpt lat="45.38386" lon="6.75889">
        <ele>2025.15</ele>
        <time>2010-08-03T09:07:49Z</time>
      </trkpt>
      <trkpt lat="45.3839" lon="6.75898">
        <ele>2026.6</ele>
        <time>2010-08-03T09:08:00Z</time>
      </trkpt>
      <trkpt lat="45.38391" lon="6.75902">
        <ele>2027.56</ele>
        <time>2010-08-03T09:08:05Z</time>
      </trkpt>
      <trkpt lat="45.38391" lon="6.7591">
        <ele>2029.96</ele>
        <time>2010-08-03T09:08:16Z</time>
      </trkpt>
      <trkpt lat="45.38394" lon="6.75916">
        <ele>2031.4</ele>
        <time>2010-08-03T09:08:27Z</time>
      </trkpt>
      <trkpt lat="45.38395" lon="6.75917">
        <ele>2031.4</ele>
        <time>2010-08-03T09:08:28Z</time>
      </trkpt>
      <trkpt lat="45.38397" lon="6.75921">
        <ele>2031.4</ele>
        <time>2010-08-03T09:08:32Z</time>
      </trkpt>
      <trkpt lat="45.38398" lon="6.75927">
        <ele>2032.36</ele>
        <time>2010-08-03T09:08:39Z</time>
      </trkpt>
      <trkpt lat="45.38402" lon="6.75931">
        <ele>2033.33</ele>
        <time>2010-08-03T09:08:45Z</time>
      </trkpt>
      <trkpt lat="45.38405" lon="6.75937">
        <ele>2034.77</ele>
        <time>2010-08-03T09:08:51Z</time>
      </trkpt>
      <trkpt lat="45.38413" lon="6.7595">
        <ele>2035.25</ele>
        <time>2010-08-03T09:09:05Z</time>
      </trkpt>
      <trkpt lat="45.38419" lon="6.75962">
        <ele>2037.65</ele>
        <time>2010-08-03T09:09:18Z</time>
      </trkpt>
      <trkpt lat="45.38425" lon="6.75974">
        <ele>2039.09</ele>
        <time>2010-08-03T09:09:30Z</time>
      </trkpt>
      <trkpt lat="45.38431" lon="6.75987">
        <ele>2040.05</ele>
        <time>2010-08-03T09:09:42Z</time>
      </trkpt>
      <trkpt lat="45.38439" lon="6.75997">
        <ele>2041.02</ele>
        <time>2010-08-03T09:09:52Z</time>
      </trkpt>
      <trkpt lat="45.38447" lon="6.76012">
        <ele>2041.02</ele>
        <time>2010-08-03T09:10:04Z</time>
      </trkpt>
      <trkpt lat="45.38453" lon="6.76022">
        <ele>2040.05</ele>
        <time>2010-08-03T09:10:13Z</time>
      </trkpt>
      <trkpt lat="45.3846" lon="6.76034">
        <ele>2040.54</ele>
        <time>2010-08-03T09:10:24Z</time>
      </trkpt>
      <trkpt lat="45.38464" lon="6.76042">
        <ele>2041.98</ele>
        <time>2010-08-03T09:10:34Z</time>
      </trkpt>
      <trkpt lat="45.38464" lon="6.76044">
        <ele>2041.98</ele>
        <time>2010-08-03T09:10:36Z</time>
      </trkpt>
      <trkpt lat="45.38466" lon="6.76052">
        <ele>2042.94</ele>
        <time>2010-08-03T09:10:44Z</time>
      </trkpt>
      <trkpt lat="45.38467" lon="6.76056">
        <ele>2043.42</ele>
        <time>2010-08-03T09:10:47Z</time>
      </trkpt>
      <trkpt lat="45.38469" lon="6.76059">
        <ele>2043.9</ele>
        <time>2010-08-03T09:10:50Z</time>
      </trkpt>
      <trkpt lat="45.38477" lon="6.76071">
        <ele>2046.78</ele>
        <time>2010-08-03T09:11:06Z</time>
      </trkpt>
      <trkpt lat="45.38479" lon="6.76075">
        <ele>2047.26</ele>
        <time>2010-08-03T09:11:12Z</time>
      </trkpt>
      <trkpt lat="45.38481" lon="6.7608">
        <ele>2047.75</ele>
        <time>2010-08-03T09:11:16Z</time>
      </trkpt>
      <trkpt lat="45.38483" lon="6.7609">
        <ele>2050.15</ele>
        <time>2010-08-03T09:11:29Z</time>
      </trkpt>
      <trkpt lat="45.38486" lon="6.76096">
        <ele>2052.07</ele>
        <time>2010-08-03T09:11:40Z</time>
      </trkpt>
      <trkpt lat="45.38486" lon="6.76096">
        <ele>2052.55</ele>
        <time>2010-08-03T09:11:41Z</time>
      </trkpt>
      <trkpt lat="45.38491" lon="6.76106">
        <ele>2054.47</ele>
        <time>2010-08-03T09:11:55Z</time>
      </trkpt>
      <trkpt lat="45.38492" lon="6.76107">
        <ele>2054.96</ele>
        <time>2010-08-03T09:11:57Z</time>
      </trkpt>
      <trkpt lat="45.38496" lon="6.7611">
        <ele>2054.96</ele>
        <time>2010-08-03T09:12:02Z</time>
      </trkpt>
      <trkpt lat="45.38502" lon="6.76124">
        <ele>2054.47</ele>
        <time>2010-08-03T09:12:15Z</time>
      </trkpt>
      <trkpt lat="45.38511" lon="6.7613">
        <ele>2056.4</ele>
        <time>2010-08-03T09:12:26Z</time>
      </trkpt>
      <trkpt lat="45.38511" lon="6.76138">
        <ele>2058.8</ele>
        <time>2010-08-03T09:12:36Z</time>
      </trkpt>
      <trkpt lat="45.38513" lon="6.7615">
        <ele>2061.2</ele>
        <time>2010-08-03T09:12:53Z</time>
      </trkpt>
      <trkpt lat="45.38517" lon="6.76161">
        <ele>2064.09</ele>
        <time>2010-08-03T09:13:09Z</time>
      </trkpt>
      <trkpt lat="45.38525" lon="6.76167">
        <ele>2065.53</ele>
        <time>2010-08-03T09:13:24Z</time>
      </trkpt>
      <trkpt lat="45.38531" lon="6.76171">
        <ele>2067.45</ele>
        <time>2010-08-03T09:13:31Z</time>
      </trkpt>
      <trkpt lat="45.38538" lon="6.76175">
        <ele>2068.41</ele>
        <time>2010-08-03T09:13:41Z</time>
      </trkpt>
      <trkpt lat="45.38539" lon="6.76176">
        <ele>2068.89</ele>
        <time>2010-08-03T09:13:43Z</time>
      </trkpt>
      <trkpt lat="45.38544" lon="6.76188">
        <ele>2070.34</ele>
        <time>2010-08-03T09:13:55Z</time>
      </trkpt>
      <trkpt lat="45.38552" lon="6.76201">
        <ele>2071.3</ele>
        <time>2010-08-03T09:14:08Z</time>
      </trkpt>
      <trkpt lat="45.38554" lon="6.76203">
        <ele>2072.26</ele>
        <time>2010-08-03T09:14:13Z</time>
      </trkpt>
      <trkpt lat="45.38556" lon="6.76206">
        <ele>2073.22</ele>
        <time>2010-08-03T09:14:16Z</time>
      </trkpt>
      <trkpt lat="45.3856" lon="6.76211">
        <ele>2073.7</ele>
        <time>2010-08-03T09:14:21Z</time>
      </trkpt>
      <trkpt lat="45.38569" lon="6.76223">
        <ele>2075.62</ele>
        <time>2010-08-03T09:14:34Z</time>
      </trkpt>
      <trkpt lat="45.38574" lon="6.76231">
        <ele>2075.62</ele>
        <time>2010-08-03T09:14:44Z</time>
      </trkpt>
      <trkpt lat="45.3858" lon="6.76241">
        <ele>2078.51</ele>
        <time>2010-08-03T09:14:55Z</time>
      </trkpt>
      <trkpt lat="45.38588" lon="6.76251">
        <ele>2078.51</ele>
        <time>2010-08-03T09:15:07Z</time>
      </trkpt>
      <trkpt lat="45.38591" lon="6.76256">
        <ele>2079.95</ele>
        <time>2010-08-03T09:15:16Z</time>
      </trkpt>
      <trkpt lat="45.38596" lon="6.76265">
        <ele>2082.35</ele>
        <time>2010-08-03T09:15:27Z</time>
      </trkpt>
      <trkpt lat="45.38601" lon="6.76272">
        <ele>2084.76</ele>
        <time>2010-08-03T09:15:40Z</time>
      </trkpt>
      <trkpt lat="45.38603" lon="6.76276">
        <ele>2084.76</ele>
        <time>2010-08-03T09:15:44Z</time>
      </trkpt>
      <trkpt lat="45.38605" lon="6.76289">
        <ele>2087.64</ele>
        <time>2010-08-03T09:15:56Z</time>
      </trkpt>
      <trkpt lat="45.38614" lon="6.76303">
        <ele>2090.04</ele>
        <time>2010-08-03T09:16:12Z</time>
      </trkpt>
      <trkpt lat="45.38616" lon="6.76314">
        <ele>2092.45</ele>
        <time>2010-08-03T09:16:24Z</time>
      </trkpt>
      <trkpt lat="45.38622" lon="6.76326">
        <ele>2094.85</ele>
        <time>2010-08-03T09:16:38Z</time>
      </trkpt>
      <trkpt lat="45.38626" lon="6.76334">
        <ele>2096.77</ele>
        <time>2010-08-03T09:16:50Z</time>
      </trkpt>
      <trkpt lat="45.38631" lon="6.76342">
        <ele>2099.66</ele>
        <time>2010-08-03T09:17:03Z</time>
      </trkpt>
      <trkpt lat="45.38639" lon="6.7635">
        <ele>2101.1</ele>
        <time>2010-08-03T09:17:16Z</time>
      </trkpt>
      <trkpt lat="45.38642" lon="6.76354">
        <ele>2103.02</ele>
        <time>2010-08-03T09:17:24Z</time>
      </trkpt>
      <trkpt lat="45.3865" lon="6.7637">
        <ele>2105.91</ele>
        <time>2010-08-03T09:17:40Z</time>
      </trkpt>
      <trkpt lat="45.38655" lon="6.76381">
        <ele>2107.83</ele>
        <time>2010-08-03T09:17:53Z</time>
      </trkpt>
      <trkpt lat="45.38659" lon="6.76391">
        <ele>2110.71</ele>
        <time>2010-08-03T09:18:05Z</time>
      </trkpt>
      <trkpt lat="45.38664" lon="6.76403">
        <ele>2112.15</ele>
        <time>2010-08-03T09:18:18Z</time>
      </trkpt>
      <trkpt lat="45.38667" lon="6.76413">
        <ele>2114.08</ele>
        <time>2010-08-03T09:18:29Z</time>
      </trkpt>
      <trkpt lat="45.38671" lon="6.7642">
        <ele>2116</ele>
        <time>2010-08-03T09:18:39Z</time>
      </trkpt>
      <trkpt lat="45.38675" lon="6.76426">
        <ele>2117.92</ele>
        <time>2010-08-03T09:18:50Z</time>
      </trkpt>
      <trkpt lat="45.38679" lon="6.76426">
        <ele>2119.84</ele>
        <time>2010-08-03T09:18:58Z</time>
      </trkpt>
      <trkpt lat="45.38681" lon="6.76436">
        <ele>2122.25</ele>
        <time>2010-08-03T09:19:09Z</time>
      </trkpt>
      <trkpt lat="45.38684" lon="6.76445">
        <ele>2124.17</ele>
        <time>2010-08-03T09:19:22Z</time>
      </trkpt>
      <trkpt lat="45.38687" lon="6.76453">
        <ele>2127.05</ele>
        <time>2010-08-03T09:19:34Z</time>
      </trkpt>
      <trkpt lat="45.38691" lon="6.76461">
        <ele>2129.46</ele>
        <time>2010-08-03T09:19:47Z</time>
      </trkpt>
      <trkpt lat="45.38693" lon="6.76464">
        <ele>2130.42</ele>
        <time>2010-08-03T09:19:52Z</time>
      </trkpt>
      <trkpt lat="45.38702" lon="6.76467">
        <ele>2131.86</ele>
        <time>2010-08-03T09:20:05Z</time>
      </trkpt>
      <trkpt lat="45.38706" lon="6.76473">
        <ele>2135.71</ele>
        <time>2010-08-03T09:20:22Z</time>
      </trkpt>
      <trkpt lat="45.38712" lon="6.76466">
        <ele>2138.59</ele>
        <time>2010-08-03T09:20:37Z</time>
      </trkpt>
      <trkpt lat="45.38713" lon="6.76463">
        <ele>2138.11</ele>
        <time>2010-08-03T09:20:39Z</time>
      </trkpt>
      <trkpt lat="45.38717" lon="6.76461">
        <ele>2140.51</ele>
        <time>2010-08-03T09:20:51Z</time>
      </trkpt>
      <trkpt lat="45.38723" lon="6.76461">
        <ele>2141.95</ele>
        <time>2010-08-03T09:21:00Z</time>
      </trkpt>
      <trkpt lat="45.38727" lon="6.76463">
        <ele>2142.44</ele>
        <time>2010-08-03T09:21:05Z</time>
      </trkpt>
      <trkpt lat="45.3873" lon="6.7646">
        <ele>2143.4</ele>
        <time>2010-08-03T09:21:10Z</time>
      </trkpt>
      <trkpt lat="45.38736" lon="6.76464">
        <ele>2144.36</ele>
        <time>2010-08-03T09:21:17Z</time>
      </trkpt>
      <trkpt lat="45.38742" lon="6.76467">
        <ele>2143.88</ele>
        <time>2010-08-03T09:21:22Z</time>
      </trkpt>
      <trkpt lat="45.38754" lon="6.76465">
        <ele>2142.92</ele>
        <time>2010-08-03T09:21:31Z</time>
      </trkpt>
      <trkpt lat="45.38761" lon="6.76466">
        <ele>2144.36</ele>
        <time>2010-08-03T09:21:37Z</time>
      </trkpt>
      <trkpt lat="45.38763" lon="6.76468">
        <ele>2144.36</ele>
        <time>2010-08-03T09:21:39Z</time>
      </trkpt>
      <trkpt lat="45.38765" lon="6.76468">
        <ele>2144.84</ele>
        <time>2010-08-03T09:21:41Z</time>
      </trkpt>
      <trkpt lat="45.38769" lon="6.76472">
        <ele>2144.84</ele>
        <time>2010-08-03T09:21:46Z</time>
      </trkpt>
      <trkpt lat="45.38775" lon="6.76472">
        <ele>2146.76</ele>
        <time>2010-08-03T09:21:51Z</time>
      </trkpt>
      <trkpt lat="45.3878" lon="6.76474">
        <ele>2146.76</ele>
        <time>2010-08-03T09:21:55Z</time>
      </trkpt>
      <trkpt lat="45.38787" lon="6.76475">
        <ele>2146.28</ele>
        <time>2010-08-03T09:22:00Z</time>
      </trkpt>
      <trkpt lat="45.38792" lon="6.76475">
        <ele>2146.28</ele>
        <time>2010-08-03T09:22:05Z</time>
      </trkpt>
      <trkpt lat="45.38798" lon="6.76478">
        <ele>2146.76</ele>
        <time>2010-08-03T09:22:20Z</time>
      </trkpt>
      <trkpt lat="45.38798" lon="6.76478">
        <ele>2150.61</ele>
        <time>2010-08-03T09:22:22Z</time>
      </trkpt>
      <trkpt lat="45.38798" lon="6.76478">
        <ele>2144.36</ele>
        <time>2010-08-03T09:22:23Z</time>
      </trkpt>
      <trkpt lat="45.38798" lon="6.76478">
        <ele>2150.61</ele>
        <time>2010-08-03T09:22:25Z</time>
      </trkpt>
      <trkpt lat="45.38798" lon="6.76478">
        <ele>2147.72</ele>
        <time>2010-08-03T09:22:26Z</time>
      </trkpt>
      <trkpt lat="45.38795" lon="6.76476">
        <ele>2147.24</ele>
        <time>2010-08-03T09:22:49Z</time>
      </trkpt>
      <trkpt lat="45.38794" lon="6.76481">
        <ele>2149.65</ele>
        <time>2010-08-03T09:23:11Z</time>
      </trkpt>
      <trkpt lat="45.38794" lon="6.76483">
        <ele>2148.68</ele>
        <time>2010-08-03T09:23:27Z</time>
      </trkpt>
      <trkpt lat="45.38793" lon="6.76485">
        <ele>2149.65</ele>
        <time>2010-08-03T09:24:00Z</time>
      </trkpt>
      <trkpt lat="45.38793" lon="6.76485">
        <ele>2148.68</ele>
        <time>2010-08-03T09:24:02Z</time>
      </trkpt>
      <trkpt lat="45.38793" lon="6.76485">
        <ele>2149.16</ele>
        <time>2010-08-03T09:24:03Z</time>
      </trkpt>
      <trkpt lat="45.38793" lon="6.76485">
        <ele>2148.68</ele>
        <time>2010-08-03T09:24:10Z</time>
      </trkpt>
      <trkpt lat="45.38793" lon="6.76485">
        <ele>2140.99</ele>
        <time>2010-08-03T09:24:12Z</time>
      </trkpt>
      <trkpt lat="45.38793" lon="6.76485">
        <ele>2146.28</ele>
        <time>2010-08-03T09:24:13Z</time>
      </trkpt>
      <trkpt lat="45.38784" lon="6.76473">
        <ele>2149.65</ele>
        <time>2010-08-03T09:24:22Z</time>
      </trkpt>
      <trkpt lat="45.38781" lon="6.76474">
        <ele>2142.44</ele>
        <time>2010-08-03T09:24:24Z</time>
      </trkpt>
      <trkpt lat="45.38785" lon="6.76476">
        <ele>2149.65</ele>
        <time>2010-08-03T09:24:25Z</time>
      </trkpt>
      <trkpt lat="45.38789" lon="6.76477">
        <ele>2139.07</ele>
        <time>2010-08-03T09:24:27Z</time>
      </trkpt>
      <trkpt lat="45.38791" lon="6.76477">
        <ele>2147.72</ele>
        <time>2010-08-03T09:24:28Z</time>
      </trkpt>
      <trkpt lat="45.38795" lon="6.76477">
        <ele>2149.16</ele>
        <time>2010-08-03T09:24:30Z</time>
      </trkpt>
      <trkpt lat="45.38795" lon="6.76481">
        <ele>2145.8</ele>
        <time>2010-08-03T09:24:57Z</time>
      </trkpt>
      <trkpt lat="45.38795" lon="6.76481">
        <ele>2149.65</ele>
        <time>2010-08-03T09:24:58Z</time>
      </trkpt>
      <trkpt lat="45.38794" lon="6.7648">
        <ele>2146.76</ele>
        <time>2010-08-03T09:25:07Z</time>
      </trkpt>
      <trkpt lat="45.38794" lon="6.7648">
        <ele>2150.13</ele>
        <time>2010-08-03T09:25:09Z</time>
      </trkpt>
      <trkpt lat="45.38795" lon="6.76483">
        <ele>2146.76</ele>
        <time>2010-08-03T09:25:36Z</time>
      </trkpt>
      <trkpt lat="45.38795" lon="6.76483">
        <ele>2150.61</ele>
        <time>2010-08-03T09:25:37Z</time>
      </trkpt>
      <trkpt lat="45.38792" lon="6.76482">
        <ele>2147.72</ele>
        <time>2010-08-03T09:26:41Z</time>
      </trkpt>
      <trkpt lat="45.38793" lon="6.76482">
        <ele>2151.09</ele>
        <time>2010-08-03T09:26:43Z</time>
      </trkpt>
      <trkpt lat="45.38795" lon="6.7648">
        <ele>2152.05</ele>
        <time>2010-08-03T09:27:49Z</time>
      </trkpt>
      <trkpt lat="45.38795" lon="6.76479">
        <ele>2151.57</ele>
        <time>2010-08-03T09:28:23Z</time>
      </trkpt>
      <trkpt lat="45.38795" lon="6.76479">
        <ele>2144.84</ele>
        <time>2010-08-03T09:30:20Z</time>
      </trkpt>
      <trkpt lat="45.38795" lon="6.76479">
        <ele>2153.97</ele>
        <time>2010-08-03T09:30:21Z</time>
      </trkpt>
      <trkpt lat="45.38795" lon="6.76477">
        <ele>2150.61</ele>
        <time>2010-08-03T09:30:27Z</time>
      </trkpt>
      <trkpt lat="45.38795" lon="6.76472">
        <ele>2150.13</ele>
        <time>2010-08-03T09:30:32Z</time>
      </trkpt>
      <trkpt lat="45.38794" lon="6.76466">
        <ele>2149.16</ele>
        <time>2010-08-03T09:30:41Z</time>
      </trkpt>
      <trkpt lat="45.38788" lon="6.76457">
        <ele>2147.24</ele>
        <time>2010-08-03T09:30:59Z</time>
      </trkpt>
      <trkpt lat="45.38785" lon="6.76452">
        <ele>2146.28</ele>
        <time>2010-08-03T09:31:09Z</time>
      </trkpt>
      <trkpt lat="45.38782" lon="6.76447">
        <ele>2145.8</ele>
        <time>2010-08-03T09:31:18Z</time>
      </trkpt>
      <trkpt lat="45.3877" lon="6.76448">
        <ele>2145.8</ele>
        <time>2010-08-03T09:31:30Z</time>
      </trkpt>
      <trkpt lat="45.38765" lon="6.76446">
        <ele>2146.76</ele>
        <time>2010-08-03T09:31:40Z</time>
      </trkpt>
      <trkpt lat="45.38758" lon="6.7645">
        <ele>2146.28</ele>
        <time>2010-08-03T09:32:09Z</time>
      </trkpt>
      <trkpt lat="45.38758" lon="6.76451">
        <ele>2155.89</ele>
        <time>2010-08-03T09:32:15Z</time>
      </trkpt>
      <trkpt lat="45.38758" lon="6.76451">
        <ele>2153.97</ele>
        <time>2010-08-03T09:32:16Z</time>
      </trkpt>
      <trkpt lat="45.38758" lon="6.7645">
        <ele>2149.65</ele>
        <time>2010-08-03T09:32:17Z</time>
      </trkpt>
      <trkpt lat="45.38758" lon="6.76449">
        <ele>2145.32</ele>
        <time>2010-08-03T09:32:18Z</time>
      </trkpt>
      <trkpt lat="45.38758" lon="6.76449">
        <ele>2146.28</ele>
        <time>2010-08-03T09:32:19Z</time>
      </trkpt>
      <trkpt lat="45.38756" lon="6.7645">
        <ele>2147.24</ele>
        <time>2010-08-03T09:32:32Z</time>
      </trkpt>
      <trkpt lat="45.38758" lon="6.76447">
        <ele>2145.8</ele>
        <time>2010-08-03T09:32:37Z</time>
      </trkpt>
      <trkpt lat="45.38758" lon="6.76447">
        <ele>2157.82</ele>
        <time>2010-08-03T10:06:46Z</time>
      </trkpt>
      <trkpt lat="45.38758" lon="6.76447">
        <ele>2144.84</ele>
        <time>2010-08-03T10:06:47Z</time>
      </trkpt>
      <trkpt lat="45.38758" lon="6.76447">
        <ele>2144.84</ele>
        <time>2010-08-03T10:06:48Z</time>
      </trkpt>
      <trkpt lat="45.38747" lon="6.76464">
        <ele>2143.88</ele>
        <time>2010-08-03T10:06:54Z</time>
      </trkpt>
      <trkpt lat="45.38745" lon="6.76453">
        <ele>2147.24</ele>
        <time>2010-08-03T10:06:59Z</time>
      </trkpt>
      <trkpt lat="45.38746" lon="6.76452">
        <ele>2145.8</ele>
        <time>2010-08-03T10:07:00Z</time>
      </trkpt>
      <trkpt lat="45.38746" lon="6.76451">
        <ele>2144.36</ele>
        <time>2010-08-03T10:07:02Z</time>
      </trkpt>
      <trkpt lat="45.38742" lon="6.76452">
        <ele>2146.28</ele>
        <time>2010-08-03T10:07:22Z</time>
      </trkpt>
      <trkpt lat="45.38743" lon="6.76452">
        <ele>2149.16</ele>
        <time>2010-08-03T10:07:39Z</time>
      </trkpt>
      <trkpt lat="45.38743" lon="6.76452">
        <ele>2151.09</ele>
        <time>2010-08-03T10:08:04Z</time>
      </trkpt>
      <trkpt lat="45.38741" lon="6.76453">
        <ele>2151.09</ele>
        <time>2010-08-03T10:09:14Z</time>
      </trkpt>
      <trkpt lat="45.38742" lon="6.76454">
        <ele>2151.09</ele>
        <time>2010-08-03T10:09:39Z</time>
      </trkpt>
      <trkpt lat="45.38741" lon="6.76454">
        <ele>2151.09</ele>
        <time>2010-08-03T10:10:34Z</time>
      </trkpt>
      <trkpt lat="45.38743" lon="6.76455">
        <ele>2151.09</ele>
        <time>2010-08-03T10:13:35Z</time>
      </trkpt>
      <trkpt lat="45.38743" lon="6.76455">
        <ele>2150.61</ele>
        <time>2010-08-03T10:13:36Z</time>
      </trkpt>
      <trkpt lat="45.38756" lon="6.76457">
        <ele>2149.65</ele>
        <time>2010-08-03T10:13:49Z</time>
      </trkpt>
      <trkpt lat="45.38762" lon="6.76457">
        <ele>2149.65</ele>
        <time>2010-08-03T10:13:54Z</time>
      </trkpt>
      <trkpt lat="45.38768" lon="6.76459">
        <ele>2151.09</ele>
        <time>2010-08-03T10:14:02Z</time>
      </trkpt>
      <trkpt lat="45.38774" lon="6.76464">
        <ele>2152.05</ele>
        <time>2010-08-03T10:14:09Z</time>
      </trkpt>
      <trkpt lat="45.38788" lon="6.76469">
        <ele>2152.53</ele>
        <time>2010-08-03T10:14:24Z</time>
      </trkpt>
      <trkpt lat="45.388" lon="6.76474">
        <ele>2153.97</ele>
        <time>2010-08-03T10:14:36Z</time>
      </trkpt>
      <trkpt lat="45.38813" lon="6.76488">
        <ele>2153.97</ele>
        <time>2010-08-03T10:14:49Z</time>
      </trkpt>
      <trkpt lat="45.38825" lon="6.76499">
        <ele>2153.97</ele>
        <time>2010-08-03T10:15:00Z</time>
      </trkpt>
      <trkpt lat="45.38827" lon="6.76505">
        <ele>2153.97</ele>
        <time>2010-08-03T10:15:04Z</time>
      </trkpt>
      <trkpt lat="45.38837" lon="6.76519">
        <ele>2156.37</ele>
        <time>2010-08-03T10:15:20Z</time>
      </trkpt>
      <trkpt lat="45.38838" lon="6.76526">
        <ele>2156.86</ele>
        <time>2010-08-03T10:15:28Z</time>
      </trkpt>
      <trkpt lat="45.38841" lon="6.76539">
        <ele>2157.82</ele>
        <time>2010-08-03T10:15:38Z</time>
      </trkpt>
      <trkpt lat="45.38843" lon="6.76553">
        <ele>2158.78</ele>
        <time>2010-08-03T10:15:47Z</time>
      </trkpt>
      <trkpt lat="45.38843" lon="6.76558">
        <ele>2159.26</ele>
        <time>2010-08-03T10:15:50Z</time>
      </trkpt>
      <trkpt lat="45.38845" lon="6.76567">
        <ele>2158.3</ele>
        <time>2010-08-03T10:15:55Z</time>
      </trkpt>
      <trkpt lat="45.38841" lon="6.76585">
        <ele>2160.22</ele>
        <time>2010-08-03T10:16:10Z</time>
      </trkpt>
      <trkpt lat="45.38842" lon="6.766">
        <ele>2162.62</ele>
        <time>2010-08-03T10:16:25Z</time>
      </trkpt>
      <trkpt lat="45.38843" lon="6.76608">
        <ele>2164.55</ele>
        <time>2010-08-03T10:16:38Z</time>
      </trkpt>
      <trkpt lat="45.38846" lon="6.76617">
        <ele>2166.95</ele>
        <time>2010-08-03T10:16:51Z</time>
      </trkpt>
      <trkpt lat="45.38845" lon="6.76618">
        <ele>2167.43</ele>
        <time>2010-08-03T10:16:52Z</time>
      </trkpt>
      <trkpt lat="45.38842" lon="6.76637">
        <ele>2167.91</ele>
        <time>2010-08-03T10:17:08Z</time>
      </trkpt>
      <trkpt lat="45.38842" lon="6.76638">
        <ele>2167.91</ele>
        <time>2010-08-03T10:17:09Z</time>
      </trkpt>
      <trkpt lat="45.38846" lon="6.76653">
        <ele>2170.31</ele>
        <time>2010-08-03T10:17:23Z</time>
      </trkpt>
      <trkpt lat="45.38846" lon="6.76654">
        <ele>2169.83</ele>
        <time>2010-08-03T10:17:24Z</time>
      </trkpt>
      <trkpt lat="45.38846" lon="6.76668">
        <ele>2171.76</ele>
        <time>2010-08-03T10:17:37Z</time>
      </trkpt>
      <trkpt lat="45.38845" lon="6.76684">
        <ele>2172.72</ele>
        <time>2010-08-03T10:17:51Z</time>
      </trkpt>
      <trkpt lat="45.38846" lon="6.76698">
        <ele>2174.64</ele>
        <time>2010-08-03T10:18:05Z</time>
      </trkpt>
      <trkpt lat="45.38845" lon="6.76715">
        <ele>2177.04</ele>
        <time>2010-08-03T10:18:23Z</time>
      </trkpt>
      <trkpt lat="45.38842" lon="6.76725">
        <ele>2178.97</ele>
        <time>2010-08-03T10:18:35Z</time>
      </trkpt>
      <trkpt lat="45.38839" lon="6.76738">
        <ele>2180.41</ele>
        <time>2010-08-03T10:18:47Z</time>
      </trkpt>
      <trkpt lat="45.38838" lon="6.76748">
        <ele>2180.89</ele>
        <time>2010-08-03T10:18:56Z</time>
      </trkpt>
      <trkpt lat="45.38834" lon="6.76761">
        <ele>2182.81</ele>
        <time>2010-08-03T10:19:11Z</time>
      </trkpt>
      <trkpt lat="45.38829" lon="6.76767">
        <ele>2184.73</ele>
        <time>2010-08-03T10:19:24Z</time>
      </trkpt>
      <trkpt lat="45.38829" lon="6.76777">
        <ele>2187.14</ele>
        <time>2010-08-03T10:19:38Z</time>
      </trkpt>
      <trkpt lat="45.38825" lon="6.76782">
        <ele>2189.06</ele>
        <time>2010-08-03T10:19:49Z</time>
      </trkpt>
      <trkpt lat="45.38825" lon="6.76792">
        <ele>2190.5</ele>
        <time>2010-08-03T10:20:01Z</time>
      </trkpt>
      <trkpt lat="45.38823" lon="6.76803">
        <ele>2192.42</ele>
        <time>2010-08-03T10:20:15Z</time>
      </trkpt>
      <trkpt lat="45.38821" lon="6.76816">
        <ele>2193.87</ele>
        <time>2010-08-03T10:20:29Z</time>
      </trkpt>
      <trkpt lat="45.3882" lon="6.76825">
        <ele>2195.31</ele>
        <time>2010-08-03T10:20:40Z</time>
      </trkpt>
      <trkpt lat="45.38819" lon="6.76837">
        <ele>2197.71</ele>
        <time>2010-08-03T10:20:54Z</time>
      </trkpt>
      <trkpt lat="45.38824" lon="6.76847">
        <ele>2198.67</ele>
        <time>2010-08-03T10:21:06Z</time>
      </trkpt>
      <trkpt lat="45.38831" lon="6.76854">
        <ele>2200.59</ele>
        <time>2010-08-03T10:21:18Z</time>
      </trkpt>
      <trkpt lat="45.38838" lon="6.76859">
        <ele>2202.52</ele>
        <time>2010-08-03T10:21:31Z</time>
      </trkpt>
      <trkpt lat="45.38843" lon="6.76858">
        <ele>2203.96</ele>
        <time>2010-08-03T10:21:40Z</time>
      </trkpt>
      <trkpt lat="45.38848" lon="6.76853">
        <ele>2204.44</ele>
        <time>2010-08-03T10:21:46Z</time>
      </trkpt>
      <trkpt lat="45.38849" lon="6.76846">
        <ele>2204.44</ele>
        <time>2010-08-03T10:21:52Z</time>
      </trkpt>
      <trkpt lat="45.38855" lon="6.76849">
        <ele>2205.4</ele>
        <time>2010-08-03T10:22:04Z</time>
      </trkpt>
      <trkpt lat="45.38856" lon="6.76856">
        <ele>2207.32</ele>
        <time>2010-08-03T10:22:16Z</time>
      </trkpt>
      <trkpt lat="45.38857" lon="6.76868">
        <ele>2208.77</ele>
        <time>2010-08-03T10:22:29Z</time>
      </trkpt>
      <trkpt lat="45.38861" lon="6.76875">
        <ele>2210.69</ele>
        <time>2010-08-03T10:22:40Z</time>
      </trkpt>
      <trkpt lat="45.38868" lon="6.76882">
        <ele>2212.61</ele>
        <time>2010-08-03T10:22:54Z</time>
      </trkpt>
      <trkpt lat="45.38875" lon="6.76884">
        <ele>2215.01</ele>
        <time>2010-08-03T10:23:09Z</time>
      </trkpt>
      <trkpt lat="45.3888" lon="6.76888">
        <ele>2217.42</ele>
        <time>2010-08-03T10:23:22Z</time>
      </trkpt>
      <trkpt lat="45.38885" lon="6.7689">
        <ele>2218.86</ele>
        <time>2010-08-03T10:23:35Z</time>
      </trkpt>
      <trkpt lat="45.38895" lon="6.76897">
        <ele>2221.26</ele>
        <time>2010-08-03T10:23:50Z</time>
      </trkpt>
      <trkpt lat="45.38902" lon="6.769">
        <ele>2223.19</ele>
        <time>2010-08-03T10:24:04Z</time>
      </trkpt>
      <trkpt lat="45.38904" lon="6.76904">
        <ele>2224.15</ele>
        <time>2010-08-03T10:24:13Z</time>
      </trkpt>
      <trkpt lat="45.38904" lon="6.7691">
        <ele>2225.59</ele>
        <time>2010-08-03T10:24:18Z</time>
      </trkpt>
      <trkpt lat="45.38905" lon="6.76915">
        <ele>2225.59</ele>
        <time>2010-08-03T10:24:22Z</time>
      </trkpt>
      <trkpt lat="45.38911" lon="6.7693">
        <ele>2224.15</ele>
        <time>2010-08-03T10:24:34Z</time>
      </trkpt>
      <trkpt lat="45.38915" lon="6.76937">
        <ele>2225.11</ele>
        <time>2010-08-03T10:24:40Z</time>
      </trkpt>
      <trkpt lat="45.3892" lon="6.76944">
        <ele>2225.11</ele>
        <time>2010-08-03T10:24:51Z</time>
      </trkpt>
      <trkpt lat="45.38924" lon="6.76945">
        <ele>2225.59</ele>
        <time>2010-08-03T10:24:55Z</time>
      </trkpt>
      <trkpt lat="45.38924" lon="6.76949">
        <ele>2225.11</ele>
        <time>2010-08-03T10:24:58Z</time>
      </trkpt>
      <trkpt lat="45.38932" lon="6.76963">
        <ele>2226.55</ele>
        <time>2010-08-03T10:25:12Z</time>
      </trkpt>
      <trkpt lat="45.38939" lon="6.7698">
        <ele>2226.07</ele>
        <time>2010-08-03T10:25:25Z</time>
      </trkpt>
      <trkpt lat="45.38945" lon="6.7699">
        <ele>2227.99</ele>
        <time>2010-08-03T10:25:37Z</time>
      </trkpt>
      <trkpt lat="45.38948" lon="6.77">
        <ele>2229.92</ele>
        <time>2010-08-03T10:25:49Z</time>
      </trkpt>
      <trkpt lat="45.3895" lon="6.7701">
        <ele>2232.32</ele>
        <time>2010-08-03T10:26:03Z</time>
      </trkpt>
      <trkpt lat="45.3895" lon="6.77021">
        <ele>2234.24</ele>
        <time>2010-08-03T10:26:14Z</time>
      </trkpt>
      <trkpt lat="45.38952" lon="6.77027">
        <ele>2234.72</ele>
        <time>2010-08-03T10:26:25Z</time>
      </trkpt>
      <trkpt lat="45.38956" lon="6.77032">
        <ele>2237.13</ele>
        <time>2010-08-03T10:26:38Z</time>
      </trkpt>
      <trkpt lat="45.38959" lon="6.7704">
        <ele>2239.53</ele>
        <time>2010-08-03T10:26:52Z</time>
      </trkpt>
      <trkpt lat="45.38963" lon="6.77048">
        <ele>2242.41</ele>
        <time>2010-08-03T10:27:06Z</time>
      </trkpt>
      <trkpt lat="45.38968" lon="6.77058">
        <ele>2243.85</ele>
        <time>2010-08-03T10:27:21Z</time>
      </trkpt>
      <trkpt lat="45.38972" lon="6.77067">
        <ele>2246.26</ele>
        <time>2010-08-03T10:27:36Z</time>
      </trkpt>
      <trkpt lat="45.38975" lon="6.77076">
        <ele>2248.66</ele>
        <time>2010-08-03T10:27:51Z</time>
      </trkpt>
      <trkpt lat="45.38973" lon="6.77081">
        <ele>2250.1</ele>
        <time>2010-08-03T10:28:02Z</time>
      </trkpt>
      <trkpt lat="45.38977" lon="6.77092">
        <ele>2251.54</ele>
        <time>2010-08-03T10:28:15Z</time>
      </trkpt>
      <trkpt lat="45.38977" lon="6.77095">
        <ele>2252.03</ele>
        <time>2010-08-03T10:28:17Z</time>
      </trkpt>
      <trkpt lat="45.38976" lon="6.77103">
        <ele>2253.47</ele>
        <time>2010-08-03T10:28:31Z</time>
      </trkpt>
      <trkpt lat="45.38973" lon="6.77111">
        <ele>2254.43</ele>
        <time>2010-08-03T10:28:45Z</time>
      </trkpt>
      <trkpt lat="45.38971" lon="6.77119">
        <ele>2255.39</ele>
        <time>2010-08-03T10:28:56Z</time>
      </trkpt>
      <trkpt lat="45.38972" lon="6.7712">
        <ele>2256.35</ele>
        <time>2010-08-03T10:28:58Z</time>
      </trkpt>
      <trkpt lat="45.38977" lon="6.77122">
        <ele>2257.79</ele>
        <time>2010-08-03T10:29:08Z</time>
      </trkpt>
      <trkpt lat="45.38982" lon="6.77122">
        <ele>2258.27</ele>
        <time>2010-08-03T10:29:16Z</time>
      </trkpt>
      <trkpt lat="45.3899" lon="6.77126">
        <ele>2259.24</ele>
        <time>2010-08-03T10:29:29Z</time>
      </trkpt>
      <trkpt lat="45.3899" lon="6.77133">
        <ele>2259.72</ele>
        <time>2010-08-03T10:29:39Z</time>
      </trkpt>
      <trkpt lat="45.38994" lon="6.77137">
        <ele>2261.16</ele>
        <time>2010-08-03T10:29:50Z</time>
      </trkpt>
      <trkpt lat="45.38995" lon="6.77145">
        <ele>2263.56</ele>
        <time>2010-08-03T10:30:04Z</time>
      </trkpt>
      <trkpt lat="45.38996" lon="6.77149">
        <ele>2264.04</ele>
        <time>2010-08-03T10:30:16Z</time>
      </trkpt>
      <trkpt lat="45.38995" lon="6.7715">
        <ele>2265.48</ele>
        <time>2010-08-03T10:30:18Z</time>
      </trkpt>
      <trkpt lat="45.38998" lon="6.77159">
        <ele>2266.93</ele>
        <time>2010-08-03T10:30:31Z</time>
      </trkpt>
      <trkpt lat="45.38997" lon="6.77164">
        <ele>2268.85</ele>
        <time>2010-08-03T10:30:41Z</time>
      </trkpt>
      <trkpt lat="45.38996" lon="6.77171">
        <ele>2270.77</ele>
        <time>2010-08-03T10:30:52Z</time>
      </trkpt>
      <trkpt lat="45.38997" lon="6.77176">
        <ele>2272.69</ele>
        <time>2010-08-03T10:31:02Z</time>
      </trkpt>
      <trkpt lat="45.39" lon="6.77181">
        <ele>2274.62</ele>
        <time>2010-08-03T10:31:13Z</time>
      </trkpt>
      <trkpt lat="45.39004" lon="6.77186">
        <ele>2276.54</ele>
        <time>2010-08-03T10:31:25Z</time>
      </trkpt>
      <trkpt lat="45.39008" lon="6.77194">
        <ele>2278.46</ele>
        <time>2010-08-03T10:31:39Z</time>
      </trkpt>
      <trkpt lat="45.3901" lon="6.77204">
        <ele>2280.38</ele>
        <time>2010-08-03T10:31:52Z</time>
      </trkpt>
      <trkpt lat="45.39011" lon="6.77209">
        <ele>2281.83</ele>
        <time>2010-08-03T10:32:02Z</time>
      </trkpt>
      <trkpt lat="45.39013" lon="6.77217">
        <ele>2282.79</ele>
        <time>2010-08-03T10:32:13Z</time>
      </trkpt>
      <trkpt lat="45.39016" lon="6.77226">
        <ele>2284.71</ele>
        <time>2010-08-03T10:32:25Z</time>
      </trkpt>
      <trkpt lat="45.39018" lon="6.77233">
        <ele>2287.11</ele>
        <time>2010-08-03T10:32:38Z</time>
      </trkpt>
      <trkpt lat="45.39019" lon="6.77233">
        <ele>2287.59</ele>
        <time>2010-08-03T10:32:39Z</time>
      </trkpt>
      <trkpt lat="45.39019" lon="6.7724">
        <ele>2289.04</ele>
        <time>2010-08-03T10:32:51Z</time>
      </trkpt>
      <trkpt lat="45.3902" lon="6.77252">
        <ele>2290.96</ele>
        <time>2010-08-03T10:33:05Z</time>
      </trkpt>
      <trkpt lat="45.39023" lon="6.77257">
        <ele>2292.88</ele>
        <time>2010-08-03T10:33:14Z</time>
      </trkpt>
      <trkpt lat="45.39025" lon="6.77262">
        <ele>2294.8</ele>
        <time>2010-08-03T10:33:25Z</time>
      </trkpt>
      <trkpt lat="45.39026" lon="6.77272">
        <ele>2293.84</ele>
        <time>2010-08-03T10:33:37Z</time>
      </trkpt>
      <trkpt lat="45.39019" lon="6.77274">
        <ele>2292.88</ele>
        <time>2010-08-03T10:33:46Z</time>
      </trkpt>
      <trkpt lat="45.39011" lon="6.77271">
        <ele>2294.32</ele>
        <time>2010-08-03T10:33:58Z</time>
      </trkpt>
      <trkpt lat="45.39008" lon="6.77272">
        <ele>2294.8</ele>
        <time>2010-08-03T10:34:03Z</time>
      </trkpt>
      <trkpt lat="45.39006" lon="6.7728">
        <ele>2296.25</ele>
        <time>2010-08-03T10:34:11Z</time>
      </trkpt>
      <trkpt lat="45.38993" lon="6.77276">
        <ele>2295.77</ele>
        <time>2010-08-03T10:34:25Z</time>
      </trkpt>
      <trkpt lat="45.38987" lon="6.77278">
        <ele>2297.21</ele>
        <time>2010-08-03T10:34:36Z</time>
      </trkpt>
      <trkpt lat="45.38986" lon="6.77278">
        <ele>2298.17</ele>
        <time>2010-08-03T10:34:37Z</time>
      </trkpt>
      <trkpt lat="45.3898" lon="6.77278">
        <ele>2299.13</ele>
        <time>2010-08-03T10:34:43Z</time>
      </trkpt>
      <trkpt lat="45.38971" lon="6.77274">
        <ele>2300.09</ele>
        <time>2010-08-03T10:34:54Z</time>
      </trkpt>
      <trkpt lat="45.38964" lon="6.77274">
        <ele>2301.53</ele>
        <time>2010-08-03T10:35:07Z</time>
      </trkpt>
      <trkpt lat="45.3896" lon="6.77271">
        <ele>2302.49</ele>
        <time>2010-08-03T10:35:13Z</time>
      </trkpt>
      <trkpt lat="45.38957" lon="6.77264">
        <ele>2302.49</ele>
        <time>2010-08-03T10:35:21Z</time>
      </trkpt>
      <trkpt lat="45.38949" lon="6.77264">
        <ele>2304.9</ele>
        <time>2010-08-03T10:35:34Z</time>
      </trkpt>
      <trkpt lat="45.38948" lon="6.77265">
        <ele>2304.9</ele>
        <time>2010-08-03T10:35:35Z</time>
      </trkpt>
      <trkpt lat="45.38947" lon="6.77272">
        <ele>2307.78</ele>
        <time>2010-08-03T10:35:48Z</time>
      </trkpt>
      <trkpt lat="45.38947" lon="6.77273">
        <ele>2307.78</ele>
        <time>2010-08-03T10:35:49Z</time>
      </trkpt>
      <trkpt lat="45.38947" lon="6.77281">
        <ele>2309.22</ele>
        <time>2010-08-03T10:36:01Z</time>
      </trkpt>
      <trkpt lat="45.3895" lon="6.77288">
        <ele>2312.11</ele>
        <time>2010-08-03T10:36:11Z</time>
      </trkpt>
      <trkpt lat="45.38954" lon="6.77293">
        <ele>2314.03</ele>
        <time>2010-08-03T10:36:23Z</time>
      </trkpt>
      <trkpt lat="45.38956" lon="6.77301">
        <ele>2315.95</ele>
        <time>2010-08-03T10:36:37Z</time>
      </trkpt>
      <trkpt lat="45.38958" lon="6.77309">
        <ele>2318.84</ele>
        <time>2010-08-03T10:36:51Z</time>
      </trkpt>
      <trkpt lat="45.38959" lon="6.77316">
        <ele>2319.32</ele>
        <time>2010-08-03T10:37:02Z</time>
      </trkpt>
      <trkpt lat="45.3896" lon="6.77316">
        <ele>2320.76</ele>
        <time>2010-08-03T10:37:05Z</time>
      </trkpt>
      <trkpt lat="45.38963" lon="6.77324">
        <ele>2322.68</ele>
        <time>2010-08-03T10:37:18Z</time>
      </trkpt>
      <trkpt lat="45.38965" lon="6.77328">
        <ele>2325.57</ele>
        <time>2010-08-03T10:37:30Z</time>
      </trkpt>
      <trkpt lat="45.38968" lon="6.77338">
        <ele>2327.97</ele>
        <time>2010-08-03T10:37:43Z</time>
      </trkpt>
      <trkpt lat="45.38969" lon="6.77344">
        <ele>2329.41</ele>
        <time>2010-08-03T10:37:53Z</time>
      </trkpt>
      <trkpt lat="45.38972" lon="6.77347">
        <ele>2330.85</ele>
        <time>2010-08-03T10:38:01Z</time>
      </trkpt>
      <trkpt lat="45.38975" lon="6.77351">
        <ele>2331.81</ele>
        <time>2010-08-03T10:38:07Z</time>
      </trkpt>
      <trkpt lat="45.3898" lon="6.77359">
        <ele>2334.22</ele>
        <time>2010-08-03T10:38:21Z</time>
      </trkpt>
      <trkpt lat="45.38981" lon="6.77371">
        <ele>2335.66</ele>
        <time>2010-08-03T10:38:35Z</time>
      </trkpt>
      <trkpt lat="45.38984" lon="6.7738">
        <ele>2338.06</ele>
        <time>2010-08-03T10:38:47Z</time>
      </trkpt>
      <trkpt lat="45.38983" lon="6.77382">
        <ele>2339.99</ele>
        <time>2010-08-03T10:38:58Z</time>
      </trkpt>
      <trkpt lat="45.38983" lon="6.77387">
        <ele>2341.43</ele>
        <time>2010-08-03T10:39:10Z</time>
      </trkpt>
      <trkpt lat="45.38987" lon="6.77392">
        <ele>2343.83</ele>
        <time>2010-08-03T10:39:23Z</time>
      </trkpt>
      <trkpt lat="45.38989" lon="6.77399">
        <ele>2346.72</ele>
        <time>2010-08-03T10:39:34Z</time>
      </trkpt>
      <trkpt lat="45.38991" lon="6.77404">
        <ele>2347.68</ele>
        <time>2010-08-03T10:39:44Z</time>
      </trkpt>
      <trkpt lat="45.38995" lon="6.77413">
        <ele>2350.56</ele>
        <time>2010-08-03T10:39:57Z</time>
      </trkpt>
      <trkpt lat="45.38998" lon="6.77422">
        <ele>2352.48</ele>
        <time>2010-08-03T10:40:11Z</time>
      </trkpt>
      <trkpt lat="45.38997" lon="6.77423">
        <ele>2353.44</ele>
        <time>2010-08-03T10:40:18Z</time>
      </trkpt>
      <trkpt lat="45.38991" lon="6.77417">
        <ele>2354.89</ele>
        <time>2010-08-03T10:40:31Z</time>
      </trkpt>
      <trkpt lat="45.38986" lon="6.77419">
        <ele>2357.29</ele>
        <time>2010-08-03T10:40:43Z</time>
      </trkpt>
      <trkpt lat="45.38981" lon="6.77423">
        <ele>2359.69</ele>
        <time>2010-08-03T10:40:56Z</time>
      </trkpt>
      <trkpt lat="45.38976" lon="6.77428">
        <ele>2362.58</ele>
        <time>2010-08-03T10:41:09Z</time>
      </trkpt>
      <trkpt lat="45.38975" lon="6.77432">
        <ele>2364.02</ele>
        <time>2010-08-03T10:41:21Z</time>
      </trkpt>
      <trkpt lat="45.38974" lon="6.77438">
        <ele>2366.42</ele>
        <time>2010-08-03T10:41:34Z</time>
      </trkpt>
      <trkpt lat="45.38972" lon="6.77444">
        <ele>2369.31</ele>
        <time>2010-08-03T10:41:46Z</time>
      </trkpt>
      <trkpt lat="45.38973" lon="6.77455">
        <ele>2371.23</ele>
        <time>2010-08-03T10:41:58Z</time>
      </trkpt>
      <trkpt lat="45.38974" lon="6.77463">
        <ele>2372.67</ele>
        <time>2010-08-03T10:42:11Z</time>
      </trkpt>
      <trkpt lat="45.38974" lon="6.77474">
        <ele>2374.59</ele>
        <time>2010-08-03T10:42:25Z</time>
      </trkpt>
      <trkpt lat="45.3897" lon="6.7748">
        <ele>2376.52</ele>
        <time>2010-08-03T10:42:38Z</time>
      </trkpt>
      <trkpt lat="45.38969" lon="6.77487">
        <ele>2379.4</ele>
        <time>2010-08-03T10:42:50Z</time>
      </trkpt>
      <trkpt lat="45.38964" lon="6.77498">
        <ele>2382.28</ele>
        <time>2010-08-03T10:43:05Z</time>
      </trkpt>
      <trkpt lat="45.38959" lon="6.77508">
        <ele>2382.76</ele>
        <time>2010-08-03T10:43:19Z</time>
      </trkpt>
      <trkpt lat="45.38954" lon="6.77518">
        <ele>2384.69</ele>
        <time>2010-08-03T10:43:33Z</time>
      </trkpt>
      <trkpt lat="45.38951" lon="6.77533">
        <ele>2388.05</ele>
        <time>2010-08-03T10:43:49Z</time>
      </trkpt>
      <trkpt lat="45.38952" lon="6.77544">
        <ele>2389.97</ele>
        <time>2010-08-03T10:44:02Z</time>
      </trkpt>
      <trkpt lat="45.38953" lon="6.77554">
        <ele>2391.42</ele>
        <time>2010-08-03T10:44:15Z</time>
      </trkpt>
      <trkpt lat="45.38953" lon="6.77563">
        <ele>2393.34</ele>
        <time>2010-08-03T10:44:29Z</time>
      </trkpt>
      <trkpt lat="45.38952" lon="6.77574">
        <ele>2396.7</ele>
        <time>2010-08-03T10:44:44Z</time>
      </trkpt>
      <trkpt lat="45.38951" lon="6.77581">
        <ele>2398.15</ele>
        <time>2010-08-03T10:44:56Z</time>
      </trkpt>
      <trkpt lat="45.38954" lon="6.77586">
        <ele>2399.11</ele>
        <time>2010-08-03T10:45:05Z</time>
      </trkpt>
      <trkpt lat="45.38956" lon="6.77587">
        <ele>2399.59</ele>
        <time>2010-08-03T10:45:07Z</time>
      </trkpt>
      <trkpt lat="45.38961" lon="6.77597">
        <ele>2399.11</ele>
        <time>2010-08-03T10:45:16Z</time>
      </trkpt>
      <trkpt lat="45.38961" lon="6.77609">
        <ele>2399.59</ele>
        <time>2010-08-03T10:45:27Z</time>
      </trkpt>
      <trkpt lat="45.38959" lon="6.77618">
        <ele>2400.07</ele>
        <time>2010-08-03T10:45:34Z</time>
      </trkpt>
      <trkpt lat="45.38959" lon="6.77633">
        <ele>2401.51</ele>
        <time>2010-08-03T10:45:48Z</time>
      </trkpt>
      <trkpt lat="45.38957" lon="6.77644">
        <ele>2402.95</ele>
        <time>2010-08-03T10:46:01Z</time>
      </trkpt>
      <trkpt lat="45.38952" lon="6.77659">
        <ele>2404.39</ele>
        <time>2010-08-03T10:46:16Z</time>
      </trkpt>
      <trkpt lat="45.38952" lon="6.77663">
        <ele>2406.32</ele>
        <time>2010-08-03T10:46:21Z</time>
      </trkpt>
      <trkpt lat="45.38952" lon="6.77668">
        <ele>2407.28</ele>
        <time>2010-08-03T10:46:28Z</time>
      </trkpt>
      <trkpt lat="45.38949" lon="6.77675">
        <ele>2409.68</ele>
        <time>2010-08-03T10:46:41Z</time>
      </trkpt>
      <trkpt lat="45.38946" lon="6.77676">
        <ele>2410.16</ele>
        <time>2010-08-03T10:46:46Z</time>
      </trkpt>
      <trkpt lat="45.38944" lon="6.77684">
        <ele>2412.09</ele>
        <time>2010-08-03T10:46:59Z</time>
      </trkpt>
      <trkpt lat="45.38943" lon="6.77686">
        <ele>2413.05</ele>
        <time>2010-08-03T10:47:02Z</time>
      </trkpt>
      <trkpt lat="45.38948" lon="6.77696">
        <ele>2414.97</ele>
        <time>2010-08-03T10:47:14Z</time>
      </trkpt>
      <trkpt lat="45.38948" lon="6.77708">
        <ele>2415.93</ele>
        <time>2010-08-03T10:47:28Z</time>
      </trkpt>
      <trkpt lat="45.38944" lon="6.77719">
        <ele>2418.33</ele>
        <time>2010-08-03T10:47:43Z</time>
      </trkpt>
      <trkpt lat="45.38939" lon="6.77723">
        <ele>2421.22</ele>
        <time>2010-08-03T10:47:58Z</time>
      </trkpt>
      <trkpt lat="45.38937" lon="6.77724">
        <ele>2422.18</ele>
        <time>2010-08-03T10:48:04Z</time>
      </trkpt>
      <trkpt lat="45.38935" lon="6.7773">
        <ele>2423.62</ele>
        <time>2010-08-03T10:48:17Z</time>
      </trkpt>
      <trkpt lat="45.38935" lon="6.77736">
        <ele>2425.06</ele>
        <time>2010-08-03T10:48:27Z</time>
      </trkpt>
      <trkpt lat="45.38935" lon="6.77736">
        <ele>2424.1</ele>
        <time>2010-08-03T10:48:35Z</time>
      </trkpt>
      <trkpt lat="45.38931" lon="6.77739">
        <ele>2427.47</ele>
        <time>2010-08-03T10:48:47Z</time>
      </trkpt>
      <trkpt lat="45.38926" lon="6.77739">
        <ele>2428.43</ele>
        <time>2010-08-03T10:48:54Z</time>
      </trkpt>
      <trkpt lat="45.38922" lon="6.77742">
        <ele>2430.35</ele>
        <time>2010-08-03T10:49:06Z</time>
      </trkpt>
      <trkpt lat="45.38916" lon="6.77748">
        <ele>2432.75</ele>
        <time>2010-08-03T10:49:19Z</time>
      </trkpt>
      <trkpt lat="45.38917" lon="6.77761">
        <ele>2435.16</ele>
        <time>2010-08-03T10:49:37Z</time>
      </trkpt>
      <trkpt lat="45.3892" lon="6.77769">
        <ele>2437.56</ele>
        <time>2010-08-03T10:49:52Z</time>
      </trkpt>
      <trkpt lat="45.38917" lon="6.77774">
        <ele>2439.96</ele>
        <time>2010-08-03T10:50:03Z</time>
      </trkpt>
      <trkpt lat="45.3892" lon="6.77783">
        <ele>2441.89</ele>
        <time>2010-08-03T10:50:15Z</time>
      </trkpt>
      <trkpt lat="45.38921" lon="6.77785">
        <ele>2443.33</ele>
        <time>2010-08-03T10:50:18Z</time>
      </trkpt>
      <trkpt lat="45.38923" lon="6.77795">
        <ele>2445.25</ele>
        <time>2010-08-03T10:50:32Z</time>
      </trkpt>
      <trkpt lat="45.38923" lon="6.77802">
        <ele>2445.25</ele>
        <time>2010-08-03T10:50:39Z</time>
      </trkpt>
      <trkpt lat="45.38922" lon="6.77822">
        <ele>2445.25</ele>
        <time>2010-08-03T10:50:54Z</time>
      </trkpt>
      <trkpt lat="45.38921" lon="6.77827">
        <ele>2445.73</ele>
        <time>2010-08-03T10:50:57Z</time>
      </trkpt>
      <trkpt lat="45.3892" lon="6.77845">
        <ele>2447.17</ele>
        <time>2010-08-03T10:51:11Z</time>
      </trkpt>
      <trkpt lat="45.38923" lon="6.77861">
        <ele>2448.62</ele>
        <time>2010-08-03T10:51:25Z</time>
      </trkpt>
      <trkpt lat="45.38923" lon="6.77876">
        <ele>2447.17</ele>
        <time>2010-08-03T10:51:35Z</time>
      </trkpt>
      <trkpt lat="45.38924" lon="6.77881">
        <ele>2448.13</ele>
        <time>2010-08-03T10:51:38Z</time>
      </trkpt>
      <trkpt lat="45.38921" lon="6.77893">
        <ele>2448.13</ele>
        <time>2010-08-03T10:51:48Z</time>
      </trkpt>
      <trkpt lat="45.38922" lon="6.77897">
        <ele>2448.62</ele>
        <time>2010-08-03T10:51:51Z</time>
      </trkpt>
      <trkpt lat="45.38922" lon="6.77914">
        <ele>2450.06</ele>
        <time>2010-08-03T10:52:04Z</time>
      </trkpt>
      <trkpt lat="45.38922" lon="6.77915">
        <ele>2450.06</ele>
        <time>2010-08-03T10:52:05Z</time>
      </trkpt>
      <trkpt lat="45.38922" lon="6.77926">
        <ele>2450.06</ele>
        <time>2010-08-03T10:52:14Z</time>
      </trkpt>
      <trkpt lat="45.38924" lon="6.77933">
        <ele>2450.54</ele>
        <time>2010-08-03T10:52:20Z</time>
      </trkpt>
      <trkpt lat="45.38926" lon="6.77949">
        <ele>2451.02</ele>
        <time>2010-08-03T10:52:34Z</time>
      </trkpt>
      <trkpt lat="45.38925" lon="6.77957">
        <ele>2451.02</ele>
        <time>2010-08-03T10:52:40Z</time>
      </trkpt>
      <trkpt lat="45.38921" lon="6.77983">
        <ele>2451.02</ele>
        <time>2010-08-03T10:52:57Z</time>
      </trkpt>
      <trkpt lat="45.38921" lon="6.78">
        <ele>2451.98</ele>
        <time>2010-08-03T10:53:10Z</time>
      </trkpt>
      <trkpt lat="45.38924" lon="6.78017">
        <ele>2455.34</ele>
        <time>2010-08-03T10:53:25Z</time>
      </trkpt>
      <trkpt lat="45.38924" lon="6.78027">
        <ele>2456.31</ele>
        <time>2010-08-03T10:53:37Z</time>
      </trkpt>
      <trkpt lat="45.38922" lon="6.78043">
        <ele>2457.27</ele>
        <time>2010-08-03T10:53:51Z</time>
      </trkpt>
      <trkpt lat="45.3892" lon="6.78046">
        <ele>2458.23</ele>
        <time>2010-08-03T10:53:54Z</time>
      </trkpt>
      <trkpt lat="45.38919" lon="6.78062">
        <ele>2459.67</ele>
        <time>2010-08-03T10:54:09Z</time>
      </trkpt>
      <trkpt lat="45.38919" lon="6.78064">
        <ele>2460.15</ele>
        <time>2010-08-03T10:54:10Z</time>
      </trkpt>
      <trkpt lat="45.38924" lon="6.78083">
        <ele>2461.11</ele>
        <time>2010-08-03T10:54:26Z</time>
      </trkpt>
      <trkpt lat="45.38925" lon="6.78093">
        <ele>2462.07</ele>
        <time>2010-08-03T10:54:34Z</time>
      </trkpt>
      <trkpt lat="45.38931" lon="6.78109">
        <ele>2463.04</ele>
        <time>2010-08-03T10:54:47Z</time>
      </trkpt>
      <trkpt lat="45.38931" lon="6.78112">
        <ele>2461.59</ele>
        <time>2010-08-03T10:54:49Z</time>
      </trkpt>
      <trkpt lat="45.38933" lon="6.78133">
        <ele>2463.52</ele>
        <time>2010-08-03T10:55:04Z</time>
      </trkpt>
      <trkpt lat="45.38934" lon="6.78146">
        <ele>2464</ele>
        <time>2010-08-03T10:55:15Z</time>
      </trkpt>
      <trkpt lat="45.38937" lon="6.78158">
        <ele>2464.96</ele>
        <time>2010-08-03T10:55:27Z</time>
      </trkpt>
      <trkpt lat="45.38943" lon="6.78169">
        <ele>2466.88</ele>
        <time>2010-08-03T10:55:39Z</time>
      </trkpt>
      <trkpt lat="45.38947" lon="6.78179">
        <ele>2467.84</ele>
        <time>2010-08-03T10:55:50Z</time>
      </trkpt>
      <trkpt lat="45.38948" lon="6.78185">
        <ele>2469.28</ele>
        <time>2010-08-03T10:55:56Z</time>
      </trkpt>
      <trkpt lat="45.38952" lon="6.78197">
        <ele>2471.69</ele>
        <time>2010-08-03T10:56:12Z</time>
      </trkpt>
      <trkpt lat="45.38956" lon="6.78206">
        <ele>2473.61</ele>
        <time>2010-08-03T10:56:23Z</time>
      </trkpt>
      <trkpt lat="45.3896" lon="6.78216">
        <ele>2475.53</ele>
        <time>2010-08-03T10:56:36Z</time>
      </trkpt>
      <trkpt lat="45.3896" lon="6.78217">
        <ele>2476.01</ele>
        <time>2010-08-03T10:56:38Z</time>
      </trkpt>
      <trkpt lat="45.38957" lon="6.7823">
        <ele>2476.49</ele>
        <time>2010-08-03T10:56:51Z</time>
      </trkpt>
      <trkpt lat="45.38956" lon="6.78239">
        <ele>2477.94</ele>
        <time>2010-08-03T10:57:03Z</time>
      </trkpt>
      <trkpt lat="45.38955" lon="6.78241">
        <ele>2479.38</ele>
        <time>2010-08-03T10:57:06Z</time>
      </trkpt>
      <trkpt lat="45.38956" lon="6.78243">
        <ele>2479.38</ele>
        <time>2010-08-03T10:57:10Z</time>
      </trkpt>
      <trkpt lat="45.38959" lon="6.78252">
        <ele>2483.22</ele>
        <time>2010-08-03T10:57:23Z</time>
      </trkpt>
      <trkpt lat="45.38961" lon="6.78262">
        <ele>2484.66</ele>
        <time>2010-08-03T10:57:34Z</time>
      </trkpt>
      <trkpt lat="45.38962" lon="6.78265">
        <ele>2484.18</ele>
        <time>2010-08-03T10:57:37Z</time>
      </trkpt>
      <trkpt lat="45.38963" lon="6.78273">
        <ele>2483.7</ele>
        <time>2010-08-03T10:57:43Z</time>
      </trkpt>
      <trkpt lat="45.38969" lon="6.78287">
        <ele>2484.18</ele>
        <time>2010-08-03T10:57:55Z</time>
      </trkpt>
      <trkpt lat="45.38973" lon="6.78298">
        <ele>2484.66</ele>
        <time>2010-08-03T10:58:04Z</time>
      </trkpt>
      <trkpt lat="45.38975" lon="6.78304">
        <ele>2485.15</ele>
        <time>2010-08-03T10:58:09Z</time>
      </trkpt>
      <trkpt lat="45.38976" lon="6.78321">
        <ele>2484.18</ele>
        <time>2010-08-03T10:58:22Z</time>
      </trkpt>
      <trkpt lat="45.38977" lon="6.78328">
        <ele>2483.22</ele>
        <time>2010-08-03T10:58:27Z</time>
      </trkpt>
      <trkpt lat="45.3898" lon="6.7833">
        <ele>2482.26</ele>
        <time>2010-08-03T10:58:31Z</time>
      </trkpt>
      <trkpt lat="45.38982" lon="6.78335">
        <ele>2482.26</ele>
        <time>2010-08-03T10:58:37Z</time>
      </trkpt>
      <trkpt lat="45.38984" lon="6.78341">
        <ele>2479.86</ele>
        <time>2010-08-03T10:58:41Z</time>
      </trkpt>
      <trkpt lat="45.3899" lon="6.78356">
        <ele>2476.49</ele>
        <time>2010-08-03T10:58:51Z</time>
      </trkpt>
      <trkpt lat="45.38993" lon="6.78368">
        <ele>2475.53</ele>
        <time>2010-08-03T10:59:02Z</time>
      </trkpt>
      <trkpt lat="45.38993" lon="6.78368">
        <ele>2476.97</ele>
        <time>2010-08-03T10:59:40Z</time>
      </trkpt>
      <trkpt lat="45.38992" lon="6.78373">
        <ele>2476.97</ele>
        <time>2010-08-03T11:00:00Z</time>
      </trkpt>
      <trkpt lat="45.38992" lon="6.78372">
        <ele>2475.53</ele>
        <time>2010-08-03T11:00:58Z</time>
      </trkpt>
      <trkpt lat="45.38993" lon="6.78373">
        <ele>2476.49</ele>
        <time>2010-08-03T11:03:21Z</time>
      </trkpt>
      <trkpt lat="45.38993" lon="6.78373">
        <ele>2476.97</ele>
        <time>2010-08-03T11:03:27Z</time>
      </trkpt>
      <trkpt lat="45.38992" lon="6.78381">
        <ele>2478.42</ele>
        <time>2010-08-03T11:04:38Z</time>
      </trkpt>
      <trkpt lat="45.38993" lon="6.78381">
        <ele>2478.42</ele>
        <time>2010-08-03T11:04:55Z</time>
      </trkpt>
      <trkpt lat="45.38995" lon="6.78379">
        <ele>2478.42</ele>
        <time>2010-08-03T11:05:19Z</time>
      </trkpt>
      <trkpt lat="45.38995" lon="6.78381">
        <ele>2479.38</ele>
        <time>2010-08-03T11:06:33Z</time>
      </trkpt>
      <trkpt lat="45.38995" lon="6.78383">
        <ele>2479.38</ele>
        <time>2010-08-03T11:07:25Z</time>
      </trkpt>
      <trkpt lat="45.38996" lon="6.7839">
        <ele>2479.38</ele>
        <time>2010-08-03T11:08:36Z</time>
      </trkpt>
      <trkpt lat="45.38996" lon="6.78406">
        <ele>2480.34</ele>
        <time>2010-08-03T11:08:49Z</time>
      </trkpt>
      <trkpt lat="45.38994" lon="6.7842">
        <ele>2480.34</ele>
        <time>2010-08-03T11:09:02Z</time>
      </trkpt>
      <trkpt lat="45.38994" lon="6.78439">
        <ele>2480.34</ele>
        <time>2010-08-03T11:09:15Z</time>
      </trkpt>
      <trkpt lat="45.38994" lon="6.78456">
        <ele>2481.3</ele>
        <time>2010-08-03T11:09:27Z</time>
      </trkpt>
      <trkpt lat="45.38993" lon="6.78466">
        <ele>2481.3</ele>
        <time>2010-08-03T11:09:34Z</time>
      </trkpt>
      <trkpt lat="45.38997" lon="6.78483">
        <ele>2483.22</ele>
        <time>2010-08-03T11:09:47Z</time>
      </trkpt>
      <trkpt lat="45.38998" lon="6.78488">
        <ele>2482.26</ele>
        <time>2010-08-03T11:09:51Z</time>
      </trkpt>
      <trkpt lat="45.39" lon="6.78506">
        <ele>2483.22</ele>
        <time>2010-08-03T11:10:04Z</time>
      </trkpt>
      <trkpt lat="45.39003" lon="6.78522">
        <ele>2484.66</ele>
        <time>2010-08-03T11:10:16Z</time>
      </trkpt>
      <trkpt lat="45.39003" lon="6.78526">
        <ele>2483.22</ele>
        <time>2010-08-03T11:10:19Z</time>
      </trkpt>
      <trkpt lat="45.39007" lon="6.78539">
        <ele>2483.22</ele>
        <time>2010-08-03T11:10:29Z</time>
      </trkpt>
      <trkpt lat="45.39009" lon="6.78558">
        <ele>2484.18</ele>
        <time>2010-08-03T11:10:42Z</time>
      </trkpt>
      <trkpt lat="45.39012" lon="6.78575">
        <ele>2483.7</ele>
        <time>2010-08-03T11:10:53Z</time>
      </trkpt>
      <trkpt lat="45.39013" lon="6.78577">
        <ele>2484.18</ele>
        <time>2010-08-03T11:10:55Z</time>
      </trkpt>
      <trkpt lat="45.39015" lon="6.78584">
        <ele>2483.22</ele>
        <time>2010-08-03T11:11:00Z</time>
      </trkpt>
      <trkpt lat="45.39018" lon="6.78602">
        <ele>2484.18</ele>
        <time>2010-08-03T11:11:12Z</time>
      </trkpt>
      <trkpt lat="45.3902" lon="6.78611">
        <ele>2483.7</ele>
        <time>2010-08-03T11:11:25Z</time>
      </trkpt>
      <trkpt lat="45.39024" lon="6.78632">
        <ele>2483.7</ele>
        <time>2010-08-03T11:11:40Z</time>
      </trkpt>
      <trkpt lat="45.39023" lon="6.7864">
        <ele>2485.15</ele>
        <time>2010-08-03T11:11:46Z</time>
      </trkpt>
      <trkpt lat="45.39022" lon="6.78649">
        <ele>2487.55</ele>
        <time>2010-08-03T11:11:59Z</time>
      </trkpt>
      <trkpt lat="45.39021" lon="6.78657">
        <ele>2488.99</ele>
        <time>2010-08-03T11:12:11Z</time>
      </trkpt>
      <trkpt lat="45.39022" lon="6.78658">
        <ele>2490.43</ele>
        <time>2010-08-03T11:12:14Z</time>
      </trkpt>
      <trkpt lat="45.39015" lon="6.78667">
        <ele>2491.87</ele>
        <time>2010-08-03T11:12:29Z</time>
      </trkpt>
      <trkpt lat="45.3901" lon="6.78674">
        <ele>2494.28</ele>
        <time>2010-08-03T11:12:44Z</time>
      </trkpt>
      <trkpt lat="45.39006" lon="6.78686">
        <ele>2496.68</ele>
        <time>2010-08-03T11:12:58Z</time>
      </trkpt>
      <trkpt lat="45.39008" lon="6.78699">
        <ele>2499.08</ele>
        <time>2010-08-03T11:13:13Z</time>
      </trkpt>
      <trkpt lat="45.39008" lon="6.78709">
        <ele>2501.49</ele>
        <time>2010-08-03T11:13:26Z</time>
      </trkpt>
      <trkpt lat="45.39009" lon="6.78713">
        <ele>2502.45</ele>
        <time>2010-08-03T11:13:31Z</time>
      </trkpt>
      <trkpt lat="45.3901" lon="6.78725">
        <ele>2503.89</ele>
        <time>2010-08-03T11:13:45Z</time>
      </trkpt>
      <trkpt lat="45.39012" lon="6.78736">
        <ele>2506.29</ele>
        <time>2010-08-03T11:13:58Z</time>
      </trkpt>
      <trkpt lat="45.39011" lon="6.78747">
        <ele>2508.22</ele>
        <time>2010-08-03T11:14:11Z</time>
      </trkpt>
      <trkpt lat="45.39013" lon="6.78755">
        <ele>2510.14</ele>
        <time>2010-08-03T11:14:21Z</time>
      </trkpt>
      <trkpt lat="45.39017" lon="6.78759">
        <ele>2512.06</ele>
        <time>2010-08-03T11:14:27Z</time>
      </trkpt>
      <trkpt lat="45.3902" lon="6.78762">
        <ele>2510.62</ele>
        <time>2010-08-03T11:14:30Z</time>
      </trkpt>
      <trkpt lat="45.39025" lon="6.78766">
        <ele>2511.1</ele>
        <time>2010-08-03T11:14:36Z</time>
      </trkpt>
      <trkpt lat="45.39025" lon="6.78775">
        <ele>2513.02</ele>
        <time>2010-08-03T11:14:45Z</time>
      </trkpt>
      <trkpt lat="45.39023" lon="6.78794">
        <ele>2513.02</ele>
        <time>2010-08-03T11:14:57Z</time>
      </trkpt>
      <trkpt lat="45.39023" lon="6.78799">
        <ele>2513.5</ele>
        <time>2010-08-03T11:15:01Z</time>
      </trkpt>
      <trkpt lat="45.39026" lon="6.78803">
        <ele>2513.5</ele>
        <time>2010-08-03T11:15:06Z</time>
      </trkpt>
      <trkpt lat="45.39028" lon="6.78803">
        <ele>2513.5</ele>
        <time>2010-08-03T11:15:08Z</time>
      </trkpt>
      <trkpt lat="45.39033" lon="6.78803">
        <ele>2514.47</ele>
        <time>2010-08-03T11:15:13Z</time>
      </trkpt>
      <trkpt lat="45.39038" lon="6.78807">
        <ele>2513.02</ele>
        <time>2010-08-03T11:15:19Z</time>
      </trkpt>
      <trkpt lat="45.3904" lon="6.78817">
        <ele>2514.95</ele>
        <time>2010-08-03T11:15:26Z</time>
      </trkpt>
      <trkpt lat="45.39041" lon="6.78825">
        <ele>2516.39</ele>
        <time>2010-08-03T11:15:33Z</time>
      </trkpt>
      <trkpt lat="45.39045" lon="6.78837">
        <ele>2517.35</ele>
        <time>2010-08-03T11:15:45Z</time>
      </trkpt>
      <trkpt lat="45.39049" lon="6.7884">
        <ele>2519.27</ele>
        <time>2010-08-03T11:15:50Z</time>
      </trkpt>
      <trkpt lat="45.39054" lon="6.78854">
        <ele>2518.79</ele>
        <time>2010-08-03T11:16:01Z</time>
      </trkpt>
      <trkpt lat="45.39057" lon="6.7886">
        <ele>2518.79</ele>
        <time>2010-08-03T11:16:07Z</time>
      </trkpt>
      <trkpt lat="45.39061" lon="6.78873">
        <ele>2518.31</ele>
        <time>2010-08-03T11:16:17Z</time>
      </trkpt>
      <trkpt lat="45.39062" lon="6.78876">
        <ele>2517.35</ele>
        <time>2010-08-03T11:16:19Z</time>
      </trkpt>
      <trkpt lat="45.39069" lon="6.78886">
        <ele>2518.79</ele>
        <time>2010-08-03T11:16:34Z</time>
      </trkpt>
      <trkpt lat="45.39072" lon="6.78887">
        <ele>2519.75</ele>
        <time>2010-08-03T11:16:38Z</time>
      </trkpt>
      <trkpt lat="45.39073" lon="6.78886">
        <ele>2517.83</ele>
        <time>2010-08-03T11:16:51Z</time>
      </trkpt>
      <trkpt lat="45.3907" lon="6.78884">
        <ele>2518.79</ele>
        <time>2010-08-03T11:17:02Z</time>
      </trkpt>
      <trkpt lat="45.39073" lon="6.78885">
        <ele>2518.31</ele>
        <time>2010-08-03T11:17:18Z</time>
      </trkpt>
      <trkpt lat="45.39072" lon="6.78888">
        <ele>2518.31</ele>
        <time>2010-08-03T11:17:38Z</time>
      </trkpt>
      <trkpt lat="45.39071" lon="6.78901">
        <ele>2517.83</ele>
        <time>2010-08-03T11:17:54Z</time>
      </trkpt>
      <trkpt lat="45.39074" lon="6.78917">
        <ele>2516.87</ele>
        <time>2010-08-03T11:18:05Z</time>
      </trkpt>
      <trkpt lat="45.39077" lon="6.78921">
        <ele>2516.39</ele>
        <time>2010-08-03T11:18:11Z</time>
      </trkpt>
      <trkpt lat="45.39085" lon="6.78938">
        <ele>2515.91</ele>
        <time>2010-08-03T11:18:24Z</time>
      </trkpt>
      <trkpt lat="45.39088" lon="6.78941">
        <ele>2515.43</ele>
        <time>2010-08-03T11:18:32Z</time>
      </trkpt>
      <trkpt lat="45.39098" lon="6.78953">
        <ele>2514.47</ele>
        <time>2010-08-03T11:18:44Z</time>
      </trkpt>
      <trkpt lat="45.39112" lon="6.78965">
        <ele>2514.47</ele>
        <time>2010-08-03T11:18:59Z</time>
      </trkpt>
      <trkpt lat="45.39125" lon="6.78971">
        <ele>2513.98</ele>
        <time>2010-08-03T11:19:12Z</time>
      </trkpt>
      <trkpt lat="45.39127" lon="6.78974">
        <ele>2514.95</ele>
        <time>2010-08-03T11:19:15Z</time>
      </trkpt>
      <trkpt lat="45.39131" lon="6.78978">
        <ele>2514.95</ele>
        <time>2010-08-03T11:19:20Z</time>
      </trkpt>
      <trkpt lat="45.39136" lon="6.78983">
        <ele>2513.98</ele>
        <time>2010-08-03T11:19:27Z</time>
      </trkpt>
      <trkpt lat="45.39138" lon="6.78985">
        <ele>2514.95</ele>
        <time>2010-08-03T11:19:30Z</time>
      </trkpt>
      <trkpt lat="45.3915" lon="6.79002">
        <ele>2514.95</ele>
        <time>2010-08-03T11:19:47Z</time>
      </trkpt>
      <trkpt lat="45.39158" lon="6.7901">
        <ele>2515.91</ele>
        <time>2010-08-03T11:20:00Z</time>
      </trkpt>
      <trkpt lat="45.39159" lon="6.79013">
        <ele>2514.95</ele>
        <time>2010-08-03T11:20:13Z</time>
      </trkpt>
      <trkpt lat="45.39162" lon="6.79016">
        <ele>2515.91</ele>
        <time>2010-08-03T11:20:19Z</time>
      </trkpt>
      <trkpt lat="45.39165" lon="6.79017">
        <ele>2515.43</ele>
        <time>2010-08-03T11:20:22Z</time>
      </trkpt>
      <trkpt lat="45.39171" lon="6.79024">
        <ele>2514.47</ele>
        <time>2010-08-03T11:20:29Z</time>
      </trkpt>
      <trkpt lat="45.39177" lon="6.79031">
        <ele>2517.83</ele>
        <time>2010-08-03T11:20:37Z</time>
      </trkpt>
      <trkpt lat="45.39179" lon="6.79034">
        <ele>2514.95</ele>
        <time>2010-08-03T11:20:40Z</time>
      </trkpt>
      <trkpt lat="45.39185" lon="6.79038">
        <ele>2518.79</ele>
        <time>2010-08-03T11:20:55Z</time>
      </trkpt>
      <trkpt lat="45.3919" lon="6.79039">
        <ele>2518.31</ele>
        <time>2010-08-03T11:21:01Z</time>
      </trkpt>
      <trkpt lat="45.39198" lon="6.79031">
        <ele>2518.79</ele>
        <time>2010-08-03T11:21:15Z</time>
      </trkpt>
      <trkpt lat="45.39198" lon="6.79031">
        <ele>2518.79</ele>
        <time>2010-08-03T11:21:24Z</time>
      </trkpt>
      <trkpt lat="45.39195" lon="6.79033">
        <ele>2519.27</ele>
        <time>2010-08-03T11:21:29Z</time>
      </trkpt>
      <trkpt lat="45.39194" lon="6.79038">
        <ele>2520.71</ele>
        <time>2010-08-03T11:21:35Z</time>
      </trkpt>
      <trkpt lat="45.39194" lon="6.79049">
        <ele>2521.19</ele>
        <time>2010-08-03T11:21:50Z</time>
      </trkpt>
      <trkpt lat="45.39189" lon="6.79058">
        <ele>2520.71</ele>
        <time>2010-08-03T11:22:02Z</time>
      </trkpt>
      <trkpt lat="45.39187" lon="6.79065">
        <ele>2521.68</ele>
        <time>2010-08-03T11:22:08Z</time>
      </trkpt>
      <trkpt lat="45.39189" lon="6.79071">
        <ele>2521.19</ele>
        <time>2010-08-03T11:22:19Z</time>
      </trkpt>
      <trkpt lat="45.39185" lon="6.79073">
        <ele>2521.19</ele>
        <time>2010-08-03T11:23:21Z</time>
      </trkpt>
      <trkpt lat="45.39187" lon="6.79071">
        <ele>2519.75</ele>
        <time>2010-08-03T11:23:48Z</time>
      </trkpt>
      <trkpt lat="45.39187" lon="6.79071">
        <ele>2516.87</ele>
        <time>2010-08-03T11:23:58Z</time>
      </trkpt>
      <trkpt lat="45.39187" lon="6.79071">
        <ele>2523.12</ele>
        <time>2010-08-03T11:23:59Z</time>
      </trkpt>
      <trkpt lat="45.39187" lon="6.79071">
        <ele>2519.75</ele>
        <time>2010-08-03T11:24:02Z</time>
      </trkpt>
      <trkpt lat="45.39187" lon="6.79073">
        <ele>2522.16</ele>
        <time>2010-08-03T11:24:05Z</time>
      </trkpt>
      <trkpt lat="45.39187" lon="6.79073">
        <ele>2521.19</ele>
        <time>2010-08-03T11:24:15Z</time>
      </trkpt>
      <trkpt lat="45.39187" lon="6.79073">
        <ele>2522.64</ele>
        <time>2010-08-03T11:24:35Z</time>
      </trkpt>
      <trkpt lat="45.39185" lon="6.7907">
        <ele>2518.79</ele>
        <time>2010-08-03T11:25:33Z</time>
      </trkpt>
      <trkpt lat="45.39185" lon="6.7907">
        <ele>2522.64</ele>
        <time>2010-08-03T11:25:35Z</time>
      </trkpt>
      <trkpt lat="45.39186" lon="6.7907">
        <ele>2526.96</ele>
        <time>2010-08-03T11:26:02Z</time>
      </trkpt>
      <trkpt lat="45.39186" lon="6.7907">
        <ele>2521.19</ele>
        <time>2010-08-03T11:26:03Z</time>
      </trkpt>
      <trkpt lat="45.39186" lon="6.7907">
        <ele>2516.87</ele>
        <time>2010-08-03T11:26:04Z</time>
      </trkpt>
      <trkpt lat="45.39186" lon="6.7907">
        <ele>2521.19</ele>
        <time>2010-08-03T11:26:05Z</time>
      </trkpt>
      <trkpt lat="45.39186" lon="6.7907">
        <ele>2521.19</ele>
        <time>2010-08-03T11:26:11Z</time>
      </trkpt>
      <trkpt lat="45.39186" lon="6.7907">
        <ele>2520.23</ele>
        <time>2010-08-03T11:26:17Z</time>
      </trkpt>
      <trkpt lat="45.39186" lon="6.7907">
        <ele>2513.98</ele>
        <time>2010-08-04T02:51:38Z</time>
      </trkpt>
      <trkpt lat="45.39186" lon="6.7907">
        <ele>2511.1</ele>
        <time>2010-08-04T02:51:39Z</time>
      </trkpt>
      <trkpt lat="45.39186" lon="6.7907">
        <ele>2511.1</ele>
        <time>2010-08-04T02:51:40Z</time>
      </trkpt>
      <trkpt lat="45.39186" lon="6.7907">
        <ele>2507.74</ele>
        <time>2010-08-04T02:51:44Z</time>
      </trkpt>
      <trkpt lat="45.39186" lon="6.7907">
        <ele>2511.1</ele>
        <time>2010-08-04T02:51:45Z</time>
      </trkpt>
      <trkpt lat="45.39186" lon="6.7907">
        <ele>2512.06</ele>
        <time>2010-08-04T02:52:20Z</time>
      </trkpt>
      <trkpt lat="45.39186" lon="6.7907">
        <ele>2508.22</ele>
        <time>2010-08-04T02:52:36Z</time>
      </trkpt>
      <trkpt lat="45.39186" lon="6.7907">
        <ele>2510.62</ele>
        <time>2010-08-04T02:52:37Z</time>
      </trkpt>
      <trkpt lat="45.39186" lon="6.7907">
        <ele>2513.98</ele>
        <time>2010-08-04T02:55:10Z</time>
      </trkpt>
      <trkpt lat="45.39186" lon="6.7907">
        <ele>2511.1</ele>
        <time>2010-08-04T02:55:12Z</time>
      </trkpt>
      <trkpt lat="45.39186" lon="6.7907">
        <ele>2511.1</ele>
        <time>2010-08-04T02:55:13Z</time>
      </trkpt>
      <trkpt lat="45.39186" lon="6.7907">
        <ele>2506.77</ele>
        <time>2010-08-04T02:55:20Z</time>
      </trkpt>
      <trkpt lat="45.39186" lon="6.7907">
        <ele>2506.77</ele>
        <time>2010-08-04T02:55:21Z</time>
      </trkpt>
      <trkpt lat="45.39186" lon="6.7907">
        <ele>2511.1</ele>
        <time>2010-08-04T02:55:22Z</time>
      </trkpt>
      <trkpt lat="45.39186" lon="6.7907">
        <ele>2512.54</ele>
        <time>2010-08-04T02:55:23Z</time>
      </trkpt>
      <trkpt lat="45.39186" lon="6.7907">
        <ele>2510.14</ele>
        <time>2010-08-04T02:55:25Z</time>
      </trkpt>
      <trkpt lat="45.39188" lon="6.79081">
        <ele>2510.62</ele>
        <time>2010-08-04T02:56:53Z</time>
      </trkpt>
      <trkpt lat="45.39186" lon="6.79071">
        <ele>2507.26</ele>
        <time>2010-08-04T02:58:02Z</time>
      </trkpt>
      <trkpt lat="45.39186" lon="6.79072">
        <ele>2509.18</ele>
        <time>2010-08-04T02:58:03Z</time>
      </trkpt>
      <trkpt lat="45.39187" lon="6.79066">
        <ele>2512.06</ele>
        <time>2010-08-04T02:59:07Z</time>
      </trkpt>
      <trkpt lat="45.39186" lon="6.7906">
        <ele>2514.95</ele>
        <time>2010-08-04T02:59:18Z</time>
      </trkpt>
      <trkpt lat="45.39183" lon="6.79057">
        <ele>2518.31</ele>
        <time>2010-08-04T02:59:27Z</time>
      </trkpt>
      <trkpt lat="45.39181" lon="6.79052">
        <ele>2521.19</ele>
        <time>2010-08-04T02:59:52Z</time>
      </trkpt>
      <trkpt lat="45.39184" lon="6.79054">
        <ele>2524.56</ele>
        <time>2010-08-04T03:00:16Z</time>
      </trkpt>
      <trkpt lat="45.39182" lon="6.79058">
        <ele>2526</ele>
        <time>2010-08-04T03:00:23Z</time>
      </trkpt>
      <trkpt lat="45.39165" lon="6.79065">
        <ele>2526.96</ele>
        <time>2010-08-04T03:01:15Z</time>
      </trkpt>
      <trkpt lat="45.39196" lon="6.79069">
        <ele>2526.96</ele>
        <time>2010-08-04T03:01:38Z</time>
      </trkpt>
      <trkpt lat="45.39215" lon="6.79101">
        <ele>2526.48</ele>
        <time>2010-08-04T03:02:09Z</time>
      </trkpt>
      <trkpt lat="45.39189" lon="6.79048">
        <ele>2526.48</ele>
        <time>2010-08-04T03:02:23Z</time>
      </trkpt>
      <trkpt lat="45.39184" lon="6.79064">
        <ele>2526.48</ele>
        <time>2010-08-04T03:02:47Z</time>
      </trkpt>
      <trkpt lat="45.39179" lon="6.79064">
        <ele>2526.48</ele>
        <time>2010-08-04T03:02:52Z</time>
      </trkpt>
      <trkpt lat="45.39172" lon="6.79062">
        <ele>2526.48</ele>
        <time>2010-08-04T03:03:04Z</time>
      </trkpt>
      <trkpt lat="45.39169" lon="6.79067">
        <ele>2525.52</ele>
        <time>2010-08-04T03:03:10Z</time>
      </trkpt>
      <trkpt lat="45.39167" lon="6.79069">
        <ele>2525.52</ele>
        <time>2010-08-04T03:03:15Z</time>
      </trkpt>
      <trkpt lat="45.39173" lon="6.7907">
        <ele>2524.08</ele>
        <time>2010-08-04T03:03:21Z</time>
      </trkpt>
      <trkpt lat="45.39182" lon="6.7907">
        <ele>2522.16</ele>
        <time>2010-08-04T03:03:37Z</time>
      </trkpt>
      <trkpt lat="45.39179" lon="6.7907">
        <ele>2521.19</ele>
        <time>2010-08-04T03:03:46Z</time>
      </trkpt>
      <trkpt lat="45.39175" lon="6.79067">
        <ele>2520.71</ele>
        <time>2010-08-04T03:03:52Z</time>
      </trkpt>
      <trkpt lat="45.39176" lon="6.79055">
        <ele>2520.23</ele>
        <time>2010-08-04T03:04:01Z</time>
      </trkpt>
      <trkpt lat="45.39176" lon="6.79049">
        <ele>2518.79</ele>
        <time>2010-08-04T03:04:07Z</time>
      </trkpt>
      <trkpt lat="45.39169" lon="6.79041">
        <ele>2516.87</ele>
        <time>2010-08-04T03:04:18Z</time>
      </trkpt>
      <trkpt lat="45.39169" lon="6.79038">
        <ele>2516.39</ele>
        <time>2010-08-04T03:04:29Z</time>
      </trkpt>
      <trkpt lat="45.39168" lon="6.79036">
        <ele>2516.39</ele>
        <time>2010-08-04T03:04:32Z</time>
      </trkpt>
      <trkpt lat="45.39166" lon="6.79031">
        <ele>2517.35</ele>
        <time>2010-08-04T03:04:36Z</time>
      </trkpt>
      <trkpt lat="45.3916" lon="6.79022">
        <ele>2515.91</ele>
        <time>2010-08-04T03:04:45Z</time>
      </trkpt>
      <trkpt lat="45.39159" lon="6.79017">
        <ele>2515.43</ele>
        <time>2010-08-04T03:04:48Z</time>
      </trkpt>
      <trkpt lat="45.39153" lon="6.79004">
        <ele>2515.91</ele>
        <time>2010-08-04T03:05:01Z</time>
      </trkpt>
      <trkpt lat="45.39143" lon="6.78993">
        <ele>2514.47</ele>
        <time>2010-08-04T03:05:16Z</time>
      </trkpt>
      <trkpt lat="45.39138" lon="6.78986">
        <ele>2513.98</ele>
        <time>2010-08-04T03:05:27Z</time>
      </trkpt>
      <trkpt lat="45.3913" lon="6.78977">
        <ele>2514.47</ele>
        <time>2010-08-04T03:05:42Z</time>
      </trkpt>
      <trkpt lat="45.39126" lon="6.78972">
        <ele>2518.31</ele>
        <time>2010-08-04T03:05:47Z</time>
      </trkpt>
      <trkpt lat="45.39125" lon="6.78971">
        <ele>2515.43</ele>
        <time>2010-08-04T03:05:48Z</time>
      </trkpt>
      <trkpt lat="45.39122" lon="6.78968">
        <ele>2510.62</ele>
        <time>2010-08-04T03:05:51Z</time>
      </trkpt>
      <trkpt lat="45.39121" lon="6.78967">
        <ele>2516.39</ele>
        <time>2010-08-04T03:05:52Z</time>
      </trkpt>
      <trkpt lat="45.3912" lon="6.78967">
        <ele>2514.47</ele>
        <time>2010-08-04T03:05:53Z</time>
      </trkpt>
      <trkpt lat="45.39114" lon="6.78961">
        <ele>2516.87</ele>
        <time>2010-08-04T03:06:01Z</time>
      </trkpt>
      <trkpt lat="45.39111" lon="6.7896">
        <ele>2515.43</ele>
        <time>2010-08-04T03:06:04Z</time>
      </trkpt>
      <trkpt lat="45.391" lon="6.7895">
        <ele>2514.95</ele>
        <time>2010-08-04T03:06:16Z</time>
      </trkpt>
      <trkpt lat="45.39096" lon="6.78946">
        <ele>2515.43</ele>
        <time>2010-08-04T03:06:22Z</time>
      </trkpt>
      <trkpt lat="45.39094" lon="6.78944">
        <ele>2508.7</ele>
        <time>2010-08-04T03:06:24Z</time>
      </trkpt>
      <trkpt lat="45.39092" lon="6.78943">
        <ele>2518.79</ele>
        <time>2010-08-04T03:06:25Z</time>
      </trkpt>
      <trkpt lat="45.39092" lon="6.78942">
        <ele>2514.95</ele>
        <time>2010-08-04T03:06:26Z</time>
      </trkpt>
      <trkpt lat="45.39085" lon="6.78936">
        <ele>2514.47</ele>
        <time>2010-08-04T03:06:32Z</time>
      </trkpt>
      <trkpt lat="45.39082" lon="6.78931">
        <ele>2515.91</ele>
        <time>2010-08-04T03:06:37Z</time>
      </trkpt>
      <trkpt lat="45.39071" lon="6.78916">
        <ele>2513.5</ele>
        <time>2010-08-04T03:06:52Z</time>
      </trkpt>
      <trkpt lat="45.39069" lon="6.78915">
        <ele>2517.35</ele>
        <time>2010-08-04T03:06:54Z</time>
      </trkpt>
      <trkpt lat="45.39068" lon="6.78914">
        <ele>2516.39</ele>
        <time>2010-08-04T03:06:55Z</time>
      </trkpt>
      <trkpt lat="45.39065" lon="6.78912">
        <ele>2517.35</ele>
        <time>2010-08-04T03:06:59Z</time>
      </trkpt>
      <trkpt lat="45.3906" lon="6.78892">
        <ele>2516.39</ele>
        <time>2010-08-04T03:07:13Z</time>
      </trkpt>
      <trkpt lat="45.39057" lon="6.78884">
        <ele>2517.83</ele>
        <time>2010-08-04T03:07:19Z</time>
      </trkpt>
      <trkpt lat="45.39057" lon="6.7888">
        <ele>2516.39</ele>
        <time>2010-08-04T03:07:21Z</time>
      </trkpt>
      <trkpt lat="45.39053" lon="6.78859">
        <ele>2513.98</ele>
        <time>2010-08-04T03:07:35Z</time>
      </trkpt>
      <trkpt lat="45.3905" lon="6.78849">
        <ele>2516.87</ele>
        <time>2010-08-04T03:07:42Z</time>
      </trkpt>
      <trkpt lat="45.39048" lon="6.78847">
        <ele>2516.87</ele>
        <time>2010-08-04T03:07:45Z</time>
      </trkpt>
      <trkpt lat="45.39041" lon="6.78842">
        <ele>2517.35</ele>
        <time>2010-08-04T03:07:53Z</time>
      </trkpt>
      <trkpt lat="45.39034" lon="6.7884">
        <ele>2518.31</ele>
        <time>2010-08-04T03:08:06Z</time>
      </trkpt>
      <trkpt lat="45.39024" lon="6.78837">
        <ele>2519.27</ele>
        <time>2010-08-04T03:08:19Z</time>
      </trkpt>
      <trkpt lat="45.39019" lon="6.78839">
        <ele>2520.71</ele>
        <time>2010-08-04T03:08:28Z</time>
      </trkpt>
      <trkpt lat="45.39016" lon="6.78843">
        <ele>2521.68</ele>
        <time>2010-08-04T03:08:33Z</time>
      </trkpt>
      <trkpt lat="45.39006" lon="6.78841">
        <ele>2523.6</ele>
        <time>2010-08-04T03:08:44Z</time>
      </trkpt>
      <trkpt lat="45.39005" lon="6.78841">
        <ele>2523.6</ele>
        <time>2010-08-04T03:08:45Z</time>
      </trkpt>
      <trkpt lat="45.39002" lon="6.78842">
        <ele>2524.08</ele>
        <time>2010-08-04T03:08:47Z</time>
      </trkpt>
      <trkpt lat="45.39" lon="6.78847">
        <ele>2525.04</ele>
        <time>2010-08-04T03:08:52Z</time>
      </trkpt>
      <trkpt lat="45.3899" lon="6.78847">
        <ele>2524.56</ele>
        <time>2010-08-04T03:09:02Z</time>
      </trkpt>
      <trkpt lat="45.38983" lon="6.78847">
        <ele>2524.56</ele>
        <time>2010-08-04T03:09:08Z</time>
      </trkpt>
      <trkpt lat="45.38978" lon="6.78843">
        <ele>2524.56</ele>
        <time>2010-08-04T03:09:13Z</time>
      </trkpt>
      <trkpt lat="45.38977" lon="6.78841">
        <ele>2524.56</ele>
        <time>2010-08-04T03:09:15Z</time>
      </trkpt>
      <trkpt lat="45.38974" lon="6.78837">
        <ele>2525.04</ele>
        <time>2010-08-04T03:09:27Z</time>
      </trkpt>
      <trkpt lat="45.38972" lon="6.78835">
        <ele>2524.08</ele>
        <time>2010-08-04T03:09:46Z</time>
      </trkpt>
      <trkpt lat="45.38969" lon="6.78834">
        <ele>2522.64</ele>
        <time>2010-08-04T03:10:07Z</time>
      </trkpt>
      <trkpt lat="45.38968" lon="6.78834">
        <ele>2521.68</ele>
        <time>2010-08-04T03:10:14Z</time>
      </trkpt>
      <trkpt lat="45.38966" lon="6.78836">
        <ele>2521.19</ele>
        <time>2010-08-04T03:10:18Z</time>
      </trkpt>
      <trkpt lat="45.38964" lon="6.7884">
        <ele>2519.27</ele>
        <time>2010-08-04T03:10:31Z</time>
      </trkpt>
      <trkpt lat="45.3896" lon="6.78839">
        <ele>2518.31</ele>
        <time>2010-08-04T03:10:37Z</time>
      </trkpt>
      <trkpt lat="45.38958" lon="6.78839">
        <ele>2517.35</ele>
        <time>2010-08-04T03:10:46Z</time>
      </trkpt>
      <trkpt lat="45.38958" lon="6.78839">
        <ele>2517.35</ele>
        <time>2010-08-04T03:10:49Z</time>
      </trkpt>
      <trkpt lat="45.38956" lon="6.78847">
        <ele>2519.75</ele>
        <time>2010-08-04T03:11:00Z</time>
      </trkpt>
      <trkpt lat="45.38955" lon="6.78852">
        <ele>2519.75</ele>
        <time>2010-08-04T03:11:07Z</time>
      </trkpt>
      <trkpt lat="45.38953" lon="6.78859">
        <ele>2520.71</ele>
        <time>2010-08-04T03:11:13Z</time>
      </trkpt>
      <trkpt lat="45.38953" lon="6.78868">
        <ele>2522.16</ele>
        <time>2010-08-04T03:11:20Z</time>
      </trkpt>
      <trkpt lat="45.38947" lon="6.78873">
        <ele>2520.71</ele>
        <time>2010-08-04T03:11:28Z</time>
      </trkpt>
      <trkpt lat="45.38939" lon="6.78866">
        <ele>2520.23</ele>
        <time>2010-08-04T03:11:39Z</time>
      </trkpt>
      <trkpt lat="45.38938" lon="6.78865">
        <ele>2520.23</ele>
        <time>2010-08-04T03:11:41Z</time>
      </trkpt>
      <trkpt lat="45.38936" lon="6.78861">
        <ele>2519.75</ele>
        <time>2010-08-04T03:11:46Z</time>
      </trkpt>
      <trkpt lat="45.38932" lon="6.78864">
        <ele>2519.75</ele>
        <time>2010-08-04T03:11:50Z</time>
      </trkpt>
      <trkpt lat="45.38923" lon="6.78857">
        <ele>2518.79</ele>
        <time>2010-08-04T03:11:59Z</time>
      </trkpt>
      <trkpt lat="45.38922" lon="6.78856">
        <ele>2518.79</ele>
        <time>2010-08-04T03:12:01Z</time>
      </trkpt>
      <trkpt lat="45.38918" lon="6.78856">
        <ele>2519.27</ele>
        <time>2010-08-04T03:12:05Z</time>
      </trkpt>
      <trkpt lat="45.38915" lon="6.78862">
        <ele>2518.79</ele>
        <time>2010-08-04T03:12:17Z</time>
      </trkpt>
      <trkpt lat="45.3891" lon="6.78871">
        <ele>2518.31</ele>
        <time>2010-08-04T03:12:27Z</time>
      </trkpt>
      <trkpt lat="45.38908" lon="6.78871">
        <ele>2517.35</ele>
        <time>2010-08-04T03:12:29Z</time>
      </trkpt>
      <trkpt lat="45.38904" lon="6.78863">
        <ele>2516.87</ele>
        <time>2010-08-04T03:12:35Z</time>
      </trkpt>
      <trkpt lat="45.38901" lon="6.78861">
        <ele>2515.91</ele>
        <time>2010-08-04T03:12:38Z</time>
      </trkpt>
      <trkpt lat="45.389" lon="6.78861">
        <ele>2515.91</ele>
        <time>2010-08-04T03:12:39Z</time>
      </trkpt>
      <trkpt lat="45.38895" lon="6.78862">
        <ele>2514.95</ele>
        <time>2010-08-04T03:12:52Z</time>
      </trkpt>
      <trkpt lat="45.38893" lon="6.78864">
        <ele>2514.95</ele>
        <time>2010-08-04T03:12:55Z</time>
      </trkpt>
      <trkpt lat="45.3889" lon="6.78867">
        <ele>2513.98</ele>
        <time>2010-08-04T03:12:58Z</time>
      </trkpt>
      <trkpt lat="45.38888" lon="6.78868">
        <ele>2513.98</ele>
        <time>2010-08-04T03:13:01Z</time>
      </trkpt>
      <trkpt lat="45.38886" lon="6.78869">
        <ele>2513.98</ele>
        <time>2010-08-04T03:13:04Z</time>
      </trkpt>
      <trkpt lat="45.38878" lon="6.78879">
        <ele>2513.98</ele>
        <time>2010-08-04T03:13:16Z</time>
      </trkpt>
      <trkpt lat="45.38878" lon="6.78881">
        <ele>2514.95</ele>
        <time>2010-08-04T03:13:18Z</time>
      </trkpt>
      <trkpt lat="45.38876" lon="6.78884">
        <ele>2515.43</ele>
        <time>2010-08-04T03:13:20Z</time>
      </trkpt>
      <trkpt lat="45.38877" lon="6.78886">
        <ele>2514.95</ele>
        <time>2010-08-04T03:13:22Z</time>
      </trkpt>
      <trkpt lat="45.38876" lon="6.78889">
        <ele>2515.43</ele>
        <time>2010-08-04T03:13:24Z</time>
      </trkpt>
      <trkpt lat="45.38873" lon="6.78894">
        <ele>2515.43</ele>
        <time>2010-08-04T03:13:30Z</time>
      </trkpt>
      <trkpt lat="45.38873" lon="6.78898">
        <ele>2516.39</ele>
        <time>2010-08-04T03:13:33Z</time>
      </trkpt>
      <trkpt lat="45.38863" lon="6.789">
        <ele>2516.87</ele>
        <time>2010-08-04T03:13:42Z</time>
      </trkpt>
      <trkpt lat="45.38857" lon="6.78904">
        <ele>2518.31</ele>
        <time>2010-08-04T03:13:50Z</time>
      </trkpt>
      <trkpt lat="45.38852" lon="6.78914">
        <ele>2517.83</ele>
        <time>2010-08-04T03:13:59Z</time>
      </trkpt>
      <trkpt lat="45.38847" lon="6.7892">
        <ele>2517.35</ele>
        <time>2010-08-04T03:14:05Z</time>
      </trkpt>
      <trkpt lat="45.38845" lon="6.78925">
        <ele>2518.31</ele>
        <time>2010-08-04T03:14:10Z</time>
      </trkpt>
      <trkpt lat="45.38836" lon="6.78927">
        <ele>2518.31</ele>
        <time>2010-08-04T03:14:19Z</time>
      </trkpt>
      <trkpt lat="45.38833" lon="6.78929">
        <ele>2518.31</ele>
        <time>2010-08-04T03:14:23Z</time>
      </trkpt>
      <trkpt lat="45.38822" lon="6.78933">
        <ele>2519.27</ele>
        <time>2010-08-04T03:14:33Z</time>
      </trkpt>
      <trkpt lat="45.38818" lon="6.78931">
        <ele>2519.27</ele>
        <time>2010-08-04T03:14:36Z</time>
      </trkpt>
      <trkpt lat="45.38816" lon="6.78931">
        <ele>2518.79</ele>
        <time>2010-08-04T03:14:38Z</time>
      </trkpt>
      <trkpt lat="45.38812" lon="6.78937">
        <ele>2520.71</ele>
        <time>2010-08-04T03:14:48Z</time>
      </trkpt>
      <trkpt lat="45.38808" lon="6.78944">
        <ele>2522.16</ele>
        <time>2010-08-04T03:14:57Z</time>
      </trkpt>
      <trkpt lat="45.38805" lon="6.78951">
        <ele>2523.12</ele>
        <time>2010-08-04T03:15:06Z</time>
      </trkpt>
      <trkpt lat="45.38805" lon="6.78952">
        <ele>2523.12</ele>
        <time>2010-08-04T03:15:07Z</time>
      </trkpt>
      <trkpt lat="45.38803" lon="6.78952">
        <ele>2523.12</ele>
        <time>2010-08-04T03:15:09Z</time>
      </trkpt>
      <trkpt lat="45.388" lon="6.78958">
        <ele>2524.08</ele>
        <time>2010-08-04T03:15:15Z</time>
      </trkpt>
      <trkpt lat="45.38798" lon="6.78959">
        <ele>2524.56</ele>
        <time>2010-08-04T03:15:17Z</time>
      </trkpt>
      <trkpt lat="45.38797" lon="6.78958">
        <ele>2524.08</ele>
        <time>2010-08-04T03:15:20Z</time>
      </trkpt>
      <trkpt lat="45.38795" lon="6.78958">
        <ele>2525.04</ele>
        <time>2010-08-04T03:15:22Z</time>
      </trkpt>
      <trkpt lat="45.3879" lon="6.78963">
        <ele>2526.48</ele>
        <time>2010-08-04T03:15:33Z</time>
      </trkpt>
      <trkpt lat="45.38787" lon="6.78963">
        <ele>2527.44</ele>
        <time>2010-08-04T03:15:35Z</time>
      </trkpt>
      <trkpt lat="45.3878" lon="6.78964">
        <ele>2529.37</ele>
        <time>2010-08-04T03:15:47Z</time>
      </trkpt>
      <trkpt lat="45.38776" lon="6.78967">
        <ele>2530.81</ele>
        <time>2010-08-04T03:16:06Z</time>
      </trkpt>
      <trkpt lat="45.38773" lon="6.78969">
        <ele>2530.81</ele>
        <time>2010-08-04T03:16:09Z</time>
      </trkpt>
      <trkpt lat="45.38765" lon="6.78973">
        <ele>2533.21</ele>
        <time>2010-08-04T03:16:19Z</time>
      </trkpt>
      <trkpt lat="45.38762" lon="6.78975">
        <ele>2534.65</ele>
        <time>2010-08-04T03:16:29Z</time>
      </trkpt>
      <trkpt lat="45.38759" lon="6.7898">
        <ele>2536.1</ele>
        <time>2010-08-04T03:16:39Z</time>
      </trkpt>
      <trkpt lat="45.38758" lon="6.78981">
        <ele>2538.02</ele>
        <time>2010-08-04T03:16:49Z</time>
      </trkpt>
      <trkpt lat="45.38752" lon="6.78979">
        <ele>2538.98</ele>
        <time>2010-08-04T03:16:56Z</time>
      </trkpt>
      <trkpt lat="45.38747" lon="6.78977">
        <ele>2539.94</ele>
        <time>2010-08-04T03:17:06Z</time>
      </trkpt>
      <trkpt lat="45.38744" lon="6.78978">
        <ele>2540.42</ele>
        <time>2010-08-04T03:17:16Z</time>
      </trkpt>
      <trkpt lat="45.38736" lon="6.78972">
        <ele>2540.9</ele>
        <time>2010-08-04T03:17:28Z</time>
      </trkpt>
      <trkpt lat="45.38731" lon="6.78968">
        <ele>2540.42</ele>
        <time>2010-08-04T03:17:39Z</time>
      </trkpt>
      <trkpt lat="45.3873" lon="6.78964">
        <ele>2540.42</ele>
        <time>2010-08-04T03:17:49Z</time>
      </trkpt>
      <trkpt lat="45.38732" lon="6.78959">
        <ele>2539.46</ele>
        <time>2010-08-04T03:18:00Z</time>
      </trkpt>
      <trkpt lat="45.38733" lon="6.78958">
        <ele>2539.46</ele>
        <time>2010-08-04T03:18:17Z</time>
      </trkpt>
      <trkpt lat="45.38734" lon="6.78951">
        <ele>2538.98</ele>
        <time>2010-08-04T03:18:22Z</time>
      </trkpt>
      <trkpt lat="45.38735" lon="6.78947">
        <ele>2538.5</ele>
        <time>2010-08-04T03:18:25Z</time>
      </trkpt>
      <trkpt lat="45.38738" lon="6.78934">
        <ele>2537.54</ele>
        <time>2010-08-04T03:18:34Z</time>
      </trkpt>
      <trkpt lat="45.38741" lon="6.78929">
        <ele>2536.1</ele>
        <time>2010-08-04T03:18:40Z</time>
      </trkpt>
      <trkpt lat="45.38741" lon="6.78926">
        <ele>2537.06</ele>
        <time>2010-08-04T03:18:42Z</time>
      </trkpt>
      <trkpt lat="45.38739" lon="6.78918">
        <ele>2536.58</ele>
        <time>2010-08-04T03:18:48Z</time>
      </trkpt>
      <trkpt lat="45.3874" lon="6.78911">
        <ele>2536.1</ele>
        <time>2010-08-04T03:18:55Z</time>
      </trkpt>
      <trkpt lat="45.38741" lon="6.78907">
        <ele>2537.06</ele>
        <time>2010-08-04T03:19:00Z</time>
      </trkpt>
      <trkpt lat="45.3874" lon="6.78901">
        <ele>2538.02</ele>
        <time>2010-08-04T03:19:05Z</time>
      </trkpt>
      <trkpt lat="45.38739" lon="6.789">
        <ele>2538.98</ele>
        <time>2010-08-04T03:19:07Z</time>
      </trkpt>
      <trkpt lat="45.38737" lon="6.78897">
        <ele>2538.98</ele>
        <time>2010-08-04T03:19:09Z</time>
      </trkpt>
      <trkpt lat="45.38737" lon="6.78894">
        <ele>2538.5</ele>
        <time>2010-08-04T03:19:11Z</time>
      </trkpt>
      <trkpt lat="45.38736" lon="6.78889">
        <ele>2539.46</ele>
        <time>2010-08-04T03:19:15Z</time>
      </trkpt>
      <trkpt lat="45.38737" lon="6.78885">
        <ele>2539.46</ele>
        <time>2010-08-04T03:19:19Z</time>
      </trkpt>
      <trkpt lat="45.38731" lon="6.78886">
        <ele>2541.86</ele>
        <time>2010-08-04T03:19:31Z</time>
      </trkpt>
      <trkpt lat="45.38729" lon="6.78889">
        <ele>2543.79</ele>
        <time>2010-08-04T03:19:39Z</time>
      </trkpt>
      <trkpt lat="45.38726" lon="6.78893">
        <ele>2545.71</ele>
        <time>2010-08-04T03:19:46Z</time>
      </trkpt>
      <trkpt lat="45.38724" lon="6.78903">
        <ele>2546.19</ele>
        <time>2010-08-04T03:19:57Z</time>
      </trkpt>
      <trkpt lat="45.38723" lon="6.78914">
        <ele>2548.11</ele>
        <time>2010-08-04T03:20:09Z</time>
      </trkpt>
      <trkpt lat="45.3872" lon="6.78916">
        <ele>2550.03</ele>
        <time>2010-08-04T03:20:17Z</time>
      </trkpt>
      <trkpt lat="45.38715" lon="6.78914">
        <ele>2551</ele>
        <time>2010-08-04T03:20:24Z</time>
      </trkpt>
      <trkpt lat="45.38712" lon="6.78916">
        <ele>2550.51</ele>
        <time>2010-08-04T03:20:38Z</time>
      </trkpt>
      <trkpt lat="45.38709" lon="6.78916">
        <ele>2551.96</ele>
        <time>2010-08-04T03:20:49Z</time>
      </trkpt>
      <trkpt lat="45.38709" lon="6.78919">
        <ele>2551.96</ele>
        <time>2010-08-04T03:21:00Z</time>
      </trkpt>
      <trkpt lat="45.3871" lon="6.78921">
        <ele>2551.96</ele>
        <time>2010-08-04T03:21:14Z</time>
      </trkpt>
      <trkpt lat="45.38706" lon="6.78926">
        <ele>2553.4</ele>
        <time>2010-08-04T03:21:43Z</time>
      </trkpt>
      <trkpt lat="45.38699" lon="6.78936">
        <ele>2555.8</ele>
        <time>2010-08-04T03:21:56Z</time>
      </trkpt>
      <trkpt lat="45.38695" lon="6.78939">
        <ele>2557.73</ele>
        <time>2010-08-04T03:22:05Z</time>
      </trkpt>
      <trkpt lat="45.38693" lon="6.78945">
        <ele>2559.65</ele>
        <time>2010-08-04T03:22:17Z</time>
      </trkpt>
      <trkpt lat="45.38688" lon="6.78951">
        <ele>2562.05</ele>
        <time>2010-08-04T03:22:28Z</time>
      </trkpt>
      <trkpt lat="45.38684" lon="6.78958">
        <ele>2563.97</ele>
        <time>2010-08-04T03:22:39Z</time>
      </trkpt>
      <trkpt lat="45.3868" lon="6.78962">
        <ele>2564.93</ele>
        <time>2010-08-04T03:22:45Z</time>
      </trkpt>
      <trkpt lat="45.38673" lon="6.78968">
        <ele>2566.38</ele>
        <time>2010-08-04T03:22:57Z</time>
      </trkpt>
      <trkpt lat="45.38671" lon="6.78972">
        <ele>2567.82</ele>
        <time>2010-08-04T03:23:04Z</time>
      </trkpt>
      <trkpt lat="45.38669" lon="6.78976">
        <ele>2569.26</ele>
        <time>2010-08-04T03:23:16Z</time>
      </trkpt>
      <trkpt lat="45.38664" lon="6.78976">
        <ele>2571.18</ele>
        <time>2010-08-04T03:23:26Z</time>
      </trkpt>
      <trkpt lat="45.38658" lon="6.78975">
        <ele>2573.11</ele>
        <time>2010-08-04T03:23:38Z</time>
      </trkpt>
      <trkpt lat="45.38654" lon="6.78971">
        <ele>2574.55</ele>
        <time>2010-08-04T03:23:49Z</time>
      </trkpt>
      <trkpt lat="45.38648" lon="6.78965">
        <ele>2576.95</ele>
        <time>2010-08-04T03:24:03Z</time>
      </trkpt>
      <trkpt lat="45.38644" lon="6.78966">
        <ele>2576.95</ele>
        <time>2010-08-04T03:24:12Z</time>
      </trkpt>
      <trkpt lat="45.38638" lon="6.78967">
        <ele>2578.39</ele>
        <time>2010-08-04T03:24:25Z</time>
      </trkpt>
      <trkpt lat="45.38632" lon="6.78966">
        <ele>2580.8</ele>
        <time>2010-08-04T03:24:38Z</time>
      </trkpt>
      <trkpt lat="45.38629" lon="6.78969">
        <ele>2581.76</ele>
        <time>2010-08-04T03:24:48Z</time>
      </trkpt>
      <trkpt lat="45.38629" lon="6.78971">
        <ele>2582.72</ele>
        <time>2010-08-04T03:24:51Z</time>
      </trkpt>
      <trkpt lat="45.38624" lon="6.78976">
        <ele>2584.64</ele>
        <time>2010-08-04T03:25:04Z</time>
      </trkpt>
      <trkpt lat="45.3862" lon="6.78981">
        <ele>2586.08</ele>
        <time>2010-08-04T03:25:15Z</time>
      </trkpt>
      <trkpt lat="45.38618" lon="6.78985">
        <ele>2587.53</ele>
        <time>2010-08-04T03:25:25Z</time>
      </trkpt>
      <trkpt lat="45.38616" lon="6.78991">
        <ele>2588.01</ele>
        <time>2010-08-04T03:25:33Z</time>
      </trkpt>
      <trkpt lat="45.38612" lon="6.79002">
        <ele>2588.49</ele>
        <time>2010-08-04T03:25:44Z</time>
      </trkpt>
      <trkpt lat="45.38604" lon="6.79005">
        <ele>2589.45</ele>
        <time>2010-08-04T03:25:58Z</time>
      </trkpt>
      <trkpt lat="45.38598" lon="6.79002">
        <ele>2592.33</ele>
        <time>2010-08-04T03:26:12Z</time>
      </trkpt>
      <trkpt lat="45.38594" lon="6.79001">
        <ele>2593.29</ele>
        <time>2010-08-04T03:26:22Z</time>
      </trkpt>
      <trkpt lat="45.38589" lon="6.78997">
        <ele>2595.7</ele>
        <time>2010-08-04T03:26:33Z</time>
      </trkpt>
      <trkpt lat="45.38584" lon="6.78996">
        <ele>2596.66</ele>
        <time>2010-08-04T03:26:43Z</time>
      </trkpt>
      <trkpt lat="45.38583" lon="6.78997">
        <ele>2597.62</ele>
        <time>2010-08-04T03:26:54Z</time>
      </trkpt>
      <trkpt lat="45.38583" lon="6.79005">
        <ele>2598.58</ele>
        <time>2010-08-04T03:27:06Z</time>
      </trkpt>
      <trkpt lat="45.3858" lon="6.79009">
        <ele>2600.5</ele>
        <time>2010-08-04T03:27:14Z</time>
      </trkpt>
      <trkpt lat="45.38574" lon="6.79014">
        <ele>2601.95</ele>
        <time>2010-08-04T03:27:27Z</time>
      </trkpt>
      <trkpt lat="45.38571" lon="6.7902">
        <ele>2603.39</ele>
        <time>2010-08-04T03:27:40Z</time>
      </trkpt>
      <trkpt lat="45.38567" lon="6.79027">
        <ele>2605.79</ele>
        <time>2010-08-04T03:27:52Z</time>
      </trkpt>
      <trkpt lat="45.38569" lon="6.79035">
        <ele>2607.23</ele>
        <time>2010-08-04T03:28:05Z</time>
      </trkpt>
      <trkpt lat="45.38568" lon="6.79042">
        <ele>2608.19</ele>
        <time>2010-08-04T03:28:15Z</time>
      </trkpt>
      <trkpt lat="45.38561" lon="6.79038">
        <ele>2609.64</ele>
        <time>2010-08-04T03:28:25Z</time>
      </trkpt>
      <trkpt lat="45.38557" lon="6.79037">
        <ele>2612.04</ele>
        <time>2010-08-04T03:28:34Z</time>
      </trkpt>
      <trkpt lat="45.38553" lon="6.79035">
        <ele>2613</ele>
        <time>2010-08-04T03:28:46Z</time>
      </trkpt>
      <trkpt lat="45.38552" lon="6.79041">
        <ele>2614.44</ele>
        <time>2010-08-04T03:28:58Z</time>
      </trkpt>
      <trkpt lat="45.38552" lon="6.79049">
        <ele>2616.37</ele>
        <time>2010-08-04T03:29:08Z</time>
      </trkpt>
      <trkpt lat="45.38552" lon="6.79053">
        <ele>2616.85</ele>
        <time>2010-08-04T03:29:15Z</time>
      </trkpt>
      <trkpt lat="45.38547" lon="6.79056">
        <ele>2618.77</ele>
        <time>2010-08-04T03:29:29Z</time>
      </trkpt>
      <trkpt lat="45.38545" lon="6.79058">
        <ele>2619.73</ele>
        <time>2010-08-04T03:29:40Z</time>
      </trkpt>
      <trkpt lat="45.38545" lon="6.79062">
        <ele>2621.65</ele>
        <time>2010-08-04T03:29:52Z</time>
      </trkpt>
      <trkpt lat="45.38539" lon="6.79063">
        <ele>2622.61</ele>
        <time>2010-08-04T03:30:03Z</time>
      </trkpt>
      <trkpt lat="45.3854" lon="6.79069">
        <ele>2624.54</ele>
        <time>2010-08-04T03:30:14Z</time>
      </trkpt>
      <trkpt lat="45.38539" lon="6.79079">
        <ele>2626.46</ele>
        <time>2010-08-04T03:30:27Z</time>
      </trkpt>
      <trkpt lat="45.38539" lon="6.79086">
        <ele>2628.86</ele>
        <time>2010-08-04T03:30:37Z</time>
      </trkpt>
      <trkpt lat="45.38537" lon="6.79093">
        <ele>2629.34</ele>
        <time>2010-08-04T03:30:47Z</time>
      </trkpt>
      <trkpt lat="45.38531" lon="6.79095">
        <ele>2630.79</ele>
        <time>2010-08-04T03:30:59Z</time>
      </trkpt>
      <trkpt lat="45.38527" lon="6.79093">
        <ele>2632.23</ele>
        <time>2010-08-04T03:31:11Z</time>
      </trkpt>
      <trkpt lat="45.38522" lon="6.79089">
        <ele>2633.67</ele>
        <time>2010-08-04T03:31:23Z</time>
      </trkpt>
      <trkpt lat="45.38515" lon="6.79088">
        <ele>2636.07</ele>
        <time>2010-08-04T03:31:37Z</time>
      </trkpt>
      <trkpt lat="45.38511" lon="6.79085">
        <ele>2637.99</ele>
        <time>2010-08-04T03:31:48Z</time>
      </trkpt>
      <trkpt lat="45.38505" lon="6.79086">
        <ele>2638.96</ele>
        <time>2010-08-04T03:32:02Z</time>
      </trkpt>
      <trkpt lat="45.38499" lon="6.7909">
        <ele>2640.88</ele>
        <time>2010-08-04T03:32:15Z</time>
      </trkpt>
      <trkpt lat="45.38496" lon="6.79095">
        <ele>2642.32</ele>
        <time>2010-08-04T03:32:25Z</time>
      </trkpt>
      <trkpt lat="45.38492" lon="6.79101">
        <ele>2643.76</ele>
        <time>2010-08-04T03:32:37Z</time>
      </trkpt>
      <trkpt lat="45.38491" lon="6.79106">
        <ele>2645.21</ele>
        <time>2010-08-04T03:32:44Z</time>
      </trkpt>
      <trkpt lat="45.38486" lon="6.79113">
        <ele>2646.65</ele>
        <time>2010-08-04T03:32:55Z</time>
      </trkpt>
      <trkpt lat="45.38479" lon="6.7912">
        <ele>2648.09</ele>
        <time>2010-08-04T03:33:07Z</time>
      </trkpt>
      <trkpt lat="45.38474" lon="6.79126">
        <ele>2649.05</ele>
        <time>2010-08-04T03:33:19Z</time>
      </trkpt>
      <trkpt lat="45.38467" lon="6.79125">
        <ele>2651.45</ele>
        <time>2010-08-04T03:33:33Z</time>
      </trkpt>
      <trkpt lat="45.3846" lon="6.7912">
        <ele>2652.9</ele>
        <time>2010-08-04T03:33:45Z</time>
      </trkpt>
      <trkpt lat="45.38455" lon="6.79122">
        <ele>2655.3</ele>
        <time>2010-08-04T03:33:57Z</time>
      </trkpt>
      <trkpt lat="45.3845" lon="6.79121">
        <ele>2656.26</ele>
        <time>2010-08-04T03:34:07Z</time>
      </trkpt>
      <trkpt lat="45.38443" lon="6.79109">
        <ele>2656.74</ele>
        <time>2010-08-04T03:34:19Z</time>
      </trkpt>
      <trkpt lat="45.38438" lon="6.79112">
        <ele>2659.14</ele>
        <time>2010-08-04T03:34:31Z</time>
      </trkpt>
      <trkpt lat="45.38432" lon="6.79113">
        <ele>2661.07</ele>
        <time>2010-08-04T03:34:43Z</time>
      </trkpt>
      <trkpt lat="45.38427" lon="6.79118">
        <ele>2663.47</ele>
        <time>2010-08-04T03:34:56Z</time>
      </trkpt>
      <trkpt lat="45.38423" lon="6.79115">
        <ele>2665.39</ele>
        <time>2010-08-04T03:35:08Z</time>
      </trkpt>
      <trkpt lat="45.38421" lon="6.79106">
        <ele>2666.83</ele>
        <time>2010-08-04T03:35:20Z</time>
      </trkpt>
      <trkpt lat="45.38416" lon="6.79101">
        <ele>2668.76</ele>
        <time>2010-08-04T03:35:33Z</time>
      </trkpt>
      <trkpt lat="45.38412" lon="6.79095">
        <ele>2670.2</ele>
        <time>2010-08-04T03:35:43Z</time>
      </trkpt>
      <trkpt lat="45.3841" lon="6.79089">
        <ele>2672.12</ele>
        <time>2010-08-04T03:35:52Z</time>
      </trkpt>
      <trkpt lat="45.38407" lon="6.79091">
        <ele>2673.56</ele>
        <time>2010-08-04T03:36:06Z</time>
      </trkpt>
      <trkpt lat="45.38405" lon="6.79091">
        <ele>2674.52</ele>
        <time>2010-08-04T03:36:20Z</time>
      </trkpt>
      <trkpt lat="45.38405" lon="6.79091">
        <ele>2674.04</ele>
        <time>2010-08-04T03:37:04Z</time>
      </trkpt>
      <trkpt lat="45.38401" lon="6.79096">
        <ele>2675.49</ele>
        <time>2010-08-04T03:37:26Z</time>
      </trkpt>
      <trkpt lat="45.38399" lon="6.79097">
        <ele>2677.41</ele>
        <time>2010-08-04T03:37:30Z</time>
      </trkpt>
      <trkpt lat="45.38396" lon="6.79097">
        <ele>2678.85</ele>
        <time>2010-08-04T03:37:40Z</time>
      </trkpt>
      <trkpt lat="45.38392" lon="6.79095">
        <ele>2680.29</ele>
        <time>2010-08-04T03:37:52Z</time>
      </trkpt>
      <trkpt lat="45.38386" lon="6.79092">
        <ele>2682.22</ele>
        <time>2010-08-04T03:38:04Z</time>
      </trkpt>
      <trkpt lat="45.38383" lon="6.79086">
        <ele>2684.14</ele>
        <time>2010-08-04T03:38:14Z</time>
      </trkpt>
      <trkpt lat="45.38378" lon="6.79084">
        <ele>2685.58</ele>
        <time>2010-08-04T03:38:25Z</time>
      </trkpt>
      <trkpt lat="45.38371" lon="6.79084">
        <ele>2687.5</ele>
        <time>2010-08-04T03:38:38Z</time>
      </trkpt>
      <trkpt lat="45.3837" lon="6.79082">
        <ele>2688.46</ele>
        <time>2010-08-04T03:38:42Z</time>
      </trkpt>
      <trkpt lat="45.38363" lon="6.79082">
        <ele>2689.91</ele>
        <time>2010-08-04T03:38:53Z</time>
      </trkpt>
      <trkpt lat="45.3836" lon="6.79087">
        <ele>2690.87</ele>
        <time>2010-08-04T03:39:03Z</time>
      </trkpt>
      <trkpt lat="45.38352" lon="6.79087">
        <ele>2691.83</ele>
        <time>2010-08-04T03:39:13Z</time>
      </trkpt>
      <trkpt lat="45.38351" lon="6.79086">
        <ele>2690.87</ele>
        <time>2010-08-04T03:39:25Z</time>
      </trkpt>
      <trkpt lat="45.38351" lon="6.79086">
        <ele>2691.83</ele>
        <time>2010-08-04T03:41:51Z</time>
      </trkpt>
      <trkpt lat="45.38351" lon="6.79086">
        <ele>2690.87</ele>
        <time>2010-08-04T03:42:13Z</time>
      </trkpt>
      <trkpt lat="45.38351" lon="6.79086">
        <ele>2692.31</ele>
        <time>2010-08-04T03:42:16Z</time>
      </trkpt>
      <trkpt lat="45.38351" lon="6.79085">
        <ele>2692.31</ele>
        <time>2010-08-04T03:45:03Z</time>
      </trkpt>
      <trkpt lat="45.38349" lon="6.79086">
        <ele>2692.31</ele>
        <time>2010-08-04T03:45:20Z</time>
      </trkpt>
      <trkpt lat="45.38348" lon="6.79087">
        <ele>2691.35</ele>
        <time>2010-08-04T03:46:05Z</time>
      </trkpt>
      <trkpt lat="45.38343" lon="6.79083">
        <ele>2692.31</ele>
        <time>2010-08-04T03:46:13Z</time>
      </trkpt>
      <trkpt lat="45.38337" lon="6.7908">
        <ele>2693.27</ele>
        <time>2010-08-04T03:46:24Z</time>
      </trkpt>
      <trkpt lat="45.3833" lon="6.7908">
        <ele>2694.71</ele>
        <time>2010-08-04T03:46:35Z</time>
      </trkpt>
      <trkpt lat="45.38324" lon="6.79086">
        <ele>2695.67</ele>
        <time>2010-08-04T03:46:47Z</time>
      </trkpt>
      <trkpt lat="45.38317" lon="6.79086">
        <ele>2697.6</ele>
        <time>2010-08-04T03:46:59Z</time>
      </trkpt>
      <trkpt lat="45.3831" lon="6.79088">
        <ele>2699.04</ele>
        <time>2010-08-04T03:47:10Z</time>
      </trkpt>
      <trkpt lat="45.38307" lon="6.79093">
        <ele>2700</ele>
        <time>2010-08-04T03:47:21Z</time>
      </trkpt>
      <trkpt lat="45.38305" lon="6.79092">
        <ele>2700.96</ele>
        <time>2010-08-04T03:47:34Z</time>
      </trkpt>
      <trkpt lat="45.38301" lon="6.79097">
        <ele>2701.44</ele>
        <time>2010-08-04T03:47:46Z</time>
      </trkpt>
      <trkpt lat="45.38297" lon="6.79102">
        <ele>2703.85</ele>
        <time>2010-08-04T03:47:59Z</time>
      </trkpt>
      <trkpt lat="45.38294" lon="6.79101">
        <ele>2705.29</ele>
        <time>2010-08-04T03:48:10Z</time>
      </trkpt>
      <trkpt lat="45.38292" lon="6.79105">
        <ele>2706.73</ele>
        <time>2010-08-04T03:48:21Z</time>
      </trkpt>
      <trkpt lat="45.38287" lon="6.79105">
        <ele>2708.17</ele>
        <time>2010-08-04T03:48:31Z</time>
      </trkpt>
      <trkpt lat="45.38283" lon="6.79104">
        <ele>2710.57</ele>
        <time>2010-08-04T03:48:43Z</time>
      </trkpt>
      <trkpt lat="45.3828" lon="6.79106">
        <ele>2712.02</ele>
        <time>2010-08-04T03:48:55Z</time>
      </trkpt>
      <trkpt lat="45.38277" lon="6.79106">
        <ele>2713.46</ele>
        <time>2010-08-04T03:49:04Z</time>
      </trkpt>
      <trkpt lat="45.38273" lon="6.79097">
        <ele>2715.38</ele>
        <time>2010-08-04T03:49:14Z</time>
      </trkpt>
      <trkpt lat="45.38272" lon="6.79094">
        <ele>2716.34</ele>
        <time>2010-08-04T03:49:18Z</time>
      </trkpt>
      <trkpt lat="45.38269" lon="6.79086">
        <ele>2717.78</ele>
        <time>2010-08-04T03:49:29Z</time>
      </trkpt>
      <trkpt lat="45.38267" lon="6.79083">
        <ele>2719.71</ele>
        <time>2010-08-04T03:49:38Z</time>
      </trkpt>
      <trkpt lat="45.38265" lon="6.79074">
        <ele>2721.15</ele>
        <time>2010-08-04T03:49:48Z</time>
      </trkpt>
      <trkpt lat="45.38263" lon="6.79068">
        <ele>2722.11</ele>
        <time>2010-08-04T03:49:58Z</time>
      </trkpt>
      <trkpt lat="45.38259" lon="6.7906">
        <ele>2724.03</ele>
        <time>2010-08-04T03:50:07Z</time>
      </trkpt>
      <trkpt lat="45.38259" lon="6.79051">
        <ele>2725.96</ele>
        <time>2010-08-04T03:50:18Z</time>
      </trkpt>
      <trkpt lat="45.38257" lon="6.79045">
        <ele>2727.88</ele>
        <time>2010-08-04T03:50:30Z</time>
      </trkpt>
      <trkpt lat="45.38258" lon="6.7904">
        <ele>2728.84</ele>
        <time>2010-08-04T03:50:40Z</time>
      </trkpt>
      <trkpt lat="45.38254" lon="6.7904">
        <ele>2730.76</ele>
        <time>2010-08-04T03:50:52Z</time>
      </trkpt>
      <trkpt lat="45.38254" lon="6.79043">
        <ele>2730.76</ele>
        <time>2010-08-04T03:50:56Z</time>
      </trkpt>
      <trkpt lat="45.38254" lon="6.79045">
        <ele>2731.24</ele>
        <time>2010-08-04T03:50:58Z</time>
      </trkpt>
      <trkpt lat="45.38254" lon="6.79048">
        <ele>2731.24</ele>
        <time>2010-08-04T03:51:01Z</time>
      </trkpt>
      <trkpt lat="45.38252" lon="6.79054">
        <ele>2731.72</ele>
        <time>2010-08-04T03:51:12Z</time>
      </trkpt>
      <trkpt lat="45.38251" lon="6.79052">
        <ele>2734.13</ele>
        <time>2010-08-04T03:51:24Z</time>
      </trkpt>
      <trkpt lat="45.38246" lon="6.79046">
        <ele>2735.57</ele>
        <time>2010-08-04T03:51:37Z</time>
      </trkpt>
      <trkpt lat="45.38245" lon="6.79035">
        <ele>2736.05</ele>
        <time>2010-08-04T03:51:50Z</time>
      </trkpt>
      <trkpt lat="45.38243" lon="6.7903">
        <ele>2737.01</ele>
        <time>2010-08-04T03:52:01Z</time>
      </trkpt>
      <trkpt lat="45.38243" lon="6.79031">
        <ele>2740.38</ele>
        <time>2010-08-04T03:52:06Z</time>
      </trkpt>
      <trkpt lat="45.38238" lon="6.79026">
        <ele>2741.34</ele>
        <time>2010-08-04T03:52:18Z</time>
      </trkpt>
      <trkpt lat="45.38235" lon="6.79021">
        <ele>2743.26</ele>
        <time>2010-08-04T03:52:30Z</time>
      </trkpt>
      <trkpt lat="45.38232" lon="6.79028">
        <ele>2744.22</ele>
        <time>2010-08-04T03:52:42Z</time>
      </trkpt>
      <trkpt lat="45.38226" lon="6.79037">
        <ele>2746.14</ele>
        <time>2010-08-04T03:52:54Z</time>
      </trkpt>
      <trkpt lat="45.38222" lon="6.79041">
        <ele>2747.59</ele>
        <time>2010-08-04T03:53:06Z</time>
      </trkpt>
      <trkpt lat="45.38222" lon="6.7904">
        <ele>2749.03</ele>
        <time>2010-08-04T03:53:08Z</time>
      </trkpt>
      <trkpt lat="45.38219" lon="6.79038">
        <ele>2749.99</ele>
        <time>2010-08-04T03:53:14Z</time>
      </trkpt>
      <trkpt lat="45.38214" lon="6.79029">
        <ele>2749.51</ele>
        <time>2010-08-04T03:53:26Z</time>
      </trkpt>
      <trkpt lat="45.3821" lon="6.79023">
        <ele>2751.43</ele>
        <time>2010-08-04T03:53:38Z</time>
      </trkpt>
      <trkpt lat="45.38207" lon="6.7902">
        <ele>2752.87</ele>
        <time>2010-08-04T03:53:50Z</time>
      </trkpt>
      <trkpt lat="45.38208" lon="6.79023">
        <ele>2754.8</ele>
        <time>2010-08-04T03:53:56Z</time>
      </trkpt>
      <trkpt lat="45.38203" lon="6.79024">
        <ele>2756.72</ele>
        <time>2010-08-04T03:54:08Z</time>
      </trkpt>
      <trkpt lat="45.38197" lon="6.79025">
        <ele>2758.64</ele>
        <time>2010-08-04T03:54:19Z</time>
      </trkpt>
      <trkpt lat="45.38192" lon="6.79022">
        <ele>2761.04</ele>
        <time>2010-08-04T03:54:32Z</time>
      </trkpt>
      <trkpt lat="45.3819" lon="6.79023">
        <ele>2763.93</ele>
        <time>2010-08-04T03:54:42Z</time>
      </trkpt>
      <trkpt lat="45.38185" lon="6.79027">
        <ele>2763.93</ele>
        <time>2010-08-04T03:54:56Z</time>
      </trkpt>
      <trkpt lat="45.38183" lon="6.7903">
        <ele>2766.81</ele>
        <time>2010-08-04T03:55:05Z</time>
      </trkpt>
      <trkpt lat="45.38177" lon="6.79032">
        <ele>2767.77</ele>
        <time>2010-08-04T03:55:16Z</time>
      </trkpt>
      <trkpt lat="45.38168" lon="6.79027">
        <ele>2767.77</ele>
        <time>2010-08-04T03:55:29Z</time>
      </trkpt>
      <trkpt lat="45.38166" lon="6.79032">
        <ele>2769.7</ele>
        <time>2010-08-04T03:55:40Z</time>
      </trkpt>
      <trkpt lat="45.38162" lon="6.79035">
        <ele>2772.1</ele>
        <time>2010-08-04T03:55:48Z</time>
      </trkpt>
      <trkpt lat="45.3816" lon="6.79037">
        <ele>2772.1</ele>
        <time>2010-08-04T03:55:51Z</time>
      </trkpt>
      <trkpt lat="45.38157" lon="6.79039">
        <ele>2771.14</ele>
        <time>2010-08-04T03:55:54Z</time>
      </trkpt>
      <trkpt lat="45.38154" lon="6.79046">
        <ele>2770.66</ele>
        <time>2010-08-04T03:55:59Z</time>
      </trkpt>
      <trkpt lat="45.38153" lon="6.79049">
        <ele>2772.58</ele>
        <time>2010-08-04T03:56:03Z</time>
      </trkpt>
      <trkpt lat="45.3815" lon="6.79057">
        <ele>2773.54</ele>
        <time>2010-08-04T03:56:12Z</time>
      </trkpt>
      <trkpt lat="45.38148" lon="6.7906">
        <ele>2773.54</ele>
        <time>2010-08-04T03:56:15Z</time>
      </trkpt>
      <trkpt lat="45.38143" lon="6.79069">
        <ele>2774.98</ele>
        <time>2010-08-04T03:56:26Z</time>
      </trkpt>
      <trkpt lat="45.38141" lon="6.79072">
        <ele>2775.94</ele>
        <time>2010-08-04T03:56:29Z</time>
      </trkpt>
      <trkpt lat="45.38131" lon="6.79076">
        <ele>2775.94</ele>
        <time>2010-08-04T03:56:43Z</time>
      </trkpt>
      <trkpt lat="45.38127" lon="6.79077">
        <ele>2776.91</ele>
        <time>2010-08-04T03:56:48Z</time>
      </trkpt>
      <trkpt lat="45.38126" lon="6.79079">
        <ele>2778.83</ele>
        <time>2010-08-04T03:56:51Z</time>
      </trkpt>
      <trkpt lat="45.38125" lon="6.7908">
        <ele>2776.42</ele>
        <time>2010-08-04T03:56:52Z</time>
      </trkpt>
      <trkpt lat="45.38123" lon="6.79082">
        <ele>2778.83</ele>
        <time>2010-08-04T03:56:55Z</time>
      </trkpt>
      <trkpt lat="45.38121" lon="6.79083">
        <ele>2778.35</ele>
        <time>2010-08-04T03:56:57Z</time>
      </trkpt>
      <trkpt lat="45.38119" lon="6.79083">
        <ele>2778.35</ele>
        <time>2010-08-04T03:56:59Z</time>
      </trkpt>
      <trkpt lat="45.38114" lon="6.79089">
        <ele>2780.27</ele>
        <time>2010-08-04T03:57:12Z</time>
      </trkpt>
      <trkpt lat="45.38112" lon="6.79091">
        <ele>2779.79</ele>
        <time>2010-08-04T03:57:29Z</time>
      </trkpt>
      <trkpt lat="45.38111" lon="6.79091">
        <ele>2779.79</ele>
        <time>2010-08-04T03:57:43Z</time>
      </trkpt>
      <trkpt lat="45.38111" lon="6.79091">
        <ele>2779.31</ele>
        <time>2010-08-04T03:57:53Z</time>
      </trkpt>
      <trkpt lat="45.38108" lon="6.7909">
        <ele>2780.27</ele>
        <time>2010-08-04T03:58:13Z</time>
      </trkpt>
      <trkpt lat="45.38099" lon="6.79089">
        <ele>2778.35</ele>
        <time>2010-08-04T03:58:23Z</time>
      </trkpt>
      <trkpt lat="45.38096" lon="6.79087">
        <ele>2779.31</ele>
        <time>2010-08-04T03:58:27Z</time>
      </trkpt>
      <trkpt lat="45.38093" lon="6.79085">
        <ele>2782.67</ele>
        <time>2010-08-04T03:58:39Z</time>
      </trkpt>
      <trkpt lat="45.38087" lon="6.79083">
        <ele>2782.67</ele>
        <time>2010-08-04T03:58:49Z</time>
      </trkpt>
      <trkpt lat="45.38085" lon="6.79082">
        <ele>2782.19</ele>
        <time>2010-08-04T03:58:52Z</time>
      </trkpt>
      <trkpt lat="45.38075" lon="6.79083">
        <ele>2781.71</ele>
        <time>2010-08-04T03:59:05Z</time>
      </trkpt>
      <trkpt lat="45.38074" lon="6.79083">
        <ele>2782.19</ele>
        <time>2010-08-04T03:59:06Z</time>
      </trkpt>
      <trkpt lat="45.38069" lon="6.79076">
        <ele>2783.63</ele>
        <time>2010-08-04T03:59:18Z</time>
      </trkpt>
      <trkpt lat="45.38063" lon="6.79072">
        <ele>2787</ele>
        <time>2010-08-04T03:59:30Z</time>
      </trkpt>
      <trkpt lat="45.38056" lon="6.79066">
        <ele>2789.4</ele>
        <time>2010-08-04T03:59:44Z</time>
      </trkpt>
      <trkpt lat="45.38051" lon="6.79061">
        <ele>2788.92</ele>
        <time>2010-08-04T03:59:55Z</time>
      </trkpt>
      <trkpt lat="45.3805" lon="6.7906">
        <ele>2788.92</ele>
        <time>2010-08-04T04:00:04Z</time>
      </trkpt>
      <trkpt lat="45.38045" lon="6.79051">
        <ele>2790.84</ele>
        <time>2010-08-04T04:00:17Z</time>
      </trkpt>
      <trkpt lat="45.38042" lon="6.79051">
        <ele>2792.29</ele>
        <time>2010-08-04T04:00:34Z</time>
      </trkpt>
      <trkpt lat="45.38042" lon="6.7905">
        <ele>2791.81</ele>
        <time>2010-08-04T04:00:37Z</time>
      </trkpt>
      <trkpt lat="45.38038" lon="6.79046">
        <ele>2794.21</ele>
        <time>2010-08-04T04:00:46Z</time>
      </trkpt>
      <trkpt lat="45.38035" lon="6.79038">
        <ele>2794.21</ele>
        <time>2010-08-04T04:00:57Z</time>
      </trkpt>
      <trkpt lat="45.3803" lon="6.79032">
        <ele>2797.57</ele>
        <time>2010-08-04T04:01:10Z</time>
      </trkpt>
      <trkpt lat="45.38025" lon="6.79028">
        <ele>2798.54</ele>
        <time>2010-08-04T04:01:23Z</time>
      </trkpt>
      <trkpt lat="45.38022" lon="6.79025">
        <ele>2800.46</ele>
        <time>2010-08-04T04:01:34Z</time>
      </trkpt>
      <trkpt lat="45.38019" lon="6.79019">
        <ele>2801.42</ele>
        <time>2010-08-04T04:01:45Z</time>
      </trkpt>
      <trkpt lat="45.38016" lon="6.79014">
        <ele>2803.82</ele>
        <time>2010-08-04T04:01:54Z</time>
      </trkpt>
      <trkpt lat="45.38014" lon="6.79007">
        <ele>2804.3</ele>
        <time>2010-08-04T04:02:04Z</time>
      </trkpt>
      <trkpt lat="45.38011" lon="6.78998">
        <ele>2804.3</ele>
        <time>2010-08-04T04:02:16Z</time>
      </trkpt>
      <trkpt lat="45.38007" lon="6.78992">
        <ele>2805.26</ele>
        <time>2010-08-04T04:02:28Z</time>
      </trkpt>
      <trkpt lat="45.38002" lon="6.78982">
        <ele>2806.71</ele>
        <time>2010-08-04T04:02:41Z</time>
      </trkpt>
      <trkpt lat="45.38003" lon="6.78972">
        <ele>2808.63</ele>
        <time>2010-08-04T04:02:50Z</time>
      </trkpt>
      <trkpt lat="45.38004" lon="6.78961">
        <ele>2809.11</ele>
        <time>2010-08-04T04:03:02Z</time>
      </trkpt>
      <trkpt lat="45.38003" lon="6.78951">
        <ele>2810.55</ele>
        <time>2010-08-04T04:03:16Z</time>
      </trkpt>
      <trkpt lat="45.38002" lon="6.7895">
        <ele>2814.88</ele>
        <time>2010-08-04T04:03:28Z</time>
      </trkpt>
      <trkpt lat="45.38002" lon="6.78951">
        <ele>2812.96</ele>
        <time>2010-08-04T04:03:29Z</time>
      </trkpt>
      <trkpt lat="45.38" lon="6.78953">
        <ele>2814.88</ele>
        <time>2010-08-04T04:03:37Z</time>
      </trkpt>
      <trkpt lat="45.37998" lon="6.78954">
        <ele>2816.32</ele>
        <time>2010-08-04T04:03:47Z</time>
      </trkpt>
      <trkpt lat="45.37994" lon="6.78954">
        <ele>2816.8</ele>
        <time>2010-08-04T04:04:00Z</time>
      </trkpt>
      <trkpt lat="45.37993" lon="6.78953">
        <ele>2818.72</ele>
        <time>2010-08-04T04:04:07Z</time>
      </trkpt>
      <trkpt lat="45.37994" lon="6.78951">
        <ele>2819.2</ele>
        <time>2010-08-04T04:04:09Z</time>
      </trkpt>
      <trkpt lat="45.37995" lon="6.78948">
        <ele>2816.8</ele>
        <time>2010-08-04T04:04:12Z</time>
      </trkpt>
      <trkpt lat="45.37996" lon="6.78946">
        <ele>2820.16</ele>
        <time>2010-08-04T04:04:14Z</time>
      </trkpt>
      <trkpt lat="45.37997" lon="6.78945">
        <ele>2819.2</ele>
        <time>2010-08-04T04:04:15Z</time>
      </trkpt>
      <trkpt lat="45.37997" lon="6.78943">
        <ele>2823.53</ele>
        <time>2010-08-04T04:04:17Z</time>
      </trkpt>
      <trkpt lat="45.37997" lon="6.78943">
        <ele>2819.2</ele>
        <time>2010-08-04T04:04:18Z</time>
      </trkpt>
      <trkpt lat="45.37997" lon="6.78937">
        <ele>2820.16</ele>
        <time>2010-08-04T04:04:26Z</time>
      </trkpt>
      <trkpt lat="45.37996" lon="6.78934">
        <ele>2821.61</ele>
        <time>2010-08-04T04:04:39Z</time>
      </trkpt>
      <trkpt lat="45.37995" lon="6.78928">
        <ele>2824.49</ele>
        <time>2010-08-04T04:04:52Z</time>
      </trkpt>
      <trkpt lat="45.37992" lon="6.78923">
        <ele>2829.3</ele>
        <time>2010-08-04T04:05:06Z</time>
      </trkpt>
      <trkpt lat="45.37992" lon="6.78923">
        <ele>2825.45</ele>
        <time>2010-08-04T04:05:07Z</time>
      </trkpt>
      <trkpt lat="45.37989" lon="6.78919">
        <ele>2828.34</ele>
        <time>2010-08-04T04:05:16Z</time>
      </trkpt>
      <trkpt lat="45.37989" lon="6.78915">
        <ele>2831.7</ele>
        <time>2010-08-04T04:05:24Z</time>
      </trkpt>
      <trkpt lat="45.37986" lon="6.7891">
        <ele>2831.22</ele>
        <time>2010-08-04T04:05:36Z</time>
      </trkpt>
      <trkpt lat="45.37984" lon="6.7891">
        <ele>2833.14</ele>
        <time>2010-08-04T04:05:47Z</time>
      </trkpt>
      <trkpt lat="45.37982" lon="6.78911">
        <ele>2832.18</ele>
        <time>2010-08-04T04:05:55Z</time>
      </trkpt>
      <trkpt lat="45.3798" lon="6.7892">
        <ele>2835.06</ele>
        <time>2010-08-04T04:06:07Z</time>
      </trkpt>
      <trkpt lat="45.37979" lon="6.78923">
        <ele>2834.58</ele>
        <time>2010-08-04T04:06:10Z</time>
      </trkpt>
      <trkpt lat="45.37975" lon="6.78934">
        <ele>2835.06</ele>
        <time>2010-08-04T04:06:22Z</time>
      </trkpt>
      <trkpt lat="45.37974" lon="6.7894">
        <ele>2837.47</ele>
        <time>2010-08-04T04:06:32Z</time>
      </trkpt>
      <trkpt lat="45.37971" lon="6.78942">
        <ele>2839.39</ele>
        <time>2010-08-04T04:06:44Z</time>
      </trkpt>
      <trkpt lat="45.37968" lon="6.78949">
        <ele>2840.83</ele>
        <time>2010-08-04T04:06:56Z</time>
      </trkpt>
      <trkpt lat="45.37966" lon="6.78951">
        <ele>2842.76</ele>
        <time>2010-08-04T04:07:01Z</time>
      </trkpt>
      <trkpt lat="45.37963" lon="6.7896">
        <ele>2844.2</ele>
        <time>2010-08-04T04:07:18Z</time>
      </trkpt>
      <trkpt lat="45.3796" lon="6.78967">
        <ele>2844.68</ele>
        <time>2010-08-04T04:07:30Z</time>
      </trkpt>
      <trkpt lat="45.37959" lon="6.78969">
        <ele>2846.6</ele>
        <time>2010-08-04T04:07:32Z</time>
      </trkpt>
      <trkpt lat="45.37956" lon="6.78978">
        <ele>2849</ele>
        <time>2010-08-04T04:07:42Z</time>
      </trkpt>
      <trkpt lat="45.37952" lon="6.78976">
        <ele>2849</ele>
        <time>2010-08-04T04:07:54Z</time>
      </trkpt>
      <trkpt lat="45.3795" lon="6.78974">
        <ele>2850.93</ele>
        <time>2010-08-04T04:08:04Z</time>
      </trkpt>
      <trkpt lat="45.37947" lon="6.78975">
        <ele>2851.89</ele>
        <time>2010-08-04T04:08:16Z</time>
      </trkpt>
      <trkpt lat="45.37945" lon="6.78971">
        <ele>2848.52</ele>
        <time>2010-08-04T04:08:26Z</time>
      </trkpt>
      <trkpt lat="45.37945" lon="6.78971">
        <ele>2853.33</ele>
        <time>2010-08-04T04:08:27Z</time>
      </trkpt>
      <trkpt lat="45.37944" lon="6.78972">
        <ele>2853.81</ele>
        <time>2010-08-04T04:08:29Z</time>
      </trkpt>
      <trkpt lat="45.37942" lon="6.78977">
        <ele>2855.73</ele>
        <time>2010-08-04T04:08:42Z</time>
      </trkpt>
      <trkpt lat="45.37939" lon="6.78982">
        <ele>2859.1</ele>
        <time>2010-08-04T04:08:54Z</time>
      </trkpt>
      <trkpt lat="45.37939" lon="6.78986">
        <ele>2856.21</ele>
        <time>2010-08-04T04:09:00Z</time>
      </trkpt>
      <trkpt lat="45.37938" lon="6.78987">
        <ele>2859.1</ele>
        <time>2010-08-04T04:09:04Z</time>
      </trkpt>
      <trkpt lat="45.37936" lon="6.78986">
        <ele>2864.39</ele>
        <time>2010-08-04T04:09:09Z</time>
      </trkpt>
      <trkpt lat="45.37936" lon="6.78986">
        <ele>2860.54</ele>
        <time>2010-08-04T04:09:10Z</time>
      </trkpt>
      <trkpt lat="45.37934" lon="6.78986">
        <ele>2864.87</ele>
        <time>2010-08-04T04:09:26Z</time>
      </trkpt>
      <trkpt lat="45.37932" lon="6.78986">
        <ele>2869.19</ele>
        <time>2010-08-04T04:09:33Z</time>
      </trkpt>
      <trkpt lat="45.37932" lon="6.78986">
        <ele>2863.9</ele>
        <time>2010-08-04T04:09:34Z</time>
      </trkpt>
      <trkpt lat="45.37929" lon="6.78985">
        <ele>2865.83</ele>
        <time>2010-08-04T04:09:46Z</time>
      </trkpt>
      <trkpt lat="45.37928" lon="6.78986">
        <ele>2870.63</ele>
        <time>2010-08-04T04:09:50Z</time>
      </trkpt>
      <trkpt lat="45.37928" lon="6.78986">
        <ele>2866.79</ele>
        <time>2010-08-04T04:09:51Z</time>
      </trkpt>
      <trkpt lat="45.37926" lon="6.78989">
        <ele>2866.79</ele>
        <time>2010-08-04T04:10:02Z</time>
      </trkpt>
      <trkpt lat="45.37924" lon="6.78993">
        <ele>2869.19</ele>
        <time>2010-08-04T04:10:20Z</time>
      </trkpt>
      <trkpt lat="45.37922" lon="6.78995">
        <ele>2873.52</ele>
        <time>2010-08-04T04:10:34Z</time>
      </trkpt>
      <trkpt lat="45.37922" lon="6.78995">
        <ele>2871.11</ele>
        <time>2010-08-04T04:10:35Z</time>
      </trkpt>
      <trkpt lat="45.37922" lon="6.78995">
        <ele>2856.69</ele>
        <time>2010-08-04T04:10:36Z</time>
      </trkpt>
      <trkpt lat="45.37921" lon="6.78995">
        <ele>2870.63</ele>
        <time>2010-08-04T04:10:37Z</time>
      </trkpt>
      <trkpt lat="45.37921" lon="6.78995">
        <ele>2871.6</ele>
        <time>2010-08-04T04:10:39Z</time>
      </trkpt>
      <trkpt lat="45.37919" lon="6.79001">
        <ele>2873.52</ele>
        <time>2010-08-04T04:10:54Z</time>
      </trkpt>
      <trkpt lat="45.37919" lon="6.79002">
        <ele>2869.67</ele>
        <time>2010-08-04T04:10:55Z</time>
      </trkpt>
      <trkpt lat="45.37918" lon="6.79002">
        <ele>2873.52</ele>
        <time>2010-08-04T04:10:56Z</time>
      </trkpt>
      <trkpt lat="45.37916" lon="6.79006">
        <ele>2877.84</ele>
        <time>2010-08-04T04:11:09Z</time>
      </trkpt>
      <trkpt lat="45.37915" lon="6.79006">
        <ele>2874</ele>
        <time>2010-08-04T04:11:10Z</time>
      </trkpt>
      <trkpt lat="45.37913" lon="6.79007">
        <ele>2877.36</ele>
        <time>2010-08-04T04:11:20Z</time>
      </trkpt>
      <trkpt lat="45.37912" lon="6.79003">
        <ele>2876.88</ele>
        <time>2010-08-04T04:11:34Z</time>
      </trkpt>
      <trkpt lat="45.37912" lon="6.78998">
        <ele>2880.73</ele>
        <time>2010-08-04T04:11:42Z</time>
      </trkpt>
      <trkpt lat="45.37912" lon="6.78998">
        <ele>2880.25</ele>
        <time>2010-08-04T04:11:43Z</time>
      </trkpt>
      <trkpt lat="45.37909" lon="6.78998">
        <ele>2884.57</ele>
        <time>2010-08-04T04:11:52Z</time>
      </trkpt>
      <trkpt lat="45.37909" lon="6.78998">
        <ele>2881.21</ele>
        <time>2010-08-04T04:11:53Z</time>
      </trkpt>
      <trkpt lat="45.37908" lon="6.78997">
        <ele>2878.32</ele>
        <time>2010-08-04T04:11:57Z</time>
      </trkpt>
      <trkpt lat="45.37908" lon="6.78996">
        <ele>2882.65</ele>
        <time>2010-08-04T04:11:58Z</time>
      </trkpt>
      <trkpt lat="45.37906" lon="6.78993">
        <ele>2884.09</ele>
        <time>2010-08-04T04:12:10Z</time>
      </trkpt>
      <trkpt lat="45.37904" lon="6.78989">
        <ele>2889.86</ele>
        <time>2010-08-04T04:12:15Z</time>
      </trkpt>
      <trkpt lat="45.37904" lon="6.78989">
        <ele>2884.09</ele>
        <time>2010-08-04T04:12:16Z</time>
      </trkpt>
      <trkpt lat="45.37902" lon="6.78988">
        <ele>2887.46</ele>
        <time>2010-08-04T04:12:22Z</time>
      </trkpt>
      <trkpt lat="45.37902" lon="6.78988">
        <ele>2886.02</ele>
        <time>2010-08-04T04:12:23Z</time>
      </trkpt>
      <trkpt lat="45.379" lon="6.78985">
        <ele>2889.38</ele>
        <time>2010-08-04T04:12:32Z</time>
      </trkpt>
      <trkpt lat="45.379" lon="6.78985">
        <ele>2889.38</ele>
        <time>2010-08-04T04:12:33Z</time>
      </trkpt>
      <trkpt lat="45.379" lon="6.78985">
        <ele>2887.94</ele>
        <time>2010-08-04T04:12:35Z</time>
      </trkpt>
      <trkpt lat="45.37896" lon="6.78979">
        <ele>2890.34</ele>
        <time>2010-08-04T04:12:47Z</time>
      </trkpt>
      <trkpt lat="45.37893" lon="6.78976">
        <ele>2894.19</ele>
        <time>2010-08-04T04:13:00Z</time>
      </trkpt>
      <trkpt lat="45.37893" lon="6.78975">
        <ele>2890.34</ele>
        <time>2010-08-04T04:13:01Z</time>
      </trkpt>
      <trkpt lat="45.37892" lon="6.78973">
        <ele>2889.38</ele>
        <time>2010-08-04T04:13:03Z</time>
      </trkpt>
      <trkpt lat="45.37892" lon="6.78972">
        <ele>2892.26</ele>
        <time>2010-08-04T04:13:05Z</time>
      </trkpt>
      <trkpt lat="45.37891" lon="6.78972">
        <ele>2891.78</ele>
        <time>2010-08-04T04:13:06Z</time>
      </trkpt>
      <trkpt lat="45.3789" lon="6.78971">
        <ele>2890.82</ele>
        <time>2010-08-04T04:13:08Z</time>
      </trkpt>
      <trkpt lat="45.37887" lon="6.78968">
        <ele>2892.74</ele>
        <time>2010-08-04T04:13:13Z</time>
      </trkpt>
      <trkpt lat="45.37881" lon="6.78958">
        <ele>2894.19</ele>
        <time>2010-08-04T04:13:24Z</time>
      </trkpt>
      <trkpt lat="45.37878" lon="6.78957">
        <ele>2897.55</ele>
        <time>2010-08-04T04:13:32Z</time>
      </trkpt>
      <trkpt lat="45.37875" lon="6.78957">
        <ele>2894.67</ele>
        <time>2010-08-04T04:13:39Z</time>
      </trkpt>
      <trkpt lat="45.3787" lon="6.78962">
        <ele>2889.86</ele>
        <time>2010-08-04T04:13:46Z</time>
      </trkpt>
      <trkpt lat="45.37869" lon="6.78963">
        <ele>2893.23</ele>
        <time>2010-08-04T04:13:47Z</time>
      </trkpt>
      <trkpt lat="45.37868" lon="6.78966">
        <ele>2896.59</ele>
        <time>2010-08-04T04:13:53Z</time>
      </trkpt>
      <trkpt lat="45.37865" lon="6.78975">
        <ele>2895.15</ele>
        <time>2010-08-04T04:14:05Z</time>
      </trkpt>
      <trkpt lat="45.37863" lon="6.78976">
        <ele>2897.07</ele>
        <time>2010-08-04T04:14:08Z</time>
      </trkpt>
      <trkpt lat="45.37859" lon="6.78981">
        <ele>2898.03</ele>
        <time>2010-08-04T04:14:19Z</time>
      </trkpt>
      <trkpt lat="45.37858" lon="6.78981">
        <ele>2898.51</ele>
        <time>2010-08-04T04:14:20Z</time>
      </trkpt>
      <trkpt lat="45.37857" lon="6.78982">
        <ele>2902.84</ele>
        <time>2010-08-04T04:14:22Z</time>
      </trkpt>
      <trkpt lat="45.37857" lon="6.78983">
        <ele>2898.51</ele>
        <time>2010-08-04T04:14:23Z</time>
      </trkpt>
      <trkpt lat="45.37854" lon="6.78983">
        <ele>2898.51</ele>
        <time>2010-08-04T04:14:28Z</time>
      </trkpt>
      <trkpt lat="45.37851" lon="6.78982">
        <ele>2901.88</ele>
        <time>2010-08-04T04:14:31Z</time>
      </trkpt>
      <trkpt lat="45.37849" lon="6.7898">
        <ele>2898.99</ele>
        <time>2010-08-04T04:14:34Z</time>
      </trkpt>
      <trkpt lat="45.37846" lon="6.78982">
        <ele>2898.03</ele>
        <time>2010-08-04T04:14:38Z</time>
      </trkpt>
      <trkpt lat="45.37845" lon="6.78982">
        <ele>2898.51</ele>
        <time>2010-08-04T04:14:39Z</time>
      </trkpt>
      <trkpt lat="45.3784" lon="6.78988">
        <ele>2900.92</ele>
        <time>2010-08-04T04:14:49Z</time>
      </trkpt>
      <trkpt lat="45.37833" lon="6.78987">
        <ele>2902.84</ele>
        <time>2010-08-04T04:15:01Z</time>
      </trkpt>
      <trkpt lat="45.37832" lon="6.78986">
        <ele>2902.84</ele>
        <time>2010-08-04T04:15:02Z</time>
      </trkpt>
      <trkpt lat="45.37832" lon="6.78986">
        <ele>2907.65</ele>
        <time>2010-08-04T04:15:03Z</time>
      </trkpt>
      <trkpt lat="45.37832" lon="6.78986">
        <ele>2900.44</ele>
        <time>2010-08-04T04:15:04Z</time>
      </trkpt>
      <trkpt lat="45.3783" lon="6.78986">
        <ele>2903.8</ele>
        <time>2010-08-04T04:15:07Z</time>
      </trkpt>
      <trkpt lat="45.37828" lon="6.78984">
        <ele>2905.24</ele>
        <time>2010-08-04T04:15:11Z</time>
      </trkpt>
      <trkpt lat="45.37826" lon="6.78983">
        <ele>2902.36</ele>
        <time>2010-08-04T04:15:13Z</time>
      </trkpt>
      <trkpt lat="45.37824" lon="6.78983">
        <ele>2903.32</ele>
        <time>2010-08-04T04:15:16Z</time>
      </trkpt>
      <trkpt lat="45.37821" lon="6.78982">
        <ele>2904.28</ele>
        <time>2010-08-04T04:15:19Z</time>
      </trkpt>
      <trkpt lat="45.37815" lon="6.78983">
        <ele>2905.24</ele>
        <time>2010-08-04T04:15:33Z</time>
      </trkpt>
      <trkpt lat="45.37807" lon="6.78983">
        <ele>2906.2</ele>
        <time>2010-08-04T04:15:47Z</time>
      </trkpt>
      <trkpt lat="45.37802" lon="6.78979">
        <ele>2905.72</ele>
        <time>2010-08-04T04:15:59Z</time>
      </trkpt>
      <trkpt lat="45.378" lon="6.78977">
        <ele>2907.65</ele>
        <time>2010-08-04T04:16:03Z</time>
      </trkpt>
      <trkpt lat="45.37797" lon="6.78972">
        <ele>2907.16</ele>
        <time>2010-08-04T04:16:15Z</time>
      </trkpt>
      <trkpt lat="45.37794" lon="6.78967">
        <ele>2908.61</ele>
        <time>2010-08-04T04:16:28Z</time>
      </trkpt>
      <trkpt lat="45.37788" lon="6.78961">
        <ele>2910.05</ele>
        <time>2010-08-04T04:16:40Z</time>
      </trkpt>
      <trkpt lat="45.37786" lon="6.78959">
        <ele>2908.61</ele>
        <time>2010-08-04T04:16:43Z</time>
      </trkpt>
      <trkpt lat="45.37786" lon="6.78959">
        <ele>2910.05</ele>
        <time>2010-08-04T04:16:45Z</time>
      </trkpt>
      <trkpt lat="45.37781" lon="6.78959">
        <ele>2911.01</ele>
        <time>2010-08-04T04:16:55Z</time>
      </trkpt>
      <trkpt lat="45.37776" lon="6.78962">
        <ele>2910.05</ele>
        <time>2010-08-04T04:17:07Z</time>
      </trkpt>
      <trkpt lat="45.37775" lon="6.78963">
        <ele>2911.49</ele>
        <time>2010-08-04T04:17:10Z</time>
      </trkpt>
      <trkpt lat="45.3777" lon="6.78968">
        <ele>2914.85</ele>
        <time>2010-08-04T04:17:22Z</time>
      </trkpt>
      <trkpt lat="45.37769" lon="6.78968">
        <ele>2914.37</ele>
        <time>2010-08-04T04:17:23Z</time>
      </trkpt>
      <trkpt lat="45.37768" lon="6.78969">
        <ele>2916.3</ele>
        <time>2010-08-04T04:17:29Z</time>
      </trkpt>
      <trkpt lat="45.37765" lon="6.78974">
        <ele>2917.26</ele>
        <time>2010-08-04T04:17:38Z</time>
      </trkpt>
      <trkpt lat="45.37761" lon="6.78978">
        <ele>2917.74</ele>
        <time>2010-08-04T04:17:51Z</time>
      </trkpt>
      <trkpt lat="45.37754" lon="6.78982">
        <ele>2920.14</ele>
        <time>2010-08-04T04:18:04Z</time>
      </trkpt>
      <trkpt lat="45.37753" lon="6.78983">
        <ele>2920.62</ele>
        <time>2010-08-04T04:18:08Z</time>
      </trkpt>
      <trkpt lat="45.37747" lon="6.78976">
        <ele>2923.51</ele>
        <time>2010-08-04T04:18:20Z</time>
      </trkpt>
      <trkpt lat="45.37748" lon="6.78972">
        <ele>2919.18</ele>
        <time>2010-08-04T04:18:27Z</time>
      </trkpt>
      <trkpt lat="45.37748" lon="6.78972">
        <ele>2924.47</ele>
        <time>2010-08-04T04:18:28Z</time>
      </trkpt>
      <trkpt lat="45.37748" lon="6.78972">
        <ele>2923.51</ele>
        <time>2010-08-04T04:18:29Z</time>
      </trkpt>
      <trkpt lat="45.37748" lon="6.78972">
        <ele>2923.03</ele>
        <time>2010-08-04T04:18:51Z</time>
      </trkpt>
      <trkpt lat="45.37748" lon="6.78972">
        <ele>2926.87</ele>
        <time>2010-08-04T04:19:09Z</time>
      </trkpt>
      <trkpt lat="45.37748" lon="6.78972">
        <ele>2923.51</ele>
        <time>2010-08-04T04:19:10Z</time>
      </trkpt>
      <trkpt lat="45.37748" lon="6.78972">
        <ele>2923.03</ele>
        <time>2010-08-04T04:19:22Z</time>
      </trkpt>
      <trkpt lat="45.37747" lon="6.78971">
        <ele>2923.99</ele>
        <time>2010-08-04T04:19:44Z</time>
      </trkpt>
      <trkpt lat="45.37746" lon="6.78972">
        <ele>2923.03</ele>
        <time>2010-08-04T04:20:06Z</time>
      </trkpt>
      <trkpt lat="45.37746" lon="6.78973">
        <ele>2924.95</ele>
        <time>2010-08-04T04:20:08Z</time>
      </trkpt>
      <trkpt lat="45.37745" lon="6.78976">
        <ele>2925.43</ele>
        <time>2010-08-04T04:20:12Z</time>
      </trkpt>
      <trkpt lat="45.37745" lon="6.78978">
        <ele>2923.99</ele>
        <time>2010-08-04T04:20:14Z</time>
      </trkpt>
      <trkpt lat="45.37743" lon="6.78979">
        <ele>2925.91</ele>
        <time>2010-08-04T04:20:23Z</time>
      </trkpt>
      <trkpt lat="45.37739" lon="6.78986">
        <ele>2926.39</ele>
        <time>2010-08-04T04:20:44Z</time>
      </trkpt>
      <trkpt lat="45.37736" lon="6.7899">
        <ele>2929.27</ele>
        <time>2010-08-04T04:20:55Z</time>
      </trkpt>
      <trkpt lat="45.3773" lon="6.78993">
        <ele>2929.27</ele>
        <time>2010-08-04T04:21:05Z</time>
      </trkpt>
      <trkpt lat="45.37724" lon="6.78998">
        <ele>2932.16</ele>
        <time>2010-08-04T04:21:17Z</time>
      </trkpt>
      <trkpt lat="45.37719" lon="6.79003">
        <ele>2933.6</ele>
        <time>2010-08-04T04:21:28Z</time>
      </trkpt>
      <trkpt lat="45.37718" lon="6.79005">
        <ele>2935.52</ele>
        <time>2010-08-04T04:21:32Z</time>
      </trkpt>
      <trkpt lat="45.37714" lon="6.79014">
        <ele>2936.97</ele>
        <time>2010-08-04T04:21:44Z</time>
      </trkpt>
      <trkpt lat="45.37714" lon="6.79014">
        <ele>2936.97</ele>
        <time>2010-08-04T04:21:45Z</time>
      </trkpt>
      <trkpt lat="45.37709" lon="6.7902">
        <ele>2932.16</ele>
        <time>2010-08-04T04:21:55Z</time>
      </trkpt>
      <trkpt lat="45.37708" lon="6.7902">
        <ele>2936</ele>
        <time>2010-08-04T04:21:56Z</time>
      </trkpt>
      <trkpt lat="45.37707" lon="6.79021">
        <ele>2931.2</ele>
        <time>2010-08-04T04:21:58Z</time>
      </trkpt>
      <trkpt lat="45.37706" lon="6.79022">
        <ele>2938.89</ele>
        <time>2010-08-04T04:21:59Z</time>
      </trkpt>
      <trkpt lat="45.37706" lon="6.79022">
        <ele>2937.93</ele>
        <time>2010-08-04T04:22:00Z</time>
      </trkpt>
      <trkpt lat="45.377" lon="6.79028">
        <ele>2938.89</ele>
        <time>2010-08-04T04:22:10Z</time>
      </trkpt>
      <trkpt lat="45.37699" lon="6.79029">
        <ele>2939.85</ele>
        <time>2010-08-04T04:22:11Z</time>
      </trkpt>
      <trkpt lat="45.37694" lon="6.79034">
        <ele>2942.73</ele>
        <time>2010-08-04T04:22:20Z</time>
      </trkpt>
      <trkpt lat="45.37693" lon="6.79036">
        <ele>2939.37</ele>
        <time>2010-08-04T04:22:23Z</time>
      </trkpt>
      <trkpt lat="45.37691" lon="6.79036">
        <ele>2942.25</ele>
        <time>2010-08-04T04:22:27Z</time>
      </trkpt>
      <trkpt lat="45.37685" lon="6.79038">
        <ele>2943.69</ele>
        <time>2010-08-04T04:22:38Z</time>
      </trkpt>
      <trkpt lat="45.37682" lon="6.7904">
        <ele>2942.25</ele>
        <time>2010-08-04T04:22:49Z</time>
      </trkpt>
      <trkpt lat="45.37681" lon="6.7904">
        <ele>2946.1</ele>
        <time>2010-08-04T04:22:50Z</time>
      </trkpt>
      <trkpt lat="45.3768" lon="6.79041">
        <ele>2946.1</ele>
        <time>2010-08-04T04:22:51Z</time>
      </trkpt>
      <trkpt lat="45.37674" lon="6.79043">
        <ele>2948.02</ele>
        <time>2010-08-04T04:23:02Z</time>
      </trkpt>
      <trkpt lat="45.37672" lon="6.79044">
        <ele>2948.98</ele>
        <time>2010-08-04T04:23:16Z</time>
      </trkpt>
      <trkpt lat="45.37667" lon="6.79042">
        <ele>2951.38</ele>
        <time>2010-08-04T04:23:27Z</time>
      </trkpt>
      <trkpt lat="45.37662" lon="6.79044">
        <ele>2952.83</ele>
        <time>2010-08-04T04:23:40Z</time>
      </trkpt>
      <trkpt lat="45.37657" lon="6.79048">
        <ele>2954.75</ele>
        <time>2010-08-04T04:23:51Z</time>
      </trkpt>
      <trkpt lat="45.37656" lon="6.79048">
        <ele>2958.59</ele>
        <time>2010-08-04T04:23:53Z</time>
      </trkpt>
      <trkpt lat="45.37656" lon="6.79049">
        <ele>2956.19</ele>
        <time>2010-08-04T04:23:54Z</time>
      </trkpt>
      <trkpt lat="45.37651" lon="6.79051">
        <ele>2956.67</ele>
        <time>2010-08-04T04:24:04Z</time>
      </trkpt>
      <trkpt lat="45.37648" lon="6.79052">
        <ele>2959.56</ele>
        <time>2010-08-04T04:24:15Z</time>
      </trkpt>
      <trkpt lat="45.37642" lon="6.79059">
        <ele>2961.96</ele>
        <time>2010-08-04T04:24:29Z</time>
      </trkpt>
      <trkpt lat="45.37639" lon="6.79064">
        <ele>2963.4</ele>
        <time>2010-08-04T04:24:40Z</time>
      </trkpt>
      <trkpt lat="45.37639" lon="6.79064">
        <ele>2963.4</ele>
        <time>2010-08-04T04:24:41Z</time>
      </trkpt>
      <trkpt lat="45.37634" lon="6.79068">
        <ele>2964.36</ele>
        <time>2010-08-04T04:24:53Z</time>
      </trkpt>
      <trkpt lat="45.37631" lon="6.79071">
        <ele>2967.73</ele>
        <time>2010-08-04T04:25:02Z</time>
      </trkpt>
      <trkpt lat="45.3763" lon="6.79072">
        <ele>2967.73</ele>
        <time>2010-08-04T04:25:03Z</time>
      </trkpt>
      <trkpt lat="45.37624" lon="6.79078">
        <ele>2969.17</ele>
        <time>2010-08-04T04:25:17Z</time>
      </trkpt>
      <trkpt lat="45.3762" lon="6.79079">
        <ele>2970.13</ele>
        <time>2010-08-04T04:25:29Z</time>
      </trkpt>
      <trkpt lat="45.37619" lon="6.79078">
        <ele>2970.61</ele>
        <time>2010-08-04T04:25:31Z</time>
      </trkpt>
      <trkpt lat="45.37616" lon="6.79078">
        <ele>2972.05</ele>
        <time>2010-08-04T04:25:44Z</time>
      </trkpt>
      <trkpt lat="45.37614" lon="6.79084">
        <ele>2972.53</ele>
        <time>2010-08-04T04:25:54Z</time>
      </trkpt>
      <trkpt lat="45.37614" lon="6.79087">
        <ele>2970.61</ele>
        <time>2010-08-04T04:25:56Z</time>
      </trkpt>
      <trkpt lat="45.37608" lon="6.79094">
        <ele>2973.98</ele>
        <time>2010-08-04T04:26:07Z</time>
      </trkpt>
      <trkpt lat="45.37605" lon="6.79097">
        <ele>2978.3</ele>
        <time>2010-08-04T04:26:20Z</time>
      </trkpt>
      <trkpt lat="45.37604" lon="6.79101">
        <ele>2978.78</ele>
        <time>2010-08-04T04:26:26Z</time>
      </trkpt>
      <trkpt lat="45.37604" lon="6.79103">
        <ele>2976.86</ele>
        <time>2010-08-04T04:26:28Z</time>
      </trkpt>
      <trkpt lat="45.37603" lon="6.79106">
        <ele>2978.3</ele>
        <time>2010-08-04T04:26:44Z</time>
      </trkpt>
      <trkpt lat="45.37602" lon="6.79107">
        <ele>2978.3</ele>
        <time>2010-08-04T04:27:13Z</time>
      </trkpt>
      <trkpt lat="45.376" lon="6.79108">
        <ele>2982.15</ele>
        <time>2010-08-04T04:27:17Z</time>
      </trkpt>
      <trkpt lat="45.376" lon="6.79108">
        <ele>2978.3</ele>
        <time>2010-08-04T04:27:18Z</time>
      </trkpt>
      <trkpt lat="45.37598" lon="6.7911">
        <ele>2980.71</ele>
        <time>2010-08-04T04:27:30Z</time>
      </trkpt>
      <trkpt lat="45.37595" lon="6.79111">
        <ele>2980.71</ele>
        <time>2010-08-04T04:27:43Z</time>
      </trkpt>
      <trkpt lat="45.37595" lon="6.79111">
        <ele>2986.47</ele>
        <time>2010-08-04T04:27:56Z</time>
      </trkpt>
      <trkpt lat="45.37595" lon="6.79111">
        <ele>2979.74</ele>
        <time>2010-08-04T04:27:58Z</time>
      </trkpt>
      <trkpt lat="45.37595" lon="6.79111">
        <ele>2982.63</ele>
        <time>2010-08-04T04:27:59Z</time>
      </trkpt>
      <trkpt lat="45.37595" lon="6.79111">
        <ele>2979.26</ele>
        <time>2010-08-04T04:28:00Z</time>
      </trkpt>
      <trkpt lat="45.37595" lon="6.79111">
        <ele>2982.63</ele>
        <time>2010-08-04T04:28:02Z</time>
      </trkpt>
      <trkpt lat="45.37595" lon="6.79111">
        <ele>2982.63</ele>
        <time>2010-08-04T04:28:03Z</time>
      </trkpt>
      <trkpt lat="45.37594" lon="6.79111">
        <ele>2988.4</ele>
        <time>2010-08-04T04:28:21Z</time>
      </trkpt>
      <trkpt lat="45.37594" lon="6.79111">
        <ele>2981.67</ele>
        <time>2010-08-04T04:28:22Z</time>
      </trkpt>
      <trkpt lat="45.37594" lon="6.79111">
        <ele>2981.19</ele>
        <time>2010-08-04T04:28:24Z</time>
      </trkpt>
      <trkpt lat="45.37593" lon="6.79112">
        <ele>2981.19</ele>
        <time>2010-08-04T04:28:49Z</time>
      </trkpt>
      <trkpt lat="45.37593" lon="6.79112">
        <ele>2981.67</ele>
        <time>2010-08-04T04:29:20Z</time>
      </trkpt>
      <trkpt lat="45.37592" lon="6.79111">
        <ele>2981.67</ele>
        <time>2010-08-04T04:29:47Z</time>
      </trkpt>
      <trkpt lat="45.37592" lon="6.79111">
        <ele>2981.19</ele>
        <time>2010-08-04T04:31:38Z</time>
      </trkpt>
      <trkpt lat="45.37591" lon="6.7911">
        <ele>2981.67</ele>
        <time>2010-08-04T04:32:27Z</time>
      </trkpt>
      <trkpt lat="45.3759" lon="6.7911">
        <ele>2982.15</ele>
        <time>2010-08-04T04:33:04Z</time>
      </trkpt>
      <trkpt lat="45.37587" lon="6.79113">
        <ele>2982.63</ele>
        <time>2010-08-04T04:33:16Z</time>
      </trkpt>
      <trkpt lat="45.37586" lon="6.79113">
        <ele>2983.59</ele>
        <time>2010-08-04T04:33:18Z</time>
      </trkpt>
      <trkpt lat="45.37578" lon="6.79113">
        <ele>2985.03</ele>
        <time>2010-08-04T04:33:31Z</time>
      </trkpt>
      <trkpt lat="45.37576" lon="6.79113">
        <ele>2986.47</ele>
        <time>2010-08-04T04:33:34Z</time>
      </trkpt>
      <trkpt lat="45.37567" lon="6.79112">
        <ele>2989.84</ele>
        <time>2010-08-04T04:33:49Z</time>
      </trkpt>
      <trkpt lat="45.37562" lon="6.79111">
        <ele>2991.76</ele>
        <time>2010-08-04T04:34:00Z</time>
      </trkpt>
      <trkpt lat="45.37554" lon="6.79111">
        <ele>2991.76</ele>
        <time>2010-08-04T04:34:11Z</time>
      </trkpt>
      <trkpt lat="45.37547" lon="6.79111">
        <ele>2995.12</ele>
        <time>2010-08-04T04:34:21Z</time>
      </trkpt>
      <trkpt lat="45.37547" lon="6.7911">
        <ele>2990.8</ele>
        <time>2010-08-04T04:34:22Z</time>
      </trkpt>
      <trkpt lat="45.37546" lon="6.7911">
        <ele>2995.12</ele>
        <time>2010-08-04T04:34:24Z</time>
      </trkpt>
      <trkpt lat="45.37545" lon="6.7911">
        <ele>2995.12</ele>
        <time>2010-08-04T04:34:25Z</time>
      </trkpt>
      <trkpt lat="45.37539" lon="6.79108">
        <ele>2997.53</ele>
        <time>2010-08-04T04:34:34Z</time>
      </trkpt>
      <trkpt lat="45.37539" lon="6.79108">
        <ele>2997.05</ele>
        <time>2010-08-04T04:34:35Z</time>
      </trkpt>
      <trkpt lat="45.37536" lon="6.79108">
        <ele>2998.01</ele>
        <time>2010-08-04T04:34:41Z</time>
      </trkpt>
      <trkpt lat="45.37534" lon="6.79107">
        <ele>2992.24</ele>
        <time>2010-08-04T04:34:44Z</time>
      </trkpt>
      <trkpt lat="45.37534" lon="6.79107">
        <ele>3000.41</ele>
        <time>2010-08-04T04:34:45Z</time>
      </trkpt>
      <trkpt lat="45.37533" lon="6.79107">
        <ele>3000.41</ele>
        <time>2010-08-04T04:34:46Z</time>
      </trkpt>
      <trkpt lat="45.37533" lon="6.79108">
        <ele>2997.05</ele>
        <time>2010-08-04T04:34:48Z</time>
      </trkpt>
      <trkpt lat="45.37531" lon="6.79108">
        <ele>3000.89</ele>
        <time>2010-08-04T04:34:51Z</time>
      </trkpt>
      <trkpt lat="45.37527" lon="6.79103">
        <ele>3001.37</ele>
        <time>2010-08-04T04:35:03Z</time>
      </trkpt>
      <trkpt lat="45.37524" lon="6.79093">
        <ele>3002.33</ele>
        <time>2010-08-04T04:35:16Z</time>
      </trkpt>
      <trkpt lat="45.37523" lon="6.79093">
        <ele>3002.82</ele>
        <time>2010-08-04T04:35:18Z</time>
      </trkpt>
      <trkpt lat="45.37521" lon="6.79093">
        <ele>3004.26</ele>
        <time>2010-08-04T04:35:22Z</time>
      </trkpt>
      <trkpt lat="45.37521" lon="6.79093">
        <ele>3000.41</ele>
        <time>2010-08-04T04:35:26Z</time>
      </trkpt>
      <trkpt lat="45.37521" lon="6.79094">
        <ele>3005.22</ele>
        <time>2010-08-04T04:35:27Z</time>
      </trkpt>
      <trkpt lat="45.3752" lon="6.79096">
        <ele>3006.18</ele>
        <time>2010-08-04T04:35:34Z</time>
      </trkpt>
      <trkpt lat="45.37518" lon="6.79094">
        <ele>3009.54</ele>
        <time>2010-08-04T04:35:46Z</time>
      </trkpt>
      <trkpt lat="45.37518" lon="6.79094">
        <ele>3009.06</ele>
        <time>2010-08-04T04:35:47Z</time>
      </trkpt>
      <trkpt lat="45.37516" lon="6.79091">
        <ele>3010.03</ele>
        <time>2010-08-04T04:35:51Z</time>
      </trkpt>
      <trkpt lat="45.37516" lon="6.79086">
        <ele>3011.95</ele>
        <time>2010-08-04T04:35:58Z</time>
      </trkpt>
      <trkpt lat="45.37516" lon="6.79086">
        <ele>3009.54</ele>
        <time>2010-08-04T04:35:59Z</time>
      </trkpt>
      <trkpt lat="45.37515" lon="6.79079">
        <ele>3010.03</ele>
        <time>2010-08-04T04:36:04Z</time>
      </trkpt>
      <trkpt lat="45.37514" lon="6.79076">
        <ele>3009.06</ele>
        <time>2010-08-04T04:36:07Z</time>
      </trkpt>
      <trkpt lat="45.37515" lon="6.79073">
        <ele>3007.14</ele>
        <time>2010-08-04T04:36:18Z</time>
      </trkpt>
      <trkpt lat="45.37517" lon="6.7907">
        <ele>3008.58</ele>
        <time>2010-08-04T04:36:20Z</time>
      </trkpt>
      <trkpt lat="45.37519" lon="6.79067">
        <ele>3009.54</ele>
        <time>2010-08-04T04:36:24Z</time>
      </trkpt>
      <trkpt lat="45.37518" lon="6.79062">
        <ele>3009.54</ele>
        <time>2010-08-04T04:36:31Z</time>
      </trkpt>
      <trkpt lat="45.37521" lon="6.79055">
        <ele>3005.7</ele>
        <time>2010-08-04T04:36:35Z</time>
      </trkpt>
      <trkpt lat="45.37522" lon="6.79054">
        <ele>3008.58</ele>
        <time>2010-08-04T04:36:37Z</time>
      </trkpt>
      <trkpt lat="45.37524" lon="6.79052">
        <ele>3006.66</ele>
        <time>2010-08-04T04:36:39Z</time>
      </trkpt>
      <trkpt lat="45.37525" lon="6.79049">
        <ele>3008.1</ele>
        <time>2010-08-04T04:36:41Z</time>
      </trkpt>
      <trkpt lat="45.37526" lon="6.79048">
        <ele>3005.7</ele>
        <time>2010-08-04T04:36:42Z</time>
      </trkpt>
      <trkpt lat="45.37527" lon="6.79043">
        <ele>3005.7</ele>
        <time>2010-08-04T04:37:01Z</time>
      </trkpt>
      <trkpt lat="45.3753" lon="6.79038">
        <ele>3003.78</ele>
        <time>2010-08-04T04:37:14Z</time>
      </trkpt>
      <trkpt lat="45.37531" lon="6.79035">
        <ele>3001.85</ele>
        <time>2010-08-04T04:37:19Z</time>
      </trkpt>
      <trkpt lat="45.37534" lon="6.79033">
        <ele>3000.89</ele>
        <time>2010-08-04T04:37:31Z</time>
      </trkpt>
      <trkpt lat="45.37534" lon="6.79033">
        <ele>2999.45</ele>
        <time>2010-08-04T04:37:33Z</time>
      </trkpt>
      <trkpt lat="45.37537" lon="6.79033">
        <ele>2998.01</ele>
        <time>2010-08-04T04:37:41Z</time>
      </trkpt>
      <trkpt lat="45.37539" lon="6.79028">
        <ele>2994.16</ele>
        <time>2010-08-04T04:37:44Z</time>
      </trkpt>
      <trkpt lat="45.37541" lon="6.79023">
        <ele>2997.53</ele>
        <time>2010-08-04T04:37:49Z</time>
      </trkpt>
      <trkpt lat="45.37544" lon="6.79022">
        <ele>2995.12</ele>
        <time>2010-08-04T04:38:16Z</time>
      </trkpt>
      <trkpt lat="45.3755" lon="6.79017">
        <ele>2993.2</ele>
        <time>2010-08-04T04:38:28Z</time>
      </trkpt>
      <trkpt lat="45.37555" lon="6.79018">
        <ele>2990.32</ele>
        <time>2010-08-04T04:38:41Z</time>
      </trkpt>
      <trkpt lat="45.37557" lon="6.79016">
        <ele>2986.47</ele>
        <time>2010-08-04T04:38:48Z</time>
      </trkpt>
      <trkpt lat="45.37561" lon="6.79012">
        <ele>2986.47</ele>
        <time>2010-08-04T04:39:01Z</time>
      </trkpt>
      <trkpt lat="45.37566" lon="6.79011">
        <ele>2985.99</ele>
        <time>2010-08-04T04:39:10Z</time>
      </trkpt>
      <trkpt lat="45.37569" lon="6.79012">
        <ele>2984.07</ele>
        <time>2010-08-04T04:39:18Z</time>
      </trkpt>
      <trkpt lat="45.37569" lon="6.79013">
        <ele>2983.59</ele>
        <time>2010-08-04T04:39:31Z</time>
      </trkpt>
      <trkpt lat="45.37569" lon="6.79014">
        <ele>2983.11</ele>
        <time>2010-08-04T04:39:47Z</time>
      </trkpt>
      <trkpt lat="45.37569" lon="6.79014">
        <ele>2976.38</ele>
        <time>2010-08-04T04:40:04Z</time>
      </trkpt>
      <trkpt lat="45.37569" lon="6.79013">
        <ele>2985.03</ele>
        <time>2010-08-04T04:40:05Z</time>
      </trkpt>
      <trkpt lat="45.37569" lon="6.79013">
        <ele>2987.91</ele>
        <time>2010-08-04T04:40:06Z</time>
      </trkpt>
      <trkpt lat="45.37569" lon="6.79013">
        <ele>2984.55</ele>
        <time>2010-08-04T04:40:07Z</time>
      </trkpt>
      <trkpt lat="45.37569" lon="6.79013">
        <ele>2981.19</ele>
        <time>2010-08-04T04:40:23Z</time>
      </trkpt>
      <trkpt lat="45.37569" lon="6.79013">
        <ele>2985.03</ele>
        <time>2010-08-04T04:40:25Z</time>
      </trkpt>
      <trkpt lat="45.37569" lon="6.79013">
        <ele>2982.15</ele>
        <time>2010-08-04T04:40:28Z</time>
      </trkpt>
      <trkpt lat="45.37569" lon="6.79013">
        <ele>2984.07</ele>
        <time>2010-08-04T04:40:48Z</time>
      </trkpt>
      <trkpt lat="45.37569" lon="6.79013">
        <ele>2983.11</ele>
        <time>2010-08-04T04:41:30Z</time>
      </trkpt>
      <trkpt lat="45.37569" lon="6.79013">
        <ele>2984.07</ele>
        <time>2010-08-04T04:41:32Z</time>
      </trkpt>
      <trkpt lat="45.37569" lon="6.79013">
        <ele>2986.47</ele>
        <time>2010-08-04T04:41:35Z</time>
      </trkpt>
      <trkpt lat="45.37569" lon="6.79013">
        <ele>2982.63</ele>
        <time>2010-08-04T04:41:39Z</time>
      </trkpt>
      <trkpt lat="45.37569" lon="6.79013">
        <ele>2992.24</ele>
        <time>2010-08-04T04:57:48Z</time>
      </trkpt>
      <trkpt lat="45.37569" lon="6.79013">
        <ele>2983.59</ele>
        <time>2010-08-04T04:57:49Z</time>
      </trkpt>
      <trkpt lat="45.37569" lon="6.79013">
        <ele>2983.59</ele>
        <time>2010-08-04T04:57:50Z</time>
      </trkpt>
      <trkpt lat="45.37569" lon="6.79013">
        <ele>2979.26</ele>
        <time>2010-08-04T04:57:53Z</time>
      </trkpt>
      <trkpt lat="45.37569" lon="6.79013">
        <ele>2990.32</ele>
        <time>2010-08-04T04:57:54Z</time>
      </trkpt>
      <trkpt lat="45.37569" lon="6.79013">
        <ele>2982.63</ele>
        <time>2010-08-04T04:57:56Z</time>
      </trkpt>
      <trkpt lat="45.37569" lon="6.79009">
        <ele>2983.11</ele>
        <time>2010-08-04T04:57:59Z</time>
      </trkpt>
      <trkpt lat="45.37569" lon="6.79011">
        <ele>2979.74</ele>
        <time>2010-08-04T04:58:13Z</time>
      </trkpt>
      <trkpt lat="45.3757" lon="6.79011">
        <ele>2985.51</ele>
        <time>2010-08-04T04:58:14Z</time>
      </trkpt>
      <trkpt lat="45.37569" lon="6.79011">
        <ele>2981.19</ele>
        <time>2010-08-04T04:58:17Z</time>
      </trkpt>
      <trkpt lat="45.37569" lon="6.79012">
        <ele>2985.03</ele>
        <time>2010-08-04T04:58:20Z</time>
      </trkpt>
      <trkpt lat="45.37571" lon="6.79013">
        <ele>2986.47</ele>
        <time>2010-08-04T04:58:34Z</time>
      </trkpt>
      <trkpt lat="45.37572" lon="6.79011">
        <ele>2986.47</ele>
        <time>2010-08-04T04:58:44Z</time>
      </trkpt>
      <trkpt lat="45.37574" lon="6.79003">
        <ele>2985.03</ele>
        <time>2010-08-04T04:58:51Z</time>
      </trkpt>
      <trkpt lat="45.37571" lon="6.78999">
        <ele>2985.51</ele>
        <time>2010-08-04T04:58:55Z</time>
      </trkpt>
      <trkpt lat="45.37569" lon="6.78996">
        <ele>2985.03</ele>
        <time>2010-08-04T04:58:59Z</time>
      </trkpt>
      <trkpt lat="45.37566" lon="6.78996">
        <ele>2985.51</ele>
        <time>2010-08-04T04:59:02Z</time>
      </trkpt>
      <trkpt lat="45.37566" lon="6.79004">
        <ele>2986.95</ele>
        <time>2010-08-04T04:59:15Z</time>
      </trkpt>
      <trkpt lat="45.37566" lon="6.79001">
        <ele>2987.91</ele>
        <time>2010-08-04T05:00:21Z</time>
      </trkpt>
      <trkpt lat="45.37567" lon="6.79004">
        <ele>2987.43</ele>
        <time>2010-08-04T05:01:10Z</time>
      </trkpt>
      <trkpt lat="45.37567" lon="6.79004">
        <ele>2987.91</ele>
        <time>2010-08-04T05:02:13Z</time>
      </trkpt>
      <trkpt lat="45.37567" lon="6.79004">
        <ele>2988.4</ele>
        <time>2010-08-04T05:03:11Z</time>
      </trkpt>
      <trkpt lat="45.37564" lon="6.79005">
        <ele>2987.91</ele>
        <time>2010-08-04T05:05:08Z</time>
      </trkpt>
      <trkpt lat="45.37555" lon="6.79">
        <ele>2985.99</ele>
        <time>2010-08-04T05:05:20Z</time>
      </trkpt>
      <trkpt lat="45.37553" lon="6.78999">
        <ele>2987.91</ele>
        <time>2010-08-04T05:05:23Z</time>
      </trkpt>
      <trkpt lat="45.37552" lon="6.78998">
        <ele>2986.95</ele>
        <time>2010-08-04T05:05:24Z</time>
      </trkpt>
      <trkpt lat="45.37548" lon="6.78997">
        <ele>2985.51</ele>
        <time>2010-08-04T05:05:28Z</time>
      </trkpt>
      <trkpt lat="45.37539" lon="6.78994">
        <ele>2986.95</ele>
        <time>2010-08-04T05:05:39Z</time>
      </trkpt>
      <trkpt lat="45.37533" lon="6.78992">
        <ele>2983.59</ele>
        <time>2010-08-04T05:05:46Z</time>
      </trkpt>
      <trkpt lat="45.37532" lon="6.78991">
        <ele>2986.47</ele>
        <time>2010-08-04T05:05:47Z</time>
      </trkpt>
      <trkpt lat="45.3753" lon="6.78991">
        <ele>2985.03</ele>
        <time>2010-08-04T05:05:49Z</time>
      </trkpt>
      <trkpt lat="45.37528" lon="6.7899">
        <ele>2989.84</ele>
        <time>2010-08-04T05:05:51Z</time>
      </trkpt>
      <trkpt lat="45.37527" lon="6.7899">
        <ele>2987.43</ele>
        <time>2010-08-04T05:05:52Z</time>
      </trkpt>
      <trkpt lat="45.37526" lon="6.78989">
        <ele>2985.99</ele>
        <time>2010-08-04T05:05:54Z</time>
      </trkpt>
      <trkpt lat="45.37524" lon="6.78988">
        <ele>2986.95</ele>
        <time>2010-08-04T05:05:56Z</time>
      </trkpt>
      <trkpt lat="45.37517" lon="6.78985">
        <ele>2990.32</ele>
        <time>2010-08-04T05:06:05Z</time>
      </trkpt>
      <trkpt lat="45.37512" lon="6.78982">
        <ele>2987.43</ele>
        <time>2010-08-04T05:06:14Z</time>
      </trkpt>
      <trkpt lat="45.37511" lon="6.78981">
        <ele>2990.8</ele>
        <time>2010-08-04T05:06:15Z</time>
      </trkpt>
      <trkpt lat="45.3751" lon="6.78981">
        <ele>2985.51</ele>
        <time>2010-08-04T05:06:16Z</time>
      </trkpt>
      <trkpt lat="45.37508" lon="6.78981">
        <ele>2990.32</ele>
        <time>2010-08-04T05:06:19Z</time>
      </trkpt>
      <trkpt lat="45.37507" lon="6.78981">
        <ele>2989.84</ele>
        <time>2010-08-04T05:06:20Z</time>
      </trkpt>
      <trkpt lat="45.37503" lon="6.78979">
        <ele>2986.47</ele>
        <time>2010-08-04T05:06:25Z</time>
      </trkpt>
      <trkpt lat="45.37502" lon="6.78979">
        <ele>2991.28</ele>
        <time>2010-08-04T05:06:26Z</time>
      </trkpt>
      <trkpt lat="45.37499" lon="6.78978">
        <ele>2991.76</ele>
        <time>2010-08-04T05:06:30Z</time>
      </trkpt>
      <trkpt lat="45.37498" lon="6.78978">
        <ele>2985.03</ele>
        <time>2010-08-04T05:06:31Z</time>
      </trkpt>
      <trkpt lat="45.37497" lon="6.78978">
        <ele>2990.32</ele>
        <time>2010-08-04T05:06:32Z</time>
      </trkpt>
      <trkpt lat="45.37496" lon="6.78978">
        <ele>2994.16</ele>
        <time>2010-08-04T05:06:33Z</time>
      </trkpt>
      <trkpt lat="45.37496" lon="6.78977">
        <ele>2990.8</ele>
        <time>2010-08-04T05:06:34Z</time>
      </trkpt>
      <trkpt lat="45.37494" lon="6.78977">
        <ele>2989.84</ele>
        <time>2010-08-04T05:06:36Z</time>
      </trkpt>
      <trkpt lat="45.37493" lon="6.78977">
        <ele>2993.2</ele>
        <time>2010-08-04T05:06:38Z</time>
      </trkpt>
      <trkpt lat="45.37491" lon="6.78977">
        <ele>2989.36</ele>
        <time>2010-08-04T05:06:40Z</time>
      </trkpt>
      <trkpt lat="45.37489" lon="6.78977">
        <ele>2996.09</ele>
        <time>2010-08-04T05:06:42Z</time>
      </trkpt>
      <trkpt lat="45.37488" lon="6.78977">
        <ele>2989.36</ele>
        <time>2010-08-04T05:06:43Z</time>
      </trkpt>
      <trkpt lat="45.37488" lon="6.78977">
        <ele>2992.72</ele>
        <time>2010-08-04T05:06:44Z</time>
      </trkpt>
      <trkpt lat="45.37485" lon="6.78976">
        <ele>2991.28</ele>
        <time>2010-08-04T05:06:48Z</time>
      </trkpt>
      <trkpt lat="45.37482" lon="6.78976">
        <ele>2993.2</ele>
        <time>2010-08-04T05:06:51Z</time>
      </trkpt>
      <trkpt lat="45.37481" lon="6.78976">
        <ele>2993.2</ele>
        <time>2010-08-04T05:06:52Z</time>
      </trkpt>
      <trkpt lat="45.3748" lon="6.78976">
        <ele>2987.43</ele>
        <time>2010-08-04T05:06:53Z</time>
      </trkpt>
      <trkpt lat="45.3748" lon="6.78976">
        <ele>2990.8</ele>
        <time>2010-08-04T05:06:54Z</time>
      </trkpt>
      <trkpt lat="45.37475" lon="6.78976">
        <ele>2989.84</ele>
        <time>2010-08-04T05:06:59Z</time>
      </trkpt>
      <trkpt lat="45.37473" lon="6.78976">
        <ele>2992.24</ele>
        <time>2010-08-04T05:07:01Z</time>
      </trkpt>
      <trkpt lat="45.37471" lon="6.78976">
        <ele>2989.84</ele>
        <time>2010-08-04T05:07:03Z</time>
      </trkpt>
      <trkpt lat="45.3747" lon="6.78975">
        <ele>2992.72</ele>
        <time>2010-08-04T05:07:04Z</time>
      </trkpt>
      <trkpt lat="45.37469" lon="6.78975">
        <ele>2988.88</ele>
        <time>2010-08-04T05:07:05Z</time>
      </trkpt>
      <trkpt lat="45.37466" lon="6.78974">
        <ele>2992.72</ele>
        <time>2010-08-04T05:07:09Z</time>
      </trkpt>
      <trkpt lat="45.37465" lon="6.78974">
        <ele>2989.36</ele>
        <time>2010-08-04T05:07:10Z</time>
      </trkpt>
      <trkpt lat="45.37461" lon="6.78973">
        <ele>2992.24</ele>
        <time>2010-08-04T05:07:14Z</time>
      </trkpt>
      <trkpt lat="45.37457" lon="6.7897">
        <ele>2989.84</ele>
        <time>2010-08-04T05:07:19Z</time>
      </trkpt>
      <trkpt lat="45.37455" lon="6.78969">
        <ele>2989.36</ele>
        <time>2010-08-04T05:07:21Z</time>
      </trkpt>
      <trkpt lat="45.37452" lon="6.7897">
        <ele>2991.76</ele>
        <time>2010-08-04T05:07:24Z</time>
      </trkpt>
      <trkpt lat="45.3745" lon="6.7897">
        <ele>2985.51</ele>
        <time>2010-08-04T05:07:26Z</time>
      </trkpt>
      <trkpt lat="45.37449" lon="6.78969">
        <ele>2988.88</ele>
        <time>2010-08-04T05:07:27Z</time>
      </trkpt>
      <trkpt lat="45.37444" lon="6.78965">
        <ele>2988.4</ele>
        <time>2010-08-04T05:07:37Z</time>
      </trkpt>
      <trkpt lat="45.37443" lon="6.78963">
        <ele>2988.4</ele>
        <time>2010-08-04T05:07:40Z</time>
      </trkpt>
      <trkpt lat="45.37436" lon="6.78961">
        <ele>2986.47</ele>
        <time>2010-08-04T05:07:47Z</time>
      </trkpt>
      <trkpt lat="45.37433" lon="6.78959">
        <ele>2988.4</ele>
        <time>2010-08-04T05:07:51Z</time>
      </trkpt>
      <trkpt lat="45.37432" lon="6.78957">
        <ele>2985.99</ele>
        <time>2010-08-04T05:07:53Z</time>
      </trkpt>
      <trkpt lat="45.37426" lon="6.78954">
        <ele>2985.03</ele>
        <time>2010-08-04T05:08:01Z</time>
      </trkpt>
      <trkpt lat="45.37424" lon="6.78954">
        <ele>2988.4</ele>
        <time>2010-08-04T05:08:03Z</time>
      </trkpt>
      <trkpt lat="45.37423" lon="6.78953">
        <ele>2984.07</ele>
        <time>2010-08-04T05:08:04Z</time>
      </trkpt>
      <trkpt lat="45.37419" lon="6.7895">
        <ele>2985.99</ele>
        <time>2010-08-04T05:08:09Z</time>
      </trkpt>
      <trkpt lat="45.37417" lon="6.78949">
        <ele>2988.88</ele>
        <time>2010-08-04T05:08:11Z</time>
      </trkpt>
      <trkpt lat="45.37415" lon="6.78947">
        <ele>2985.51</ele>
        <time>2010-08-04T05:08:13Z</time>
      </trkpt>
      <trkpt lat="45.37411" lon="6.78941">
        <ele>2983.59</ele>
        <time>2010-08-04T05:08:21Z</time>
      </trkpt>
      <trkpt lat="45.37409" lon="6.78939">
        <ele>2985.51</ele>
        <time>2010-08-04T05:08:23Z</time>
      </trkpt>
      <trkpt lat="45.37406" lon="6.78937">
        <ele>2983.11</ele>
        <time>2010-08-04T05:08:29Z</time>
      </trkpt>
      <trkpt lat="45.37406" lon="6.78936">
        <ele>2986.47</ele>
        <time>2010-08-04T05:08:30Z</time>
      </trkpt>
      <trkpt lat="45.37405" lon="6.78935">
        <ele>2981.67</ele>
        <time>2010-08-04T05:08:31Z</time>
      </trkpt>
      <trkpt lat="45.37404" lon="6.78934">
        <ele>2988.88</ele>
        <time>2010-08-04T05:08:32Z</time>
      </trkpt>
      <trkpt lat="45.37403" lon="6.78933">
        <ele>2985.51</ele>
        <time>2010-08-04T05:08:33Z</time>
      </trkpt>
      <trkpt lat="45.37399" lon="6.7893">
        <ele>2982.15</ele>
        <time>2010-08-04T05:08:40Z</time>
      </trkpt>
      <trkpt lat="45.37399" lon="6.78929">
        <ele>2985.99</ele>
        <time>2010-08-04T05:08:41Z</time>
      </trkpt>
      <trkpt lat="45.37398" lon="6.78928">
        <ele>2980.22</ele>
        <time>2010-08-04T05:08:42Z</time>
      </trkpt>
      <trkpt lat="45.37398" lon="6.78928">
        <ele>2984.07</ele>
        <time>2010-08-04T05:08:43Z</time>
      </trkpt>
      <trkpt lat="45.37393" lon="6.78919">
        <ele>2985.03</ele>
        <time>2010-08-04T05:08:54Z</time>
      </trkpt>
      <trkpt lat="45.37392" lon="6.78919">
        <ele>2982.15</ele>
        <time>2010-08-04T05:08:55Z</time>
      </trkpt>
      <trkpt lat="45.37391" lon="6.78918">
        <ele>2985.99</ele>
        <time>2010-08-04T05:08:56Z</time>
      </trkpt>
      <trkpt lat="45.37385" lon="6.78912">
        <ele>2986.95</ele>
        <time>2010-08-04T05:09:08Z</time>
      </trkpt>
      <trkpt lat="45.37382" lon="6.78906">
        <ele>2989.36</ele>
        <time>2010-08-04T05:09:14Z</time>
      </trkpt>
      <trkpt lat="45.37382" lon="6.78905">
        <ele>2989.84</ele>
        <time>2010-08-04T05:09:15Z</time>
      </trkpt>
      <trkpt lat="45.37381" lon="6.78905">
        <ele>2985.99</ele>
        <time>2010-08-04T05:09:16Z</time>
      </trkpt>
      <trkpt lat="45.37381" lon="6.78904">
        <ele>2987.91</ele>
        <time>2010-08-04T05:09:17Z</time>
      </trkpt>
      <trkpt lat="45.37378" lon="6.78899">
        <ele>2988.88</ele>
        <time>2010-08-04T05:09:23Z</time>
      </trkpt>
      <trkpt lat="45.37376" lon="6.78897">
        <ele>2987.91</ele>
        <time>2010-08-04T05:09:27Z</time>
      </trkpt>
      <trkpt lat="45.37375" lon="6.78895">
        <ele>2988.4</ele>
        <time>2010-08-04T05:09:29Z</time>
      </trkpt>
      <trkpt lat="45.37372" lon="6.7889">
        <ele>2990.32</ele>
        <time>2010-08-04T05:09:35Z</time>
      </trkpt>
      <trkpt lat="45.37371" lon="6.78889">
        <ele>2987.91</ele>
        <time>2010-08-04T05:09:37Z</time>
      </trkpt>
      <trkpt lat="45.37371" lon="6.78888">
        <ele>2990.8</ele>
        <time>2010-08-04T05:09:38Z</time>
      </trkpt>
      <trkpt lat="45.37368" lon="6.78883">
        <ele>2989.84</ele>
        <time>2010-08-04T05:09:50Z</time>
      </trkpt>
      <trkpt lat="45.37367" lon="6.78881">
        <ele>2989.84</ele>
        <time>2010-08-04T05:09:58Z</time>
      </trkpt>
      <trkpt lat="45.37363" lon="6.78871">
        <ele>2989.84</ele>
        <time>2010-08-04T05:10:09Z</time>
      </trkpt>
      <trkpt lat="45.3736" lon="6.78867">
        <ele>2993.2</ele>
        <time>2010-08-04T05:10:14Z</time>
      </trkpt>
      <trkpt lat="45.37356" lon="6.78864">
        <ele>2992.72</ele>
        <time>2010-08-04T05:10:21Z</time>
      </trkpt>
      <trkpt lat="45.37356" lon="6.78862">
        <ele>2991.76</ele>
        <time>2010-08-04T05:10:23Z</time>
      </trkpt>
      <trkpt lat="45.37354" lon="6.78859">
        <ele>2993.2</ele>
        <time>2010-08-04T05:10:26Z</time>
      </trkpt>
      <trkpt lat="45.37352" lon="6.78858">
        <ele>2993.68</ele>
        <time>2010-08-04T05:10:29Z</time>
      </trkpt>
      <trkpt lat="45.37351" lon="6.78857">
        <ele>2995.6</ele>
        <time>2010-08-04T05:10:31Z</time>
      </trkpt>
      <trkpt lat="45.37343" lon="6.78849">
        <ele>2989.84</ele>
        <time>2010-08-04T05:10:45Z</time>
      </trkpt>
      <trkpt lat="45.37342" lon="6.78849">
        <ele>2996.09</ele>
        <time>2010-08-04T05:10:46Z</time>
      </trkpt>
      <trkpt lat="45.37336" lon="6.78845">
        <ele>2994.16</ele>
        <time>2010-08-04T05:10:56Z</time>
      </trkpt>
      <trkpt lat="45.37335" lon="6.78845">
        <ele>2998.01</ele>
        <time>2010-08-04T05:10:57Z</time>
      </trkpt>
      <trkpt lat="45.37329" lon="6.78844">
        <ele>2999.93</ele>
        <time>2010-08-04T05:11:06Z</time>
      </trkpt>
      <trkpt lat="45.37328" lon="6.78844">
        <ele>2995.6</ele>
        <time>2010-08-04T05:11:07Z</time>
      </trkpt>
      <trkpt lat="45.37327" lon="6.78844">
        <ele>2999.45</ele>
        <time>2010-08-04T05:11:08Z</time>
      </trkpt>
      <trkpt lat="45.37327" lon="6.78844">
        <ele>2998.49</ele>
        <time>2010-08-04T05:11:09Z</time>
      </trkpt>
      <trkpt lat="45.37325" lon="6.78842">
        <ele>2998.01</ele>
        <time>2010-08-04T05:11:13Z</time>
      </trkpt>
      <trkpt lat="45.37323" lon="6.78841">
        <ele>2999.93</ele>
        <time>2010-08-04T05:11:15Z</time>
      </trkpt>
      <trkpt lat="45.3732" lon="6.78837">
        <ele>2998.97</ele>
        <time>2010-08-04T05:11:20Z</time>
      </trkpt>
      <trkpt lat="45.37315" lon="6.78829">
        <ele>3002.33</ele>
        <time>2010-08-04T05:11:32Z</time>
      </trkpt>
      <trkpt lat="45.37314" lon="6.78827">
        <ele>3000.41</ele>
        <time>2010-08-04T05:11:35Z</time>
      </trkpt>
      <trkpt lat="45.37307" lon="6.7882">
        <ele>3001.37</ele>
        <time>2010-08-04T05:11:46Z</time>
      </trkpt>
      <trkpt lat="45.37306" lon="6.78819">
        <ele>2998.49</ele>
        <time>2010-08-04T05:11:48Z</time>
      </trkpt>
      <trkpt lat="45.37306" lon="6.78819">
        <ele>2999.93</ele>
        <time>2010-08-04T05:11:49Z</time>
      </trkpt>
      <trkpt lat="45.37302" lon="6.78816">
        <ele>2999.45</ele>
        <time>2010-08-04T05:11:58Z</time>
      </trkpt>
      <trkpt lat="45.37299" lon="6.78814">
        <ele>3000.89</ele>
        <time>2010-08-04T05:12:02Z</time>
      </trkpt>
      <trkpt lat="45.37295" lon="6.78809">
        <ele>3001.37</ele>
        <time>2010-08-04T05:12:10Z</time>
      </trkpt>
      <trkpt lat="45.37293" lon="6.78808">
        <ele>3003.78</ele>
        <time>2010-08-04T05:12:13Z</time>
      </trkpt>
      <trkpt lat="45.37293" lon="6.78807">
        <ele>2997.53</ele>
        <time>2010-08-04T05:12:14Z</time>
      </trkpt>
      <trkpt lat="45.37292" lon="6.78806">
        <ele>3004.74</ele>
        <time>2010-08-04T05:12:15Z</time>
      </trkpt>
      <trkpt lat="45.37286" lon="6.78802">
        <ele>3002.82</ele>
        <time>2010-08-04T05:12:24Z</time>
      </trkpt>
      <trkpt lat="45.37285" lon="6.78802">
        <ele>3003.78</ele>
        <time>2010-08-04T05:12:26Z</time>
      </trkpt>
      <trkpt lat="45.37281" lon="6.788">
        <ele>3005.22</ele>
        <time>2010-08-04T05:12:31Z</time>
      </trkpt>
      <trkpt lat="45.37276" lon="6.78797">
        <ele>3003.3</ele>
        <time>2010-08-04T05:12:40Z</time>
      </trkpt>
      <trkpt lat="45.37275" lon="6.78796">
        <ele>3006.66</ele>
        <time>2010-08-04T05:12:41Z</time>
      </trkpt>
      <trkpt lat="45.37273" lon="6.78795">
        <ele>3006.18</ele>
        <time>2010-08-04T05:12:45Z</time>
      </trkpt>
      <trkpt lat="45.3727" lon="6.78789">
        <ele>3002.33</ele>
        <time>2010-08-04T05:12:51Z</time>
      </trkpt>
      <trkpt lat="45.37269" lon="6.78789">
        <ele>3007.14</ele>
        <time>2010-08-04T05:12:52Z</time>
      </trkpt>
      <trkpt lat="45.37262" lon="6.7878">
        <ele>3009.54</ele>
        <time>2010-08-04T05:13:06Z</time>
      </trkpt>
      <trkpt lat="45.37262" lon="6.7878">
        <ele>3009.54</ele>
        <time>2010-08-04T05:13:07Z</time>
      </trkpt>
      <trkpt lat="45.37255" lon="6.78776">
        <ele>3008.58</ele>
        <time>2010-08-04T05:13:18Z</time>
      </trkpt>
      <trkpt lat="45.37251" lon="6.78773">
        <ele>3011.95</ele>
        <time>2010-08-04T05:13:25Z</time>
      </trkpt>
      <trkpt lat="45.37248" lon="6.78766">
        <ele>3008.58</ele>
        <time>2010-08-04T05:13:33Z</time>
      </trkpt>
      <trkpt lat="45.37247" lon="6.78766">
        <ele>3010.03</ele>
        <time>2010-08-04T05:13:34Z</time>
      </trkpt>
      <trkpt lat="45.37246" lon="6.78765">
        <ele>3014.83</ele>
        <time>2010-08-04T05:13:36Z</time>
      </trkpt>
      <trkpt lat="45.37243" lon="6.78764">
        <ele>3005.7</ele>
        <time>2010-08-04T05:13:41Z</time>
      </trkpt>
      <trkpt lat="45.37242" lon="6.78763">
        <ele>3012.91</ele>
        <time>2010-08-04T05:13:42Z</time>
      </trkpt>
      <trkpt lat="45.37238" lon="6.78761">
        <ele>3007.62</ele>
        <time>2010-08-04T05:13:48Z</time>
      </trkpt>
      <trkpt lat="45.37238" lon="6.7876">
        <ele>3014.83</ele>
        <time>2010-08-04T05:13:49Z</time>
      </trkpt>
      <trkpt lat="45.37237" lon="6.7876">
        <ele>3013.39</ele>
        <time>2010-08-04T05:13:50Z</time>
      </trkpt>
      <trkpt lat="45.37231" lon="6.78756">
        <ele>3014.83</ele>
        <time>2010-08-04T05:14:00Z</time>
      </trkpt>
      <trkpt lat="45.3723" lon="6.78754">
        <ele>3013.39</ele>
        <time>2010-08-04T05:14:03Z</time>
      </trkpt>
      <trkpt lat="45.37228" lon="6.78753">
        <ele>3016.75</ele>
        <time>2010-08-04T05:14:06Z</time>
      </trkpt>
      <trkpt lat="45.37225" lon="6.78753">
        <ele>3013.87</ele>
        <time>2010-08-04T05:14:10Z</time>
      </trkpt>
      <trkpt lat="45.37221" lon="6.7875">
        <ele>3015.79</ele>
        <time>2010-08-04T05:14:17Z</time>
      </trkpt>
      <trkpt lat="45.3722" lon="6.7875">
        <ele>3015.79</ele>
        <time>2010-08-04T05:14:19Z</time>
      </trkpt>
      <trkpt lat="45.37213" lon="6.78748">
        <ele>3016.27</ele>
        <time>2010-08-04T05:14:28Z</time>
      </trkpt>
      <trkpt lat="45.37211" lon="6.78747">
        <ele>3016.27</ele>
        <time>2010-08-04T05:14:30Z</time>
      </trkpt>
      <trkpt lat="45.37208" lon="6.78747">
        <ele>3016.27</ele>
        <time>2010-08-04T05:14:33Z</time>
      </trkpt>
      <trkpt lat="45.37206" lon="6.78747">
        <ele>3015.79</ele>
        <time>2010-08-04T05:14:35Z</time>
      </trkpt>
      <trkpt lat="45.37204" lon="6.78747">
        <ele>3015.31</ele>
        <time>2010-08-04T05:14:37Z</time>
      </trkpt>
      <trkpt lat="45.37202" lon="6.78747">
        <ele>3014.35</ele>
        <time>2010-08-04T05:14:40Z</time>
      </trkpt>
      <trkpt lat="45.37196" lon="6.78748">
        <ele>3015.79</ele>
        <time>2010-08-04T05:14:50Z</time>
      </trkpt>
      <trkpt lat="45.3719" lon="6.78747">
        <ele>3014.35</ele>
        <time>2010-08-04T05:14:58Z</time>
      </trkpt>
      <trkpt lat="45.37189" lon="6.78747">
        <ele>3015.31</ele>
        <time>2010-08-04T05:15:02Z</time>
      </trkpt>
      <trkpt lat="45.37183" lon="6.78746">
        <ele>3014.83</ele>
        <time>2010-08-04T05:15:08Z</time>
      </trkpt>
      <trkpt lat="45.37175" lon="6.78746">
        <ele>3014.83</ele>
        <time>2010-08-04T05:15:18Z</time>
      </trkpt>
      <trkpt lat="45.37168" lon="6.78744">
        <ele>3011.95</ele>
        <time>2010-08-04T05:15:28Z</time>
      </trkpt>
      <trkpt lat="45.37168" lon="6.78744">
        <ele>3014.83</ele>
        <time>2010-08-04T05:15:29Z</time>
      </trkpt>
      <trkpt lat="45.37165" lon="6.78742">
        <ele>3014.35</ele>
        <time>2010-08-04T05:15:33Z</time>
      </trkpt>
      <trkpt lat="45.37159" lon="6.78743">
        <ele>3017.72</ele>
        <time>2010-08-04T05:15:41Z</time>
      </trkpt>
      <trkpt lat="45.37158" lon="6.78743">
        <ele>3012.91</ele>
        <time>2010-08-04T05:15:42Z</time>
      </trkpt>
      <trkpt lat="45.37157" lon="6.78743">
        <ele>3016.27</ele>
        <time>2010-08-04T05:15:43Z</time>
      </trkpt>
      <trkpt lat="45.37154" lon="6.78742">
        <ele>3018.2</ele>
        <time>2010-08-04T05:15:49Z</time>
      </trkpt>
      <trkpt lat="45.37148" lon="6.78737">
        <ele>3020.6</ele>
        <time>2010-08-04T05:16:00Z</time>
      </trkpt>
      <trkpt lat="45.37148" lon="6.78737">
        <ele>3015.31</ele>
        <time>2010-08-04T05:16:01Z</time>
      </trkpt>
      <trkpt lat="45.37147" lon="6.78734">
        <ele>3018.2</ele>
        <time>2010-08-04T05:16:04Z</time>
      </trkpt>
      <trkpt lat="45.37142" lon="6.78735">
        <ele>3019.16</ele>
        <time>2010-08-04T05:16:12Z</time>
      </trkpt>
      <trkpt lat="45.37135" lon="6.7874">
        <ele>3019.64</ele>
        <time>2010-08-04T05:16:22Z</time>
      </trkpt>
      <trkpt lat="45.37133" lon="6.78743">
        <ele>3020.12</ele>
        <time>2010-08-04T05:16:27Z</time>
      </trkpt>
      <trkpt lat="45.37131" lon="6.78744">
        <ele>3020.6</ele>
        <time>2010-08-04T05:16:32Z</time>
      </trkpt>
      <trkpt lat="45.37125" lon="6.78745">
        <ele>3022.04</ele>
        <time>2010-08-04T05:16:43Z</time>
      </trkpt>
      <trkpt lat="45.37121" lon="6.78742">
        <ele>3021.56</ele>
        <time>2010-08-04T05:16:49Z</time>
      </trkpt>
      <trkpt lat="45.37116" lon="6.78738">
        <ele>3023.48</ele>
        <time>2010-08-04T05:16:58Z</time>
      </trkpt>
      <trkpt lat="45.3711" lon="6.78734">
        <ele>3022.52</ele>
        <time>2010-08-04T05:17:06Z</time>
      </trkpt>
      <trkpt lat="45.37104" lon="6.78727">
        <ele>3025.41</ele>
        <time>2010-08-04T05:17:17Z</time>
      </trkpt>
      <trkpt lat="45.37102" lon="6.78726">
        <ele>3024.44</ele>
        <time>2010-08-04T05:17:20Z</time>
      </trkpt>
      <trkpt lat="45.37097" lon="6.78721">
        <ele>3025.41</ele>
        <time>2010-08-04T05:17:29Z</time>
      </trkpt>
      <trkpt lat="45.37089" lon="6.78718">
        <ele>3023</ele>
        <time>2010-08-04T05:17:39Z</time>
      </trkpt>
      <trkpt lat="45.37088" lon="6.78717">
        <ele>3025.89</ele>
        <time>2010-08-04T05:17:41Z</time>
      </trkpt>
      <trkpt lat="45.37086" lon="6.78717">
        <ele>3024.44</ele>
        <time>2010-08-04T05:17:43Z</time>
      </trkpt>
      <trkpt lat="45.37079" lon="6.78713">
        <ele>3024.93</ele>
        <time>2010-08-04T05:17:53Z</time>
      </trkpt>
      <trkpt lat="45.37078" lon="6.78711">
        <ele>3026.85</ele>
        <time>2010-08-04T05:17:56Z</time>
      </trkpt>
      <trkpt lat="45.37074" lon="6.78709">
        <ele>3023</ele>
        <time>2010-08-04T05:18:02Z</time>
      </trkpt>
      <trkpt lat="45.37068" lon="6.78708">
        <ele>3026.37</ele>
        <time>2010-08-04T05:18:08Z</time>
      </trkpt>
      <trkpt lat="45.37067" lon="6.78706">
        <ele>3025.89</ele>
        <time>2010-08-04T05:18:11Z</time>
      </trkpt>
      <trkpt lat="45.37059" lon="6.78701">
        <ele>3027.81</ele>
        <time>2010-08-04T05:18:22Z</time>
      </trkpt>
      <trkpt lat="45.37057" lon="6.787">
        <ele>3024.44</ele>
        <time>2010-08-04T05:18:24Z</time>
      </trkpt>
      <trkpt lat="45.37057" lon="6.787">
        <ele>3027.81</ele>
        <time>2010-08-04T05:18:25Z</time>
      </trkpt>
      <trkpt lat="45.37056" lon="6.787">
        <ele>3028.29</ele>
        <time>2010-08-04T05:18:26Z</time>
      </trkpt>
      <trkpt lat="45.3705" lon="6.78697">
        <ele>3028.29</ele>
        <time>2010-08-04T05:18:35Z</time>
      </trkpt>
      <trkpt lat="45.37046" lon="6.78695">
        <ele>3034.54</ele>
        <time>2010-08-04T05:18:42Z</time>
      </trkpt>
      <trkpt lat="45.37045" lon="6.78695">
        <ele>3026.37</ele>
        <time>2010-08-04T05:18:43Z</time>
      </trkpt>
      <trkpt lat="45.37044" lon="6.78694">
        <ele>3030.69</ele>
        <time>2010-08-04T05:18:44Z</time>
      </trkpt>
      <trkpt lat="45.37042" lon="6.78691">
        <ele>3025.89</ele>
        <time>2010-08-04T05:18:49Z</time>
      </trkpt>
      <trkpt lat="45.37042" lon="6.7869">
        <ele>3029.73</ele>
        <time>2010-08-04T05:18:52Z</time>
      </trkpt>
      <trkpt lat="45.37042" lon="6.7869">
        <ele>3029.73</ele>
        <time>2010-08-04T05:18:53Z</time>
      </trkpt>
      <trkpt lat="45.37041" lon="6.78686">
        <ele>3029.73</ele>
        <time>2010-08-04T05:19:41Z</time>
      </trkpt>
      <trkpt lat="45.37038" lon="6.78677">
        <ele>3032.62</ele>
        <time>2010-08-04T05:19:50Z</time>
      </trkpt>
      <trkpt lat="45.37036" lon="6.78665">
        <ele>3031.17</ele>
        <time>2010-08-04T05:20:01Z</time>
      </trkpt>
      <trkpt lat="45.37035" lon="6.78662">
        <ele>3033.1</ele>
        <time>2010-08-04T05:20:04Z</time>
      </trkpt>
      <trkpt lat="45.37034" lon="6.7866">
        <ele>3033.1</ele>
        <time>2010-08-04T05:20:06Z</time>
      </trkpt>
      <trkpt lat="45.37033" lon="6.78658">
        <ele>3033.1</ele>
        <time>2010-08-04T05:20:08Z</time>
      </trkpt>
      <trkpt lat="45.37029" lon="6.78649">
        <ele>3033.58</ele>
        <time>2010-08-04T05:20:20Z</time>
      </trkpt>
      <trkpt lat="45.37028" lon="6.78646">
        <ele>3035.02</ele>
        <time>2010-08-04T05:20:23Z</time>
      </trkpt>
      <trkpt lat="45.37021" lon="6.78637">
        <ele>3035.98</ele>
        <time>2010-08-04T05:20:35Z</time>
      </trkpt>
      <trkpt lat="45.3702" lon="6.78634">
        <ele>3036.94</ele>
        <time>2010-08-04T05:20:41Z</time>
      </trkpt>
      <trkpt lat="45.37019" lon="6.78636">
        <ele>3036.94</ele>
        <time>2010-08-04T05:20:57Z</time>
      </trkpt>
      <trkpt lat="45.37019" lon="6.78636">
        <ele>3036.94</ele>
        <time>2010-08-04T05:21:13Z</time>
      </trkpt>
      <trkpt lat="45.37019" lon="6.78636">
        <ele>3036.46</ele>
        <time>2010-08-04T05:21:32Z</time>
      </trkpt>
      <trkpt lat="45.37019" lon="6.78636">
        <ele>3036.46</ele>
        <time>2010-08-04T05:21:45Z</time>
      </trkpt>
      <trkpt lat="45.37019" lon="6.78636">
        <ele>3036.46</ele>
        <time>2010-08-04T05:22:06Z</time>
      </trkpt>
      <trkpt lat="45.37019" lon="6.78636">
        <ele>3035.98</ele>
        <time>2010-08-04T05:22:42Z</time>
      </trkpt>
      <trkpt lat="45.37019" lon="6.78635">
        <ele>3036.94</ele>
        <time>2010-08-04T05:23:14Z</time>
      </trkpt>
      <trkpt lat="45.37019" lon="6.78636">
        <ele>3036.46</ele>
        <time>2010-08-04T05:23:57Z</time>
      </trkpt>
      <trkpt lat="45.37019" lon="6.78636">
        <ele>3035.98</ele>
        <time>2010-08-04T05:24:27Z</time>
      </trkpt>
      <trkpt lat="45.37019" lon="6.78636">
        <ele>3036.46</ele>
        <time>2010-08-04T05:24:55Z</time>
      </trkpt>
      <trkpt lat="45.37019" lon="6.78636">
        <ele>3035.5</ele>
        <time>2010-08-04T05:26:17Z</time>
      </trkpt>
      <trkpt lat="45.37018" lon="6.78637">
        <ele>3035.98</ele>
        <time>2010-08-04T05:26:41Z</time>
      </trkpt>
      <trkpt lat="45.37018" lon="6.78636">
        <ele>3035.5</ele>
        <time>2010-08-04T05:27:37Z</time>
      </trkpt>
      <trkpt lat="45.37012" lon="6.78632">
        <ele>3036.94</ele>
        <time>2010-08-04T05:27:47Z</time>
      </trkpt>
      <trkpt lat="45.37004" lon="6.7863">
        <ele>3036.46</ele>
        <time>2010-08-04T05:27:59Z</time>
      </trkpt>
      <trkpt lat="45.36999" lon="6.78627">
        <ele>3036.94</ele>
        <time>2010-08-04T05:28:08Z</time>
      </trkpt>
      <trkpt lat="45.36993" lon="6.78625">
        <ele>3032.14</ele>
        <time>2010-08-04T05:28:17Z</time>
      </trkpt>
      <trkpt lat="45.36992" lon="6.78624">
        <ele>3034.06</ele>
        <time>2010-08-04T05:28:18Z</time>
      </trkpt>
      <trkpt lat="45.36986" lon="6.78621">
        <ele>3034.06</ele>
        <time>2010-08-04T05:28:28Z</time>
      </trkpt>
      <trkpt lat="45.36982" lon="6.78618">
        <ele>3034.54</ele>
        <time>2010-08-04T05:28:32Z</time>
      </trkpt>
      <trkpt lat="45.3698" lon="6.78617">
        <ele>3035.98</ele>
        <time>2010-08-04T05:28:34Z</time>
      </trkpt>
      <trkpt lat="45.36979" lon="6.78616">
        <ele>3032.14</ele>
        <time>2010-08-04T05:28:37Z</time>
      </trkpt>
      <trkpt lat="45.36972" lon="6.78611">
        <ele>3034.06</ele>
        <time>2010-08-04T05:28:47Z</time>
      </trkpt>
      <trkpt lat="45.36971" lon="6.7861">
        <ele>3034.06</ele>
        <time>2010-08-04T05:28:48Z</time>
      </trkpt>
      <trkpt lat="45.36968" lon="6.78608">
        <ele>3034.54</ele>
        <time>2010-08-04T05:28:53Z</time>
      </trkpt>
      <trkpt lat="45.36967" lon="6.78607">
        <ele>3032.14</ele>
        <time>2010-08-04T05:28:55Z</time>
      </trkpt>
      <trkpt lat="45.36965" lon="6.78605">
        <ele>3035.5</ele>
        <time>2010-08-04T05:28:58Z</time>
      </trkpt>
      <trkpt lat="45.36957" lon="6.78599">
        <ele>3034.54</ele>
        <time>2010-08-04T05:29:11Z</time>
      </trkpt>
      <trkpt lat="45.36957" lon="6.78599">
        <ele>3035.98</ele>
        <time>2010-08-04T05:29:12Z</time>
      </trkpt>
      <trkpt lat="45.3695" lon="6.78593">
        <ele>3036.94</ele>
        <time>2010-08-04T05:29:24Z</time>
      </trkpt>
      <trkpt lat="45.36948" lon="6.78591">
        <ele>3035.02</ele>
        <time>2010-08-04T05:29:28Z</time>
      </trkpt>
      <trkpt lat="45.36947" lon="6.7859">
        <ele>3037.9</ele>
        <time>2010-08-04T05:29:29Z</time>
      </trkpt>
      <trkpt lat="45.36946" lon="6.78589">
        <ele>3038.38</ele>
        <time>2010-08-04T05:29:31Z</time>
      </trkpt>
      <trkpt lat="45.36944" lon="6.78586">
        <ele>3036.94</ele>
        <time>2010-08-04T05:29:35Z</time>
      </trkpt>
      <trkpt lat="45.36937" lon="6.7858">
        <ele>3039.35</ele>
        <time>2010-08-04T05:29:48Z</time>
      </trkpt>
      <trkpt lat="45.36932" lon="6.78574">
        <ele>3041.75</ele>
        <time>2010-08-04T05:29:59Z</time>
      </trkpt>
      <trkpt lat="45.36929" lon="6.7857">
        <ele>3039.83</ele>
        <time>2010-08-04T05:30:06Z</time>
      </trkpt>
      <trkpt lat="45.36926" lon="6.78568">
        <ele>3041.27</ele>
        <time>2010-08-04T05:30:10Z</time>
      </trkpt>
      <trkpt lat="45.36919" lon="6.78562">
        <ele>3043.19</ele>
        <time>2010-08-04T05:30:22Z</time>
      </trkpt>
      <trkpt lat="45.36915" lon="6.78557">
        <ele>3043.19</ele>
        <time>2010-08-04T05:30:31Z</time>
      </trkpt>
      <trkpt lat="45.3691" lon="6.7855">
        <ele>3045.11</ele>
        <time>2010-08-04T05:30:41Z</time>
      </trkpt>
      <trkpt lat="45.36908" lon="6.78546">
        <ele>3048</ele>
        <time>2010-08-04T05:30:46Z</time>
      </trkpt>
      <trkpt lat="45.36907" lon="6.78544">
        <ele>3047.04</ele>
        <time>2010-08-04T05:30:48Z</time>
      </trkpt>
      <trkpt lat="45.36904" lon="6.78542">
        <ele>3045.11</ele>
        <time>2010-08-04T05:30:53Z</time>
      </trkpt>
      <trkpt lat="45.36903" lon="6.78541">
        <ele>3041.75</ele>
        <time>2010-08-04T05:30:55Z</time>
      </trkpt>
      <trkpt lat="45.36903" lon="6.7854">
        <ele>3045.59</ele>
        <time>2010-08-04T05:30:56Z</time>
      </trkpt>
      <trkpt lat="45.369" lon="6.78538">
        <ele>3046.07</ele>
        <time>2010-08-04T05:31:00Z</time>
      </trkpt>
      <trkpt lat="45.36899" lon="6.78537">
        <ele>3050.4</ele>
        <time>2010-08-04T05:31:02Z</time>
      </trkpt>
      <trkpt lat="45.36899" lon="6.78536">
        <ele>3045.11</ele>
        <time>2010-08-04T05:31:03Z</time>
      </trkpt>
      <trkpt lat="45.36899" lon="6.78535">
        <ele>3046.07</ele>
        <time>2010-08-04T05:31:04Z</time>
      </trkpt>
      <trkpt lat="45.36898" lon="6.78533">
        <ele>3048</ele>
        <time>2010-08-04T05:31:06Z</time>
      </trkpt>
      <trkpt lat="45.36896" lon="6.78531">
        <ele>3046.07</ele>
        <time>2010-08-04T05:31:09Z</time>
      </trkpt>
      <trkpt lat="45.36896" lon="6.78531">
        <ele>3049.44</ele>
        <time>2010-08-04T05:31:10Z</time>
      </trkpt>
      <trkpt lat="45.36895" lon="6.78531">
        <ele>3048.96</ele>
        <time>2010-08-04T05:31:11Z</time>
      </trkpt>
      <trkpt lat="45.36894" lon="6.78529">
        <ele>3048</ele>
        <time>2010-08-04T05:31:13Z</time>
      </trkpt>
      <trkpt lat="45.36887" lon="6.78521">
        <ele>3046.56</ele>
        <time>2010-08-04T05:31:25Z</time>
      </trkpt>
      <trkpt lat="45.36886" lon="6.78519">
        <ele>3047.04</ele>
        <time>2010-08-04T05:31:27Z</time>
      </trkpt>
      <trkpt lat="45.36885" lon="6.78517">
        <ele>3049.92</ele>
        <time>2010-08-04T05:31:30Z</time>
      </trkpt>
      <trkpt lat="45.36881" lon="6.78515">
        <ele>3046.07</ele>
        <time>2010-08-04T05:31:36Z</time>
      </trkpt>
      <trkpt lat="45.3688" lon="6.78515">
        <ele>3049.92</ele>
        <time>2010-08-04T05:31:37Z</time>
      </trkpt>
      <trkpt lat="45.36877" lon="6.78513">
        <ele>3041.75</ele>
        <time>2010-08-04T05:31:41Z</time>
      </trkpt>
      <trkpt lat="45.36876" lon="6.78513">
        <ele>3047.52</ele>
        <time>2010-08-04T05:31:42Z</time>
      </trkpt>
      <trkpt lat="45.36876" lon="6.78513">
        <ele>3048.96</ele>
        <time>2010-08-04T05:31:45Z</time>
      </trkpt>
      <trkpt lat="45.36876" lon="6.78512">
        <ele>3053.28</ele>
        <time>2010-08-04T05:31:52Z</time>
      </trkpt>
      <trkpt lat="45.36876" lon="6.78512">
        <ele>3048.48</ele>
        <time>2010-08-04T05:31:53Z</time>
      </trkpt>
      <trkpt lat="45.36874" lon="6.78512">
        <ele>3044.15</ele>
        <time>2010-08-04T05:32:01Z</time>
      </trkpt>
      <trkpt lat="45.36874" lon="6.78511">
        <ele>3050.4</ele>
        <time>2010-08-04T05:32:02Z</time>
      </trkpt>
      <trkpt lat="45.36872" lon="6.7851">
        <ele>3046.07</ele>
        <time>2010-08-04T05:32:04Z</time>
      </trkpt>
      <trkpt lat="45.36871" lon="6.78509">
        <ele>3050.88</ele>
        <time>2010-08-04T05:32:06Z</time>
      </trkpt>
      <trkpt lat="45.36869" lon="6.78505">
        <ele>3048.48</ele>
        <time>2010-08-04T05:32:10Z</time>
      </trkpt>
      <trkpt lat="45.36867" lon="6.78502">
        <ele>3047.04</ele>
        <time>2010-08-04T05:32:14Z</time>
      </trkpt>
      <trkpt lat="45.36866" lon="6.78501">
        <ele>3049.44</ele>
        <time>2010-08-04T05:32:17Z</time>
      </trkpt>
      <trkpt lat="45.36864" lon="6.78497">
        <ele>3052.8</ele>
        <time>2010-08-04T05:32:23Z</time>
      </trkpt>
      <trkpt lat="45.36864" lon="6.78496">
        <ele>3049.44</ele>
        <time>2010-08-04T05:32:24Z</time>
      </trkpt>
      <trkpt lat="45.36863" lon="6.78495">
        <ele>3052.8</ele>
        <time>2010-08-04T05:32:25Z</time>
      </trkpt>
      <trkpt lat="45.36862" lon="6.78494">
        <ele>3048.96</ele>
        <time>2010-08-04T05:32:27Z</time>
      </trkpt>
      <trkpt lat="45.36861" lon="6.78491">
        <ele>3048.48</ele>
        <time>2010-08-04T05:32:31Z</time>
      </trkpt>
      <trkpt lat="45.36858" lon="6.78488">
        <ele>3051.84</ele>
        <time>2010-08-04T05:32:35Z</time>
      </trkpt>
      <trkpt lat="45.36856" lon="6.78487">
        <ele>3049.92</ele>
        <time>2010-08-04T05:32:38Z</time>
      </trkpt>
      <trkpt lat="45.36854" lon="6.78486">
        <ele>3052.8</ele>
        <time>2010-08-04T05:32:40Z</time>
      </trkpt>
      <trkpt lat="45.36854" lon="6.78486">
        <ele>3049.92</ele>
        <time>2010-08-04T05:32:41Z</time>
      </trkpt>
      <trkpt lat="45.36847" lon="6.7848">
        <ele>3052.32</ele>
        <time>2010-08-04T05:32:51Z</time>
      </trkpt>
      <trkpt lat="45.36846" lon="6.78478">
        <ele>3048.48</ele>
        <time>2010-08-04T05:32:54Z</time>
      </trkpt>
      <trkpt lat="45.36844" lon="6.78474">
        <ele>3052.32</ele>
        <time>2010-08-04T05:32:58Z</time>
      </trkpt>
      <trkpt lat="45.36842" lon="6.78472">
        <ele>3048.96</ele>
        <time>2010-08-04T05:33:01Z</time>
      </trkpt>
      <trkpt lat="45.36841" lon="6.78472">
        <ele>3054.25</ele>
        <time>2010-08-04T05:33:02Z</time>
      </trkpt>
      <trkpt lat="45.3684" lon="6.78471">
        <ele>3050.88</ele>
        <time>2010-08-04T05:33:03Z</time>
      </trkpt>
      <trkpt lat="45.36838" lon="6.78468">
        <ele>3053.77</ele>
        <time>2010-08-04T05:33:07Z</time>
      </trkpt>
      <trkpt lat="45.36837" lon="6.78467">
        <ele>3048.48</ele>
        <time>2010-08-04T05:33:08Z</time>
      </trkpt>
      <trkpt lat="45.36837" lon="6.78466">
        <ele>3054.73</ele>
        <time>2010-08-04T05:33:09Z</time>
      </trkpt>
      <trkpt lat="45.36837" lon="6.78466">
        <ele>3050.4</ele>
        <time>2010-08-04T05:33:10Z</time>
      </trkpt>
      <trkpt lat="45.36835" lon="6.78462">
        <ele>3051.36</ele>
        <time>2010-08-04T05:33:14Z</time>
      </trkpt>
      <trkpt lat="45.36833" lon="6.7846">
        <ele>3054.73</ele>
        <time>2010-08-04T05:33:18Z</time>
      </trkpt>
      <trkpt lat="45.36832" lon="6.78459">
        <ele>3050.88</ele>
        <time>2010-08-04T05:33:19Z</time>
      </trkpt>
      <trkpt lat="45.36831" lon="6.78458">
        <ele>3054.25</ele>
        <time>2010-08-04T05:33:20Z</time>
      </trkpt>
      <trkpt lat="45.36829" lon="6.78455">
        <ele>3050.88</ele>
        <time>2010-08-04T05:33:23Z</time>
      </trkpt>
      <trkpt lat="45.36827" lon="6.78455">
        <ele>3054.73</ele>
        <time>2010-08-04T05:33:25Z</time>
      </trkpt>
      <trkpt lat="45.36825" lon="6.78453">
        <ele>3052.8</ele>
        <time>2010-08-04T05:33:28Z</time>
      </trkpt>
      <trkpt lat="45.36824" lon="6.78451">
        <ele>3050.4</ele>
        <time>2010-08-04T05:33:30Z</time>
      </trkpt>
      <trkpt lat="45.36824" lon="6.78451">
        <ele>3051.36</ele>
        <time>2010-08-04T05:33:31Z</time>
      </trkpt>
      <trkpt lat="45.36823" lon="6.7845">
        <ele>3054.25</ele>
        <time>2010-08-04T05:33:32Z</time>
      </trkpt>
      <trkpt lat="45.36822" lon="6.78449">
        <ele>3050.4</ele>
        <time>2010-08-04T05:33:33Z</time>
      </trkpt>
      <trkpt lat="45.36822" lon="6.78447">
        <ele>3051.36</ele>
        <time>2010-08-04T05:33:35Z</time>
      </trkpt>
      <trkpt lat="45.36819" lon="6.78438">
        <ele>3055.21</ele>
        <time>2010-08-04T05:33:44Z</time>
      </trkpt>
      <trkpt lat="45.36818" lon="6.78437">
        <ele>3053.28</ele>
        <time>2010-08-04T05:33:45Z</time>
      </trkpt>
      <trkpt lat="45.36815" lon="6.78434">
        <ele>3052.8</ele>
        <time>2010-08-04T05:33:50Z</time>
      </trkpt>
      <trkpt lat="45.36814" lon="6.78432">
        <ele>3055.21</ele>
        <time>2010-08-04T05:33:52Z</time>
      </trkpt>
      <trkpt lat="45.3681" lon="6.78424">
        <ele>3057.61</ele>
        <time>2010-08-04T05:34:01Z</time>
      </trkpt>
      <trkpt lat="45.36809" lon="6.78424">
        <ele>3055.21</ele>
        <time>2010-08-04T05:34:02Z</time>
      </trkpt>
      <trkpt lat="45.36807" lon="6.78422">
        <ele>3050.4</ele>
        <time>2010-08-04T05:34:05Z</time>
      </trkpt>
      <trkpt lat="45.36807" lon="6.78421">
        <ele>3054.73</ele>
        <time>2010-08-04T05:34:07Z</time>
      </trkpt>
      <trkpt lat="45.36803" lon="6.78412">
        <ele>3053.28</ele>
        <time>2010-08-04T05:34:16Z</time>
      </trkpt>
      <trkpt lat="45.36802" lon="6.7841">
        <ele>3056.17</ele>
        <time>2010-08-04T05:34:18Z</time>
      </trkpt>
      <trkpt lat="45.36801" lon="6.78409">
        <ele>3052.8</ele>
        <time>2010-08-04T05:34:19Z</time>
      </trkpt>
      <trkpt lat="45.36798" lon="6.78405">
        <ele>3057.13</ele>
        <time>2010-08-04T05:34:24Z</time>
      </trkpt>
      <trkpt lat="45.36798" lon="6.78405">
        <ele>3055.21</ele>
        <time>2010-08-04T05:34:25Z</time>
      </trkpt>
      <trkpt lat="45.36795" lon="6.78402">
        <ele>3058.09</ele>
        <time>2010-08-04T05:34:28Z</time>
      </trkpt>
      <trkpt lat="45.36794" lon="6.78402">
        <ele>3052.32</ele>
        <time>2010-08-04T05:34:29Z</time>
      </trkpt>
      <trkpt lat="45.36793" lon="6.78399">
        <ele>3055.69</ele>
        <time>2010-08-04T05:34:32Z</time>
      </trkpt>
      <trkpt lat="45.36791" lon="6.78397">
        <ele>3053.28</ele>
        <time>2010-08-04T05:34:36Z</time>
      </trkpt>
      <trkpt lat="45.3679" lon="6.78396">
        <ele>3057.61</ele>
        <time>2010-08-04T05:34:37Z</time>
      </trkpt>
      <trkpt lat="45.36787" lon="6.78391">
        <ele>3056.17</ele>
        <time>2010-08-04T05:34:43Z</time>
      </trkpt>
      <trkpt lat="45.36783" lon="6.78383">
        <ele>3058.09</ele>
        <time>2010-08-04T05:34:52Z</time>
      </trkpt>
      <trkpt lat="45.36779" lon="6.78376">
        <ele>3056.65</ele>
        <time>2010-08-04T05:35:00Z</time>
      </trkpt>
      <trkpt lat="45.36778" lon="6.78375">
        <ele>3058.09</ele>
        <time>2010-08-04T05:35:02Z</time>
      </trkpt>
      <trkpt lat="45.36777" lon="6.78372">
        <ele>3059.05</ele>
        <time>2010-08-04T05:35:05Z</time>
      </trkpt>
      <trkpt lat="45.36776" lon="6.78369">
        <ele>3057.13</ele>
        <time>2010-08-04T05:35:08Z</time>
      </trkpt>
      <trkpt lat="45.36772" lon="6.7836">
        <ele>3056.17</ele>
        <time>2010-08-04T05:35:17Z</time>
      </trkpt>
      <trkpt lat="45.36772" lon="6.78359">
        <ele>3059.05</ele>
        <time>2010-08-04T05:35:20Z</time>
      </trkpt>
      <trkpt lat="45.3677" lon="6.78357">
        <ele>3058.57</ele>
        <time>2010-08-04T05:35:22Z</time>
      </trkpt>
      <trkpt lat="45.36769" lon="6.78355">
        <ele>3058.57</ele>
        <time>2010-08-04T05:35:24Z</time>
      </trkpt>
      <trkpt lat="45.36769" lon="6.78353">
        <ele>3062.42</ele>
        <time>2010-08-04T05:35:26Z</time>
      </trkpt>
      <trkpt lat="45.36768" lon="6.78352">
        <ele>3059.53</ele>
        <time>2010-08-04T05:35:27Z</time>
      </trkpt>
      <trkpt lat="45.36768" lon="6.78351">
        <ele>3062.9</ele>
        <time>2010-08-04T05:35:29Z</time>
      </trkpt>
      <trkpt lat="45.36766" lon="6.78347">
        <ele>3058.09</ele>
        <time>2010-08-04T05:35:33Z</time>
      </trkpt>
      <trkpt lat="45.36764" lon="6.78344">
        <ele>3061.46</ele>
        <time>2010-08-04T05:35:37Z</time>
      </trkpt>
      <trkpt lat="45.36761" lon="6.78341">
        <ele>3062.9</ele>
        <time>2010-08-04T05:35:41Z</time>
      </trkpt>
      <trkpt lat="45.36755" lon="6.78332">
        <ele>3065.3</ele>
        <time>2010-08-04T05:35:52Z</time>
      </trkpt>
      <trkpt lat="45.36755" lon="6.78331">
        <ele>3059.53</ele>
        <time>2010-08-04T05:35:53Z</time>
      </trkpt>
      <trkpt lat="45.36754" lon="6.78331">
        <ele>3062.42</ele>
        <time>2010-08-04T05:35:54Z</time>
      </trkpt>
      <trkpt lat="45.3675" lon="6.78325">
        <ele>3065.78</ele>
        <time>2010-08-04T05:36:02Z</time>
      </trkpt>
      <trkpt lat="45.36749" lon="6.78324">
        <ele>3061.94</ele>
        <time>2010-08-04T05:36:03Z</time>
      </trkpt>
      <trkpt lat="45.36748" lon="6.78323">
        <ele>3064.82</ele>
        <time>2010-08-04T05:36:04Z</time>
      </trkpt>
      <trkpt lat="45.36743" lon="6.78316">
        <ele>3063.38</ele>
        <time>2010-08-04T05:36:14Z</time>
      </trkpt>
      <trkpt lat="45.36743" lon="6.78314">
        <ele>3063.38</ele>
        <time>2010-08-04T05:36:16Z</time>
      </trkpt>
      <trkpt lat="45.36741" lon="6.78312">
        <ele>3065.3</ele>
        <time>2010-08-04T05:36:19Z</time>
      </trkpt>
      <trkpt lat="45.36739" lon="6.78308">
        <ele>3067.7</ele>
        <time>2010-08-04T05:36:24Z</time>
      </trkpt>
      <trkpt lat="45.36738" lon="6.78307">
        <ele>3061.94</ele>
        <time>2010-08-04T05:36:25Z</time>
      </trkpt>
      <trkpt lat="45.36738" lon="6.78306">
        <ele>3065.78</ele>
        <time>2010-08-04T05:36:26Z</time>
      </trkpt>
      <trkpt lat="45.36737" lon="6.78304">
        <ele>3062.9</ele>
        <time>2010-08-04T05:36:28Z</time>
      </trkpt>
      <trkpt lat="45.36735" lon="6.78303">
        <ele>3065.78</ele>
        <time>2010-08-04T05:36:31Z</time>
      </trkpt>
      <trkpt lat="45.36734" lon="6.78301">
        <ele>3069.63</ele>
        <time>2010-08-04T05:36:33Z</time>
      </trkpt>
      <trkpt lat="45.36732" lon="6.783">
        <ele>3064.82</ele>
        <time>2010-08-04T05:36:35Z</time>
      </trkpt>
      <trkpt lat="45.36731" lon="6.78299">
        <ele>3068.19</ele>
        <time>2010-08-04T05:36:36Z</time>
      </trkpt>
      <trkpt lat="45.36728" lon="6.78297">
        <ele>3063.86</ele>
        <time>2010-08-04T05:36:41Z</time>
      </trkpt>
      <trkpt lat="45.36728" lon="6.78296">
        <ele>3069.15</ele>
        <time>2010-08-04T05:36:42Z</time>
      </trkpt>
      <trkpt lat="45.36727" lon="6.78295">
        <ele>3065.3</ele>
        <time>2010-08-04T05:36:43Z</time>
      </trkpt>
      <trkpt lat="45.36727" lon="6.78294">
        <ele>3072.03</ele>
        <time>2010-08-04T05:36:44Z</time>
      </trkpt>
      <trkpt lat="45.36726" lon="6.78293">
        <ele>3064.82</ele>
        <time>2010-08-04T05:36:45Z</time>
      </trkpt>
      <trkpt lat="45.36725" lon="6.78292">
        <ele>3067.7</ele>
        <time>2010-08-04T05:36:47Z</time>
      </trkpt>
      <trkpt lat="45.3672" lon="6.78283">
        <ele>3065.78</ele>
        <time>2010-08-04T05:36:57Z</time>
      </trkpt>
      <trkpt lat="45.3672" lon="6.78283">
        <ele>3069.63</ele>
        <time>2010-08-04T05:36:58Z</time>
      </trkpt>
      <trkpt lat="45.36719" lon="6.78281">
        <ele>3072.99</ele>
        <time>2010-08-04T05:37:00Z</time>
      </trkpt>
      <trkpt lat="45.36719" lon="6.78278">
        <ele>3069.15</ele>
        <time>2010-08-04T05:37:02Z</time>
      </trkpt>
      <trkpt lat="45.36718" lon="6.78273">
        <ele>3068.67</ele>
        <time>2010-08-04T05:37:06Z</time>
      </trkpt>
      <trkpt lat="45.36716" lon="6.78269">
        <ele>3072.51</ele>
        <time>2010-08-04T05:37:11Z</time>
      </trkpt>
      <trkpt lat="45.36715" lon="6.78268">
        <ele>3069.15</ele>
        <time>2010-08-04T05:37:12Z</time>
      </trkpt>
      <trkpt lat="45.36712" lon="6.78263">
        <ele>3074.43</ele>
        <time>2010-08-04T05:37:18Z</time>
      </trkpt>
      <trkpt lat="45.36712" lon="6.78263">
        <ele>3069.63</ele>
        <time>2010-08-04T05:37:19Z</time>
      </trkpt>
      <trkpt lat="45.3671" lon="6.78259">
        <ele>3072.99</ele>
        <time>2010-08-04T05:37:23Z</time>
      </trkpt>
      <trkpt lat="45.3671" lon="6.78259">
        <ele>3071.07</ele>
        <time>2010-08-04T05:37:24Z</time>
      </trkpt>
      <trkpt lat="45.36706" lon="6.78255">
        <ele>3072.03</ele>
        <time>2010-08-04T05:37:36Z</time>
      </trkpt>
      <trkpt lat="45.36705" lon="6.78254">
        <ele>3068.19</ele>
        <time>2010-08-04T05:38:01Z</time>
      </trkpt>
      <trkpt lat="45.36705" lon="6.78254">
        <ele>3068.19</ele>
        <time>2010-08-04T05:38:02Z</time>
      </trkpt>
      <trkpt lat="45.36705" lon="6.78254">
        <ele>3071.55</ele>
        <time>2010-08-04T05:38:03Z</time>
      </trkpt>
      <trkpt lat="45.36705" lon="6.78254">
        <ele>3072.51</ele>
        <time>2010-08-04T05:38:05Z</time>
      </trkpt>
      <trkpt lat="45.36704" lon="6.78253">
        <ele>3070.59</ele>
        <time>2010-08-04T05:38:22Z</time>
      </trkpt>
      <trkpt lat="45.36702" lon="6.78252">
        <ele>3074.43</ele>
        <time>2010-08-04T05:38:24Z</time>
      </trkpt>
      <trkpt lat="45.36702" lon="6.78252">
        <ele>3071.07</ele>
        <time>2010-08-04T05:38:25Z</time>
      </trkpt>
      <trkpt lat="45.367" lon="6.78251">
        <ele>3070.59</ele>
        <time>2010-08-04T05:38:27Z</time>
      </trkpt>
      <trkpt lat="45.36699" lon="6.78249">
        <ele>3073.95</ele>
        <time>2010-08-04T05:38:29Z</time>
      </trkpt>
      <trkpt lat="45.36697" lon="6.78248">
        <ele>3071.07</ele>
        <time>2010-08-04T05:38:31Z</time>
      </trkpt>
      <trkpt lat="45.36696" lon="6.78247">
        <ele>3071.55</ele>
        <time>2010-08-04T05:38:32Z</time>
      </trkpt>
      <trkpt lat="45.36695" lon="6.78245">
        <ele>3072.99</ele>
        <time>2010-08-04T05:38:34Z</time>
      </trkpt>
      <trkpt lat="45.36694" lon="6.78244">
        <ele>3075.88</ele>
        <time>2010-08-04T05:38:36Z</time>
      </trkpt>
      <trkpt lat="45.36693" lon="6.78243">
        <ele>3074.91</ele>
        <time>2010-08-04T05:38:38Z</time>
      </trkpt>
      <trkpt lat="45.36689" lon="6.78238">
        <ele>3075.88</ele>
        <time>2010-08-04T05:38:44Z</time>
      </trkpt>
      <trkpt lat="45.36683" lon="6.78229">
        <ele>3078.28</ele>
        <time>2010-08-04T05:38:54Z</time>
      </trkpt>
      <trkpt lat="45.36683" lon="6.78228">
        <ele>3073.47</ele>
        <time>2010-08-04T05:38:55Z</time>
      </trkpt>
      <trkpt lat="45.3668" lon="6.78224">
        <ele>3076.84</ele>
        <time>2010-08-04T05:39:00Z</time>
      </trkpt>
      <trkpt lat="45.36676" lon="6.78214">
        <ele>3076.84</ele>
        <time>2010-08-04T05:39:10Z</time>
      </trkpt>
      <trkpt lat="45.36673" lon="6.78207">
        <ele>3076.84</ele>
        <time>2010-08-04T05:39:18Z</time>
      </trkpt>
      <trkpt lat="45.36671" lon="6.78202">
        <ele>3080.2</ele>
        <time>2010-08-04T05:39:23Z</time>
      </trkpt>
      <trkpt lat="45.36669" lon="6.78201">
        <ele>3076.84</ele>
        <time>2010-08-04T05:39:25Z</time>
      </trkpt>
      <trkpt lat="45.36668" lon="6.782">
        <ele>3080.68</ele>
        <time>2010-08-04T05:39:26Z</time>
      </trkpt>
      <trkpt lat="45.36668" lon="6.782">
        <ele>3077.8</ele>
        <time>2010-08-04T05:39:27Z</time>
      </trkpt>
      <trkpt lat="45.36666" lon="6.78198">
        <ele>3077.32</ele>
        <time>2010-08-04T05:39:30Z</time>
      </trkpt>
      <trkpt lat="45.36665" lon="6.78196">
        <ele>3076.36</ele>
        <time>2010-08-04T05:39:32Z</time>
      </trkpt>
      <trkpt lat="45.36664" lon="6.78195">
        <ele>3082.6</ele>
        <time>2010-08-04T05:39:33Z</time>
      </trkpt>
      <trkpt lat="45.36664" lon="6.78195">
        <ele>3077.8</ele>
        <time>2010-08-04T05:39:34Z</time>
      </trkpt>
      <trkpt lat="45.36663" lon="6.78194">
        <ele>3074.91</ele>
        <time>2010-08-04T05:39:36Z</time>
      </trkpt>
      <trkpt lat="45.36662" lon="6.78193">
        <ele>3080.2</ele>
        <time>2010-08-04T05:39:38Z</time>
      </trkpt>
      <trkpt lat="45.36661" lon="6.78192">
        <ele>3078.28</ele>
        <time>2010-08-04T05:39:39Z</time>
      </trkpt>
      <trkpt lat="45.36661" lon="6.78191">
        <ele>3082.12</ele>
        <time>2010-08-04T05:39:40Z</time>
      </trkpt>
      <trkpt lat="45.3666" lon="6.7819">
        <ele>3078.28</ele>
        <time>2010-08-04T05:39:41Z</time>
      </trkpt>
      <trkpt lat="45.36658" lon="6.78184">
        <ele>3077.8</ele>
        <time>2010-08-04T05:39:48Z</time>
      </trkpt>
      <trkpt lat="45.36655" lon="6.78179">
        <ele>3081.64</ele>
        <time>2010-08-04T05:39:54Z</time>
      </trkpt>
      <trkpt lat="45.36654" lon="6.78177">
        <ele>3080.68</ele>
        <time>2010-08-04T05:39:57Z</time>
      </trkpt>
      <trkpt lat="45.3665" lon="6.78172">
        <ele>3080.2</ele>
        <time>2010-08-04T05:40:02Z</time>
      </trkpt>
      <trkpt lat="45.36645" lon="6.78161">
        <ele>3079.72</ele>
        <time>2010-08-04T05:40:14Z</time>
      </trkpt>
      <trkpt lat="45.36644" lon="6.7816">
        <ele>3085.01</ele>
        <time>2010-08-04T05:40:15Z</time>
      </trkpt>
      <trkpt lat="45.36644" lon="6.78159">
        <ele>3081.16</ele>
        <time>2010-08-04T05:40:16Z</time>
      </trkpt>
      <trkpt lat="45.36642" lon="6.78155">
        <ele>3085.01</ele>
        <time>2010-08-04T05:40:20Z</time>
      </trkpt>
      <trkpt lat="45.36641" lon="6.78154">
        <ele>3080.2</ele>
        <time>2010-08-04T05:40:21Z</time>
      </trkpt>
      <trkpt lat="45.3664" lon="6.78148">
        <ele>3086.93</ele>
        <time>2010-08-04T05:40:26Z</time>
      </trkpt>
      <trkpt lat="45.36639" lon="6.78147">
        <ele>3081.16</ele>
        <time>2010-08-04T05:40:27Z</time>
      </trkpt>
      <trkpt lat="45.36639" lon="6.78146">
        <ele>3085.01</ele>
        <time>2010-08-04T05:40:28Z</time>
      </trkpt>
      <trkpt lat="45.36638" lon="6.78145">
        <ele>3079.72</ele>
        <time>2010-08-04T05:40:29Z</time>
      </trkpt>
      <trkpt lat="45.36636" lon="6.78142">
        <ele>3083.09</ele>
        <time>2010-08-04T05:40:33Z</time>
      </trkpt>
      <trkpt lat="45.36632" lon="6.78133">
        <ele>3084.53</ele>
        <time>2010-08-04T05:40:42Z</time>
      </trkpt>
      <trkpt lat="45.36626" lon="6.78124">
        <ele>3083.57</ele>
        <time>2010-08-04T05:40:54Z</time>
      </trkpt>
      <trkpt lat="45.36624" lon="6.78121">
        <ele>3087.41</ele>
        <time>2010-08-04T05:40:58Z</time>
      </trkpt>
      <trkpt lat="45.36623" lon="6.7812">
        <ele>3084.05</ele>
        <time>2010-08-04T05:40:59Z</time>
      </trkpt>
      <trkpt lat="45.3662" lon="6.78115">
        <ele>3089.33</ele>
        <time>2010-08-04T05:41:04Z</time>
      </trkpt>
      <trkpt lat="45.3662" lon="6.78114">
        <ele>3086.93</ele>
        <time>2010-08-04T05:41:05Z</time>
      </trkpt>
      <trkpt lat="45.36619" lon="6.78113">
        <ele>3082.12</ele>
        <time>2010-08-04T05:41:06Z</time>
      </trkpt>
      <trkpt lat="45.36618" lon="6.78113">
        <ele>3087.41</ele>
        <time>2010-08-04T05:41:07Z</time>
      </trkpt>
      <trkpt lat="45.36616" lon="6.78108">
        <ele>3086.45</ele>
        <time>2010-08-04T05:41:12Z</time>
      </trkpt>
      <trkpt lat="45.36615" lon="6.78107">
        <ele>3086.93</ele>
        <time>2010-08-04T05:41:14Z</time>
      </trkpt>
      <trkpt lat="45.36614" lon="6.78105">
        <ele>3087.89</ele>
        <time>2010-08-04T05:41:16Z</time>
      </trkpt>
      <trkpt lat="45.36613" lon="6.78103">
        <ele>3085.97</ele>
        <time>2010-08-04T05:41:18Z</time>
      </trkpt>
      <trkpt lat="45.36608" lon="6.78101">
        <ele>3085.01</ele>
        <time>2010-08-04T05:41:26Z</time>
      </trkpt>
      <trkpt lat="45.36607" lon="6.78101">
        <ele>3088.85</ele>
        <time>2010-08-04T05:41:27Z</time>
      </trkpt>
      <trkpt lat="45.36606" lon="6.781">
        <ele>3085.97</ele>
        <time>2010-08-04T05:41:28Z</time>
      </trkpt>
      <trkpt lat="45.36605" lon="6.78098">
        <ele>3089.33</ele>
        <time>2010-08-04T05:41:33Z</time>
      </trkpt>
      <trkpt lat="45.36604" lon="6.78098">
        <ele>3088.37</ele>
        <time>2010-08-04T05:41:34Z</time>
      </trkpt>
      <trkpt lat="45.36598" lon="6.78088">
        <ele>3087.89</ele>
        <time>2010-08-04T05:41:45Z</time>
      </trkpt>
      <trkpt lat="45.36594" lon="6.78082">
        <ele>3086.45</ele>
        <time>2010-08-04T05:41:53Z</time>
      </trkpt>
      <trkpt lat="45.36593" lon="6.7808">
        <ele>3082.6</ele>
        <time>2010-08-04T05:41:55Z</time>
      </trkpt>
      <trkpt lat="45.36592" lon="6.7808">
        <ele>3094.14</ele>
        <time>2010-08-04T05:41:56Z</time>
      </trkpt>
      <trkpt lat="45.36592" lon="6.78079">
        <ele>3088.37</ele>
        <time>2010-08-04T05:41:57Z</time>
      </trkpt>
      <trkpt lat="45.3659" lon="6.78076">
        <ele>3088.85</ele>
        <time>2010-08-04T05:42:00Z</time>
      </trkpt>
      <trkpt lat="45.36587" lon="6.78072">
        <ele>3090.29</ele>
        <time>2010-08-04T05:42:05Z</time>
      </trkpt>
      <trkpt lat="45.36581" lon="6.78067">
        <ele>3086.93</ele>
        <time>2010-08-04T05:42:15Z</time>
      </trkpt>
      <trkpt lat="45.3658" lon="6.78066">
        <ele>3089.81</ele>
        <time>2010-08-04T05:42:17Z</time>
      </trkpt>
      <trkpt lat="45.36578" lon="6.78064">
        <ele>3091.26</ele>
        <time>2010-08-04T05:42:20Z</time>
      </trkpt>
      <trkpt lat="45.36574" lon="6.7806">
        <ele>3094.62</ele>
        <time>2010-08-04T05:42:25Z</time>
      </trkpt>
      <trkpt lat="45.36574" lon="6.78059">
        <ele>3088.85</ele>
        <time>2010-08-04T05:42:26Z</time>
      </trkpt>
      <trkpt lat="45.36569" lon="6.78053">
        <ele>3092.22</ele>
        <time>2010-08-04T05:42:33Z</time>
      </trkpt>
      <trkpt lat="45.36569" lon="6.78052">
        <ele>3088.85</ele>
        <time>2010-08-04T05:42:34Z</time>
      </trkpt>
      <trkpt lat="45.36567" lon="6.78048">
        <ele>3092.22</ele>
        <time>2010-08-04T05:42:38Z</time>
      </trkpt>
      <trkpt lat="45.36564" lon="6.78044">
        <ele>3091.26</ele>
        <time>2010-08-04T05:42:43Z</time>
      </trkpt>
      <trkpt lat="45.36563" lon="6.78041">
        <ele>3089.81</ele>
        <time>2010-08-04T05:42:46Z</time>
      </trkpt>
      <trkpt lat="45.36562" lon="6.7804">
        <ele>3090.29</ele>
        <time>2010-08-04T05:42:47Z</time>
      </trkpt>
      <trkpt lat="45.36561" lon="6.78038">
        <ele>3089.33</ele>
        <time>2010-08-04T05:42:49Z</time>
      </trkpt>
      <trkpt lat="45.36558" lon="6.78031">
        <ele>3093.18</ele>
        <time>2010-08-04T05:42:56Z</time>
      </trkpt>
      <trkpt lat="45.36556" lon="6.78029">
        <ele>3091.26</ele>
        <time>2010-08-04T05:42:59Z</time>
      </trkpt>
      <trkpt lat="45.36553" lon="6.78027">
        <ele>3092.7</ele>
        <time>2010-08-04T05:43:03Z</time>
      </trkpt>
      <trkpt lat="45.36549" lon="6.78024">
        <ele>3092.22</ele>
        <time>2010-08-04T05:43:07Z</time>
      </trkpt>
      <trkpt lat="45.36548" lon="6.78022">
        <ele>3093.66</ele>
        <time>2010-08-04T05:43:09Z</time>
      </trkpt>
      <trkpt lat="45.36543" lon="6.78014">
        <ele>3095.1</ele>
        <time>2010-08-04T05:43:19Z</time>
      </trkpt>
      <trkpt lat="45.36542" lon="6.78013">
        <ele>3092.7</ele>
        <time>2010-08-04T05:43:20Z</time>
      </trkpt>
      <trkpt lat="45.36541" lon="6.78012">
        <ele>3094.14</ele>
        <time>2010-08-04T05:43:22Z</time>
      </trkpt>
      <trkpt lat="45.36538" lon="6.78008">
        <ele>3094.14</ele>
        <time>2010-08-04T05:43:26Z</time>
      </trkpt>
      <trkpt lat="45.36537" lon="6.78005">
        <ele>3092.22</ele>
        <time>2010-08-04T05:43:28Z</time>
      </trkpt>
      <trkpt lat="45.36533" lon="6.78">
        <ele>3093.66</ele>
        <time>2010-08-04T05:43:34Z</time>
      </trkpt>
      <trkpt lat="45.36533" lon="6.77998">
        <ele>3097.99</ele>
        <time>2010-08-04T05:43:36Z</time>
      </trkpt>
      <trkpt lat="45.36532" lon="6.77997">
        <ele>3096.06</ele>
        <time>2010-08-04T05:43:37Z</time>
      </trkpt>
      <trkpt lat="45.36531" lon="6.77996">
        <ele>3093.18</ele>
        <time>2010-08-04T05:43:39Z</time>
      </trkpt>
      <trkpt lat="45.36526" lon="6.77986">
        <ele>3093.18</ele>
        <time>2010-08-04T05:43:49Z</time>
      </trkpt>
      <trkpt lat="45.36521" lon="6.7798">
        <ele>3095.1</ele>
        <time>2010-08-04T05:43:56Z</time>
      </trkpt>
      <trkpt lat="45.36515" lon="6.77973">
        <ele>3094.62</ele>
        <time>2010-08-04T05:44:05Z</time>
      </trkpt>
      <trkpt lat="45.3651" lon="6.77964">
        <ele>3093.66</ele>
        <time>2010-08-04T05:44:14Z</time>
      </trkpt>
      <trkpt lat="45.36502" lon="6.77954">
        <ele>3097.51</ele>
        <time>2010-08-04T05:44:26Z</time>
      </trkpt>
      <trkpt lat="45.36502" lon="6.77953">
        <ele>3097.99</ele>
        <time>2010-08-04T05:44:27Z</time>
      </trkpt>
      <trkpt lat="45.365" lon="6.77951">
        <ele>3094.62</ele>
        <time>2010-08-04T05:44:30Z</time>
      </trkpt>
      <trkpt lat="45.36499" lon="6.77947">
        <ele>3099.91</ele>
        <time>2010-08-04T05:44:34Z</time>
      </trkpt>
      <trkpt lat="45.36498" lon="6.77946">
        <ele>3096.54</ele>
        <time>2010-08-04T05:44:36Z</time>
      </trkpt>
      <trkpt lat="45.36497" lon="6.77945">
        <ele>3096.06</ele>
        <time>2010-08-04T05:44:37Z</time>
      </trkpt>
      <trkpt lat="45.36493" lon="6.77937">
        <ele>3097.51</ele>
        <time>2010-08-04T05:44:46Z</time>
      </trkpt>
      <trkpt lat="45.36491" lon="6.77933">
        <ele>3096.06</ele>
        <time>2010-08-04T05:44:51Z</time>
      </trkpt>
      <trkpt lat="45.3649" lon="6.77931">
        <ele>3099.43</ele>
        <time>2010-08-04T05:44:53Z</time>
      </trkpt>
      <trkpt lat="45.36488" lon="6.77929">
        <ele>3095.58</ele>
        <time>2010-08-04T05:44:55Z</time>
      </trkpt>
      <trkpt lat="45.36486" lon="6.77927">
        <ele>3098.95</ele>
        <time>2010-08-04T05:44:58Z</time>
      </trkpt>
      <trkpt lat="45.36486" lon="6.77927">
        <ele>3098.95</ele>
        <time>2010-08-04T05:44:59Z</time>
      </trkpt>
      <trkpt lat="45.36481" lon="6.77919">
        <ele>3100.39</ele>
        <time>2010-08-04T05:45:08Z</time>
      </trkpt>
      <trkpt lat="45.3648" lon="6.77917">
        <ele>3097.51</ele>
        <time>2010-08-04T05:45:10Z</time>
      </trkpt>
      <trkpt lat="45.36476" lon="6.77913">
        <ele>3098.47</ele>
        <time>2010-08-04T05:45:15Z</time>
      </trkpt>
      <trkpt lat="45.36472" lon="6.77907">
        <ele>3099.43</ele>
        <time>2010-08-04T05:45:22Z</time>
      </trkpt>
      <trkpt lat="45.36469" lon="6.77901">
        <ele>3099.43</ele>
        <time>2010-08-04T05:45:28Z</time>
      </trkpt>
      <trkpt lat="45.36466" lon="6.77899">
        <ele>3100.39</ele>
        <time>2010-08-04T05:45:33Z</time>
      </trkpt>
      <trkpt lat="45.36461" lon="6.77889">
        <ele>3101.35</ele>
        <time>2010-08-04T05:45:44Z</time>
      </trkpt>
      <trkpt lat="45.36461" lon="6.77888">
        <ele>3100.87</ele>
        <time>2010-08-04T05:45:45Z</time>
      </trkpt>
      <trkpt lat="45.3646" lon="6.77886">
        <ele>3102.79</ele>
        <time>2010-08-04T05:45:47Z</time>
      </trkpt>
      <trkpt lat="45.36456" lon="6.77882">
        <ele>3101.83</ele>
        <time>2010-08-04T05:45:53Z</time>
      </trkpt>
      <trkpt lat="45.36451" lon="6.77872">
        <ele>3103.75</ele>
        <time>2010-08-04T05:46:04Z</time>
      </trkpt>
      <trkpt lat="45.3645" lon="6.77872">
        <ele>3101.83</ele>
        <time>2010-08-04T05:46:05Z</time>
      </trkpt>
      <trkpt lat="45.36444" lon="6.77862">
        <ele>3102.79</ele>
        <time>2010-08-04T05:46:17Z</time>
      </trkpt>
      <trkpt lat="45.36442" lon="6.77859">
        <ele>3104.23</ele>
        <time>2010-08-04T05:46:20Z</time>
      </trkpt>
      <trkpt lat="45.36436" lon="6.77849">
        <ele>3106.16</ele>
        <time>2010-08-04T05:46:33Z</time>
      </trkpt>
      <trkpt lat="45.36432" lon="6.77839">
        <ele>3106.64</ele>
        <time>2010-08-04T05:46:44Z</time>
      </trkpt>
      <trkpt lat="45.36428" lon="6.7783">
        <ele>3108.56</ele>
        <time>2010-08-04T05:46:54Z</time>
      </trkpt>
      <trkpt lat="45.36424" lon="6.77818">
        <ele>3109.04</ele>
        <time>2010-08-04T05:47:05Z</time>
      </trkpt>
      <trkpt lat="45.36422" lon="6.77809">
        <ele>3109.52</ele>
        <time>2010-08-04T05:47:17Z</time>
      </trkpt>
      <trkpt lat="45.36421" lon="6.77803">
        <ele>3113.37</ele>
        <time>2010-08-04T05:47:23Z</time>
      </trkpt>
      <trkpt lat="45.3642" lon="6.77803">
        <ele>3111.92</ele>
        <time>2010-08-04T05:47:24Z</time>
      </trkpt>
      <trkpt lat="45.36419" lon="6.77802">
        <ele>3109.04</ele>
        <time>2010-08-04T05:47:26Z</time>
      </trkpt>
      <trkpt lat="45.36418" lon="6.778">
        <ele>3110.48</ele>
        <time>2010-08-04T05:47:29Z</time>
      </trkpt>
      <trkpt lat="45.36416" lon="6.77791">
        <ele>3111.92</ele>
        <time>2010-08-04T05:47:39Z</time>
      </trkpt>
      <trkpt lat="45.36415" lon="6.77789">
        <ele>3113.37</ele>
        <time>2010-08-04T05:47:42Z</time>
      </trkpt>
      <trkpt lat="45.36414" lon="6.77787">
        <ele>3111.92</ele>
        <time>2010-08-04T05:47:44Z</time>
      </trkpt>
      <trkpt lat="45.36413" lon="6.77782">
        <ele>3112.89</ele>
        <time>2010-08-04T05:47:49Z</time>
      </trkpt>
      <trkpt lat="45.36411" lon="6.77778">
        <ele>3112.89</ele>
        <time>2010-08-04T05:47:54Z</time>
      </trkpt>
      <trkpt lat="45.36411" lon="6.77775">
        <ele>3112.89</ele>
        <time>2010-08-04T05:47:58Z</time>
      </trkpt>
      <trkpt lat="45.3641" lon="6.77772">
        <ele>3114.33</ele>
        <time>2010-08-04T05:48:01Z</time>
      </trkpt>
      <trkpt lat="45.36408" lon="6.77762">
        <ele>3115.77</ele>
        <time>2010-08-04T05:48:12Z</time>
      </trkpt>
      <trkpt lat="45.36407" lon="6.77758">
        <ele>3114.81</ele>
        <time>2010-08-04T05:48:16Z</time>
      </trkpt>
      <trkpt lat="45.36406" lon="6.77757">
        <ele>3116.25</ele>
        <time>2010-08-04T05:48:18Z</time>
      </trkpt>
      <trkpt lat="45.36404" lon="6.77746">
        <ele>3117.21</ele>
        <time>2010-08-04T05:48:30Z</time>
      </trkpt>
      <trkpt lat="45.36403" lon="6.77741">
        <ele>3117.21</ele>
        <time>2010-08-04T05:48:35Z</time>
      </trkpt>
      <trkpt lat="45.36402" lon="6.7773">
        <ele>3119.62</ele>
        <time>2010-08-04T05:48:44Z</time>
      </trkpt>
      <trkpt lat="45.364" lon="6.77722">
        <ele>3121.06</ele>
        <time>2010-08-04T05:48:55Z</time>
      </trkpt>
      <trkpt lat="45.36397" lon="6.77711">
        <ele>3122.02</ele>
        <time>2010-08-04T05:49:08Z</time>
      </trkpt>
      <trkpt lat="45.36393" lon="6.77701">
        <ele>3124.9</ele>
        <time>2010-08-04T05:49:20Z</time>
      </trkpt>
      <trkpt lat="45.36389" lon="6.77691">
        <ele>3125.38</ele>
        <time>2010-08-04T05:49:32Z</time>
      </trkpt>
      <trkpt lat="45.36385" lon="6.77684">
        <ele>3128.75</ele>
        <time>2010-08-04T05:49:42Z</time>
      </trkpt>
      <trkpt lat="45.36383" lon="6.77676">
        <ele>3130.19</ele>
        <time>2010-08-04T05:49:51Z</time>
      </trkpt>
      <trkpt lat="45.36381" lon="6.77664">
        <ele>3132.11</ele>
        <time>2010-08-04T05:50:03Z</time>
      </trkpt>
      <trkpt lat="45.3638" lon="6.77659">
        <ele>3132.11</ele>
        <time>2010-08-04T05:50:10Z</time>
      </trkpt>
      <trkpt lat="45.3638" lon="6.77657">
        <ele>3131.63</ele>
        <time>2010-08-04T05:50:30Z</time>
      </trkpt>
      <trkpt lat="45.3638" lon="6.77658">
        <ele>3131.15</ele>
        <time>2010-08-04T05:53:19Z</time>
      </trkpt>
      <trkpt lat="45.36379" lon="6.77658">
        <ele>3131.15</ele>
        <time>2010-08-04T05:53:40Z</time>
      </trkpt>
      <trkpt lat="45.36379" lon="6.77658">
        <ele>3132.11</ele>
        <time>2010-08-04T05:54:20Z</time>
      </trkpt>
      <trkpt lat="45.36379" lon="6.77659">
        <ele>3131.15</ele>
        <time>2010-08-04T05:55:38Z</time>
      </trkpt>
      <trkpt lat="45.36378" lon="6.77657">
        <ele>3132.11</ele>
        <time>2010-08-04T05:56:21Z</time>
      </trkpt>
      <trkpt lat="45.36377" lon="6.77646">
        <ele>3131.63</ele>
        <time>2010-08-04T05:56:33Z</time>
      </trkpt>
      <trkpt lat="45.36374" lon="6.77636">
        <ele>3130.67</ele>
        <time>2010-08-04T05:56:43Z</time>
      </trkpt>
      <trkpt lat="45.36373" lon="6.77631">
        <ele>3130.19</ele>
        <time>2010-08-04T05:56:48Z</time>
      </trkpt>
      <trkpt lat="45.36371" lon="6.77623">
        <ele>3131.15</ele>
        <time>2010-08-04T05:56:54Z</time>
      </trkpt>
      <trkpt lat="45.36368" lon="6.77616">
        <ele>3130.67</ele>
        <time>2010-08-04T05:57:04Z</time>
      </trkpt>
      <trkpt lat="45.36368" lon="6.77614">
        <ele>3130.67</ele>
        <time>2010-08-04T05:57:16Z</time>
      </trkpt>
      <trkpt lat="45.36365" lon="6.77603">
        <ele>3132.11</ele>
        <time>2010-08-04T05:57:37Z</time>
      </trkpt>
      <trkpt lat="45.36363" lon="6.77591">
        <ele>3132.11</ele>
        <time>2010-08-04T05:57:46Z</time>
      </trkpt>
      <trkpt lat="45.36363" lon="6.77588">
        <ele>3131.15</ele>
        <time>2010-08-04T05:57:48Z</time>
      </trkpt>
      <trkpt lat="45.36362" lon="6.77584">
        <ele>3132.59</ele>
        <time>2010-08-04T05:57:51Z</time>
      </trkpt>
      <trkpt lat="45.3636" lon="6.77574">
        <ele>3130.19</ele>
        <time>2010-08-04T05:57:59Z</time>
      </trkpt>
      <trkpt lat="45.3636" lon="6.77572">
        <ele>3133.55</ele>
        <time>2010-08-04T05:58:00Z</time>
      </trkpt>
      <trkpt lat="45.36358" lon="6.77568">
        <ele>3136.92</ele>
        <time>2010-08-04T05:58:04Z</time>
      </trkpt>
      <trkpt lat="45.36357" lon="6.77564">
        <ele>3133.55</ele>
        <time>2010-08-04T05:58:07Z</time>
      </trkpt>
      <trkpt lat="45.36357" lon="6.77558">
        <ele>3135.48</ele>
        <time>2010-08-04T05:58:11Z</time>
      </trkpt>
      <trkpt lat="45.36356" lon="6.77554">
        <ele>3132.59</ele>
        <time>2010-08-04T05:58:14Z</time>
      </trkpt>
      <trkpt lat="45.36355" lon="6.77546">
        <ele>3131.63</ele>
        <time>2010-08-04T05:58:20Z</time>
      </trkpt>
      <trkpt lat="45.36352" lon="6.7753">
        <ele>3133.55</ele>
        <time>2010-08-04T05:58:32Z</time>
      </trkpt>
      <trkpt lat="45.36349" lon="6.77513">
        <ele>3134.04</ele>
        <time>2010-08-04T05:58:44Z</time>
      </trkpt>
      <trkpt lat="45.36348" lon="6.775">
        <ele>3136.44</ele>
        <time>2010-08-04T05:58:53Z</time>
      </trkpt>
      <trkpt lat="45.36348" lon="6.77499">
        <ele>3133.55</ele>
        <time>2010-08-04T05:58:54Z</time>
      </trkpt>
      <trkpt lat="45.36347" lon="6.77496">
        <ele>3136.92</ele>
        <time>2010-08-04T05:58:57Z</time>
      </trkpt>
      <trkpt lat="45.36346" lon="6.77487">
        <ele>3136.92</ele>
        <time>2010-08-04T05:59:03Z</time>
      </trkpt>
      <trkpt lat="45.36345" lon="6.77473">
        <ele>3138.36</ele>
        <time>2010-08-04T05:59:14Z</time>
      </trkpt>
      <trkpt lat="45.36345" lon="6.77472">
        <ele>3136.92</ele>
        <time>2010-08-04T05:59:15Z</time>
      </trkpt>
      <trkpt lat="45.36344" lon="6.77455">
        <ele>3136.92</ele>
        <time>2010-08-04T05:59:27Z</time>
      </trkpt>
      <trkpt lat="45.36344" lon="6.77453">
        <ele>3135.96</ele>
        <time>2010-08-04T05:59:29Z</time>
      </trkpt>
      <trkpt lat="45.36343" lon="6.7745">
        <ele>3133.55</ele>
        <time>2010-08-04T05:59:31Z</time>
      </trkpt>
      <trkpt lat="45.36343" lon="6.77447">
        <ele>3135.48</ele>
        <time>2010-08-04T05:59:33Z</time>
      </trkpt>
      <trkpt lat="45.36343" lon="6.77444">
        <ele>3136.92</ele>
        <time>2010-08-04T05:59:35Z</time>
      </trkpt>
      <trkpt lat="45.36342" lon="6.77441">
        <ele>3136.44</ele>
        <time>2010-08-04T05:59:37Z</time>
      </trkpt>
      <trkpt lat="45.36343" lon="6.7743">
        <ele>3138.36</ele>
        <time>2010-08-04T05:59:44Z</time>
      </trkpt>
      <trkpt lat="45.36343" lon="6.77426">
        <ele>3137.4</ele>
        <time>2010-08-04T05:59:46Z</time>
      </trkpt>
      <trkpt lat="45.36343" lon="6.77413">
        <ele>3137.88</ele>
        <time>2010-08-04T05:59:56Z</time>
      </trkpt>
      <trkpt lat="45.36344" lon="6.77399">
        <ele>3138.36</ele>
        <time>2010-08-04T06:00:06Z</time>
      </trkpt>
      <trkpt lat="45.36344" lon="6.77386">
        <ele>3134.52</ele>
        <time>2010-08-04T06:00:14Z</time>
      </trkpt>
      <trkpt lat="45.36344" lon="6.77383">
        <ele>3138.84</ele>
        <time>2010-08-04T06:00:17Z</time>
      </trkpt>
      <trkpt lat="45.36344" lon="6.77381">
        <ele>3134.04</ele>
        <time>2010-08-04T06:00:18Z</time>
      </trkpt>
      <trkpt lat="45.36344" lon="6.7738">
        <ele>3136.92</ele>
        <time>2010-08-04T06:00:19Z</time>
      </trkpt>
      <trkpt lat="45.36343" lon="6.77377">
        <ele>3138.84</ele>
        <time>2010-08-04T06:00:21Z</time>
      </trkpt>
      <trkpt lat="45.36342" lon="6.77365">
        <ele>3139.8</ele>
        <time>2010-08-04T06:00:30Z</time>
      </trkpt>
      <trkpt lat="45.36341" lon="6.7735">
        <ele>3137.88</ele>
        <time>2010-08-04T06:00:40Z</time>
      </trkpt>
      <trkpt lat="45.36342" lon="6.77335">
        <ele>3139.8</ele>
        <time>2010-08-04T06:00:50Z</time>
      </trkpt>
      <trkpt lat="45.36342" lon="6.77332">
        <ele>3137.88</ele>
        <time>2010-08-04T06:00:53Z</time>
      </trkpt>
      <trkpt lat="45.36342" lon="6.77318">
        <ele>3142.69</ele>
        <time>2010-08-04T06:01:02Z</time>
      </trkpt>
      <trkpt lat="45.36342" lon="6.77317">
        <ele>3139.32</ele>
        <time>2010-08-04T06:01:03Z</time>
      </trkpt>
      <trkpt lat="45.36342" lon="6.77307">
        <ele>3139.32</ele>
        <time>2010-08-04T06:01:11Z</time>
      </trkpt>
      <trkpt lat="45.36343" lon="6.77298">
        <ele>3138.84</ele>
        <time>2010-08-04T06:01:18Z</time>
      </trkpt>
      <trkpt lat="45.36343" lon="6.77283">
        <ele>3139.32</ele>
        <time>2010-08-04T06:01:30Z</time>
      </trkpt>
      <trkpt lat="45.36345" lon="6.7727">
        <ele>3141.25</ele>
        <time>2010-08-04T06:01:40Z</time>
      </trkpt>
      <trkpt lat="45.36345" lon="6.77269">
        <ele>3137.88</ele>
        <time>2010-08-04T06:01:41Z</time>
      </trkpt>
      <trkpt lat="45.36345" lon="6.77268">
        <ele>3135</ele>
        <time>2010-08-04T06:01:42Z</time>
      </trkpt>
      <trkpt lat="45.36345" lon="6.77267">
        <ele>3139.32</ele>
        <time>2010-08-04T06:01:43Z</time>
      </trkpt>
      <trkpt lat="45.36347" lon="6.77254">
        <ele>3143.65</ele>
        <time>2010-08-04T06:01:52Z</time>
      </trkpt>
      <trkpt lat="45.36348" lon="6.77253">
        <ele>3140.28</ele>
        <time>2010-08-04T06:01:53Z</time>
      </trkpt>
      <trkpt lat="45.36348" lon="6.77251">
        <ele>3140.28</ele>
        <time>2010-08-04T06:01:54Z</time>
      </trkpt>
      <trkpt lat="45.36349" lon="6.77248">
        <ele>3141.25</ele>
        <time>2010-08-04T06:01:56Z</time>
      </trkpt>
      <trkpt lat="45.3635" lon="6.7724">
        <ele>3139.8</ele>
        <time>2010-08-04T06:02:02Z</time>
      </trkpt>
      <trkpt lat="45.36352" lon="6.77232">
        <ele>3144.13</ele>
        <time>2010-08-04T06:02:08Z</time>
      </trkpt>
      <trkpt lat="45.36352" lon="6.77231">
        <ele>3143.17</ele>
        <time>2010-08-04T06:02:09Z</time>
      </trkpt>
      <trkpt lat="45.36353" lon="6.77228">
        <ele>3141.25</ele>
        <time>2010-08-04T06:02:11Z</time>
      </trkpt>
      <trkpt lat="45.36357" lon="6.77213">
        <ele>3135</ele>
        <time>2010-08-04T06:02:22Z</time>
      </trkpt>
      <trkpt lat="45.36357" lon="6.77211">
        <ele>3140.76</ele>
        <time>2010-08-04T06:02:23Z</time>
      </trkpt>
      <trkpt lat="45.3636" lon="6.77195">
        <ele>3140.28</ele>
        <time>2010-08-04T06:02:35Z</time>
      </trkpt>
      <trkpt lat="45.36363" lon="6.77181">
        <ele>3141.25</ele>
        <time>2010-08-04T06:02:47Z</time>
      </trkpt>
      <trkpt lat="45.36367" lon="6.77166">
        <ele>3142.69</ele>
        <time>2010-08-04T06:02:58Z</time>
      </trkpt>
      <trkpt lat="45.3637" lon="6.7716">
        <ele>3141.73</ele>
        <time>2010-08-04T06:03:03Z</time>
      </trkpt>
      <trkpt lat="45.36372" lon="6.77152">
        <ele>3140.28</ele>
        <time>2010-08-04T06:03:09Z</time>
      </trkpt>
      <trkpt lat="45.36373" lon="6.77149">
        <ele>3141.25</ele>
        <time>2010-08-04T06:03:11Z</time>
      </trkpt>
      <trkpt lat="45.36375" lon="6.77137">
        <ele>3143.65</ele>
        <time>2010-08-04T06:03:19Z</time>
      </trkpt>
      <trkpt lat="45.36375" lon="6.77132">
        <ele>3140.28</ele>
        <time>2010-08-04T06:03:23Z</time>
      </trkpt>
      <trkpt lat="45.36375" lon="6.7713">
        <ele>3143.65</ele>
        <time>2010-08-04T06:03:25Z</time>
      </trkpt>
      <trkpt lat="45.36378" lon="6.77114">
        <ele>3140.76</ele>
        <time>2010-08-04T06:03:36Z</time>
      </trkpt>
      <trkpt lat="45.3638" lon="6.7711">
        <ele>3141.25</ele>
        <time>2010-08-04T06:03:39Z</time>
      </trkpt>
      <trkpt lat="45.36383" lon="6.77094">
        <ele>3143.17</ele>
        <time>2010-08-04T06:03:50Z</time>
      </trkpt>
      <trkpt lat="45.36386" lon="6.77081">
        <ele>3139.8</ele>
        <time>2010-08-04T06:03:59Z</time>
      </trkpt>
      <trkpt lat="45.36387" lon="6.77079">
        <ele>3139.32</ele>
        <time>2010-08-04T06:04:01Z</time>
      </trkpt>
      <trkpt lat="45.36387" lon="6.77074">
        <ele>3145.09</ele>
        <time>2010-08-04T06:04:04Z</time>
      </trkpt>
      <trkpt lat="45.36388" lon="6.77073">
        <ele>3140.76</ele>
        <time>2010-08-04T06:04:05Z</time>
      </trkpt>
      <trkpt lat="45.36388" lon="6.77071">
        <ele>3144.13</ele>
        <time>2010-08-04T06:04:06Z</time>
      </trkpt>
      <trkpt lat="45.3639" lon="6.77065">
        <ele>3140.28</ele>
        <time>2010-08-04T06:04:10Z</time>
      </trkpt>
      <trkpt lat="45.3639" lon="6.77062">
        <ele>3144.13</ele>
        <time>2010-08-04T06:04:13Z</time>
      </trkpt>
      <trkpt lat="45.36394" lon="6.77048">
        <ele>3143.65</ele>
        <time>2010-08-04T06:04:23Z</time>
      </trkpt>
      <trkpt lat="45.36395" lon="6.77046">
        <ele>3143.17</ele>
        <time>2010-08-04T06:04:25Z</time>
      </trkpt>
      <trkpt lat="45.36395" lon="6.77041">
        <ele>3146.05</ele>
        <time>2010-08-04T06:04:29Z</time>
      </trkpt>
      <trkpt lat="45.36396" lon="6.77039">
        <ele>3142.69</ele>
        <time>2010-08-04T06:04:31Z</time>
      </trkpt>
      <trkpt lat="45.36396" lon="6.77033">
        <ele>3146.05</ele>
        <time>2010-08-04T06:04:36Z</time>
      </trkpt>
      <trkpt lat="45.36397" lon="6.7703">
        <ele>3141.73</ele>
        <time>2010-08-04T06:04:38Z</time>
      </trkpt>
      <trkpt lat="45.36398" lon="6.77028">
        <ele>3144.13</ele>
        <time>2010-08-04T06:04:40Z</time>
      </trkpt>
      <trkpt lat="45.36399" lon="6.77026">
        <ele>3139.8</ele>
        <time>2010-08-04T06:04:42Z</time>
      </trkpt>
      <trkpt lat="45.36399" lon="6.77024">
        <ele>3144.61</ele>
        <time>2010-08-04T06:04:43Z</time>
      </trkpt>
      <trkpt lat="45.36402" lon="6.77011">
        <ele>3144.61</ele>
        <time>2010-08-04T06:04:53Z</time>
      </trkpt>
      <trkpt lat="45.36404" lon="6.77002">
        <ele>3145.09</ele>
        <time>2010-08-04T06:05:01Z</time>
      </trkpt>
      <trkpt lat="45.36404" lon="6.77">
        <ele>3142.21</ele>
        <time>2010-08-04T06:05:02Z</time>
      </trkpt>
      <trkpt lat="45.36404" lon="6.76999">
        <ele>3145.57</ele>
        <time>2010-08-04T06:05:03Z</time>
      </trkpt>
      <trkpt lat="45.36404" lon="6.76998">
        <ele>3142.21</ele>
        <time>2010-08-04T06:05:04Z</time>
      </trkpt>
      <trkpt lat="45.36405" lon="6.76994">
        <ele>3146.05</ele>
        <time>2010-08-04T06:05:07Z</time>
      </trkpt>
      <trkpt lat="45.36405" lon="6.76991">
        <ele>3141.25</ele>
        <time>2010-08-04T06:05:10Z</time>
      </trkpt>
      <trkpt lat="45.36405" lon="6.76989">
        <ele>3147.01</ele>
        <time>2010-08-04T06:05:11Z</time>
      </trkpt>
      <trkpt lat="45.36406" lon="6.76982">
        <ele>3146.05</ele>
        <time>2010-08-04T06:05:16Z</time>
      </trkpt>
      <trkpt lat="45.36408" lon="6.76971">
        <ele>3143.17</ele>
        <time>2010-08-04T06:05:24Z</time>
      </trkpt>
      <trkpt lat="45.36409" lon="6.7697">
        <ele>3146.05</ele>
        <time>2010-08-04T06:05:25Z</time>
      </trkpt>
      <trkpt lat="45.3641" lon="6.76958">
        <ele>3144.61</ele>
        <time>2010-08-04T06:05:34Z</time>
      </trkpt>
      <trkpt lat="45.36411" lon="6.76955">
        <ele>3142.69</ele>
        <time>2010-08-04T06:05:36Z</time>
      </trkpt>
      <trkpt lat="45.36411" lon="6.76954">
        <ele>3148.94</ele>
        <time>2010-08-04T06:05:37Z</time>
      </trkpt>
      <trkpt lat="45.36411" lon="6.76952">
        <ele>3145.57</ele>
        <time>2010-08-04T06:05:38Z</time>
      </trkpt>
      <trkpt lat="45.36412" lon="6.76951">
        <ele>3146.05</ele>
        <time>2010-08-04T06:05:39Z</time>
      </trkpt>
      <trkpt lat="45.36413" lon="6.76945">
        <ele>3147.49</ele>
        <time>2010-08-04T06:05:43Z</time>
      </trkpt>
      <trkpt lat="45.36413" lon="6.76944">
        <ele>3144.61</ele>
        <time>2010-08-04T06:05:44Z</time>
      </trkpt>
      <trkpt lat="45.36414" lon="6.76939">
        <ele>3147.49</ele>
        <time>2010-08-04T06:05:47Z</time>
      </trkpt>
      <trkpt lat="45.36415" lon="6.76936">
        <ele>3144.61</ele>
        <time>2010-08-04T06:05:49Z</time>
      </trkpt>
      <trkpt lat="45.36416" lon="6.76931">
        <ele>3146.05</ele>
        <time>2010-08-04T06:05:52Z</time>
      </trkpt>
      <trkpt lat="45.36418" lon="6.76921">
        <ele>3147.49</ele>
        <time>2010-08-04T06:05:59Z</time>
      </trkpt>
      <trkpt lat="45.36418" lon="6.76915">
        <ele>3143.17</ele>
        <time>2010-08-04T06:06:03Z</time>
      </trkpt>
      <trkpt lat="45.36418" lon="6.76914">
        <ele>3147.01</ele>
        <time>2010-08-04T06:06:04Z</time>
      </trkpt>
      <trkpt lat="45.36419" lon="6.76905">
        <ele>3145.57</ele>
        <time>2010-08-04T06:06:11Z</time>
      </trkpt>
      <trkpt lat="45.36419" lon="6.769">
        <ele>3144.13</ele>
        <time>2010-08-04T06:06:15Z</time>
      </trkpt>
      <trkpt lat="45.36419" lon="6.76895">
        <ele>3146.05</ele>
        <time>2010-08-04T06:06:18Z</time>
      </trkpt>
      <trkpt lat="45.3642" lon="6.76888">
        <ele>3142.69</ele>
        <time>2010-08-04T06:06:23Z</time>
      </trkpt>
      <trkpt lat="45.3642" lon="6.76887">
        <ele>3147.01</ele>
        <time>2010-08-04T06:06:24Z</time>
      </trkpt>
      <trkpt lat="45.36421" lon="6.76878">
        <ele>3143.65</ele>
        <time>2010-08-04T06:06:30Z</time>
      </trkpt>
      <trkpt lat="45.36421" lon="6.76877">
        <ele>3144.61</ele>
        <time>2010-08-04T06:06:31Z</time>
      </trkpt>
      <trkpt lat="45.36421" lon="6.76875">
        <ele>3147.97</ele>
        <time>2010-08-04T06:06:32Z</time>
      </trkpt>
      <trkpt lat="45.36421" lon="6.76874">
        <ele>3145.09</ele>
        <time>2010-08-04T06:06:33Z</time>
      </trkpt>
      <trkpt lat="45.3642" lon="6.7687">
        <ele>3149.9</ele>
        <time>2010-08-04T06:06:35Z</time>
      </trkpt>
      <trkpt lat="45.3642" lon="6.76869">
        <ele>3149.42</ele>
        <time>2010-08-04T06:06:36Z</time>
      </trkpt>
      <trkpt lat="45.3642" lon="6.76867">
        <ele>3146.05</ele>
        <time>2010-08-04T06:06:38Z</time>
      </trkpt>
      <trkpt lat="45.3642" lon="6.76864">
        <ele>3150.38</ele>
        <time>2010-08-04T06:06:40Z</time>
      </trkpt>
      <trkpt lat="45.3642" lon="6.76863">
        <ele>3148.94</ele>
        <time>2010-08-04T06:06:41Z</time>
      </trkpt>
      <trkpt lat="45.3642" lon="6.76861">
        <ele>3147.01</ele>
        <time>2010-08-04T06:06:43Z</time>
      </trkpt>
      <trkpt lat="45.3642" lon="6.76858">
        <ele>3148.46</ele>
        <time>2010-08-04T06:06:45Z</time>
      </trkpt>
      <trkpt lat="45.3642" lon="6.76856">
        <ele>3145.57</ele>
        <time>2010-08-04T06:06:46Z</time>
      </trkpt>
      <trkpt lat="45.3642" lon="6.76855">
        <ele>3147.01</ele>
        <time>2010-08-04T06:06:47Z</time>
      </trkpt>
      <trkpt lat="45.36421" lon="6.76844">
        <ele>3148.94</ele>
        <time>2010-08-04T06:06:56Z</time>
      </trkpt>
      <trkpt lat="45.36423" lon="6.76836">
        <ele>3146.05</ele>
        <time>2010-08-04T06:07:04Z</time>
      </trkpt>
      <trkpt lat="45.36423" lon="6.76835">
        <ele>3149.9</ele>
        <time>2010-08-04T06:07:05Z</time>
      </trkpt>
      <trkpt lat="45.36424" lon="6.76828">
        <ele>3150.86</ele>
        <time>2010-08-04T06:07:11Z</time>
      </trkpt>
      <trkpt lat="45.36424" lon="6.76827">
        <ele>3151.34</ele>
        <time>2010-08-04T06:07:13Z</time>
      </trkpt>
      <trkpt lat="45.36425" lon="6.76823">
        <ele>3151.34</ele>
        <time>2010-08-04T06:07:16Z</time>
      </trkpt>
      <trkpt lat="45.36426" lon="6.76811">
        <ele>3151.82</ele>
        <time>2010-08-04T06:07:27Z</time>
      </trkpt>
      <trkpt lat="45.36426" lon="6.76809">
        <ele>3150.38</ele>
        <time>2010-08-04T06:07:29Z</time>
      </trkpt>
      <trkpt lat="45.36425" lon="6.76804">
        <ele>3153.26</ele>
        <time>2010-08-04T06:07:34Z</time>
      </trkpt>
      <trkpt lat="45.36425" lon="6.76794">
        <ele>3154.22</ele>
        <time>2010-08-04T06:07:44Z</time>
      </trkpt>
      <trkpt lat="45.36425" lon="6.76792">
        <ele>3150.38</ele>
        <time>2010-08-04T06:07:46Z</time>
      </trkpt>
      <trkpt lat="45.36425" lon="6.76791">
        <ele>3153.74</ele>
        <time>2010-08-04T06:07:47Z</time>
      </trkpt>
      <trkpt lat="45.36425" lon="6.76787">
        <ele>3154.22</ele>
        <time>2010-08-04T06:07:51Z</time>
      </trkpt>
      <trkpt lat="45.36426" lon="6.76784">
        <ele>3153.26</ele>
        <time>2010-08-04T06:07:55Z</time>
      </trkpt>
      <trkpt lat="45.36425" lon="6.76778">
        <ele>3155.66</ele>
        <time>2010-08-04T06:08:00Z</time>
      </trkpt>
      <trkpt lat="45.36424" lon="6.76769">
        <ele>3155.18</ele>
        <time>2010-08-04T06:08:10Z</time>
      </trkpt>
      <trkpt lat="45.36424" lon="6.76763">
        <ele>3156.63</ele>
        <time>2010-08-04T06:08:17Z</time>
      </trkpt>
      <trkpt lat="45.36423" lon="6.7676">
        <ele>3158.55</ele>
        <time>2010-08-04T06:08:20Z</time>
      </trkpt>
      <trkpt lat="45.36421" lon="6.7675">
        <ele>3159.03</ele>
        <time>2010-08-04T06:08:33Z</time>
      </trkpt>
      <trkpt lat="45.36419" lon="6.76746">
        <ele>3159.99</ele>
        <time>2010-08-04T06:08:39Z</time>
      </trkpt>
      <trkpt lat="45.36418" lon="6.76746">
        <ele>3157.59</ele>
        <time>2010-08-04T06:08:41Z</time>
      </trkpt>
      <trkpt lat="45.36417" lon="6.76745">
        <ele>3162.39</ele>
        <time>2010-08-04T06:08:44Z</time>
      </trkpt>
      <trkpt lat="45.36412" lon="6.76736">
        <ele>3162.88</ele>
        <time>2010-08-04T06:08:59Z</time>
      </trkpt>
      <trkpt lat="45.36408" lon="6.76731">
        <ele>3162.88</ele>
        <time>2010-08-04T06:09:06Z</time>
      </trkpt>
      <trkpt lat="45.36406" lon="6.76727">
        <ele>3164.32</ele>
        <time>2010-08-04T06:09:11Z</time>
      </trkpt>
      <trkpt lat="45.36403" lon="6.76716">
        <ele>3165.28</ele>
        <time>2010-08-04T06:09:22Z</time>
      </trkpt>
      <trkpt lat="45.36401" lon="6.76711">
        <ele>3164.32</ele>
        <time>2010-08-04T06:09:27Z</time>
      </trkpt>
      <trkpt lat="45.36399" lon="6.76708">
        <ele>3167.2</ele>
        <time>2010-08-04T06:09:31Z</time>
      </trkpt>
      <trkpt lat="45.36396" lon="6.76704">
        <ele>3163.36</ele>
        <time>2010-08-04T06:09:36Z</time>
      </trkpt>
      <trkpt lat="45.36395" lon="6.76704">
        <ele>3166.24</ele>
        <time>2010-08-04T06:09:37Z</time>
      </trkpt>
      <trkpt lat="45.3639" lon="6.76699">
        <ele>3167.68</ele>
        <time>2010-08-04T06:09:49Z</time>
      </trkpt>
      <trkpt lat="45.36386" lon="6.76698">
        <ele>3168.64</ele>
        <time>2010-08-04T06:10:01Z</time>
      </trkpt>
      <trkpt lat="45.36386" lon="6.76695">
        <ele>3170.08</ele>
        <time>2010-08-04T06:10:04Z</time>
      </trkpt>
      <trkpt lat="45.36387" lon="6.76693">
        <ele>3174.41</ele>
        <time>2010-08-04T06:10:11Z</time>
      </trkpt>
      <trkpt lat="45.36388" lon="6.76693">
        <ele>3173.45</ele>
        <time>2010-08-04T06:10:12Z</time>
      </trkpt>
      <trkpt lat="45.36388" lon="6.76692">
        <ele>3171.53</ele>
        <time>2010-08-04T06:10:14Z</time>
      </trkpt>
      <trkpt lat="45.36386" lon="6.76685">
        <ele>3174.89</ele>
        <time>2010-08-04T06:10:25Z</time>
      </trkpt>
      <trkpt lat="45.36387" lon="6.76685">
        <ele>3174.89</ele>
        <time>2010-08-04T06:10:26Z</time>
      </trkpt>
      <trkpt lat="45.36389" lon="6.76679">
        <ele>3176.33</ele>
        <time>2010-08-04T06:10:38Z</time>
      </trkpt>
      <trkpt lat="45.36391" lon="6.76675">
        <ele>3178.74</ele>
        <time>2010-08-04T06:10:48Z</time>
      </trkpt>
      <trkpt lat="45.36393" lon="6.76669">
        <ele>3180.18</ele>
        <time>2010-08-04T06:10:59Z</time>
      </trkpt>
      <trkpt lat="45.36396" lon="6.76659">
        <ele>3182.1</ele>
        <time>2010-08-04T06:11:11Z</time>
      </trkpt>
      <trkpt lat="45.36398" lon="6.76656">
        <ele>3185.47</ele>
        <time>2010-08-04T06:11:17Z</time>
      </trkpt>
      <trkpt lat="45.36401" lon="6.76649">
        <ele>3184.98</ele>
        <time>2010-08-04T06:11:28Z</time>
      </trkpt>
      <trkpt lat="45.36402" lon="6.76644">
        <ele>3186.43</ele>
        <time>2010-08-04T06:11:35Z</time>
      </trkpt>
      <trkpt lat="45.36405" lon="6.76637">
        <ele>3187.87</ele>
        <time>2010-08-04T06:11:46Z</time>
      </trkpt>
      <trkpt lat="45.36406" lon="6.76635">
        <ele>3189.31</ele>
        <time>2010-08-04T06:11:49Z</time>
      </trkpt>
      <trkpt lat="45.36405" lon="6.76624">
        <ele>3190.75</ele>
        <time>2010-08-04T06:12:00Z</time>
      </trkpt>
      <trkpt lat="45.36405" lon="6.7662">
        <ele>3192.2</ele>
        <time>2010-08-04T06:12:06Z</time>
      </trkpt>
      <trkpt lat="45.36405" lon="6.76614">
        <ele>3194.6</ele>
        <time>2010-08-04T06:12:18Z</time>
      </trkpt>
      <trkpt lat="45.36405" lon="6.76612">
        <ele>3194.12</ele>
        <time>2010-08-04T06:12:20Z</time>
      </trkpt>
      <trkpt lat="45.36406" lon="6.76603">
        <ele>3196.52</ele>
        <time>2010-08-04T06:12:31Z</time>
      </trkpt>
      <trkpt lat="45.36408" lon="6.76602">
        <ele>3198.44</ele>
        <time>2010-08-04T06:12:38Z</time>
      </trkpt>
      <trkpt lat="45.3641" lon="6.76591">
        <ele>3196.52</ele>
        <time>2010-08-04T06:12:50Z</time>
      </trkpt>
      <trkpt lat="45.36409" lon="6.7659">
        <ele>3201.33</ele>
        <time>2010-08-04T06:12:51Z</time>
      </trkpt>
      <trkpt lat="45.36405" lon="6.76589">
        <ele>3200.85</ele>
        <time>2010-08-04T06:13:02Z</time>
      </trkpt>
      <trkpt lat="45.36404" lon="6.76589">
        <ele>3203.73</ele>
        <time>2010-08-04T06:13:04Z</time>
      </trkpt>
      <trkpt lat="45.36404" lon="6.7659">
        <ele>3202.29</ele>
        <time>2010-08-04T06:13:05Z</time>
      </trkpt>
      <trkpt lat="45.364" lon="6.76591">
        <ele>3205.17</ele>
        <time>2010-08-04T06:13:19Z</time>
      </trkpt>
      <trkpt lat="45.36396" lon="6.76585">
        <ele>3208.54</ele>
        <time>2010-08-04T06:13:27Z</time>
      </trkpt>
      <trkpt lat="45.36395" lon="6.76584">
        <ele>3203.73</ele>
        <time>2010-08-04T06:13:28Z</time>
      </trkpt>
      <trkpt lat="45.36392" lon="6.76579">
        <ele>3205.65</ele>
        <time>2010-08-04T06:13:32Z</time>
      </trkpt>
      <trkpt lat="45.36392" lon="6.76578">
        <ele>3207.58</ele>
        <time>2010-08-04T06:13:34Z</time>
      </trkpt>
      <trkpt lat="45.36391" lon="6.76578">
        <ele>3208.06</ele>
        <time>2010-08-04T06:14:22Z</time>
      </trkpt>
      <trkpt lat="45.36391" lon="6.76578">
        <ele>3202.77</ele>
        <time>2010-08-04T06:14:32Z</time>
      </trkpt>
      <trkpt lat="45.36391" lon="6.76578">
        <ele>3215.27</ele>
        <time>2010-08-04T06:14:33Z</time>
      </trkpt>
      <trkpt lat="45.36391" lon="6.76578">
        <ele>3215.75</ele>
        <time>2010-08-04T06:14:34Z</time>
      </trkpt>
      <trkpt lat="45.36392" lon="6.76579">
        <ele>3211.42</ele>
        <time>2010-08-04T06:14:35Z</time>
      </trkpt>
      <trkpt lat="45.36392" lon="6.76579">
        <ele>3205.17</ele>
        <time>2010-08-04T06:14:36Z</time>
      </trkpt>
      <trkpt lat="45.36392" lon="6.76579">
        <ele>3210.46</ele>
        <time>2010-08-04T06:14:37Z</time>
      </trkpt>
      <trkpt lat="45.36392" lon="6.76579">
        <ele>3206.61</ele>
        <time>2010-08-04T06:15:08Z</time>
      </trkpt>
      <trkpt lat="45.36392" lon="6.76579">
        <ele>3209.5</ele>
        <time>2010-08-04T06:15:12Z</time>
      </trkpt>
      <trkpt lat="45.36392" lon="6.76579">
        <ele>3209.98</ele>
        <time>2010-08-04T06:15:16Z</time>
      </trkpt>
      <trkpt lat="45.36392" lon="6.76579">
        <ele>3211.42</ele>
        <time>2010-08-04T06:15:23Z</time>
      </trkpt>
      <trkpt lat="45.36392" lon="6.76579">
        <ele>3208.54</ele>
        <time>2010-08-04T06:15:28Z</time>
      </trkpt>
      <trkpt lat="45.36392" lon="6.76579">
        <ele>3212.86</ele>
        <time>2010-08-04T06:15:32Z</time>
      </trkpt>
      <trkpt lat="45.36392" lon="6.76579">
        <ele>3209.02</ele>
        <time>2010-08-04T06:15:33Z</time>
      </trkpt>
      <trkpt lat="45.36392" lon="6.76579">
        <ele>3209.5</ele>
        <time>2010-08-04T06:15:34Z</time>
      </trkpt>
      <trkpt lat="45.36392" lon="6.76579">
        <ele>3210.94</ele>
        <time>2010-08-04T06:15:41Z</time>
      </trkpt>
      <trkpt lat="45.36392" lon="6.76579">
        <ele>3214.31</ele>
        <time>2010-08-04T06:15:46Z</time>
      </trkpt>
      <trkpt lat="45.36392" lon="6.76579">
        <ele>3210.94</ele>
        <time>2010-08-04T06:15:47Z</time>
      </trkpt>
      <trkpt lat="45.36392" lon="6.76579">
        <ele>3207.58</ele>
        <time>2010-08-04T06:15:48Z</time>
      </trkpt>
      <trkpt lat="45.36392" lon="6.76579">
        <ele>3210.46</ele>
        <time>2010-08-04T06:15:49Z</time>
      </trkpt>
      <trkpt lat="45.36392" lon="6.76578">
        <ele>3209.5</ele>
        <time>2010-08-04T06:16:26Z</time>
      </trkpt>
      <trkpt lat="45.36391" lon="6.76579">
        <ele>3209.5</ele>
        <time>2010-08-04T06:16:49Z</time>
      </trkpt>
      <trkpt lat="45.36395" lon="6.76579">
        <ele>3210.46</ele>
        <time>2010-08-04T06:17:11Z</time>
      </trkpt>
      <trkpt lat="45.36396" lon="6.7658">
        <ele>3210.94</ele>
        <time>2010-08-04T06:17:41Z</time>
      </trkpt>
      <trkpt lat="45.36396" lon="6.7658">
        <ele>3211.9</ele>
        <time>2010-08-04T06:17:51Z</time>
      </trkpt>
      <trkpt lat="45.36396" lon="6.7658">
        <ele>3210.94</ele>
        <time>2010-08-04T06:17:53Z</time>
      </trkpt>
      <trkpt lat="45.36395" lon="6.76585">
        <ele>3210.94</ele>
        <time>2010-08-04T06:18:03Z</time>
      </trkpt>
      <trkpt lat="45.36394" lon="6.76584">
        <ele>3209.5</ele>
        <time>2010-08-04T06:18:16Z</time>
      </trkpt>
      <trkpt lat="45.36394" lon="6.76584">
        <ele>3205.65</ele>
        <time>2010-08-04T06:18:18Z</time>
      </trkpt>
      <trkpt lat="45.36394" lon="6.76584">
        <ele>3212.38</ele>
        <time>2010-08-04T06:18:19Z</time>
      </trkpt>
      <trkpt lat="45.36394" lon="6.76584">
        <ele>3209.02</ele>
        <time>2010-08-04T06:18:20Z</time>
      </trkpt>
      <trkpt lat="45.36394" lon="6.76584">
        <ele>3212.86</ele>
        <time>2010-08-04T06:18:41Z</time>
      </trkpt>
      <trkpt lat="45.36394" lon="6.76584">
        <ele>3217.67</ele>
        <time>2010-08-04T06:18:43Z</time>
      </trkpt>
      <trkpt lat="45.36394" lon="6.76584">
        <ele>3210.46</ele>
        <time>2010-08-04T06:18:44Z</time>
      </trkpt>
      <trkpt lat="45.36394" lon="6.76584">
        <ele>3206.61</ele>
        <time>2010-08-04T06:18:55Z</time>
      </trkpt>
      <trkpt lat="45.36394" lon="6.76584">
        <ele>3210.46</ele>
        <time>2010-08-04T06:18:56Z</time>
      </trkpt>
      <trkpt lat="45.36394" lon="6.76584">
        <ele>3212.38</ele>
        <time>2010-08-04T06:19:05Z</time>
      </trkpt>
      <trkpt lat="45.36394" lon="6.76584">
        <ele>3211.9</ele>
        <time>2010-08-04T06:19:22Z</time>
      </trkpt>
      <trkpt lat="45.36394" lon="6.76584">
        <ele>3212.38</ele>
        <time>2010-08-04T06:19:47Z</time>
      </trkpt>
      <trkpt lat="45.36394" lon="6.76584">
        <ele>3209.5</ele>
        <time>2010-08-04T06:19:52Z</time>
      </trkpt>
      <trkpt lat="45.36394" lon="6.76584">
        <ele>3212.38</ele>
        <time>2010-08-04T06:19:56Z</time>
      </trkpt>
      <trkpt lat="45.36394" lon="6.76584">
        <ele>3207.1</ele>
        <time>2010-08-04T06:19:59Z</time>
      </trkpt>
      <trkpt lat="45.36394" lon="6.76584">
        <ele>3210.46</ele>
        <time>2010-08-04T06:20:00Z</time>
      </trkpt>
      <trkpt lat="45.36394" lon="6.76584">
        <ele>3212.38</ele>
        <time>2010-08-04T06:20:02Z</time>
      </trkpt>
      <trkpt lat="45.36394" lon="6.76584">
        <ele>3210.94</ele>
        <time>2010-08-04T06:20:13Z</time>
      </trkpt>
      <trkpt lat="45.36394" lon="6.76584">
        <ele>3213.34</ele>
        <time>2010-08-04T06:20:35Z</time>
      </trkpt>
      <trkpt lat="45.36394" lon="6.76584">
        <ele>3210.94</ele>
        <time>2010-08-04T06:20:45Z</time>
      </trkpt>
      <trkpt lat="45.36394" lon="6.76584">
        <ele>3213.34</ele>
        <time>2010-08-04T06:20:59Z</time>
      </trkpt>
      <trkpt lat="45.36394" lon="6.76584">
        <ele>3222.48</ele>
        <time>2010-08-04T06:21:09Z</time>
      </trkpt>
      <trkpt lat="45.36394" lon="6.76584">
        <ele>3215.75</ele>
        <time>2010-08-04T06:21:10Z</time>
      </trkpt>
      <trkpt lat="45.36394" lon="6.76584">
        <ele>3212.38</ele>
        <time>2010-08-04T06:21:14Z</time>
      </trkpt>
      <trkpt lat="45.36394" lon="6.76584">
        <ele>3210.94</ele>
        <time>2010-08-04T06:21:16Z</time>
      </trkpt>
      <trkpt lat="45.36394" lon="6.76584">
        <ele>3214.31</ele>
        <time>2010-08-04T06:21:18Z</time>
      </trkpt>
      <trkpt lat="45.36394" lon="6.76584">
        <ele>3214.31</ele>
        <time>2010-08-04T06:21:19Z</time>
      </trkpt>
      <trkpt lat="45.36394" lon="6.76584">
        <ele>3209.02</ele>
        <time>2010-08-04T06:21:22Z</time>
      </trkpt>
      <trkpt lat="45.36394" lon="6.76584">
        <ele>3214.79</ele>
        <time>2010-08-04T06:21:23Z</time>
      </trkpt>
      <trkpt lat="45.36394" lon="6.76584">
        <ele>3211.42</ele>
        <time>2010-08-04T06:21:25Z</time>
      </trkpt>
      <trkpt lat="45.36394" lon="6.76584">
        <ele>3213.34</ele>
        <time>2010-08-04T06:21:26Z</time>
      </trkpt>
      <trkpt lat="45.36394" lon="6.76584">
        <ele>3208.06</ele>
        <time>2010-08-04T06:21:28Z</time>
      </trkpt>
      <trkpt lat="45.36394" lon="6.76584">
        <ele>3227.76</ele>
        <time>2010-08-04T06:34:03Z</time>
      </trkpt>
      <trkpt lat="45.36394" lon="6.76584">
        <ele>3210.94</ele>
        <time>2010-08-04T06:34:05Z</time>
      </trkpt>
      <trkpt lat="45.36396" lon="6.76573">
        <ele>3211.42</ele>
        <time>2010-08-04T06:34:14Z</time>
      </trkpt>
      <trkpt lat="45.36395" lon="6.76575">
        <ele>3215.27</ele>
        <time>2010-08-04T06:34:20Z</time>
      </trkpt>
      <trkpt lat="45.36396" lon="6.76575">
        <ele>3211.42</ele>
        <time>2010-08-04T06:34:21Z</time>
      </trkpt>
      <trkpt lat="45.36401" lon="6.76578">
        <ele>3209.98</ele>
        <time>2010-08-04T06:34:45Z</time>
      </trkpt>
      <trkpt lat="45.36401" lon="6.76575">
        <ele>3210.46</ele>
        <time>2010-08-04T06:34:57Z</time>
      </trkpt>
      <trkpt lat="45.36401" lon="6.76579">
        <ele>3210.46</ele>
        <time>2010-08-04T06:36:39Z</time>
      </trkpt>
      <trkpt lat="45.36402" lon="6.76578">
        <ele>3210.94</ele>
        <time>2010-08-04T06:36:44Z</time>
      </trkpt>
      <trkpt lat="45.36401" lon="6.76578">
        <ele>3210.94</ele>
        <time>2010-08-04T06:36:57Z</time>
      </trkpt>
      <trkpt lat="45.36403" lon="6.76577">
        <ele>3207.1</ele>
        <time>2010-08-04T06:37:01Z</time>
      </trkpt>
      <trkpt lat="45.36402" lon="6.76576">
        <ele>3210.94</ele>
        <time>2010-08-04T06:37:02Z</time>
      </trkpt>
      <trkpt lat="45.36401" lon="6.76577">
        <ele>3210.94</ele>
        <time>2010-08-04T06:37:38Z</time>
      </trkpt>
      <trkpt lat="45.36401" lon="6.76577">
        <ele>3210.94</ele>
        <time>2010-08-04T06:38:08Z</time>
      </trkpt>
      <trkpt lat="45.36401" lon="6.76577">
        <ele>3210.94</ele>
        <time>2010-08-04T06:38:35Z</time>
      </trkpt>
      <trkpt lat="45.36401" lon="6.76577">
        <ele>3210.94</ele>
        <time>2010-08-04T06:38:56Z</time>
      </trkpt>
      <trkpt lat="45.36401" lon="6.76577">
        <ele>3210.94</ele>
        <time>2010-08-04T06:39:43Z</time>
      </trkpt>
      <trkpt lat="45.36401" lon="6.76577">
        <ele>3209.98</ele>
        <time>2010-08-04T06:40:14Z</time>
      </trkpt>
      <trkpt lat="45.36402" lon="6.76577">
        <ele>3210.94</ele>
        <time>2010-08-04T06:40:48Z</time>
      </trkpt>
      <trkpt lat="45.36402" lon="6.76577">
        <ele>3210.46</ele>
        <time>2010-08-04T06:41:39Z</time>
      </trkpt>
      <trkpt lat="45.36406" lon="6.76584">
        <ele>3211.42</ele>
        <time>2010-08-04T06:41:53Z</time>
      </trkpt>
      <trkpt lat="45.36406" lon="6.76586">
        <ele>3209.5</ele>
        <time>2010-08-04T06:41:56Z</time>
      </trkpt>
      <trkpt lat="45.36407" lon="6.76588">
        <ele>3207.58</ele>
        <time>2010-08-04T06:42:02Z</time>
      </trkpt>
      <trkpt lat="45.36408" lon="6.76594">
        <ele>3205.65</ele>
        <time>2010-08-04T06:42:12Z</time>
      </trkpt>
      <trkpt lat="45.36414" lon="6.76595">
        <ele>3203.73</ele>
        <time>2010-08-04T06:42:24Z</time>
      </trkpt>
      <trkpt lat="45.36412" lon="6.76603">
        <ele>3202.29</ele>
        <time>2010-08-04T06:42:35Z</time>
      </trkpt>
      <trkpt lat="45.36412" lon="6.76608">
        <ele>3200.85</ele>
        <time>2010-08-04T06:42:40Z</time>
      </trkpt>
      <trkpt lat="45.36412" lon="6.76622">
        <ele>3196.52</ele>
        <time>2010-08-04T06:42:51Z</time>
      </trkpt>
      <trkpt lat="45.36412" lon="6.76624">
        <ele>3197</ele>
        <time>2010-08-04T06:42:52Z</time>
      </trkpt>
      <trkpt lat="45.36413" lon="6.76628">
        <ele>3199.4</ele>
        <time>2010-08-04T06:42:55Z</time>
      </trkpt>
      <trkpt lat="45.36413" lon="6.76634">
        <ele>3197</ele>
        <time>2010-08-04T06:42:59Z</time>
      </trkpt>
      <trkpt lat="45.36412" lon="6.76638">
        <ele>3197</ele>
        <time>2010-08-04T06:43:03Z</time>
      </trkpt>
      <trkpt lat="45.3641" lon="6.76643">
        <ele>3194.12</ele>
        <time>2010-08-04T06:43:06Z</time>
      </trkpt>
      <trkpt lat="45.3641" lon="6.76644">
        <ele>3193.64</ele>
        <time>2010-08-04T06:43:07Z</time>
      </trkpt>
      <trkpt lat="45.3641" lon="6.76648">
        <ele>3192.2</ele>
        <time>2010-08-04T06:43:10Z</time>
      </trkpt>
      <trkpt lat="45.36408" lon="6.76655">
        <ele>3190.27</ele>
        <time>2010-08-04T06:43:16Z</time>
      </trkpt>
      <trkpt lat="45.36406" lon="6.76661">
        <ele>3188.35</ele>
        <time>2010-08-04T06:43:20Z</time>
      </trkpt>
      <trkpt lat="45.36403" lon="6.76668">
        <ele>3186.91</ele>
        <time>2010-08-04T06:43:25Z</time>
      </trkpt>
      <trkpt lat="45.364" lon="6.76674">
        <ele>3184.5</ele>
        <time>2010-08-04T06:43:31Z</time>
      </trkpt>
      <trkpt lat="45.36397" lon="6.76683">
        <ele>3181.14</ele>
        <time>2010-08-04T06:43:38Z</time>
      </trkpt>
      <trkpt lat="45.36394" lon="6.76688">
        <ele>3179.7</ele>
        <time>2010-08-04T06:43:44Z</time>
      </trkpt>
      <trkpt lat="45.36394" lon="6.7669">
        <ele>3181.14</ele>
        <time>2010-08-04T06:43:46Z</time>
      </trkpt>
      <trkpt lat="45.36392" lon="6.76693">
        <ele>3176.81</ele>
        <time>2010-08-04T06:43:49Z</time>
      </trkpt>
      <trkpt lat="45.36391" lon="6.76694">
        <ele>3176.81</ele>
        <time>2010-08-04T06:43:50Z</time>
      </trkpt>
      <trkpt lat="45.36391" lon="6.76695">
        <ele>3180.66</ele>
        <time>2010-08-04T06:43:51Z</time>
      </trkpt>
      <trkpt lat="45.3639" lon="6.76695">
        <ele>3178.74</ele>
        <time>2010-08-04T06:43:52Z</time>
      </trkpt>
      <trkpt lat="45.36388" lon="6.76696">
        <ele>3177.78</ele>
        <time>2010-08-04T06:43:54Z</time>
      </trkpt>
      <trkpt lat="45.36387" lon="6.76697">
        <ele>3178.26</ele>
        <time>2010-08-04T06:43:56Z</time>
      </trkpt>
      <trkpt lat="45.36384" lon="6.76698">
        <ele>3176.33</ele>
        <time>2010-08-04T06:43:59Z</time>
      </trkpt>
      <trkpt lat="45.36381" lon="6.767">
        <ele>3174.41</ele>
        <time>2010-08-04T06:44:02Z</time>
      </trkpt>
      <trkpt lat="45.36379" lon="6.76708">
        <ele>3172.49</ele>
        <time>2010-08-04T06:44:10Z</time>
      </trkpt>
      <trkpt lat="45.36378" lon="6.76716">
        <ele>3170.08</ele>
        <time>2010-08-04T06:44:16Z</time>
      </trkpt>
      <trkpt lat="45.36377" lon="6.76719">
        <ele>3168.16</ele>
        <time>2010-08-04T06:44:19Z</time>
      </trkpt>
      <trkpt lat="45.36376" lon="6.76723">
        <ele>3168.64</ele>
        <time>2010-08-04T06:44:22Z</time>
      </trkpt>
      <trkpt lat="45.36375" lon="6.76732">
        <ele>3166.24</ele>
        <time>2010-08-04T06:44:27Z</time>
      </trkpt>
      <trkpt lat="45.36374" lon="6.76734">
        <ele>3164.8</ele>
        <time>2010-08-04T06:44:30Z</time>
      </trkpt>
      <trkpt lat="45.36373" lon="6.76739">
        <ele>3162.39</ele>
        <time>2010-08-04T06:44:33Z</time>
      </trkpt>
      <trkpt lat="45.36373" lon="6.7674">
        <ele>3163.36</ele>
        <time>2010-08-04T06:44:34Z</time>
      </trkpt>
      <trkpt lat="45.36371" lon="6.76744">
        <ele>3164.32</ele>
        <time>2010-08-04T06:44:37Z</time>
      </trkpt>
      <trkpt lat="45.36368" lon="6.7675">
        <ele>3159.99</ele>
        <time>2010-08-04T06:44:41Z</time>
      </trkpt>
      <trkpt lat="45.36367" lon="6.76754">
        <ele>3159.03</ele>
        <time>2010-08-04T06:44:46Z</time>
      </trkpt>
      <trkpt lat="45.36367" lon="6.76754">
        <ele>3159.51</ele>
        <time>2010-08-04T06:44:51Z</time>
      </trkpt>
      <trkpt lat="45.36364" lon="6.76759">
        <ele>3158.07</ele>
        <time>2010-08-04T06:44:57Z</time>
      </trkpt>
      <trkpt lat="45.36362" lon="6.76764">
        <ele>3154.22</ele>
        <time>2010-08-04T06:45:02Z</time>
      </trkpt>
      <trkpt lat="45.36361" lon="6.76765">
        <ele>3157.59</ele>
        <time>2010-08-04T06:45:03Z</time>
      </trkpt>
      <trkpt lat="45.3636" lon="6.7677">
        <ele>3153.74</ele>
        <time>2010-08-04T06:45:08Z</time>
      </trkpt>
      <trkpt lat="45.36359" lon="6.76772">
        <ele>3153.26</ele>
        <time>2010-08-04T06:45:09Z</time>
      </trkpt>
      <trkpt lat="45.36359" lon="6.76774">
        <ele>3154.22</ele>
        <time>2010-08-04T06:45:11Z</time>
      </trkpt>
      <trkpt lat="45.36356" lon="6.76783">
        <ele>3151.34</ele>
        <time>2010-08-04T06:45:18Z</time>
      </trkpt>
      <trkpt lat="45.36354" lon="6.76787">
        <ele>3151.34</ele>
        <time>2010-08-04T06:45:21Z</time>
      </trkpt>
      <trkpt lat="45.36351" lon="6.76797">
        <ele>3147.97</ele>
        <time>2010-08-04T06:45:28Z</time>
      </trkpt>
      <trkpt lat="45.3635" lon="6.768">
        <ele>3150.86</ele>
        <time>2010-08-04T06:45:30Z</time>
      </trkpt>
      <trkpt lat="45.36347" lon="6.76807">
        <ele>3147.97</ele>
        <time>2010-08-04T06:45:35Z</time>
      </trkpt>
      <trkpt lat="45.36346" lon="6.76809">
        <ele>3146.53</ele>
        <time>2010-08-04T06:45:37Z</time>
      </trkpt>
      <trkpt lat="45.36339" lon="6.76822">
        <ele>3142.69</ele>
        <time>2010-08-04T06:45:46Z</time>
      </trkpt>
      <trkpt lat="45.36338" lon="6.76824">
        <ele>3144.61</ele>
        <time>2010-08-04T06:45:47Z</time>
      </trkpt>
      <trkpt lat="45.36335" lon="6.76835">
        <ele>3140.76</ele>
        <time>2010-08-04T06:45:54Z</time>
      </trkpt>
      <trkpt lat="45.36335" lon="6.76836">
        <ele>3140.76</ele>
        <time>2010-08-04T06:45:55Z</time>
      </trkpt>
      <trkpt lat="45.36334" lon="6.76839">
        <ele>3138.36</ele>
        <time>2010-08-04T06:45:57Z</time>
      </trkpt>
      <trkpt lat="45.36332" lon="6.76844">
        <ele>3142.21</ele>
        <time>2010-08-04T06:46:00Z</time>
      </trkpt>
      <trkpt lat="45.36326" lon="6.76856">
        <ele>3138.84</ele>
        <time>2010-08-04T06:46:09Z</time>
      </trkpt>
      <trkpt lat="45.36324" lon="6.76858">
        <ele>3137.4</ele>
        <time>2010-08-04T06:46:11Z</time>
      </trkpt>
      <trkpt lat="45.36323" lon="6.76863">
        <ele>3136.92</ele>
        <time>2010-08-04T06:46:14Z</time>
      </trkpt>
      <trkpt lat="45.3632" lon="6.7687">
        <ele>3134.04</ele>
        <time>2010-08-04T06:46:19Z</time>
      </trkpt>
      <trkpt lat="45.36309" lon="6.76884">
        <ele>3135.96</ele>
        <time>2010-08-04T06:46:31Z</time>
      </trkpt>
      <trkpt lat="45.36304" lon="6.76892">
        <ele>3135.48</ele>
        <time>2010-08-04T06:46:37Z</time>
      </trkpt>
      <trkpt lat="45.36303" lon="6.76896">
        <ele>3132.59</ele>
        <time>2010-08-04T06:46:40Z</time>
      </trkpt>
      <trkpt lat="45.363" lon="6.76901">
        <ele>3134.52</ele>
        <time>2010-08-04T06:46:44Z</time>
      </trkpt>
      <trkpt lat="45.36299" lon="6.76902">
        <ele>3134.52</ele>
        <time>2010-08-04T06:46:45Z</time>
      </trkpt>
      <trkpt lat="45.36296" lon="6.76906">
        <ele>3129.71</ele>
        <time>2010-08-04T06:46:48Z</time>
      </trkpt>
      <trkpt lat="45.36296" lon="6.76908">
        <ele>3130.67</ele>
        <time>2010-08-04T06:46:49Z</time>
      </trkpt>
      <trkpt lat="45.36293" lon="6.7691">
        <ele>3132.11</ele>
        <time>2010-08-04T06:46:51Z</time>
      </trkpt>
      <trkpt lat="45.36291" lon="6.76912">
        <ele>3130.67</ele>
        <time>2010-08-04T06:46:53Z</time>
      </trkpt>
      <trkpt lat="45.36287" lon="6.76915">
        <ele>3127.79</ele>
        <time>2010-08-04T06:46:57Z</time>
      </trkpt>
      <trkpt lat="45.36285" lon="6.76917">
        <ele>3130.19</ele>
        <time>2010-08-04T06:47:00Z</time>
      </trkpt>
      <trkpt lat="45.36279" lon="6.76921">
        <ele>3130.67</ele>
        <time>2010-08-04T06:47:06Z</time>
      </trkpt>
      <trkpt lat="45.36276" lon="6.76923">
        <ele>3129.23</ele>
        <time>2010-08-04T06:47:09Z</time>
      </trkpt>
      <trkpt lat="45.36267" lon="6.76928">
        <ele>3125.86</ele>
        <time>2010-08-04T06:47:17Z</time>
      </trkpt>
      <trkpt lat="45.36264" lon="6.76928">
        <ele>3129.71</ele>
        <time>2010-08-04T06:47:20Z</time>
      </trkpt>
      <trkpt lat="45.36252" lon="6.76932">
        <ele>3129.71</ele>
        <time>2010-08-04T06:47:32Z</time>
      </trkpt>
      <trkpt lat="45.36251" lon="6.76932">
        <ele>3129.71</ele>
        <time>2010-08-04T06:47:33Z</time>
      </trkpt>
      <trkpt lat="45.36248" lon="6.76935">
        <ele>3126.83</ele>
        <time>2010-08-04T06:47:36Z</time>
      </trkpt>
      <trkpt lat="45.36247" lon="6.76936">
        <ele>3126.34</ele>
        <time>2010-08-04T06:47:37Z</time>
      </trkpt>
      <trkpt lat="45.36234" lon="6.76943">
        <ele>3128.75</ele>
        <time>2010-08-04T06:47:50Z</time>
      </trkpt>
      <trkpt lat="45.3623" lon="6.76943">
        <ele>3126.34</ele>
        <time>2010-08-04T06:47:54Z</time>
      </trkpt>
      <trkpt lat="45.36227" lon="6.76943">
        <ele>3129.71</ele>
        <time>2010-08-04T06:47:56Z</time>
      </trkpt>
      <trkpt lat="45.36226" lon="6.76944">
        <ele>3125.38</ele>
        <time>2010-08-04T06:47:57Z</time>
      </trkpt>
      <trkpt lat="45.36225" lon="6.76944">
        <ele>3126.83</ele>
        <time>2010-08-04T06:47:58Z</time>
      </trkpt>
      <trkpt lat="45.36222" lon="6.76944">
        <ele>3128.75</ele>
        <time>2010-08-04T06:48:01Z</time>
      </trkpt>
      <trkpt lat="45.3622" lon="6.76942">
        <ele>3128.27</ele>
        <time>2010-08-04T06:48:04Z</time>
      </trkpt>
      <trkpt lat="45.36218" lon="6.7694">
        <ele>3125.86</ele>
        <time>2010-08-04T06:48:07Z</time>
      </trkpt>
      <trkpt lat="45.36213" lon="6.76937">
        <ele>3127.31</ele>
        <time>2010-08-04T06:48:12Z</time>
      </trkpt>
      <trkpt lat="45.36208" lon="6.76937">
        <ele>3126.34</ele>
        <time>2010-08-04T06:48:29Z</time>
      </trkpt>
      <trkpt lat="45.36208" lon="6.76937">
        <ele>3127.79</ele>
        <time>2010-08-04T06:48:31Z</time>
      </trkpt>
      <trkpt lat="45.36206" lon="6.76937">
        <ele>3127.79</ele>
        <time>2010-08-04T06:48:38Z</time>
      </trkpt>
      <trkpt lat="45.36205" lon="6.76938">
        <ele>3126.83</ele>
        <time>2010-08-04T06:48:52Z</time>
      </trkpt>
      <trkpt lat="45.36205" lon="6.76938">
        <ele>3127.31</ele>
        <time>2010-08-04T06:49:34Z</time>
      </trkpt>
      <trkpt lat="45.36206" lon="6.76938">
        <ele>3126.83</ele>
        <time>2010-08-04T06:49:42Z</time>
      </trkpt>
      <trkpt lat="45.36204" lon="6.76935">
        <ele>3126.83</ele>
        <time>2010-08-04T06:50:01Z</time>
      </trkpt>
      <trkpt lat="45.36204" lon="6.76935">
        <ele>3126.34</ele>
        <time>2010-08-04T06:53:08Z</time>
      </trkpt>
      <trkpt lat="45.36204" lon="6.76935">
        <ele>3125.86</ele>
        <time>2010-08-04T06:53:33Z</time>
      </trkpt>
      <trkpt lat="45.36204" lon="6.76935">
        <ele>3126.83</ele>
        <time>2010-08-04T06:54:39Z</time>
      </trkpt>
      <trkpt lat="45.36203" lon="6.76934">
        <ele>3126.83</ele>
        <time>2010-08-04T06:55:54Z</time>
      </trkpt>
      <trkpt lat="45.36201" lon="6.76933">
        <ele>3125.38</ele>
        <time>2010-08-04T06:55:56Z</time>
      </trkpt>
      <trkpt lat="45.36198" lon="6.76927">
        <ele>3126.34</ele>
        <time>2010-08-04T06:56:01Z</time>
      </trkpt>
      <trkpt lat="45.36192" lon="6.76915">
        <ele>3122.98</ele>
        <time>2010-08-04T06:56:11Z</time>
      </trkpt>
      <trkpt lat="45.36192" lon="6.76913">
        <ele>3126.34</ele>
        <time>2010-08-04T06:56:12Z</time>
      </trkpt>
      <trkpt lat="45.36187" lon="6.76901">
        <ele>3123.94</ele>
        <time>2010-08-04T06:56:23Z</time>
      </trkpt>
      <trkpt lat="45.36182" lon="6.76893">
        <ele>3123.94</ele>
        <time>2010-08-04T06:56:33Z</time>
      </trkpt>
      <trkpt lat="45.36179" lon="6.76887">
        <ele>3125.38</ele>
        <time>2010-08-04T06:56:38Z</time>
      </trkpt>
      <trkpt lat="45.36172" lon="6.76876">
        <ele>3122.98</ele>
        <time>2010-08-04T06:56:50Z</time>
      </trkpt>
      <trkpt lat="45.36165" lon="6.76864">
        <ele>3123.94</ele>
        <time>2010-08-04T06:57:02Z</time>
      </trkpt>
      <trkpt lat="45.36162" lon="6.76856">
        <ele>3122.98</ele>
        <time>2010-08-04T06:57:11Z</time>
      </trkpt>
      <trkpt lat="45.36156" lon="6.76845">
        <ele>3124.9</ele>
        <time>2010-08-04T06:57:22Z</time>
      </trkpt>
      <trkpt lat="45.36154" lon="6.76843">
        <ele>3122.02</ele>
        <time>2010-08-04T06:57:24Z</time>
      </trkpt>
      <trkpt lat="45.36154" lon="6.76842">
        <ele>3122.02</ele>
        <time>2010-08-04T06:57:25Z</time>
      </trkpt>
      <trkpt lat="45.36153" lon="6.7684">
        <ele>3125.38</ele>
        <time>2010-08-04T06:57:27Z</time>
      </trkpt>
      <trkpt lat="45.36153" lon="6.76839">
        <ele>3124.42</ele>
        <time>2010-08-04T06:57:28Z</time>
      </trkpt>
      <trkpt lat="45.36148" lon="6.76829">
        <ele>3123.46</ele>
        <time>2010-08-04T06:57:36Z</time>
      </trkpt>
      <trkpt lat="45.36144" lon="6.76819">
        <ele>3123.46</ele>
        <time>2010-08-04T06:57:45Z</time>
      </trkpt>
      <trkpt lat="45.36138" lon="6.76807">
        <ele>3123.94</ele>
        <time>2010-08-04T06:57:57Z</time>
      </trkpt>
      <trkpt lat="45.36132" lon="6.76794">
        <ele>3122.98</ele>
        <time>2010-08-04T06:58:09Z</time>
      </trkpt>
      <trkpt lat="45.36128" lon="6.76786">
        <ele>3126.34</ele>
        <time>2010-08-04T06:58:16Z</time>
      </trkpt>
      <trkpt lat="45.36127" lon="6.76783">
        <ele>3122.98</ele>
        <time>2010-08-04T06:58:19Z</time>
      </trkpt>
      <trkpt lat="45.36124" lon="6.76776">
        <ele>3122.98</ele>
        <time>2010-08-04T06:58:26Z</time>
      </trkpt>
      <trkpt lat="45.36123" lon="6.76774">
        <ele>3125.38</ele>
        <time>2010-08-04T06:58:28Z</time>
      </trkpt>
      <trkpt lat="45.36119" lon="6.76767">
        <ele>3122.02</ele>
        <time>2010-08-04T06:58:35Z</time>
      </trkpt>
      <trkpt lat="45.36116" lon="6.76762">
        <ele>3124.9</ele>
        <time>2010-08-04T06:58:41Z</time>
      </trkpt>
      <trkpt lat="45.36113" lon="6.76757">
        <ele>3121.06</ele>
        <time>2010-08-04T06:58:46Z</time>
      </trkpt>
      <trkpt lat="45.36111" lon="6.76755">
        <ele>3124.42</ele>
        <time>2010-08-04T06:58:49Z</time>
      </trkpt>
      <trkpt lat="45.36104" lon="6.76741">
        <ele>3124.9</ele>
        <time>2010-08-04T06:59:02Z</time>
      </trkpt>
      <trkpt lat="45.36097" lon="6.76727">
        <ele>3126.83</ele>
        <time>2010-08-04T06:59:16Z</time>
      </trkpt>
      <trkpt lat="45.36096" lon="6.76724">
        <ele>3122.98</ele>
        <time>2010-08-04T06:59:19Z</time>
      </trkpt>
      <trkpt lat="45.3609" lon="6.76713">
        <ele>3125.38</ele>
        <time>2010-08-04T06:59:29Z</time>
      </trkpt>
      <trkpt lat="45.36087" lon="6.76709">
        <ele>3126.34</ele>
        <time>2010-08-04T06:59:33Z</time>
      </trkpt>
      <trkpt lat="45.36086" lon="6.76708">
        <ele>3125.86</ele>
        <time>2010-08-04T06:59:35Z</time>
      </trkpt>
      <trkpt lat="45.36078" lon="6.76695">
        <ele>3126.34</ele>
        <time>2010-08-04T06:59:49Z</time>
      </trkpt>
      <trkpt lat="45.36073" lon="6.7669">
        <ele>3127.31</ele>
        <time>2010-08-04T06:59:56Z</time>
      </trkpt>
      <trkpt lat="45.36063" lon="6.76676">
        <ele>3127.79</ele>
        <time>2010-08-04T07:00:11Z</time>
      </trkpt>
      <trkpt lat="45.36058" lon="6.7667">
        <ele>3123.94</ele>
        <time>2010-08-04T07:00:19Z</time>
      </trkpt>
      <trkpt lat="45.36057" lon="6.76669">
        <ele>3128.75</ele>
        <time>2010-08-04T07:00:20Z</time>
      </trkpt>
      <trkpt lat="45.36057" lon="6.76668">
        <ele>3125.38</ele>
        <time>2010-08-04T07:00:21Z</time>
      </trkpt>
      <trkpt lat="45.36056" lon="6.76666">
        <ele>3129.71</ele>
        <time>2010-08-04T07:00:23Z</time>
      </trkpt>
      <trkpt lat="45.36055" lon="6.76665">
        <ele>3123.94</ele>
        <time>2010-08-04T07:00:24Z</time>
      </trkpt>
      <trkpt lat="45.36055" lon="6.76664">
        <ele>3128.27</ele>
        <time>2010-08-04T07:00:25Z</time>
      </trkpt>
      <trkpt lat="45.36048" lon="6.76655">
        <ele>3129.23</ele>
        <time>2010-08-04T07:00:38Z</time>
      </trkpt>
      <trkpt lat="45.36046" lon="6.76653">
        <ele>3128.75</ele>
        <time>2010-08-04T07:00:43Z</time>
      </trkpt>
      <trkpt lat="45.36045" lon="6.7665">
        <ele>3130.67</ele>
        <time>2010-08-04T07:00:46Z</time>
      </trkpt>
      <trkpt lat="45.3604" lon="6.76643">
        <ele>3127.31</ele>
        <time>2010-08-04T07:00:53Z</time>
      </trkpt>
      <trkpt lat="45.36035" lon="6.76634">
        <ele>3131.15</ele>
        <time>2010-08-04T07:01:02Z</time>
      </trkpt>
      <trkpt lat="45.36032" lon="6.7663">
        <ele>3127.79</ele>
        <time>2010-08-04T07:01:07Z</time>
      </trkpt>
      <trkpt lat="45.3603" lon="6.76627">
        <ele>3129.71</ele>
        <time>2010-08-04T07:01:09Z</time>
      </trkpt>
      <trkpt lat="45.36023" lon="6.76616">
        <ele>3130.67</ele>
        <time>2010-08-04T07:01:22Z</time>
      </trkpt>
      <trkpt lat="45.36018" lon="6.7661">
        <ele>3130.19</ele>
        <time>2010-08-04T07:01:29Z</time>
      </trkpt>
      <trkpt lat="45.36015" lon="6.76605">
        <ele>3132.11</ele>
        <time>2010-08-04T07:01:34Z</time>
      </trkpt>
      <trkpt lat="45.36013" lon="6.76603">
        <ele>3129.71</ele>
        <time>2010-08-04T07:01:37Z</time>
      </trkpt>
      <trkpt lat="45.36011" lon="6.76598">
        <ele>3130.19</ele>
        <time>2010-08-04T07:01:41Z</time>
      </trkpt>
      <trkpt lat="45.36008" lon="6.76593">
        <ele>3134.04</ele>
        <time>2010-08-04T07:01:46Z</time>
      </trkpt>
      <trkpt lat="45.36006" lon="6.76591">
        <ele>3129.71</ele>
        <time>2010-08-04T07:01:49Z</time>
      </trkpt>
      <trkpt lat="45.36" lon="6.76582">
        <ele>3131.63</ele>
        <time>2010-08-04T07:01:58Z</time>
      </trkpt>
      <trkpt lat="45.35998" lon="6.76579">
        <ele>3128.27</ele>
        <time>2010-08-04T07:02:01Z</time>
      </trkpt>
      <trkpt lat="45.35996" lon="6.76576">
        <ele>3129.71</ele>
        <time>2010-08-04T07:02:04Z</time>
      </trkpt>
      <trkpt lat="45.35992" lon="6.76569">
        <ele>3130.19</ele>
        <time>2010-08-04T07:02:10Z</time>
      </trkpt>
      <trkpt lat="45.3599" lon="6.76567">
        <ele>3131.15</ele>
        <time>2010-08-04T07:02:12Z</time>
      </trkpt>
      <trkpt lat="45.35986" lon="6.76559">
        <ele>3129.23</ele>
        <time>2010-08-04T07:02:18Z</time>
      </trkpt>
      <trkpt lat="45.35985" lon="6.76558">
        <ele>3131.15</ele>
        <time>2010-08-04T07:02:19Z</time>
      </trkpt>
      <trkpt lat="45.35984" lon="6.76556">
        <ele>3132.11</ele>
        <time>2010-08-04T07:02:21Z</time>
      </trkpt>
      <trkpt lat="45.35982" lon="6.76555">
        <ele>3128.27</ele>
        <time>2010-08-04T07:02:23Z</time>
      </trkpt>
      <trkpt lat="45.3598" lon="6.76552">
        <ele>3129.23</ele>
        <time>2010-08-04T07:02:28Z</time>
      </trkpt>
      <trkpt lat="45.35978" lon="6.76548">
        <ele>3125.38</ele>
        <time>2010-08-04T07:02:32Z</time>
      </trkpt>
      <trkpt lat="45.35977" lon="6.76548">
        <ele>3128.75</ele>
        <time>2010-08-04T07:02:33Z</time>
      </trkpt>
      <trkpt lat="45.35976" lon="6.76546">
        <ele>3130.67</ele>
        <time>2010-08-04T07:02:35Z</time>
      </trkpt>
      <trkpt lat="45.35975" lon="6.76545">
        <ele>3130.19</ele>
        <time>2010-08-04T07:02:36Z</time>
      </trkpt>
      <trkpt lat="45.35973" lon="6.76542">
        <ele>3123.46</ele>
        <time>2010-08-04T07:02:39Z</time>
      </trkpt>
      <trkpt lat="45.35973" lon="6.76541">
        <ele>3128.27</ele>
        <time>2010-08-04T07:02:40Z</time>
      </trkpt>
      <trkpt lat="45.35972" lon="6.76539">
        <ele>3124.42</ele>
        <time>2010-08-04T07:02:42Z</time>
      </trkpt>
      <trkpt lat="45.35971" lon="6.76537">
        <ele>3129.23</ele>
        <time>2010-08-04T07:02:43Z</time>
      </trkpt>
      <trkpt lat="45.35968" lon="6.76533">
        <ele>3125.38</ele>
        <time>2010-08-04T07:02:47Z</time>
      </trkpt>
      <trkpt lat="45.35968" lon="6.76532">
        <ele>3128.75</ele>
        <time>2010-08-04T07:02:48Z</time>
      </trkpt>
      <trkpt lat="45.35967" lon="6.76531">
        <ele>3124.42</ele>
        <time>2010-08-04T07:02:49Z</time>
      </trkpt>
      <trkpt lat="45.35966" lon="6.76529">
        <ele>3129.71</ele>
        <time>2010-08-04T07:02:51Z</time>
      </trkpt>
      <trkpt lat="45.35965" lon="6.76528">
        <ele>3127.79</ele>
        <time>2010-08-04T07:02:52Z</time>
      </trkpt>
      <trkpt lat="45.35965" lon="6.76526">
        <ele>3131.15</ele>
        <time>2010-08-04T07:02:54Z</time>
      </trkpt>
      <trkpt lat="45.35961" lon="6.76519">
        <ele>3128.27</ele>
        <time>2010-08-04T07:03:00Z</time>
      </trkpt>
      <trkpt lat="45.3596" lon="6.76518">
        <ele>3126.34</ele>
        <time>2010-08-04T07:03:02Z</time>
      </trkpt>
      <trkpt lat="45.35959" lon="6.76517">
        <ele>3126.83</ele>
        <time>2010-08-04T07:03:03Z</time>
      </trkpt>
      <trkpt lat="45.35957" lon="6.76515">
        <ele>3124.42</ele>
        <time>2010-08-04T07:03:05Z</time>
      </trkpt>
      <trkpt lat="45.35953" lon="6.76508">
        <ele>3128.27</ele>
        <time>2010-08-04T07:03:11Z</time>
      </trkpt>
      <trkpt lat="45.35952" lon="6.76506">
        <ele>3124.42</ele>
        <time>2010-08-04T07:03:13Z</time>
      </trkpt>
      <trkpt lat="45.35951" lon="6.76505">
        <ele>3126.34</ele>
        <time>2010-08-04T07:03:14Z</time>
      </trkpt>
      <trkpt lat="45.35947" lon="6.765">
        <ele>3130.19</ele>
        <time>2010-08-04T07:03:21Z</time>
      </trkpt>
      <trkpt lat="45.35946" lon="6.76499">
        <ele>3127.31</ele>
        <time>2010-08-04T07:03:22Z</time>
      </trkpt>
      <trkpt lat="45.35945" lon="6.76496">
        <ele>3126.34</ele>
        <time>2010-08-04T07:03:24Z</time>
      </trkpt>
      <trkpt lat="45.35943" lon="6.76495">
        <ele>3127.31</ele>
        <time>2010-08-04T07:03:26Z</time>
      </trkpt>
      <trkpt lat="45.35939" lon="6.76489">
        <ele>3123.46</ele>
        <time>2010-08-04T07:03:31Z</time>
      </trkpt>
      <trkpt lat="45.35938" lon="6.76488">
        <ele>3125.38</ele>
        <time>2010-08-04T07:03:32Z</time>
      </trkpt>
      <trkpt lat="45.35936" lon="6.76485">
        <ele>3122.02</ele>
        <time>2010-08-04T07:03:36Z</time>
      </trkpt>
      <trkpt lat="45.35934" lon="6.76484">
        <ele>3125.86</ele>
        <time>2010-08-04T07:03:45Z</time>
      </trkpt>
      <trkpt lat="45.35934" lon="6.76483">
        <ele>3122.02</ele>
        <time>2010-08-04T07:03:47Z</time>
      </trkpt>
      <trkpt lat="45.35934" lon="6.76483">
        <ele>3123.46</ele>
        <time>2010-08-04T07:03:49Z</time>
      </trkpt>
      <trkpt lat="45.35933" lon="6.76477">
        <ele>3123.46</ele>
        <time>2010-08-04T07:03:53Z</time>
      </trkpt>
      <trkpt lat="45.35932" lon="6.76466">
        <ele>3117.69</ele>
        <time>2010-08-04T07:03:59Z</time>
      </trkpt>
      <trkpt lat="45.35932" lon="6.76448">
        <ele>3116.73</ele>
        <time>2010-08-04T07:04:11Z</time>
      </trkpt>
      <trkpt lat="45.35932" lon="6.76444">
        <ele>3112.89</ele>
        <time>2010-08-04T07:04:14Z</time>
      </trkpt>
      <trkpt lat="45.35932" lon="6.76443">
        <ele>3110.96</ele>
        <time>2010-08-04T07:04:15Z</time>
      </trkpt>
      <trkpt lat="45.35933" lon="6.76438">
        <ele>3112.89</ele>
        <time>2010-08-04T07:04:18Z</time>
      </trkpt>
      <trkpt lat="45.35933" lon="6.76434">
        <ele>3113.85</ele>
        <time>2010-08-04T07:04:21Z</time>
      </trkpt>
      <trkpt lat="45.35933" lon="6.76429">
        <ele>3108.56</ele>
        <time>2010-08-04T07:04:24Z</time>
      </trkpt>
      <trkpt lat="45.35933" lon="6.76427">
        <ele>3109.04</ele>
        <time>2010-08-04T07:04:25Z</time>
      </trkpt>
      <trkpt lat="45.35934" lon="6.76417">
        <ele>3109.52</ele>
        <time>2010-08-04T07:04:32Z</time>
      </trkpt>
      <trkpt lat="45.35934" lon="6.76415">
        <ele>3105.68</ele>
        <time>2010-08-04T07:04:33Z</time>
      </trkpt>
      <trkpt lat="45.35933" lon="6.76407">
        <ele>3106.16</ele>
        <time>2010-08-04T07:04:38Z</time>
      </trkpt>
      <trkpt lat="45.35933" lon="6.76386">
        <ele>3103.27</ele>
        <time>2010-08-04T07:04:50Z</time>
      </trkpt>
      <trkpt lat="45.35932" lon="6.76382">
        <ele>3106.64</ele>
        <time>2010-08-04T07:04:52Z</time>
      </trkpt>
      <trkpt lat="45.35932" lon="6.7638">
        <ele>3105.68</ele>
        <time>2010-08-04T07:04:53Z</time>
      </trkpt>
      <trkpt lat="45.35932" lon="6.76377">
        <ele>3101.35</ele>
        <time>2010-08-04T07:04:55Z</time>
      </trkpt>
      <trkpt lat="45.35932" lon="6.76375">
        <ele>3104.23</ele>
        <time>2010-08-04T07:04:56Z</time>
      </trkpt>
      <trkpt lat="45.35931" lon="6.76367">
        <ele>3100.87</ele>
        <time>2010-08-04T07:05:02Z</time>
      </trkpt>
      <trkpt lat="45.35931" lon="6.76367">
        <ele>3100.39</ele>
        <time>2010-08-04T07:05:03Z</time>
      </trkpt>
      <trkpt lat="45.3593" lon="6.76357">
        <ele>3099.43</ele>
        <time>2010-08-04T07:05:16Z</time>
      </trkpt>
      <trkpt lat="45.35929" lon="6.76352">
        <ele>3095.58</ele>
        <time>2010-08-04T07:05:20Z</time>
      </trkpt>
      <trkpt lat="45.35929" lon="6.76351">
        <ele>3099.91</ele>
        <time>2010-08-04T07:05:21Z</time>
      </trkpt>
      <trkpt lat="45.35929" lon="6.76349">
        <ele>3099.43</ele>
        <time>2010-08-04T07:05:22Z</time>
      </trkpt>
      <trkpt lat="45.35928" lon="6.76342">
        <ele>3095.1</ele>
        <time>2010-08-04T07:05:26Z</time>
      </trkpt>
      <trkpt lat="45.35927" lon="6.7634">
        <ele>3093.66</ele>
        <time>2010-08-04T07:05:28Z</time>
      </trkpt>
      <trkpt lat="45.35926" lon="6.76334">
        <ele>3096.54</ele>
        <time>2010-08-04T07:05:32Z</time>
      </trkpt>
      <trkpt lat="45.35925" lon="6.7633">
        <ele>3091.74</ele>
        <time>2010-08-04T07:05:35Z</time>
      </trkpt>
      <trkpt lat="45.35924" lon="6.76322">
        <ele>3095.1</ele>
        <time>2010-08-04T07:05:41Z</time>
      </trkpt>
      <trkpt lat="45.35923" lon="6.76316">
        <ele>3091.74</ele>
        <time>2010-08-04T07:05:45Z</time>
      </trkpt>
      <trkpt lat="45.35922" lon="6.76314">
        <ele>3091.74</ele>
        <time>2010-08-04T07:05:46Z</time>
      </trkpt>
      <trkpt lat="45.35921" lon="6.76312">
        <ele>3088.37</ele>
        <time>2010-08-04T07:05:48Z</time>
      </trkpt>
      <trkpt lat="45.35921" lon="6.76311">
        <ele>3088.37</ele>
        <time>2010-08-04T07:05:49Z</time>
      </trkpt>
      <trkpt lat="45.3592" lon="6.76304">
        <ele>3087.41</ele>
        <time>2010-08-04T07:05:54Z</time>
      </trkpt>
      <trkpt lat="45.35917" lon="6.76294">
        <ele>3086.45</ele>
        <time>2010-08-04T07:06:02Z</time>
      </trkpt>
      <trkpt lat="45.35915" lon="6.76291">
        <ele>3084.05</ele>
        <time>2010-08-04T07:06:05Z</time>
      </trkpt>
      <trkpt lat="45.35914" lon="6.76285">
        <ele>3083.09</ele>
        <time>2010-08-04T07:06:09Z</time>
      </trkpt>
      <trkpt lat="45.35913" lon="6.76282">
        <ele>3080.68</ele>
        <time>2010-08-04T07:06:13Z</time>
      </trkpt>
      <trkpt lat="45.35908" lon="6.76269">
        <ele>3077.8</ele>
        <time>2010-08-04T07:06:25Z</time>
      </trkpt>
      <trkpt lat="45.35908" lon="6.76269">
        <ele>3077.8</ele>
        <time>2010-08-04T07:06:26Z</time>
      </trkpt>
      <trkpt lat="45.35906" lon="6.76266">
        <ele>3075.88</ele>
        <time>2010-08-04T07:06:29Z</time>
      </trkpt>
      <trkpt lat="45.35904" lon="6.76261">
        <ele>3073.47</ele>
        <time>2010-08-04T07:06:34Z</time>
      </trkpt>
      <trkpt lat="45.35902" lon="6.7626">
        <ele>3071.07</ele>
        <time>2010-08-04T07:06:36Z</time>
      </trkpt>
      <trkpt lat="45.35899" lon="6.76256">
        <ele>3067.7</ele>
        <time>2010-08-04T07:06:41Z</time>
      </trkpt>
      <trkpt lat="45.35891" lon="6.76249">
        <ele>3067.7</ele>
        <time>2010-08-04T07:06:52Z</time>
      </trkpt>
      <trkpt lat="45.3589" lon="6.7625">
        <ele>3064.82</ele>
        <time>2010-08-04T07:07:05Z</time>
      </trkpt>
      <trkpt lat="45.35891" lon="6.7625">
        <ele>3064.34</ele>
        <time>2010-08-04T07:08:07Z</time>
      </trkpt>
      <trkpt lat="45.35891" lon="6.7625">
        <ele>3064.82</ele>
        <time>2010-08-04T07:08:53Z</time>
      </trkpt>
      <trkpt lat="45.35889" lon="6.76249">
        <ele>3062.42</ele>
        <time>2010-08-04T07:10:27Z</time>
      </trkpt>
      <trkpt lat="45.35883" lon="6.76246">
        <ele>3060.98</ele>
        <time>2010-08-04T07:10:35Z</time>
      </trkpt>
      <trkpt lat="45.35877" lon="6.76244">
        <ele>3055.69</ele>
        <time>2010-08-04T07:10:47Z</time>
      </trkpt>
      <trkpt lat="45.35876" lon="6.76243">
        <ele>3055.69</ele>
        <time>2010-08-04T07:10:48Z</time>
      </trkpt>
      <trkpt lat="45.35871" lon="6.76241">
        <ele>3054.73</ele>
        <time>2010-08-04T07:10:55Z</time>
      </trkpt>
      <trkpt lat="45.35866" lon="6.7624">
        <ele>3051.36</ele>
        <time>2010-08-04T07:11:01Z</time>
      </trkpt>
      <trkpt lat="45.35865" lon="6.7624">
        <ele>3050.88</ele>
        <time>2010-08-04T07:11:04Z</time>
      </trkpt>
      <trkpt lat="45.35861" lon="6.76243">
        <ele>3049.44</ele>
        <time>2010-08-04T07:11:09Z</time>
      </trkpt>
      <trkpt lat="45.35852" lon="6.76245">
        <ele>3044.63</ele>
        <time>2010-08-04T07:11:20Z</time>
      </trkpt>
      <trkpt lat="45.35845" lon="6.76246">
        <ele>3041.27</ele>
        <time>2010-08-04T07:11:29Z</time>
      </trkpt>
      <trkpt lat="45.35837" lon="6.76247">
        <ele>3037.9</ele>
        <time>2010-08-04T07:11:38Z</time>
      </trkpt>
      <trkpt lat="45.35836" lon="6.76247">
        <ele>3038.86</ele>
        <time>2010-08-04T07:11:39Z</time>
      </trkpt>
      <trkpt lat="45.35833" lon="6.76247">
        <ele>3038.86</ele>
        <time>2010-08-04T07:11:42Z</time>
      </trkpt>
      <trkpt lat="45.35828" lon="6.7625">
        <ele>3036.94</ele>
        <time>2010-08-04T07:11:48Z</time>
      </trkpt>
      <trkpt lat="45.35824" lon="6.76253">
        <ele>3035.02</ele>
        <time>2010-08-04T07:11:52Z</time>
      </trkpt>
      <trkpt lat="45.35823" lon="6.76254">
        <ele>3033.58</ele>
        <time>2010-08-04T07:11:54Z</time>
      </trkpt>
      <trkpt lat="45.35821" lon="6.76254">
        <ele>3034.54</ele>
        <time>2010-08-04T07:11:56Z</time>
      </trkpt>
      <trkpt lat="45.35819" lon="6.76256">
        <ele>3033.1</ele>
        <time>2010-08-04T07:11:59Z</time>
      </trkpt>
      <trkpt lat="45.35818" lon="6.76256">
        <ele>3033.58</ele>
        <time>2010-08-04T07:12:00Z</time>
      </trkpt>
      <trkpt lat="45.35813" lon="6.76259">
        <ele>3032.62</ele>
        <time>2010-08-04T07:12:04Z</time>
      </trkpt>
      <trkpt lat="45.35811" lon="6.76261">
        <ele>3031.66</ele>
        <time>2010-08-04T07:12:19Z</time>
      </trkpt>
      <trkpt lat="45.35808" lon="6.76261">
        <ele>3030.69</ele>
        <time>2010-08-04T07:12:52Z</time>
      </trkpt>
      <trkpt lat="45.35805" lon="6.76263">
        <ele>3032.62</ele>
        <time>2010-08-04T07:12:56Z</time>
      </trkpt>
      <trkpt lat="45.35803" lon="6.76264">
        <ele>3030.21</ele>
        <time>2010-08-04T07:12:58Z</time>
      </trkpt>
      <trkpt lat="45.35799" lon="6.76265">
        <ele>3029.73</ele>
        <time>2010-08-04T07:13:02Z</time>
      </trkpt>
      <trkpt lat="45.35792" lon="6.76267">
        <ele>3026.37</ele>
        <time>2010-08-04T07:13:10Z</time>
      </trkpt>
      <trkpt lat="45.35783" lon="6.76269">
        <ele>3024.93</ele>
        <time>2010-08-04T07:13:19Z</time>
      </trkpt>
      <trkpt lat="45.35782" lon="6.7627">
        <ele>3025.89</ele>
        <time>2010-08-04T07:13:20Z</time>
      </trkpt>
      <trkpt lat="45.35777" lon="6.76272">
        <ele>3026.85</ele>
        <time>2010-08-04T07:13:26Z</time>
      </trkpt>
      <trkpt lat="45.35775" lon="6.76271">
        <ele>3023</ele>
        <time>2010-08-04T07:13:28Z</time>
      </trkpt>
      <trkpt lat="45.35772" lon="6.76272">
        <ele>3025.41</ele>
        <time>2010-08-04T07:13:31Z</time>
      </trkpt>
      <trkpt lat="45.35769" lon="6.76272">
        <ele>3023.48</ele>
        <time>2010-08-04T07:13:33Z</time>
      </trkpt>
      <trkpt lat="45.35766" lon="6.76272">
        <ele>3022.52</ele>
        <time>2010-08-04T07:13:36Z</time>
      </trkpt>
      <trkpt lat="45.35761" lon="6.76271">
        <ele>3023</ele>
        <time>2010-08-04T07:13:41Z</time>
      </trkpt>
      <trkpt lat="45.35754" lon="6.76271">
        <ele>3023</ele>
        <time>2010-08-04T07:13:49Z</time>
      </trkpt>
      <trkpt lat="45.35748" lon="6.76271">
        <ele>3020.12</ele>
        <time>2010-08-04T07:13:54Z</time>
      </trkpt>
      <trkpt lat="45.35741" lon="6.7627">
        <ele>3016.75</ele>
        <time>2010-08-04T07:14:01Z</time>
      </trkpt>
      <trkpt lat="45.35741" lon="6.7627">
        <ele>3017.23</ele>
        <time>2010-08-04T07:14:02Z</time>
      </trkpt>
      <trkpt lat="45.35737" lon="6.76269">
        <ele>3015.31</ele>
        <time>2010-08-04T07:14:10Z</time>
      </trkpt>
      <trkpt lat="45.35736" lon="6.76269">
        <ele>3011.95</ele>
        <time>2010-08-04T07:14:12Z</time>
      </trkpt>
      <trkpt lat="45.35736" lon="6.76269">
        <ele>3014.83</ele>
        <time>2010-08-04T07:14:13Z</time>
      </trkpt>
      <trkpt lat="45.35731" lon="6.76269">
        <ele>3013.87</ele>
        <time>2010-08-04T07:14:20Z</time>
      </trkpt>
      <trkpt lat="45.35728" lon="6.76269">
        <ele>3010.51</ele>
        <time>2010-08-04T07:14:24Z</time>
      </trkpt>
      <trkpt lat="45.35723" lon="6.76265">
        <ele>3007.62</ele>
        <time>2010-08-04T07:14:31Z</time>
      </trkpt>
      <trkpt lat="45.35722" lon="6.76265">
        <ele>3009.06</ele>
        <time>2010-08-04T07:14:32Z</time>
      </trkpt>
      <trkpt lat="45.35713" lon="6.76261">
        <ele>3008.58</ele>
        <time>2010-08-04T07:14:41Z</time>
      </trkpt>
      <trkpt lat="45.35707" lon="6.76261">
        <ele>3003.78</ele>
        <time>2010-08-04T07:14:47Z</time>
      </trkpt>
      <trkpt lat="45.35706" lon="6.7626">
        <ele>3004.26</ele>
        <time>2010-08-04T07:14:48Z</time>
      </trkpt>
      <trkpt lat="45.35701" lon="6.76258">
        <ele>3003.78</ele>
        <time>2010-08-04T07:14:52Z</time>
      </trkpt>
      <trkpt lat="45.35693" lon="6.76255">
        <ele>3003.3</ele>
        <time>2010-08-04T07:15:02Z</time>
      </trkpt>
      <trkpt lat="45.35689" lon="6.76253">
        <ele>2999.93</ele>
        <time>2010-08-04T07:15:05Z</time>
      </trkpt>
      <trkpt lat="45.35682" lon="6.76249">
        <ele>2999.93</ele>
        <time>2010-08-04T07:15:14Z</time>
      </trkpt>
      <trkpt lat="45.35679" lon="6.76247">
        <ele>3000.41</ele>
        <time>2010-08-04T07:15:20Z</time>
      </trkpt>
      <trkpt lat="45.35678" lon="6.76242">
        <ele>2997.53</ele>
        <time>2010-08-04T07:15:24Z</time>
      </trkpt>
      <trkpt lat="45.35676" lon="6.7624">
        <ele>2996.09</ele>
        <time>2010-08-04T07:15:26Z</time>
      </trkpt>
      <trkpt lat="45.35674" lon="6.76238">
        <ele>2993.68</ele>
        <time>2010-08-04T07:15:35Z</time>
      </trkpt>
      <trkpt lat="45.35671" lon="6.76238">
        <ele>2996.57</ele>
        <time>2010-08-04T07:15:42Z</time>
      </trkpt>
      <trkpt lat="45.3567" lon="6.76241">
        <ele>2995.6</ele>
        <time>2010-08-04T07:15:48Z</time>
      </trkpt>
      <trkpt lat="45.35669" lon="6.76244">
        <ele>2996.09</ele>
        <time>2010-08-04T07:15:52Z</time>
      </trkpt>
      <trkpt lat="45.35667" lon="6.76245">
        <ele>2995.6</ele>
        <time>2010-08-04T07:15:55Z</time>
      </trkpt>
      <trkpt lat="45.35662" lon="6.76242">
        <ele>2996.57</ele>
        <time>2010-08-04T07:16:02Z</time>
      </trkpt>
      <trkpt lat="45.3566" lon="6.7624">
        <ele>2997.05</ele>
        <time>2010-08-04T07:16:04Z</time>
      </trkpt>
      <trkpt lat="45.35659" lon="6.76238">
        <ele>2993.68</ele>
        <time>2010-08-04T07:16:06Z</time>
      </trkpt>
      <trkpt lat="45.35658" lon="6.76236">
        <ele>2994.64</ele>
        <time>2010-08-04T07:16:07Z</time>
      </trkpt>
      <trkpt lat="45.35657" lon="6.76229">
        <ele>2991.28</ele>
        <time>2010-08-04T07:16:15Z</time>
      </trkpt>
      <trkpt lat="45.35657" lon="6.76228">
        <ele>2992.72</ele>
        <time>2010-08-04T07:16:16Z</time>
      </trkpt>
      <trkpt lat="45.35652" lon="6.76222">
        <ele>2989.36</ele>
        <time>2010-08-04T07:16:25Z</time>
      </trkpt>
      <trkpt lat="45.35648" lon="6.76215">
        <ele>2986.95</ele>
        <time>2010-08-04T07:16:33Z</time>
      </trkpt>
      <trkpt lat="45.35647" lon="6.76214">
        <ele>2985.99</ele>
        <time>2010-08-04T07:16:35Z</time>
      </trkpt>
      <trkpt lat="45.35646" lon="6.76211">
        <ele>2986.95</ele>
        <time>2010-08-04T07:16:37Z</time>
      </trkpt>
      <trkpt lat="45.35643" lon="6.76208">
        <ele>2985.51</ele>
        <time>2010-08-04T07:16:41Z</time>
      </trkpt>
      <trkpt lat="45.35641" lon="6.76206">
        <ele>2982.63</ele>
        <time>2010-08-04T07:16:43Z</time>
      </trkpt>
      <trkpt lat="45.3564" lon="6.76205">
        <ele>2983.59</ele>
        <time>2010-08-04T07:16:44Z</time>
      </trkpt>
      <trkpt lat="45.35631" lon="6.76202">
        <ele>2984.55</ele>
        <time>2010-08-04T07:16:54Z</time>
      </trkpt>
      <trkpt lat="45.3563" lon="6.76201">
        <ele>2981.67</ele>
        <time>2010-08-04T07:16:56Z</time>
      </trkpt>
      <trkpt lat="45.35627" lon="6.762">
        <ele>2985.03</ele>
        <time>2010-08-04T07:16:58Z</time>
      </trkpt>
      <trkpt lat="45.35626" lon="6.762">
        <ele>2984.07</ele>
        <time>2010-08-04T07:16:59Z</time>
      </trkpt>
      <trkpt lat="45.35618" lon="6.76196">
        <ele>2984.55</ele>
        <time>2010-08-04T07:17:08Z</time>
      </trkpt>
      <trkpt lat="45.35614" lon="6.76193">
        <ele>2983.11</ele>
        <time>2010-08-04T07:17:13Z</time>
      </trkpt>
      <trkpt lat="45.35602" lon="6.76188">
        <ele>2983.11</ele>
        <time>2010-08-04T07:17:25Z</time>
      </trkpt>
      <trkpt lat="45.35592" lon="6.76179">
        <ele>2985.51</ele>
        <time>2010-08-04T07:17:35Z</time>
      </trkpt>
      <trkpt lat="45.3559" lon="6.76177">
        <ele>2982.15</ele>
        <time>2010-08-04T07:17:37Z</time>
      </trkpt>
      <trkpt lat="45.35582" lon="6.76172">
        <ele>2984.07</ele>
        <time>2010-08-04T07:17:48Z</time>
      </trkpt>
      <trkpt lat="45.3558" lon="6.76171">
        <ele>2980.22</ele>
        <time>2010-08-04T07:17:51Z</time>
      </trkpt>
      <trkpt lat="45.35574" lon="6.76166">
        <ele>2982.63</ele>
        <time>2010-08-04T07:17:57Z</time>
      </trkpt>
      <trkpt lat="45.3557" lon="6.76164">
        <ele>2981.67</ele>
        <time>2010-08-04T07:18:02Z</time>
      </trkpt>
      <trkpt lat="45.35566" lon="6.76161">
        <ele>2982.63</ele>
        <time>2010-08-04T07:18:07Z</time>
      </trkpt>
      <trkpt lat="45.35563" lon="6.76159">
        <ele>2979.26</ele>
        <time>2010-08-04T07:18:11Z</time>
      </trkpt>
      <trkpt lat="45.35562" lon="6.76158">
        <ele>2980.71</ele>
        <time>2010-08-04T07:18:13Z</time>
      </trkpt>
      <trkpt lat="45.35552" lon="6.7615">
        <ele>2977.82</ele>
        <time>2010-08-04T07:18:22Z</time>
      </trkpt>
      <trkpt lat="45.35551" lon="6.76147">
        <ele>2977.34</ele>
        <time>2010-08-04T07:18:24Z</time>
      </trkpt>
      <trkpt lat="45.35547" lon="6.76141">
        <ele>2975.9</ele>
        <time>2010-08-04T07:18:37Z</time>
      </trkpt>
      <trkpt lat="45.35545" lon="6.76139">
        <ele>2976.38</ele>
        <time>2010-08-04T07:18:42Z</time>
      </trkpt>
      <trkpt lat="45.35534" lon="6.76137">
        <ele>2974.94</ele>
        <time>2010-08-04T07:18:54Z</time>
      </trkpt>
      <trkpt lat="45.35532" lon="6.76136">
        <ele>2973.5</ele>
        <time>2010-08-04T07:18:56Z</time>
      </trkpt>
      <trkpt lat="45.3553" lon="6.76135">
        <ele>2975.42</ele>
        <time>2010-08-04T07:18:59Z</time>
      </trkpt>
      <trkpt lat="45.35518" lon="6.76123">
        <ele>2972.05</ele>
        <time>2010-08-04T07:19:11Z</time>
      </trkpt>
      <trkpt lat="45.35512" lon="6.76116">
        <ele>2968.21</ele>
        <time>2010-08-04T07:19:18Z</time>
      </trkpt>
      <trkpt lat="45.35511" lon="6.76115">
        <ele>2972.05</ele>
        <time>2010-08-04T07:19:20Z</time>
      </trkpt>
      <trkpt lat="45.35511" lon="6.76114">
        <ele>2972.05</ele>
        <time>2010-08-04T07:19:21Z</time>
      </trkpt>
      <trkpt lat="45.3551" lon="6.76112">
        <ele>2970.61</ele>
        <time>2010-08-04T07:19:23Z</time>
      </trkpt>
      <trkpt lat="45.35507" lon="6.7611">
        <ele>2968.69</ele>
        <time>2010-08-04T07:19:33Z</time>
      </trkpt>
      <trkpt lat="45.35505" lon="6.76108">
        <ele>2972.53</ele>
        <time>2010-08-04T07:19:35Z</time>
      </trkpt>
      <trkpt lat="45.35504" lon="6.76107">
        <ele>2972.05</ele>
        <time>2010-08-04T07:19:36Z</time>
      </trkpt>
      <trkpt lat="45.35503" lon="6.76105">
        <ele>2967.25</ele>
        <time>2010-08-04T07:19:38Z</time>
      </trkpt>
      <trkpt lat="45.35502" lon="6.76104">
        <ele>2967.25</ele>
        <time>2010-08-04T07:19:39Z</time>
      </trkpt>
      <trkpt lat="45.35496" lon="6.76098">
        <ele>2971.09</ele>
        <time>2010-08-04T07:19:45Z</time>
      </trkpt>
      <trkpt lat="45.3549" lon="6.76093">
        <ele>2967.73</ele>
        <time>2010-08-04T07:19:51Z</time>
      </trkpt>
      <trkpt lat="45.35489" lon="6.76092">
        <ele>2970.13</ele>
        <time>2010-08-04T07:19:53Z</time>
      </trkpt>
      <trkpt lat="45.35486" lon="6.76088">
        <ele>2965.32</ele>
        <time>2010-08-04T07:19:57Z</time>
      </trkpt>
      <trkpt lat="45.35485" lon="6.76086">
        <ele>2970.13</ele>
        <time>2010-08-04T07:19:59Z</time>
      </trkpt>
      <trkpt lat="45.35483" lon="6.76085">
        <ele>2965.32</ele>
        <time>2010-08-04T07:20:02Z</time>
      </trkpt>
      <trkpt lat="45.35482" lon="6.76084">
        <ele>2969.17</ele>
        <time>2010-08-04T07:20:04Z</time>
      </trkpt>
      <trkpt lat="45.35481" lon="6.76083">
        <ele>2973.01</ele>
        <time>2010-08-04T07:20:05Z</time>
      </trkpt>
      <trkpt lat="45.3548" lon="6.76082">
        <ele>2969.65</ele>
        <time>2010-08-04T07:20:06Z</time>
      </trkpt>
      <trkpt lat="45.35479" lon="6.76081">
        <ele>2966.29</ele>
        <time>2010-08-04T07:20:08Z</time>
      </trkpt>
      <trkpt lat="45.35476" lon="6.76078">
        <ele>2968.69</ele>
        <time>2010-08-04T07:20:18Z</time>
      </trkpt>
      <trkpt lat="45.35473" lon="6.76073">
        <ele>2969.17</ele>
        <time>2010-08-04T07:20:29Z</time>
      </trkpt>
      <trkpt lat="45.35471" lon="6.7607">
        <ele>2965.32</ele>
        <time>2010-08-04T07:20:32Z</time>
      </trkpt>
      <trkpt lat="45.3547" lon="6.76069">
        <ele>2969.17</ele>
        <time>2010-08-04T07:20:33Z</time>
      </trkpt>
      <trkpt lat="45.35465" lon="6.76061">
        <ele>2972.53</ele>
        <time>2010-08-04T07:20:43Z</time>
      </trkpt>
      <trkpt lat="45.35462" lon="6.76056">
        <ele>2968.69</ele>
        <time>2010-08-04T07:20:48Z</time>
      </trkpt>
      <trkpt lat="45.35458" lon="6.7605">
        <ele>2971.57</ele>
        <time>2010-08-04T07:20:55Z</time>
      </trkpt>
      <trkpt lat="45.35453" lon="6.76045">
        <ele>2976.38</ele>
        <time>2010-08-04T07:21:03Z</time>
      </trkpt>
      <trkpt lat="45.35452" lon="6.76045">
        <ele>2971.57</ele>
        <time>2010-08-04T07:21:04Z</time>
      </trkpt>
      <trkpt lat="45.35446" lon="6.76038">
        <ele>2973.01</ele>
        <time>2010-08-04T07:21:15Z</time>
      </trkpt>
      <trkpt lat="45.35441" lon="6.76033">
        <ele>2974.94</ele>
        <time>2010-08-04T07:21:23Z</time>
      </trkpt>
      <trkpt lat="45.35433" lon="6.76028">
        <ele>2973.01</ele>
        <time>2010-08-04T07:21:34Z</time>
      </trkpt>
      <trkpt lat="45.35432" lon="6.76027">
        <ele>2976.38</ele>
        <time>2010-08-04T07:21:36Z</time>
      </trkpt>
      <trkpt lat="45.35431" lon="6.76026">
        <ele>2974.94</ele>
        <time>2010-08-04T07:21:37Z</time>
      </trkpt>
      <trkpt lat="45.3543" lon="6.76025">
        <ele>2973.98</ele>
        <time>2010-08-04T07:21:39Z</time>
      </trkpt>
      <trkpt lat="45.35424" lon="6.76019">
        <ele>2977.34</ele>
        <time>2010-08-04T07:21:49Z</time>
      </trkpt>
      <trkpt lat="45.35424" lon="6.76018">
        <ele>2976.86</ele>
        <time>2010-08-04T07:21:50Z</time>
      </trkpt>
      <trkpt lat="45.35422" lon="6.76017">
        <ele>2974.94</ele>
        <time>2010-08-04T07:21:52Z</time>
      </trkpt>
      <trkpt lat="45.35422" lon="6.76017">
        <ele>2972.05</ele>
        <time>2010-08-04T07:21:53Z</time>
      </trkpt>
      <trkpt lat="45.35421" lon="6.76017">
        <ele>2975.42</ele>
        <time>2010-08-04T07:21:54Z</time>
      </trkpt>
      <trkpt lat="45.35416" lon="6.76012">
        <ele>2976.38</ele>
        <time>2010-08-04T07:22:04Z</time>
      </trkpt>
      <trkpt lat="45.3541" lon="6.76004">
        <ele>2979.26</ele>
        <time>2010-08-04T07:22:16Z</time>
      </trkpt>
      <trkpt lat="45.35405" lon="6.75995">
        <ele>2979.26</ele>
        <time>2010-08-04T07:22:27Z</time>
      </trkpt>
      <trkpt lat="45.35397" lon="6.75989">
        <ele>2981.67</ele>
        <time>2010-08-04T07:22:41Z</time>
      </trkpt>
      <trkpt lat="45.35397" lon="6.75988">
        <ele>2978.78</ele>
        <time>2010-08-04T07:22:42Z</time>
      </trkpt>
      <trkpt lat="45.35396" lon="6.75988">
        <ele>2982.15</ele>
        <time>2010-08-04T07:22:44Z</time>
      </trkpt>
      <trkpt lat="45.35392" lon="6.75981">
        <ele>2985.03</ele>
        <time>2010-08-04T07:22:53Z</time>
      </trkpt>
      <trkpt lat="45.35391" lon="6.75979">
        <ele>2982.15</ele>
        <time>2010-08-04T07:22:55Z</time>
      </trkpt>
      <trkpt lat="45.35385" lon="6.75973">
        <ele>2985.51</ele>
        <time>2010-08-04T07:23:06Z</time>
      </trkpt>
      <trkpt lat="45.35384" lon="6.75972">
        <ele>2984.55</ele>
        <time>2010-08-04T07:23:07Z</time>
      </trkpt>
      <trkpt lat="45.35384" lon="6.75971">
        <ele>2981.67</ele>
        <time>2010-08-04T07:23:08Z</time>
      </trkpt>
      <trkpt lat="45.35383" lon="6.75971">
        <ele>2985.03</ele>
        <time>2010-08-04T07:23:09Z</time>
      </trkpt>
      <trkpt lat="45.35382" lon="6.7597">
        <ele>2981.67</ele>
        <time>2010-08-04T07:23:10Z</time>
      </trkpt>
      <trkpt lat="45.35381" lon="6.7597">
        <ele>2985.99</ele>
        <time>2010-08-04T07:23:12Z</time>
      </trkpt>
      <trkpt lat="45.35381" lon="6.75969">
        <ele>2985.03</ele>
        <time>2010-08-04T07:23:13Z</time>
      </trkpt>
      <trkpt lat="45.35377" lon="6.75965">
        <ele>2985.03</ele>
        <time>2010-08-04T07:23:22Z</time>
      </trkpt>
      <trkpt lat="45.35376" lon="6.75964">
        <ele>2987.91</ele>
        <time>2010-08-04T07:23:23Z</time>
      </trkpt>
      <trkpt lat="45.35376" lon="6.75964">
        <ele>2987.43</ele>
        <time>2010-08-04T07:23:24Z</time>
      </trkpt>
      <trkpt lat="45.35368" lon="6.75961">
        <ele>2990.32</ele>
        <time>2010-08-04T07:23:35Z</time>
      </trkpt>
      <trkpt lat="45.35368" lon="6.75961">
        <ele>2990.32</ele>
        <time>2010-08-04T07:23:36Z</time>
      </trkpt>
      <trkpt lat="45.35366" lon="6.7596">
        <ele>2987.43</ele>
        <time>2010-08-04T07:23:39Z</time>
      </trkpt>
      <trkpt lat="45.35362" lon="6.75957">
        <ele>2990.32</ele>
        <time>2010-08-04T07:23:44Z</time>
      </trkpt>
      <trkpt lat="45.35362" lon="6.75957">
        <ele>2986.47</ele>
        <time>2010-08-04T07:23:45Z</time>
      </trkpt>
      <trkpt lat="45.35361" lon="6.75957">
        <ele>2986.95</ele>
        <time>2010-08-04T07:23:46Z</time>
      </trkpt>
      <trkpt lat="45.35358" lon="6.75954">
        <ele>2988.88</ele>
        <time>2010-08-04T07:23:52Z</time>
      </trkpt>
      <trkpt lat="45.35349" lon="6.75947">
        <ele>2990.32</ele>
        <time>2010-08-04T07:24:05Z</time>
      </trkpt>
      <trkpt lat="45.35342" lon="6.7594">
        <ele>2991.76</ele>
        <time>2010-08-04T07:24:14Z</time>
      </trkpt>
      <trkpt lat="45.35338" lon="6.75936">
        <ele>2988.4</ele>
        <time>2010-08-04T07:24:20Z</time>
      </trkpt>
      <trkpt lat="45.35337" lon="6.75935">
        <ele>2993.2</ele>
        <time>2010-08-04T07:24:21Z</time>
      </trkpt>
      <trkpt lat="45.35336" lon="6.75935">
        <ele>2989.84</ele>
        <time>2010-08-04T07:24:22Z</time>
      </trkpt>
      <trkpt lat="45.35332" lon="6.75929">
        <ele>2992.24</ele>
        <time>2010-08-04T07:24:27Z</time>
      </trkpt>
      <trkpt lat="45.35331" lon="6.75928">
        <ele>2992.72</ele>
        <time>2010-08-04T07:24:29Z</time>
      </trkpt>
      <trkpt lat="45.35324" lon="6.75923">
        <ele>2992.24</ele>
        <time>2010-08-04T07:24:39Z</time>
      </trkpt>
      <trkpt lat="45.3532" lon="6.75922">
        <ele>2992.72</ele>
        <time>2010-08-04T07:24:51Z</time>
      </trkpt>
      <trkpt lat="45.35316" lon="6.75918">
        <ele>2992.24</ele>
        <time>2010-08-04T07:24:59Z</time>
      </trkpt>
      <trkpt lat="45.35312" lon="6.75915">
        <ele>2990.8</ele>
        <time>2010-08-04T07:25:04Z</time>
      </trkpt>
      <trkpt lat="45.35303" lon="6.75907">
        <ele>2986.95</ele>
        <time>2010-08-04T07:25:16Z</time>
      </trkpt>
      <trkpt lat="45.353" lon="6.75906">
        <ele>2990.8</ele>
        <time>2010-08-04T07:25:18Z</time>
      </trkpt>
      <trkpt lat="45.35297" lon="6.75903">
        <ele>2992.24</ele>
        <time>2010-08-04T07:25:22Z</time>
      </trkpt>
      <trkpt lat="45.35293" lon="6.75901">
        <ele>2985.51</ele>
        <time>2010-08-04T07:25:26Z</time>
      </trkpt>
      <trkpt lat="45.35291" lon="6.75899">
        <ele>2987.43</ele>
        <time>2010-08-04T07:25:28Z</time>
      </trkpt>
      <trkpt lat="45.35289" lon="6.75898">
        <ele>2989.36</ele>
        <time>2010-08-04T07:25:30Z</time>
      </trkpt>
      <trkpt lat="45.35288" lon="6.75898">
        <ele>2988.88</ele>
        <time>2010-08-04T07:25:31Z</time>
      </trkpt>
      <trkpt lat="45.35286" lon="6.75898">
        <ele>2989.84</ele>
        <time>2010-08-04T07:25:33Z</time>
      </trkpt>
      <trkpt lat="45.3528" lon="6.75894">
        <ele>2988.4</ele>
        <time>2010-08-04T07:25:39Z</time>
      </trkpt>
      <trkpt lat="45.35277" lon="6.75894">
        <ele>2982.63</ele>
        <time>2010-08-04T07:25:42Z</time>
      </trkpt>
      <trkpt lat="45.35276" lon="6.75893">
        <ele>2988.4</ele>
        <time>2010-08-04T07:25:43Z</time>
      </trkpt>
      <trkpt lat="45.35273" lon="6.75892">
        <ele>2989.84</ele>
        <time>2010-08-04T07:25:46Z</time>
      </trkpt>
      <trkpt lat="45.3527" lon="6.75891">
        <ele>2988.88</ele>
        <time>2010-08-04T07:25:50Z</time>
      </trkpt>
      <trkpt lat="45.35266" lon="6.75895">
        <ele>2989.36</ele>
        <time>2010-08-04T07:25:55Z</time>
      </trkpt>
      <trkpt lat="45.35265" lon="6.75897">
        <ele>2985.99</ele>
        <time>2010-08-04T07:25:57Z</time>
      </trkpt>
      <trkpt lat="45.35264" lon="6.75898">
        <ele>2987.91</ele>
        <time>2010-08-04T07:25:58Z</time>
      </trkpt>
      <trkpt lat="45.35259" lon="6.75905">
        <ele>2986.95</ele>
        <time>2010-08-04T07:26:09Z</time>
      </trkpt>
      <trkpt lat="45.35258" lon="6.75905">
        <ele>2987.91</ele>
        <time>2010-08-04T07:26:10Z</time>
      </trkpt>
      <trkpt lat="45.35249" lon="6.75905">
        <ele>2987.91</ele>
        <time>2010-08-04T07:26:23Z</time>
      </trkpt>
      <trkpt lat="45.35248" lon="6.75904">
        <ele>2986.47</ele>
        <time>2010-08-04T07:26:25Z</time>
      </trkpt>
      <trkpt lat="45.35246" lon="6.75901">
        <ele>2986.95</ele>
        <time>2010-08-04T07:26:28Z</time>
      </trkpt>
      <trkpt lat="45.35246" lon="6.75896">
        <ele>2987.43</ele>
        <time>2010-08-04T07:26:33Z</time>
      </trkpt>
      <trkpt lat="45.35245" lon="6.75894">
        <ele>2986.47</ele>
        <time>2010-08-04T07:26:35Z</time>
      </trkpt>
      <trkpt lat="45.35244" lon="6.75891">
        <ele>2987.43</ele>
        <time>2010-08-04T07:26:37Z</time>
      </trkpt>
      <trkpt lat="45.35237" lon="6.75887">
        <ele>2991.76</ele>
        <time>2010-08-04T07:26:46Z</time>
      </trkpt>
      <trkpt lat="45.35236" lon="6.75886">
        <ele>2986.95</ele>
        <time>2010-08-04T07:26:47Z</time>
      </trkpt>
      <trkpt lat="45.35235" lon="6.75885">
        <ele>2986.95</ele>
        <time>2010-08-04T07:26:50Z</time>
      </trkpt>
      <trkpt lat="45.35234" lon="6.75883">
        <ele>2987.43</ele>
        <time>2010-08-04T07:26:52Z</time>
      </trkpt>
      <trkpt lat="45.35232" lon="6.7588">
        <ele>2987.91</ele>
        <time>2010-08-04T07:27:04Z</time>
      </trkpt>
      <trkpt lat="45.35232" lon="6.7588">
        <ele>2987.91</ele>
        <time>2010-08-04T07:28:16Z</time>
      </trkpt>
      <trkpt lat="45.35232" lon="6.75879">
        <ele>2985.03</ele>
        <time>2010-08-04T07:28:39Z</time>
      </trkpt>
      <trkpt lat="45.35232" lon="6.75879">
        <ele>2985.51</ele>
        <time>2010-08-04T07:28:40Z</time>
      </trkpt>
      <trkpt lat="45.35232" lon="6.75879">
        <ele>2988.88</ele>
        <time>2010-08-04T07:29:18Z</time>
      </trkpt>
      <trkpt lat="45.35232" lon="6.75879">
        <ele>2986.95</ele>
        <time>2010-08-04T07:29:25Z</time>
      </trkpt>
      <trkpt lat="45.35232" lon="6.75879">
        <ele>2986.95</ele>
        <time>2010-08-04T07:29:29Z</time>
      </trkpt>
      <trkpt lat="45.35232" lon="6.75879">
        <ele>2990.8</ele>
        <time>2010-08-04T07:29:40Z</time>
      </trkpt>
      <trkpt lat="45.35232" lon="6.75879">
        <ele>2986.47</ele>
        <time>2010-08-04T07:29:41Z</time>
      </trkpt>
      <trkpt lat="45.35232" lon="6.75879">
        <ele>2990.32</ele>
        <time>2010-08-04T07:29:42Z</time>
      </trkpt>
      <trkpt lat="45.35232" lon="6.75879">
        <ele>2986.95</ele>
        <time>2010-08-04T07:29:43Z</time>
      </trkpt>
      <trkpt lat="45.35232" lon="6.75879">
        <ele>2986.47</ele>
        <time>2010-08-04T07:30:18Z</time>
      </trkpt>
      <trkpt lat="45.35232" lon="6.75879">
        <ele>2986.47</ele>
        <time>2010-08-04T07:31:52Z</time>
      </trkpt>
      <trkpt lat="45.35231" lon="6.75881">
        <ele>2986.95</ele>
        <time>2010-08-04T07:31:54Z</time>
      </trkpt>
      <trkpt lat="45.35231" lon="6.7588">
        <ele>2986.47</ele>
        <time>2010-08-04T07:32:08Z</time>
      </trkpt>
      <trkpt lat="45.35231" lon="6.7588">
        <ele>2972.53</ele>
        <time>2010-08-04T07:33:09Z</time>
      </trkpt>
      <trkpt lat="45.35231" lon="6.75881">
        <ele>2992.24</ele>
        <time>2010-08-04T07:33:10Z</time>
      </trkpt>
      <trkpt lat="45.35231" lon="6.7588">
        <ele>2991.28</ele>
        <time>2010-08-04T07:33:11Z</time>
      </trkpt>
      <trkpt lat="45.35231" lon="6.7588">
        <ele>2987.43</ele>
        <time>2010-08-04T07:33:12Z</time>
      </trkpt>
      <trkpt lat="45.35231" lon="6.7588">
        <ele>2986.47</ele>
        <time>2010-08-04T07:33:14Z</time>
      </trkpt>
      <trkpt lat="45.35231" lon="6.7588">
        <ele>2985.99</ele>
        <time>2010-08-04T07:33:46Z</time>
      </trkpt>
      <trkpt lat="45.35229" lon="6.75875">
        <ele>2987.43</ele>
        <time>2010-08-04T07:35:03Z</time>
      </trkpt>
      <trkpt lat="45.35225" lon="6.75866">
        <ele>2987.43</ele>
        <time>2010-08-04T07:35:16Z</time>
      </trkpt>
      <trkpt lat="45.35219" lon="6.7586">
        <ele>2988.4</ele>
        <time>2010-08-04T07:35:27Z</time>
      </trkpt>
      <trkpt lat="45.35209" lon="6.75858">
        <ele>2989.36</ele>
        <time>2010-08-04T07:35:42Z</time>
      </trkpt>
      <trkpt lat="45.35201" lon="6.75854">
        <ele>2990.32</ele>
        <time>2010-08-04T07:35:54Z</time>
      </trkpt>
      <trkpt lat="45.35194" lon="6.75849">
        <ele>2991.28</ele>
        <time>2010-08-04T07:36:08Z</time>
      </trkpt>
      <trkpt lat="45.35192" lon="6.75847">
        <ele>2993.2</ele>
        <time>2010-08-04T07:36:31Z</time>
      </trkpt>
      <trkpt lat="45.35187" lon="6.75842">
        <ele>2993.68</ele>
        <time>2010-08-04T07:36:42Z</time>
      </trkpt>
      <trkpt lat="45.3518" lon="6.75833">
        <ele>2994.64</ele>
        <time>2010-08-04T07:36:56Z</time>
      </trkpt>
      <trkpt lat="45.35176" lon="6.75829">
        <ele>2997.05</ele>
        <time>2010-08-04T07:37:03Z</time>
      </trkpt>
      <trkpt lat="45.35169" lon="6.75822">
        <ele>2997.53</ele>
        <time>2010-08-04T07:37:16Z</time>
      </trkpt>
      <trkpt lat="45.35161" lon="6.75814">
        <ele>2998.97</ele>
        <time>2010-08-04T07:37:30Z</time>
      </trkpt>
      <trkpt lat="45.35155" lon="6.7581">
        <ele>2999.93</ele>
        <time>2010-08-04T07:37:41Z</time>
      </trkpt>
      <trkpt lat="45.35155" lon="6.7581">
        <ele>2996.09</ele>
        <time>2010-08-04T07:37:42Z</time>
      </trkpt>
      <trkpt lat="45.35154" lon="6.75809">
        <ele>2999.45</ele>
        <time>2010-08-04T07:37:43Z</time>
      </trkpt>
      <trkpt lat="45.35148" lon="6.75803">
        <ele>3000.89</ele>
        <time>2010-08-04T07:37:55Z</time>
      </trkpt>
      <trkpt lat="45.35147" lon="6.75801">
        <ele>3001.37</ele>
        <time>2010-08-04T07:37:59Z</time>
      </trkpt>
      <trkpt lat="45.35143" lon="6.75796">
        <ele>3002.82</ele>
        <time>2010-08-04T07:38:06Z</time>
      </trkpt>
      <trkpt lat="45.35138" lon="6.7579">
        <ele>3005.22</ele>
        <time>2010-08-04T07:38:18Z</time>
      </trkpt>
      <trkpt lat="45.35136" lon="6.75783">
        <ele>3006.18</ele>
        <time>2010-08-04T07:38:29Z</time>
      </trkpt>
      <trkpt lat="45.35135" lon="6.75782">
        <ele>3007.14</ele>
        <time>2010-08-04T07:38:33Z</time>
      </trkpt>
      <trkpt lat="45.35129" lon="6.75777">
        <ele>3009.06</ele>
        <time>2010-08-04T07:38:47Z</time>
      </trkpt>
      <trkpt lat="45.35125" lon="6.75771">
        <ele>3010.51</ele>
        <time>2010-08-04T07:38:56Z</time>
      </trkpt>
      <trkpt lat="45.35122" lon="6.75765">
        <ele>3014.35</ele>
        <time>2010-08-04T07:39:07Z</time>
      </trkpt>
      <trkpt lat="45.35121" lon="6.75766">
        <ele>3013.39</ele>
        <time>2010-08-04T07:39:08Z</time>
      </trkpt>
      <trkpt lat="45.3512" lon="6.75767">
        <ele>3007.62</ele>
        <time>2010-08-04T07:39:11Z</time>
      </trkpt>
      <trkpt lat="45.3512" lon="6.75767">
        <ele>3011.47</ele>
        <time>2010-08-04T07:39:12Z</time>
      </trkpt>
      <trkpt lat="45.35116" lon="6.75769">
        <ele>3012.43</ele>
        <time>2010-08-04T07:39:19Z</time>
      </trkpt>
      <trkpt lat="45.35115" lon="6.7577">
        <ele>3014.83</ele>
        <time>2010-08-04T07:39:23Z</time>
      </trkpt>
      <trkpt lat="45.35114" lon="6.7577">
        <ele>3013.39</ele>
        <time>2010-08-04T07:39:25Z</time>
      </trkpt>
      <trkpt lat="45.3511" lon="6.7577">
        <ele>3015.79</ele>
        <time>2010-08-04T07:39:31Z</time>
      </trkpt>
      <trkpt lat="45.35108" lon="6.75759">
        <ele>3018.2</ele>
        <time>2010-08-04T07:39:45Z</time>
      </trkpt>
      <trkpt lat="45.35107" lon="6.75754">
        <ele>3014.35</ele>
        <time>2010-08-04T07:39:50Z</time>
      </trkpt>
      <trkpt lat="45.35107" lon="6.75752">
        <ele>3020.6</ele>
        <time>2010-08-04T07:39:52Z</time>
      </trkpt>
      <trkpt lat="45.35107" lon="6.75751">
        <ele>3018.68</ele>
        <time>2010-08-04T07:39:53Z</time>
      </trkpt>
      <trkpt lat="45.35106" lon="6.75746">
        <ele>3020.12</ele>
        <time>2010-08-04T07:40:04Z</time>
      </trkpt>
      <trkpt lat="45.35099" lon="6.75751">
        <ele>3022.04</ele>
        <time>2010-08-04T07:40:18Z</time>
      </trkpt>
      <trkpt lat="45.35096" lon="6.75753">
        <ele>3022.52</ele>
        <time>2010-08-04T07:40:24Z</time>
      </trkpt>
      <trkpt lat="45.35095" lon="6.75754">
        <ele>3023.96</ele>
        <time>2010-08-04T07:40:27Z</time>
      </trkpt>
      <trkpt lat="45.35092" lon="6.75756">
        <ele>3026.85</ele>
        <time>2010-08-04T07:40:32Z</time>
      </trkpt>
      <trkpt lat="45.35092" lon="6.75756">
        <ele>3023.96</ele>
        <time>2010-08-04T07:40:33Z</time>
      </trkpt>
      <trkpt lat="45.35086" lon="6.75753">
        <ele>3028.29</ele>
        <time>2010-08-04T07:40:46Z</time>
      </trkpt>
      <trkpt lat="45.35086" lon="6.75752">
        <ele>3028.77</ele>
        <time>2010-08-04T07:40:47Z</time>
      </trkpt>
      <trkpt lat="45.35086" lon="6.75749">
        <ele>3023.96</ele>
        <time>2010-08-04T07:40:51Z</time>
      </trkpt>
      <trkpt lat="45.35085" lon="6.75748">
        <ele>3026.85</ele>
        <time>2010-08-04T07:40:52Z</time>
      </trkpt>
      <trkpt lat="45.35085" lon="6.75745">
        <ele>3028.29</ele>
        <time>2010-08-04T07:40:56Z</time>
      </trkpt>
      <trkpt lat="45.35083" lon="6.75739">
        <ele>3028.29</ele>
        <time>2010-08-04T07:41:04Z</time>
      </trkpt>
      <trkpt lat="45.35083" lon="6.75737">
        <ele>3031.17</ele>
        <time>2010-08-04T07:41:07Z</time>
      </trkpt>
      <trkpt lat="45.35083" lon="6.75735">
        <ele>3028.29</ele>
        <time>2010-08-04T07:41:09Z</time>
      </trkpt>
      <trkpt lat="45.35083" lon="6.75734">
        <ele>3028.29</ele>
        <time>2010-08-04T07:41:10Z</time>
      </trkpt>
      <trkpt lat="45.3508" lon="6.7573">
        <ele>3031.66</ele>
        <time>2010-08-04T07:41:21Z</time>
      </trkpt>
      <trkpt lat="45.3508" lon="6.7573">
        <ele>3031.66</ele>
        <time>2010-08-04T07:41:27Z</time>
      </trkpt>
      <trkpt lat="45.3508" lon="6.7573">
        <ele>3031.66</ele>
        <time>2010-08-04T07:42:51Z</time>
      </trkpt>
      <trkpt lat="45.3508" lon="6.7573">
        <ele>3031.66</ele>
        <time>2010-08-04T07:43:37Z</time>
      </trkpt>
      <trkpt lat="45.3508" lon="6.7573">
        <ele>3031.66</ele>
        <time>2010-08-04T07:45:02Z</time>
      </trkpt>
      <trkpt lat="45.3508" lon="6.7573">
        <ele>3029.73</ele>
        <time>2010-08-04T07:50:45Z</time>
      </trkpt>
      <trkpt lat="45.3508" lon="6.7573">
        <ele>3029.25</ele>
        <time>2010-08-04T07:54:17Z</time>
      </trkpt>
      <trkpt lat="45.35081" lon="6.75731">
        <ele>3027.81</ele>
        <time>2010-08-04T07:57:22Z</time>
      </trkpt>
      <trkpt lat="45.35081" lon="6.75731">
        <ele>3031.17</ele>
        <time>2010-08-04T07:57:31Z</time>
      </trkpt>
      <trkpt lat="45.35081" lon="6.75731">
        <ele>3026.85</ele>
        <time>2010-08-04T07:57:34Z</time>
      </trkpt>
      <trkpt lat="45.35081" lon="6.75731">
        <ele>3029.73</ele>
        <time>2010-08-04T07:57:35Z</time>
      </trkpt>
      <trkpt lat="45.35081" lon="6.75731">
        <ele>3028.77</ele>
        <time>2010-08-04T07:58:29Z</time>
      </trkpt>
      <trkpt lat="45.3508" lon="6.75731">
        <ele>3028.29</ele>
        <time>2010-08-04T08:00:46Z</time>
      </trkpt>
      <trkpt lat="45.3508" lon="6.75731">
        <ele>3031.66</ele>
        <time>2010-08-04T08:01:47Z</time>
      </trkpt>
      <trkpt lat="45.3508" lon="6.75731">
        <ele>3028.29</ele>
        <time>2010-08-04T08:01:49Z</time>
      </trkpt>
      <trkpt lat="45.35079" lon="6.75728">
        <ele>3031.17</ele>
        <time>2010-08-04T08:01:58Z</time>
      </trkpt>
      <trkpt lat="45.35079" lon="6.75728">
        <ele>3029.73</ele>
        <time>2010-08-04T08:01:59Z</time>
      </trkpt>
      <trkpt lat="45.35078" lon="6.75728">
        <ele>3028.29</ele>
        <time>2010-08-04T08:02:04Z</time>
      </trkpt>
      <trkpt lat="45.35076" lon="6.75727">
        <ele>3031.17</ele>
        <time>2010-08-04T08:02:09Z</time>
      </trkpt>
      <trkpt lat="45.35075" lon="6.75727">
        <ele>3029.73</ele>
        <time>2010-08-04T08:02:10Z</time>
      </trkpt>
      <trkpt lat="45.35075" lon="6.75726">
        <ele>3033.58</ele>
        <time>2010-08-04T08:02:12Z</time>
      </trkpt>
      <trkpt lat="45.35074" lon="6.75726">
        <ele>3030.69</ele>
        <time>2010-08-04T08:02:13Z</time>
      </trkpt>
      <trkpt lat="45.35074" lon="6.75725">
        <ele>3031.66</ele>
        <time>2010-08-04T08:02:31Z</time>
      </trkpt>
      <trkpt lat="45.35073" lon="6.75725">
        <ele>3032.14</ele>
        <time>2010-08-04T08:02:36Z</time>
      </trkpt>
      <trkpt lat="45.35072" lon="6.75725">
        <ele>3030.21</ele>
        <time>2010-08-04T08:02:38Z</time>
      </trkpt>
      <trkpt lat="45.35071" lon="6.75725">
        <ele>3034.54</ele>
        <time>2010-08-04T08:02:40Z</time>
      </trkpt>
      <trkpt lat="45.3507" lon="6.75725">
        <ele>3031.17</ele>
        <time>2010-08-04T08:02:42Z</time>
      </trkpt>
      <trkpt lat="45.35069" lon="6.75724">
        <ele>3030.69</ele>
        <time>2010-08-04T08:02:44Z</time>
      </trkpt>
      <trkpt lat="45.35067" lon="6.75724">
        <ele>3032.62</ele>
        <time>2010-08-04T08:02:46Z</time>
      </trkpt>
      <trkpt lat="45.35065" lon="6.75724">
        <ele>3035.98</ele>
        <time>2010-08-04T08:02:50Z</time>
      </trkpt>
      <trkpt lat="45.35059" lon="6.75722">
        <ele>3037.9</ele>
        <time>2010-08-04T08:03:01Z</time>
      </trkpt>
      <trkpt lat="45.35058" lon="6.75722">
        <ele>3034.06</ele>
        <time>2010-08-04T08:03:02Z</time>
      </trkpt>
      <trkpt lat="45.35057" lon="6.75722">
        <ele>3037.42</ele>
        <time>2010-08-04T08:03:04Z</time>
      </trkpt>
      <trkpt lat="45.35056" lon="6.75722">
        <ele>3035.5</ele>
        <time>2010-08-04T08:03:05Z</time>
      </trkpt>
      <trkpt lat="45.35054" lon="6.75723">
        <ele>3036.46</ele>
        <time>2010-08-04T08:03:09Z</time>
      </trkpt>
      <trkpt lat="45.35054" lon="6.7572">
        <ele>3040.31</ele>
        <time>2010-08-04T08:03:13Z</time>
      </trkpt>
      <trkpt lat="45.35053" lon="6.75719">
        <ele>3035.98</ele>
        <time>2010-08-04T08:03:14Z</time>
      </trkpt>
      <trkpt lat="45.35053" lon="6.75717">
        <ele>3042.71</ele>
        <time>2010-08-04T08:03:16Z</time>
      </trkpt>
      <trkpt lat="45.35053" lon="6.75717">
        <ele>3040.79</ele>
        <time>2010-08-04T08:03:17Z</time>
      </trkpt>
      <trkpt lat="45.35052" lon="6.75715">
        <ele>3044.63</ele>
        <time>2010-08-04T08:03:20Z</time>
      </trkpt>
      <trkpt lat="45.35052" lon="6.75714">
        <ele>3040.31</ele>
        <time>2010-08-04T08:03:21Z</time>
      </trkpt>
      <trkpt lat="45.35051" lon="6.75712">
        <ele>3037.42</ele>
        <time>2010-08-04T08:03:24Z</time>
      </trkpt>
      <trkpt lat="45.35051" lon="6.75711">
        <ele>3041.75</ele>
        <time>2010-08-04T08:03:25Z</time>
      </trkpt>
      <trkpt lat="45.35051" lon="6.75711">
        <ele>3038.38</ele>
        <time>2010-08-04T08:03:26Z</time>
      </trkpt>
      <trkpt lat="45.3505" lon="6.75708">
        <ele>3038.86</ele>
        <time>2010-08-04T08:03:30Z</time>
      </trkpt>
      <trkpt lat="45.35049" lon="6.75705">
        <ele>3042.71</ele>
        <time>2010-08-04T08:03:35Z</time>
      </trkpt>
      <trkpt lat="45.35049" lon="6.75704">
        <ele>3038.86</ele>
        <time>2010-08-04T08:03:36Z</time>
      </trkpt>
      <trkpt lat="45.35049" lon="6.75702">
        <ele>3046.07</ele>
        <time>2010-08-04T08:03:38Z</time>
      </trkpt>
      <trkpt lat="45.35048" lon="6.75701">
        <ele>3039.35</ele>
        <time>2010-08-04T08:03:39Z</time>
      </trkpt>
      <trkpt lat="45.35048" lon="6.757">
        <ele>3039.83</ele>
        <time>2010-08-04T08:03:40Z</time>
      </trkpt>
      <trkpt lat="45.35048" lon="6.757">
        <ele>3046.07</ele>
        <time>2010-08-04T08:03:41Z</time>
      </trkpt>
      <trkpt lat="45.35048" lon="6.75699">
        <ele>3040.79</ele>
        <time>2010-08-04T08:03:42Z</time>
      </trkpt>
      <trkpt lat="45.35048" lon="6.75697">
        <ele>3041.75</ele>
        <time>2010-08-04T08:03:45Z</time>
      </trkpt>
      <trkpt lat="45.35047" lon="6.75695">
        <ele>3040.79</ele>
        <time>2010-08-04T08:03:47Z</time>
      </trkpt>
      <trkpt lat="45.35047" lon="6.75693">
        <ele>3045.11</ele>
        <time>2010-08-04T08:03:50Z</time>
      </trkpt>
      <trkpt lat="45.35046" lon="6.75692">
        <ele>3048.48</ele>
        <time>2010-08-04T08:03:51Z</time>
      </trkpt>
      <trkpt lat="45.35046" lon="6.75692">
        <ele>3043.19</ele>
        <time>2010-08-04T08:03:52Z</time>
      </trkpt>
      <trkpt lat="45.35046" lon="6.75692">
        <ele>3046.56</ele>
        <time>2010-08-04T08:03:56Z</time>
      </trkpt>
      <trkpt lat="45.35046" lon="6.75692">
        <ele>3042.71</ele>
        <time>2010-08-04T08:03:57Z</time>
      </trkpt>
      <trkpt lat="45.35044" lon="6.75691">
        <ele>3045.59</ele>
        <time>2010-08-04T08:04:00Z</time>
      </trkpt>
      <trkpt lat="45.35038" lon="6.75692">
        <ele>3048.48</ele>
        <time>2010-08-04T08:04:08Z</time>
      </trkpt>
      <trkpt lat="45.35038" lon="6.75691">
        <ele>3046.56</ele>
        <time>2010-08-04T08:04:09Z</time>
      </trkpt>
      <trkpt lat="45.35034" lon="6.75685">
        <ele>3051.84</ele>
        <time>2010-08-04T08:04:19Z</time>
      </trkpt>
      <trkpt lat="45.35034" lon="6.75684">
        <ele>3046.07</ele>
        <time>2010-08-04T08:04:20Z</time>
      </trkpt>
      <trkpt lat="45.35034" lon="6.7568">
        <ele>3051.84</ele>
        <time>2010-08-04T08:04:24Z</time>
      </trkpt>
      <trkpt lat="45.35034" lon="6.75679">
        <ele>3048.48</ele>
        <time>2010-08-04T08:04:25Z</time>
      </trkpt>
      <trkpt lat="45.35034" lon="6.75678">
        <ele>3052.32</ele>
        <time>2010-08-04T08:04:27Z</time>
      </trkpt>
      <trkpt lat="45.35035" lon="6.75677">
        <ele>3048.48</ele>
        <time>2010-08-04T08:04:28Z</time>
      </trkpt>
      <trkpt lat="45.35035" lon="6.75673">
        <ele>3054.73</ele>
        <time>2010-08-04T08:04:34Z</time>
      </trkpt>
      <trkpt lat="45.35035" lon="6.75672">
        <ele>3053.77</ele>
        <time>2010-08-04T08:04:35Z</time>
      </trkpt>
      <trkpt lat="45.35035" lon="6.75671">
        <ele>3049.92</ele>
        <time>2010-08-04T08:04:36Z</time>
      </trkpt>
      <trkpt lat="45.35035" lon="6.7567">
        <ele>3050.4</ele>
        <time>2010-08-04T08:04:37Z</time>
      </trkpt>
      <trkpt lat="45.35035" lon="6.75669">
        <ele>3054.73</ele>
        <time>2010-08-04T08:04:38Z</time>
      </trkpt>
      <trkpt lat="45.35035" lon="6.75669">
        <ele>3050.4</ele>
        <time>2010-08-04T08:04:39Z</time>
      </trkpt>
      <trkpt lat="45.35035" lon="6.75665">
        <ele>3051.36</ele>
        <time>2010-08-04T08:04:43Z</time>
      </trkpt>
      <trkpt lat="45.35035" lon="6.75661">
        <ele>3056.65</ele>
        <time>2010-08-04T08:04:48Z</time>
      </trkpt>
      <trkpt lat="45.35036" lon="6.7566">
        <ele>3052.8</ele>
        <time>2010-08-04T08:04:49Z</time>
      </trkpt>
      <trkpt lat="45.35036" lon="6.75659">
        <ele>3047.04</ele>
        <time>2010-08-04T08:04:51Z</time>
      </trkpt>
      <trkpt lat="45.35036" lon="6.75658">
        <ele>3051.84</ele>
        <time>2010-08-04T08:04:52Z</time>
      </trkpt>
      <trkpt lat="45.35035" lon="6.75656">
        <ele>3056.17</ele>
        <time>2010-08-04T08:04:56Z</time>
      </trkpt>
      <trkpt lat="45.35034" lon="6.75656">
        <ele>3052.8</ele>
        <time>2010-08-04T08:04:57Z</time>
      </trkpt>
      <trkpt lat="45.35029" lon="6.75654">
        <ele>3048.48</ele>
        <time>2010-08-04T08:05:07Z</time>
      </trkpt>
      <trkpt lat="45.35028" lon="6.75654">
        <ele>3054.73</ele>
        <time>2010-08-04T08:05:08Z</time>
      </trkpt>
      <trkpt lat="45.35027" lon="6.75653">
        <ele>3059.53</ele>
        <time>2010-08-04T08:05:10Z</time>
      </trkpt>
      <trkpt lat="45.35027" lon="6.75653">
        <ele>3055.69</ele>
        <time>2010-08-04T08:05:11Z</time>
      </trkpt>
      <trkpt lat="45.35025" lon="6.7565">
        <ele>3052.32</ele>
        <time>2010-08-04T08:05:16Z</time>
      </trkpt>
      <trkpt lat="45.35024" lon="6.75649">
        <ele>3060.01</ele>
        <time>2010-08-04T08:05:18Z</time>
      </trkpt>
      <trkpt lat="45.35024" lon="6.75648">
        <ele>3056.17</ele>
        <time>2010-08-04T08:05:19Z</time>
      </trkpt>
      <trkpt lat="45.3502" lon="6.75643">
        <ele>3060.49</ele>
        <time>2010-08-04T08:05:29Z</time>
      </trkpt>
      <trkpt lat="45.35019" lon="6.7564">
        <ele>3056.65</ele>
        <time>2010-08-04T08:05:32Z</time>
      </trkpt>
      <trkpt lat="45.35019" lon="6.7564">
        <ele>3062.42</ele>
        <time>2010-08-04T08:05:33Z</time>
      </trkpt>
      <trkpt lat="45.35018" lon="6.75639">
        <ele>3059.53</ele>
        <time>2010-08-04T08:05:34Z</time>
      </trkpt>
      <trkpt lat="45.35017" lon="6.75636">
        <ele>3060.49</ele>
        <time>2010-08-04T08:05:41Z</time>
      </trkpt>
      <trkpt lat="45.35014" lon="6.75628">
        <ele>3064.34</ele>
        <time>2010-08-04T08:05:53Z</time>
      </trkpt>
      <trkpt lat="45.35013" lon="6.75626">
        <ele>3060.49</ele>
        <time>2010-08-04T08:05:55Z</time>
      </trkpt>
      <trkpt lat="45.35013" lon="6.75625">
        <ele>3061.94</ele>
        <time>2010-08-04T08:05:56Z</time>
      </trkpt>
      <trkpt lat="45.35011" lon="6.75621">
        <ele>3066.74</ele>
        <time>2010-08-04T08:06:02Z</time>
      </trkpt>
      <trkpt lat="45.35011" lon="6.7562">
        <ele>3065.3</ele>
        <time>2010-08-04T08:06:03Z</time>
      </trkpt>
      <trkpt lat="45.35007" lon="6.75617">
        <ele>3068.67</ele>
        <time>2010-08-04T08:06:09Z</time>
      </trkpt>
      <trkpt lat="45.35006" lon="6.75617">
        <ele>3068.67</ele>
        <time>2010-08-04T08:06:10Z</time>
      </trkpt>
      <trkpt lat="45.35006" lon="6.75616">
        <ele>3065.3</ele>
        <time>2010-08-04T08:06:11Z</time>
      </trkpt>
      <trkpt lat="45.35005" lon="6.75616">
        <ele>3065.3</ele>
        <time>2010-08-04T08:06:12Z</time>
      </trkpt>
      <trkpt lat="45.35002" lon="6.75614">
        <ele>3067.22</ele>
        <time>2010-08-04T08:06:16Z</time>
      </trkpt>
      <trkpt lat="45.34995" lon="6.75612">
        <ele>3070.11</ele>
        <time>2010-08-04T08:06:27Z</time>
      </trkpt>
      <trkpt lat="45.34995" lon="6.75611">
        <ele>3069.15</ele>
        <time>2010-08-04T08:06:28Z</time>
      </trkpt>
      <trkpt lat="45.34993" lon="6.75611">
        <ele>3068.67</ele>
        <time>2010-08-04T08:06:30Z</time>
      </trkpt>
      <trkpt lat="45.3499" lon="6.75608">
        <ele>3069.63</ele>
        <time>2010-08-04T08:06:36Z</time>
      </trkpt>
      <trkpt lat="45.34988" lon="6.75607">
        <ele>3068.67</ele>
        <time>2010-08-04T08:06:38Z</time>
      </trkpt>
      <trkpt lat="45.34984" lon="6.75602">
        <ele>3072.99</ele>
        <time>2010-08-04T08:06:46Z</time>
      </trkpt>
      <trkpt lat="45.34983" lon="6.75601">
        <ele>3070.11</ele>
        <time>2010-08-04T08:06:47Z</time>
      </trkpt>
      <trkpt lat="45.34981" lon="6.756">
        <ele>3071.55</ele>
        <time>2010-08-04T08:06:50Z</time>
      </trkpt>
      <trkpt lat="45.34975" lon="6.75593">
        <ele>3071.55</ele>
        <time>2010-08-04T08:07:00Z</time>
      </trkpt>
      <trkpt lat="45.34971" lon="6.75589">
        <ele>3074.43</ele>
        <time>2010-08-04T08:07:07Z</time>
      </trkpt>
      <trkpt lat="45.34967" lon="6.75584">
        <ele>3075.88</ele>
        <time>2010-08-04T08:07:13Z</time>
      </trkpt>
      <trkpt lat="45.34967" lon="6.75583">
        <ele>3072.03</ele>
        <time>2010-08-04T08:07:15Z</time>
      </trkpt>
      <trkpt lat="45.34966" lon="6.75582">
        <ele>3078.28</ele>
        <time>2010-08-04T08:07:16Z</time>
      </trkpt>
      <trkpt lat="45.34966" lon="6.75582">
        <ele>3074.91</ele>
        <time>2010-08-04T08:07:17Z</time>
      </trkpt>
      <trkpt lat="45.34961" lon="6.75577">
        <ele>3072.99</ele>
        <time>2010-08-04T08:07:23Z</time>
      </trkpt>
      <trkpt lat="45.34961" lon="6.75576">
        <ele>3076.36</ele>
        <time>2010-08-04T08:07:24Z</time>
      </trkpt>
      <trkpt lat="45.3496" lon="6.75575">
        <ele>3076.36</ele>
        <time>2010-08-04T08:07:25Z</time>
      </trkpt>
      <trkpt lat="45.34959" lon="6.75571">
        <ele>3076.84</ele>
        <time>2010-08-04T08:07:31Z</time>
      </trkpt>
      <trkpt lat="45.34958" lon="6.75563">
        <ele>3075.4</ele>
        <time>2010-08-04T08:07:40Z</time>
      </trkpt>
      <trkpt lat="45.34958" lon="6.75561">
        <ele>3079.72</ele>
        <time>2010-08-04T08:07:42Z</time>
      </trkpt>
      <trkpt lat="45.34959" lon="6.75556">
        <ele>3074.43</ele>
        <time>2010-08-04T08:07:46Z</time>
      </trkpt>
      <trkpt lat="45.34958" lon="6.75551">
        <ele>3077.8</ele>
        <time>2010-08-04T08:07:51Z</time>
      </trkpt>
      <trkpt lat="45.34958" lon="6.7555">
        <ele>3074.91</ele>
        <time>2010-08-04T08:07:52Z</time>
      </trkpt>
      <trkpt lat="45.34958" lon="6.75549">
        <ele>3080.2</ele>
        <time>2010-08-04T08:07:54Z</time>
      </trkpt>
      <trkpt lat="45.34958" lon="6.75548">
        <ele>3079.72</ele>
        <time>2010-08-04T08:07:55Z</time>
      </trkpt>
      <trkpt lat="45.34958" lon="6.75545">
        <ele>3076.36</ele>
        <time>2010-08-04T08:07:58Z</time>
      </trkpt>
      <trkpt lat="45.34958" lon="6.75544">
        <ele>3077.8</ele>
        <time>2010-08-04T08:07:59Z</time>
      </trkpt>
      <trkpt lat="45.34958" lon="6.75544">
        <ele>3078.28</ele>
        <time>2010-08-04T08:08:01Z</time>
      </trkpt>
      <trkpt lat="45.34959" lon="6.75538">
        <ele>3083.09</ele>
        <time>2010-08-04T08:08:09Z</time>
      </trkpt>
      <trkpt lat="45.34959" lon="6.75538">
        <ele>3081.16</ele>
        <time>2010-08-04T08:08:10Z</time>
      </trkpt>
      <trkpt lat="45.34956" lon="6.75528">
        <ele>3080.68</ele>
        <time>2010-08-04T08:08:23Z</time>
      </trkpt>
      <trkpt lat="45.34954" lon="6.75519">
        <ele>3084.53</ele>
        <time>2010-08-04T08:08:33Z</time>
      </trkpt>
      <trkpt lat="45.34952" lon="6.7551">
        <ele>3075.88</ele>
        <time>2010-08-04T08:08:41Z</time>
      </trkpt>
      <trkpt lat="45.34952" lon="6.75509">
        <ele>3082.12</ele>
        <time>2010-08-04T08:08:42Z</time>
      </trkpt>
      <trkpt lat="45.34952" lon="6.75508">
        <ele>3084.05</ele>
        <time>2010-08-04T08:08:44Z</time>
      </trkpt>
      <trkpt lat="45.34951" lon="6.75506">
        <ele>3079.72</ele>
        <time>2010-08-04T08:08:46Z</time>
      </trkpt>
      <trkpt lat="45.34951" lon="6.75505">
        <ele>3083.09</ele>
        <time>2010-08-04T08:08:47Z</time>
      </trkpt>
      <trkpt lat="45.34952" lon="6.75502">
        <ele>3084.53</ele>
        <time>2010-08-04T08:08:49Z</time>
      </trkpt>
      <trkpt lat="45.34952" lon="6.755">
        <ele>3082.12</ele>
        <time>2010-08-04T08:08:51Z</time>
      </trkpt>
      <trkpt lat="45.34951" lon="6.75496">
        <ele>3085.49</ele>
        <time>2010-08-04T08:08:55Z</time>
      </trkpt>
      <trkpt lat="45.3495" lon="6.75489">
        <ele>3085.97</ele>
        <time>2010-08-04T08:09:03Z</time>
      </trkpt>
      <trkpt lat="45.34947" lon="6.75475">
        <ele>3085.97</ele>
        <time>2010-08-04T08:09:16Z</time>
      </trkpt>
      <trkpt lat="45.34946" lon="6.75473">
        <ele>3086.45</ele>
        <time>2010-08-04T08:09:18Z</time>
      </trkpt>
      <trkpt lat="45.34945" lon="6.75471">
        <ele>3090.78</ele>
        <time>2010-08-04T08:09:20Z</time>
      </trkpt>
      <trkpt lat="45.34945" lon="6.7547">
        <ele>3087.41</ele>
        <time>2010-08-04T08:09:21Z</time>
      </trkpt>
      <trkpt lat="45.34943" lon="6.75466">
        <ele>3088.37</ele>
        <time>2010-08-04T08:09:25Z</time>
      </trkpt>
      <trkpt lat="45.34942" lon="6.75457">
        <ele>3086.93</ele>
        <time>2010-08-04T08:09:37Z</time>
      </trkpt>
      <trkpt lat="45.3494" lon="6.75456">
        <ele>3080.68</ele>
        <time>2010-08-04T08:09:39Z</time>
      </trkpt>
      <trkpt lat="45.34939" lon="6.75456">
        <ele>3089.33</ele>
        <time>2010-08-04T08:09:40Z</time>
      </trkpt>
      <trkpt lat="45.34938" lon="6.75455">
        <ele>3083.57</ele>
        <time>2010-08-04T08:09:41Z</time>
      </trkpt>
      <trkpt lat="45.34938" lon="6.75455">
        <ele>3089.33</ele>
        <time>2010-08-04T08:09:42Z</time>
      </trkpt>
      <trkpt lat="45.34937" lon="6.75452">
        <ele>3086.45</ele>
        <time>2010-08-04T08:09:46Z</time>
      </trkpt>
      <trkpt lat="45.34936" lon="6.75451">
        <ele>3086.93</ele>
        <time>2010-08-04T08:10:01Z</time>
      </trkpt>
      <trkpt lat="45.34934" lon="6.75451">
        <ele>3090.29</ele>
        <time>2010-08-04T08:10:03Z</time>
      </trkpt>
      <trkpt lat="45.3493" lon="6.7545">
        <ele>3088.85</ele>
        <time>2010-08-04T08:10:07Z</time>
      </trkpt>
      <trkpt lat="45.34928" lon="6.75449">
        <ele>3086.45</ele>
        <time>2010-08-04T08:10:09Z</time>
      </trkpt>
      <trkpt lat="45.34926" lon="6.75448">
        <ele>3091.26</ele>
        <time>2010-08-04T08:10:11Z</time>
      </trkpt>
      <trkpt lat="45.34925" lon="6.75448">
        <ele>3088.37</ele>
        <time>2010-08-04T08:10:12Z</time>
      </trkpt>
      <trkpt lat="45.34916" lon="6.75442">
        <ele>3090.78</ele>
        <time>2010-08-04T08:10:23Z</time>
      </trkpt>
      <trkpt lat="45.34915" lon="6.75441">
        <ele>3087.41</ele>
        <time>2010-08-04T08:10:25Z</time>
      </trkpt>
      <trkpt lat="45.34913" lon="6.7544">
        <ele>3093.66</ele>
        <time>2010-08-04T08:10:27Z</time>
      </trkpt>
      <trkpt lat="45.34912" lon="6.75439">
        <ele>3089.81</ele>
        <time>2010-08-04T08:10:28Z</time>
      </trkpt>
      <trkpt lat="45.34909" lon="6.75439">
        <ele>3094.14</ele>
        <time>2010-08-04T08:10:32Z</time>
      </trkpt>
      <trkpt lat="45.34908" lon="6.75438">
        <ele>3090.78</ele>
        <time>2010-08-04T08:10:33Z</time>
      </trkpt>
      <trkpt lat="45.34906" lon="6.75438">
        <ele>3087.41</ele>
        <time>2010-08-04T08:10:35Z</time>
      </trkpt>
      <trkpt lat="45.34906" lon="6.75438">
        <ele>3092.7</ele>
        <time>2010-08-04T08:10:36Z</time>
      </trkpt>
      <trkpt lat="45.34903" lon="6.75437">
        <ele>3089.33</ele>
        <time>2010-08-04T08:10:39Z</time>
      </trkpt>
      <trkpt lat="45.34902" lon="6.75437">
        <ele>3093.66</ele>
        <time>2010-08-04T08:10:40Z</time>
      </trkpt>
      <trkpt lat="45.34901" lon="6.75435">
        <ele>3089.81</ele>
        <time>2010-08-04T08:10:42Z</time>
      </trkpt>
      <trkpt lat="45.349" lon="6.75435">
        <ele>3090.29</ele>
        <time>2010-08-04T08:10:43Z</time>
      </trkpt>
      <trkpt lat="45.34896" lon="6.75434">
        <ele>3093.66</ele>
        <time>2010-08-04T08:10:48Z</time>
      </trkpt>
      <trkpt lat="45.34895" lon="6.75434">
        <ele>3090.29</ele>
        <time>2010-08-04T08:10:50Z</time>
      </trkpt>
      <trkpt lat="45.34893" lon="6.75434">
        <ele>3093.18</ele>
        <time>2010-08-04T08:10:52Z</time>
      </trkpt>
      <trkpt lat="45.34884" lon="6.7543">
        <ele>3093.66</ele>
        <time>2010-08-04T08:11:05Z</time>
      </trkpt>
      <trkpt lat="45.34882" lon="6.75429">
        <ele>3091.74</ele>
        <time>2010-08-04T08:11:07Z</time>
      </trkpt>
      <trkpt lat="45.34882" lon="6.75429">
        <ele>3088.85</ele>
        <time>2010-08-04T08:11:08Z</time>
      </trkpt>
      <trkpt lat="45.34881" lon="6.75429">
        <ele>3091.74</ele>
        <time>2010-08-04T08:11:09Z</time>
      </trkpt>
      <trkpt lat="45.34879" lon="6.75428">
        <ele>3095.1</ele>
        <time>2010-08-04T08:11:12Z</time>
      </trkpt>
      <trkpt lat="45.34878" lon="6.75428">
        <ele>3095.1</ele>
        <time>2010-08-04T08:11:13Z</time>
      </trkpt>
      <trkpt lat="45.34877" lon="6.75428">
        <ele>3091.74</ele>
        <time>2010-08-04T08:11:14Z</time>
      </trkpt>
      <trkpt lat="45.34877" lon="6.75427">
        <ele>3093.18</ele>
        <time>2010-08-04T08:11:15Z</time>
      </trkpt>
      <trkpt lat="45.34873" lon="6.75425">
        <ele>3094.62</ele>
        <time>2010-08-04T08:11:21Z</time>
      </trkpt>
      <trkpt lat="45.3487" lon="6.75425">
        <ele>3094.62</ele>
        <time>2010-08-04T08:11:25Z</time>
      </trkpt>
      <trkpt lat="45.34867" lon="6.75424">
        <ele>3097.99</ele>
        <time>2010-08-04T08:11:30Z</time>
      </trkpt>
      <trkpt lat="45.34862" lon="6.75423">
        <ele>3096.06</ele>
        <time>2010-08-04T08:11:36Z</time>
      </trkpt>
      <trkpt lat="45.3486" lon="6.75422">
        <ele>3099.91</ele>
        <time>2010-08-04T08:11:39Z</time>
      </trkpt>
      <trkpt lat="45.34856" lon="6.75422">
        <ele>3096.06</ele>
        <time>2010-08-04T08:11:44Z</time>
      </trkpt>
      <trkpt lat="45.34856" lon="6.75422">
        <ele>3099.91</ele>
        <time>2010-08-04T08:11:45Z</time>
      </trkpt>
      <trkpt lat="45.34855" lon="6.75422">
        <ele>3099.43</ele>
        <time>2010-08-04T08:11:46Z</time>
      </trkpt>
      <trkpt lat="45.34851" lon="6.75423">
        <ele>3098.95</ele>
        <time>2010-08-04T08:11:51Z</time>
      </trkpt>
      <trkpt lat="45.34847" lon="6.75423">
        <ele>3101.35</ele>
        <time>2010-08-04T08:11:56Z</time>
      </trkpt>
      <trkpt lat="45.34846" lon="6.75422">
        <ele>3097.51</ele>
        <time>2010-08-04T08:11:58Z</time>
      </trkpt>
      <trkpt lat="45.34845" lon="6.75422">
        <ele>3100.87</ele>
        <time>2010-08-04T08:11:59Z</time>
      </trkpt>
      <trkpt lat="45.34837" lon="6.75421">
        <ele>3103.75</ele>
        <time>2010-08-04T08:12:11Z</time>
      </trkpt>
      <trkpt lat="45.34835" lon="6.75421">
        <ele>3100.87</ele>
        <time>2010-08-04T08:12:15Z</time>
      </trkpt>
      <trkpt lat="45.34833" lon="6.7542">
        <ele>3102.79</ele>
        <time>2010-08-04T08:12:17Z</time>
      </trkpt>
      <trkpt lat="45.34832" lon="6.7542">
        <ele>3100.87</ele>
        <time>2010-08-04T08:12:19Z</time>
      </trkpt>
      <trkpt lat="45.34832" lon="6.7542">
        <ele>3104.71</ele>
        <time>2010-08-04T08:12:20Z</time>
      </trkpt>
      <trkpt lat="45.34831" lon="6.7542">
        <ele>3099.91</ele>
        <time>2010-08-04T08:12:21Z</time>
      </trkpt>
      <trkpt lat="45.3483" lon="6.75421">
        <ele>3104.23</ele>
        <time>2010-08-04T08:12:23Z</time>
      </trkpt>
      <trkpt lat="45.34825" lon="6.7542">
        <ele>3104.23</ele>
        <time>2010-08-04T08:12:30Z</time>
      </trkpt>
      <trkpt lat="45.34819" lon="6.7542">
        <ele>3103.75</ele>
        <time>2010-08-04T08:12:40Z</time>
      </trkpt>
      <trkpt lat="45.34816" lon="6.75419">
        <ele>3107.12</ele>
        <time>2010-08-04T08:12:46Z</time>
      </trkpt>
      <trkpt lat="45.34815" lon="6.75419">
        <ele>3105.68</ele>
        <time>2010-08-04T08:12:47Z</time>
      </trkpt>
      <trkpt lat="45.34811" lon="6.75419">
        <ele>3107.6</ele>
        <time>2010-08-04T08:12:54Z</time>
      </trkpt>
      <trkpt lat="45.3481" lon="6.75418">
        <ele>3105.68</ele>
        <time>2010-08-04T08:12:56Z</time>
      </trkpt>
      <trkpt lat="45.34808" lon="6.75418">
        <ele>3107.12</ele>
        <time>2010-08-04T08:12:59Z</time>
      </trkpt>
      <trkpt lat="45.34806" lon="6.75417">
        <ele>3112.41</ele>
        <time>2010-08-04T08:13:02Z</time>
      </trkpt>
      <trkpt lat="45.34806" lon="6.75417">
        <ele>3110.96</ele>
        <time>2010-08-04T08:13:03Z</time>
      </trkpt>
      <trkpt lat="45.34805" lon="6.75416">
        <ele>3104.23</ele>
        <time>2010-08-04T08:13:05Z</time>
      </trkpt>
      <trkpt lat="45.34804" lon="6.75416">
        <ele>3108.08</ele>
        <time>2010-08-04T08:13:06Z</time>
      </trkpt>
      <trkpt lat="45.34804" lon="6.75416">
        <ele>3110.96</ele>
        <time>2010-08-04T08:13:07Z</time>
      </trkpt>
      <trkpt lat="45.34803" lon="6.75416">
        <ele>3105.2</ele>
        <time>2010-08-04T08:13:08Z</time>
      </trkpt>
      <trkpt lat="45.34802" lon="6.75416">
        <ele>3109.52</ele>
        <time>2010-08-04T08:13:09Z</time>
      </trkpt>
      <trkpt lat="45.34801" lon="6.75415">
        <ele>3110.48</ele>
        <time>2010-08-04T08:13:11Z</time>
      </trkpt>
      <trkpt lat="45.34801" lon="6.75415">
        <ele>3107.12</ele>
        <time>2010-08-04T08:13:12Z</time>
      </trkpt>
      <trkpt lat="45.348" lon="6.75415">
        <ele>3108.56</ele>
        <time>2010-08-04T08:13:13Z</time>
      </trkpt>
      <trkpt lat="45.34796" lon="6.75414">
        <ele>3109.04</ele>
        <time>2010-08-04T08:13:19Z</time>
      </trkpt>
      <trkpt lat="45.34795" lon="6.75415">
        <ele>3111.44</ele>
        <time>2010-08-04T08:13:21Z</time>
      </trkpt>
      <trkpt lat="45.34791" lon="6.75414">
        <ele>3106.16</ele>
        <time>2010-08-04T08:13:27Z</time>
      </trkpt>
      <trkpt lat="45.34791" lon="6.75414">
        <ele>3110.48</ele>
        <time>2010-08-04T08:13:28Z</time>
      </trkpt>
      <trkpt lat="45.3479" lon="6.75414">
        <ele>3114.33</ele>
        <time>2010-08-04T08:13:29Z</time>
      </trkpt>
      <trkpt lat="45.34789" lon="6.75414">
        <ele>3114.33</ele>
        <time>2010-08-04T08:13:30Z</time>
      </trkpt>
      <trkpt lat="45.34788" lon="6.75414">
        <ele>3111.92</ele>
        <time>2010-08-04T08:13:32Z</time>
      </trkpt>
      <trkpt lat="45.34784" lon="6.75413">
        <ele>3115.77</ele>
        <time>2010-08-04T08:13:40Z</time>
      </trkpt>
      <trkpt lat="45.34782" lon="6.75413">
        <ele>3112.89</ele>
        <time>2010-08-04T08:13:43Z</time>
      </trkpt>
      <trkpt lat="45.34782" lon="6.75413">
        <ele>3115.77</ele>
        <time>2010-08-04T08:13:44Z</time>
      </trkpt>
      <trkpt lat="45.34774" lon="6.75412">
        <ele>3115.77</ele>
        <time>2010-08-04T08:13:58Z</time>
      </trkpt>
      <trkpt lat="45.34771" lon="6.75412">
        <ele>3120.1</ele>
        <time>2010-08-04T08:14:03Z</time>
      </trkpt>
      <trkpt lat="45.34771" lon="6.75411">
        <ele>3115.77</ele>
        <time>2010-08-04T08:14:04Z</time>
      </trkpt>
      <trkpt lat="45.34768" lon="6.75412">
        <ele>3117.69</ele>
        <time>2010-08-04T08:14:10Z</time>
      </trkpt>
      <trkpt lat="45.34767" lon="6.75412">
        <ele>3121.54</ele>
        <time>2010-08-04T08:14:11Z</time>
      </trkpt>
      <trkpt lat="45.34766" lon="6.75412">
        <ele>3118.17</ele>
        <time>2010-08-04T08:14:12Z</time>
      </trkpt>
      <trkpt lat="45.34762" lon="6.75412">
        <ele>3120.1</ele>
        <time>2010-08-04T08:14:21Z</time>
      </trkpt>
      <trkpt lat="45.34761" lon="6.75411">
        <ele>3119.13</ele>
        <time>2010-08-04T08:14:23Z</time>
      </trkpt>
      <trkpt lat="45.34761" lon="6.75402">
        <ele>3122.5</ele>
        <time>2010-08-04T08:14:34Z</time>
      </trkpt>
      <trkpt lat="45.34761" lon="6.75401">
        <ele>3118.17</ele>
        <time>2010-08-04T08:14:35Z</time>
      </trkpt>
      <trkpt lat="45.34761" lon="6.75399">
        <ele>3122.02</ele>
        <time>2010-08-04T08:14:37Z</time>
      </trkpt>
      <trkpt lat="45.34761" lon="6.75399">
        <ele>3118.65</ele>
        <time>2010-08-04T08:14:38Z</time>
      </trkpt>
      <trkpt lat="45.34761" lon="6.75398">
        <ele>3124.9</ele>
        <time>2010-08-04T08:14:39Z</time>
      </trkpt>
      <trkpt lat="45.34761" lon="6.75396">
        <ele>3121.54</ele>
        <time>2010-08-04T08:14:41Z</time>
      </trkpt>
      <trkpt lat="45.34761" lon="6.75392">
        <ele>3125.38</ele>
        <time>2010-08-04T08:14:47Z</time>
      </trkpt>
      <trkpt lat="45.34761" lon="6.75392">
        <ele>3121.54</ele>
        <time>2010-08-04T08:14:48Z</time>
      </trkpt>
      <trkpt lat="45.34761" lon="6.75388">
        <ele>3124.9</ele>
        <time>2010-08-04T08:14:52Z</time>
      </trkpt>
      <trkpt lat="45.34761" lon="6.75387">
        <ele>3124.9</ele>
        <time>2010-08-04T08:14:53Z</time>
      </trkpt>
      <trkpt lat="45.34762" lon="6.75385">
        <ele>3122.98</ele>
        <time>2010-08-04T08:14:55Z</time>
      </trkpt>
      <trkpt lat="45.34762" lon="6.75383">
        <ele>3128.27</ele>
        <time>2010-08-04T08:14:58Z</time>
      </trkpt>
      <trkpt lat="45.34762" lon="6.75383">
        <ele>3123.94</ele>
        <time>2010-08-04T08:14:59Z</time>
      </trkpt>
      <trkpt lat="45.34763" lon="6.75379">
        <ele>3120.58</ele>
        <time>2010-08-04T08:15:04Z</time>
      </trkpt>
      <trkpt lat="45.34763" lon="6.75378">
        <ele>3126.34</ele>
        <time>2010-08-04T08:15:05Z</time>
      </trkpt>
      <trkpt lat="45.34763" lon="6.75377">
        <ele>3125.38</ele>
        <time>2010-08-04T08:15:06Z</time>
      </trkpt>
      <trkpt lat="45.34762" lon="6.75376">
        <ele>3119.13</ele>
        <time>2010-08-04T08:15:11Z</time>
      </trkpt>
      <trkpt lat="45.34762" lon="6.75376">
        <ele>3126.34</ele>
        <time>2010-08-04T08:15:12Z</time>
      </trkpt>
      <trkpt lat="45.34759" lon="6.75377">
        <ele>3125.86</ele>
        <time>2010-08-04T08:15:16Z</time>
      </trkpt>
      <trkpt lat="45.34758" lon="6.75378">
        <ele>3127.79</ele>
        <time>2010-08-04T08:15:18Z</time>
      </trkpt>
      <trkpt lat="45.34751" lon="6.75378">
        <ele>3132.11</ele>
        <time>2010-08-04T08:15:30Z</time>
      </trkpt>
      <trkpt lat="45.34751" lon="6.75378">
        <ele>3128.27</ele>
        <time>2010-08-04T08:15:31Z</time>
      </trkpt>
      <trkpt lat="45.34748" lon="6.75378">
        <ele>3131.63</ele>
        <time>2010-08-04T08:15:37Z</time>
      </trkpt>
      <trkpt lat="45.34747" lon="6.75378">
        <ele>3128.75</ele>
        <time>2010-08-04T08:15:38Z</time>
      </trkpt>
      <trkpt lat="45.34747" lon="6.75378">
        <ele>3128.27</ele>
        <time>2010-08-04T08:15:39Z</time>
      </trkpt>
      <trkpt lat="45.34744" lon="6.75378">
        <ele>3131.63</ele>
        <time>2010-08-04T08:15:43Z</time>
      </trkpt>
      <trkpt lat="45.34735" lon="6.75378">
        <ele>3130.67</ele>
        <time>2010-08-04T08:15:59Z</time>
      </trkpt>
      <trkpt lat="45.34735" lon="6.75378">
        <ele>3130.67</ele>
        <time>2010-08-04T08:16:00Z</time>
      </trkpt>
      <trkpt lat="45.34733" lon="6.75377">
        <ele>3134.04</ele>
        <time>2010-08-04T08:16:04Z</time>
      </trkpt>
      <trkpt lat="45.3473" lon="6.75377">
        <ele>3130.67</ele>
        <time>2010-08-04T08:16:08Z</time>
      </trkpt>
      <trkpt lat="45.34728" lon="6.75376">
        <ele>3134.04</ele>
        <time>2010-08-04T08:16:12Z</time>
      </trkpt>
      <trkpt lat="45.34719" lon="6.75374">
        <ele>3137.4</ele>
        <time>2010-08-04T08:16:27Z</time>
      </trkpt>
      <trkpt lat="45.34713" lon="6.75373">
        <ele>3133.07</ele>
        <time>2010-08-04T08:16:39Z</time>
      </trkpt>
      <trkpt lat="45.34713" lon="6.75373">
        <ele>3141.25</ele>
        <time>2010-08-04T08:16:40Z</time>
      </trkpt>
      <trkpt lat="45.34712" lon="6.75372">
        <ele>3135.48</ele>
        <time>2010-08-04T08:16:41Z</time>
      </trkpt>
      <trkpt lat="45.3471" lon="6.75372">
        <ele>3141.25</ele>
        <time>2010-08-04T08:16:44Z</time>
      </trkpt>
      <trkpt lat="45.34706" lon="6.75369">
        <ele>3144.61</ele>
        <time>2010-08-04T08:16:54Z</time>
      </trkpt>
      <trkpt lat="45.34706" lon="6.75367">
        <ele>3144.13</ele>
        <time>2010-08-04T08:16:55Z</time>
      </trkpt>
      <trkpt lat="45.34706" lon="6.75366">
        <ele>3140.76</ele>
        <time>2010-08-04T08:16:56Z</time>
      </trkpt>
      <trkpt lat="45.34706" lon="6.75363">
        <ele>3138.84</ele>
        <time>2010-08-04T08:16:59Z</time>
      </trkpt>
      <trkpt lat="45.34707" lon="6.75362">
        <ele>3142.21</ele>
        <time>2010-08-04T08:17:00Z</time>
      </trkpt>
      <trkpt lat="45.34707" lon="6.75362">
        <ele>3137.4</ele>
        <time>2010-08-04T08:17:01Z</time>
      </trkpt>
      <trkpt lat="45.34706" lon="6.75361">
        <ele>3143.17</ele>
        <time>2010-08-04T08:17:02Z</time>
      </trkpt>
      <trkpt lat="45.34706" lon="6.75361">
        <ele>3139.8</ele>
        <time>2010-08-04T08:17:03Z</time>
      </trkpt>
      <trkpt lat="45.34707" lon="6.75357">
        <ele>3144.13</ele>
        <time>2010-08-04T08:17:07Z</time>
      </trkpt>
      <trkpt lat="45.34707" lon="6.75357">
        <ele>3140.28</ele>
        <time>2010-08-04T08:17:08Z</time>
      </trkpt>
      <trkpt lat="45.34707" lon="6.75351">
        <ele>3144.61</ele>
        <time>2010-08-04T08:17:17Z</time>
      </trkpt>
      <trkpt lat="45.34707" lon="6.75347">
        <ele>3140.28</ele>
        <time>2010-08-04T08:17:23Z</time>
      </trkpt>
      <trkpt lat="45.34707" lon="6.75346">
        <ele>3144.61</ele>
        <time>2010-08-04T08:17:24Z</time>
      </trkpt>
      <trkpt lat="45.34707" lon="6.75345">
        <ele>3141.73</ele>
        <time>2010-08-04T08:17:25Z</time>
      </trkpt>
      <trkpt lat="45.34708" lon="6.75341">
        <ele>3144.61</ele>
        <time>2010-08-04T08:17:30Z</time>
      </trkpt>
      <trkpt lat="45.34711" lon="6.75328">
        <ele>3147.01</ele>
        <time>2010-08-04T08:17:45Z</time>
      </trkpt>
      <trkpt lat="45.34711" lon="6.75325">
        <ele>3143.65</ele>
        <time>2010-08-04T08:17:49Z</time>
      </trkpt>
      <trkpt lat="45.34711" lon="6.75324">
        <ele>3147.49</ele>
        <time>2010-08-04T08:17:50Z</time>
      </trkpt>
      <trkpt lat="45.34712" lon="6.7532">
        <ele>3145.57</ele>
        <time>2010-08-04T08:17:55Z</time>
      </trkpt>
      <trkpt lat="45.34712" lon="6.75318">
        <ele>3148.46</ele>
        <time>2010-08-04T08:17:58Z</time>
      </trkpt>
      <trkpt lat="45.34712" lon="6.75315">
        <ele>3147.01</ele>
        <time>2010-08-04T08:18:01Z</time>
      </trkpt>
      <trkpt lat="45.34712" lon="6.75313">
        <ele>3150.86</ele>
        <time>2010-08-04T08:18:03Z</time>
      </trkpt>
      <trkpt lat="45.34712" lon="6.75312">
        <ele>3146.53</ele>
        <time>2010-08-04T08:18:04Z</time>
      </trkpt>
      <trkpt lat="45.34712" lon="6.75311">
        <ele>3147.01</ele>
        <time>2010-08-04T08:18:05Z</time>
      </trkpt>
      <trkpt lat="45.34712" lon="6.75307">
        <ele>3148.94</ele>
        <time>2010-08-04T08:18:10Z</time>
      </trkpt>
      <trkpt lat="45.34712" lon="6.75302">
        <ele>3152.78</ele>
        <time>2010-08-04T08:18:15Z</time>
      </trkpt>
      <trkpt lat="45.34712" lon="6.75302">
        <ele>3152.78</ele>
        <time>2010-08-04T08:18:16Z</time>
      </trkpt>
      <trkpt lat="45.34713" lon="6.75297">
        <ele>3149.42</ele>
        <time>2010-08-04T08:18:20Z</time>
      </trkpt>
      <trkpt lat="45.34715" lon="6.7529">
        <ele>3152.3</ele>
        <time>2010-08-04T08:18:27Z</time>
      </trkpt>
      <trkpt lat="45.34717" lon="6.75286">
        <ele>3154.7</ele>
        <time>2010-08-04T08:18:31Z</time>
      </trkpt>
      <trkpt lat="45.34718" lon="6.75284">
        <ele>3151.34</ele>
        <time>2010-08-04T08:18:33Z</time>
      </trkpt>
      <trkpt lat="45.34719" lon="6.75281">
        <ele>3156.15</ele>
        <time>2010-08-04T08:18:37Z</time>
      </trkpt>
      <trkpt lat="45.3472" lon="6.7528">
        <ele>3152.78</ele>
        <time>2010-08-04T08:18:38Z</time>
      </trkpt>
      <trkpt lat="45.34721" lon="6.75275">
        <ele>3148.94</ele>
        <time>2010-08-04T08:18:43Z</time>
      </trkpt>
      <trkpt lat="45.34721" lon="6.75274">
        <ele>3153.74</ele>
        <time>2010-08-04T08:18:44Z</time>
      </trkpt>
      <trkpt lat="45.34723" lon="6.75265">
        <ele>3157.59</ele>
        <time>2010-08-04T08:18:53Z</time>
      </trkpt>
      <trkpt lat="45.34724" lon="6.75264">
        <ele>3154.22</ele>
        <time>2010-08-04T08:18:54Z</time>
      </trkpt>
      <trkpt lat="45.34724" lon="6.75261">
        <ele>3155.18</ele>
        <time>2010-08-04T08:18:58Z</time>
      </trkpt>
      <trkpt lat="45.34725" lon="6.75254">
        <ele>3156.15</ele>
        <time>2010-08-04T08:19:07Z</time>
      </trkpt>
      <trkpt lat="45.3472" lon="6.75251">
        <ele>3159.51</ele>
        <time>2010-08-04T08:19:16Z</time>
      </trkpt>
      <trkpt lat="45.3472" lon="6.7524">
        <ele>3155.66</ele>
        <time>2010-08-04T08:19:27Z</time>
      </trkpt>
      <trkpt lat="45.34719" lon="6.75239">
        <ele>3164.32</ele>
        <time>2010-08-04T08:19:28Z</time>
      </trkpt>
      <trkpt lat="45.34719" lon="6.75238">
        <ele>3160.95</ele>
        <time>2010-08-04T08:19:29Z</time>
      </trkpt>
      <trkpt lat="45.34718" lon="6.75233">
        <ele>3164.32</ele>
        <time>2010-08-04T08:19:36Z</time>
      </trkpt>
      <trkpt lat="45.34718" lon="6.75232">
        <ele>3159.99</ele>
        <time>2010-08-04T08:19:37Z</time>
      </trkpt>
      <trkpt lat="45.34719" lon="6.75224">
        <ele>3159.03</ele>
        <time>2010-08-04T08:19:45Z</time>
      </trkpt>
      <trkpt lat="45.3472" lon="6.75222">
        <ele>3161.91</ele>
        <time>2010-08-04T08:19:47Z</time>
      </trkpt>
      <trkpt lat="45.34721" lon="6.7522">
        <ele>3165.76</ele>
        <time>2010-08-04T08:19:49Z</time>
      </trkpt>
      <trkpt lat="45.34721" lon="6.75219">
        <ele>3162.39</ele>
        <time>2010-08-04T08:19:50Z</time>
      </trkpt>
      <trkpt lat="45.34722" lon="6.75213">
        <ele>3159.03</ele>
        <time>2010-08-04T08:19:55Z</time>
      </trkpt>
      <trkpt lat="45.34723" lon="6.75211">
        <ele>3165.28</ele>
        <time>2010-08-04T08:19:57Z</time>
      </trkpt>
      <trkpt lat="45.34723" lon="6.7521">
        <ele>3163.36</ele>
        <time>2010-08-04T08:19:58Z</time>
      </trkpt>
      <trkpt lat="45.34723" lon="6.75209">
        <ele>3157.59</ele>
        <time>2010-08-04T08:19:59Z</time>
      </trkpt>
      <trkpt lat="45.34723" lon="6.75208">
        <ele>3164.32</ele>
        <time>2010-08-04T08:20:00Z</time>
      </trkpt>
      <trkpt lat="45.34725" lon="6.75203">
        <ele>3159.51</ele>
        <time>2010-08-04T08:20:06Z</time>
      </trkpt>
      <trkpt lat="45.34726" lon="6.75197">
        <ele>3163.36</ele>
        <time>2010-08-04T08:20:11Z</time>
      </trkpt>
      <trkpt lat="45.34728" lon="6.7519">
        <ele>3162.39</ele>
        <time>2010-08-04T08:20:18Z</time>
      </trkpt>
      <trkpt lat="45.34728" lon="6.75188">
        <ele>3166.72</ele>
        <time>2010-08-04T08:20:20Z</time>
      </trkpt>
      <trkpt lat="45.34728" lon="6.75188">
        <ele>3167.2</ele>
        <time>2010-08-04T08:20:21Z</time>
      </trkpt>
      <trkpt lat="45.34728" lon="6.75186">
        <ele>3162.39</ele>
        <time>2010-08-04T08:20:23Z</time>
      </trkpt>
      <trkpt lat="45.34728" lon="6.75185">
        <ele>3163.36</ele>
        <time>2010-08-04T08:20:24Z</time>
      </trkpt>
      <trkpt lat="45.34729" lon="6.75179">
        <ele>3167.2</ele>
        <time>2010-08-04T08:20:31Z</time>
      </trkpt>
      <trkpt lat="45.3473" lon="6.75178">
        <ele>3165.76</ele>
        <time>2010-08-04T08:20:32Z</time>
      </trkpt>
      <trkpt lat="45.3473" lon="6.75176">
        <ele>3169.6</ele>
        <time>2010-08-04T08:20:34Z</time>
      </trkpt>
      <trkpt lat="45.3473" lon="6.75174">
        <ele>3163.36</ele>
        <time>2010-08-04T08:20:36Z</time>
      </trkpt>
      <trkpt lat="45.3473" lon="6.75173">
        <ele>3167.2</ele>
        <time>2010-08-04T08:20:37Z</time>
      </trkpt>
      <trkpt lat="45.3473" lon="6.7517">
        <ele>3165.28</ele>
        <time>2010-08-04T08:20:40Z</time>
      </trkpt>
      <trkpt lat="45.34731" lon="6.75169">
        <ele>3170.57</ele>
        <time>2010-08-04T08:20:42Z</time>
      </trkpt>
      <trkpt lat="45.34731" lon="6.75168">
        <ele>3166.24</ele>
        <time>2010-08-04T08:20:43Z</time>
      </trkpt>
      <trkpt lat="45.34731" lon="6.75166">
        <ele>3168.16</ele>
        <time>2010-08-04T08:20:46Z</time>
      </trkpt>
      <trkpt lat="45.34731" lon="6.75162">
        <ele>3163.36</ele>
        <time>2010-08-04T08:20:50Z</time>
      </trkpt>
      <trkpt lat="45.34731" lon="6.75162">
        <ele>3166.72</ele>
        <time>2010-08-04T08:20:51Z</time>
      </trkpt>
      <trkpt lat="45.34732" lon="6.7516">
        <ele>3170.57</ele>
        <time>2010-08-04T08:20:53Z</time>
      </trkpt>
      <trkpt lat="45.34732" lon="6.75159">
        <ele>3166.24</ele>
        <time>2010-08-04T08:20:54Z</time>
      </trkpt>
      <trkpt lat="45.34731" lon="6.75157">
        <ele>3172.49</ele>
        <time>2010-08-04T08:20:56Z</time>
      </trkpt>
      <trkpt lat="45.34731" lon="6.75156">
        <ele>3170.57</ele>
        <time>2010-08-04T08:20:57Z</time>
      </trkpt>
      <trkpt lat="45.34733" lon="6.75145">
        <ele>3168.16</ele>
        <time>2010-08-04T08:21:09Z</time>
      </trkpt>
      <trkpt lat="45.34733" lon="6.75143">
        <ele>3172.49</ele>
        <time>2010-08-04T08:21:12Z</time>
      </trkpt>
      <trkpt lat="45.34733" lon="6.75141">
        <ele>3167.68</ele>
        <time>2010-08-04T08:21:14Z</time>
      </trkpt>
      <trkpt lat="45.34734" lon="6.7514">
        <ele>3171.05</ele>
        <time>2010-08-04T08:21:15Z</time>
      </trkpt>
      <trkpt lat="45.34734" lon="6.75133">
        <ele>3173.93</ele>
        <time>2010-08-04T08:21:23Z</time>
      </trkpt>
      <trkpt lat="45.34733" lon="6.75131">
        <ele>3168.16</ele>
        <time>2010-08-04T08:21:25Z</time>
      </trkpt>
      <trkpt lat="45.34734" lon="6.7513">
        <ele>3171.53</ele>
        <time>2010-08-04T08:21:26Z</time>
      </trkpt>
      <trkpt lat="45.34733" lon="6.75124">
        <ele>3174.89</ele>
        <time>2010-08-04T08:21:33Z</time>
      </trkpt>
      <trkpt lat="45.34733" lon="6.75123">
        <ele>3171.05</ele>
        <time>2010-08-04T08:21:34Z</time>
      </trkpt>
      <trkpt lat="45.34734" lon="6.7512">
        <ele>3174.89</ele>
        <time>2010-08-04T08:21:38Z</time>
      </trkpt>
      <trkpt lat="45.34735" lon="6.75117">
        <ele>3173.93</ele>
        <time>2010-08-04T08:21:42Z</time>
      </trkpt>
      <trkpt lat="45.34735" lon="6.75116">
        <ele>3170.57</ele>
        <time>2010-08-04T08:21:43Z</time>
      </trkpt>
      <trkpt lat="45.34735" lon="6.75115">
        <ele>3176.33</ele>
        <time>2010-08-04T08:21:44Z</time>
      </trkpt>
      <trkpt lat="45.34735" lon="6.75115">
        <ele>3175.85</ele>
        <time>2010-08-04T08:21:45Z</time>
      </trkpt>
      <trkpt lat="45.34735" lon="6.75106">
        <ele>3172.01</ele>
        <time>2010-08-04T08:21:55Z</time>
      </trkpt>
      <trkpt lat="45.34735" lon="6.75104">
        <ele>3177.29</ele>
        <time>2010-08-04T08:21:57Z</time>
      </trkpt>
      <trkpt lat="45.34735" lon="6.75104">
        <ele>3173.93</ele>
        <time>2010-08-04T08:21:58Z</time>
      </trkpt>
      <trkpt lat="45.34734" lon="6.75099">
        <ele>3180.18</ele>
        <time>2010-08-04T08:22:04Z</time>
      </trkpt>
      <trkpt lat="45.34734" lon="6.75098">
        <ele>3177.78</ele>
        <time>2010-08-04T08:22:05Z</time>
      </trkpt>
      <trkpt lat="45.34733" lon="6.75096">
        <ele>3176.81</ele>
        <time>2010-08-04T08:22:07Z</time>
      </trkpt>
      <trkpt lat="45.34733" lon="6.75094">
        <ele>3180.18</ele>
        <time>2010-08-04T08:22:10Z</time>
      </trkpt>
      <trkpt lat="45.34734" lon="6.75093">
        <ele>3176.33</ele>
        <time>2010-08-04T08:22:11Z</time>
      </trkpt>
      <trkpt lat="45.34734" lon="6.75092">
        <ele>3176.81</ele>
        <time>2010-08-04T08:22:12Z</time>
      </trkpt>
      <trkpt lat="45.34734" lon="6.7509">
        <ele>3179.7</ele>
        <time>2010-08-04T08:22:14Z</time>
      </trkpt>
      <trkpt lat="45.34737" lon="6.75076">
        <ele>3182.1</ele>
        <time>2010-08-04T08:22:30Z</time>
      </trkpt>
      <trkpt lat="45.34737" lon="6.75073">
        <ele>3178.74</ele>
        <time>2010-08-04T08:22:33Z</time>
      </trkpt>
      <trkpt lat="45.34738" lon="6.75068">
        <ele>3182.58</ele>
        <time>2010-08-04T08:22:38Z</time>
      </trkpt>
      <trkpt lat="45.34738" lon="6.75068">
        <ele>3183.06</ele>
        <time>2010-08-04T08:22:39Z</time>
      </trkpt>
      <trkpt lat="45.34738" lon="6.75066">
        <ele>3180.66</ele>
        <time>2010-08-04T08:22:41Z</time>
      </trkpt>
      <trkpt lat="45.34741" lon="6.75058">
        <ele>3184.5</ele>
        <time>2010-08-04T08:22:51Z</time>
      </trkpt>
      <trkpt lat="45.34742" lon="6.75057">
        <ele>3180.66</ele>
        <time>2010-08-04T08:22:52Z</time>
      </trkpt>
      <trkpt lat="45.34742" lon="6.75055">
        <ele>3184.5</ele>
        <time>2010-08-04T08:22:54Z</time>
      </trkpt>
      <trkpt lat="45.34742" lon="6.75055">
        <ele>3183.54</ele>
        <time>2010-08-04T08:22:55Z</time>
      </trkpt>
      <trkpt lat="45.34742" lon="6.75053">
        <ele>3187.39</ele>
        <time>2010-08-04T08:22:57Z</time>
      </trkpt>
      <trkpt lat="45.34743" lon="6.75052">
        <ele>3182.1</ele>
        <time>2010-08-04T08:22:58Z</time>
      </trkpt>
      <trkpt lat="45.34745" lon="6.75044">
        <ele>3186.91</ele>
        <time>2010-08-04T08:23:09Z</time>
      </trkpt>
      <trkpt lat="45.34746" lon="6.75042">
        <ele>3183.54</ele>
        <time>2010-08-04T08:23:11Z</time>
      </trkpt>
      <trkpt lat="45.34746" lon="6.75038">
        <ele>3184.02</ele>
        <time>2010-08-04T08:23:16Z</time>
      </trkpt>
      <trkpt lat="45.34747" lon="6.75034">
        <ele>3187.39</ele>
        <time>2010-08-04T08:23:21Z</time>
      </trkpt>
      <trkpt lat="45.34747" lon="6.75033">
        <ele>3183.54</ele>
        <time>2010-08-04T08:23:22Z</time>
      </trkpt>
      <trkpt lat="45.34747" lon="6.75033">
        <ele>3186.91</ele>
        <time>2010-08-04T08:23:23Z</time>
      </trkpt>
      <trkpt lat="45.34747" lon="6.75032">
        <ele>3183.54</ele>
        <time>2010-08-04T08:23:24Z</time>
      </trkpt>
      <trkpt lat="45.34749" lon="6.7503">
        <ele>3188.83</ele>
        <time>2010-08-04T08:23:27Z</time>
      </trkpt>
      <trkpt lat="45.34749" lon="6.75029">
        <ele>3186.43</ele>
        <time>2010-08-04T08:23:28Z</time>
      </trkpt>
      <trkpt lat="45.34749" lon="6.75028">
        <ele>3189.79</ele>
        <time>2010-08-04T08:23:29Z</time>
      </trkpt>
      <trkpt lat="45.3475" lon="6.75026">
        <ele>3182.58</ele>
        <time>2010-08-04T08:23:32Z</time>
      </trkpt>
      <trkpt lat="45.3475" lon="6.75025">
        <ele>3187.87</ele>
        <time>2010-08-04T08:23:33Z</time>
      </trkpt>
      <trkpt lat="45.34751" lon="6.75022">
        <ele>3191.71</ele>
        <time>2010-08-04T08:23:36Z</time>
      </trkpt>
      <trkpt lat="45.34751" lon="6.75022">
        <ele>3186.43</ele>
        <time>2010-08-04T08:23:37Z</time>
      </trkpt>
      <trkpt lat="45.34751" lon="6.75021">
        <ele>3190.75</ele>
        <time>2010-08-04T08:23:38Z</time>
      </trkpt>
      <trkpt lat="45.34751" lon="6.7502">
        <ele>3187.39</ele>
        <time>2010-08-04T08:23:39Z</time>
      </trkpt>
      <trkpt lat="45.34753" lon="6.75015">
        <ele>3191.23</ele>
        <time>2010-08-04T08:23:45Z</time>
      </trkpt>
      <trkpt lat="45.34753" lon="6.75015">
        <ele>3189.31</ele>
        <time>2010-08-04T08:23:46Z</time>
      </trkpt>
      <trkpt lat="45.34755" lon="6.75009">
        <ele>3192.2</ele>
        <time>2010-08-04T08:23:55Z</time>
      </trkpt>
      <trkpt lat="45.34755" lon="6.75007">
        <ele>3187.87</ele>
        <time>2010-08-04T08:23:58Z</time>
      </trkpt>
      <trkpt lat="45.34756" lon="6.75006">
        <ele>3191.71</ele>
        <time>2010-08-04T08:23:59Z</time>
      </trkpt>
      <trkpt lat="45.34756" lon="6.75005">
        <ele>3193.16</ele>
        <time>2010-08-04T08:24:01Z</time>
      </trkpt>
      <trkpt lat="45.34757" lon="6.75003">
        <ele>3189.79</ele>
        <time>2010-08-04T08:24:04Z</time>
      </trkpt>
      <trkpt lat="45.34757" lon="6.75002">
        <ele>3194.6</ele>
        <time>2010-08-04T08:24:05Z</time>
      </trkpt>
      <trkpt lat="45.34758" lon="6.75001">
        <ele>3191.23</ele>
        <time>2010-08-04T08:24:07Z</time>
      </trkpt>
      <trkpt lat="45.34758" lon="6.75">
        <ele>3194.6</ele>
        <time>2010-08-04T08:24:08Z</time>
      </trkpt>
      <trkpt lat="45.34758" lon="6.74999">
        <ele>3193.16</ele>
        <time>2010-08-04T08:24:09Z</time>
      </trkpt>
      <trkpt lat="45.3476" lon="6.74997">
        <ele>3193.16</ele>
        <time>2010-08-04T08:24:30Z</time>
      </trkpt>
      <trkpt lat="45.3476" lon="6.74996">
        <ele>3190.27</ele>
        <time>2010-08-04T08:25:24Z</time>
      </trkpt>
      <trkpt lat="45.34761" lon="6.74995">
        <ele>3195.56</ele>
        <time>2010-08-04T08:25:25Z</time>
      </trkpt>
      <trkpt lat="45.34761" lon="6.74994">
        <ele>3192.68</ele>
        <time>2010-08-04T08:25:26Z</time>
      </trkpt>
      <trkpt lat="45.34764" lon="6.74986">
        <ele>3195.56</ele>
        <time>2010-08-04T08:25:34Z</time>
      </trkpt>
      <trkpt lat="45.34764" lon="6.74986">
        <ele>3191.71</ele>
        <time>2010-08-04T08:25:35Z</time>
      </trkpt>
      <trkpt lat="45.34766" lon="6.74982">
        <ele>3196.04</ele>
        <time>2010-08-04T08:25:40Z</time>
      </trkpt>
      <trkpt lat="45.34769" lon="6.74977">
        <ele>3200.85</ele>
        <time>2010-08-04T08:25:48Z</time>
      </trkpt>
      <trkpt lat="45.3477" lon="6.74976">
        <ele>3197.48</ele>
        <time>2010-08-04T08:25:49Z</time>
      </trkpt>
      <trkpt lat="45.34772" lon="6.74972">
        <ele>3196.52</ele>
        <time>2010-08-04T08:25:55Z</time>
      </trkpt>
      <trkpt lat="45.34772" lon="6.74971">
        <ele>3201.81</ele>
        <time>2010-08-04T08:25:56Z</time>
      </trkpt>
      <trkpt lat="45.34773" lon="6.74971">
        <ele>3197.48</ele>
        <time>2010-08-04T08:25:57Z</time>
      </trkpt>
      <trkpt lat="45.34778" lon="6.74962">
        <ele>3201.33</ele>
        <time>2010-08-04T08:26:11Z</time>
      </trkpt>
      <trkpt lat="45.34778" lon="6.74961">
        <ele>3197</ele>
        <time>2010-08-04T08:26:12Z</time>
      </trkpt>
      <trkpt lat="45.34779" lon="6.74961">
        <ele>3200.37</ele>
        <time>2010-08-04T08:26:13Z</time>
      </trkpt>
      <trkpt lat="45.3478" lon="6.74958">
        <ele>3196.52</ele>
        <time>2010-08-04T08:26:17Z</time>
      </trkpt>
      <trkpt lat="45.34781" lon="6.74958">
        <ele>3200.85</ele>
        <time>2010-08-04T08:26:18Z</time>
      </trkpt>
      <trkpt lat="45.34783" lon="6.74952">
        <ele>3204.21</ele>
        <time>2010-08-04T08:26:41Z</time>
      </trkpt>
      <trkpt lat="45.34784" lon="6.74951">
        <ele>3204.21</ele>
        <time>2010-08-04T08:26:42Z</time>
      </trkpt>
      <trkpt lat="45.34784" lon="6.74951">
        <ele>3202.77</ele>
        <time>2010-08-04T08:26:43Z</time>
      </trkpt>
      <trkpt lat="45.34788" lon="6.74947">
        <ele>3204.69</ele>
        <time>2010-08-04T08:26:50Z</time>
      </trkpt>
      <trkpt lat="45.3479" lon="6.74946">
        <ele>3199.4</ele>
        <time>2010-08-04T08:26:53Z</time>
      </trkpt>
      <trkpt lat="45.3479" lon="6.74945">
        <ele>3205.17</ele>
        <time>2010-08-04T08:26:54Z</time>
      </trkpt>
      <trkpt lat="45.34791" lon="6.74945">
        <ele>3201.81</ele>
        <time>2010-08-04T08:26:55Z</time>
      </trkpt>
      <trkpt lat="45.34792" lon="6.74943">
        <ele>3205.17</ele>
        <time>2010-08-04T08:26:58Z</time>
      </trkpt>
      <trkpt lat="45.34793" lon="6.74943">
        <ele>3201.81</ele>
        <time>2010-08-04T08:26:59Z</time>
      </trkpt>
      <trkpt lat="45.34793" lon="6.74942">
        <ele>3205.17</ele>
        <time>2010-08-04T08:27:00Z</time>
      </trkpt>
      <trkpt lat="45.34803" lon="6.74933">
        <ele>3205.17</ele>
        <time>2010-08-04T08:27:16Z</time>
      </trkpt>
      <trkpt lat="45.34804" lon="6.74932">
        <ele>3211.9</ele>
        <time>2010-08-04T08:27:18Z</time>
      </trkpt>
      <trkpt lat="45.34804" lon="6.74932">
        <ele>3206.13</ele>
        <time>2010-08-04T08:27:19Z</time>
      </trkpt>
      <trkpt lat="45.34805" lon="6.74931">
        <ele>3205.17</ele>
        <time>2010-08-04T08:27:21Z</time>
      </trkpt>
      <trkpt lat="45.34807" lon="6.74929">
        <ele>3203.73</ele>
        <time>2010-08-04T08:27:25Z</time>
      </trkpt>
      <trkpt lat="45.34807" lon="6.74928">
        <ele>3209.02</ele>
        <time>2010-08-04T08:27:26Z</time>
      </trkpt>
      <trkpt lat="45.34807" lon="6.74927">
        <ele>3207.1</ele>
        <time>2010-08-04T08:27:27Z</time>
      </trkpt>
      <trkpt lat="45.34808" lon="6.74925">
        <ele>3212.38</ele>
        <time>2010-08-04T08:27:29Z</time>
      </trkpt>
      <trkpt lat="45.34809" lon="6.74925">
        <ele>3209.5</ele>
        <time>2010-08-04T08:27:30Z</time>
      </trkpt>
      <trkpt lat="45.34809" lon="6.74923">
        <ele>3208.06</ele>
        <time>2010-08-04T08:27:32Z</time>
      </trkpt>
      <trkpt lat="45.34812" lon="6.74919">
        <ele>3209.98</ele>
        <time>2010-08-04T08:27:40Z</time>
      </trkpt>
      <trkpt lat="45.34819" lon="6.74913">
        <ele>3209.02</ele>
        <time>2010-08-04T08:27:51Z</time>
      </trkpt>
      <trkpt lat="45.3482" lon="6.74911">
        <ele>3216.71</ele>
        <time>2010-08-04T08:27:54Z</time>
      </trkpt>
      <trkpt lat="45.34821" lon="6.74911">
        <ele>3208.06</ele>
        <time>2010-08-04T08:27:55Z</time>
      </trkpt>
      <trkpt lat="45.34824" lon="6.74907">
        <ele>3212.38</ele>
        <time>2010-08-04T08:28:02Z</time>
      </trkpt>
      <trkpt lat="45.34826" lon="6.74906">
        <ele>3207.1</ele>
        <time>2010-08-04T08:28:04Z</time>
      </trkpt>
      <trkpt lat="45.34826" lon="6.74906">
        <ele>3209.98</ele>
        <time>2010-08-04T08:28:05Z</time>
      </trkpt>
      <trkpt lat="45.3483" lon="6.74902">
        <ele>3213.82</ele>
        <time>2010-08-04T08:28:12Z</time>
      </trkpt>
      <trkpt lat="45.3483" lon="6.74902">
        <ele>3211.9</ele>
        <time>2010-08-04T08:28:13Z</time>
      </trkpt>
      <trkpt lat="45.3483" lon="6.74902">
        <ele>3217.19</ele>
        <time>2010-08-04T08:28:21Z</time>
      </trkpt>
      <trkpt lat="45.3483" lon="6.74902">
        <ele>3212.86</ele>
        <time>2010-08-04T08:28:22Z</time>
      </trkpt>
      <trkpt lat="45.34827" lon="6.74902">
        <ele>3212.38</ele>
        <time>2010-08-04T08:28:47Z</time>
      </trkpt>
      <trkpt lat="45.34824" lon="6.749">
        <ele>3215.75</ele>
        <time>2010-08-04T08:28:54Z</time>
      </trkpt>
      <trkpt lat="45.34817" lon="6.74897">
        <ele>3215.75</ele>
        <time>2010-08-04T08:29:08Z</time>
      </trkpt>
      <trkpt lat="45.34813" lon="6.74895">
        <ele>3219.11</ele>
        <time>2010-08-04T08:29:15Z</time>
      </trkpt>
      <trkpt lat="45.34812" lon="6.74895">
        <ele>3215.27</ele>
        <time>2010-08-04T08:29:17Z</time>
      </trkpt>
      <trkpt lat="45.34812" lon="6.74895">
        <ele>3218.15</ele>
        <time>2010-08-04T08:29:18Z</time>
      </trkpt>
      <trkpt lat="45.34809" lon="6.74895">
        <ele>3221.52</ele>
        <time>2010-08-04T08:29:23Z</time>
      </trkpt>
      <trkpt lat="45.34808" lon="6.74895">
        <ele>3218.15</ele>
        <time>2010-08-04T08:29:24Z</time>
      </trkpt>
      <trkpt lat="45.34807" lon="6.74894">
        <ele>3222</ele>
        <time>2010-08-04T08:29:28Z</time>
      </trkpt>
      <trkpt lat="45.34806" lon="6.74894">
        <ele>3218.63</ele>
        <time>2010-08-04T08:29:33Z</time>
      </trkpt>
      <trkpt lat="45.34804" lon="6.74893">
        <ele>3222</ele>
        <time>2010-08-04T08:29:38Z</time>
      </trkpt>
      <trkpt lat="45.34804" lon="6.74892">
        <ele>3217.67</ele>
        <time>2010-08-04T08:29:39Z</time>
      </trkpt>
      <trkpt lat="45.34803" lon="6.74892">
        <ele>3221.52</ele>
        <time>2010-08-04T08:29:40Z</time>
      </trkpt>
      <trkpt lat="45.34802" lon="6.74891">
        <ele>3223.44</ele>
        <time>2010-08-04T08:29:42Z</time>
      </trkpt>
      <trkpt lat="45.34802" lon="6.74891">
        <ele>3221.52</ele>
        <time>2010-08-04T08:29:45Z</time>
      </trkpt>
      <trkpt lat="45.34801" lon="6.7489">
        <ele>3228.24</ele>
        <time>2010-08-04T08:29:48Z</time>
      </trkpt>
      <trkpt lat="45.348" lon="6.74889">
        <ele>3222</ele>
        <time>2010-08-04T08:29:49Z</time>
      </trkpt>
      <trkpt lat="45.34798" lon="6.74888">
        <ele>3226.8</ele>
        <time>2010-08-04T08:29:54Z</time>
      </trkpt>
      <trkpt lat="45.34797" lon="6.74887">
        <ele>3223.44</ele>
        <time>2010-08-04T08:29:56Z</time>
      </trkpt>
      <trkpt lat="45.34795" lon="6.74884">
        <ele>3227.76</ele>
        <time>2010-08-04T08:30:03Z</time>
      </trkpt>
      <trkpt lat="45.34788" lon="6.74883">
        <ele>3228.73</ele>
        <time>2010-08-04T08:30:17Z</time>
      </trkpt>
      <trkpt lat="45.34788" lon="6.74883">
        <ele>3227.76</ele>
        <time>2010-08-04T08:30:18Z</time>
      </trkpt>
      <trkpt lat="45.34786" lon="6.74881">
        <ele>3229.69</ele>
        <time>2010-08-04T08:30:25Z</time>
      </trkpt>
      <trkpt lat="45.34782" lon="6.74877">
        <ele>3230.17</ele>
        <time>2010-08-04T08:30:35Z</time>
      </trkpt>
      <trkpt lat="45.34781" lon="6.74877">
        <ele>3231.13</ele>
        <time>2010-08-04T08:30:37Z</time>
      </trkpt>
      <trkpt lat="45.34778" lon="6.74872">
        <ele>3234.49</ele>
        <time>2010-08-04T08:30:47Z</time>
      </trkpt>
      <trkpt lat="45.34773" lon="6.74868">
        <ele>3235.45</ele>
        <time>2010-08-04T08:31:01Z</time>
      </trkpt>
      <trkpt lat="45.34773" lon="6.74868">
        <ele>3234.97</ele>
        <time>2010-08-04T08:31:02Z</time>
      </trkpt>
      <trkpt lat="45.34771" lon="6.74863">
        <ele>3237.38</ele>
        <time>2010-08-04T08:31:15Z</time>
      </trkpt>
      <trkpt lat="45.34775" lon="6.74858">
        <ele>3240.26</ele>
        <time>2010-08-04T08:31:24Z</time>
      </trkpt>
      <trkpt lat="45.34775" lon="6.74858">
        <ele>3236.42</ele>
        <time>2010-08-04T08:31:25Z</time>
      </trkpt>
      <trkpt lat="45.34776" lon="6.74856">
        <ele>3239.78</ele>
        <time>2010-08-04T08:31:28Z</time>
      </trkpt>
      <trkpt lat="45.34776" lon="6.74855">
        <ele>3239.3</ele>
        <time>2010-08-04T08:31:29Z</time>
      </trkpt>
      <trkpt lat="45.3478" lon="6.74851">
        <ele>3244.11</ele>
        <time>2010-08-04T08:31:39Z</time>
      </trkpt>
      <trkpt lat="45.3478" lon="6.74851">
        <ele>3235.45</ele>
        <time>2010-08-04T08:31:40Z</time>
      </trkpt>
      <trkpt lat="45.34781" lon="6.7485">
        <ele>3242.18</ele>
        <time>2010-08-04T08:31:41Z</time>
      </trkpt>
      <trkpt lat="45.34782" lon="6.74849">
        <ele>3239.78</ele>
        <time>2010-08-04T08:31:44Z</time>
      </trkpt>
      <trkpt lat="45.34783" lon="6.74848">
        <ele>3241.7</ele>
        <time>2010-08-04T08:31:46Z</time>
      </trkpt>
      <trkpt lat="45.34785" lon="6.74846">
        <ele>3241.7</ele>
        <time>2010-08-04T08:31:51Z</time>
      </trkpt>
      <trkpt lat="45.34787" lon="6.74842">
        <ele>3245.07</ele>
        <time>2010-08-04T08:31:59Z</time>
      </trkpt>
      <trkpt lat="45.34789" lon="6.74839">
        <ele>3246.03</ele>
        <time>2010-08-04T08:32:10Z</time>
      </trkpt>
      <trkpt lat="45.34786" lon="6.74836">
        <ele>3249.39</ele>
        <time>2010-08-04T08:32:20Z</time>
      </trkpt>
      <trkpt lat="45.34785" lon="6.74835">
        <ele>3246.03</ele>
        <time>2010-08-04T08:32:24Z</time>
      </trkpt>
      <trkpt lat="45.34783" lon="6.74833">
        <ele>3249.87</ele>
        <time>2010-08-04T08:32:30Z</time>
      </trkpt>
      <trkpt lat="45.34778" lon="6.74829">
        <ele>3251.32</ele>
        <time>2010-08-04T08:32:45Z</time>
      </trkpt>
      <trkpt lat="45.34774" lon="6.74828">
        <ele>3254.2</ele>
        <time>2010-08-04T08:32:54Z</time>
      </trkpt>
      <trkpt lat="45.34774" lon="6.74828">
        <ele>3249.87</ele>
        <time>2010-08-04T08:32:55Z</time>
      </trkpt>
      <trkpt lat="45.34773" lon="6.74825">
        <ele>3253.24</ele>
        <time>2010-08-04T08:32:59Z</time>
      </trkpt>
      <trkpt lat="45.3477" lon="6.74825">
        <ele>3254.68</ele>
        <time>2010-08-04T08:33:04Z</time>
      </trkpt>
      <trkpt lat="45.34764" lon="6.74821">
        <ele>3256.12</ele>
        <time>2010-08-04T08:33:19Z</time>
      </trkpt>
      <trkpt lat="45.34757" lon="6.74819">
        <ele>3257.56</ele>
        <time>2010-08-04T08:33:33Z</time>
      </trkpt>
      <trkpt lat="45.34753" lon="6.74819">
        <ele>3261.41</ele>
        <time>2010-08-04T08:33:42Z</time>
      </trkpt>
      <trkpt lat="45.34745" lon="6.74817">
        <ele>3262.37</ele>
        <time>2010-08-04T08:33:58Z</time>
      </trkpt>
      <trkpt lat="45.34742" lon="6.74816">
        <ele>3263.33</ele>
        <time>2010-08-04T08:34:04Z</time>
      </trkpt>
      <trkpt lat="45.34739" lon="6.74815">
        <ele>3266.7</ele>
        <time>2010-08-04T08:34:11Z</time>
      </trkpt>
      <trkpt lat="45.34735" lon="6.74812">
        <ele>3267.18</ele>
        <time>2010-08-04T08:34:26Z</time>
      </trkpt>
      <trkpt lat="45.34734" lon="6.74812">
        <ele>3267.66</ele>
        <time>2010-08-04T08:34:27Z</time>
      </trkpt>
      <trkpt lat="45.34733" lon="6.74811">
        <ele>3263.81</ele>
        <time>2010-08-04T08:34:30Z</time>
      </trkpt>
      <trkpt lat="45.34733" lon="6.74809">
        <ele>3267.18</ele>
        <time>2010-08-04T08:34:32Z</time>
      </trkpt>
      <trkpt lat="45.34735" lon="6.74804">
        <ele>3269.1</ele>
        <time>2010-08-04T08:34:39Z</time>
      </trkpt>
      <trkpt lat="45.34736" lon="6.74802">
        <ele>3272.95</ele>
        <time>2010-08-04T08:34:42Z</time>
      </trkpt>
      <trkpt lat="45.34736" lon="6.74801">
        <ele>3271.02</ele>
        <time>2010-08-04T08:34:43Z</time>
      </trkpt>
      <trkpt lat="45.34738" lon="6.748">
        <ele>3270.06</ele>
        <time>2010-08-04T08:34:46Z</time>
      </trkpt>
      <trkpt lat="45.34742" lon="6.74794">
        <ele>3271.98</ele>
        <time>2010-08-04T08:34:56Z</time>
      </trkpt>
      <trkpt lat="45.34743" lon="6.74792">
        <ele>3277.27</ele>
        <time>2010-08-04T08:35:00Z</time>
      </trkpt>
      <trkpt lat="45.34743" lon="6.74792">
        <ele>3271.5</ele>
        <time>2010-08-04T08:35:01Z</time>
      </trkpt>
      <trkpt lat="45.34744" lon="6.7479">
        <ele>3275.83</ele>
        <time>2010-08-04T08:35:03Z</time>
      </trkpt>
      <trkpt lat="45.34745" lon="6.74789">
        <ele>3271.98</ele>
        <time>2010-08-04T08:35:05Z</time>
      </trkpt>
      <trkpt lat="45.34746" lon="6.74789">
        <ele>3272.46</ele>
        <time>2010-08-04T08:35:06Z</time>
      </trkpt>
      <trkpt lat="45.3475" lon="6.74784">
        <ele>3274.87</ele>
        <time>2010-08-04T08:35:16Z</time>
      </trkpt>
      <trkpt lat="45.34752" lon="6.74782">
        <ele>3279.67</ele>
        <time>2010-08-04T08:35:20Z</time>
      </trkpt>
      <trkpt lat="45.34752" lon="6.74782">
        <ele>3275.35</ele>
        <time>2010-08-04T08:35:21Z</time>
      </trkpt>
      <trkpt lat="45.34755" lon="6.74778">
        <ele>3276.31</ele>
        <time>2010-08-04T08:35:27Z</time>
      </trkpt>
      <trkpt lat="45.34757" lon="6.74774">
        <ele>3276.31</ele>
        <time>2010-08-04T08:35:33Z</time>
      </trkpt>
      <trkpt lat="45.34762" lon="6.74766">
        <ele>3276.79</ele>
        <time>2010-08-04T08:35:45Z</time>
      </trkpt>
      <trkpt lat="45.34763" lon="6.74763">
        <ele>3280.16</ele>
        <time>2010-08-04T08:35:49Z</time>
      </trkpt>
      <trkpt lat="45.34764" lon="6.74761">
        <ele>3278.23</ele>
        <time>2010-08-04T08:35:52Z</time>
      </trkpt>
      <trkpt lat="45.34765" lon="6.74758">
        <ele>3282.08</ele>
        <time>2010-08-04T08:35:56Z</time>
      </trkpt>
      <trkpt lat="45.34765" lon="6.74758">
        <ele>3277.75</ele>
        <time>2010-08-04T08:35:57Z</time>
      </trkpt>
      <trkpt lat="45.34766" lon="6.74756">
        <ele>3282.08</ele>
        <time>2010-08-04T08:35:59Z</time>
      </trkpt>
      <trkpt lat="45.34766" lon="6.74756">
        <ele>3280.16</ele>
        <time>2010-08-04T08:36:00Z</time>
      </trkpt>
      <trkpt lat="45.34768" lon="6.74752">
        <ele>3286.4</ele>
        <time>2010-08-04T08:36:07Z</time>
      </trkpt>
      <trkpt lat="45.34768" lon="6.74751">
        <ele>3281.6</ele>
        <time>2010-08-04T08:36:08Z</time>
      </trkpt>
      <trkpt lat="45.34773" lon="6.74741">
        <ele>3283.04</ele>
        <time>2010-08-04T08:36:24Z</time>
      </trkpt>
      <trkpt lat="45.34774" lon="6.74738">
        <ele>3286.4</ele>
        <time>2010-08-04T08:36:29Z</time>
      </trkpt>
      <trkpt lat="45.34774" lon="6.74736">
        <ele>3286.89</ele>
        <time>2010-08-04T08:36:31Z</time>
      </trkpt>
      <trkpt lat="45.34774" lon="6.74735">
        <ele>3284</ele>
        <time>2010-08-04T08:36:33Z</time>
      </trkpt>
      <trkpt lat="45.34774" lon="6.74734">
        <ele>3284.48</ele>
        <time>2010-08-04T08:36:34Z</time>
      </trkpt>
      <trkpt lat="45.34775" lon="6.7473">
        <ele>3283.52</ele>
        <time>2010-08-04T08:36:40Z</time>
      </trkpt>
      <trkpt lat="45.34776" lon="6.74729">
        <ele>3284.96</ele>
        <time>2010-08-04T08:36:42Z</time>
      </trkpt>
      <trkpt lat="45.34776" lon="6.74727">
        <ele>3287.85</ele>
        <time>2010-08-04T08:36:44Z</time>
      </trkpt>
      <trkpt lat="45.34776" lon="6.74721">
        <ele>3287.37</ele>
        <time>2010-08-04T08:36:52Z</time>
      </trkpt>
      <trkpt lat="45.34777" lon="6.74715">
        <ele>3292.17</ele>
        <time>2010-08-04T08:37:01Z</time>
      </trkpt>
      <trkpt lat="45.34777" lon="6.74714">
        <ele>3288.81</ele>
        <time>2010-08-04T08:37:02Z</time>
      </trkpt>
      <trkpt lat="45.34776" lon="6.74709">
        <ele>3292.17</ele>
        <time>2010-08-04T08:37:13Z</time>
      </trkpt>
      <trkpt lat="45.34775" lon="6.74707">
        <ele>3287.85</ele>
        <time>2010-08-04T08:37:16Z</time>
      </trkpt>
      <trkpt lat="45.34775" lon="6.74707">
        <ele>3293.13</ele>
        <time>2010-08-04T08:37:17Z</time>
      </trkpt>
      <trkpt lat="45.3477" lon="6.74702">
        <ele>3293.61</ele>
        <time>2010-08-04T08:37:31Z</time>
      </trkpt>
      <trkpt lat="45.34766" lon="6.74697">
        <ele>3297.94</ele>
        <time>2010-08-04T08:37:43Z</time>
      </trkpt>
      <trkpt lat="45.34757" lon="6.74694">
        <ele>3297.46</ele>
        <time>2010-08-04T08:37:58Z</time>
      </trkpt>
      <trkpt lat="45.3475" lon="6.74691">
        <ele>3302.27</ele>
        <time>2010-08-04T08:38:13Z</time>
      </trkpt>
      <trkpt lat="45.3475" lon="6.7469">
        <ele>3298.42</ele>
        <time>2010-08-04T08:38:15Z</time>
      </trkpt>
      <trkpt lat="45.34747" lon="6.74688">
        <ele>3301.79</ele>
        <time>2010-08-04T08:38:21Z</time>
      </trkpt>
      <trkpt lat="45.34745" lon="6.74687">
        <ele>3301.3</ele>
        <time>2010-08-04T08:38:25Z</time>
      </trkpt>
      <trkpt lat="45.3474" lon="6.74679">
        <ele>3304.67</ele>
        <time>2010-08-04T08:38:39Z</time>
      </trkpt>
      <trkpt lat="45.34738" lon="6.74674">
        <ele>3304.67</ele>
        <time>2010-08-04T08:38:46Z</time>
      </trkpt>
      <trkpt lat="45.34734" lon="6.74665">
        <ele>3305.63</ele>
        <time>2010-08-04T08:39:00Z</time>
      </trkpt>
      <trkpt lat="45.34729" lon="6.74665">
        <ele>3303.71</ele>
        <time>2010-08-04T08:39:07Z</time>
      </trkpt>
      <trkpt lat="45.34728" lon="6.74664">
        <ele>3307.55</ele>
        <time>2010-08-04T08:39:09Z</time>
      </trkpt>
      <trkpt lat="45.34728" lon="6.74663">
        <ele>3307.55</ele>
        <time>2010-08-04T08:39:10Z</time>
      </trkpt>
      <trkpt lat="45.34726" lon="6.74661">
        <ele>3310.44</ele>
        <time>2010-08-04T08:39:14Z</time>
      </trkpt>
      <trkpt lat="45.34725" lon="6.74661">
        <ele>3306.59</ele>
        <time>2010-08-04T08:39:15Z</time>
      </trkpt>
      <trkpt lat="45.34723" lon="6.7466">
        <ele>3309.96</ele>
        <time>2010-08-04T08:39:20Z</time>
      </trkpt>
      <trkpt lat="45.34721" lon="6.74659">
        <ele>3306.59</ele>
        <time>2010-08-04T08:39:23Z</time>
      </trkpt>
      <trkpt lat="45.34721" lon="6.74659">
        <ele>3310.92</ele>
        <time>2010-08-04T08:39:24Z</time>
      </trkpt>
      <trkpt lat="45.34719" lon="6.74659">
        <ele>3308.03</ele>
        <time>2010-08-04T08:39:27Z</time>
      </trkpt>
      <trkpt lat="45.34718" lon="6.7466">
        <ele>3310.44</ele>
        <time>2010-08-04T08:39:29Z</time>
      </trkpt>
      <trkpt lat="45.34715" lon="6.74659">
        <ele>3309.48</ele>
        <time>2010-08-04T08:39:33Z</time>
      </trkpt>
      <trkpt lat="45.34712" lon="6.74658">
        <ele>3312.84</ele>
        <time>2010-08-04T08:39:38Z</time>
      </trkpt>
      <trkpt lat="45.34712" lon="6.74658">
        <ele>3308.51</ele>
        <time>2010-08-04T08:39:39Z</time>
      </trkpt>
      <trkpt lat="45.3471" lon="6.74655">
        <ele>3311.88</ele>
        <time>2010-08-04T08:39:44Z</time>
      </trkpt>
      <trkpt lat="45.3471" lon="6.74649">
        <ele>3314.76</ele>
        <time>2010-08-04T08:39:55Z</time>
      </trkpt>
      <trkpt lat="45.3471" lon="6.74648">
        <ele>3310.92</ele>
        <time>2010-08-04T08:39:56Z</time>
      </trkpt>
      <trkpt lat="45.34713" lon="6.74642">
        <ele>3313.32</ele>
        <time>2010-08-04T08:40:06Z</time>
      </trkpt>
      <trkpt lat="45.34714" lon="6.74637">
        <ele>3317.65</ele>
        <time>2010-08-04T08:40:11Z</time>
      </trkpt>
      <trkpt lat="45.34714" lon="6.74636">
        <ele>3312.84</ele>
        <time>2010-08-04T08:40:12Z</time>
      </trkpt>
      <trkpt lat="45.34714" lon="6.74635">
        <ele>3315.72</ele>
        <time>2010-08-04T08:40:13Z</time>
      </trkpt>
      <trkpt lat="45.34715" lon="6.74634">
        <ele>3309.96</ele>
        <time>2010-08-04T08:40:14Z</time>
      </trkpt>
      <trkpt lat="45.34715" lon="6.74631">
        <ele>3315.24</ele>
        <time>2010-08-04T08:40:17Z</time>
      </trkpt>
      <trkpt lat="45.34715" lon="6.74629">
        <ele>3310.44</ele>
        <time>2010-08-04T08:40:19Z</time>
      </trkpt>
      <trkpt lat="45.34716" lon="6.74624">
        <ele>3315.72</ele>
        <time>2010-08-04T08:40:23Z</time>
      </trkpt>
      <trkpt lat="45.34716" lon="6.74624">
        <ele>3315.24</ele>
        <time>2010-08-04T08:40:24Z</time>
      </trkpt>
      <trkpt lat="45.34715" lon="6.74621">
        <ele>3313.8</ele>
        <time>2010-08-04T08:40:27Z</time>
      </trkpt>
      <trkpt lat="45.34713" lon="6.74619">
        <ele>3318.13</ele>
        <time>2010-08-04T08:40:29Z</time>
      </trkpt>
      <trkpt lat="45.34713" lon="6.74618">
        <ele>3311.4</ele>
        <time>2010-08-04T08:40:30Z</time>
      </trkpt>
      <trkpt lat="45.34713" lon="6.74617">
        <ele>3313.32</ele>
        <time>2010-08-04T08:40:31Z</time>
      </trkpt>
      <trkpt lat="45.34713" lon="6.74614">
        <ele>3315.24</ele>
        <time>2010-08-04T08:40:42Z</time>
      </trkpt>
      <trkpt lat="45.3471" lon="6.7461">
        <ele>3312.36</ele>
        <time>2010-08-04T08:40:49Z</time>
      </trkpt>
      <trkpt lat="45.34709" lon="6.7461">
        <ele>3316.21</ele>
        <time>2010-08-04T08:40:51Z</time>
      </trkpt>
      <trkpt lat="45.34708" lon="6.74609">
        <ele>3311.4</ele>
        <time>2010-08-04T08:40:54Z</time>
      </trkpt>
      <trkpt lat="45.34707" lon="6.74609">
        <ele>3316.21</ele>
        <time>2010-08-04T08:40:55Z</time>
      </trkpt>
      <trkpt lat="45.34707" lon="6.74609">
        <ele>3319.57</ele>
        <time>2010-08-04T08:40:56Z</time>
      </trkpt>
      <trkpt lat="45.34704" lon="6.74611">
        <ele>3318.13</ele>
        <time>2010-08-04T08:41:01Z</time>
      </trkpt>
      <trkpt lat="45.347" lon="6.74617">
        <ele>3319.09</ele>
        <time>2010-08-04T08:41:10Z</time>
      </trkpt>
      <trkpt lat="45.34698" lon="6.74619">
        <ele>3321.01</ele>
        <time>2010-08-04T08:41:13Z</time>
      </trkpt>
      <trkpt lat="45.34695" lon="6.74622">
        <ele>3319.09</ele>
        <time>2010-08-04T08:41:19Z</time>
      </trkpt>
      <trkpt lat="45.34694" lon="6.74624">
        <ele>3322.45</ele>
        <time>2010-08-04T08:41:22Z</time>
      </trkpt>
      <trkpt lat="45.34693" lon="6.74625">
        <ele>3321.49</ele>
        <time>2010-08-04T08:41:23Z</time>
      </trkpt>
      <trkpt lat="45.34692" lon="6.74626">
        <ele>3317.65</ele>
        <time>2010-08-04T08:41:25Z</time>
      </trkpt>
      <trkpt lat="45.34692" lon="6.74627">
        <ele>3321.97</ele>
        <time>2010-08-04T08:41:26Z</time>
      </trkpt>
      <trkpt lat="45.34687" lon="6.74631">
        <ele>3321.01</ele>
        <time>2010-08-04T08:41:41Z</time>
      </trkpt>
      <trkpt lat="45.34688" lon="6.74633">
        <ele>3315.24</ele>
        <time>2010-08-04T08:42:07Z</time>
      </trkpt>
      <trkpt lat="45.34688" lon="6.74633">
        <ele>3321.01</ele>
        <time>2010-08-04T08:42:08Z</time>
      </trkpt>
      <trkpt lat="45.34682" lon="6.74638">
        <ele>3324.86</ele>
        <time>2010-08-04T08:42:31Z</time>
      </trkpt>
      <trkpt lat="45.34676" lon="6.74642">
        <ele>3324.86</ele>
        <time>2010-08-04T08:42:43Z</time>
      </trkpt>
      <trkpt lat="45.34672" lon="6.74641">
        <ele>3328.22</ele>
        <time>2010-08-04T08:42:56Z</time>
      </trkpt>
      <trkpt lat="45.34672" lon="6.7464">
        <ele>3327.74</ele>
        <time>2010-08-04T08:42:57Z</time>
      </trkpt>
      <trkpt lat="45.34671" lon="6.74638">
        <ele>3329.18</ele>
        <time>2010-08-04T08:43:00Z</time>
      </trkpt>
      <trkpt lat="45.34671" lon="6.74636">
        <ele>3333.03</ele>
        <time>2010-08-04T08:43:03Z</time>
      </trkpt>
      <trkpt lat="45.3467" lon="6.74635">
        <ele>3325.82</ele>
        <time>2010-08-04T08:43:05Z</time>
      </trkpt>
      <trkpt lat="45.3467" lon="6.74634">
        <ele>3332.07</ele>
        <time>2010-08-04T08:43:06Z</time>
      </trkpt>
      <trkpt lat="45.34669" lon="6.74633">
        <ele>3324.86</ele>
        <time>2010-08-04T08:43:08Z</time>
      </trkpt>
      <trkpt lat="45.34669" lon="6.74632">
        <ele>3329.66</ele>
        <time>2010-08-04T08:43:09Z</time>
      </trkpt>
      <trkpt lat="45.34669" lon="6.74629">
        <ele>3332.07</ele>
        <time>2010-08-04T08:43:13Z</time>
      </trkpt>
      <trkpt lat="45.34668" lon="6.74627">
        <ele>3329.18</ele>
        <time>2010-08-04T08:43:15Z</time>
      </trkpt>
      <trkpt lat="45.34668" lon="6.74626">
        <ele>3332.07</ele>
        <time>2010-08-04T08:43:17Z</time>
      </trkpt>
      <trkpt lat="45.34668" lon="6.74625">
        <ele>3328.22</ele>
        <time>2010-08-04T08:43:25Z</time>
      </trkpt>
      <trkpt lat="45.34667" lon="6.74625">
        <ele>3333.03</ele>
        <time>2010-08-04T08:43:26Z</time>
      </trkpt>
      <trkpt lat="45.34662" lon="6.74624">
        <ele>3334.95</ele>
        <time>2010-08-04T08:43:34Z</time>
      </trkpt>
      <trkpt lat="45.34661" lon="6.74623">
        <ele>3332.07</ele>
        <time>2010-08-04T08:43:39Z</time>
      </trkpt>
      <trkpt lat="45.3466" lon="6.74621">
        <ele>3339.28</ele>
        <time>2010-08-04T08:43:41Z</time>
      </trkpt>
      <trkpt lat="45.3466" lon="6.7462">
        <ele>3335.91</ele>
        <time>2010-08-04T08:43:42Z</time>
      </trkpt>
      <trkpt lat="45.3466" lon="6.74617">
        <ele>3334.47</ele>
        <time>2010-08-04T08:43:47Z</time>
      </trkpt>
      <trkpt lat="45.3466" lon="6.74616">
        <ele>3340.24</ele>
        <time>2010-08-04T08:43:48Z</time>
      </trkpt>
      <trkpt lat="45.34661" lon="6.74615">
        <ele>3335.43</ele>
        <time>2010-08-04T08:43:49Z</time>
      </trkpt>
      <trkpt lat="45.34657" lon="6.74611">
        <ele>3338.8</ele>
        <time>2010-08-04T08:43:58Z</time>
      </trkpt>
      <trkpt lat="45.34654" lon="6.74611">
        <ele>3339.76</ele>
        <time>2010-08-04T08:44:04Z</time>
      </trkpt>
      <trkpt lat="45.34651" lon="6.74608">
        <ele>3343.12</ele>
        <time>2010-08-04T08:44:14Z</time>
      </trkpt>
      <trkpt lat="45.3465" lon="6.74608">
        <ele>3338.32</ele>
        <time>2010-08-04T08:44:15Z</time>
      </trkpt>
      <trkpt lat="45.3465" lon="6.74608">
        <ele>3344.08</ele>
        <time>2010-08-04T08:44:17Z</time>
      </trkpt>
      <trkpt lat="45.34649" lon="6.74608">
        <ele>3340.24</ele>
        <time>2010-08-04T08:44:18Z</time>
      </trkpt>
      <trkpt lat="45.34649" lon="6.74608">
        <ele>3342.64</ele>
        <time>2010-08-04T08:44:21Z</time>
      </trkpt>
      <trkpt lat="45.34645" lon="6.74607">
        <ele>3346.49</ele>
        <time>2010-08-04T08:44:30Z</time>
      </trkpt>
      <trkpt lat="45.34644" lon="6.74607">
        <ele>3341.68</ele>
        <time>2010-08-04T08:44:31Z</time>
      </trkpt>
      <trkpt lat="45.34644" lon="6.74606">
        <ele>3345.04</ele>
        <time>2010-08-04T08:44:32Z</time>
      </trkpt>
      <trkpt lat="45.34643" lon="6.74602">
        <ele>3348.41</ele>
        <time>2010-08-04T08:44:38Z</time>
      </trkpt>
      <trkpt lat="45.34643" lon="6.74598">
        <ele>3343.6</ele>
        <time>2010-08-04T08:44:41Z</time>
      </trkpt>
      <trkpt lat="45.34643" lon="6.74597">
        <ele>3346.97</ele>
        <time>2010-08-04T08:44:42Z</time>
      </trkpt>
      <trkpt lat="45.34646" lon="6.74586">
        <ele>3352.74</ele>
        <time>2010-08-04T08:44:56Z</time>
      </trkpt>
      <trkpt lat="45.34646" lon="6.74585">
        <ele>3350.81</ele>
        <time>2010-08-04T08:44:57Z</time>
      </trkpt>
      <trkpt lat="45.34645" lon="6.74583">
        <ele>3346.49</ele>
        <time>2010-08-04T08:45:00Z</time>
      </trkpt>
      <trkpt lat="45.34645" lon="6.74582">
        <ele>3348.89</ele>
        <time>2010-08-04T08:45:01Z</time>
      </trkpt>
      <trkpt lat="45.34645" lon="6.74582">
        <ele>3344.08</ele>
        <time>2010-08-04T08:45:02Z</time>
      </trkpt>
      <trkpt lat="45.34644" lon="6.7458">
        <ele>3348.89</ele>
        <time>2010-08-04T08:45:04Z</time>
      </trkpt>
      <trkpt lat="45.34643" lon="6.74579">
        <ele>3350.33</ele>
        <time>2010-08-04T08:45:06Z</time>
      </trkpt>
      <trkpt lat="45.34642" lon="6.74577">
        <ele>3348.41</ele>
        <time>2010-08-04T08:45:09Z</time>
      </trkpt>
      <trkpt lat="45.34638" lon="6.74569">
        <ele>3356.58</ele>
        <time>2010-08-04T08:45:21Z</time>
      </trkpt>
      <trkpt lat="45.34638" lon="6.74569">
        <ele>3352.25</ele>
        <time>2010-08-04T08:45:22Z</time>
      </trkpt>
      <trkpt lat="45.34633" lon="6.74557">
        <ele>3353.22</ele>
        <time>2010-08-04T08:45:36Z</time>
      </trkpt>
      <trkpt lat="45.34632" lon="6.74557">
        <ele>3353.7</ele>
        <time>2010-08-04T08:45:37Z</time>
      </trkpt>
      <trkpt lat="45.34629" lon="6.74553">
        <ele>3354.18</ele>
        <time>2010-08-04T08:45:43Z</time>
      </trkpt>
      <trkpt lat="45.34627" lon="6.74548">
        <ele>3356.58</ele>
        <time>2010-08-04T08:45:49Z</time>
      </trkpt>
      <trkpt lat="45.34623" lon="6.7454">
        <ele>3358.02</ele>
        <time>2010-08-04T08:45:57Z</time>
      </trkpt>
      <trkpt lat="45.34621" lon="6.74538">
        <ele>3356.1</ele>
        <time>2010-08-04T08:46:00Z</time>
      </trkpt>
      <trkpt lat="45.34621" lon="6.74537">
        <ele>3361.39</ele>
        <time>2010-08-04T08:46:01Z</time>
      </trkpt>
      <trkpt lat="45.3462" lon="6.74537">
        <ele>3359.46</ele>
        <time>2010-08-04T08:46:02Z</time>
      </trkpt>
      <trkpt lat="45.34619" lon="6.74536">
        <ele>3357.54</ele>
        <time>2010-08-04T08:46:04Z</time>
      </trkpt>
      <trkpt lat="45.34617" lon="6.74533">
        <ele>3356.58</ele>
        <time>2010-08-04T08:46:09Z</time>
      </trkpt>
      <trkpt lat="45.34616" lon="6.74531">
        <ele>3357.54</ele>
        <time>2010-08-04T08:46:11Z</time>
      </trkpt>
      <trkpt lat="45.34613" lon="6.74528">
        <ele>3357.06</ele>
        <time>2010-08-04T08:46:24Z</time>
      </trkpt>
      <trkpt lat="45.34609" lon="6.74531">
        <ele>3357.54</ele>
        <time>2010-08-04T08:46:38Z</time>
      </trkpt>
      <trkpt lat="45.34604" lon="6.74536">
        <ele>3360.43</ele>
        <time>2010-08-04T08:46:44Z</time>
      </trkpt>
      <trkpt lat="45.34602" lon="6.74536">
        <ele>3358.98</ele>
        <time>2010-08-04T08:46:47Z</time>
      </trkpt>
      <trkpt lat="45.34601" lon="6.74537">
        <ele>3359.46</ele>
        <time>2010-08-04T08:46:49Z</time>
      </trkpt>
      <trkpt lat="45.34599" lon="6.74539">
        <ele>3367.64</ele>
        <time>2010-08-04T08:46:54Z</time>
      </trkpt>
      <trkpt lat="45.34598" lon="6.7454">
        <ele>3360.91</ele>
        <time>2010-08-04T08:46:55Z</time>
      </trkpt>
      <trkpt lat="45.34597" lon="6.74543">
        <ele>3357.06</ele>
        <time>2010-08-04T08:47:02Z</time>
      </trkpt>
      <trkpt lat="45.34597" lon="6.74543">
        <ele>3360.91</ele>
        <time>2010-08-04T08:47:03Z</time>
      </trkpt>
      <trkpt lat="45.34595" lon="6.74547">
        <ele>3358.02</ele>
        <time>2010-08-04T08:47:11Z</time>
      </trkpt>
      <trkpt lat="45.34595" lon="6.74549">
        <ele>3361.87</ele>
        <time>2010-08-04T08:47:13Z</time>
      </trkpt>
      <trkpt lat="45.34595" lon="6.7455">
        <ele>3357.54</ele>
        <time>2010-08-04T08:47:14Z</time>
      </trkpt>
      <trkpt lat="45.34596" lon="6.7455">
        <ele>3360.91</ele>
        <time>2010-08-04T08:47:15Z</time>
      </trkpt>
      <trkpt lat="45.34597" lon="6.74552">
        <ele>3359.95</ele>
        <time>2010-08-04T08:47:32Z</time>
      </trkpt>
      <trkpt lat="45.34597" lon="6.74552">
        <ele>3355.14</ele>
        <time>2010-08-04T08:47:52Z</time>
      </trkpt>
      <trkpt lat="45.34597" lon="6.74552">
        <ele>3361.39</ele>
        <time>2010-08-04T08:47:53Z</time>
      </trkpt>
      <trkpt lat="45.34598" lon="6.74553">
        <ele>3364.27</ele>
        <time>2010-08-04T08:47:59Z</time>
      </trkpt>
      <trkpt lat="45.34598" lon="6.74553">
        <ele>3356.58</ele>
        <time>2010-08-04T08:48:00Z</time>
      </trkpt>
      <trkpt lat="45.34598" lon="6.74553">
        <ele>3359.46</ele>
        <time>2010-08-04T08:48:01Z</time>
      </trkpt>
      <trkpt lat="45.34598" lon="6.74553">
        <ele>3360.43</ele>
        <time>2010-08-04T08:48:03Z</time>
      </trkpt>
      <trkpt lat="45.34598" lon="6.74553">
        <ele>3365.71</ele>
        <time>2010-08-04T08:48:09Z</time>
      </trkpt>
      <trkpt lat="45.34598" lon="6.74554">
        <ele>3361.39</ele>
        <time>2010-08-04T08:48:10Z</time>
      </trkpt>
      <trkpt lat="45.34598" lon="6.74554">
        <ele>3360.43</ele>
        <time>2010-08-04T08:48:12Z</time>
      </trkpt>
      <trkpt lat="45.34598" lon="6.74553">
        <ele>3357.06</ele>
        <time>2010-08-04T08:48:14Z</time>
      </trkpt>
      <trkpt lat="45.34598" lon="6.74553">
        <ele>3362.35</ele>
        <time>2010-08-04T08:48:15Z</time>
      </trkpt>
      <trkpt lat="45.34598" lon="6.74553">
        <ele>3358.98</ele>
        <time>2010-08-04T08:48:16Z</time>
      </trkpt>
      <trkpt lat="45.34598" lon="6.74553">
        <ele>3362.35</ele>
        <time>2010-08-04T08:48:17Z</time>
      </trkpt>
      <trkpt lat="45.34598" lon="6.74553">
        <ele>3355.62</ele>
        <time>2010-08-04T08:48:19Z</time>
      </trkpt>
      <trkpt lat="45.34598" lon="6.74553">
        <ele>3359.95</ele>
        <time>2010-08-04T08:48:20Z</time>
      </trkpt>
      <trkpt lat="45.34598" lon="6.74553">
        <ele>3363.79</ele>
        <time>2010-08-04T08:48:26Z</time>
      </trkpt>
      <trkpt lat="45.34598" lon="6.74553">
        <ele>3360.43</ele>
        <time>2010-08-04T08:48:38Z</time>
      </trkpt>
      <trkpt lat="45.34598" lon="6.74553">
        <ele>3360.91</ele>
        <time>2010-08-04T08:48:49Z</time>
      </trkpt>
      <trkpt lat="45.34598" lon="6.74554">
        <ele>3361.87</ele>
        <time>2010-08-04T08:49:04Z</time>
      </trkpt>
      <trkpt lat="45.34598" lon="6.74554">
        <ele>3350.81</ele>
        <time>2010-08-04T08:49:31Z</time>
      </trkpt>
      <trkpt lat="45.34598" lon="6.74554">
        <ele>3362.83</ele>
        <time>2010-08-04T08:49:32Z</time>
      </trkpt>
      <trkpt lat="45.34598" lon="6.74554">
        <ele>3356.1</ele>
        <time>2010-08-04T08:49:40Z</time>
      </trkpt>
      <trkpt lat="45.34598" lon="6.74554">
        <ele>3359.95</ele>
        <time>2010-08-04T08:49:41Z</time>
      </trkpt>
      <trkpt lat="45.34598" lon="6.74554">
        <ele>3367.15</ele>
        <time>2010-08-04T08:49:42Z</time>
      </trkpt>
      <trkpt lat="45.34598" lon="6.74554">
        <ele>3360.91</ele>
        <time>2010-08-04T08:49:43Z</time>
      </trkpt>
      <trkpt lat="45.34598" lon="6.74554">
        <ele>3356.58</ele>
        <time>2010-08-04T08:49:54Z</time>
      </trkpt>
      <trkpt lat="45.34598" lon="6.74554">
        <ele>3360.91</ele>
        <time>2010-08-04T08:49:55Z</time>
      </trkpt>
      <trkpt lat="45.34598" lon="6.74554">
        <ele>3361.39</ele>
        <time>2010-08-04T08:50:02Z</time>
      </trkpt>
      <trkpt lat="45.34598" lon="6.74554">
        <ele>3383.98</ele>
        <time>2010-08-04T09:38:13Z</time>
      </trkpt>
      <trkpt lat="45.34598" lon="6.74554">
        <ele>3366.19</ele>
        <time>2010-08-04T09:38:15Z</time>
      </trkpt>
      <trkpt lat="45.34598" lon="6.74554">
        <ele>3363.79</ele>
        <time>2010-08-04T09:38:17Z</time>
      </trkpt>
      <trkpt lat="45.34603" lon="6.74563">
        <ele>3364.75</ele>
        <time>2010-08-04T09:38:19Z</time>
      </trkpt>
      <trkpt lat="45.346" lon="6.74565">
        <ele>3368.12</ele>
        <time>2010-08-04T09:38:37Z</time>
      </trkpt>
      <trkpt lat="45.346" lon="6.74564">
        <ele>3366.67</ele>
        <time>2010-08-04T09:38:40Z</time>
      </trkpt>
      <trkpt lat="45.34601" lon="6.74561">
        <ele>3365.71</ele>
        <time>2010-08-04T09:38:56Z</time>
      </trkpt>
      <trkpt lat="45.346" lon="6.74563">
        <ele>3365.71</ele>
        <time>2010-08-04T09:39:20Z</time>
      </trkpt>
      <trkpt lat="45.34598" lon="6.74564">
        <ele>3366.67</ele>
        <time>2010-08-04T09:39:23Z</time>
      </trkpt>
      <trkpt lat="45.34592" lon="6.74565">
        <ele>3365.23</ele>
        <time>2010-08-04T09:39:35Z</time>
      </trkpt>
      <trkpt lat="45.34589" lon="6.74565">
        <ele>3365.23</ele>
        <time>2010-08-04T09:39:48Z</time>
      </trkpt>
      <trkpt lat="45.34587" lon="6.74566">
        <ele>3366.19</ele>
        <time>2010-08-04T09:39:53Z</time>
      </trkpt>
      <trkpt lat="45.34583" lon="6.74567">
        <ele>3364.75</ele>
        <time>2010-08-04T09:39:59Z</time>
      </trkpt>
      <trkpt lat="45.34575" lon="6.7457">
        <ele>3365.23</ele>
        <time>2010-08-04T09:40:10Z</time>
      </trkpt>
      <trkpt lat="45.34571" lon="6.74576">
        <ele>3363.79</ele>
        <time>2010-08-04T09:40:20Z</time>
      </trkpt>
      <trkpt lat="45.34569" lon="6.7458">
        <ele>3363.79</ele>
        <time>2010-08-04T09:40:25Z</time>
      </trkpt>
      <trkpt lat="45.34569" lon="6.74584">
        <ele>3363.31</ele>
        <time>2010-08-04T09:40:29Z</time>
      </trkpt>
      <trkpt lat="45.3457" lon="6.74593">
        <ele>3361.87</ele>
        <time>2010-08-04T09:40:39Z</time>
      </trkpt>
      <trkpt lat="45.34559" lon="6.74599">
        <ele>3358.5</ele>
        <time>2010-08-04T09:40:50Z</time>
      </trkpt>
      <trkpt lat="45.3455" lon="6.74605">
        <ele>3358.98</ele>
        <time>2010-08-04T09:40:59Z</time>
      </trkpt>
      <trkpt lat="45.34549" lon="6.74606">
        <ele>3359.46</ele>
        <time>2010-08-04T09:41:00Z</time>
      </trkpt>
      <trkpt lat="45.34545" lon="6.74608">
        <ele>3357.06</ele>
        <time>2010-08-04T09:41:04Z</time>
      </trkpt>
      <trkpt lat="45.34535" lon="6.74614">
        <ele>3356.1</ele>
        <time>2010-08-04T09:41:14Z</time>
      </trkpt>
      <trkpt lat="45.3453" lon="6.74616">
        <ele>3357.54</ele>
        <time>2010-08-04T09:41:19Z</time>
      </trkpt>
      <trkpt lat="45.34528" lon="6.74616">
        <ele>3354.18</ele>
        <time>2010-08-04T09:41:21Z</time>
      </trkpt>
      <trkpt lat="45.34526" lon="6.74617">
        <ele>3357.54</ele>
        <time>2010-08-04T09:41:23Z</time>
      </trkpt>
      <trkpt lat="45.34525" lon="6.74618">
        <ele>3354.18</ele>
        <time>2010-08-04T09:41:25Z</time>
      </trkpt>
      <trkpt lat="45.34523" lon="6.74619">
        <ele>3357.06</ele>
        <time>2010-08-04T09:41:27Z</time>
      </trkpt>
      <trkpt lat="45.34523" lon="6.74619">
        <ele>3356.58</ele>
        <time>2010-08-04T09:41:28Z</time>
      </trkpt>
      <trkpt lat="45.34513" lon="6.74626">
        <ele>3357.06</ele>
        <time>2010-08-04T09:41:39Z</time>
      </trkpt>
      <trkpt lat="45.345" lon="6.74631">
        <ele>3353.7</ele>
        <time>2010-08-04T09:41:54Z</time>
      </trkpt>
      <trkpt lat="45.34499" lon="6.74632">
        <ele>3353.7</ele>
        <time>2010-08-04T09:41:55Z</time>
      </trkpt>
      <trkpt lat="45.34497" lon="6.74633">
        <ele>3349.85</ele>
        <time>2010-08-04T09:41:58Z</time>
      </trkpt>
      <trkpt lat="45.34496" lon="6.74634">
        <ele>3350.33</ele>
        <time>2010-08-04T09:41:59Z</time>
      </trkpt>
      <trkpt lat="45.34495" lon="6.74634">
        <ele>3353.7</ele>
        <time>2010-08-04T09:42:00Z</time>
      </trkpt>
      <trkpt lat="45.34493" lon="6.74635">
        <ele>3355.14</ele>
        <time>2010-08-04T09:42:03Z</time>
      </trkpt>
      <trkpt lat="45.3449" lon="6.74636">
        <ele>3359.95</ele>
        <time>2010-08-04T09:42:07Z</time>
      </trkpt>
      <trkpt lat="45.34489" lon="6.74637">
        <ele>3356.1</ele>
        <time>2010-08-04T09:42:08Z</time>
      </trkpt>
      <trkpt lat="45.34482" lon="6.74641">
        <ele>3359.95</ele>
        <time>2010-08-04T09:42:16Z</time>
      </trkpt>
      <trkpt lat="45.34482" lon="6.74641">
        <ele>3357.06</ele>
        <time>2010-08-04T09:42:17Z</time>
      </trkpt>
      <trkpt lat="45.34477" lon="6.74644">
        <ele>3359.95</ele>
        <time>2010-08-04T09:42:22Z</time>
      </trkpt>
      <trkpt lat="45.34476" lon="6.74645">
        <ele>3356.1</ele>
        <time>2010-08-04T09:42:23Z</time>
      </trkpt>
      <trkpt lat="45.34475" lon="6.74646">
        <ele>3359.46</ele>
        <time>2010-08-04T09:42:24Z</time>
      </trkpt>
      <trkpt lat="45.34473" lon="6.74647">
        <ele>3353.7</ele>
        <time>2010-08-04T09:42:27Z</time>
      </trkpt>
      <trkpt lat="45.34472" lon="6.74648">
        <ele>3356.58</ele>
        <time>2010-08-04T09:42:28Z</time>
      </trkpt>
      <trkpt lat="45.34469" lon="6.74651">
        <ele>3360.43</ele>
        <time>2010-08-04T09:42:31Z</time>
      </trkpt>
      <trkpt lat="45.34467" lon="6.74653">
        <ele>3354.18</ele>
        <time>2010-08-04T09:42:34Z</time>
      </trkpt>
      <trkpt lat="45.34466" lon="6.74654">
        <ele>3356.58</ele>
        <time>2010-08-04T09:42:35Z</time>
      </trkpt>
      <trkpt lat="45.34462" lon="6.74657">
        <ele>3361.39</ele>
        <time>2010-08-04T09:42:40Z</time>
      </trkpt>
      <trkpt lat="45.34461" lon="6.74658">
        <ele>3358.02</ele>
        <time>2010-08-04T09:42:41Z</time>
      </trkpt>
      <trkpt lat="45.34449" lon="6.74669">
        <ele>3353.7</ele>
        <time>2010-08-04T09:42:55Z</time>
      </trkpt>
      <trkpt lat="45.34447" lon="6.74671">
        <ele>3355.14</ele>
        <time>2010-08-04T09:42:58Z</time>
      </trkpt>
      <trkpt lat="45.34443" lon="6.74675">
        <ele>3358.02</ele>
        <time>2010-08-04T09:43:03Z</time>
      </trkpt>
      <trkpt lat="45.34442" lon="6.74676">
        <ele>3355.62</ele>
        <time>2010-08-04T09:43:04Z</time>
      </trkpt>
      <trkpt lat="45.34439" lon="6.74679">
        <ele>3354.18</ele>
        <time>2010-08-04T09:43:08Z</time>
      </trkpt>
      <trkpt lat="45.34437" lon="6.7468">
        <ele>3358.5</ele>
        <time>2010-08-04T09:43:10Z</time>
      </trkpt>
      <trkpt lat="45.34436" lon="6.74682">
        <ele>3355.14</ele>
        <time>2010-08-04T09:43:12Z</time>
      </trkpt>
      <trkpt lat="45.34433" lon="6.74685">
        <ele>3357.06</ele>
        <time>2010-08-04T09:43:15Z</time>
      </trkpt>
      <trkpt lat="45.34428" lon="6.7469">
        <ele>3358.98</ele>
        <time>2010-08-04T09:43:22Z</time>
      </trkpt>
      <trkpt lat="45.34427" lon="6.74691">
        <ele>3355.14</ele>
        <time>2010-08-04T09:43:23Z</time>
      </trkpt>
      <trkpt lat="45.34426" lon="6.74692">
        <ele>3356.1</ele>
        <time>2010-08-04T09:43:24Z</time>
      </trkpt>
      <trkpt lat="45.34422" lon="6.74695">
        <ele>3354.18</ele>
        <time>2010-08-04T09:43:29Z</time>
      </trkpt>
      <trkpt lat="45.34422" lon="6.74696">
        <ele>3359.46</ele>
        <time>2010-08-04T09:43:30Z</time>
      </trkpt>
      <trkpt lat="45.34421" lon="6.74696">
        <ele>3356.1</ele>
        <time>2010-08-04T09:43:31Z</time>
      </trkpt>
      <trkpt lat="45.34414" lon="6.74704">
        <ele>3354.66</ele>
        <time>2010-08-04T09:43:42Z</time>
      </trkpt>
      <trkpt lat="45.34413" lon="6.74705">
        <ele>3353.22</ele>
        <time>2010-08-04T09:43:44Z</time>
      </trkpt>
      <trkpt lat="45.34411" lon="6.74709">
        <ele>3349.85</ele>
        <time>2010-08-04T09:43:47Z</time>
      </trkpt>
      <trkpt lat="45.3441" lon="6.7471">
        <ele>3351.77</ele>
        <time>2010-08-04T09:43:48Z</time>
      </trkpt>
      <trkpt lat="45.34409" lon="6.74712">
        <ele>3354.18</ele>
        <time>2010-08-04T09:43:50Z</time>
      </trkpt>
      <trkpt lat="45.34408" lon="6.74714">
        <ele>3350.33</ele>
        <time>2010-08-04T09:43:52Z</time>
      </trkpt>
      <trkpt lat="45.34407" lon="6.74716">
        <ele>3349.85</ele>
        <time>2010-08-04T09:43:54Z</time>
      </trkpt>
      <trkpt lat="45.34407" lon="6.74719">
        <ele>3351.77</ele>
        <time>2010-08-04T09:43:56Z</time>
      </trkpt>
      <trkpt lat="45.34406" lon="6.74722">
        <ele>3349.85</ele>
        <time>2010-08-04T09:43:58Z</time>
      </trkpt>
      <trkpt lat="45.34404" lon="6.74725">
        <ele>3349.85</ele>
        <time>2010-08-04T09:44:01Z</time>
      </trkpt>
      <trkpt lat="45.344" lon="6.74728">
        <ele>3349.37</ele>
        <time>2010-08-04T09:44:06Z</time>
      </trkpt>
      <trkpt lat="45.34395" lon="6.74728">
        <ele>3346.97</ele>
        <time>2010-08-04T09:44:11Z</time>
      </trkpt>
      <trkpt lat="45.34394" lon="6.74728">
        <ele>3347.45</ele>
        <time>2010-08-04T09:44:12Z</time>
      </trkpt>
      <trkpt lat="45.34392" lon="6.74725">
        <ele>3346.49</ele>
        <time>2010-08-04T09:44:15Z</time>
      </trkpt>
      <trkpt lat="45.34391" lon="6.74724">
        <ele>3343.12</ele>
        <time>2010-08-04T09:44:16Z</time>
      </trkpt>
      <trkpt lat="45.34389" lon="6.7472">
        <ele>3346.01</ele>
        <time>2010-08-04T09:44:21Z</time>
      </trkpt>
      <trkpt lat="45.34387" lon="6.74718">
        <ele>3344.08</ele>
        <time>2010-08-04T09:44:23Z</time>
      </trkpt>
      <trkpt lat="45.34383" lon="6.74708">
        <ele>3340.24</ele>
        <time>2010-08-04T09:44:33Z</time>
      </trkpt>
      <trkpt lat="45.34383" lon="6.74708">
        <ele>3355.14</ele>
        <time>2010-08-04T09:44:34Z</time>
      </trkpt>
      <trkpt lat="45.34383" lon="6.74704">
        <ele>3344.56</ele>
        <time>2010-08-04T09:44:37Z</time>
      </trkpt>
      <trkpt lat="45.34382" lon="6.74699">
        <ele>3338.8</ele>
        <time>2010-08-04T09:44:40Z</time>
      </trkpt>
      <trkpt lat="45.34382" lon="6.74692">
        <ele>3344.56</ele>
        <time>2010-08-04T09:44:45Z</time>
      </trkpt>
      <trkpt lat="45.34381" lon="6.7469">
        <ele>3347.93</ele>
        <time>2010-08-04T09:44:46Z</time>
      </trkpt>
      <trkpt lat="45.34381" lon="6.74688">
        <ele>3344.56</ele>
        <time>2010-08-04T09:44:47Z</time>
      </trkpt>
      <trkpt lat="45.34381" lon="6.74687">
        <ele>3341.68</ele>
        <time>2010-08-04T09:44:48Z</time>
      </trkpt>
      <trkpt lat="45.34381" lon="6.74685">
        <ele>3341.68</ele>
        <time>2010-08-04T09:44:49Z</time>
      </trkpt>
      <trkpt lat="45.34381" lon="6.74684">
        <ele>3341.2</ele>
        <time>2010-08-04T09:44:50Z</time>
      </trkpt>
      <trkpt lat="45.34381" lon="6.74681">
        <ele>3339.28</ele>
        <time>2010-08-04T09:44:52Z</time>
      </trkpt>
      <trkpt lat="45.34383" lon="6.74663">
        <ele>3336.39</ele>
        <time>2010-08-04T09:45:05Z</time>
      </trkpt>
      <trkpt lat="45.34384" lon="6.74655">
        <ele>3340.72</ele>
        <time>2010-08-04T09:45:10Z</time>
      </trkpt>
      <trkpt lat="45.34384" lon="6.74654">
        <ele>3338.8</ele>
        <time>2010-08-04T09:45:11Z</time>
      </trkpt>
      <trkpt lat="45.34385" lon="6.74651">
        <ele>3336.87</ele>
        <time>2010-08-04T09:45:13Z</time>
      </trkpt>
      <trkpt lat="45.34387" lon="6.74645">
        <ele>3340.24</ele>
        <time>2010-08-04T09:45:17Z</time>
      </trkpt>
      <trkpt lat="45.34387" lon="6.74644">
        <ele>3333.99</ele>
        <time>2010-08-04T09:45:18Z</time>
      </trkpt>
      <trkpt lat="45.34388" lon="6.7464">
        <ele>3339.28</ele>
        <time>2010-08-04T09:45:20Z</time>
      </trkpt>
      <trkpt lat="45.34388" lon="6.74639">
        <ele>3333.51</ele>
        <time>2010-08-04T09:45:21Z</time>
      </trkpt>
      <trkpt lat="45.34389" lon="6.74638">
        <ele>3329.66</ele>
        <time>2010-08-04T09:45:22Z</time>
      </trkpt>
      <trkpt lat="45.34389" lon="6.74637">
        <ele>3332.55</ele>
        <time>2010-08-04T09:45:23Z</time>
      </trkpt>
      <trkpt lat="45.34391" lon="6.74634">
        <ele>3335.91</ele>
        <time>2010-08-04T09:45:25Z</time>
      </trkpt>
      <trkpt lat="45.34393" lon="6.74625">
        <ele>3333.03</ele>
        <time>2010-08-04T09:45:31Z</time>
      </trkpt>
      <trkpt lat="45.34394" lon="6.74623">
        <ele>3328.22</ele>
        <time>2010-08-04T09:45:33Z</time>
      </trkpt>
      <trkpt lat="45.34395" lon="6.74621">
        <ele>3333.51</ele>
        <time>2010-08-04T09:45:34Z</time>
      </trkpt>
      <trkpt lat="45.34397" lon="6.74616">
        <ele>3337.35</ele>
        <time>2010-08-04T09:45:38Z</time>
      </trkpt>
      <trkpt lat="45.34397" lon="6.74615">
        <ele>3331.59</ele>
        <time>2010-08-04T09:45:39Z</time>
      </trkpt>
      <trkpt lat="45.34397" lon="6.74613">
        <ele>3332.07</ele>
        <time>2010-08-04T09:45:40Z</time>
      </trkpt>
      <trkpt lat="45.34401" lon="6.74604">
        <ele>3328.7</ele>
        <time>2010-08-04T09:45:47Z</time>
      </trkpt>
      <trkpt lat="45.34404" lon="6.746">
        <ele>3333.03</ele>
        <time>2010-08-04T09:45:51Z</time>
      </trkpt>
      <trkpt lat="45.34406" lon="6.74596">
        <ele>3324.38</ele>
        <time>2010-08-04T09:45:54Z</time>
      </trkpt>
      <trkpt lat="45.34408" lon="6.74592">
        <ele>3326.3</ele>
        <time>2010-08-04T09:45:57Z</time>
      </trkpt>
      <trkpt lat="45.34413" lon="6.74584">
        <ele>3329.66</ele>
        <time>2010-08-04T09:46:04Z</time>
      </trkpt>
      <trkpt lat="45.34416" lon="6.74578">
        <ele>3324.38</ele>
        <time>2010-08-04T09:46:09Z</time>
      </trkpt>
      <trkpt lat="45.34422" lon="6.74566">
        <ele>3323.9</ele>
        <time>2010-08-04T09:46:18Z</time>
      </trkpt>
      <trkpt lat="45.34424" lon="6.74562">
        <ele>3326.78</ele>
        <time>2010-08-04T09:46:21Z</time>
      </trkpt>
      <trkpt lat="45.34425" lon="6.74561">
        <ele>3323.9</ele>
        <time>2010-08-04T09:46:22Z</time>
      </trkpt>
      <trkpt lat="45.34425" lon="6.7456">
        <ele>3319.09</ele>
        <time>2010-08-04T09:46:23Z</time>
      </trkpt>
      <trkpt lat="45.34426" lon="6.74558">
        <ele>3321.01</ele>
        <time>2010-08-04T09:46:24Z</time>
      </trkpt>
      <trkpt lat="45.34426" lon="6.74557">
        <ele>3321.01</ele>
        <time>2010-08-04T09:46:25Z</time>
      </trkpt>
      <trkpt lat="45.34429" lon="6.74554">
        <ele>3323.9</ele>
        <time>2010-08-04T09:46:28Z</time>
      </trkpt>
      <trkpt lat="45.34431" lon="6.7455">
        <ele>3319.57</ele>
        <time>2010-08-04T09:46:31Z</time>
      </trkpt>
      <trkpt lat="45.34433" lon="6.74547">
        <ele>3321.97</ele>
        <time>2010-08-04T09:46:34Z</time>
      </trkpt>
      <trkpt lat="45.34435" lon="6.74542">
        <ele>3318.13</ele>
        <time>2010-08-04T09:46:38Z</time>
      </trkpt>
      <trkpt lat="45.34436" lon="6.74541">
        <ele>3318.13</ele>
        <time>2010-08-04T09:46:39Z</time>
      </trkpt>
      <trkpt lat="45.34437" lon="6.74538">
        <ele>3314.76</ele>
        <time>2010-08-04T09:46:42Z</time>
      </trkpt>
      <trkpt lat="45.34438" lon="6.74536">
        <ele>3318.13</ele>
        <time>2010-08-04T09:46:44Z</time>
      </trkpt>
      <trkpt lat="45.34439" lon="6.74533">
        <ele>3314.76</ele>
        <time>2010-08-04T09:46:46Z</time>
      </trkpt>
      <trkpt lat="45.34441" lon="6.74528">
        <ele>3313.32</ele>
        <time>2010-08-04T09:46:50Z</time>
      </trkpt>
      <trkpt lat="45.34443" lon="6.74524">
        <ele>3317.65</ele>
        <time>2010-08-04T09:46:53Z</time>
      </trkpt>
      <trkpt lat="45.34443" lon="6.74523">
        <ele>3312.84</ele>
        <time>2010-08-04T09:46:54Z</time>
      </trkpt>
      <trkpt lat="45.34446" lon="6.74519">
        <ele>3314.76</ele>
        <time>2010-08-04T09:46:57Z</time>
      </trkpt>
      <trkpt lat="45.34446" lon="6.74517">
        <ele>3309.96</ele>
        <time>2010-08-04T09:46:59Z</time>
      </trkpt>
      <trkpt lat="45.34447" lon="6.74515">
        <ele>3311.88</ele>
        <time>2010-08-04T09:47:00Z</time>
      </trkpt>
      <trkpt lat="45.34448" lon="6.74513">
        <ele>3315.24</ele>
        <time>2010-08-04T09:47:02Z</time>
      </trkpt>
      <trkpt lat="45.34448" lon="6.74512">
        <ele>3312.36</ele>
        <time>2010-08-04T09:47:03Z</time>
      </trkpt>
      <trkpt lat="45.34449" lon="6.74508">
        <ele>3307.07</ele>
        <time>2010-08-04T09:47:06Z</time>
      </trkpt>
      <trkpt lat="45.34449" lon="6.74507">
        <ele>3309</ele>
        <time>2010-08-04T09:47:07Z</time>
      </trkpt>
      <trkpt lat="45.3445" lon="6.74506">
        <ele>3310.92</ele>
        <time>2010-08-04T09:47:08Z</time>
      </trkpt>
      <trkpt lat="45.34454" lon="6.74499">
        <ele>3312.36</ele>
        <time>2010-08-04T09:47:14Z</time>
      </trkpt>
      <trkpt lat="45.34455" lon="6.74496">
        <ele>3309</ele>
        <time>2010-08-04T09:47:18Z</time>
      </trkpt>
      <trkpt lat="45.34459" lon="6.74488">
        <ele>3306.59</ele>
        <time>2010-08-04T09:47:25Z</time>
      </trkpt>
      <trkpt lat="45.34463" lon="6.74481">
        <ele>3307.55</ele>
        <time>2010-08-04T09:47:33Z</time>
      </trkpt>
      <trkpt lat="45.34466" lon="6.74475">
        <ele>3302.75</ele>
        <time>2010-08-04T09:47:39Z</time>
      </trkpt>
      <trkpt lat="45.34467" lon="6.74473">
        <ele>3306.59</ele>
        <time>2010-08-04T09:47:41Z</time>
      </trkpt>
      <trkpt lat="45.3447" lon="6.74469">
        <ele>3304.19</ele>
        <time>2010-08-04T09:47:45Z</time>
      </trkpt>
      <trkpt lat="45.34472" lon="6.74466">
        <ele>3308.51</ele>
        <time>2010-08-04T09:47:48Z</time>
      </trkpt>
      <trkpt lat="45.34472" lon="6.74466">
        <ele>3305.15</ele>
        <time>2010-08-04T09:47:49Z</time>
      </trkpt>
      <trkpt lat="45.34473" lon="6.74465">
        <ele>3300.34</ele>
        <time>2010-08-04T09:47:50Z</time>
      </trkpt>
      <trkpt lat="45.34473" lon="6.74464">
        <ele>3308.51</ele>
        <time>2010-08-04T09:47:51Z</time>
      </trkpt>
      <trkpt lat="45.34474" lon="6.74463">
        <ele>3300.34</ele>
        <time>2010-08-04T09:47:52Z</time>
      </trkpt>
      <trkpt lat="45.34475" lon="6.7446">
        <ele>3303.71</ele>
        <time>2010-08-04T09:47:55Z</time>
      </trkpt>
      <trkpt lat="45.34475" lon="6.74459">
        <ele>3304.67</ele>
        <time>2010-08-04T09:47:56Z</time>
      </trkpt>
      <trkpt lat="45.34479" lon="6.74446">
        <ele>3301.3</ele>
        <time>2010-08-04T09:48:07Z</time>
      </trkpt>
      <trkpt lat="45.34483" lon="6.74436">
        <ele>3297.94</ele>
        <time>2010-08-04T09:48:15Z</time>
      </trkpt>
      <trkpt lat="45.34483" lon="6.74435">
        <ele>3298.9</ele>
        <time>2010-08-04T09:48:16Z</time>
      </trkpt>
      <trkpt lat="45.34484" lon="6.74432">
        <ele>3301.3</ele>
        <time>2010-08-04T09:48:18Z</time>
      </trkpt>
      <trkpt lat="45.34486" lon="6.74428">
        <ele>3298.9</ele>
        <time>2010-08-04T09:48:23Z</time>
      </trkpt>
      <trkpt lat="45.34488" lon="6.74424">
        <ele>3297.94</ele>
        <time>2010-08-04T09:48:26Z</time>
      </trkpt>
      <trkpt lat="45.3449" lon="6.74419">
        <ele>3296.5</ele>
        <time>2010-08-04T09:48:31Z</time>
      </trkpt>
      <trkpt lat="45.34493" lon="6.74415">
        <ele>3298.42</ele>
        <time>2010-08-04T09:48:35Z</time>
      </trkpt>
      <trkpt lat="45.34495" lon="6.7441">
        <ele>3298.42</ele>
        <time>2010-08-04T09:48:40Z</time>
      </trkpt>
      <trkpt lat="45.34496" lon="6.74408">
        <ele>3294.58</ele>
        <time>2010-08-04T09:48:42Z</time>
      </trkpt>
      <trkpt lat="45.34497" lon="6.74408">
        <ele>3297.94</ele>
        <time>2010-08-04T09:48:43Z</time>
      </trkpt>
      <trkpt lat="45.34502" lon="6.744">
        <ele>3296.5</ele>
        <time>2010-08-04T09:48:54Z</time>
      </trkpt>
      <trkpt lat="45.34504" lon="6.744">
        <ele>3299.86</ele>
        <time>2010-08-04T09:48:57Z</time>
      </trkpt>
      <trkpt lat="45.34506" lon="6.744">
        <ele>3296.98</ele>
        <time>2010-08-04T09:48:59Z</time>
      </trkpt>
      <trkpt lat="45.34507" lon="6.744">
        <ele>3299.86</ele>
        <time>2010-08-04T09:49:04Z</time>
      </trkpt>
      <trkpt lat="45.3451" lon="6.74401">
        <ele>3299.86</ele>
        <time>2010-08-04T09:49:10Z</time>
      </trkpt>
      <trkpt lat="45.34513" lon="6.74401">
        <ele>3300.82</ele>
        <time>2010-08-04T09:49:17Z</time>
      </trkpt>
      <trkpt lat="45.34513" lon="6.744">
        <ele>3301.79</ele>
        <time>2010-08-04T09:49:18Z</time>
      </trkpt>
      <trkpt lat="45.34517" lon="6.74397">
        <ele>3302.75</ele>
        <time>2010-08-04T09:49:26Z</time>
      </trkpt>
      <trkpt lat="45.34519" lon="6.74395">
        <ele>3301.3</ele>
        <time>2010-08-04T09:49:30Z</time>
      </trkpt>
      <trkpt lat="45.34525" lon="6.74387">
        <ele>3301.3</ele>
        <time>2010-08-04T09:49:41Z</time>
      </trkpt>
      <trkpt lat="45.3453" lon="6.7438">
        <ele>3305.15</ele>
        <time>2010-08-04T09:49:50Z</time>
      </trkpt>
      <trkpt lat="45.34531" lon="6.74379">
        <ele>3302.27</ele>
        <time>2010-08-04T09:49:52Z</time>
      </trkpt>
      <trkpt lat="45.34533" lon="6.74375">
        <ele>3305.63</ele>
        <time>2010-08-04T09:49:57Z</time>
      </trkpt>
      <trkpt lat="45.34535" lon="6.74373">
        <ele>3300.82</ele>
        <time>2010-08-04T09:49:59Z</time>
      </trkpt>
      <trkpt lat="45.34535" lon="6.74372">
        <ele>3303.71</ele>
        <time>2010-08-04T09:50:00Z</time>
      </trkpt>
      <trkpt lat="45.34539" lon="6.74368">
        <ele>3304.19</ele>
        <time>2010-08-04T09:50:05Z</time>
      </trkpt>
      <trkpt lat="45.3454" lon="6.74367">
        <ele>3300.82</ele>
        <time>2010-08-04T09:50:06Z</time>
      </trkpt>
      <trkpt lat="45.3454" lon="6.74367">
        <ele>3302.75</ele>
        <time>2010-08-04T09:50:07Z</time>
      </trkpt>
      <trkpt lat="45.34541" lon="6.74365">
        <ele>3303.23</ele>
        <time>2010-08-04T09:50:09Z</time>
      </trkpt>
      <trkpt lat="45.34546" lon="6.74355">
        <ele>3301.3</ele>
        <time>2010-08-04T09:50:18Z</time>
      </trkpt>
      <trkpt lat="45.34551" lon="6.74344">
        <ele>3302.75</ele>
        <time>2010-08-04T09:50:28Z</time>
      </trkpt>
      <trkpt lat="45.34551" lon="6.74344">
        <ele>3298.9</ele>
        <time>2010-08-04T09:50:29Z</time>
      </trkpt>
      <trkpt lat="45.34552" lon="6.74342">
        <ele>3301.3</ele>
        <time>2010-08-04T09:50:31Z</time>
      </trkpt>
      <trkpt lat="45.34553" lon="6.7434">
        <ele>3296.98</ele>
        <time>2010-08-04T09:50:33Z</time>
      </trkpt>
      <trkpt lat="45.34556" lon="6.74335">
        <ele>3294.58</ele>
        <time>2010-08-04T09:50:37Z</time>
      </trkpt>
      <trkpt lat="45.34556" lon="6.74334">
        <ele>3294.58</ele>
        <time>2010-08-04T09:50:38Z</time>
      </trkpt>
      <trkpt lat="45.34557" lon="6.74333">
        <ele>3300.34</ele>
        <time>2010-08-04T09:50:39Z</time>
      </trkpt>
      <trkpt lat="45.34558" lon="6.74331">
        <ele>3302.27</ele>
        <time>2010-08-04T09:50:41Z</time>
      </trkpt>
      <trkpt lat="45.34558" lon="6.7433">
        <ele>3297.46</ele>
        <time>2010-08-04T09:50:42Z</time>
      </trkpt>
      <trkpt lat="45.34559" lon="6.74327">
        <ele>3303.23</ele>
        <time>2010-08-04T09:50:44Z</time>
      </trkpt>
      <trkpt lat="45.3456" lon="6.74326">
        <ele>3301.79</ele>
        <time>2010-08-04T09:50:45Z</time>
      </trkpt>
      <trkpt lat="45.34561" lon="6.74324">
        <ele>3297.94</ele>
        <time>2010-08-04T09:50:47Z</time>
      </trkpt>
      <trkpt lat="45.34562" lon="6.74322">
        <ele>3302.75</ele>
        <time>2010-08-04T09:50:49Z</time>
      </trkpt>
      <trkpt lat="45.34562" lon="6.74321">
        <ele>3301.79</ele>
        <time>2010-08-04T09:50:50Z</time>
      </trkpt>
      <trkpt lat="45.34563" lon="6.74319">
        <ele>3297.94</ele>
        <time>2010-08-04T09:50:52Z</time>
      </trkpt>
      <trkpt lat="45.34564" lon="6.74317">
        <ele>3295.06</ele>
        <time>2010-08-04T09:50:53Z</time>
      </trkpt>
      <trkpt lat="45.34565" lon="6.74315">
        <ele>3301.3</ele>
        <time>2010-08-04T09:50:55Z</time>
      </trkpt>
      <trkpt lat="45.34567" lon="6.74312">
        <ele>3298.9</ele>
        <time>2010-08-04T09:50:58Z</time>
      </trkpt>
      <trkpt lat="45.34568" lon="6.74309">
        <ele>3298.42</ele>
        <time>2010-08-04T09:51:00Z</time>
      </trkpt>
      <trkpt lat="45.34568" lon="6.74308">
        <ele>3300.82</ele>
        <time>2010-08-04T09:51:01Z</time>
      </trkpt>
      <trkpt lat="45.34568" lon="6.74305">
        <ele>3296.5</ele>
        <time>2010-08-04T09:51:03Z</time>
      </trkpt>
      <trkpt lat="45.34568" lon="6.74304">
        <ele>3298.9</ele>
        <time>2010-08-04T09:51:04Z</time>
      </trkpt>
      <trkpt lat="45.34568" lon="6.74302">
        <ele>3300.82</ele>
        <time>2010-08-04T09:51:05Z</time>
      </trkpt>
      <trkpt lat="45.34566" lon="6.74288">
        <ele>3297.46</ele>
        <time>2010-08-04T09:51:15Z</time>
      </trkpt>
      <trkpt lat="45.34566" lon="6.74286">
        <ele>3298.42</ele>
        <time>2010-08-04T09:51:17Z</time>
      </trkpt>
      <trkpt lat="45.34566" lon="6.74283">
        <ele>3296.98</ele>
        <time>2010-08-04T09:51:19Z</time>
      </trkpt>
      <trkpt lat="45.34566" lon="6.74277">
        <ele>3293.61</ele>
        <time>2010-08-04T09:51:24Z</time>
      </trkpt>
      <trkpt lat="45.34567" lon="6.74276">
        <ele>3301.3</ele>
        <time>2010-08-04T09:51:25Z</time>
      </trkpt>
      <trkpt lat="45.34567" lon="6.74275">
        <ele>3299.38</ele>
        <time>2010-08-04T09:51:26Z</time>
      </trkpt>
      <trkpt lat="45.34568" lon="6.74272">
        <ele>3293.61</ele>
        <time>2010-08-04T09:51:28Z</time>
      </trkpt>
      <trkpt lat="45.34569" lon="6.7427">
        <ele>3296.98</ele>
        <time>2010-08-04T09:51:29Z</time>
      </trkpt>
      <trkpt lat="45.3457" lon="6.74269">
        <ele>3301.3</ele>
        <time>2010-08-04T09:51:30Z</time>
      </trkpt>
      <trkpt lat="45.3457" lon="6.74266">
        <ele>3301.79</ele>
        <time>2010-08-04T09:51:32Z</time>
      </trkpt>
      <trkpt lat="45.34572" lon="6.74264">
        <ele>3298.42</ele>
        <time>2010-08-04T09:51:34Z</time>
      </trkpt>
      <trkpt lat="45.34572" lon="6.74263">
        <ele>3295.06</ele>
        <time>2010-08-04T09:51:35Z</time>
      </trkpt>
      <trkpt lat="45.34573" lon="6.74261">
        <ele>3295.06</ele>
        <time>2010-08-04T09:51:36Z</time>
      </trkpt>
      <trkpt lat="45.34574" lon="6.7426">
        <ele>3296.98</ele>
        <time>2010-08-04T09:51:37Z</time>
      </trkpt>
      <trkpt lat="45.34575" lon="6.74254">
        <ele>3293.13</ele>
        <time>2010-08-04T09:51:41Z</time>
      </trkpt>
      <trkpt lat="45.34576" lon="6.7425">
        <ele>3296.02</ele>
        <time>2010-08-04T09:51:44Z</time>
      </trkpt>
      <trkpt lat="45.34576" lon="6.74239">
        <ele>3297.46</ele>
        <time>2010-08-04T09:51:56Z</time>
      </trkpt>
      <trkpt lat="45.34576" lon="6.74239">
        <ele>3296.98</ele>
        <time>2010-08-04T09:51:57Z</time>
      </trkpt>
      <trkpt lat="45.34578" lon="6.74239">
        <ele>3294.09</ele>
        <time>2010-08-04T09:52:01Z</time>
      </trkpt>
      <trkpt lat="45.3458" lon="6.74241">
        <ele>3297.46</ele>
        <time>2010-08-04T09:52:03Z</time>
      </trkpt>
      <trkpt lat="45.34584" lon="6.74248">
        <ele>3294.09</ele>
        <time>2010-08-04T09:52:09Z</time>
      </trkpt>
      <trkpt lat="45.34586" lon="6.7425">
        <ele>3292.65</ele>
        <time>2010-08-04T09:52:12Z</time>
      </trkpt>
      <trkpt lat="45.34597" lon="6.74249">
        <ele>3292.17</ele>
        <time>2010-08-04T09:52:22Z</time>
      </trkpt>
      <trkpt lat="45.34599" lon="6.74247">
        <ele>3295.06</ele>
        <time>2010-08-04T09:52:25Z</time>
      </trkpt>
      <trkpt lat="45.34601" lon="6.74246">
        <ele>3290.25</ele>
        <time>2010-08-04T09:52:27Z</time>
      </trkpt>
      <trkpt lat="45.34602" lon="6.74246">
        <ele>3290.73</ele>
        <time>2010-08-04T09:52:28Z</time>
      </trkpt>
      <trkpt lat="45.34603" lon="6.74245">
        <ele>3294.09</ele>
        <time>2010-08-04T09:52:29Z</time>
      </trkpt>
      <trkpt lat="45.34604" lon="6.74244">
        <ele>3293.61</ele>
        <time>2010-08-04T09:52:30Z</time>
      </trkpt>
      <trkpt lat="45.34606" lon="6.74243">
        <ele>3287.85</ele>
        <time>2010-08-04T09:52:32Z</time>
      </trkpt>
      <trkpt lat="45.34607" lon="6.74243">
        <ele>3290.73</ele>
        <time>2010-08-04T09:52:33Z</time>
      </trkpt>
      <trkpt lat="45.34607" lon="6.74242">
        <ele>3287.85</ele>
        <time>2010-08-04T09:52:34Z</time>
      </trkpt>
      <trkpt lat="45.34609" lon="6.7424">
        <ele>3292.65</ele>
        <time>2010-08-04T09:52:36Z</time>
      </trkpt>
      <trkpt lat="45.34609" lon="6.7424">
        <ele>3288.81</ele>
        <time>2010-08-04T09:52:37Z</time>
      </trkpt>
      <trkpt lat="45.34609" lon="6.74239">
        <ele>3293.61</ele>
        <time>2010-08-04T09:52:38Z</time>
      </trkpt>
      <trkpt lat="45.3461" lon="6.74237">
        <ele>3288.33</ele>
        <time>2010-08-04T09:52:39Z</time>
      </trkpt>
      <trkpt lat="45.34611" lon="6.74232">
        <ele>3287.37</ele>
        <time>2010-08-04T09:52:44Z</time>
      </trkpt>
      <trkpt lat="45.34613" lon="6.74227">
        <ele>3291.21</ele>
        <time>2010-08-04T09:52:49Z</time>
      </trkpt>
      <trkpt lat="45.34613" lon="6.74225">
        <ele>3283.04</ele>
        <time>2010-08-04T09:52:50Z</time>
      </trkpt>
      <trkpt lat="45.34614" lon="6.74224">
        <ele>3288.33</ele>
        <time>2010-08-04T09:52:51Z</time>
      </trkpt>
      <trkpt lat="45.34614" lon="6.74223">
        <ele>3282.08</ele>
        <time>2010-08-04T09:52:52Z</time>
      </trkpt>
      <trkpt lat="45.34615" lon="6.74222">
        <ele>3286.89</ele>
        <time>2010-08-04T09:52:54Z</time>
      </trkpt>
      <trkpt lat="45.34615" lon="6.74221">
        <ele>3283.52</ele>
        <time>2010-08-04T09:52:55Z</time>
      </trkpt>
      <trkpt lat="45.34617" lon="6.74213">
        <ele>3279.67</ele>
        <time>2010-08-04T09:53:03Z</time>
      </trkpt>
      <trkpt lat="45.34618" lon="6.74213">
        <ele>3281.12</ele>
        <time>2010-08-04T09:53:04Z</time>
      </trkpt>
      <trkpt lat="45.34618" lon="6.74212">
        <ele>3281.12</ele>
        <time>2010-08-04T09:53:18Z</time>
      </trkpt>
      <trkpt lat="45.34619" lon="6.74209">
        <ele>3280.64</ele>
        <time>2010-08-04T09:53:35Z</time>
      </trkpt>
      <trkpt lat="45.34623" lon="6.74204">
        <ele>3279.19</ele>
        <time>2010-08-04T09:53:48Z</time>
      </trkpt>
      <trkpt lat="45.34624" lon="6.74204">
        <ele>3278.23</ele>
        <time>2010-08-04T09:53:50Z</time>
      </trkpt>
      <trkpt lat="45.34629" lon="6.74207">
        <ele>3278.23</ele>
        <time>2010-08-04T09:54:01Z</time>
      </trkpt>
      <trkpt lat="45.34632" lon="6.7421">
        <ele>3279.19</ele>
        <time>2010-08-04T09:54:13Z</time>
      </trkpt>
      <trkpt lat="45.34634" lon="6.74208">
        <ele>3275.35</ele>
        <time>2010-08-04T09:54:17Z</time>
      </trkpt>
      <trkpt lat="45.34634" lon="6.74207">
        <ele>3275.83</ele>
        <time>2010-08-04T09:54:18Z</time>
      </trkpt>
      <trkpt lat="45.34635" lon="6.74203">
        <ele>3277.27</ele>
        <time>2010-08-04T09:54:22Z</time>
      </trkpt>
      <trkpt lat="45.34634" lon="6.74202">
        <ele>3274.39</ele>
        <time>2010-08-04T09:54:23Z</time>
      </trkpt>
      <trkpt lat="45.34634" lon="6.74201">
        <ele>3274.39</ele>
        <time>2010-08-04T09:54:24Z</time>
      </trkpt>
      <trkpt lat="45.34632" lon="6.74194">
        <ele>3274.39</ele>
        <time>2010-08-04T09:54:30Z</time>
      </trkpt>
      <trkpt lat="45.34633" lon="6.74189">
        <ele>3272.46</ele>
        <time>2010-08-04T09:54:42Z</time>
      </trkpt>
      <trkpt lat="45.34635" lon="6.74185">
        <ele>3271.02</ele>
        <time>2010-08-04T09:54:54Z</time>
      </trkpt>
      <trkpt lat="45.34636" lon="6.74183">
        <ele>3271.5</ele>
        <time>2010-08-04T09:54:56Z</time>
      </trkpt>
      <trkpt lat="45.34638" lon="6.74179">
        <ele>3267.66</ele>
        <time>2010-08-04T09:55:01Z</time>
      </trkpt>
      <trkpt lat="45.34642" lon="6.74172">
        <ele>3266.7</ele>
        <time>2010-08-04T09:55:09Z</time>
      </trkpt>
      <trkpt lat="45.34644" lon="6.7417">
        <ele>3272.95</ele>
        <time>2010-08-04T09:55:12Z</time>
      </trkpt>
      <trkpt lat="45.34645" lon="6.74169">
        <ele>3266.22</ele>
        <time>2010-08-04T09:55:13Z</time>
      </trkpt>
      <trkpt lat="45.34646" lon="6.74168">
        <ele>3269.1</ele>
        <time>2010-08-04T09:55:14Z</time>
      </trkpt>
      <trkpt lat="45.3465" lon="6.74165">
        <ele>3264.77</ele>
        <time>2010-08-04T09:55:22Z</time>
      </trkpt>
      <trkpt lat="45.34653" lon="6.74164">
        <ele>3262.85</ele>
        <time>2010-08-04T09:55:44Z</time>
      </trkpt>
      <trkpt lat="45.34659" lon="6.74163">
        <ele>3260.45</ele>
        <time>2010-08-04T09:55:53Z</time>
      </trkpt>
      <trkpt lat="45.34659" lon="6.74164">
        <ele>3260.45</ele>
        <time>2010-08-04T09:55:54Z</time>
      </trkpt>
      <trkpt lat="45.34663" lon="6.74165">
        <ele>3259.49</ele>
        <time>2010-08-04T09:55:59Z</time>
      </trkpt>
      <trkpt lat="45.34665" lon="6.74164">
        <ele>3261.89</ele>
        <time>2010-08-04T09:56:01Z</time>
      </trkpt>
      <trkpt lat="45.34666" lon="6.74164">
        <ele>3256.12</ele>
        <time>2010-08-04T09:56:02Z</time>
      </trkpt>
      <trkpt lat="45.34667" lon="6.74163">
        <ele>3262.85</ele>
        <time>2010-08-04T09:56:03Z</time>
      </trkpt>
      <trkpt lat="45.34668" lon="6.74162">
        <ele>3257.08</ele>
        <time>2010-08-04T09:56:05Z</time>
      </trkpt>
      <trkpt lat="45.34669" lon="6.74161">
        <ele>3258.53</ele>
        <time>2010-08-04T09:56:06Z</time>
      </trkpt>
      <trkpt lat="45.34669" lon="6.7416">
        <ele>3255.64</ele>
        <time>2010-08-04T09:56:08Z</time>
      </trkpt>
      <trkpt lat="45.34669" lon="6.74159">
        <ele>3258.53</ele>
        <time>2010-08-04T09:56:09Z</time>
      </trkpt>
      <trkpt lat="45.3467" lon="6.74158">
        <ele>3257.08</ele>
        <time>2010-08-04T09:56:12Z</time>
      </trkpt>
      <trkpt lat="45.34672" lon="6.74153">
        <ele>3253.24</ele>
        <time>2010-08-04T09:56:18Z</time>
      </trkpt>
      <trkpt lat="45.34672" lon="6.74152">
        <ele>3254.68</ele>
        <time>2010-08-04T09:56:19Z</time>
      </trkpt>
      <trkpt lat="45.34673" lon="6.7415">
        <ele>3256.6</ele>
        <time>2010-08-04T09:56:21Z</time>
      </trkpt>
      <trkpt lat="45.34674" lon="6.74147">
        <ele>3252.76</ele>
        <time>2010-08-04T09:56:23Z</time>
      </trkpt>
      <trkpt lat="45.34674" lon="6.74146">
        <ele>3257.08</ele>
        <time>2010-08-04T09:56:24Z</time>
      </trkpt>
      <trkpt lat="45.34674" lon="6.74146">
        <ele>3257.08</ele>
        <time>2010-08-04T09:56:25Z</time>
      </trkpt>
      <trkpt lat="45.34675" lon="6.74144">
        <ele>3254.68</ele>
        <time>2010-08-04T09:56:27Z</time>
      </trkpt>
      <trkpt lat="45.34677" lon="6.74141">
        <ele>3252.76</ele>
        <time>2010-08-04T09:56:34Z</time>
      </trkpt>
      <trkpt lat="45.34681" lon="6.74137">
        <ele>3252.76</ele>
        <time>2010-08-04T09:56:47Z</time>
      </trkpt>
      <trkpt lat="45.34684" lon="6.74134">
        <ele>3250.83</ele>
        <time>2010-08-04T09:56:59Z</time>
      </trkpt>
      <trkpt lat="45.34685" lon="6.74132">
        <ele>3249.87</ele>
        <time>2010-08-04T09:57:12Z</time>
      </trkpt>
      <trkpt lat="45.34684" lon="6.74129">
        <ele>3252.28</ele>
        <time>2010-08-04T09:57:17Z</time>
      </trkpt>
      <trkpt lat="45.34683" lon="6.7412">
        <ele>3247.95</ele>
        <time>2010-08-04T09:57:27Z</time>
      </trkpt>
      <trkpt lat="45.34683" lon="6.7412">
        <ele>3249.39</ele>
        <time>2010-08-04T09:57:34Z</time>
      </trkpt>
      <trkpt lat="45.34683" lon="6.74119">
        <ele>3250.35</ele>
        <time>2010-08-04T09:58:01Z</time>
      </trkpt>
      <trkpt lat="45.34683" lon="6.74117">
        <ele>3247.47</ele>
        <time>2010-08-04T09:58:31Z</time>
      </trkpt>
      <trkpt lat="45.34686" lon="6.74112">
        <ele>3246.99</ele>
        <time>2010-08-04T09:58:41Z</time>
      </trkpt>
      <trkpt lat="45.34686" lon="6.74112">
        <ele>3246.03</ele>
        <time>2010-08-04T09:58:58Z</time>
      </trkpt>
      <trkpt lat="45.34687" lon="6.74111">
        <ele>3246.51</ele>
        <time>2010-08-04T09:59:30Z</time>
      </trkpt>
      <trkpt lat="45.34689" lon="6.7411">
        <ele>3246.03</ele>
        <time>2010-08-04T10:00:09Z</time>
      </trkpt>
      <trkpt lat="45.34689" lon="6.7411">
        <ele>3245.55</ele>
        <time>2010-08-04T10:00:14Z</time>
      </trkpt>
      <trkpt lat="45.34689" lon="6.74111">
        <ele>3244.59</ele>
        <time>2010-08-04T10:01:19Z</time>
      </trkpt>
      <trkpt lat="45.34689" lon="6.7411">
        <ele>3238.82</ele>
        <time>2010-08-04T10:07:52Z</time>
      </trkpt>
      <trkpt lat="45.34689" lon="6.7411">
        <ele>3245.07</ele>
        <time>2010-08-04T10:07:53Z</time>
      </trkpt>
      <trkpt lat="45.34689" lon="6.7411">
        <ele>3251.32</ele>
        <time>2010-08-04T10:07:56Z</time>
      </trkpt>
      <trkpt lat="45.34689" lon="6.7411">
        <ele>3246.03</ele>
        <time>2010-08-04T10:07:57Z</time>
      </trkpt>
      <trkpt lat="45.3469" lon="6.74109">
        <ele>3244.11</ele>
        <time>2010-08-04T10:08:10Z</time>
      </trkpt>
      <trkpt lat="45.34691" lon="6.74109">
        <ele>3245.07</ele>
        <time>2010-08-04T10:10:22Z</time>
      </trkpt>
      <trkpt lat="45.34691" lon="6.7411">
        <ele>3246.03</ele>
        <time>2010-08-04T10:10:48Z</time>
      </trkpt>
      <trkpt lat="45.34691" lon="6.7411">
        <ele>3244.59</ele>
        <time>2010-08-04T10:11:11Z</time>
      </trkpt>
      <trkpt lat="45.34698" lon="6.74118">
        <ele>3242.18</ele>
        <time>2010-08-04T10:11:24Z</time>
      </trkpt>
      <trkpt lat="45.34701" lon="6.74125">
        <ele>3243.14</ele>
        <time>2010-08-04T10:11:34Z</time>
      </trkpt>
      <trkpt lat="45.34701" lon="6.74125">
        <ele>3243.63</ele>
        <time>2010-08-04T10:11:36Z</time>
      </trkpt>
      <trkpt lat="45.34706" lon="6.74132">
        <ele>3242.18</ele>
        <time>2010-08-04T10:11:48Z</time>
      </trkpt>
      <trkpt lat="45.3471" lon="6.74139">
        <ele>3239.3</ele>
        <time>2010-08-04T10:11:57Z</time>
      </trkpt>
      <trkpt lat="45.34711" lon="6.7414">
        <ele>3239.3</ele>
        <time>2010-08-04T10:11:58Z</time>
      </trkpt>
      <trkpt lat="45.34714" lon="6.74143">
        <ele>3238.82</ele>
        <time>2010-08-04T10:12:04Z</time>
      </trkpt>
      <trkpt lat="45.3472" lon="6.74149">
        <ele>3236.42</ele>
        <time>2010-08-04T10:12:15Z</time>
      </trkpt>
      <trkpt lat="45.34721" lon="6.7415">
        <ele>3235.94</ele>
        <time>2010-08-04T10:12:17Z</time>
      </trkpt>
      <trkpt lat="45.3473" lon="6.74155">
        <ele>3233.05</ele>
        <time>2010-08-04T10:12:29Z</time>
      </trkpt>
      <trkpt lat="45.34732" lon="6.74158">
        <ele>3226.8</ele>
        <time>2010-08-04T10:12:35Z</time>
      </trkpt>
      <trkpt lat="45.34732" lon="6.74158">
        <ele>3228.24</ele>
        <time>2010-08-04T10:12:36Z</time>
      </trkpt>
      <trkpt lat="45.34732" lon="6.74158">
        <ele>3235.45</ele>
        <time>2010-08-04T10:12:37Z</time>
      </trkpt>
      <trkpt lat="45.34733" lon="6.7416">
        <ele>3232.09</ele>
        <time>2010-08-04T10:12:41Z</time>
      </trkpt>
      <trkpt lat="45.34733" lon="6.7416">
        <ele>3232.57</ele>
        <time>2010-08-04T10:12:42Z</time>
      </trkpt>
      <trkpt lat="45.34735" lon="6.7416">
        <ele>3222.96</ele>
        <time>2010-08-04T10:12:45Z</time>
      </trkpt>
      <trkpt lat="45.34737" lon="6.7416">
        <ele>3231.13</ele>
        <time>2010-08-04T10:12:48Z</time>
      </trkpt>
      <trkpt lat="45.34738" lon="6.74161">
        <ele>3234.49</ele>
        <time>2010-08-04T10:12:49Z</time>
      </trkpt>
      <trkpt lat="45.34738" lon="6.74161">
        <ele>3232.57</ele>
        <time>2010-08-04T10:12:50Z</time>
      </trkpt>
      <trkpt lat="45.34739" lon="6.74162">
        <ele>3229.69</ele>
        <time>2010-08-04T10:12:53Z</time>
      </trkpt>
      <trkpt lat="45.34739" lon="6.74162">
        <ele>3230.17</ele>
        <time>2010-08-04T10:12:54Z</time>
      </trkpt>
      <trkpt lat="45.34741" lon="6.74162">
        <ele>3228.24</ele>
        <time>2010-08-04T10:13:02Z</time>
      </trkpt>
      <trkpt lat="45.34745" lon="6.74161">
        <ele>3225.84</ele>
        <time>2010-08-04T10:13:15Z</time>
      </trkpt>
      <trkpt lat="45.34745" lon="6.74159">
        <ele>3225.36</ele>
        <time>2010-08-04T10:13:41Z</time>
      </trkpt>
      <trkpt lat="45.34746" lon="6.74156">
        <ele>3223.92</ele>
        <time>2010-08-04T10:13:44Z</time>
      </trkpt>
      <trkpt lat="45.34747" lon="6.74152">
        <ele>3221.52</ele>
        <time>2010-08-04T10:13:56Z</time>
      </trkpt>
      <trkpt lat="45.34748" lon="6.7415">
        <ele>3220.07</ele>
        <time>2010-08-04T10:14:02Z</time>
      </trkpt>
      <trkpt lat="45.34748" lon="6.74147">
        <ele>3219.11</ele>
        <time>2010-08-04T10:14:34Z</time>
      </trkpt>
      <trkpt lat="45.34749" lon="6.74146">
        <ele>3218.15</ele>
        <time>2010-08-04T10:14:46Z</time>
      </trkpt>
      <trkpt lat="45.3475" lon="6.74148">
        <ele>3218.15</ele>
        <time>2010-08-04T10:15:04Z</time>
      </trkpt>
      <trkpt lat="45.34748" lon="6.7415">
        <ele>3220.07</ele>
        <time>2010-08-04T10:15:43Z</time>
      </trkpt>
      <trkpt lat="45.34748" lon="6.74152">
        <ele>3221.03</ele>
        <time>2010-08-04T10:15:46Z</time>
      </trkpt>
      <trkpt lat="45.34747" lon="6.74156">
        <ele>3224.4</ele>
        <time>2010-08-04T10:15:56Z</time>
      </trkpt>
      <trkpt lat="45.34748" lon="6.74161">
        <ele>3224.88</ele>
        <time>2010-08-04T10:16:02Z</time>
      </trkpt>
      <trkpt lat="45.34751" lon="6.74175">
        <ele>3226.8</ele>
        <time>2010-08-04T10:16:16Z</time>
      </trkpt>
      <trkpt lat="45.3475" lon="6.74179">
        <ele>3228.24</ele>
        <time>2010-08-04T10:16:29Z</time>
      </trkpt>
      <trkpt lat="45.34751" lon="6.74183">
        <ele>3226.8</ele>
        <time>2010-08-04T10:16:40Z</time>
      </trkpt>
      <trkpt lat="45.34752" lon="6.74187">
        <ele>3228.73</ele>
        <time>2010-08-04T10:16:43Z</time>
      </trkpt>
      <trkpt lat="45.34756" lon="6.74196">
        <ele>3227.28</ele>
        <time>2010-08-04T10:16:54Z</time>
      </trkpt>
      <trkpt lat="45.34762" lon="6.74205">
        <ele>3225.84</ele>
        <time>2010-08-04T10:17:08Z</time>
      </trkpt>
      <trkpt lat="45.34765" lon="6.74207">
        <ele>3223.44</ele>
        <time>2010-08-04T10:17:19Z</time>
      </trkpt>
      <trkpt lat="45.34765" lon="6.74199">
        <ele>3221.03</ele>
        <time>2010-08-04T10:17:31Z</time>
      </trkpt>
      <trkpt lat="45.34769" lon="6.74196">
        <ele>3218.15</ele>
        <time>2010-08-04T10:17:42Z</time>
      </trkpt>
      <trkpt lat="45.34771" lon="6.74193">
        <ele>3217.19</ele>
        <time>2010-08-04T10:17:53Z</time>
      </trkpt>
      <trkpt lat="45.34772" lon="6.74191">
        <ele>3215.75</ele>
        <time>2010-08-04T10:18:05Z</time>
      </trkpt>
      <trkpt lat="45.34774" lon="6.7419">
        <ele>3214.79</ele>
        <time>2010-08-04T10:18:12Z</time>
      </trkpt>
      <trkpt lat="45.34775" lon="6.74189">
        <ele>3213.34</ele>
        <time>2010-08-04T10:18:15Z</time>
      </trkpt>
      <trkpt lat="45.34778" lon="6.74188">
        <ele>3209.98</ele>
        <time>2010-08-04T10:18:34Z</time>
      </trkpt>
      <trkpt lat="45.34781" lon="6.74189">
        <ele>3210.46</ele>
        <time>2010-08-04T10:18:49Z</time>
      </trkpt>
      <trkpt lat="45.34784" lon="6.74189">
        <ele>3207.1</ele>
        <time>2010-08-04T10:18:59Z</time>
      </trkpt>
      <trkpt lat="45.34786" lon="6.74185">
        <ele>3207.1</ele>
        <time>2010-08-04T10:19:05Z</time>
      </trkpt>
      <trkpt lat="45.34785" lon="6.74182">
        <ele>3205.65</ele>
        <time>2010-08-04T10:19:16Z</time>
      </trkpt>
      <trkpt lat="45.34785" lon="6.74175">
        <ele>3202.29</ele>
        <time>2010-08-04T10:19:29Z</time>
      </trkpt>
      <trkpt lat="45.34787" lon="6.74175">
        <ele>3201.81</ele>
        <time>2010-08-04T10:19:36Z</time>
      </trkpt>
      <trkpt lat="45.34787" lon="6.74175">
        <ele>3201.33</ele>
        <time>2010-08-04T10:19:45Z</time>
      </trkpt>
      <trkpt lat="45.34787" lon="6.74173">
        <ele>3200.85</ele>
        <time>2010-08-04T10:19:53Z</time>
      </trkpt>
      <trkpt lat="45.34788" lon="6.74167">
        <ele>3197.48</ele>
        <time>2010-08-04T10:20:03Z</time>
      </trkpt>
      <trkpt lat="45.3479" lon="6.74165">
        <ele>3196.52</ele>
        <time>2010-08-04T10:20:11Z</time>
      </trkpt>
      <trkpt lat="45.34795" lon="6.74155">
        <ele>3195.08</ele>
        <time>2010-08-04T10:20:23Z</time>
      </trkpt>
      <trkpt lat="45.34795" lon="6.74151">
        <ele>3192.2</ele>
        <time>2010-08-04T10:20:28Z</time>
      </trkpt>
      <trkpt lat="45.34794" lon="6.74151">
        <ele>3191.71</ele>
        <time>2010-08-04T10:20:32Z</time>
      </trkpt>
      <trkpt lat="45.34796" lon="6.74148">
        <ele>3191.23</ele>
        <time>2010-08-04T10:21:10Z</time>
      </trkpt>
      <trkpt lat="45.34797" lon="6.74146">
        <ele>3190.27</ele>
        <time>2010-08-04T10:21:21Z</time>
      </trkpt>
      <trkpt lat="45.34801" lon="6.74143">
        <ele>3187.87</ele>
        <time>2010-08-04T10:21:33Z</time>
      </trkpt>
      <trkpt lat="45.348" lon="6.74138">
        <ele>3185.95</ele>
        <time>2010-08-04T10:21:43Z</time>
      </trkpt>
      <trkpt lat="45.34801" lon="6.74132">
        <ele>3184.02</ele>
        <time>2010-08-04T10:21:54Z</time>
      </trkpt>
      <trkpt lat="45.34802" lon="6.74127">
        <ele>3180.18</ele>
        <time>2010-08-04T10:22:05Z</time>
      </trkpt>
      <trkpt lat="45.34805" lon="6.74121">
        <ele>3178.74</ele>
        <time>2010-08-04T10:22:16Z</time>
      </trkpt>
      <trkpt lat="45.34808" lon="6.74119">
        <ele>3176.81</ele>
        <time>2010-08-04T10:22:26Z</time>
      </trkpt>
      <trkpt lat="45.34809" lon="6.74117">
        <ele>3176.33</ele>
        <time>2010-08-04T10:22:41Z</time>
      </trkpt>
      <trkpt lat="45.34808" lon="6.74111">
        <ele>3174.41</ele>
        <time>2010-08-04T10:22:52Z</time>
      </trkpt>
      <trkpt lat="45.34808" lon="6.74109">
        <ele>3172.97</ele>
        <time>2010-08-04T10:23:04Z</time>
      </trkpt>
      <trkpt lat="45.34811" lon="6.74109">
        <ele>3171.05</ele>
        <time>2010-08-04T10:23:19Z</time>
      </trkpt>
      <trkpt lat="45.3481" lon="6.74105">
        <ele>3170.57</ele>
        <time>2010-08-04T10:23:29Z</time>
      </trkpt>
      <trkpt lat="45.3481" lon="6.74105">
        <ele>3170.57</ele>
        <time>2010-08-04T10:23:35Z</time>
      </trkpt>
      <trkpt lat="45.34807" lon="6.741">
        <ele>3171.53</ele>
        <time>2010-08-04T10:23:41Z</time>
      </trkpt>
      <trkpt lat="45.34804" lon="6.74092">
        <ele>3171.05</ele>
        <time>2010-08-04T10:23:48Z</time>
      </trkpt>
      <trkpt lat="45.34802" lon="6.74085">
        <ele>3170.57</ele>
        <time>2010-08-04T10:23:57Z</time>
      </trkpt>
      <trkpt lat="45.34802" lon="6.74078">
        <ele>3168.64</ele>
        <time>2010-08-04T10:24:07Z</time>
      </trkpt>
      <trkpt lat="45.34803" lon="6.74073">
        <ele>3166.24</ele>
        <time>2010-08-04T10:24:18Z</time>
      </trkpt>
      <trkpt lat="45.34804" lon="6.7407">
        <ele>3162.39</ele>
        <time>2010-08-04T10:24:40Z</time>
      </trkpt>
      <trkpt lat="45.34805" lon="6.74068">
        <ele>3162.39</ele>
        <time>2010-08-04T10:24:47Z</time>
      </trkpt>
      <trkpt lat="45.34806" lon="6.74062">
        <ele>3159.03</ele>
        <time>2010-08-04T10:25:01Z</time>
      </trkpt>
      <trkpt lat="45.34809" lon="6.74063">
        <ele>3159.51</ele>
        <time>2010-08-04T10:25:17Z</time>
      </trkpt>
      <trkpt lat="45.34813" lon="6.74064">
        <ele>3158.07</ele>
        <time>2010-08-04T10:25:26Z</time>
      </trkpt>
      <trkpt lat="45.34813" lon="6.74061">
        <ele>3156.15</ele>
        <time>2010-08-04T10:25:39Z</time>
      </trkpt>
      <trkpt lat="45.34814" lon="6.74055">
        <ele>3153.74</ele>
        <time>2010-08-04T10:26:18Z</time>
      </trkpt>
      <trkpt lat="45.34818" lon="6.74054">
        <ele>3150.38</ele>
        <time>2010-08-04T10:26:25Z</time>
      </trkpt>
      <trkpt lat="45.34821" lon="6.74054">
        <ele>3149.42</ele>
        <time>2010-08-04T10:26:32Z</time>
      </trkpt>
      <trkpt lat="45.34826" lon="6.74052">
        <ele>3146.53</ele>
        <time>2010-08-04T10:26:41Z</time>
      </trkpt>
      <trkpt lat="45.34829" lon="6.74049">
        <ele>3146.53</ele>
        <time>2010-08-04T10:26:45Z</time>
      </trkpt>
      <trkpt lat="45.3483" lon="6.7405">
        <ele>3144.61</ele>
        <time>2010-08-04T10:26:58Z</time>
      </trkpt>
      <trkpt lat="45.34834" lon="6.74052">
        <ele>3143.17</ele>
        <time>2010-08-04T10:27:10Z</time>
      </trkpt>
      <trkpt lat="45.34836" lon="6.74053">
        <ele>3142.21</ele>
        <time>2010-08-04T10:27:22Z</time>
      </trkpt>
      <trkpt lat="45.34837" lon="6.74054">
        <ele>3141.73</ele>
        <time>2010-08-04T10:28:01Z</time>
      </trkpt>
      <trkpt lat="45.34837" lon="6.74054">
        <ele>3138.36</ele>
        <time>2010-08-04T10:28:05Z</time>
      </trkpt>
      <trkpt lat="45.34841" lon="6.74054">
        <ele>3139.32</ele>
        <time>2010-08-04T10:28:16Z</time>
      </trkpt>
      <trkpt lat="45.34841" lon="6.74053">
        <ele>3137.4</ele>
        <time>2010-08-04T10:28:21Z</time>
      </trkpt>
      <trkpt lat="45.34842" lon="6.74053">
        <ele>3138.36</ele>
        <time>2010-08-04T10:28:40Z</time>
      </trkpt>
      <trkpt lat="45.34842" lon="6.74054">
        <ele>3138.36</ele>
        <time>2010-08-04T10:29:11Z</time>
      </trkpt>
      <trkpt lat="45.34843" lon="6.74054">
        <ele>3136.44</ele>
        <time>2010-08-04T10:29:32Z</time>
      </trkpt>
      <trkpt lat="45.34844" lon="6.74053">
        <ele>3134.52</ele>
        <time>2010-08-04T10:31:07Z</time>
      </trkpt>
      <trkpt lat="45.34845" lon="6.74049">
        <ele>3132.11</ele>
        <time>2010-08-04T10:31:18Z</time>
      </trkpt>
      <trkpt lat="45.34846" lon="6.74049">
        <ele>3130.19</ele>
        <time>2010-08-04T10:31:31Z</time>
      </trkpt>
      <trkpt lat="45.34847" lon="6.74048">
        <ele>3130.19</ele>
        <time>2010-08-04T10:31:57Z</time>
      </trkpt>
      <trkpt lat="45.34853" lon="6.74052">
        <ele>3127.31</ele>
        <time>2010-08-04T10:32:09Z</time>
      </trkpt>
      <trkpt lat="45.34856" lon="6.74052">
        <ele>3123.94</ele>
        <time>2010-08-04T10:32:54Z</time>
      </trkpt>
      <trkpt lat="45.34856" lon="6.74052">
        <ele>3123.46</ele>
        <time>2010-08-04T10:32:58Z</time>
      </trkpt>
      <trkpt lat="45.3486" lon="6.74046">
        <ele>3122.98</ele>
        <time>2010-08-04T10:37:38Z</time>
      </trkpt>
      <trkpt lat="45.34858" lon="6.74045">
        <ele>3167.68</ele>
        <time>2010-08-04T10:52:04Z</time>
      </trkpt>
      <trkpt lat="45.34858" lon="6.74045">
        <ele>3104.71</ele>
        <time>2010-08-04T10:52:06Z</time>
      </trkpt>
      <trkpt lat="45.34892" lon="6.74012">
        <ele>3105.2</ele>
        <time>2010-08-04T10:52:16Z</time>
      </trkpt>
      <trkpt lat="45.34885" lon="6.74012">
        <ele>3096.06</ele>
        <time>2010-08-04T10:52:21Z</time>
      </trkpt>
      <trkpt lat="45.34883" lon="6.74014">
        <ele>3105.2</ele>
        <time>2010-08-04T10:52:22Z</time>
      </trkpt>
      <trkpt lat="45.34879" lon="6.74014">
        <ele>3107.12</ele>
        <time>2010-08-04T10:52:27Z</time>
      </trkpt>
      <trkpt lat="45.34877" lon="6.74014">
        <ele>3104.71</ele>
        <time>2010-08-04T10:52:30Z</time>
      </trkpt>
      <trkpt lat="45.34865" lon="6.74014">
        <ele>3107.6</ele>
        <time>2010-08-04T10:52:59Z</time>
      </trkpt>
      <trkpt lat="45.34864" lon="6.74015">
        <ele>3107.6</ele>
        <time>2010-08-04T10:53:27Z</time>
      </trkpt>
      <trkpt lat="45.34864" lon="6.74015">
        <ele>3107.6</ele>
        <time>2010-08-04T10:53:39Z</time>
      </trkpt>
      <trkpt lat="45.34864" lon="6.74014">
        <ele>3107.6</ele>
        <time>2010-08-04T10:54:01Z</time>
      </trkpt>
      <trkpt lat="45.34865" lon="6.74013">
        <ele>3104.71</ele>
        <time>2010-08-04T10:54:16Z</time>
      </trkpt>
      <trkpt lat="45.34866" lon="6.74013">
        <ele>3107.6</ele>
        <time>2010-08-04T10:54:39Z</time>
      </trkpt>
      <trkpt lat="45.34864" lon="6.74013">
        <ele>3107.12</ele>
        <time>2010-08-04T10:55:08Z</time>
      </trkpt>
      <trkpt lat="45.34864" lon="6.74014">
        <ele>3107.12</ele>
        <time>2010-08-04T10:56:43Z</time>
      </trkpt>
      <trkpt lat="45.34864" lon="6.74015">
        <ele>3108.08</ele>
        <time>2010-08-04T10:56:58Z</time>
      </trkpt>
      <trkpt lat="45.34864" lon="6.74015">
        <ele>3108.56</ele>
        <time>2010-08-04T10:57:44Z</time>
      </trkpt>
      <trkpt lat="45.34866" lon="6.74014">
        <ele>3106.16</ele>
        <time>2010-08-04T10:58:23Z</time>
      </trkpt>
      <trkpt lat="45.34866" lon="6.74015">
        <ele>3107.12</ele>
        <time>2010-08-04T10:58:59Z</time>
      </trkpt>
      <trkpt lat="45.34866" lon="6.74015">
        <ele>3106.16</ele>
        <time>2010-08-04T11:00:20Z</time>
      </trkpt>
      <trkpt lat="45.34865" lon="6.74016">
        <ele>3106.64</ele>
        <time>2010-08-04T11:01:27Z</time>
      </trkpt>
      <trkpt lat="45.34867" lon="6.74021">
        <ele>3105.68</ele>
        <time>2010-08-04T11:02:25Z</time>
      </trkpt>
      <trkpt lat="45.34871" lon="6.74026">
        <ele>3103.75</ele>
        <time>2010-08-04T11:02:39Z</time>
      </trkpt>
      <trkpt lat="45.34876" lon="6.74028">
        <ele>3101.83</ele>
        <time>2010-08-04T11:02:51Z</time>
      </trkpt>
      <trkpt lat="45.3488" lon="6.74031">
        <ele>3098.95</ele>
        <time>2010-08-04T11:03:03Z</time>
      </trkpt>
      <trkpt lat="45.34883" lon="6.74032">
        <ele>3097.02</ele>
        <time>2010-08-04T11:03:08Z</time>
      </trkpt>
      <trkpt lat="45.34889" lon="6.74029">
        <ele>3093.66</ele>
        <time>2010-08-04T11:03:18Z</time>
      </trkpt>
      <trkpt lat="45.34894" lon="6.74027">
        <ele>3088.37</ele>
        <time>2010-08-04T11:03:27Z</time>
      </trkpt>
      <trkpt lat="45.34895" lon="6.74027">
        <ele>3091.26</ele>
        <time>2010-08-04T11:03:28Z</time>
      </trkpt>
      <trkpt lat="45.34899" lon="6.74025">
        <ele>3086.93</ele>
        <time>2010-08-04T11:03:34Z</time>
      </trkpt>
      <trkpt lat="45.34903" lon="6.74023">
        <ele>3083.09</ele>
        <time>2010-08-04T11:03:38Z</time>
      </trkpt>
      <trkpt lat="45.3491" lon="6.7402">
        <ele>3079.24</ele>
        <time>2010-08-04T11:03:45Z</time>
      </trkpt>
      <trkpt lat="45.34911" lon="6.74019">
        <ele>3079.72</ele>
        <time>2010-08-04T11:03:46Z</time>
      </trkpt>
      <trkpt lat="45.34911" lon="6.74018">
        <ele>3078.28</ele>
        <time>2010-08-04T11:03:47Z</time>
      </trkpt>
      <trkpt lat="45.3491" lon="6.74013">
        <ele>3074.91</ele>
        <time>2010-08-04T11:03:51Z</time>
      </trkpt>
      <trkpt lat="45.34911" lon="6.74012">
        <ele>3075.4</ele>
        <time>2010-08-04T11:03:52Z</time>
      </trkpt>
      <trkpt lat="45.3491" lon="6.7401">
        <ele>3075.88</ele>
        <time>2010-08-04T11:03:53Z</time>
      </trkpt>
      <trkpt lat="45.34913" lon="6.74006">
        <ele>3071.55</ele>
        <time>2010-08-04T11:03:56Z</time>
      </trkpt>
      <trkpt lat="45.34915" lon="6.74005">
        <ele>3071.55</ele>
        <time>2010-08-04T11:03:57Z</time>
      </trkpt>
      <trkpt lat="45.34917" lon="6.74004">
        <ele>3068.67</ele>
        <time>2010-08-04T11:03:59Z</time>
      </trkpt>
      <trkpt lat="45.34924" lon="6.74001">
        <ele>3065.78</ele>
        <time>2010-08-04T11:04:05Z</time>
      </trkpt>
      <trkpt lat="45.34928" lon="6.73999">
        <ele>3063.86</ele>
        <time>2010-08-04T11:04:09Z</time>
      </trkpt>
      <trkpt lat="45.3493" lon="6.73998">
        <ele>3061.46</ele>
        <time>2010-08-04T11:04:11Z</time>
      </trkpt>
      <trkpt lat="45.34932" lon="6.73991">
        <ele>3058.57</ele>
        <time>2010-08-04T11:04:15Z</time>
      </trkpt>
      <trkpt lat="45.34933" lon="6.7399">
        <ele>3058.09</ele>
        <time>2010-08-04T11:04:16Z</time>
      </trkpt>
      <trkpt lat="45.3494" lon="6.7398">
        <ele>3051.84</ele>
        <time>2010-08-04T11:04:23Z</time>
      </trkpt>
      <trkpt lat="45.34941" lon="6.73977">
        <ele>3048.48</ele>
        <time>2010-08-04T11:04:25Z</time>
      </trkpt>
      <trkpt lat="45.34946" lon="6.73972">
        <ele>3049.44</ele>
        <time>2010-08-04T11:04:29Z</time>
      </trkpt>
      <trkpt lat="45.34951" lon="6.73969">
        <ele>3045.11</ele>
        <time>2010-08-04T11:04:32Z</time>
      </trkpt>
      <trkpt lat="45.34958" lon="6.73964">
        <ele>3040.31</ele>
        <time>2010-08-04T11:04:36Z</time>
      </trkpt>
      <trkpt lat="45.34959" lon="6.73963">
        <ele>3042.23</ele>
        <time>2010-08-04T11:04:37Z</time>
      </trkpt>
      <trkpt lat="45.34964" lon="6.7396">
        <ele>3041.27</ele>
        <time>2010-08-04T11:04:40Z</time>
      </trkpt>
      <trkpt lat="45.34966" lon="6.73958">
        <ele>3039.35</ele>
        <time>2010-08-04T11:04:42Z</time>
      </trkpt>
      <trkpt lat="45.34969" lon="6.73954">
        <ele>3037.9</ele>
        <time>2010-08-04T11:04:45Z</time>
      </trkpt>
      <trkpt lat="45.3497" lon="6.73952">
        <ele>3035.98</ele>
        <time>2010-08-04T11:04:47Z</time>
      </trkpt>
      <trkpt lat="45.34974" lon="6.7395">
        <ele>3034.06</ele>
        <time>2010-08-04T11:04:51Z</time>
      </trkpt>
      <trkpt lat="45.34975" lon="6.73949">
        <ele>3033.1</ele>
        <time>2010-08-04T11:04:53Z</time>
      </trkpt>
      <trkpt lat="45.34977" lon="6.7395">
        <ele>3034.06</ele>
        <time>2010-08-04T11:05:05Z</time>
      </trkpt>
      <trkpt lat="45.34977" lon="6.7395">
        <ele>3033.1</ele>
        <time>2010-08-04T11:05:38Z</time>
      </trkpt>
      <trkpt lat="45.34976" lon="6.7395">
        <ele>3032.14</ele>
        <time>2010-08-04T11:06:42Z</time>
      </trkpt>
      <trkpt lat="45.34977" lon="6.73951">
        <ele>3027.33</ele>
        <time>2010-08-04T11:09:02Z</time>
      </trkpt>
      <trkpt lat="45.34977" lon="6.73951">
        <ele>3030.69</ele>
        <time>2010-08-04T11:09:03Z</time>
      </trkpt>
      <trkpt lat="45.34977" lon="6.73951">
        <ele>3032.14</ele>
        <time>2010-08-04T11:09:05Z</time>
      </trkpt>
      <trkpt lat="45.34976" lon="6.73952">
        <ele>3031.17</ele>
        <time>2010-08-04T11:11:00Z</time>
      </trkpt>
      <trkpt lat="45.34977" lon="6.73955">
        <ele>3030.21</ele>
        <time>2010-08-04T11:13:49Z</time>
      </trkpt>
      <trkpt lat="45.34977" lon="6.73954">
        <ele>3029.73</ele>
        <time>2010-08-04T11:14:37Z</time>
      </trkpt>
      <trkpt lat="45.34979" lon="6.73954">
        <ele>3028.77</ele>
        <time>2010-08-04T11:15:01Z</time>
      </trkpt>
      <trkpt lat="45.3498" lon="6.73954">
        <ele>3027.33</ele>
        <time>2010-08-04T11:15:31Z</time>
      </trkpt>
      <trkpt lat="45.34981" lon="6.73954">
        <ele>3027.81</ele>
        <time>2010-08-04T11:15:57Z</time>
      </trkpt>
      <trkpt lat="45.34988" lon="6.73952">
        <ele>3026.37</ele>
        <time>2010-08-04T11:16:09Z</time>
      </trkpt>
      <trkpt lat="45.34992" lon="6.73944">
        <ele>3025.89</ele>
        <time>2010-08-04T11:16:20Z</time>
      </trkpt>
      <trkpt lat="45.34994" lon="6.73941">
        <ele>3025.89</ele>
        <time>2010-08-04T11:16:30Z</time>
      </trkpt>
      <trkpt lat="45.34994" lon="6.73943">
        <ele>3026.37</ele>
        <time>2010-08-04T11:16:32Z</time>
      </trkpt>
      <trkpt lat="45.34996" lon="6.73949">
        <ele>3024.44</ele>
        <time>2010-08-04T11:16:39Z</time>
      </trkpt>
      <trkpt lat="45.35001" lon="6.73949">
        <ele>3021.56</ele>
        <time>2010-08-04T11:16:44Z</time>
      </trkpt>
      <trkpt lat="45.35008" lon="6.73953">
        <ele>3021.56</ele>
        <time>2010-08-04T11:16:51Z</time>
      </trkpt>
      <trkpt lat="45.35016" lon="6.73945">
        <ele>3019.64</ele>
        <time>2010-08-04T11:17:02Z</time>
      </trkpt>
      <trkpt lat="45.35018" lon="6.73942">
        <ele>3017.72</ele>
        <time>2010-08-04T11:17:11Z</time>
      </trkpt>
      <trkpt lat="45.35018" lon="6.7394">
        <ele>3017.23</ele>
        <time>2010-08-04T11:17:13Z</time>
      </trkpt>
      <trkpt lat="45.35026" lon="6.73942">
        <ele>3014.35</ele>
        <time>2010-08-04T11:17:24Z</time>
      </trkpt>
      <trkpt lat="45.35027" lon="6.73937">
        <ele>3012.43</ele>
        <time>2010-08-04T11:17:37Z</time>
      </trkpt>
      <trkpt lat="45.35032" lon="6.73935">
        <ele>3011.95</ele>
        <time>2010-08-04T11:18:07Z</time>
      </trkpt>
      <trkpt lat="45.35032" lon="6.73931">
        <ele>3007.62</ele>
        <time>2010-08-04T11:18:18Z</time>
      </trkpt>
      <trkpt lat="45.35032" lon="6.73929">
        <ele>3007.62</ele>
        <time>2010-08-04T11:18:36Z</time>
      </trkpt>
      <trkpt lat="45.35035" lon="6.73927">
        <ele>3005.22</ele>
        <time>2010-08-04T11:18:43Z</time>
      </trkpt>
      <trkpt lat="45.35036" lon="6.73922">
        <ele>3003.3</ele>
        <time>2010-08-04T11:18:54Z</time>
      </trkpt>
      <trkpt lat="45.35032" lon="6.73913">
        <ele>3000.89</ele>
        <time>2010-08-04T11:19:08Z</time>
      </trkpt>
      <trkpt lat="45.35031" lon="6.73912">
        <ele>2999.45</ele>
        <time>2010-08-04T11:19:11Z</time>
      </trkpt>
      <trkpt lat="45.35027" lon="6.73903">
        <ele>2998.01</ele>
        <time>2010-08-04T11:19:28Z</time>
      </trkpt>
      <trkpt lat="45.35025" lon="6.73896">
        <ele>2996.57</ele>
        <time>2010-08-04T11:19:39Z</time>
      </trkpt>
      <trkpt lat="45.35023" lon="6.73888">
        <ele>2993.68</ele>
        <time>2010-08-04T11:19:49Z</time>
      </trkpt>
      <trkpt lat="45.35018" lon="6.73878">
        <ele>2990.8</ele>
        <time>2010-08-04T11:20:02Z</time>
      </trkpt>
      <trkpt lat="45.35017" lon="6.73876">
        <ele>2991.28</ele>
        <time>2010-08-04T11:20:04Z</time>
      </trkpt>
      <trkpt lat="45.35017" lon="6.73873">
        <ele>2990.8</ele>
        <time>2010-08-04T11:20:06Z</time>
      </trkpt>
      <trkpt lat="45.35013" lon="6.73862">
        <ele>2988.4</ele>
        <time>2010-08-04T11:20:17Z</time>
      </trkpt>
      <trkpt lat="45.35013" lon="6.7386">
        <ele>2986.95</ele>
        <time>2010-08-04T11:20:31Z</time>
      </trkpt>
      <trkpt lat="45.35012" lon="6.73858">
        <ele>2987.43</ele>
        <time>2010-08-04T11:20:33Z</time>
      </trkpt>
      <trkpt lat="45.35012" lon="6.73854">
        <ele>2985.03</ele>
        <time>2010-08-04T11:20:36Z</time>
      </trkpt>
      <trkpt lat="45.35012" lon="6.73848">
        <ele>2983.11</ele>
        <time>2010-08-04T11:20:46Z</time>
      </trkpt>
      <trkpt lat="45.35014" lon="6.73837">
        <ele>2980.71</ele>
        <time>2010-08-04T11:20:57Z</time>
      </trkpt>
      <trkpt lat="45.35011" lon="6.73828">
        <ele>2979.74</ele>
        <time>2010-08-04T11:21:06Z</time>
      </trkpt>
      <trkpt lat="45.35011" lon="6.73825">
        <ele>2979.26</ele>
        <time>2010-08-04T11:21:08Z</time>
      </trkpt>
      <trkpt lat="45.35012" lon="6.7382">
        <ele>2977.34</ele>
        <time>2010-08-04T11:21:15Z</time>
      </trkpt>
      <trkpt lat="45.35012" lon="6.73811">
        <ele>2975.9</ele>
        <time>2010-08-04T11:21:25Z</time>
      </trkpt>
      <trkpt lat="45.3501" lon="6.73808">
        <ele>2973.98</ele>
        <time>2010-08-04T11:21:29Z</time>
      </trkpt>
      <trkpt lat="45.35011" lon="6.73803">
        <ele>2971.09</ele>
        <time>2010-08-04T11:21:35Z</time>
      </trkpt>
      <trkpt lat="45.35011" lon="6.73802">
        <ele>2971.57</ele>
        <time>2010-08-04T11:21:36Z</time>
      </trkpt>
      <trkpt lat="45.35009" lon="6.73798">
        <ele>2970.61</ele>
        <time>2010-08-04T11:21:43Z</time>
      </trkpt>
      <trkpt lat="45.3501" lon="6.73795">
        <ele>2968.69</ele>
        <time>2010-08-04T11:21:47Z</time>
      </trkpt>
      <trkpt lat="45.35013" lon="6.73789">
        <ele>2965.8</ele>
        <time>2010-08-04T11:21:57Z</time>
      </trkpt>
      <trkpt lat="45.35008" lon="6.73783">
        <ele>2963.4</ele>
        <time>2010-08-04T11:22:12Z</time>
      </trkpt>
      <trkpt lat="45.35007" lon="6.73778">
        <ele>2961</ele>
        <time>2010-08-04T11:22:24Z</time>
      </trkpt>
      <trkpt lat="45.35005" lon="6.73772">
        <ele>2959.56</ele>
        <time>2010-08-04T11:22:33Z</time>
      </trkpt>
      <trkpt lat="45.35005" lon="6.73766">
        <ele>2956.67</ele>
        <time>2010-08-04T11:22:41Z</time>
      </trkpt>
      <trkpt lat="45.35004" lon="6.73761">
        <ele>2953.79</ele>
        <time>2010-08-04T11:22:51Z</time>
      </trkpt>
      <trkpt lat="45.35003" lon="6.73755">
        <ele>2952.35</ele>
        <time>2010-08-04T11:22:59Z</time>
      </trkpt>
      <trkpt lat="45.35005" lon="6.73744">
        <ele>2948.98</ele>
        <time>2010-08-04T11:23:10Z</time>
      </trkpt>
      <trkpt lat="45.35007" lon="6.73738">
        <ele>2946.1</ele>
        <time>2010-08-04T11:23:18Z</time>
      </trkpt>
      <trkpt lat="45.35007" lon="6.73734">
        <ele>2944.66</ele>
        <time>2010-08-04T11:23:33Z</time>
      </trkpt>
      <trkpt lat="45.35006" lon="6.73734">
        <ele>2943.21</ele>
        <time>2010-08-04T11:23:36Z</time>
      </trkpt>
      <trkpt lat="45.35005" lon="6.73729">
        <ele>2939.85</ele>
        <time>2010-08-04T11:23:48Z</time>
      </trkpt>
      <trkpt lat="45.35008" lon="6.73725">
        <ele>2937.93</ele>
        <time>2010-08-04T11:24:00Z</time>
      </trkpt>
      <trkpt lat="45.35007" lon="6.73717">
        <ele>2935.52</ele>
        <time>2010-08-04T11:24:12Z</time>
      </trkpt>
      <trkpt lat="45.35008" lon="6.73716">
        <ele>2935.04</ele>
        <time>2010-08-04T11:24:14Z</time>
      </trkpt>
      <trkpt lat="45.35016" lon="6.73713">
        <ele>2932.16</ele>
        <time>2010-08-04T11:24:25Z</time>
      </trkpt>
      <trkpt lat="45.35016" lon="6.73711">
        <ele>2929.27</ele>
        <time>2010-08-04T11:24:41Z</time>
      </trkpt>
      <trkpt lat="45.35015" lon="6.73709">
        <ele>2927.35</ele>
        <time>2010-08-04T11:24:52Z</time>
      </trkpt>
      <trkpt lat="45.35019" lon="6.73711">
        <ele>2926.39</ele>
        <time>2010-08-04T11:24:58Z</time>
      </trkpt>
      <trkpt lat="45.3502" lon="6.7371">
        <ele>2926.39</ele>
        <time>2010-08-04T11:25:05Z</time>
      </trkpt>
      <trkpt lat="45.35017" lon="6.73705">
        <ele>2922.54</ele>
        <time>2010-08-04T11:25:15Z</time>
      </trkpt>
      <trkpt lat="45.35018" lon="6.73702">
        <ele>2920.14</ele>
        <time>2010-08-04T11:25:28Z</time>
      </trkpt>
      <trkpt lat="45.35018" lon="6.73702">
        <ele>2920.62</ele>
        <time>2010-08-04T11:25:29Z</time>
      </trkpt>
      <trkpt lat="45.35021" lon="6.73699">
        <ele>2918.22</ele>
        <time>2010-08-04T11:25:41Z</time>
      </trkpt>
      <trkpt lat="45.35022" lon="6.73698">
        <ele>2917.26</ele>
        <time>2010-08-04T11:25:46Z</time>
      </trkpt>
      <trkpt lat="45.35022" lon="6.73697">
        <ele>2915.34</ele>
        <time>2010-08-04T11:25:48Z</time>
      </trkpt>
      <trkpt lat="45.35023" lon="6.73696">
        <ele>2916.78</ele>
        <time>2010-08-04T11:25:50Z</time>
      </trkpt>
      <trkpt lat="45.35024" lon="6.73694">
        <ele>2914.85</ele>
        <time>2010-08-04T11:25:52Z</time>
      </trkpt>
      <trkpt lat="45.35026" lon="6.7369">
        <ele>2913.41</ele>
        <time>2010-08-04T11:25:59Z</time>
      </trkpt>
      <trkpt lat="45.35027" lon="6.73687">
        <ele>2911.97</ele>
        <time>2010-08-04T11:26:06Z</time>
      </trkpt>
      <trkpt lat="45.35031" lon="6.73681">
        <ele>2909.09</ele>
        <time>2010-08-04T11:26:16Z</time>
      </trkpt>
      <trkpt lat="45.35031" lon="6.73677">
        <ele>2905.72</ele>
        <time>2010-08-04T11:26:20Z</time>
      </trkpt>
      <trkpt lat="45.35031" lon="6.73677">
        <ele>2906.68</ele>
        <time>2010-08-04T11:26:21Z</time>
      </trkpt>
      <trkpt lat="45.35037" lon="6.73672">
        <ele>2903.8</ele>
        <time>2010-08-04T11:26:30Z</time>
      </trkpt>
      <trkpt lat="45.35036" lon="6.73664">
        <ele>2901.88</ele>
        <time>2010-08-04T11:26:40Z</time>
      </trkpt>
      <trkpt lat="45.35038" lon="6.73662">
        <ele>2900.92</ele>
        <time>2010-08-04T11:26:43Z</time>
      </trkpt>
      <trkpt lat="45.35039" lon="6.73661">
        <ele>2895.63</ele>
        <time>2010-08-04T11:26:45Z</time>
      </trkpt>
      <trkpt lat="45.3504" lon="6.7366">
        <ele>2896.11</ele>
        <time>2010-08-04T11:26:46Z</time>
      </trkpt>
      <trkpt lat="45.35041" lon="6.7366">
        <ele>2899.95</ele>
        <time>2010-08-04T11:26:47Z</time>
      </trkpt>
      <trkpt lat="45.35041" lon="6.73659">
        <ele>2899.95</ele>
        <time>2010-08-04T11:26:48Z</time>
      </trkpt>
      <trkpt lat="45.35039" lon="6.73657">
        <ele>2897.07</ele>
        <time>2010-08-04T11:26:50Z</time>
      </trkpt>
      <trkpt lat="45.3504" lon="6.73652">
        <ele>2894.19</ele>
        <time>2010-08-04T11:26:57Z</time>
      </trkpt>
      <trkpt lat="45.35041" lon="6.73652">
        <ele>2894.67</ele>
        <time>2010-08-04T11:26:58Z</time>
      </trkpt>
      <trkpt lat="45.35041" lon="6.7365">
        <ele>2892.26</ele>
        <time>2010-08-04T11:27:03Z</time>
      </trkpt>
      <trkpt lat="45.35041" lon="6.73646">
        <ele>2891.78</ele>
        <time>2010-08-04T11:27:06Z</time>
      </trkpt>
      <trkpt lat="45.35041" lon="6.73639">
        <ele>2889.38</ele>
        <time>2010-08-04T11:27:14Z</time>
      </trkpt>
      <trkpt lat="45.35045" lon="6.73635">
        <ele>2886.5</ele>
        <time>2010-08-04T11:27:24Z</time>
      </trkpt>
      <trkpt lat="45.35045" lon="6.73634">
        <ele>2885.53</ele>
        <time>2010-08-04T11:27:26Z</time>
      </trkpt>
      <trkpt lat="45.35045" lon="6.73631">
        <ele>2883.61</ele>
        <time>2010-08-04T11:27:45Z</time>
      </trkpt>
      <trkpt lat="45.35047" lon="6.73625">
        <ele>2881.21</ele>
        <time>2010-08-04T11:27:51Z</time>
      </trkpt>
      <trkpt lat="45.35051" lon="6.73622">
        <ele>2877.84</ele>
        <time>2010-08-04T11:27:58Z</time>
      </trkpt>
      <trkpt lat="45.35052" lon="6.73622">
        <ele>2877.84</ele>
        <time>2010-08-04T11:27:59Z</time>
      </trkpt>
      <trkpt lat="45.35053" lon="6.73621">
        <ele>2876.88</ele>
        <time>2010-08-04T11:28:01Z</time>
      </trkpt>
      <trkpt lat="45.35053" lon="6.73617">
        <ele>2877.84</ele>
        <time>2010-08-04T11:28:05Z</time>
      </trkpt>
      <trkpt lat="45.35054" lon="6.73616">
        <ele>2875.92</ele>
        <time>2010-08-04T11:28:07Z</time>
      </trkpt>
      <trkpt lat="45.35053" lon="6.73613">
        <ele>2875.92</ele>
        <time>2010-08-04T11:28:12Z</time>
      </trkpt>
      <trkpt lat="45.35059" lon="6.73608">
        <ele>2872.56</ele>
        <time>2010-08-04T11:28:23Z</time>
      </trkpt>
      <trkpt lat="45.35057" lon="6.73602">
        <ele>2869.67</ele>
        <time>2010-08-04T11:28:33Z</time>
      </trkpt>
      <trkpt lat="45.35058" lon="6.73602">
        <ele>2869.67</ele>
        <time>2010-08-04T11:28:34Z</time>
      </trkpt>
      <trkpt lat="45.35059" lon="6.73598">
        <ele>2867.75</ele>
        <time>2010-08-04T11:28:41Z</time>
      </trkpt>
      <trkpt lat="45.35057" lon="6.73587">
        <ele>2864.87</ele>
        <time>2010-08-04T11:28:52Z</time>
      </trkpt>
      <trkpt lat="45.35059" lon="6.73586">
        <ele>2863.42</ele>
        <time>2010-08-04T11:28:54Z</time>
      </trkpt>
      <trkpt lat="45.35059" lon="6.73585">
        <ele>2864.39</ele>
        <time>2010-08-04T11:28:56Z</time>
      </trkpt>
      <trkpt lat="45.3506" lon="6.73582">
        <ele>2862.46</ele>
        <time>2010-08-04T11:28:58Z</time>
      </trkpt>
      <trkpt lat="45.35064" lon="6.73574">
        <ele>2860.06</ele>
        <time>2010-08-04T11:29:08Z</time>
      </trkpt>
      <trkpt lat="45.35063" lon="6.73572">
        <ele>2858.14</ele>
        <time>2010-08-04T11:29:11Z</time>
      </trkpt>
      <trkpt lat="45.35064" lon="6.73569">
        <ele>2855.73</ele>
        <time>2010-08-04T11:29:14Z</time>
      </trkpt>
      <trkpt lat="45.35064" lon="6.73561">
        <ele>2852.85</ele>
        <time>2010-08-04T11:29:21Z</time>
      </trkpt>
      <trkpt lat="45.35063" lon="6.73561">
        <ele>2854.29</ele>
        <time>2010-08-04T11:29:22Z</time>
      </trkpt>
      <trkpt lat="45.35064" lon="6.73555">
        <ele>2849.97</ele>
        <time>2010-08-04T11:29:31Z</time>
      </trkpt>
      <trkpt lat="45.35061" lon="6.73551">
        <ele>2851.41</ele>
        <time>2010-08-04T11:29:35Z</time>
      </trkpt>
      <trkpt lat="45.35066" lon="6.73542">
        <ele>2847.56</ele>
        <time>2010-08-04T11:29:47Z</time>
      </trkpt>
      <trkpt lat="45.35064" lon="6.73539">
        <ele>2846.6</ele>
        <time>2010-08-04T11:29:50Z</time>
      </trkpt>
      <trkpt lat="45.35058" lon="6.73533">
        <ele>2844.68</ele>
        <time>2010-08-04T11:29:58Z</time>
      </trkpt>
      <trkpt lat="45.35054" lon="6.7353">
        <ele>2842.76</ele>
        <time>2010-08-04T11:30:08Z</time>
      </trkpt>
      <trkpt lat="45.35048" lon="6.73525">
        <ele>2841.31</ele>
        <time>2010-08-04T11:30:19Z</time>
      </trkpt>
      <trkpt lat="45.35048" lon="6.73524">
        <ele>2842.28</ele>
        <time>2010-08-04T11:30:20Z</time>
      </trkpt>
      <trkpt lat="45.35049" lon="6.7352">
        <ele>2840.35</ele>
        <time>2010-08-04T11:30:23Z</time>
      </trkpt>
      <trkpt lat="45.35048" lon="6.73515">
        <ele>2838.43</ele>
        <time>2010-08-04T11:30:27Z</time>
      </trkpt>
      <trkpt lat="45.35046" lon="6.73513">
        <ele>2839.39</ele>
        <time>2010-08-04T11:30:29Z</time>
      </trkpt>
      <trkpt lat="45.35044" lon="6.73505">
        <ele>2836.51</ele>
        <time>2010-08-04T11:30:35Z</time>
      </trkpt>
      <trkpt lat="45.35043" lon="6.73504">
        <ele>2836.51</ele>
        <time>2010-08-04T11:30:36Z</time>
      </trkpt>
      <trkpt lat="45.35042" lon="6.73499">
        <ele>2836.03</ele>
        <time>2010-08-04T11:30:40Z</time>
      </trkpt>
      <trkpt lat="45.35041" lon="6.73496">
        <ele>2833.62</ele>
        <time>2010-08-04T11:30:44Z</time>
      </trkpt>
      <trkpt lat="45.35039" lon="6.7349">
        <ele>2830.26</ele>
        <time>2010-08-04T11:30:51Z</time>
      </trkpt>
      <trkpt lat="45.35039" lon="6.73489">
        <ele>2830.74</ele>
        <time>2010-08-04T11:30:52Z</time>
      </trkpt>
      <trkpt lat="45.35038" lon="6.73487">
        <ele>2831.22</ele>
        <time>2010-08-04T11:30:54Z</time>
      </trkpt>
      <trkpt lat="45.35038" lon="6.73481">
        <ele>2826.41</ele>
        <time>2010-08-04T11:31:00Z</time>
      </trkpt>
      <trkpt lat="45.35036" lon="6.73471">
        <ele>2824.01</ele>
        <time>2010-08-04T11:31:10Z</time>
      </trkpt>
      <trkpt lat="45.35033" lon="6.73467">
        <ele>2823.05</ele>
        <time>2010-08-04T11:31:15Z</time>
      </trkpt>
      <trkpt lat="45.35025" lon="6.7346">
        <ele>2819.2</ele>
        <time>2010-08-04T11:31:24Z</time>
      </trkpt>
      <trkpt lat="45.35024" lon="6.73459">
        <ele>2818.72</ele>
        <time>2010-08-04T11:31:25Z</time>
      </trkpt>
      <trkpt lat="45.3502" lon="6.73456">
        <ele>2817.28</ele>
        <time>2010-08-04T11:31:32Z</time>
      </trkpt>
      <trkpt lat="45.35019" lon="6.73452">
        <ele>2815.84</ele>
        <time>2010-08-04T11:31:35Z</time>
      </trkpt>
      <trkpt lat="45.35018" lon="6.73448">
        <ele>2814.88</ele>
        <time>2010-08-04T11:31:38Z</time>
      </trkpt>
      <trkpt lat="45.35016" lon="6.73445">
        <ele>2815.36</ele>
        <time>2010-08-04T11:31:42Z</time>
      </trkpt>
      <trkpt lat="45.35016" lon="6.73441">
        <ele>2812.96</ele>
        <time>2010-08-04T11:31:46Z</time>
      </trkpt>
      <trkpt lat="45.35015" lon="6.7344">
        <ele>2813.44</ele>
        <time>2010-08-04T11:31:48Z</time>
      </trkpt>
      <trkpt lat="45.35012" lon="6.73436">
        <ele>2811.99</ele>
        <time>2010-08-04T11:31:54Z</time>
      </trkpt>
      <trkpt lat="45.35014" lon="6.73427">
        <ele>2808.63</ele>
        <time>2010-08-04T11:32:02Z</time>
      </trkpt>
      <trkpt lat="45.35017" lon="6.73424">
        <ele>2807.67</ele>
        <time>2010-08-04T11:32:06Z</time>
      </trkpt>
      <trkpt lat="45.35016" lon="6.73417">
        <ele>2806.23</ele>
        <time>2010-08-04T11:32:17Z</time>
      </trkpt>
      <trkpt lat="45.35019" lon="6.73414">
        <ele>2802.38</ele>
        <time>2010-08-04T11:32:23Z</time>
      </trkpt>
      <trkpt lat="45.3502" lon="6.73407">
        <ele>2802.38</ele>
        <time>2010-08-04T11:32:30Z</time>
      </trkpt>
      <trkpt lat="45.3502" lon="6.734">
        <ele>2798.54</ele>
        <time>2010-08-04T11:32:34Z</time>
      </trkpt>
      <trkpt lat="45.3502" lon="6.73399">
        <ele>2799.02</ele>
        <time>2010-08-04T11:32:35Z</time>
      </trkpt>
      <trkpt lat="45.3502" lon="6.7339">
        <ele>2797.09</ele>
        <time>2010-08-04T11:32:45Z</time>
      </trkpt>
      <trkpt lat="45.35019" lon="6.73388">
        <ele>2797.57</ele>
        <time>2010-08-04T11:32:47Z</time>
      </trkpt>
      <trkpt lat="45.35015" lon="6.73381">
        <ele>2794.21</ele>
        <time>2010-08-04T11:32:53Z</time>
      </trkpt>
      <trkpt lat="45.35014" lon="6.7338">
        <ele>2793.25</ele>
        <time>2010-08-04T11:32:55Z</time>
      </trkpt>
      <trkpt lat="45.35012" lon="6.73378">
        <ele>2791.81</ele>
        <time>2010-08-04T11:32:58Z</time>
      </trkpt>
      <trkpt lat="45.3501" lon="6.73377">
        <ele>2792.77</ele>
        <time>2010-08-04T11:33:00Z</time>
      </trkpt>
      <trkpt lat="45.35007" lon="6.73372">
        <ele>2788.92</ele>
        <time>2010-08-04T11:33:08Z</time>
      </trkpt>
      <trkpt lat="45.35003" lon="6.73367">
        <ele>2787.96</ele>
        <time>2010-08-04T11:33:17Z</time>
      </trkpt>
      <trkpt lat="45.35002" lon="6.73365">
        <ele>2785.08</ele>
        <time>2010-08-04T11:33:19Z</time>
      </trkpt>
      <trkpt lat="45.34998" lon="6.73363">
        <ele>2786.04</ele>
        <time>2010-08-04T11:33:23Z</time>
      </trkpt>
      <trkpt lat="45.34996" lon="6.7336">
        <ele>2782.67</ele>
        <time>2010-08-04T11:33:26Z</time>
      </trkpt>
      <trkpt lat="45.34995" lon="6.73359">
        <ele>2783.15</ele>
        <time>2010-08-04T11:33:28Z</time>
      </trkpt>
      <trkpt lat="45.34991" lon="6.73358">
        <ele>2783.15</ele>
        <time>2010-08-04T11:33:32Z</time>
      </trkpt>
      <trkpt lat="45.34988" lon="6.73356">
        <ele>2781.71</ele>
        <time>2010-08-04T11:33:36Z</time>
      </trkpt>
      <trkpt lat="45.34988" lon="6.73349">
        <ele>2776.91</ele>
        <time>2010-08-04T11:33:43Z</time>
      </trkpt>
      <trkpt lat="45.34988" lon="6.73348">
        <ele>2779.79</ele>
        <time>2010-08-04T11:33:44Z</time>
      </trkpt>
      <trkpt lat="45.34987" lon="6.73344">
        <ele>2778.83</ele>
        <time>2010-08-04T11:33:48Z</time>
      </trkpt>
      <trkpt lat="45.34981" lon="6.73339">
        <ele>2775.46</ele>
        <time>2010-08-04T11:33:58Z</time>
      </trkpt>
      <trkpt lat="45.3498" lon="6.73337">
        <ele>2774.5</ele>
        <time>2010-08-04T11:34:00Z</time>
      </trkpt>
      <trkpt lat="45.34982" lon="6.73332">
        <ele>2772.58</ele>
        <time>2010-08-04T11:34:05Z</time>
      </trkpt>
      <trkpt lat="45.34981" lon="6.7333">
        <ele>2774.02</ele>
        <time>2010-08-04T11:34:08Z</time>
      </trkpt>
      <trkpt lat="45.34979" lon="6.73327">
        <ele>2772.1</ele>
        <time>2010-08-04T11:34:12Z</time>
      </trkpt>
      <trkpt lat="45.3498" lon="6.73322">
        <ele>2769.7</ele>
        <time>2010-08-04T11:34:17Z</time>
      </trkpt>
      <trkpt lat="45.34978" lon="6.73311">
        <ele>2767.77</ele>
        <time>2010-08-04T11:34:26Z</time>
      </trkpt>
      <trkpt lat="45.34978" lon="6.7331">
        <ele>2767.29</ele>
        <time>2010-08-04T11:34:27Z</time>
      </trkpt>
      <trkpt lat="45.34974" lon="6.73305">
        <ele>2764.89</ele>
        <time>2010-08-04T11:34:37Z</time>
      </trkpt>
      <trkpt lat="45.34972" lon="6.73306">
        <ele>2762.97</ele>
        <time>2010-08-04T11:34:39Z</time>
      </trkpt>
      <trkpt lat="45.3497" lon="6.73308">
        <ele>2763.93</ele>
        <time>2010-08-04T11:34:43Z</time>
      </trkpt>
      <trkpt lat="45.34965" lon="6.73306">
        <ele>2762</ele>
        <time>2010-08-04T11:34:50Z</time>
      </trkpt>
      <trkpt lat="45.34966" lon="6.73304">
        <ele>2763.45</ele>
        <time>2010-08-04T11:34:52Z</time>
      </trkpt>
      <trkpt lat="45.34967" lon="6.73298">
        <ele>2761.04</ele>
        <time>2010-08-04T11:34:56Z</time>
      </trkpt>
      <trkpt lat="45.34969" lon="6.73287">
        <ele>2756.72</ele>
        <time>2010-08-04T11:35:06Z</time>
      </trkpt>
      <trkpt lat="45.3497" lon="6.73286">
        <ele>2757.2</ele>
        <time>2010-08-04T11:35:07Z</time>
      </trkpt>
      <trkpt lat="45.3497" lon="6.7328">
        <ele>2754.31</ele>
        <time>2010-08-04T11:35:14Z</time>
      </trkpt>
      <trkpt lat="45.34972" lon="6.73271">
        <ele>2752.87</ele>
        <time>2010-08-04T11:35:26Z</time>
      </trkpt>
      <trkpt lat="45.34969" lon="6.73269">
        <ele>2750.47</ele>
        <time>2010-08-04T11:35:29Z</time>
      </trkpt>
      <trkpt lat="45.34967" lon="6.73263">
        <ele>2748.07</ele>
        <time>2010-08-04T11:35:36Z</time>
      </trkpt>
      <trkpt lat="45.34968" lon="6.73253">
        <ele>2744.22</ele>
        <time>2010-08-04T11:35:47Z</time>
      </trkpt>
      <trkpt lat="45.34969" lon="6.73252">
        <ele>2743.74</ele>
        <time>2010-08-04T11:35:49Z</time>
      </trkpt>
      <trkpt lat="45.34971" lon="6.73246">
        <ele>2743.26</ele>
        <time>2010-08-04T11:35:57Z</time>
      </trkpt>
      <trkpt lat="45.34969" lon="6.73244">
        <ele>2741.82</ele>
        <time>2010-08-04T11:36:00Z</time>
      </trkpt>
      <trkpt lat="45.3497" lon="6.7324">
        <ele>2740.38</ele>
        <time>2010-08-04T11:36:06Z</time>
      </trkpt>
      <trkpt lat="45.34968" lon="6.73239">
        <ele>2738.45</ele>
        <time>2010-08-04T11:36:10Z</time>
      </trkpt>
      <trkpt lat="45.34965" lon="6.73238">
        <ele>2737.97</ele>
        <time>2010-08-04T11:36:13Z</time>
      </trkpt>
      <trkpt lat="45.34965" lon="6.73233">
        <ele>2737.01</ele>
        <time>2010-08-04T11:36:18Z</time>
      </trkpt>
      <trkpt lat="45.34961" lon="6.73228">
        <ele>2734.61</ele>
        <time>2010-08-04T11:36:23Z</time>
      </trkpt>
      <trkpt lat="45.34961" lon="6.73227">
        <ele>2735.57</ele>
        <time>2010-08-04T11:36:24Z</time>
      </trkpt>
      <trkpt lat="45.34959" lon="6.73219">
        <ele>2731.72</ele>
        <time>2010-08-04T11:36:30Z</time>
      </trkpt>
      <trkpt lat="45.34957" lon="6.73216">
        <ele>2733.65</ele>
        <time>2010-08-04T11:36:33Z</time>
      </trkpt>
      <trkpt lat="45.34957" lon="6.73215">
        <ele>2730.28</ele>
        <time>2010-08-04T11:36:34Z</time>
      </trkpt>
      <trkpt lat="45.34955" lon="6.73208">
        <ele>2730.28</ele>
        <time>2010-08-04T11:36:41Z</time>
      </trkpt>
      <trkpt lat="45.34957" lon="6.73203">
        <ele>2726.44</ele>
        <time>2010-08-04T11:36:47Z</time>
      </trkpt>
      <trkpt lat="45.34957" lon="6.73203">
        <ele>2726.92</ele>
        <time>2010-08-04T11:36:48Z</time>
      </trkpt>
      <trkpt lat="45.34957" lon="6.73202">
        <ele>2728.84</ele>
        <time>2010-08-04T11:36:49Z</time>
      </trkpt>
      <trkpt lat="45.34958" lon="6.73198">
        <ele>2724.51</ele>
        <time>2010-08-04T11:36:53Z</time>
      </trkpt>
      <trkpt lat="45.34956" lon="6.73196">
        <ele>2725.96</ele>
        <time>2010-08-04T11:36:55Z</time>
      </trkpt>
      <trkpt lat="45.34955" lon="6.73194">
        <ele>2724.03</ele>
        <time>2010-08-04T11:36:59Z</time>
      </trkpt>
      <trkpt lat="45.34955" lon="6.73192">
        <ele>2724.03</ele>
        <time>2010-08-04T11:37:00Z</time>
      </trkpt>
      <trkpt lat="45.3496" lon="6.73184">
        <ele>2721.15</ele>
        <time>2010-08-04T11:37:09Z</time>
      </trkpt>
      <trkpt lat="45.3496" lon="6.73179">
        <ele>2719.71</ele>
        <time>2010-08-04T11:37:16Z</time>
      </trkpt>
      <trkpt lat="45.34961" lon="6.73171">
        <ele>2717.3</ele>
        <time>2010-08-04T11:37:22Z</time>
      </trkpt>
      <trkpt lat="45.34958" lon="6.73166">
        <ele>2715.38</ele>
        <time>2010-08-04T11:37:32Z</time>
      </trkpt>
      <trkpt lat="45.34956" lon="6.73165">
        <ele>2715.38</ele>
        <time>2010-08-04T11:37:37Z</time>
      </trkpt>
      <trkpt lat="45.34958" lon="6.73155">
        <ele>2711.06</ele>
        <time>2010-08-04T11:37:48Z</time>
      </trkpt>
      <trkpt lat="45.34956" lon="6.73155">
        <ele>2710.57</ele>
        <time>2010-08-04T11:37:52Z</time>
      </trkpt>
      <trkpt lat="45.34953" lon="6.73157">
        <ele>2709.13</ele>
        <time>2010-08-04T11:37:54Z</time>
      </trkpt>
      <trkpt lat="45.34953" lon="6.73153">
        <ele>2707.69</ele>
        <time>2010-08-04T11:37:59Z</time>
      </trkpt>
      <trkpt lat="45.34958" lon="6.73143">
        <ele>2705.29</ele>
        <time>2010-08-04T11:38:08Z</time>
      </trkpt>
      <trkpt lat="45.34961" lon="6.73137">
        <ele>2704.33</ele>
        <time>2010-08-04T11:38:15Z</time>
      </trkpt>
      <trkpt lat="45.34962" lon="6.73132">
        <ele>2702.88</ele>
        <time>2010-08-04T11:38:19Z</time>
      </trkpt>
      <trkpt lat="45.34961" lon="6.73128">
        <ele>2700.48</ele>
        <time>2010-08-04T11:38:22Z</time>
      </trkpt>
      <trkpt lat="45.3496" lon="6.73127">
        <ele>2701.44</ele>
        <time>2010-08-04T11:38:23Z</time>
      </trkpt>
      <trkpt lat="45.34961" lon="6.73124">
        <ele>2702.4</ele>
        <time>2010-08-04T11:38:25Z</time>
      </trkpt>
      <trkpt lat="45.3496" lon="6.73122">
        <ele>2699.52</ele>
        <time>2010-08-04T11:38:27Z</time>
      </trkpt>
      <trkpt lat="45.34959" lon="6.7312">
        <ele>2699.52</ele>
        <time>2010-08-04T11:38:28Z</time>
      </trkpt>
      <trkpt lat="45.34959" lon="6.73116">
        <ele>2697.12</ele>
        <time>2010-08-04T11:38:31Z</time>
      </trkpt>
      <trkpt lat="45.34959" lon="6.73114">
        <ele>2696.15</ele>
        <time>2010-08-04T11:38:33Z</time>
      </trkpt>
      <trkpt lat="45.34959" lon="6.73112">
        <ele>2696.15</ele>
        <time>2010-08-04T11:38:35Z</time>
      </trkpt>
      <trkpt lat="45.34961" lon="6.73108">
        <ele>2696.64</ele>
        <time>2010-08-04T11:38:38Z</time>
      </trkpt>
      <trkpt lat="45.34963" lon="6.73101">
        <ele>2694.23</ele>
        <time>2010-08-04T11:38:44Z</time>
      </trkpt>
      <trkpt lat="45.34963" lon="6.73093">
        <ele>2694.71</ele>
        <time>2010-08-04T11:38:49Z</time>
      </trkpt>
      <trkpt lat="45.34964" lon="6.73088">
        <ele>2691.35</ele>
        <time>2010-08-04T11:38:52Z</time>
      </trkpt>
      <trkpt lat="45.34965" lon="6.73087">
        <ele>2694.71</ele>
        <time>2010-08-04T11:38:53Z</time>
      </trkpt>
      <trkpt lat="45.34965" lon="6.73086">
        <ele>2694.23</ele>
        <time>2010-08-04T11:38:54Z</time>
      </trkpt>
      <trkpt lat="45.34967" lon="6.73083">
        <ele>2691.35</ele>
        <time>2010-08-04T11:38:58Z</time>
      </trkpt>
      <trkpt lat="45.34974" lon="6.73066">
        <ele>2687.5</ele>
        <time>2010-08-04T11:39:12Z</time>
      </trkpt>
      <trkpt lat="45.34976" lon="6.73056">
        <ele>2687.5</ele>
        <time>2010-08-04T11:39:19Z</time>
      </trkpt>
      <trkpt lat="45.34979" lon="6.73045">
        <ele>2684.62</ele>
        <time>2010-08-04T11:39:28Z</time>
      </trkpt>
      <trkpt lat="45.34976" lon="6.7304">
        <ele>2684.14</ele>
        <time>2010-08-04T11:39:34Z</time>
      </trkpt>
      <trkpt lat="45.34972" lon="6.73028">
        <ele>2682.7</ele>
        <time>2010-08-04T11:39:45Z</time>
      </trkpt>
      <trkpt lat="45.34975" lon="6.73019">
        <ele>2680.29</ele>
        <time>2010-08-04T11:40:00Z</time>
      </trkpt>
      <trkpt lat="45.34978" lon="6.73008">
        <ele>2676.93</ele>
        <time>2010-08-04T11:40:13Z</time>
      </trkpt>
      <trkpt lat="45.34979" lon="6.73008">
        <ele>2676.93</ele>
        <time>2010-08-04T11:40:14Z</time>
      </trkpt>
      <trkpt lat="45.34983" lon="6.72999">
        <ele>2673.08</ele>
        <time>2010-08-04T11:40:26Z</time>
      </trkpt>
      <trkpt lat="45.34984" lon="6.72999">
        <ele>2673.08</ele>
        <time>2010-08-04T11:40:27Z</time>
      </trkpt>
      <trkpt lat="45.34984" lon="6.72996">
        <ele>2671.64</ele>
        <time>2010-08-04T11:40:32Z</time>
      </trkpt>
      <trkpt lat="45.34984" lon="6.72993">
        <ele>2671.16</ele>
        <time>2010-08-04T11:40:35Z</time>
      </trkpt>
      <trkpt lat="45.34986" lon="6.72988">
        <ele>2667.8</ele>
        <time>2010-08-04T11:40:47Z</time>
      </trkpt>
      <trkpt lat="45.34985" lon="6.72988">
        <ele>2667.8</ele>
        <time>2010-08-04T11:40:48Z</time>
      </trkpt>
      <trkpt lat="45.34985" lon="6.72982">
        <ele>2666.35</ele>
        <time>2010-08-04T11:40:58Z</time>
      </trkpt>
      <trkpt lat="45.34987" lon="6.72981">
        <ele>2664.43</ele>
        <time>2010-08-04T11:41:02Z</time>
      </trkpt>
      <trkpt lat="45.34996" lon="6.7298">
        <ele>2662.51</ele>
        <time>2010-08-04T11:41:13Z</time>
      </trkpt>
      <trkpt lat="45.34999" lon="6.72978">
        <ele>2662.51</ele>
        <time>2010-08-04T11:41:17Z</time>
      </trkpt>
      <trkpt lat="45.35004" lon="6.72968">
        <ele>2660.11</ele>
        <time>2010-08-04T11:41:27Z</time>
      </trkpt>
      <trkpt lat="45.35004" lon="6.72965">
        <ele>2659.62</ele>
        <time>2010-08-04T11:41:31Z</time>
      </trkpt>
      <trkpt lat="45.35002" lon="6.72958">
        <ele>2657.22</ele>
        <time>2010-08-04T11:41:39Z</time>
      </trkpt>
      <trkpt lat="45.35004" lon="6.72955">
        <ele>2656.74</ele>
        <time>2010-08-04T11:41:42Z</time>
      </trkpt>
      <trkpt lat="45.35009" lon="6.72943">
        <ele>2654.34</ele>
        <time>2010-08-04T11:41:50Z</time>
      </trkpt>
      <trkpt lat="45.35011" lon="6.72929">
        <ele>2652.9</ele>
        <time>2010-08-04T11:42:01Z</time>
      </trkpt>
      <trkpt lat="45.35011" lon="6.72924">
        <ele>2652.9</ele>
        <time>2010-08-04T11:42:08Z</time>
      </trkpt>
      <trkpt lat="45.35009" lon="6.72916">
        <ele>2650.97</ele>
        <time>2010-08-04T11:42:19Z</time>
      </trkpt>
      <trkpt lat="45.35007" lon="6.72918">
        <ele>2651.45</ele>
        <time>2010-08-04T11:42:34Z</time>
      </trkpt>
      <trkpt lat="45.35007" lon="6.72919">
        <ele>2651.45</ele>
        <time>2010-08-04T11:42:43Z</time>
      </trkpt>
      <trkpt lat="45.35006" lon="6.72921">
        <ele>2650.49</ele>
        <time>2010-08-04T11:42:56Z</time>
      </trkpt>
      <trkpt lat="45.35006" lon="6.7292">
        <ele>2647.61</ele>
        <time>2010-08-04T11:47:49Z</time>
      </trkpt>
      <trkpt lat="45.35005" lon="6.72922">
        <ele>2685.1</ele>
        <time>2010-08-04T12:18:32Z</time>
      </trkpt>
      <trkpt lat="45.35005" lon="6.72922">
        <ele>2662.03</ele>
        <time>2010-08-04T12:18:34Z</time>
      </trkpt>
      <trkpt lat="45.35005" lon="6.72922">
        <ele>2662.03</ele>
        <time>2010-08-04T12:18:35Z</time>
      </trkpt>
      <trkpt lat="45.35003" lon="6.72924">
        <ele>2661.55</ele>
        <time>2010-08-04T12:18:44Z</time>
      </trkpt>
      <trkpt lat="45.35006" lon="6.72911">
        <ele>2660.11</ele>
        <time>2010-08-04T12:19:06Z</time>
      </trkpt>
      <trkpt lat="45.35007" lon="6.72911">
        <ele>2660.11</ele>
        <time>2010-08-04T12:19:07Z</time>
      </trkpt>
      <trkpt lat="45.35014" lon="6.72911">
        <ele>2657.22</ele>
        <time>2010-08-04T12:19:14Z</time>
      </trkpt>
      <trkpt lat="45.3502" lon="6.72904">
        <ele>2654.34</ele>
        <time>2010-08-04T12:19:32Z</time>
      </trkpt>
      <trkpt lat="45.35021" lon="6.72904">
        <ele>2653.86</ele>
        <time>2010-08-04T12:19:33Z</time>
      </trkpt>
      <trkpt lat="45.35024" lon="6.72901">
        <ele>2653.38</ele>
        <time>2010-08-04T12:19:36Z</time>
      </trkpt>
      <trkpt lat="45.35026" lon="6.72897">
        <ele>2652.42</ele>
        <time>2010-08-04T12:19:40Z</time>
      </trkpt>
      <trkpt lat="45.35027" lon="6.72894">
        <ele>2652.42</ele>
        <time>2010-08-04T12:19:42Z</time>
      </trkpt>
      <trkpt lat="45.35028" lon="6.72892">
        <ele>2650.97</ele>
        <time>2010-08-04T12:19:44Z</time>
      </trkpt>
      <trkpt lat="45.35031" lon="6.7288">
        <ele>2651.45</ele>
        <time>2010-08-04T12:19:55Z</time>
      </trkpt>
      <trkpt lat="45.35032" lon="6.72875">
        <ele>2652.42</ele>
        <time>2010-08-04T12:20:03Z</time>
      </trkpt>
      <trkpt lat="45.3503" lon="6.7286">
        <ele>2654.34</ele>
        <time>2010-08-04T12:20:19Z</time>
      </trkpt>
      <trkpt lat="45.35029" lon="6.72856">
        <ele>2654.82</ele>
        <time>2010-08-04T12:20:23Z</time>
      </trkpt>
      <trkpt lat="45.3502" lon="6.72843">
        <ele>2654.82</ele>
        <time>2010-08-04T12:20:36Z</time>
      </trkpt>
      <trkpt lat="45.3502" lon="6.72841">
        <ele>2654.82</ele>
        <time>2010-08-04T12:20:37Z</time>
      </trkpt>
      <trkpt lat="45.35023" lon="6.72831">
        <ele>2653.86</ele>
        <time>2010-08-04T12:20:45Z</time>
      </trkpt>
      <trkpt lat="45.35024" lon="6.72815">
        <ele>2652.9</ele>
        <time>2010-08-04T12:20:55Z</time>
      </trkpt>
      <trkpt lat="45.35025" lon="6.72813">
        <ele>2652.9</ele>
        <time>2010-08-04T12:20:56Z</time>
      </trkpt>
      <trkpt lat="45.35026" lon="6.72807">
        <ele>2651.93</ele>
        <time>2010-08-04T12:21:01Z</time>
      </trkpt>
      <trkpt lat="45.35032" lon="6.72798">
        <ele>2653.38</ele>
        <time>2010-08-04T12:21:10Z</time>
      </trkpt>
      <trkpt lat="45.35033" lon="6.72786">
        <ele>2651.93</ele>
        <time>2010-08-04T12:21:20Z</time>
      </trkpt>
      <trkpt lat="45.35035" lon="6.72783">
        <ele>2653.86</ele>
        <time>2010-08-04T12:21:23Z</time>
      </trkpt>
      <trkpt lat="45.35039" lon="6.72773">
        <ele>2655.3</ele>
        <time>2010-08-04T12:21:32Z</time>
      </trkpt>
      <trkpt lat="45.35039" lon="6.72769">
        <ele>2655.3</ele>
        <time>2010-08-04T12:21:36Z</time>
      </trkpt>
      <trkpt lat="45.35038" lon="6.72766">
        <ele>2654.82</ele>
        <time>2010-08-04T12:21:38Z</time>
      </trkpt>
      <trkpt lat="45.35037" lon="6.72763">
        <ele>2654.82</ele>
        <time>2010-08-04T12:21:40Z</time>
      </trkpt>
      <trkpt lat="45.3504" lon="6.72747">
        <ele>2655.78</ele>
        <time>2010-08-04T12:21:51Z</time>
      </trkpt>
      <trkpt lat="45.35043" lon="6.72742">
        <ele>2655.3</ele>
        <time>2010-08-04T12:21:56Z</time>
      </trkpt>
      <trkpt lat="45.35046" lon="6.72731">
        <ele>2653.86</ele>
        <time>2010-08-04T12:22:06Z</time>
      </trkpt>
      <trkpt lat="45.35047" lon="6.72728">
        <ele>2653.86</ele>
        <time>2010-08-04T12:22:09Z</time>
      </trkpt>
      <trkpt lat="45.35048" lon="6.72725">
        <ele>2653.38</ele>
        <time>2010-08-04T12:22:11Z</time>
      </trkpt>
      <trkpt lat="45.35052" lon="6.72716">
        <ele>2653.86</ele>
        <time>2010-08-04T12:22:20Z</time>
      </trkpt>
      <trkpt lat="45.35053" lon="6.7271">
        <ele>2653.38</ele>
        <time>2010-08-04T12:22:24Z</time>
      </trkpt>
      <trkpt lat="45.3506" lon="6.72702">
        <ele>2651.93</ele>
        <time>2010-08-04T12:22:32Z</time>
      </trkpt>
      <trkpt lat="45.35062" lon="6.72687">
        <ele>2651.45</ele>
        <time>2010-08-04T12:22:43Z</time>
      </trkpt>
      <trkpt lat="45.35065" lon="6.72678">
        <ele>2652.42</ele>
        <time>2010-08-04T12:22:50Z</time>
      </trkpt>
      <trkpt lat="45.35067" lon="6.72665">
        <ele>2653.38</ele>
        <time>2010-08-04T12:22:59Z</time>
      </trkpt>
      <trkpt lat="45.35071" lon="6.72655">
        <ele>2653.86</ele>
        <time>2010-08-04T12:23:06Z</time>
      </trkpt>
      <trkpt lat="45.35077" lon="6.72651">
        <ele>2655.3</ele>
        <time>2010-08-04T12:23:12Z</time>
      </trkpt>
      <trkpt lat="45.35081" lon="6.72643">
        <ele>2655.3</ele>
        <time>2010-08-04T12:23:19Z</time>
      </trkpt>
      <trkpt lat="45.35091" lon="6.72633">
        <ele>2658.18</ele>
        <time>2010-08-04T12:23:31Z</time>
      </trkpt>
      <trkpt lat="45.35093" lon="6.72631">
        <ele>2657.7</ele>
        <time>2010-08-04T12:23:34Z</time>
      </trkpt>
      <trkpt lat="45.35104" lon="6.72622">
        <ele>2658.18</ele>
        <time>2010-08-04T12:23:48Z</time>
      </trkpt>
      <trkpt lat="45.35108" lon="6.72618">
        <ele>2658.66</ele>
        <time>2010-08-04T12:23:52Z</time>
      </trkpt>
      <trkpt lat="45.35109" lon="6.72617">
        <ele>2657.22</ele>
        <time>2010-08-04T12:23:54Z</time>
      </trkpt>
      <trkpt lat="45.3511" lon="6.72616">
        <ele>2656.74</ele>
        <time>2010-08-04T12:23:55Z</time>
      </trkpt>
      <trkpt lat="45.35118" lon="6.72605">
        <ele>2654.34</ele>
        <time>2010-08-04T12:24:06Z</time>
      </trkpt>
      <trkpt lat="45.35122" lon="6.72594">
        <ele>2651.45</ele>
        <time>2010-08-04T12:24:18Z</time>
      </trkpt>
      <trkpt lat="45.35121" lon="6.72592">
        <ele>2651.45</ele>
        <time>2010-08-04T12:24:20Z</time>
      </trkpt>
      <trkpt lat="45.35127" lon="6.72585">
        <ele>2649.53</ele>
        <time>2010-08-04T12:24:27Z</time>
      </trkpt>
      <trkpt lat="45.35131" lon="6.72583">
        <ele>2648.57</ele>
        <time>2010-08-04T12:24:31Z</time>
      </trkpt>
      <trkpt lat="45.35134" lon="6.72577">
        <ele>2648.09</ele>
        <time>2010-08-04T12:24:35Z</time>
      </trkpt>
      <trkpt lat="45.35138" lon="6.72567">
        <ele>2645.21</ele>
        <time>2010-08-04T12:24:42Z</time>
      </trkpt>
      <trkpt lat="45.35155" lon="6.72563">
        <ele>2644.24</ele>
        <time>2010-08-04T12:24:55Z</time>
      </trkpt>
      <trkpt lat="45.35166" lon="6.72552">
        <ele>2644.24</ele>
        <time>2010-08-04T12:25:04Z</time>
      </trkpt>
      <trkpt lat="45.3518" lon="6.72541">
        <ele>2642.32</ele>
        <time>2010-08-04T12:25:17Z</time>
      </trkpt>
      <trkpt lat="45.3519" lon="6.72535">
        <ele>2639.92</ele>
        <time>2010-08-04T12:25:27Z</time>
      </trkpt>
      <trkpt lat="45.35196" lon="6.7253">
        <ele>2638.48</ele>
        <time>2010-08-04T12:25:33Z</time>
      </trkpt>
      <trkpt lat="45.35199" lon="6.72527">
        <ele>2637.03</ele>
        <time>2010-08-04T12:25:37Z</time>
      </trkpt>
      <trkpt lat="45.35206" lon="6.72525">
        <ele>2635.59</ele>
        <time>2010-08-04T12:25:43Z</time>
      </trkpt>
      <trkpt lat="45.3522" lon="6.72513">
        <ele>2633.19</ele>
        <time>2010-08-04T12:25:57Z</time>
      </trkpt>
      <trkpt lat="45.35227" lon="6.72501">
        <ele>2630.3</ele>
        <time>2010-08-04T12:26:06Z</time>
      </trkpt>
      <trkpt lat="45.35231" lon="6.7249">
        <ele>2628.38</ele>
        <time>2010-08-04T12:26:12Z</time>
      </trkpt>
      <trkpt lat="45.35238" lon="6.7248">
        <ele>2626.46</ele>
        <time>2010-08-04T12:26:19Z</time>
      </trkpt>
      <trkpt lat="45.3525" lon="6.72465">
        <ele>2624.54</ele>
        <time>2010-08-04T12:26:33Z</time>
      </trkpt>
      <trkpt lat="45.35262" lon="6.72449">
        <ele>2624.06</ele>
        <time>2010-08-04T12:26:45Z</time>
      </trkpt>
      <trkpt lat="45.35263" lon="6.72445">
        <ele>2623.09</ele>
        <time>2010-08-04T12:26:48Z</time>
      </trkpt>
      <trkpt lat="45.35271" lon="6.72429">
        <ele>2622.61</ele>
        <time>2010-08-04T12:26:59Z</time>
      </trkpt>
      <trkpt lat="45.35276" lon="6.72424">
        <ele>2621.65</ele>
        <time>2010-08-04T12:27:04Z</time>
      </trkpt>
      <trkpt lat="45.35287" lon="6.72417">
        <ele>2620.21</ele>
        <time>2010-08-04T12:27:17Z</time>
      </trkpt>
      <trkpt lat="45.3529" lon="6.72416">
        <ele>2619.73</ele>
        <time>2010-08-04T12:27:19Z</time>
      </trkpt>
      <trkpt lat="45.35296" lon="6.72417">
        <ele>2618.77</ele>
        <time>2010-08-04T12:27:24Z</time>
      </trkpt>
      <trkpt lat="45.35298" lon="6.72414">
        <ele>2618.29</ele>
        <time>2010-08-04T12:27:27Z</time>
      </trkpt>
      <trkpt lat="45.35306" lon="6.72412">
        <ele>2616.37</ele>
        <time>2010-08-04T12:27:34Z</time>
      </trkpt>
      <trkpt lat="45.35311" lon="6.72412">
        <ele>2615.88</ele>
        <time>2010-08-04T12:27:40Z</time>
      </trkpt>
      <trkpt lat="45.35317" lon="6.72408">
        <ele>2614.92</ele>
        <time>2010-08-04T12:27:49Z</time>
      </trkpt>
      <trkpt lat="45.35322" lon="6.72416">
        <ele>2613</ele>
        <time>2010-08-04T12:28:02Z</time>
      </trkpt>
      <trkpt lat="45.35327" lon="6.72422">
        <ele>2611.56</ele>
        <time>2010-08-04T12:28:14Z</time>
      </trkpt>
      <trkpt lat="45.35328" lon="6.72427">
        <ele>2611.08</ele>
        <time>2010-08-04T12:28:35Z</time>
      </trkpt>
      <trkpt lat="45.35328" lon="6.72427">
        <ele>2611.08</ele>
        <time>2010-08-04T12:28:38Z</time>
      </trkpt>
      <trkpt lat="45.35328" lon="6.72426">
        <ele>2611.56</ele>
        <time>2010-08-04T12:28:44Z</time>
      </trkpt>
      <trkpt lat="45.35328" lon="6.72426">
        <ele>2609.16</ele>
        <time>2010-08-04T12:28:56Z</time>
      </trkpt>
      <trkpt lat="45.35328" lon="6.72426">
        <ele>2599.06</ele>
        <time>2010-08-04T13:05:41Z</time>
      </trkpt>
      <trkpt lat="45.35328" lon="6.72426">
        <ele>2607.23</ele>
        <time>2010-08-04T13:05:43Z</time>
      </trkpt>
      <trkpt lat="45.35328" lon="6.72426">
        <ele>2607.23</ele>
        <time>2010-08-04T13:05:44Z</time>
      </trkpt>
      <trkpt lat="45.35336" lon="6.72434">
        <ele>2608.67</ele>
        <time>2010-08-04T13:05:49Z</time>
      </trkpt>
      <trkpt lat="45.35342" lon="6.7243">
        <ele>2609.64</ele>
        <time>2010-08-04T13:06:12Z</time>
      </trkpt>
      <trkpt lat="45.35341" lon="6.72426">
        <ele>2609.64</ele>
        <time>2010-08-04T13:06:24Z</time>
      </trkpt>
      <trkpt lat="45.35338" lon="6.72421">
        <ele>2609.64</ele>
        <time>2010-08-04T13:06:30Z</time>
      </trkpt>
      <trkpt lat="45.35335" lon="6.72415">
        <ele>2608.67</ele>
        <time>2010-08-04T13:06:37Z</time>
      </trkpt>
      <trkpt lat="45.35323" lon="6.72423">
        <ele>2608.67</ele>
        <time>2010-08-04T13:06:50Z</time>
      </trkpt>
      <trkpt lat="45.35305" lon="6.72419">
        <ele>2608.19</ele>
        <time>2010-08-04T13:07:00Z</time>
      </trkpt>
      <trkpt lat="45.35303" lon="6.72418">
        <ele>2608.19</ele>
        <time>2010-08-04T13:07:02Z</time>
      </trkpt>
      <trkpt lat="45.353" lon="6.72416">
        <ele>2608.19</ele>
        <time>2010-08-04T13:07:05Z</time>
      </trkpt>
      <trkpt lat="45.35283" lon="6.72409">
        <ele>2606.75</ele>
        <time>2010-08-04T13:07:19Z</time>
      </trkpt>
      <trkpt lat="45.35266" lon="6.72406">
        <ele>2606.27</ele>
        <time>2010-08-04T13:07:32Z</time>
      </trkpt>
      <trkpt lat="45.35258" lon="6.72403">
        <ele>2607.23</ele>
        <time>2010-08-04T13:07:37Z</time>
      </trkpt>
      <trkpt lat="45.35245" lon="6.72392">
        <ele>2608.67</ele>
        <time>2010-08-04T13:07:50Z</time>
      </trkpt>
      <trkpt lat="45.35239" lon="6.72389">
        <ele>2608.19</ele>
        <time>2010-08-04T13:08:00Z</time>
      </trkpt>
      <trkpt lat="45.35228" lon="6.72377">
        <ele>2609.64</ele>
        <time>2010-08-04T13:08:13Z</time>
      </trkpt>
      <trkpt lat="45.35224" lon="6.72372">
        <ele>2610.12</ele>
        <time>2010-08-04T13:08:17Z</time>
      </trkpt>
      <trkpt lat="45.35218" lon="6.72365">
        <ele>2612.04</ele>
        <time>2010-08-04T13:08:24Z</time>
      </trkpt>
      <trkpt lat="45.35209" lon="6.72359">
        <ele>2609.64</ele>
        <time>2010-08-04T13:08:31Z</time>
      </trkpt>
      <trkpt lat="45.35206" lon="6.72355">
        <ele>2610.6</ele>
        <time>2010-08-04T13:08:34Z</time>
      </trkpt>
      <trkpt lat="45.35196" lon="6.72347">
        <ele>2611.56</ele>
        <time>2010-08-04T13:08:44Z</time>
      </trkpt>
      <trkpt lat="45.35192" lon="6.72341">
        <ele>2611.08</ele>
        <time>2010-08-04T13:08:49Z</time>
      </trkpt>
      <trkpt lat="45.35188" lon="6.72336">
        <ele>2612.52</ele>
        <time>2010-08-04T13:08:53Z</time>
      </trkpt>
      <trkpt lat="45.35186" lon="6.72335">
        <ele>2612.52</ele>
        <time>2010-08-04T13:08:55Z</time>
      </trkpt>
      <trkpt lat="45.35181" lon="6.72328">
        <ele>2611.56</ele>
        <time>2010-08-04T13:09:01Z</time>
      </trkpt>
      <trkpt lat="45.35178" lon="6.72326">
        <ele>2611.56</ele>
        <time>2010-08-04T13:09:05Z</time>
      </trkpt>
      <trkpt lat="45.35173" lon="6.72316">
        <ele>2609.64</ele>
        <time>2010-08-04T13:09:11Z</time>
      </trkpt>
      <trkpt lat="45.3517" lon="6.72313">
        <ele>2610.12</ele>
        <time>2010-08-04T13:09:13Z</time>
      </trkpt>
      <trkpt lat="45.35166" lon="6.72307">
        <ele>2610.6</ele>
        <time>2010-08-04T13:09:18Z</time>
      </trkpt>
      <trkpt lat="45.35162" lon="6.72302">
        <ele>2610.12</ele>
        <time>2010-08-04T13:09:23Z</time>
      </trkpt>
      <trkpt lat="45.35156" lon="6.72296">
        <ele>2609.64</ele>
        <time>2010-08-04T13:09:28Z</time>
      </trkpt>
      <trkpt lat="45.35153" lon="6.72293">
        <ele>2608.19</ele>
        <time>2010-08-04T13:09:31Z</time>
      </trkpt>
      <trkpt lat="45.35144" lon="6.72276">
        <ele>2607.23</ele>
        <time>2010-08-04T13:09:43Z</time>
      </trkpt>
      <trkpt lat="45.35142" lon="6.72269">
        <ele>2604.83</ele>
        <time>2010-08-04T13:09:47Z</time>
      </trkpt>
      <trkpt lat="45.35141" lon="6.72261">
        <ele>2603.87</ele>
        <time>2010-08-04T13:09:51Z</time>
      </trkpt>
      <trkpt lat="45.35141" lon="6.72256">
        <ele>2603.39</ele>
        <time>2010-08-04T13:09:54Z</time>
      </trkpt>
      <trkpt lat="45.35144" lon="6.7225">
        <ele>2601.95</ele>
        <time>2010-08-04T13:09:59Z</time>
      </trkpt>
      <trkpt lat="45.35144" lon="6.72246">
        <ele>2600.02</ele>
        <time>2010-08-04T13:10:02Z</time>
      </trkpt>
      <trkpt lat="45.35144" lon="6.72228">
        <ele>2597.14</ele>
        <time>2010-08-04T13:10:11Z</time>
      </trkpt>
      <trkpt lat="45.35141" lon="6.72223">
        <ele>2596.18</ele>
        <time>2010-08-04T13:10:15Z</time>
      </trkpt>
      <trkpt lat="45.35134" lon="6.72212">
        <ele>2592.81</ele>
        <time>2010-08-04T13:10:25Z</time>
      </trkpt>
      <trkpt lat="45.3513" lon="6.72207">
        <ele>2591.85</ele>
        <time>2010-08-04T13:10:29Z</time>
      </trkpt>
      <trkpt lat="45.35122" lon="6.72207">
        <ele>2590.89</ele>
        <time>2010-08-04T13:10:39Z</time>
      </trkpt>
      <trkpt lat="45.35124" lon="6.72201">
        <ele>2588.49</ele>
        <time>2010-08-04T13:10:44Z</time>
      </trkpt>
      <trkpt lat="45.35127" lon="6.72195">
        <ele>2586.56</ele>
        <time>2010-08-04T13:10:49Z</time>
      </trkpt>
      <trkpt lat="45.35131" lon="6.72192">
        <ele>2584.64</ele>
        <time>2010-08-04T13:10:54Z</time>
      </trkpt>
      <trkpt lat="45.35129" lon="6.72188">
        <ele>2584.16</ele>
        <time>2010-08-04T13:10:57Z</time>
      </trkpt>
      <trkpt lat="45.35125" lon="6.72186">
        <ele>2582.24</ele>
        <time>2010-08-04T13:11:01Z</time>
      </trkpt>
      <trkpt lat="45.35119" lon="6.72186">
        <ele>2581.28</ele>
        <time>2010-08-04T13:11:06Z</time>
      </trkpt>
      <trkpt lat="45.35111" lon="6.72181">
        <ele>2579.35</ele>
        <time>2010-08-04T13:11:17Z</time>
      </trkpt>
      <trkpt lat="45.35112" lon="6.72181">
        <ele>2578.39</ele>
        <time>2010-08-04T13:11:19Z</time>
      </trkpt>
      <trkpt lat="45.35117" lon="6.72182">
        <ele>2578.39</ele>
        <time>2010-08-04T13:11:23Z</time>
      </trkpt>
      <trkpt lat="45.35119" lon="6.72182">
        <ele>2576.47</ele>
        <time>2010-08-04T13:11:25Z</time>
      </trkpt>
      <trkpt lat="45.35121" lon="6.72179">
        <ele>2575.99</ele>
        <time>2010-08-04T13:11:28Z</time>
      </trkpt>
      <trkpt lat="45.35119" lon="6.72175">
        <ele>2573.59</ele>
        <time>2010-08-04T13:11:34Z</time>
      </trkpt>
      <trkpt lat="45.35116" lon="6.72168">
        <ele>2570.22</ele>
        <time>2010-08-04T13:11:44Z</time>
      </trkpt>
      <trkpt lat="45.35109" lon="6.72164">
        <ele>2566.38</ele>
        <time>2010-08-04T13:11:54Z</time>
      </trkpt>
      <trkpt lat="45.35105" lon="6.72162">
        <ele>2564.93</ele>
        <time>2010-08-04T13:11:59Z</time>
      </trkpt>
      <trkpt lat="45.35101" lon="6.7216">
        <ele>2563.01</ele>
        <time>2010-08-04T13:12:04Z</time>
      </trkpt>
      <trkpt lat="45.35098" lon="6.72157">
        <ele>2562.53</ele>
        <time>2010-08-04T13:12:08Z</time>
      </trkpt>
      <trkpt lat="45.35089" lon="6.72156">
        <ele>2560.61</ele>
        <time>2010-08-04T13:12:17Z</time>
      </trkpt>
      <trkpt lat="45.35084" lon="6.7216">
        <ele>2560.13</ele>
        <time>2010-08-04T13:12:22Z</time>
      </trkpt>
      <trkpt lat="45.35082" lon="6.72162">
        <ele>2561.09</ele>
        <time>2010-08-04T13:12:24Z</time>
      </trkpt>
      <trkpt lat="45.35073" lon="6.72167">
        <ele>2559.65</ele>
        <time>2010-08-04T13:12:32Z</time>
      </trkpt>
      <trkpt lat="45.35062" lon="6.7218">
        <ele>2559.65</ele>
        <time>2010-08-04T13:12:42Z</time>
      </trkpt>
      <trkpt lat="45.35052" lon="6.7218">
        <ele>2558.69</ele>
        <time>2010-08-04T13:12:51Z</time>
      </trkpt>
      <trkpt lat="45.35046" lon="6.72182">
        <ele>2557.73</ele>
        <time>2010-08-04T13:12:56Z</time>
      </trkpt>
      <trkpt lat="45.35033" lon="6.72186">
        <ele>2557.24</ele>
        <time>2010-08-04T13:13:07Z</time>
      </trkpt>
      <trkpt lat="45.35031" lon="6.72186">
        <ele>2556.28</ele>
        <time>2010-08-04T13:13:10Z</time>
      </trkpt>
      <trkpt lat="45.35027" lon="6.72183">
        <ele>2557.24</ele>
        <time>2010-08-04T13:13:13Z</time>
      </trkpt>
      <trkpt lat="45.35014" lon="6.72185">
        <ele>2557.73</ele>
        <time>2010-08-04T13:13:27Z</time>
      </trkpt>
      <trkpt lat="45.35009" lon="6.72185">
        <ele>2557.24</ele>
        <time>2010-08-04T13:13:31Z</time>
      </trkpt>
      <trkpt lat="45.35005" lon="6.72192">
        <ele>2557.73</ele>
        <time>2010-08-04T13:13:37Z</time>
      </trkpt>
      <trkpt lat="45.3499" lon="6.72193">
        <ele>2557.24</ele>
        <time>2010-08-04T13:13:49Z</time>
      </trkpt>
      <trkpt lat="45.34987" lon="6.72192">
        <ele>2555.32</ele>
        <time>2010-08-04T13:13:51Z</time>
      </trkpt>
      <trkpt lat="45.34982" lon="6.72193">
        <ele>2554.36</ele>
        <time>2010-08-04T13:13:56Z</time>
      </trkpt>
      <trkpt lat="45.3497" lon="6.72196">
        <ele>2553.4</ele>
        <time>2010-08-04T13:14:07Z</time>
      </trkpt>
      <trkpt lat="45.34959" lon="6.72193">
        <ele>2551.48</ele>
        <time>2010-08-04T13:14:16Z</time>
      </trkpt>
      <trkpt lat="45.34955" lon="6.72193">
        <ele>2550.51</ele>
        <time>2010-08-04T13:14:19Z</time>
      </trkpt>
      <trkpt lat="45.34942" lon="6.722">
        <ele>2547.63</ele>
        <time>2010-08-04T13:14:29Z</time>
      </trkpt>
      <trkpt lat="45.34937" lon="6.72204">
        <ele>2546.19</ele>
        <time>2010-08-04T13:14:34Z</time>
      </trkpt>
      <trkpt lat="45.34933" lon="6.72213">
        <ele>2545.23</ele>
        <time>2010-08-04T13:14:39Z</time>
      </trkpt>
      <trkpt lat="45.3492" lon="6.7222">
        <ele>2542.34</ele>
        <time>2010-08-04T13:14:51Z</time>
      </trkpt>
      <trkpt lat="45.34914" lon="6.72219">
        <ele>2540.42</ele>
        <time>2010-08-04T13:14:58Z</time>
      </trkpt>
      <trkpt lat="45.3491" lon="6.72219">
        <ele>2538.98</ele>
        <time>2010-08-04T13:15:01Z</time>
      </trkpt>
      <trkpt lat="45.34907" lon="6.72219">
        <ele>2537.54</ele>
        <time>2010-08-04T13:15:03Z</time>
      </trkpt>
      <trkpt lat="45.34899" lon="6.72225">
        <ele>2536.1</ele>
        <time>2010-08-04T13:15:10Z</time>
      </trkpt>
      <trkpt lat="45.34888" lon="6.72232">
        <ele>2533.21</ele>
        <time>2010-08-04T13:15:20Z</time>
      </trkpt>
      <trkpt lat="45.34886" lon="6.72234">
        <ele>2533.69</ele>
        <time>2010-08-04T13:15:22Z</time>
      </trkpt>
      <trkpt lat="45.34882" lon="6.72238">
        <ele>2532.25</ele>
        <time>2010-08-04T13:15:26Z</time>
      </trkpt>
      <trkpt lat="45.34871" lon="6.72246">
        <ele>2529.37</ele>
        <time>2010-08-04T13:15:38Z</time>
      </trkpt>
      <trkpt lat="45.34864" lon="6.72249">
        <ele>2527.44</ele>
        <time>2010-08-04T13:15:44Z</time>
      </trkpt>
      <trkpt lat="45.34861" lon="6.72248">
        <ele>2526.48</ele>
        <time>2010-08-04T13:15:47Z</time>
      </trkpt>
      <trkpt lat="45.34846" lon="6.7225">
        <ele>2522.16</ele>
        <time>2010-08-04T13:15:59Z</time>
      </trkpt>
      <trkpt lat="45.34844" lon="6.7225">
        <ele>2521.19</ele>
        <time>2010-08-04T13:16:01Z</time>
      </trkpt>
      <trkpt lat="45.34836" lon="6.72253">
        <ele>2518.31</ele>
        <time>2010-08-04T13:16:06Z</time>
      </trkpt>
      <trkpt lat="45.34834" lon="6.72254">
        <ele>2518.31</ele>
        <time>2010-08-04T13:16:07Z</time>
      </trkpt>
      <trkpt lat="45.34833" lon="6.72254">
        <ele>2518.31</ele>
        <time>2010-08-04T13:16:08Z</time>
      </trkpt>
      <trkpt lat="45.34829" lon="6.72257">
        <ele>2517.83</ele>
        <time>2010-08-04T13:16:11Z</time>
      </trkpt>
      <trkpt lat="45.34824" lon="6.72261">
        <ele>2516.87</ele>
        <time>2010-08-04T13:16:15Z</time>
      </trkpt>
      <trkpt lat="45.34813" lon="6.72272">
        <ele>2513.02</ele>
        <time>2010-08-04T13:16:24Z</time>
      </trkpt>
      <trkpt lat="45.34808" lon="6.72275">
        <ele>2514.95</ele>
        <time>2010-08-04T13:16:28Z</time>
      </trkpt>
      <trkpt lat="45.34799" lon="6.72283">
        <ele>2511.1</ele>
        <time>2010-08-04T13:16:36Z</time>
      </trkpt>
      <trkpt lat="45.34798" lon="6.72283">
        <ele>2511.1</ele>
        <time>2010-08-04T13:16:37Z</time>
      </trkpt>
      <trkpt lat="45.34789" lon="6.72289">
        <ele>2507.74</ele>
        <time>2010-08-04T13:16:45Z</time>
      </trkpt>
      <trkpt lat="45.34782" lon="6.72294">
        <ele>2506.77</ele>
        <time>2010-08-04T13:16:51Z</time>
      </trkpt>
      <trkpt lat="45.34778" lon="6.72296">
        <ele>2506.29</ele>
        <time>2010-08-04T13:16:54Z</time>
      </trkpt>
      <trkpt lat="45.34765" lon="6.72299">
        <ele>2502.45</ele>
        <time>2010-08-04T13:17:04Z</time>
      </trkpt>
      <trkpt lat="45.34763" lon="6.72299">
        <ele>2501.01</ele>
        <time>2010-08-04T13:17:06Z</time>
      </trkpt>
      <trkpt lat="45.3475" lon="6.72304">
        <ele>2497.64</ele>
        <time>2010-08-04T13:17:16Z</time>
      </trkpt>
      <trkpt lat="45.34748" lon="6.72305">
        <ele>2498.12</ele>
        <time>2010-08-04T13:17:17Z</time>
      </trkpt>
      <trkpt lat="45.34746" lon="6.72307">
        <ele>2496.68</ele>
        <time>2010-08-04T13:17:19Z</time>
      </trkpt>
      <trkpt lat="45.34743" lon="6.7231">
        <ele>2496.2</ele>
        <time>2010-08-04T13:17:21Z</time>
      </trkpt>
      <trkpt lat="45.34735" lon="6.72318">
        <ele>2493.32</ele>
        <time>2010-08-04T13:17:30Z</time>
      </trkpt>
      <trkpt lat="45.34734" lon="6.72318">
        <ele>2492.84</ele>
        <time>2010-08-04T13:17:31Z</time>
      </trkpt>
      <trkpt lat="45.34731" lon="6.72316">
        <ele>2490.91</ele>
        <time>2010-08-04T13:17:33Z</time>
      </trkpt>
      <trkpt lat="45.34725" lon="6.7231">
        <ele>2487.07</ele>
        <time>2010-08-04T13:17:39Z</time>
      </trkpt>
      <trkpt lat="45.34719" lon="6.72311">
        <ele>2485.63</ele>
        <time>2010-08-04T13:17:46Z</time>
      </trkpt>
      <trkpt lat="45.34717" lon="6.72314">
        <ele>2483.22</ele>
        <time>2010-08-04T13:17:49Z</time>
      </trkpt>
      <trkpt lat="45.34714" lon="6.72313">
        <ele>2483.7</ele>
        <time>2010-08-04T13:17:51Z</time>
      </trkpt>
      <trkpt lat="45.34708" lon="6.72306">
        <ele>2478.9</ele>
        <time>2010-08-04T13:17:57Z</time>
      </trkpt>
      <trkpt lat="45.34705" lon="6.72304">
        <ele>2478.9</ele>
        <time>2010-08-04T13:18:00Z</time>
      </trkpt>
      <trkpt lat="45.34703" lon="6.72308">
        <ele>2477.45</ele>
        <time>2010-08-04T13:18:04Z</time>
      </trkpt>
      <trkpt lat="45.347" lon="6.72313">
        <ele>2476.01</ele>
        <time>2010-08-04T13:18:07Z</time>
      </trkpt>
      <trkpt lat="45.34696" lon="6.72321">
        <ele>2474.57</ele>
        <time>2010-08-04T13:18:12Z</time>
      </trkpt>
      <trkpt lat="45.34695" lon="6.72326">
        <ele>2473.13</ele>
        <time>2010-08-04T13:18:16Z</time>
      </trkpt>
      <trkpt lat="45.34694" lon="6.72326">
        <ele>2473.13</ele>
        <time>2010-08-04T13:18:17Z</time>
      </trkpt>
      <trkpt lat="45.34692" lon="6.72323">
        <ele>2471.69</ele>
        <time>2010-08-04T13:18:19Z</time>
      </trkpt>
      <trkpt lat="45.34686" lon="6.72309">
        <ele>2470.24</ele>
        <time>2010-08-04T13:18:28Z</time>
      </trkpt>
      <trkpt lat="45.34683" lon="6.72291">
        <ele>2467.36</ele>
        <time>2010-08-04T13:18:37Z</time>
      </trkpt>
      <trkpt lat="45.34682" lon="6.72292">
        <ele>2466.88</ele>
        <time>2010-08-04T13:18:38Z</time>
      </trkpt>
      <trkpt lat="45.3468" lon="6.72297">
        <ele>2466.88</ele>
        <time>2010-08-04T13:18:41Z</time>
      </trkpt>
      <trkpt lat="45.34675" lon="6.72304">
        <ele>2463.52</ele>
        <time>2010-08-04T13:18:48Z</time>
      </trkpt>
      <trkpt lat="45.34672" lon="6.723">
        <ele>2462.07</ele>
        <time>2010-08-04T13:18:52Z</time>
      </trkpt>
      <trkpt lat="45.34671" lon="6.72297">
        <ele>2460.15</ele>
        <time>2010-08-04T13:18:54Z</time>
      </trkpt>
      <trkpt lat="45.34669" lon="6.72282">
        <ele>2457.27</ele>
        <time>2010-08-04T13:19:03Z</time>
      </trkpt>
      <trkpt lat="45.34669" lon="6.72279">
        <ele>2457.27</ele>
        <time>2010-08-04T13:19:05Z</time>
      </trkpt>
      <trkpt lat="45.34667" lon="6.72277">
        <ele>2457.27</ele>
        <time>2010-08-04T13:19:08Z</time>
      </trkpt>
      <trkpt lat="45.34665" lon="6.72279">
        <ele>2455.34</ele>
        <time>2010-08-04T13:19:11Z</time>
      </trkpt>
      <trkpt lat="45.34663" lon="6.72281">
        <ele>2454.38</ele>
        <time>2010-08-04T13:19:13Z</time>
      </trkpt>
      <trkpt lat="45.34656" lon="6.72284">
        <ele>2451.02</ele>
        <time>2010-08-04T13:19:20Z</time>
      </trkpt>
      <trkpt lat="45.34652" lon="6.72289">
        <ele>2451.02</ele>
        <time>2010-08-04T13:19:24Z</time>
      </trkpt>
      <trkpt lat="45.3465" lon="6.72293">
        <ele>2449.1</ele>
        <time>2010-08-04T13:19:27Z</time>
      </trkpt>
      <trkpt lat="45.34647" lon="6.72298">
        <ele>2450.06</ele>
        <time>2010-08-04T13:19:31Z</time>
      </trkpt>
      <trkpt lat="45.34644" lon="6.72303">
        <ele>2448.62</ele>
        <time>2010-08-04T13:19:34Z</time>
      </trkpt>
      <trkpt lat="45.34642" lon="6.7231">
        <ele>2447.65</ele>
        <time>2010-08-04T13:19:39Z</time>
      </trkpt>
      <trkpt lat="45.34638" lon="6.72317">
        <ele>2445.73</ele>
        <time>2010-08-04T13:19:45Z</time>
      </trkpt>
      <trkpt lat="45.34629" lon="6.72329">
        <ele>2444.77</ele>
        <time>2010-08-04T13:19:57Z</time>
      </trkpt>
      <trkpt lat="45.34628" lon="6.72328">
        <ele>2444.29</ele>
        <time>2010-08-04T13:20:00Z</time>
      </trkpt>
      <trkpt lat="45.34622" lon="6.72326">
        <ele>2441.89</ele>
        <time>2010-08-04T13:20:04Z</time>
      </trkpt>
      <trkpt lat="45.34619" lon="6.72322">
        <ele>2439.48</ele>
        <time>2010-08-04T13:20:08Z</time>
      </trkpt>
      <trkpt lat="45.34617" lon="6.72318">
        <ele>2438.04</ele>
        <time>2010-08-04T13:20:12Z</time>
      </trkpt>
      <trkpt lat="45.34612" lon="6.7232">
        <ele>2438.52</ele>
        <time>2010-08-04T13:20:16Z</time>
      </trkpt>
      <trkpt lat="45.34606" lon="6.7232">
        <ele>2435.16</ele>
        <time>2010-08-04T13:20:21Z</time>
      </trkpt>
      <trkpt lat="45.34603" lon="6.7232">
        <ele>2434.2</ele>
        <time>2010-08-04T13:20:24Z</time>
      </trkpt>
      <trkpt lat="45.34598" lon="6.72325">
        <ele>2433.23</ele>
        <time>2010-08-04T13:20:29Z</time>
      </trkpt>
      <trkpt lat="45.3459" lon="6.72331">
        <ele>2431.79</ele>
        <time>2010-08-04T13:20:35Z</time>
      </trkpt>
      <trkpt lat="45.34583" lon="6.72336">
        <ele>2430.83</ele>
        <time>2010-08-04T13:20:39Z</time>
      </trkpt>
      <trkpt lat="45.34581" lon="6.7234">
        <ele>2429.87</ele>
        <time>2010-08-04T13:20:42Z</time>
      </trkpt>
      <trkpt lat="45.34579" lon="6.72342">
        <ele>2429.87</ele>
        <time>2010-08-04T13:20:44Z</time>
      </trkpt>
      <trkpt lat="45.3457" lon="6.72343">
        <ele>2428.43</ele>
        <time>2010-08-04T13:20:50Z</time>
      </trkpt>
      <trkpt lat="45.34556" lon="6.7235">
        <ele>2426.5</ele>
        <time>2010-08-04T13:21:01Z</time>
      </trkpt>
      <trkpt lat="45.34553" lon="6.72351">
        <ele>2425.54</ele>
        <time>2010-08-04T13:21:03Z</time>
      </trkpt>
      <trkpt lat="45.34548" lon="6.72351">
        <ele>2423.62</ele>
        <time>2010-08-04T13:21:07Z</time>
      </trkpt>
      <trkpt lat="45.34543" lon="6.72359">
        <ele>2422.66</ele>
        <time>2010-08-04T13:21:12Z</time>
      </trkpt>
      <trkpt lat="45.34539" lon="6.72364">
        <ele>2420.74</ele>
        <time>2010-08-04T13:21:17Z</time>
      </trkpt>
      <trkpt lat="45.34537" lon="6.72372">
        <ele>2420.26</ele>
        <time>2010-08-04T13:21:21Z</time>
      </trkpt>
      <trkpt lat="45.34534" lon="6.72378">
        <ele>2418.81</ele>
        <time>2010-08-04T13:21:26Z</time>
      </trkpt>
      <trkpt lat="45.34532" lon="6.72379">
        <ele>2417.37</ele>
        <time>2010-08-04T13:21:28Z</time>
      </trkpt>
      <trkpt lat="45.34531" lon="6.72379">
        <ele>2416.41</ele>
        <time>2010-08-04T13:21:29Z</time>
      </trkpt>
      <trkpt lat="45.34522" lon="6.72389">
        <ele>2414.01</ele>
        <time>2010-08-04T13:21:38Z</time>
      </trkpt>
      <trkpt lat="45.34518" lon="6.72395">
        <ele>2413.05</ele>
        <time>2010-08-04T13:21:42Z</time>
      </trkpt>
      <trkpt lat="45.34513" lon="6.72404">
        <ele>2411.12</ele>
        <time>2010-08-04T13:21:48Z</time>
      </trkpt>
      <trkpt lat="45.34511" lon="6.72418">
        <ele>2408.72</ele>
        <time>2010-08-04T13:21:56Z</time>
      </trkpt>
      <trkpt lat="45.34507" lon="6.72421">
        <ele>2407.76</ele>
        <time>2010-08-04T13:22:06Z</time>
      </trkpt>
      <trkpt lat="45.34506" lon="6.72422">
        <ele>2407.28</ele>
        <time>2010-08-04T13:22:23Z</time>
      </trkpt>
      <trkpt lat="45.34505" lon="6.72423">
        <ele>2408.24</ele>
        <time>2010-08-04T13:22:36Z</time>
      </trkpt>
      <trkpt lat="45.345" lon="6.72426">
        <ele>2404.88</ele>
        <time>2010-08-04T13:22:47Z</time>
      </trkpt>
      <trkpt lat="45.34497" lon="6.72434">
        <ele>2402.47</ele>
        <time>2010-08-04T13:22:52Z</time>
      </trkpt>
      <trkpt lat="45.34493" lon="6.72438">
        <ele>2400.07</ele>
        <time>2010-08-04T13:22:56Z</time>
      </trkpt>
      <trkpt lat="45.34487" lon="6.72455">
        <ele>2395.74</ele>
        <time>2010-08-04T13:23:07Z</time>
      </trkpt>
      <trkpt lat="45.34486" lon="6.72456">
        <ele>2396.22</ele>
        <time>2010-08-04T13:23:08Z</time>
      </trkpt>
      <trkpt lat="45.34482" lon="6.72461">
        <ele>2394.3</ele>
        <time>2010-08-04T13:23:11Z</time>
      </trkpt>
      <trkpt lat="45.34475" lon="6.72471">
        <ele>2391.42</ele>
        <time>2010-08-04T13:23:17Z</time>
      </trkpt>
      <trkpt lat="45.34474" lon="6.72473">
        <ele>2392.86</ele>
        <time>2010-08-04T13:23:18Z</time>
      </trkpt>
      <trkpt lat="45.34471" lon="6.72481">
        <ele>2389.97</ele>
        <time>2010-08-04T13:23:23Z</time>
      </trkpt>
      <trkpt lat="45.34467" lon="6.72493">
        <ele>2388.05</ele>
        <time>2010-08-04T13:23:30Z</time>
      </trkpt>
      <trkpt lat="45.3446" lon="6.72502">
        <ele>2384.69</ele>
        <time>2010-08-04T13:23:37Z</time>
      </trkpt>
      <trkpt lat="45.34457" lon="6.72504">
        <ele>2383.25</ele>
        <time>2010-08-04T13:23:41Z</time>
      </trkpt>
      <trkpt lat="45.34453" lon="6.72506">
        <ele>2382.28</ele>
        <time>2010-08-04T13:23:46Z</time>
      </trkpt>
      <trkpt lat="45.3445" lon="6.72507">
        <ele>2380.84</ele>
        <time>2010-08-04T13:23:48Z</time>
      </trkpt>
      <trkpt lat="45.34446" lon="6.72502">
        <ele>2379.88</ele>
        <time>2010-08-04T13:23:52Z</time>
      </trkpt>
      <trkpt lat="45.34445" lon="6.72498">
        <ele>2377.96</ele>
        <time>2010-08-04T13:23:54Z</time>
      </trkpt>
      <trkpt lat="45.34445" lon="6.725">
        <ele>2377.96</ele>
        <time>2010-08-04T13:23:56Z</time>
      </trkpt>
      <trkpt lat="45.34443" lon="6.72503">
        <ele>2377</ele>
        <time>2010-08-04T13:23:58Z</time>
      </trkpt>
      <trkpt lat="45.3444" lon="6.72504">
        <ele>2376.52</ele>
        <time>2010-08-04T13:24:00Z</time>
      </trkpt>
      <trkpt lat="45.34435" lon="6.72502">
        <ele>2374.59</ele>
        <time>2010-08-04T13:24:07Z</time>
      </trkpt>
      <trkpt lat="45.34436" lon="6.725">
        <ele>2373.15</ele>
        <time>2010-08-04T13:24:09Z</time>
      </trkpt>
      <trkpt lat="45.34439" lon="6.72491">
        <ele>2369.79</ele>
        <time>2010-08-04T13:24:15Z</time>
      </trkpt>
      <trkpt lat="45.34439" lon="6.72488">
        <ele>2370.27</ele>
        <time>2010-08-04T13:24:17Z</time>
      </trkpt>
      <trkpt lat="45.34439" lon="6.72484">
        <ele>2369.31</ele>
        <time>2010-08-04T13:24:19Z</time>
      </trkpt>
      <trkpt lat="45.34439" lon="6.72478">
        <ele>2364.5</ele>
        <time>2010-08-04T13:24:23Z</time>
      </trkpt>
      <trkpt lat="45.34439" lon="6.72476">
        <ele>2366.9</ele>
        <time>2010-08-04T13:24:24Z</time>
      </trkpt>
      <trkpt lat="45.3444" lon="6.7247">
        <ele>2366.42</ele>
        <time>2010-08-04T13:24:27Z</time>
      </trkpt>
      <trkpt lat="45.34439" lon="6.72474">
        <ele>2366.42</ele>
        <time>2010-08-04T13:24:31Z</time>
      </trkpt>
      <trkpt lat="45.34438" lon="6.72478">
        <ele>2364.5</ele>
        <time>2010-08-04T13:24:34Z</time>
      </trkpt>
      <trkpt lat="45.34437" lon="6.72477">
        <ele>2364.5</ele>
        <time>2010-08-04T13:24:37Z</time>
      </trkpt>
      <trkpt lat="45.34437" lon="6.72471">
        <ele>2362.1</ele>
        <time>2010-08-04T13:24:41Z</time>
      </trkpt>
      <trkpt lat="45.34433" lon="6.72455">
        <ele>2360.65</ele>
        <time>2010-08-04T13:24:49Z</time>
      </trkpt>
      <trkpt lat="45.3443" lon="6.72452">
        <ele>2359.69</ele>
        <time>2010-08-04T13:24:51Z</time>
      </trkpt>
      <trkpt lat="45.34429" lon="6.72452">
        <ele>2358.25</ele>
        <time>2010-08-04T13:24:52Z</time>
      </trkpt>
      <trkpt lat="45.34426" lon="6.72454">
        <ele>2356.81</ele>
        <time>2010-08-04T13:24:56Z</time>
      </trkpt>
      <trkpt lat="45.34422" lon="6.72447">
        <ele>2356.33</ele>
        <time>2010-08-04T13:25:04Z</time>
      </trkpt>
      <trkpt lat="45.34421" lon="6.72442">
        <ele>2354.89</ele>
        <time>2010-08-04T13:25:07Z</time>
      </trkpt>
      <trkpt lat="45.3441" lon="6.72449">
        <ele>2352</ele>
        <time>2010-08-04T13:25:16Z</time>
      </trkpt>
      <trkpt lat="45.34406" lon="6.72448">
        <ele>2350.08</ele>
        <time>2010-08-04T13:25:19Z</time>
      </trkpt>
      <trkpt lat="45.34404" lon="6.7245">
        <ele>2350.08</ele>
        <time>2010-08-04T13:25:21Z</time>
      </trkpt>
      <trkpt lat="45.34403" lon="6.72453">
        <ele>2347.68</ele>
        <time>2010-08-04T13:25:24Z</time>
      </trkpt>
      <trkpt lat="45.34402" lon="6.72454">
        <ele>2347.2</ele>
        <time>2010-08-04T13:25:27Z</time>
      </trkpt>
      <trkpt lat="45.34398" lon="6.72456">
        <ele>2346.72</ele>
        <time>2010-08-04T13:25:30Z</time>
      </trkpt>
      <trkpt lat="45.34391" lon="6.72464">
        <ele>2346.23</ele>
        <time>2010-08-04T13:25:36Z</time>
      </trkpt>
      <trkpt lat="45.34382" lon="6.72466">
        <ele>2343.83</ele>
        <time>2010-08-04T13:25:44Z</time>
      </trkpt>
      <trkpt lat="45.3438" lon="6.72463">
        <ele>2342.39</ele>
        <time>2010-08-04T13:25:46Z</time>
      </trkpt>
      <trkpt lat="45.34377" lon="6.72453">
        <ele>2340.95</ele>
        <time>2010-08-04T13:25:51Z</time>
      </trkpt>
      <trkpt lat="45.34375" lon="6.72445">
        <ele>2337.1</ele>
        <time>2010-08-04T13:25:55Z</time>
      </trkpt>
      <trkpt lat="45.34371" lon="6.72439">
        <ele>2336.62</ele>
        <time>2010-08-04T13:25:59Z</time>
      </trkpt>
      <trkpt lat="45.34371" lon="6.72437">
        <ele>2336.62</ele>
        <time>2010-08-04T13:26:00Z</time>
      </trkpt>
      <trkpt lat="45.34368" lon="6.72436">
        <ele>2334.7</ele>
        <time>2010-08-04T13:26:02Z</time>
      </trkpt>
      <trkpt lat="45.34365" lon="6.72438">
        <ele>2334.7</ele>
        <time>2010-08-04T13:26:04Z</time>
      </trkpt>
      <trkpt lat="45.34362" lon="6.7244">
        <ele>2333.74</ele>
        <time>2010-08-04T13:26:06Z</time>
      </trkpt>
      <trkpt lat="45.34356" lon="6.72446">
        <ele>2331.81</ele>
        <time>2010-08-04T13:26:11Z</time>
      </trkpt>
      <trkpt lat="45.34351" lon="6.72453">
        <ele>2328.93</ele>
        <time>2010-08-04T13:26:15Z</time>
      </trkpt>
      <trkpt lat="45.34349" lon="6.72463">
        <ele>2330.85</ele>
        <time>2010-08-04T13:26:19Z</time>
      </trkpt>
      <trkpt lat="45.3435" lon="6.72469">
        <ele>2327.97</ele>
        <time>2010-08-04T13:26:23Z</time>
      </trkpt>
      <trkpt lat="45.34345" lon="6.72481">
        <ele>2326.53</ele>
        <time>2010-08-04T13:26:32Z</time>
      </trkpt>
      <trkpt lat="45.34343" lon="6.72479">
        <ele>2325.57</ele>
        <time>2010-08-04T13:26:34Z</time>
      </trkpt>
      <trkpt lat="45.34342" lon="6.72474">
        <ele>2323.64</ele>
        <time>2010-08-04T13:26:39Z</time>
      </trkpt>
      <trkpt lat="45.3434" lon="6.72483">
        <ele>2322.68</ele>
        <time>2010-08-04T13:26:44Z</time>
      </trkpt>
      <trkpt lat="45.34336" lon="6.72496">
        <ele>2320.28</ele>
        <time>2010-08-04T13:26:52Z</time>
      </trkpt>
      <trkpt lat="45.34322" lon="6.72504">
        <ele>2317.88</ele>
        <time>2010-08-04T13:27:01Z</time>
      </trkpt>
      <trkpt lat="45.3432" lon="6.72503">
        <ele>2315.95</ele>
        <time>2010-08-04T13:27:04Z</time>
      </trkpt>
      <trkpt lat="45.34322" lon="6.7249">
        <ele>2313.07</ele>
        <time>2010-08-04T13:27:10Z</time>
      </trkpt>
      <trkpt lat="45.34323" lon="6.72487">
        <ele>2313.55</ele>
        <time>2010-08-04T13:27:11Z</time>
      </trkpt>
      <trkpt lat="45.34323" lon="6.72471">
        <ele>2311.15</ele>
        <time>2010-08-04T13:27:19Z</time>
      </trkpt>
      <trkpt lat="45.34321" lon="6.72462">
        <ele>2307.78</ele>
        <time>2010-08-04T13:27:27Z</time>
      </trkpt>
      <trkpt lat="45.34321" lon="6.72457">
        <ele>2305.86</ele>
        <time>2010-08-04T13:27:32Z</time>
      </trkpt>
      <trkpt lat="45.34315" lon="6.72447">
        <ele>2303.94</ele>
        <time>2010-08-04T13:27:40Z</time>
      </trkpt>
      <trkpt lat="45.34314" lon="6.72438">
        <ele>2301.53</ele>
        <time>2010-08-04T13:27:46Z</time>
      </trkpt>
      <trkpt lat="45.34315" lon="6.72435">
        <ele>2299.61</ele>
        <time>2010-08-04T13:27:48Z</time>
      </trkpt>
      <trkpt lat="45.34314" lon="6.72432">
        <ele>2300.57</ele>
        <time>2010-08-04T13:27:50Z</time>
      </trkpt>
      <trkpt lat="45.34314" lon="6.72422">
        <ele>2295.77</ele>
        <time>2010-08-04T13:27:55Z</time>
      </trkpt>
      <trkpt lat="45.34314" lon="6.72421">
        <ele>2297.21</ele>
        <time>2010-08-04T13:27:56Z</time>
      </trkpt>
      <trkpt lat="45.34312" lon="6.72416">
        <ele>2296.25</ele>
        <time>2010-08-04T13:27:58Z</time>
      </trkpt>
      <trkpt lat="45.34316" lon="6.72406">
        <ele>2294.32</ele>
        <time>2010-08-04T13:28:04Z</time>
      </trkpt>
      <trkpt lat="45.34311" lon="6.72407">
        <ele>2293.84</ele>
        <time>2010-08-04T13:28:09Z</time>
      </trkpt>
      <trkpt lat="45.34313" lon="6.7239">
        <ele>2288.08</ele>
        <time>2010-08-04T13:28:18Z</time>
      </trkpt>
      <trkpt lat="45.34305" lon="6.72398">
        <ele>2286.63</ele>
        <time>2010-08-04T13:28:27Z</time>
      </trkpt>
      <trkpt lat="45.34304" lon="6.72398">
        <ele>2287.11</ele>
        <time>2010-08-04T13:28:29Z</time>
      </trkpt>
      <trkpt lat="45.34305" lon="6.7239">
        <ele>2284.71</ele>
        <time>2010-08-04T13:28:34Z</time>
      </trkpt>
      <trkpt lat="45.34308" lon="6.72384">
        <ele>2284.71</ele>
        <time>2010-08-04T13:28:38Z</time>
      </trkpt>
      <trkpt lat="45.34309" lon="6.72382">
        <ele>2284.71</ele>
        <time>2010-08-04T13:28:39Z</time>
      </trkpt>
      <trkpt lat="45.34312" lon="6.72372">
        <ele>2282.79</ele>
        <time>2010-08-04T13:28:44Z</time>
      </trkpt>
      <trkpt lat="45.34314" lon="6.72365">
        <ele>2278.94</ele>
        <time>2010-08-04T13:28:50Z</time>
      </trkpt>
      <trkpt lat="45.34312" lon="6.72364">
        <ele>2280.87</ele>
        <time>2010-08-04T13:28:52Z</time>
      </trkpt>
      <trkpt lat="45.34305" lon="6.72362">
        <ele>2277.02</ele>
        <time>2010-08-04T13:28:59Z</time>
      </trkpt>
      <trkpt lat="45.34307" lon="6.72355">
        <ele>2275.58</ele>
        <time>2010-08-04T13:29:04Z</time>
      </trkpt>
      <trkpt lat="45.34308" lon="6.7235">
        <ele>2275.58</ele>
        <time>2010-08-04T13:29:07Z</time>
      </trkpt>
      <trkpt lat="45.34312" lon="6.72342">
        <ele>2272.69</ele>
        <time>2010-08-04T13:29:13Z</time>
      </trkpt>
      <trkpt lat="45.34308" lon="6.72341">
        <ele>2269.33</ele>
        <time>2010-08-04T13:29:21Z</time>
      </trkpt>
      <trkpt lat="45.34308" lon="6.7234">
        <ele>2268.85</ele>
        <time>2010-08-04T13:29:22Z</time>
      </trkpt>
      <trkpt lat="45.34309" lon="6.72319">
        <ele>2265.48</ele>
        <time>2010-08-04T13:29:33Z</time>
      </trkpt>
      <trkpt lat="45.34309" lon="6.72317">
        <ele>2265.48</ele>
        <time>2010-08-04T13:29:34Z</time>
      </trkpt>
      <trkpt lat="45.34312" lon="6.72304">
        <ele>2265</ele>
        <time>2010-08-04T13:29:41Z</time>
      </trkpt>
      <trkpt lat="45.34315" lon="6.723">
        <ele>2262.6</ele>
        <time>2010-08-04T13:29:44Z</time>
      </trkpt>
      <trkpt lat="45.34315" lon="6.72297">
        <ele>2261.64</ele>
        <time>2010-08-04T13:29:46Z</time>
      </trkpt>
      <trkpt lat="45.34315" lon="6.7229">
        <ele>2259.72</ele>
        <time>2010-08-04T13:29:50Z</time>
      </trkpt>
      <trkpt lat="45.34314" lon="6.72288">
        <ele>2258.75</ele>
        <time>2010-08-04T13:29:52Z</time>
      </trkpt>
      <trkpt lat="45.34312" lon="6.72283">
        <ele>2257.79</ele>
        <time>2010-08-04T13:29:57Z</time>
      </trkpt>
      <trkpt lat="45.34312" lon="6.72279">
        <ele>2257.31</ele>
        <time>2010-08-04T13:29:59Z</time>
      </trkpt>
      <trkpt lat="45.34315" lon="6.72266">
        <ele>2253.47</ele>
        <time>2010-08-04T13:30:06Z</time>
      </trkpt>
      <trkpt lat="45.34322" lon="6.7226">
        <ele>2252.51</ele>
        <time>2010-08-04T13:30:10Z</time>
      </trkpt>
      <trkpt lat="45.34321" lon="6.7225">
        <ele>2249.14</ele>
        <time>2010-08-04T13:30:16Z</time>
      </trkpt>
      <trkpt lat="45.34321" lon="6.72248">
        <ele>2249.14</ele>
        <time>2010-08-04T13:30:17Z</time>
      </trkpt>
      <trkpt lat="45.34326" lon="6.72232">
        <ele>2250.1</ele>
        <time>2010-08-04T13:30:24Z</time>
      </trkpt>
      <trkpt lat="45.34328" lon="6.72225">
        <ele>2245.78</ele>
        <time>2010-08-04T13:30:28Z</time>
      </trkpt>
      <trkpt lat="45.34328" lon="6.72222">
        <ele>2245.3</ele>
        <time>2010-08-04T13:30:30Z</time>
      </trkpt>
      <trkpt lat="45.34327" lon="6.72202">
        <ele>2241.45</ele>
        <time>2010-08-04T13:30:38Z</time>
      </trkpt>
      <trkpt lat="45.34327" lon="6.72198">
        <ele>2240.97</ele>
        <time>2010-08-04T13:30:40Z</time>
      </trkpt>
      <trkpt lat="45.34326" lon="6.72192">
        <ele>2239.53</ele>
        <time>2010-08-04T13:30:43Z</time>
      </trkpt>
      <trkpt lat="45.34326" lon="6.72179">
        <ele>2236.16</ele>
        <time>2010-08-04T13:30:48Z</time>
      </trkpt>
      <trkpt lat="45.34325" lon="6.72178">
        <ele>2236.16</ele>
        <time>2010-08-04T13:30:49Z</time>
      </trkpt>
      <trkpt lat="45.34325" lon="6.72176">
        <ele>2237.13</ele>
        <time>2010-08-04T13:30:51Z</time>
      </trkpt>
      <trkpt lat="45.34328" lon="6.72163">
        <ele>2234.72</ele>
        <time>2010-08-04T13:30:56Z</time>
      </trkpt>
      <trkpt lat="45.34329" lon="6.72159">
        <ele>2233.28</ele>
        <time>2010-08-04T13:30:58Z</time>
      </trkpt>
      <trkpt lat="45.3433" lon="6.72155">
        <ele>2232.8</ele>
        <time>2010-08-04T13:31:00Z</time>
      </trkpt>
      <trkpt lat="45.34331" lon="6.72145">
        <ele>2229.92</ele>
        <time>2010-08-04T13:31:05Z</time>
      </trkpt>
      <trkpt lat="45.34332" lon="6.72143">
        <ele>2228.47</ele>
        <time>2010-08-04T13:31:06Z</time>
      </trkpt>
      <trkpt lat="45.34333" lon="6.72137">
        <ele>2227.03</ele>
        <time>2010-08-04T13:31:10Z</time>
      </trkpt>
      <trkpt lat="45.34333" lon="6.72135">
        <ele>2227.03</ele>
        <time>2010-08-04T13:31:11Z</time>
      </trkpt>
      <trkpt lat="45.34333" lon="6.72132">
        <ele>2225.11</ele>
        <time>2010-08-04T13:31:12Z</time>
      </trkpt>
      <trkpt lat="45.34335" lon="6.72124">
        <ele>2223.67</ele>
        <time>2010-08-04T13:31:17Z</time>
      </trkpt>
      <trkpt lat="45.34338" lon="6.72112">
        <ele>2221.74</ele>
        <time>2010-08-04T13:31:23Z</time>
      </trkpt>
      <trkpt lat="45.34342" lon="6.72106">
        <ele>2218.38</ele>
        <time>2010-08-04T13:31:28Z</time>
      </trkpt>
      <trkpt lat="45.34342" lon="6.72104">
        <ele>2217.9</ele>
        <time>2010-08-04T13:31:29Z</time>
      </trkpt>
      <trkpt lat="45.34344" lon="6.72095">
        <ele>2215.01</ele>
        <time>2010-08-04T13:31:34Z</time>
      </trkpt>
      <trkpt lat="45.34345" lon="6.72092">
        <ele>2215.5</ele>
        <time>2010-08-04T13:31:36Z</time>
      </trkpt>
      <trkpt lat="45.34333" lon="6.72092">
        <ele>2211.65</ele>
        <time>2010-08-04T13:31:45Z</time>
      </trkpt>
      <trkpt lat="45.34332" lon="6.72092">
        <ele>2212.13</ele>
        <time>2010-08-04T13:31:46Z</time>
      </trkpt>
      <trkpt lat="45.34325" lon="6.72094">
        <ele>2208.29</ele>
        <time>2010-08-04T13:31:53Z</time>
      </trkpt>
      <trkpt lat="45.34322" lon="6.72097">
        <ele>2207.81</ele>
        <time>2010-08-04T13:31:56Z</time>
      </trkpt>
      <trkpt lat="45.3432" lon="6.72104">
        <ele>2207.32</ele>
        <time>2010-08-04T13:32:00Z</time>
      </trkpt>
      <trkpt lat="45.34318" lon="6.72105">
        <ele>2205.88</ele>
        <time>2010-08-04T13:32:02Z</time>
      </trkpt>
      <trkpt lat="45.34316" lon="6.72105">
        <ele>2203.96</ele>
        <time>2010-08-04T13:32:03Z</time>
      </trkpt>
      <trkpt lat="45.34314" lon="6.72107">
        <ele>2203.48</ele>
        <time>2010-08-04T13:32:06Z</time>
      </trkpt>
      <trkpt lat="45.34308" lon="6.72111">
        <ele>2200.59</ele>
        <time>2010-08-04T13:32:11Z</time>
      </trkpt>
      <trkpt lat="45.34304" lon="6.72111">
        <ele>2200.11</ele>
        <time>2010-08-04T13:32:13Z</time>
      </trkpt>
      <trkpt lat="45.34296" lon="6.72113">
        <ele>2196.75</ele>
        <time>2010-08-04T13:32:19Z</time>
      </trkpt>
      <trkpt lat="45.34295" lon="6.72105">
        <ele>2196.27</ele>
        <time>2010-08-04T13:32:23Z</time>
      </trkpt>
      <trkpt lat="45.34295" lon="6.72095">
        <ele>2195.79</ele>
        <time>2010-08-04T13:32:27Z</time>
      </trkpt>
      <trkpt lat="45.34297" lon="6.72082">
        <ele>2193.39</ele>
        <time>2010-08-04T13:32:32Z</time>
      </trkpt>
      <trkpt lat="45.34297" lon="6.72079">
        <ele>2192.9</ele>
        <time>2010-08-04T13:32:33Z</time>
      </trkpt>
      <trkpt lat="45.34297" lon="6.72073">
        <ele>2191.94</ele>
        <time>2010-08-04T13:32:35Z</time>
      </trkpt>
      <trkpt lat="45.34302" lon="6.72058">
        <ele>2190.02</ele>
        <time>2010-08-04T13:32:41Z</time>
      </trkpt>
      <trkpt lat="45.34308" lon="6.72051">
        <ele>2187.14</ele>
        <time>2010-08-04T13:32:45Z</time>
      </trkpt>
      <trkpt lat="45.34306" lon="6.72038">
        <ele>2188.1</ele>
        <time>2010-08-04T13:32:53Z</time>
      </trkpt>
      <trkpt lat="45.34311" lon="6.72027">
        <ele>2187.14</ele>
        <time>2010-08-04T13:32:58Z</time>
      </trkpt>
      <trkpt lat="45.34313" lon="6.72018">
        <ele>2184.73</ele>
        <time>2010-08-04T13:33:02Z</time>
      </trkpt>
      <trkpt lat="45.34315" lon="6.72014">
        <ele>2183.29</ele>
        <time>2010-08-04T13:33:04Z</time>
      </trkpt>
      <trkpt lat="45.34322" lon="6.72001">
        <ele>2181.85</ele>
        <time>2010-08-04T13:33:12Z</time>
      </trkpt>
      <trkpt lat="45.34325" lon="6.71999">
        <ele>2180.89</ele>
        <time>2010-08-04T13:33:14Z</time>
      </trkpt>
      <trkpt lat="45.34328" lon="6.71999">
        <ele>2179.45</ele>
        <time>2010-08-04T13:33:16Z</time>
      </trkpt>
      <trkpt lat="45.34335" lon="6.71991">
        <ele>2177.04</ele>
        <time>2010-08-04T13:33:22Z</time>
      </trkpt>
      <trkpt lat="45.34339" lon="6.71989">
        <ele>2178</ele>
        <time>2010-08-04T13:33:24Z</time>
      </trkpt>
      <trkpt lat="45.34344" lon="6.71978">
        <ele>2174.64</ele>
        <time>2010-08-04T13:33:30Z</time>
      </trkpt>
      <trkpt lat="45.34345" lon="6.71977">
        <ele>2174.64</ele>
        <time>2010-08-04T13:33:31Z</time>
      </trkpt>
      <trkpt lat="45.34353" lon="6.71967">
        <ele>2170.79</ele>
        <time>2010-08-04T13:33:37Z</time>
      </trkpt>
      <trkpt lat="45.34358" lon="6.71962">
        <ele>2170.79</ele>
        <time>2010-08-04T13:33:40Z</time>
      </trkpt>
      <trkpt lat="45.34362" lon="6.71956">
        <ele>2168.39</ele>
        <time>2010-08-04T13:33:43Z</time>
      </trkpt>
      <trkpt lat="45.34365" lon="6.71946">
        <ele>2167.43</ele>
        <time>2010-08-04T13:33:48Z</time>
      </trkpt>
      <trkpt lat="45.34367" lon="6.71938">
        <ele>2164.55</ele>
        <time>2010-08-04T13:33:51Z</time>
      </trkpt>
      <trkpt lat="45.34372" lon="6.7193">
        <ele>2164.06</ele>
        <time>2010-08-04T13:33:55Z</time>
      </trkpt>
      <trkpt lat="45.34374" lon="6.71928">
        <ele>2162.62</ele>
        <time>2010-08-04T13:33:56Z</time>
      </trkpt>
      <trkpt lat="45.34382" lon="6.71917">
        <ele>2159.26</ele>
        <time>2010-08-04T13:34:01Z</time>
      </trkpt>
      <trkpt lat="45.34384" lon="6.71914">
        <ele>2159.74</ele>
        <time>2010-08-04T13:34:02Z</time>
      </trkpt>
      <trkpt lat="45.34387" lon="6.71909">
        <ele>2158.78</ele>
        <time>2010-08-04T13:34:04Z</time>
      </trkpt>
      <trkpt lat="45.34393" lon="6.71906">
        <ele>2156.37</ele>
        <time>2010-08-04T13:34:07Z</time>
      </trkpt>
      <trkpt lat="45.34405" lon="6.71889">
        <ele>2153.97</ele>
        <time>2010-08-04T13:34:15Z</time>
      </trkpt>
      <trkpt lat="45.34407" lon="6.71882">
        <ele>2151.57</ele>
        <time>2010-08-04T13:34:17Z</time>
      </trkpt>
      <trkpt lat="45.3441" lon="6.71875">
        <ele>2150.13</ele>
        <time>2010-08-04T13:34:20Z</time>
      </trkpt>
      <trkpt lat="45.34416" lon="6.71863">
        <ele>2145.8</ele>
        <time>2010-08-04T13:34:26Z</time>
      </trkpt>
      <trkpt lat="45.34417" lon="6.7186">
        <ele>2146.76</ele>
        <time>2010-08-04T13:34:27Z</time>
      </trkpt>
      <trkpt lat="45.34422" lon="6.7185">
        <ele>2143.88</ele>
        <time>2010-08-04T13:34:32Z</time>
      </trkpt>
      <trkpt lat="45.34429" lon="6.71834">
        <ele>2140.51</ele>
        <time>2010-08-04T13:34:39Z</time>
      </trkpt>
      <trkpt lat="45.34433" lon="6.71829">
        <ele>2137.15</ele>
        <time>2010-08-04T13:34:43Z</time>
      </trkpt>
      <trkpt lat="45.34441" lon="6.71811">
        <ele>2133.78</ele>
        <time>2010-08-04T13:34:50Z</time>
      </trkpt>
      <trkpt lat="45.34443" lon="6.71807">
        <ele>2132.82</ele>
        <time>2010-08-04T13:34:52Z</time>
      </trkpt>
      <trkpt lat="45.34448" lon="6.71797">
        <ele>2129.94</ele>
        <time>2010-08-04T13:34:57Z</time>
      </trkpt>
      <trkpt lat="45.34451" lon="6.71789">
        <ele>2128.5</ele>
        <time>2010-08-04T13:35:00Z</time>
      </trkpt>
      <trkpt lat="45.34453" lon="6.71785">
        <ele>2127.05</ele>
        <time>2010-08-04T13:35:02Z</time>
      </trkpt>
      <trkpt lat="45.34459" lon="6.71775">
        <ele>2123.69</ele>
        <time>2010-08-04T13:35:07Z</time>
      </trkpt>
      <trkpt lat="45.34461" lon="6.71771">
        <ele>2123.21</ele>
        <time>2010-08-04T13:35:09Z</time>
      </trkpt>
      <trkpt lat="45.34461" lon="6.71769">
        <ele>2123.21</ele>
        <time>2010-08-04T13:35:10Z</time>
      </trkpt>
      <trkpt lat="45.34465" lon="6.71756">
        <ele>2120.81</ele>
        <time>2010-08-04T13:35:16Z</time>
      </trkpt>
      <trkpt lat="45.3447" lon="6.71738">
        <ele>2116</ele>
        <time>2010-08-04T13:35:23Z</time>
      </trkpt>
      <trkpt lat="45.34471" lon="6.71735">
        <ele>2115.52</ele>
        <time>2010-08-04T13:35:24Z</time>
      </trkpt>
      <trkpt lat="45.34477" lon="6.71731">
        <ele>2113.12</ele>
        <time>2010-08-04T13:35:28Z</time>
      </trkpt>
      <trkpt lat="45.34482" lon="6.71724">
        <ele>2111.67</ele>
        <time>2010-08-04T13:35:33Z</time>
      </trkpt>
      <trkpt lat="45.34485" lon="6.71715">
        <ele>2107.35</ele>
        <time>2010-08-04T13:35:39Z</time>
      </trkpt>
      <trkpt lat="45.34487" lon="6.71714">
        <ele>2107.35</ele>
        <time>2010-08-04T13:35:40Z</time>
      </trkpt>
      <trkpt lat="45.34489" lon="6.71713">
        <ele>2104.94</ele>
        <time>2010-08-04T13:35:41Z</time>
      </trkpt>
      <trkpt lat="45.34506" lon="6.71711">
        <ele>2103.5</ele>
        <time>2010-08-04T13:35:50Z</time>
      </trkpt>
      <trkpt lat="45.34508" lon="6.71705">
        <ele>2102.06</ele>
        <time>2010-08-04T13:35:53Z</time>
      </trkpt>
      <trkpt lat="45.34509" lon="6.71696">
        <ele>2098.7</ele>
        <time>2010-08-04T13:35:58Z</time>
      </trkpt>
      <trkpt lat="45.3451" lon="6.71683">
        <ele>2094.85</ele>
        <time>2010-08-04T13:36:05Z</time>
      </trkpt>
      <trkpt lat="45.34515" lon="6.71669">
        <ele>2092.93</ele>
        <time>2010-08-04T13:36:12Z</time>
      </trkpt>
      <trkpt lat="45.34519" lon="6.71669">
        <ele>2092.45</ele>
        <time>2010-08-04T13:36:14Z</time>
      </trkpt>
      <trkpt lat="45.34525" lon="6.71658">
        <ele>2088.6</ele>
        <time>2010-08-04T13:36:19Z</time>
      </trkpt>
      <trkpt lat="45.3453" lon="6.71652">
        <ele>2088.12</ele>
        <time>2010-08-04T13:36:22Z</time>
      </trkpt>
      <trkpt lat="45.34538" lon="6.71634">
        <ele>2084.28</ele>
        <time>2010-08-04T13:36:31Z</time>
      </trkpt>
      <trkpt lat="45.34541" lon="6.7163">
        <ele>2082.83</ele>
        <time>2010-08-04T13:36:33Z</time>
      </trkpt>
      <trkpt lat="45.34546" lon="6.71626">
        <ele>2081.39</ele>
        <time>2010-08-04T13:36:35Z</time>
      </trkpt>
      <trkpt lat="45.34548" lon="6.71622">
        <ele>2080.91</ele>
        <time>2010-08-04T13:36:37Z</time>
      </trkpt>
      <trkpt lat="45.3455" lon="6.71614">
        <ele>2079.47</ele>
        <time>2010-08-04T13:36:40Z</time>
      </trkpt>
      <trkpt lat="45.34549" lon="6.716">
        <ele>2078.51</ele>
        <time>2010-08-04T13:36:45Z</time>
      </trkpt>
      <trkpt lat="45.34551" lon="6.71584">
        <ele>2076.59</ele>
        <time>2010-08-04T13:36:52Z</time>
      </trkpt>
      <trkpt lat="45.34547" lon="6.71589">
        <ele>2074.66</ele>
        <time>2010-08-04T13:36:55Z</time>
      </trkpt>
      <trkpt lat="45.34543" lon="6.71592">
        <ele>2075.14</ele>
        <time>2010-08-04T13:36:57Z</time>
      </trkpt>
      <trkpt lat="45.34536" lon="6.71592">
        <ele>2069.86</ele>
        <time>2010-08-04T13:37:01Z</time>
      </trkpt>
      <trkpt lat="45.34534" lon="6.71592">
        <ele>2071.78</ele>
        <time>2010-08-04T13:37:02Z</time>
      </trkpt>
      <trkpt lat="45.34526" lon="6.71596">
        <ele>2067.93</ele>
        <time>2010-08-04T13:37:06Z</time>
      </trkpt>
      <trkpt lat="45.34516" lon="6.71593">
        <ele>2066.49</ele>
        <time>2010-08-04T13:37:12Z</time>
      </trkpt>
      <trkpt lat="45.34512" lon="6.71588">
        <ele>2067.45</ele>
        <time>2010-08-04T13:37:15Z</time>
      </trkpt>
      <trkpt lat="45.34509" lon="6.71582">
        <ele>2063.13</ele>
        <time>2010-08-04T13:37:17Z</time>
      </trkpt>
      <trkpt lat="45.34505" lon="6.71572">
        <ele>2061.2</ele>
        <time>2010-08-04T13:37:21Z</time>
      </trkpt>
      <trkpt lat="45.34503" lon="6.71567">
        <ele>2060.24</ele>
        <time>2010-08-04T13:37:23Z</time>
      </trkpt>
      <trkpt lat="45.34504" lon="6.71551">
        <ele>2057.36</ele>
        <time>2010-08-04T13:37:29Z</time>
      </trkpt>
      <trkpt lat="45.34505" lon="6.71541">
        <ele>2053.99</ele>
        <time>2010-08-04T13:37:33Z</time>
      </trkpt>
      <trkpt lat="45.34504" lon="6.71541">
        <ele>2055.44</ele>
        <time>2010-08-04T13:37:34Z</time>
      </trkpt>
      <trkpt lat="45.34499" lon="6.71545">
        <ele>2053.03</ele>
        <time>2010-08-04T13:37:38Z</time>
      </trkpt>
      <trkpt lat="45.34499" lon="6.71536">
        <ele>2052.07</ele>
        <time>2010-08-04T13:37:43Z</time>
      </trkpt>
      <trkpt lat="45.34495" lon="6.71534">
        <ele>2049.67</ele>
        <time>2010-08-04T13:37:51Z</time>
      </trkpt>
      <trkpt lat="45.34495" lon="6.71535">
        <ele>2048.71</ele>
        <time>2010-08-04T13:37:52Z</time>
      </trkpt>
      <trkpt lat="45.34492" lon="6.71539">
        <ele>2048.23</ele>
        <time>2010-08-04T13:37:54Z</time>
      </trkpt>
      <trkpt lat="45.34494" lon="6.71525">
        <ele>2045.82</ele>
        <time>2010-08-04T13:38:01Z</time>
      </trkpt>
      <trkpt lat="45.34499" lon="6.7152">
        <ele>2042.94</ele>
        <time>2010-08-04T13:38:05Z</time>
      </trkpt>
      <trkpt lat="45.34496" lon="6.71517">
        <ele>2043.42</ele>
        <time>2010-08-04T13:38:10Z</time>
      </trkpt>
      <trkpt lat="45.3449" lon="6.71514">
        <ele>2043.9</ele>
        <time>2010-08-04T13:38:15Z</time>
      </trkpt>
      <trkpt lat="45.34493" lon="6.71496">
        <ele>2043.9</ele>
        <time>2010-08-04T13:38:24Z</time>
      </trkpt>
      <trkpt lat="45.34491" lon="6.71495">
        <ele>2044.86</ele>
        <time>2010-08-04T13:38:33Z</time>
      </trkpt>
      <trkpt lat="45.34489" lon="6.71488">
        <ele>2043.9</ele>
        <time>2010-08-04T13:39:05Z</time>
      </trkpt>
      <trkpt lat="45.34486" lon="6.71481">
        <ele>2041.98</ele>
        <time>2010-08-04T13:39:09Z</time>
      </trkpt>
      <trkpt lat="45.34485" lon="6.71479">
        <ele>2043.9</ele>
        <time>2010-08-04T13:39:11Z</time>
      </trkpt>
      <trkpt lat="45.34482" lon="6.71474">
        <ele>2042.94</ele>
        <time>2010-08-04T13:39:18Z</time>
      </trkpt>
      <trkpt lat="45.34482" lon="6.7147">
        <ele>2041.5</ele>
        <time>2010-08-04T13:39:21Z</time>
      </trkpt>
      <trkpt lat="45.34482" lon="6.71469">
        <ele>2041.02</ele>
        <time>2010-08-04T13:39:22Z</time>
      </trkpt>
      <trkpt lat="45.34484" lon="6.71466">
        <ele>2041.5</ele>
        <time>2010-08-04T13:39:24Z</time>
      </trkpt>
      <trkpt lat="45.34483" lon="6.71459">
        <ele>2040.05</ele>
        <time>2010-08-04T13:39:27Z</time>
      </trkpt>
      <trkpt lat="45.34482" lon="6.71455">
        <ele>2040.54</ele>
        <time>2010-08-04T13:39:28Z</time>
      </trkpt>
      <trkpt lat="45.34482" lon="6.71446">
        <ele>2038.13</ele>
        <time>2010-08-04T13:39:32Z</time>
      </trkpt>
      <trkpt lat="45.34482" lon="6.71443">
        <ele>2039.09</ele>
        <time>2010-08-04T13:39:34Z</time>
      </trkpt>
      <trkpt lat="45.34482" lon="6.71436">
        <ele>2039.09</ele>
        <time>2010-08-04T13:39:38Z</time>
      </trkpt>
      <trkpt lat="45.34481" lon="6.71428">
        <ele>2038.61</ele>
        <time>2010-08-04T13:39:46Z</time>
      </trkpt>
      <trkpt lat="45.34484" lon="6.71426">
        <ele>2039.09</ele>
        <time>2010-08-04T13:39:53Z</time>
      </trkpt>
      <trkpt lat="45.34484" lon="6.71421">
        <ele>2039.09</ele>
        <time>2010-08-04T13:39:57Z</time>
      </trkpt>
      <trkpt lat="45.34485" lon="6.71412">
        <ele>2040.05</ele>
        <time>2010-08-04T13:40:05Z</time>
      </trkpt>
      <trkpt lat="45.34491" lon="6.71403">
        <ele>2041.02</ele>
        <time>2010-08-04T13:40:21Z</time>
      </trkpt>
      <trkpt lat="45.34492" lon="6.71394">
        <ele>2041.98</ele>
        <time>2010-08-04T13:40:31Z</time>
      </trkpt>
      <trkpt lat="45.34492" lon="6.71393">
        <ele>2041.98</ele>
        <time>2010-08-04T13:40:32Z</time>
      </trkpt>
      <trkpt lat="45.34492" lon="6.71391">
        <ele>2041.98</ele>
        <time>2010-08-04T13:40:33Z</time>
      </trkpt>
      <trkpt lat="45.34495" lon="6.71383">
        <ele>2043.42</ele>
        <time>2010-08-04T13:40:40Z</time>
      </trkpt>
      <trkpt lat="45.34497" lon="6.71375">
        <ele>2042.94</ele>
        <time>2010-08-04T13:40:47Z</time>
      </trkpt>
      <trkpt lat="45.34501" lon="6.71357">
        <ele>2042.94</ele>
        <time>2010-08-04T13:40:57Z</time>
      </trkpt>
      <trkpt lat="45.34502" lon="6.71352">
        <ele>2042.94</ele>
        <time>2010-08-04T13:40:59Z</time>
      </trkpt>
      <trkpt lat="45.34508" lon="6.71339">
        <ele>2043.9</ele>
        <time>2010-08-04T13:41:05Z</time>
      </trkpt>
      <trkpt lat="45.34511" lon="6.7132">
        <ele>2044.38</ele>
        <time>2010-08-04T13:41:15Z</time>
      </trkpt>
      <trkpt lat="45.34512" lon="6.71307">
        <ele>2043.9</ele>
        <time>2010-08-04T13:41:26Z</time>
      </trkpt>
      <trkpt lat="45.34514" lon="6.71304">
        <ele>2042.94</ele>
        <time>2010-08-04T13:41:36Z</time>
      </trkpt>
      <trkpt lat="45.34516" lon="6.71297">
        <ele>2042.46</ele>
        <time>2010-08-04T13:41:52Z</time>
      </trkpt>
      <trkpt lat="45.34518" lon="6.71292">
        <ele>2041.5</ele>
        <time>2010-08-04T13:41:55Z</time>
      </trkpt>
      <trkpt lat="45.34521" lon="6.71287">
        <ele>2040.54</ele>
        <time>2010-08-04T13:42:01Z</time>
      </trkpt>
      <trkpt lat="45.34523" lon="6.7128">
        <ele>2040.05</ele>
        <time>2010-08-04T13:42:05Z</time>
      </trkpt>
      <trkpt lat="45.34528" lon="6.71251">
        <ele>2038.13</ele>
        <time>2010-08-04T13:42:15Z</time>
      </trkpt>
      <trkpt lat="45.34529" lon="6.71237">
        <ele>2035.73</ele>
        <time>2010-08-04T13:42:19Z</time>
      </trkpt>
      <trkpt lat="45.34528" lon="6.71231">
        <ele>2036.21</ele>
        <time>2010-08-04T13:42:21Z</time>
      </trkpt>
      <trkpt lat="45.34534" lon="6.71221">
        <ele>2034.77</ele>
        <time>2010-08-04T13:42:25Z</time>
      </trkpt>
      <trkpt lat="45.34538" lon="6.71212">
        <ele>2031.88</ele>
        <time>2010-08-04T13:42:28Z</time>
      </trkpt>
      <trkpt lat="45.34544" lon="6.71197">
        <ele>2030.92</ele>
        <time>2010-08-04T13:42:34Z</time>
      </trkpt>
      <trkpt lat="45.34545" lon="6.71191">
        <ele>2029.48</ele>
        <time>2010-08-04T13:42:36Z</time>
      </trkpt>
      <trkpt lat="45.34548" lon="6.71185">
        <ele>2028.52</ele>
        <time>2010-08-04T13:42:38Z</time>
      </trkpt>
      <trkpt lat="45.3455" lon="6.71178">
        <ele>2028.52</ele>
        <time>2010-08-04T13:42:40Z</time>
      </trkpt>
      <trkpt lat="45.34548" lon="6.71161">
        <ele>2027.08</ele>
        <time>2010-08-04T13:42:47Z</time>
      </trkpt>
      <trkpt lat="45.34545" lon="6.7114">
        <ele>2022.75</ele>
        <time>2010-08-04T13:42:54Z</time>
      </trkpt>
      <trkpt lat="45.34542" lon="6.71131">
        <ele>2021.79</ele>
        <time>2010-08-04T13:42:58Z</time>
      </trkpt>
      <trkpt lat="45.34541" lon="6.71125">
        <ele>2019.87</ele>
        <time>2010-08-04T13:43:00Z</time>
      </trkpt>
      <trkpt lat="45.3454" lon="6.71117">
        <ele>2017.46</ele>
        <time>2010-08-04T13:43:03Z</time>
      </trkpt>
      <trkpt lat="45.3454" lon="6.71106">
        <ele>2016.5</ele>
        <time>2010-08-04T13:43:07Z</time>
      </trkpt>
      <trkpt lat="45.34534" lon="6.71097">
        <ele>2013.14</ele>
        <time>2010-08-04T13:43:12Z</time>
      </trkpt>
      <trkpt lat="45.34541" lon="6.71093">
        <ele>2009.29</ele>
        <time>2010-08-04T13:43:16Z</time>
      </trkpt>
      <trkpt lat="45.34543" lon="6.71091">
        <ele>2011.7</ele>
        <time>2010-08-04T13:43:17Z</time>
      </trkpt>
      <trkpt lat="45.3455" lon="6.71087">
        <ele>2008.81</ele>
        <time>2010-08-04T13:43:21Z</time>
      </trkpt>
      <trkpt lat="45.34553" lon="6.71085">
        <ele>2007.85</ele>
        <time>2010-08-04T13:43:23Z</time>
      </trkpt>
      <trkpt lat="45.34553" lon="6.71078">
        <ele>2006.41</ele>
        <time>2010-08-04T13:43:26Z</time>
      </trkpt>
      <trkpt lat="45.3455" lon="6.71072">
        <ele>2003.04</ele>
        <time>2010-08-04T13:43:29Z</time>
      </trkpt>
      <trkpt lat="45.34547" lon="6.7107">
        <ele>2003.52</ele>
        <time>2010-08-04T13:43:32Z</time>
      </trkpt>
      <trkpt lat="45.34554" lon="6.71066">
        <ele>2001.12</ele>
        <time>2010-08-04T13:43:36Z</time>
      </trkpt>
      <trkpt lat="45.34556" lon="6.71063">
        <ele>1999.68</ele>
        <time>2010-08-04T13:43:39Z</time>
      </trkpt>
      <trkpt lat="45.34552" lon="6.71059">
        <ele>1998.24</ele>
        <time>2010-08-04T13:43:42Z</time>
      </trkpt>
      <trkpt lat="45.34551" lon="6.71057">
        <ele>1995.83</ele>
        <time>2010-08-04T13:43:44Z</time>
      </trkpt>
      <trkpt lat="45.34548" lon="6.71054">
        <ele>1994.87</ele>
        <time>2010-08-04T13:43:46Z</time>
      </trkpt>
      <trkpt lat="45.34546" lon="6.71051">
        <ele>1994.39</ele>
        <time>2010-08-04T13:43:48Z</time>
      </trkpt>
      <trkpt lat="45.34541" lon="6.7105">
        <ele>1991.99</ele>
        <time>2010-08-04T13:43:51Z</time>
      </trkpt>
      <trkpt lat="45.34539" lon="6.71049">
        <ele>1991.99</ele>
        <time>2010-08-04T13:43:52Z</time>
      </trkpt>
      <trkpt lat="45.34537" lon="6.71048">
        <ele>1989.1</ele>
        <time>2010-08-04T13:43:54Z</time>
      </trkpt>
      <trkpt lat="45.34534" lon="6.71047">
        <ele>1988.62</ele>
        <time>2010-08-04T13:43:56Z</time>
      </trkpt>
      <trkpt lat="45.3453" lon="6.71044">
        <ele>1986.7</ele>
        <time>2010-08-04T13:43:58Z</time>
      </trkpt>
      <trkpt lat="45.34529" lon="6.71043">
        <ele>1985.74</ele>
        <time>2010-08-04T13:43:59Z</time>
      </trkpt>
      <trkpt lat="45.34524" lon="6.71038">
        <ele>1986.22</ele>
        <time>2010-08-04T13:44:03Z</time>
      </trkpt>
      <trkpt lat="45.34518" lon="6.71035">
        <ele>1982.38</ele>
        <time>2010-08-04T13:44:07Z</time>
      </trkpt>
      <trkpt lat="45.34509" lon="6.71017">
        <ele>1979.49</ele>
        <time>2010-08-04T13:44:14Z</time>
      </trkpt>
      <trkpt lat="45.34507" lon="6.71011">
        <ele>1978.53</ele>
        <time>2010-08-04T13:44:16Z</time>
      </trkpt>
      <trkpt lat="45.34509" lon="6.71002">
        <ele>1974.2</ele>
        <time>2010-08-04T13:44:22Z</time>
      </trkpt>
      <trkpt lat="45.34511" lon="6.71002">
        <ele>1974.2</ele>
        <time>2010-08-04T13:44:24Z</time>
      </trkpt>
      <trkpt lat="45.34524" lon="6.70993">
        <ele>1971.32</ele>
        <time>2010-08-04T13:44:31Z</time>
      </trkpt>
      <trkpt lat="45.3453" lon="6.70991">
        <ele>1969.4</ele>
        <time>2010-08-04T13:44:34Z</time>
      </trkpt>
      <trkpt lat="45.34544" lon="6.70988">
        <ele>1967.96</ele>
        <time>2010-08-04T13:44:40Z</time>
      </trkpt>
      <trkpt lat="45.34546" lon="6.70975">
        <ele>1964.11</ele>
        <time>2010-08-04T13:44:47Z</time>
      </trkpt>
      <trkpt lat="45.34542" lon="6.70958">
        <ele>1961.23</ele>
        <time>2010-08-04T13:44:53Z</time>
      </trkpt>
      <trkpt lat="45.34543" lon="6.70957">
        <ele>1961.71</ele>
        <time>2010-08-04T13:44:54Z</time>
      </trkpt>
      <trkpt lat="45.34542" lon="6.7095">
        <ele>1958.82</ele>
        <time>2010-08-04T13:44:57Z</time>
      </trkpt>
      <trkpt lat="45.34533" lon="6.7095">
        <ele>1957.38</ele>
        <time>2010-08-04T13:45:03Z</time>
      </trkpt>
      <trkpt lat="45.3452" lon="6.7094">
        <ele>1953.06</ele>
        <time>2010-08-04T13:45:12Z</time>
      </trkpt>
      <trkpt lat="45.34518" lon="6.70939">
        <ele>1953.54</ele>
        <time>2010-08-04T13:45:13Z</time>
      </trkpt>
      <trkpt lat="45.34514" lon="6.7094">
        <ele>1952.57</ele>
        <time>2010-08-04T13:45:15Z</time>
      </trkpt>
      <trkpt lat="45.34501" lon="6.70936">
        <ele>1949.69</ele>
        <time>2010-08-04T13:45:23Z</time>
      </trkpt>
      <trkpt lat="45.34499" lon="6.70936">
        <ele>1948.25</ele>
        <time>2010-08-04T13:45:24Z</time>
      </trkpt>
      <trkpt lat="45.34483" lon="6.70919">
        <ele>1945.85</ele>
        <time>2010-08-04T13:45:33Z</time>
      </trkpt>
      <trkpt lat="45.3448" lon="6.70916">
        <ele>1945.85</ele>
        <time>2010-08-04T13:45:35Z</time>
      </trkpt>
      <trkpt lat="45.34473" lon="6.70903">
        <ele>1942.96</ele>
        <time>2010-08-04T13:45:40Z</time>
      </trkpt>
      <trkpt lat="45.34462" lon="6.70889">
        <ele>1940.56</ele>
        <time>2010-08-04T13:45:48Z</time>
      </trkpt>
      <trkpt lat="45.34457" lon="6.70882">
        <ele>1939.6</ele>
        <time>2010-08-04T13:45:54Z</time>
      </trkpt>
      <trkpt lat="45.34448" lon="6.7086">
        <ele>1937.67</ele>
        <time>2010-08-04T13:46:02Z</time>
      </trkpt>
      <trkpt lat="45.34448" lon="6.70857">
        <ele>1937.67</ele>
        <time>2010-08-04T13:46:03Z</time>
      </trkpt>
      <trkpt lat="45.34448" lon="6.70854">
        <ele>1937.19</ele>
        <time>2010-08-04T13:46:04Z</time>
      </trkpt>
      <trkpt lat="45.3445" lon="6.70841">
        <ele>1938.16</ele>
        <time>2010-08-04T13:46:08Z</time>
      </trkpt>
      <trkpt lat="45.34451" lon="6.70832">
        <ele>1937.67</ele>
        <time>2010-08-04T13:46:12Z</time>
      </trkpt>
      <trkpt lat="45.34448" lon="6.70823">
        <ele>1934.79</ele>
        <time>2010-08-04T13:46:17Z</time>
      </trkpt>
      <trkpt lat="45.34445" lon="6.70814">
        <ele>1933.83</ele>
        <time>2010-08-04T13:46:22Z</time>
      </trkpt>
      <trkpt lat="45.34443" lon="6.70811">
        <ele>1931.91</ele>
        <time>2010-08-04T13:46:25Z</time>
      </trkpt>
      <trkpt lat="45.34443" lon="6.70808">
        <ele>1932.87</ele>
        <time>2010-08-04T13:46:27Z</time>
      </trkpt>
      <trkpt lat="45.34444" lon="6.70796">
        <ele>1931.91</ele>
        <time>2010-08-04T13:46:33Z</time>
      </trkpt>
      <trkpt lat="45.34444" lon="6.70788">
        <ele>1930.95</ele>
        <time>2010-08-04T13:46:37Z</time>
      </trkpt>
      <trkpt lat="45.34445" lon="6.70778">
        <ele>1929.02</ele>
        <time>2010-08-04T13:46:41Z</time>
      </trkpt>
      <trkpt lat="45.34446" lon="6.70775">
        <ele>1929.02</ele>
        <time>2010-08-04T13:46:42Z</time>
      </trkpt>
      <trkpt lat="45.34452" lon="6.70756">
        <ele>1929.98</ele>
        <time>2010-08-04T13:46:48Z</time>
      </trkpt>
      <trkpt lat="45.34453" lon="6.7075">
        <ele>1926.14</ele>
        <time>2010-08-04T13:46:50Z</time>
      </trkpt>
      <trkpt lat="45.34456" lon="6.70736">
        <ele>1924.7</ele>
        <time>2010-08-04T13:46:54Z</time>
      </trkpt>
      <trkpt lat="45.34458" lon="6.70722">
        <ele>1925.66</ele>
        <time>2010-08-04T13:46:58Z</time>
      </trkpt>
      <trkpt lat="45.34456" lon="6.70712">
        <ele>1923.74</ele>
        <time>2010-08-04T13:47:01Z</time>
      </trkpt>
      <trkpt lat="45.34456" lon="6.70709">
        <ele>1922.29</ele>
        <time>2010-08-04T13:47:02Z</time>
      </trkpt>
      <trkpt lat="45.3446" lon="6.70698">
        <ele>1922.29</ele>
        <time>2010-08-04T13:47:07Z</time>
      </trkpt>
      <trkpt lat="45.3446" lon="6.70694">
        <ele>1920.37</ele>
        <time>2010-08-04T13:47:09Z</time>
      </trkpt>
      <trkpt lat="45.34471" lon="6.7069">
        <ele>1917.97</ele>
        <time>2010-08-04T13:47:16Z</time>
      </trkpt>
      <trkpt lat="45.34477" lon="6.70686">
        <ele>1916.53</ele>
        <time>2010-08-04T13:47:22Z</time>
      </trkpt>
      <trkpt lat="45.34484" lon="6.70686">
        <ele>1913.16</ele>
        <time>2010-08-04T13:47:28Z</time>
      </trkpt>
      <trkpt lat="45.34486" lon="6.70686">
        <ele>1913.64</ele>
        <time>2010-08-04T13:47:29Z</time>
      </trkpt>
      <trkpt lat="45.34492" lon="6.70694">
        <ele>1912.68</ele>
        <time>2010-08-04T13:47:34Z</time>
      </trkpt>
      <trkpt lat="45.34501" lon="6.70699">
        <ele>1909.8</ele>
        <time>2010-08-04T13:47:39Z</time>
      </trkpt>
      <trkpt lat="45.34513" lon="6.70699">
        <ele>1906.43</ele>
        <time>2010-08-04T13:47:47Z</time>
      </trkpt>
      <trkpt lat="45.34515" lon="6.70697">
        <ele>1903.55</ele>
        <time>2010-08-04T13:47:50Z</time>
      </trkpt>
      <trkpt lat="45.34514" lon="6.70697">
        <ele>1904.99</ele>
        <time>2010-08-04T13:47:51Z</time>
      </trkpt>
      <trkpt lat="45.34513" lon="6.70695">
        <ele>1903.55</ele>
        <time>2010-08-04T13:47:53Z</time>
      </trkpt>
      <trkpt lat="45.34512" lon="6.70681">
        <ele>1900.66</ele>
        <time>2010-08-04T13:48:00Z</time>
      </trkpt>
      <trkpt lat="45.34511" lon="6.70675">
        <ele>1898.74</ele>
        <time>2010-08-04T13:48:04Z</time>
      </trkpt>
      <trkpt lat="45.34511" lon="6.70667">
        <ele>1896.82</ele>
        <time>2010-08-04T13:48:10Z</time>
      </trkpt>
      <trkpt lat="45.34508" lon="6.70661">
        <ele>1895.38</ele>
        <time>2010-08-04T13:48:13Z</time>
      </trkpt>
      <trkpt lat="45.34507" lon="6.70657">
        <ele>1893.93</ele>
        <time>2010-08-04T13:48:16Z</time>
      </trkpt>
      <trkpt lat="45.34506" lon="6.70652">
        <ele>1892.97</ele>
        <time>2010-08-04T13:48:18Z</time>
      </trkpt>
      <trkpt lat="45.34506" lon="6.70641">
        <ele>1892.49</ele>
        <time>2010-08-04T13:48:22Z</time>
      </trkpt>
      <trkpt lat="45.34504" lon="6.70634">
        <ele>1890.09</ele>
        <time>2010-08-04T13:48:25Z</time>
      </trkpt>
      <trkpt lat="45.34503" lon="6.70629">
        <ele>1888.65</ele>
        <time>2010-08-04T13:48:27Z</time>
      </trkpt>
      <trkpt lat="45.345" lon="6.7062">
        <ele>1885.76</ele>
        <time>2010-08-04T13:48:31Z</time>
      </trkpt>
      <trkpt lat="45.34497" lon="6.7062">
        <ele>1887.21</ele>
        <time>2010-08-04T13:48:33Z</time>
      </trkpt>
      <trkpt lat="45.34496" lon="6.70617">
        <ele>1884.8</ele>
        <time>2010-08-04T13:48:35Z</time>
      </trkpt>
      <trkpt lat="45.34489" lon="6.70612">
        <ele>1884.32</ele>
        <time>2010-08-04T13:48:38Z</time>
      </trkpt>
      <trkpt lat="45.34486" lon="6.70609">
        <ele>1884.32</ele>
        <time>2010-08-04T13:48:40Z</time>
      </trkpt>
      <trkpt lat="45.34486" lon="6.70589">
        <ele>1880.96</ele>
        <time>2010-08-04T13:48:48Z</time>
      </trkpt>
      <trkpt lat="45.34485" lon="6.70573">
        <ele>1880</ele>
        <time>2010-08-04T13:48:54Z</time>
      </trkpt>
      <trkpt lat="45.34483" lon="6.70563">
        <ele>1879.51</ele>
        <time>2010-08-04T13:48:58Z</time>
      </trkpt>
      <trkpt lat="45.34485" lon="6.70555">
        <ele>1877.59</ele>
        <time>2010-08-04T13:49:02Z</time>
      </trkpt>
      <trkpt lat="45.34488" lon="6.70559">
        <ele>1875.19</ele>
        <time>2010-08-04T13:49:07Z</time>
      </trkpt>
      <trkpt lat="45.34493" lon="6.70561">
        <ele>1872.3</ele>
        <time>2010-08-04T13:49:12Z</time>
      </trkpt>
      <trkpt lat="45.34501" lon="6.70561">
        <ele>1871.34</ele>
        <time>2010-08-04T13:49:18Z</time>
      </trkpt>
      <trkpt lat="45.34504" lon="6.70552">
        <ele>1868.46</ele>
        <time>2010-08-04T13:49:24Z</time>
      </trkpt>
      <trkpt lat="45.34505" lon="6.70546">
        <ele>1868.46</ele>
        <time>2010-08-04T13:49:27Z</time>
      </trkpt>
      <trkpt lat="45.3451" lon="6.70541">
        <ele>1863.65</ele>
        <time>2010-08-04T13:49:33Z</time>
      </trkpt>
      <trkpt lat="45.34518" lon="6.70535">
        <ele>1860.77</ele>
        <time>2010-08-04T13:49:41Z</time>
      </trkpt>
      <trkpt lat="45.3452" lon="6.70535">
        <ele>1860.29</ele>
        <time>2010-08-04T13:49:42Z</time>
      </trkpt>
      <trkpt lat="45.34525" lon="6.70536">
        <ele>1858.85</ele>
        <time>2010-08-04T13:49:44Z</time>
      </trkpt>
      <trkpt lat="45.34532" lon="6.70534">
        <ele>1855.48</ele>
        <time>2010-08-04T13:49:48Z</time>
      </trkpt>
      <trkpt lat="45.34534" lon="6.70533">
        <ele>1856.44</ele>
        <time>2010-08-04T13:49:49Z</time>
      </trkpt>
      <trkpt lat="45.3454" lon="6.70531">
        <ele>1853.08</ele>
        <time>2010-08-04T13:49:52Z</time>
      </trkpt>
      <trkpt lat="45.34543" lon="6.70531">
        <ele>1853.08</ele>
        <time>2010-08-04T13:49:53Z</time>
      </trkpt>
      <trkpt lat="45.34544" lon="6.70531">
        <ele>1854.52</ele>
        <time>2010-08-04T13:49:54Z</time>
      </trkpt>
      <trkpt lat="45.34547" lon="6.7053">
        <ele>1851.64</ele>
        <time>2010-08-04T13:49:58Z</time>
      </trkpt>
      <trkpt lat="45.34546" lon="6.70528">
        <ele>1852.12</ele>
        <time>2010-08-04T13:49:59Z</time>
      </trkpt>
      <trkpt lat="45.34547" lon="6.70519">
        <ele>1848.75</ele>
        <time>2010-08-04T13:50:03Z</time>
      </trkpt>
      <trkpt lat="45.34548" lon="6.70518">
        <ele>1845.87</ele>
        <time>2010-08-04T13:50:04Z</time>
      </trkpt>
      <trkpt lat="45.34559" lon="6.70523">
        <ele>1846.83</ele>
        <time>2010-08-04T13:50:10Z</time>
      </trkpt>
      <trkpt lat="45.34567" lon="6.70525">
        <ele>1846.83</ele>
        <time>2010-08-04T13:50:14Z</time>
      </trkpt>
      <trkpt lat="45.34572" lon="6.70524">
        <ele>1843.47</ele>
        <time>2010-08-04T13:50:17Z</time>
      </trkpt>
      <trkpt lat="45.34571" lon="6.7052">
        <ele>1843.47</ele>
        <time>2010-08-04T13:50:19Z</time>
      </trkpt>
      <trkpt lat="45.34571" lon="6.7051">
        <ele>1843.47</ele>
        <time>2010-08-04T13:50:22Z</time>
      </trkpt>
      <trkpt lat="45.34571" lon="6.70506">
        <ele>1842.5</ele>
        <time>2010-08-04T13:50:24Z</time>
      </trkpt>
      <trkpt lat="45.34576" lon="6.70505">
        <ele>1839.62</ele>
        <time>2010-08-04T13:50:29Z</time>
      </trkpt>
      <trkpt lat="45.34583" lon="6.70501">
        <ele>1836.74</ele>
        <time>2010-08-04T13:50:34Z</time>
      </trkpt>
      <trkpt lat="45.34585" lon="6.70495">
        <ele>1835.29</ele>
        <time>2010-08-04T13:50:39Z</time>
      </trkpt>
      <trkpt lat="45.34588" lon="6.70499">
        <ele>1833.37</ele>
        <time>2010-08-04T13:50:42Z</time>
      </trkpt>
      <trkpt lat="45.3459" lon="6.705">
        <ele>1833.85</ele>
        <time>2010-08-04T13:50:43Z</time>
      </trkpt>
      <trkpt lat="45.34592" lon="6.70503">
        <ele>1835.77</ele>
        <time>2010-08-04T13:50:45Z</time>
      </trkpt>
      <trkpt lat="45.34595" lon="6.705">
        <ele>1832.89</ele>
        <time>2010-08-04T13:50:47Z</time>
      </trkpt>
      <trkpt lat="45.34603" lon="6.70489">
        <ele>1828.56</ele>
        <time>2010-08-04T13:50:54Z</time>
      </trkpt>
      <trkpt lat="45.34603" lon="6.70482">
        <ele>1827.12</ele>
        <time>2010-08-04T13:50:56Z</time>
      </trkpt>
      <trkpt lat="45.34604" lon="6.70471">
        <ele>1825.68</ele>
        <time>2010-08-04T13:51:01Z</time>
      </trkpt>
      <trkpt lat="45.34607" lon="6.70474">
        <ele>1824.72</ele>
        <time>2010-08-04T13:51:03Z</time>
      </trkpt>
      <trkpt lat="45.34615" lon="6.70472">
        <ele>1822.32</ele>
        <time>2010-08-04T13:51:07Z</time>
      </trkpt>
      <trkpt lat="45.34618" lon="6.70473">
        <ele>1820.87</ele>
        <time>2010-08-04T13:51:09Z</time>
      </trkpt>
      <trkpt lat="45.34627" lon="6.70473">
        <ele>1818.95</ele>
        <time>2010-08-04T13:51:14Z</time>
      </trkpt>
      <trkpt lat="45.34639" lon="6.70482">
        <ele>1817.03</ele>
        <time>2010-08-04T13:51:22Z</time>
      </trkpt>
      <trkpt lat="45.34643" lon="6.70484">
        <ele>1814.15</ele>
        <time>2010-08-04T13:51:24Z</time>
      </trkpt>
      <trkpt lat="45.34646" lon="6.70488">
        <ele>1813.18</ele>
        <time>2010-08-04T13:51:27Z</time>
      </trkpt>
      <trkpt lat="45.34649" lon="6.70493">
        <ele>1810.78</ele>
        <time>2010-08-04T13:51:29Z</time>
      </trkpt>
      <trkpt lat="45.34654" lon="6.70498">
        <ele>1807.42</ele>
        <time>2010-08-04T13:51:33Z</time>
      </trkpt>
      <trkpt lat="45.34663" lon="6.70494">
        <ele>1804.53</ele>
        <time>2010-08-04T13:51:38Z</time>
      </trkpt>
      <trkpt lat="45.34664" lon="6.70492">
        <ele>1805.01</ele>
        <time>2010-08-04T13:51:39Z</time>
      </trkpt>
      <trkpt lat="45.3467" lon="6.70484">
        <ele>1803.57</ele>
        <time>2010-08-04T13:51:43Z</time>
      </trkpt>
      <trkpt lat="45.34674" lon="6.70473">
        <ele>1801.65</ele>
        <time>2010-08-04T13:51:47Z</time>
      </trkpt>
      <trkpt lat="45.34673" lon="6.70469">
        <ele>1798.28</ele>
        <time>2010-08-04T13:51:49Z</time>
      </trkpt>
      <trkpt lat="45.34672" lon="6.70455">
        <ele>1794.92</ele>
        <time>2010-08-04T13:51:55Z</time>
      </trkpt>
      <trkpt lat="45.34671" lon="6.70446">
        <ele>1797.8</ele>
        <time>2010-08-04T13:51:58Z</time>
      </trkpt>
      <trkpt lat="45.34671" lon="6.70441">
        <ele>1793.96</ele>
        <time>2010-08-04T13:52:00Z</time>
      </trkpt>
      <trkpt lat="45.34674" lon="6.70427">
        <ele>1790.59</ele>
        <time>2010-08-04T13:52:07Z</time>
      </trkpt>
      <trkpt lat="45.34673" lon="6.70421">
        <ele>1788.19</ele>
        <time>2010-08-04T13:52:09Z</time>
      </trkpt>
      <trkpt lat="45.34673" lon="6.70413">
        <ele>1786.75</ele>
        <time>2010-08-04T13:52:13Z</time>
      </trkpt>
      <trkpt lat="45.34676" lon="6.70411">
        <ele>1785.31</ele>
        <time>2010-08-04T13:52:16Z</time>
      </trkpt>
      <trkpt lat="45.34677" lon="6.70414">
        <ele>1784.34</ele>
        <time>2010-08-04T13:52:18Z</time>
      </trkpt>
      <trkpt lat="45.34678" lon="6.70406">
        <ele>1781.94</ele>
        <time>2010-08-04T13:52:23Z</time>
      </trkpt>
      <trkpt lat="45.34682" lon="6.70397">
        <ele>1778.1</ele>
        <time>2010-08-04T13:52:27Z</time>
      </trkpt>
      <trkpt lat="45.34678" lon="6.70385">
        <ele>1775.69</ele>
        <time>2010-08-04T13:52:32Z</time>
      </trkpt>
      <trkpt lat="45.34675" lon="6.7037">
        <ele>1772.81</ele>
        <time>2010-08-04T13:52:38Z</time>
      </trkpt>
      <trkpt lat="45.34673" lon="6.70357">
        <ele>1771.85</ele>
        <time>2010-08-04T13:52:43Z</time>
      </trkpt>
      <trkpt lat="45.3467" lon="6.70351">
        <ele>1769.92</ele>
        <time>2010-08-04T13:52:46Z</time>
      </trkpt>
      <trkpt lat="45.34665" lon="6.70336">
        <ele>1766.56</ele>
        <time>2010-08-04T13:52:52Z</time>
      </trkpt>
      <trkpt lat="45.34658" lon="6.70325">
        <ele>1765.12</ele>
        <time>2010-08-04T13:52:57Z</time>
      </trkpt>
      <trkpt lat="45.34656" lon="6.70322">
        <ele>1764.64</ele>
        <time>2010-08-04T13:52:59Z</time>
      </trkpt>
      <trkpt lat="45.34654" lon="6.70309">
        <ele>1762.23</ele>
        <time>2010-08-04T13:53:04Z</time>
      </trkpt>
      <trkpt lat="45.34651" lon="6.70302">
        <ele>1759.83</ele>
        <time>2010-08-04T13:53:08Z</time>
      </trkpt>
      <trkpt lat="45.3465" lon="6.70294">
        <ele>1757.43</ele>
        <time>2010-08-04T13:53:12Z</time>
      </trkpt>
      <trkpt lat="45.34651" lon="6.70289">
        <ele>1756.95</ele>
        <time>2010-08-04T13:53:14Z</time>
      </trkpt>
      <trkpt lat="45.3465" lon="6.70269">
        <ele>1753.58</ele>
        <time>2010-08-04T13:53:20Z</time>
      </trkpt>
      <trkpt lat="45.34647" lon="6.70257">
        <ele>1750.7</ele>
        <time>2010-08-04T13:53:25Z</time>
      </trkpt>
      <trkpt lat="45.34647" lon="6.70255">
        <ele>1749.74</ele>
        <time>2010-08-04T13:53:26Z</time>
      </trkpt>
      <trkpt lat="45.34647" lon="6.70243">
        <ele>1747.33</ele>
        <time>2010-08-04T13:53:30Z</time>
      </trkpt>
      <trkpt lat="45.34645" lon="6.70235">
        <ele>1745.89</ele>
        <time>2010-08-04T13:53:33Z</time>
      </trkpt>
      <trkpt lat="45.34643" lon="6.70232">
        <ele>1744.45</ele>
        <time>2010-08-04T13:53:35Z</time>
      </trkpt>
      <trkpt lat="45.34638" lon="6.70217">
        <ele>1743.01</ele>
        <time>2010-08-04T13:53:42Z</time>
      </trkpt>
      <trkpt lat="45.34638" lon="6.70212">
        <ele>1743.49</ele>
        <time>2010-08-04T13:53:44Z</time>
      </trkpt>
      <trkpt lat="45.34633" lon="6.70203">
        <ele>1742.05</ele>
        <time>2010-08-04T13:53:52Z</time>
      </trkpt>
      <trkpt lat="45.34624" lon="6.7019">
        <ele>1740.12</ele>
        <time>2010-08-04T13:54:02Z</time>
      </trkpt>
      <trkpt lat="45.34621" lon="6.70185">
        <ele>1740.12</ele>
        <time>2010-08-04T13:54:05Z</time>
      </trkpt>
      <trkpt lat="45.34612" lon="6.70174">
        <ele>1739.16</ele>
        <time>2010-08-04T13:54:14Z</time>
      </trkpt>
      <trkpt lat="45.34608" lon="6.70167">
        <ele>1738.68</ele>
        <time>2010-08-04T13:54:19Z</time>
      </trkpt>
      <trkpt lat="45.34603" lon="6.70162">
        <ele>1738.68</ele>
        <time>2010-08-04T13:54:24Z</time>
      </trkpt>
      <trkpt lat="45.34601" lon="6.70158">
        <ele>1738.2</ele>
        <time>2010-08-04T13:54:27Z</time>
      </trkpt>
      <trkpt lat="45.34591" lon="6.70149">
        <ele>1737.24</ele>
        <time>2010-08-04T13:54:35Z</time>
      </trkpt>
      <trkpt lat="45.34586" lon="6.70141">
        <ele>1736.28</ele>
        <time>2010-08-04T13:54:39Z</time>
      </trkpt>
      <trkpt lat="45.34576" lon="6.70131">
        <ele>1737.24</ele>
        <time>2010-08-04T13:54:45Z</time>
      </trkpt>
      <trkpt lat="45.34568" lon="6.7012">
        <ele>1735.8</ele>
        <time>2010-08-04T13:54:54Z</time>
      </trkpt>
      <trkpt lat="45.3456" lon="6.70114">
        <ele>1734.36</ele>
        <time>2010-08-04T13:55:00Z</time>
      </trkpt>
      <trkpt lat="45.34557" lon="6.70112">
        <ele>1732.91</ele>
        <time>2010-08-04T13:55:02Z</time>
      </trkpt>
      <trkpt lat="45.34557" lon="6.70111">
        <ele>1732.91</ele>
        <time>2010-08-04T13:55:03Z</time>
      </trkpt>
      <trkpt lat="45.34549" lon="6.70105">
        <ele>1732.43</ele>
        <time>2010-08-04T13:55:10Z</time>
      </trkpt>
      <trkpt lat="45.34541" lon="6.70099">
        <ele>1729.07</ele>
        <time>2010-08-04T13:55:15Z</time>
      </trkpt>
      <trkpt lat="45.34536" lon="6.70096">
        <ele>1729.55</ele>
        <time>2010-08-04T13:55:20Z</time>
      </trkpt>
      <trkpt lat="45.34529" lon="6.70091">
        <ele>1727.63</ele>
        <time>2010-08-04T13:55:26Z</time>
      </trkpt>
      <trkpt lat="45.3453" lon="6.70086">
        <ele>1727.15</ele>
        <time>2010-08-04T13:55:29Z</time>
      </trkpt>
      <trkpt lat="45.34538" lon="6.70077">
        <ele>1723.78</ele>
        <time>2010-08-04T13:55:36Z</time>
      </trkpt>
      <trkpt lat="45.3454" lon="6.70077">
        <ele>1725.22</ele>
        <time>2010-08-04T13:55:37Z</time>
      </trkpt>
      <trkpt lat="45.34551" lon="6.70079">
        <ele>1723.78</ele>
        <time>2010-08-04T13:55:43Z</time>
      </trkpt>
      <trkpt lat="45.34558" lon="6.7008">
        <ele>1723.3</ele>
        <time>2010-08-04T13:55:49Z</time>
      </trkpt>
      <trkpt lat="45.34573" lon="6.70086">
        <ele>1721.86</ele>
        <time>2010-08-04T13:56:01Z</time>
      </trkpt>
      <trkpt lat="45.34587" lon="6.70092">
        <ele>1722.34</ele>
        <time>2010-08-04T13:56:14Z</time>
      </trkpt>
      <trkpt lat="45.34596" lon="6.70095">
        <ele>1721.86</ele>
        <time>2010-08-04T13:56:22Z</time>
      </trkpt>
      <trkpt lat="45.34603" lon="6.70099">
        <ele>1725.7</ele>
        <time>2010-08-04T13:56:28Z</time>
      </trkpt>
      <trkpt lat="45.34604" lon="6.701">
        <ele>1721.38</ele>
        <time>2010-08-04T13:56:29Z</time>
      </trkpt>
      <trkpt lat="45.34608" lon="6.70102">
        <ele>1724.74</ele>
        <time>2010-08-04T13:56:31Z</time>
      </trkpt>
      <trkpt lat="45.34609" lon="6.70102">
        <ele>1721.86</ele>
        <time>2010-08-04T13:56:32Z</time>
      </trkpt>
      <trkpt lat="45.34611" lon="6.70103">
        <ele>1723.3</ele>
        <time>2010-08-04T13:56:33Z</time>
      </trkpt>
      <trkpt lat="45.34614" lon="6.70107">
        <ele>1720.42</ele>
        <time>2010-08-04T13:56:36Z</time>
      </trkpt>
      <trkpt lat="45.34628" lon="6.7012">
        <ele>1720.9</ele>
        <time>2010-08-04T13:56:48Z</time>
      </trkpt>
    </trkseg>
  </trk>
</gpx>